<?xml version="1.0" encoding="UTF-8" standalone="no" ?>
<gpx xmlns="http://www.topografix.com/GPX/1/1" xmlns:xsi="http://www.w3.org/2001/XMLSchema-instance" xsi:schemaLocation="http://www.topografix.com/GPX/1/1 http://www.topografix.com/GPX/1/1/gpx.xsd" version="1.1" creator="VisuGPX - https://www.visugpx.com">
  <metadata>
    <name>Running 5/23/21 6:56 am</name>
  </metadata>
  <trk>
    <name><![CDATA[Running 5/23/21 6:56 am]]></name>
    <trkseg>
      <trkpt lat="49.44852" lon="1.09571">
        <ele>41.2</ele>
        <time>2021-05-23T06:56:50Z</time>
      </trkpt>
      <trkpt lat="49.44851" lon="1.09562">
        <ele>40.7</ele>
        <time>2021-05-23T06:56:54Z</time>
      </trkpt>
      <trkpt lat="49.44836" lon="1.09554">
        <ele>40.2</ele>
        <time>2021-05-23T06:56:59Z</time>
      </trkpt>
      <trkpt lat="49.44839" lon="1.09554">
        <ele>39.8</ele>
        <time>2021-05-23T06:57:03Z</time>
      </trkpt>
      <trkpt lat="49.44843" lon="1.09555">
        <ele>39.4</ele>
        <time>2021-05-23T06:57:04Z</time>
      </trkpt>
      <trkpt lat="49.44856" lon="1.09547">
        <ele>39.1</ele>
        <time>2021-05-23T06:57:08Z</time>
      </trkpt>
      <trkpt lat="49.44848" lon="1.09491">
        <ele>38.6</ele>
        <time>2021-05-23T06:57:09Z</time>
      </trkpt>
      <trkpt lat="49.44842" lon="1.09464">
        <ele>38.3</ele>
        <time>2021-05-23T06:57:11Z</time>
      </trkpt>
      <trkpt lat="49.44838" lon="1.09438">
        <ele>38</ele>
        <time>2021-05-23T06:57:12Z</time>
      </trkpt>
      <trkpt lat="49.44846" lon="1.09446">
        <ele>37.8</ele>
        <time>2021-05-23T06:57:13Z</time>
      </trkpt>
      <trkpt lat="49.44841" lon="1.09444">
        <ele>37.8</ele>
        <time>2021-05-23T06:57:14Z</time>
      </trkpt>
      <trkpt lat="49.44831" lon="1.09431">
        <ele>37.8</ele>
        <time>2021-05-23T06:57:16Z</time>
      </trkpt>
      <trkpt lat="49.44822" lon="1.09416">
        <ele>37.8</ele>
        <time>2021-05-23T06:57:17Z</time>
      </trkpt>
      <trkpt lat="49.44805" lon="1.09407">
        <ele>37.9</ele>
        <time>2021-05-23T06:57:19Z</time>
      </trkpt>
      <trkpt lat="49.44793" lon="1.09402">
        <ele>38</ele>
        <time>2021-05-23T06:57:20Z</time>
      </trkpt>
      <trkpt lat="49.44769" lon="1.09393">
        <ele>37.9</ele>
        <time>2021-05-23T06:57:22Z</time>
      </trkpt>
      <trkpt lat="49.44748" lon="1.0938">
        <ele>37.7</ele>
        <time>2021-05-23T06:57:24Z</time>
      </trkpt>
      <trkpt lat="49.44725" lon="1.09367">
        <ele>37.5</ele>
        <time>2021-05-23T06:57:26Z</time>
      </trkpt>
      <trkpt lat="49.44714" lon="1.09362">
        <ele>37</ele>
        <time>2021-05-23T06:57:27Z</time>
      </trkpt>
      <trkpt lat="49.44696" lon="1.0935">
        <ele>36.4</ele>
        <time>2021-05-23T06:57:29Z</time>
      </trkpt>
      <trkpt lat="49.44678" lon="1.09339">
        <ele>35.6</ele>
        <time>2021-05-23T06:57:31Z</time>
      </trkpt>
      <trkpt lat="49.44669" lon="1.09334">
        <ele>34.8</ele>
        <time>2021-05-23T06:57:32Z</time>
      </trkpt>
      <trkpt lat="49.44653" lon="1.09327">
        <ele>34.2</ele>
        <time>2021-05-23T06:57:34Z</time>
      </trkpt>
      <trkpt lat="49.44635" lon="1.09321">
        <ele>33.6</ele>
        <time>2021-05-23T06:57:36Z</time>
      </trkpt>
      <trkpt lat="49.44628" lon="1.09316">
        <ele>33.1</ele>
        <time>2021-05-23T06:57:37Z</time>
      </trkpt>
      <trkpt lat="49.4461" lon="1.09306">
        <ele>32.5</ele>
        <time>2021-05-23T06:57:40Z</time>
      </trkpt>
      <trkpt lat="49.44594" lon="1.09297">
        <ele>32.1</ele>
        <time>2021-05-23T06:57:42Z</time>
      </trkpt>
      <trkpt lat="49.4458" lon="1.09289">
        <ele>31.6</ele>
        <time>2021-05-23T06:57:44Z</time>
      </trkpt>
      <trkpt lat="49.44571" lon="1.09281">
        <ele>31.1</ele>
        <time>2021-05-23T06:57:45Z</time>
      </trkpt>
      <trkpt lat="49.4456" lon="1.09274">
        <ele>30.6</ele>
        <time>2021-05-23T06:57:46Z</time>
      </trkpt>
      <trkpt lat="49.44542" lon="1.09264">
        <ele>30.2</ele>
        <time>2021-05-23T06:57:48Z</time>
      </trkpt>
      <trkpt lat="49.44533" lon="1.09258">
        <ele>29.7</ele>
        <time>2021-05-23T06:57:49Z</time>
      </trkpt>
      <trkpt lat="49.44524" lon="1.09251">
        <ele>29.3</ele>
        <time>2021-05-23T06:57:50Z</time>
      </trkpt>
      <trkpt lat="49.44504" lon="1.09245">
        <ele>28.6</ele>
        <time>2021-05-23T06:57:52Z</time>
      </trkpt>
      <trkpt lat="49.44496" lon="1.09242">
        <ele>28.1</ele>
        <time>2021-05-23T06:57:53Z</time>
      </trkpt>
      <trkpt lat="49.44476" lon="1.09233">
        <ele>27.5</ele>
        <time>2021-05-23T06:57:55Z</time>
      </trkpt>
      <trkpt lat="49.44467" lon="1.09229">
        <ele>27.1</ele>
        <time>2021-05-23T06:57:56Z</time>
      </trkpt>
      <trkpt lat="49.44447" lon="1.0922">
        <ele>26.8</ele>
        <time>2021-05-23T06:57:58Z</time>
      </trkpt>
      <trkpt lat="49.44429" lon="1.09208">
        <ele>26.7</ele>
        <time>2021-05-23T06:58:00Z</time>
      </trkpt>
      <trkpt lat="49.4442" lon="1.09201">
        <ele>26.8</ele>
        <time>2021-05-23T06:58:01Z</time>
      </trkpt>
      <trkpt lat="49.44403" lon="1.09191">
        <ele>26.9</ele>
        <time>2021-05-23T06:58:03Z</time>
      </trkpt>
      <trkpt lat="49.44396" lon="1.09184">
        <ele>27</ele>
        <time>2021-05-23T06:58:04Z</time>
      </trkpt>
      <trkpt lat="49.44386" lon="1.09177">
        <ele>27</ele>
        <time>2021-05-23T06:58:05Z</time>
      </trkpt>
      <trkpt lat="49.44371" lon="1.09166">
        <ele>27</ele>
        <time>2021-05-23T06:58:07Z</time>
      </trkpt>
      <trkpt lat="49.44363" lon="1.09161">
        <ele>27</ele>
        <time>2021-05-23T06:58:08Z</time>
      </trkpt>
      <trkpt lat="49.44348" lon="1.09152">
        <ele>27</ele>
        <time>2021-05-23T06:58:10Z</time>
      </trkpt>
      <trkpt lat="49.4434" lon="1.09148">
        <ele>26.9</ele>
        <time>2021-05-23T06:58:11Z</time>
      </trkpt>
      <trkpt lat="49.44326" lon="1.09141">
        <ele>26.8</ele>
        <time>2021-05-23T06:58:13Z</time>
      </trkpt>
      <trkpt lat="49.44319" lon="1.09138">
        <ele>26.6</ele>
        <time>2021-05-23T06:58:14Z</time>
      </trkpt>
      <trkpt lat="49.44303" lon="1.09131">
        <ele>26.5</ele>
        <time>2021-05-23T06:58:16Z</time>
      </trkpt>
      <trkpt lat="49.44295" lon="1.09125">
        <ele>26.3</ele>
        <time>2021-05-23T06:58:17Z</time>
      </trkpt>
      <trkpt lat="49.44288" lon="1.09121">
        <ele>26.1</ele>
        <time>2021-05-23T06:58:18Z</time>
      </trkpt>
      <trkpt lat="49.44274" lon="1.09115">
        <ele>25.9</ele>
        <time>2021-05-23T06:58:20Z</time>
      </trkpt>
      <trkpt lat="49.44265" lon="1.09113">
        <ele>25.8</ele>
        <time>2021-05-23T06:58:21Z</time>
      </trkpt>
      <trkpt lat="49.44257" lon="1.09109">
        <ele>25.6</ele>
        <time>2021-05-23T06:58:22Z</time>
      </trkpt>
      <trkpt lat="49.44249" lon="1.09104">
        <ele>25.5</ele>
        <time>2021-05-23T06:58:23Z</time>
      </trkpt>
      <trkpt lat="49.44242" lon="1.09099">
        <ele>25.3</ele>
        <time>2021-05-23T06:58:24Z</time>
      </trkpt>
      <trkpt lat="49.44229" lon="1.09089">
        <ele>25.2</ele>
        <time>2021-05-23T06:58:26Z</time>
      </trkpt>
      <trkpt lat="49.44222" lon="1.09083">
        <ele>25.1</ele>
        <time>2021-05-23T06:58:28Z</time>
      </trkpt>
      <trkpt lat="49.44209" lon="1.09074">
        <ele>24.9</ele>
        <time>2021-05-23T06:58:30Z</time>
      </trkpt>
      <trkpt lat="49.44197" lon="1.09066">
        <ele>24.6</ele>
        <time>2021-05-23T06:58:32Z</time>
      </trkpt>
      <trkpt lat="49.44188" lon="1.09058">
        <ele>24.4</ele>
        <time>2021-05-23T06:58:34Z</time>
      </trkpt>
      <trkpt lat="49.44185" lon="1.09055">
        <ele>24.1</ele>
        <time>2021-05-23T06:58:35Z</time>
      </trkpt>
      <trkpt lat="49.44181" lon="1.09053">
        <ele>23.7</ele>
        <time>2021-05-23T06:58:36Z</time>
      </trkpt>
      <trkpt lat="49.44175" lon="1.09053">
        <ele>23.4</ele>
        <time>2021-05-23T06:58:37Z</time>
      </trkpt>
      <trkpt lat="49.44165" lon="1.09048">
        <ele>23</ele>
        <time>2021-05-23T06:58:39Z</time>
      </trkpt>
      <trkpt lat="49.4416" lon="1.09045">
        <ele>22.6</ele>
        <time>2021-05-23T06:58:40Z</time>
      </trkpt>
      <trkpt lat="49.44155" lon="1.09044">
        <ele>22.2</ele>
        <time>2021-05-23T06:58:41Z</time>
      </trkpt>
      <trkpt lat="49.44143" lon="1.09033">
        <ele>21.7</ele>
        <time>2021-05-23T06:58:43Z</time>
      </trkpt>
      <trkpt lat="49.44136" lon="1.09029">
        <ele>21.2</ele>
        <time>2021-05-23T06:58:44Z</time>
      </trkpt>
      <trkpt lat="49.44126" lon="1.09022">
        <ele>20.6</ele>
        <time>2021-05-23T06:58:46Z</time>
      </trkpt>
      <trkpt lat="49.44115" lon="1.09015">
        <ele>20.1</ele>
        <time>2021-05-23T06:58:48Z</time>
      </trkpt>
      <trkpt lat="49.4411" lon="1.09011">
        <ele>19.5</ele>
        <time>2021-05-23T06:58:49Z</time>
      </trkpt>
      <trkpt lat="49.44104" lon="1.09008">
        <ele>18.8</ele>
        <time>2021-05-23T06:58:50Z</time>
      </trkpt>
      <trkpt lat="49.44091" lon="1.09">
        <ele>18.2</ele>
        <time>2021-05-23T06:58:52Z</time>
      </trkpt>
      <trkpt lat="49.44084" lon="1.08994">
        <ele>17.5</ele>
        <time>2021-05-23T06:58:53Z</time>
      </trkpt>
      <trkpt lat="49.44079" lon="1.0899">
        <ele>16.7</ele>
        <time>2021-05-23T06:58:54Z</time>
      </trkpt>
      <trkpt lat="49.44064" lon="1.08981">
        <ele>16.1</ele>
        <time>2021-05-23T06:58:56Z</time>
      </trkpt>
      <trkpt lat="49.44052" lon="1.08968">
        <ele>15.5</ele>
        <time>2021-05-23T06:58:58Z</time>
      </trkpt>
      <trkpt lat="49.44047" lon="1.08964">
        <ele>15</ele>
        <time>2021-05-23T06:58:59Z</time>
      </trkpt>
      <trkpt lat="49.44036" lon="1.08958">
        <ele>14.5</ele>
        <time>2021-05-23T06:59:01Z</time>
      </trkpt>
      <trkpt lat="49.44021" lon="1.0895">
        <ele>14.3</ele>
        <time>2021-05-23T06:59:03Z</time>
      </trkpt>
      <trkpt lat="49.44005" lon="1.08941">
        <ele>14</ele>
        <time>2021-05-23T06:59:05Z</time>
      </trkpt>
      <trkpt lat="49.43997" lon="1.08936">
        <ele>14</ele>
        <time>2021-05-23T06:59:06Z</time>
      </trkpt>
      <trkpt lat="49.43989" lon="1.08932">
        <ele>14.2</ele>
        <time>2021-05-23T06:59:07Z</time>
      </trkpt>
      <trkpt lat="49.43973" lon="1.08923">
        <ele>14.4</ele>
        <time>2021-05-23T06:59:09Z</time>
      </trkpt>
      <trkpt lat="49.43957" lon="1.08914">
        <ele>14.5</ele>
        <time>2021-05-23T06:59:11Z</time>
      </trkpt>
      <trkpt lat="49.43942" lon="1.08903">
        <ele>14.6</ele>
        <time>2021-05-23T06:59:13Z</time>
      </trkpt>
      <trkpt lat="49.4393" lon="1.08896">
        <ele>14.5</ele>
        <time>2021-05-23T06:59:15Z</time>
      </trkpt>
      <trkpt lat="49.43915" lon="1.08887">
        <ele>14.1</ele>
        <time>2021-05-23T06:59:18Z</time>
      </trkpt>
      <trkpt lat="49.43901" lon="1.08879">
        <ele>13.6</ele>
        <time>2021-05-23T06:59:20Z</time>
      </trkpt>
      <trkpt lat="49.43892" lon="1.08875">
        <ele>13.1</ele>
        <time>2021-05-23T06:59:21Z</time>
      </trkpt>
      <trkpt lat="49.43884" lon="1.08871">
        <ele>12.4</ele>
        <time>2021-05-23T06:59:22Z</time>
      </trkpt>
      <trkpt lat="49.43871" lon="1.08863">
        <ele>11.6</ele>
        <time>2021-05-23T06:59:24Z</time>
      </trkpt>
      <trkpt lat="49.43859" lon="1.08856">
        <ele>10.6</ele>
        <time>2021-05-23T06:59:26Z</time>
      </trkpt>
      <trkpt lat="49.43847" lon="1.08848">
        <ele>9.5</ele>
        <time>2021-05-23T06:59:28Z</time>
      </trkpt>
      <trkpt lat="49.43836" lon="1.08841">
        <ele>8.5</ele>
        <time>2021-05-23T06:59:30Z</time>
      </trkpt>
      <trkpt lat="49.43831" lon="1.08838">
        <ele>7.5</ele>
        <time>2021-05-23T06:59:31Z</time>
      </trkpt>
      <trkpt lat="49.43826" lon="1.08834">
        <ele>7</ele>
        <time>2021-05-23T06:59:32Z</time>
      </trkpt>
      <trkpt lat="49.43816" lon="1.08828">
        <ele>6.7</ele>
        <time>2021-05-23T06:59:34Z</time>
      </trkpt>
      <trkpt lat="49.43811" lon="1.08825">
        <ele>6.6</ele>
        <time>2021-05-23T06:59:35Z</time>
      </trkpt>
      <trkpt lat="49.43808" lon="1.08822">
        <ele>6.6</ele>
        <time>2021-05-23T06:59:36Z</time>
      </trkpt>
      <trkpt lat="49.43802" lon="1.08818">
        <ele>6.7</ele>
        <time>2021-05-23T06:59:37Z</time>
      </trkpt>
      <trkpt lat="49.43792" lon="1.08811">
        <ele>6.9</ele>
        <time>2021-05-23T06:59:39Z</time>
      </trkpt>
      <trkpt lat="49.43787" lon="1.08807">
        <ele>7.1</ele>
        <time>2021-05-23T06:59:40Z</time>
      </trkpt>
      <trkpt lat="49.43777" lon="1.088">
        <ele>7.4</ele>
        <time>2021-05-23T06:59:42Z</time>
      </trkpt>
      <trkpt lat="49.43773" lon="1.08797">
        <ele>7.6</ele>
        <time>2021-05-23T06:59:43Z</time>
      </trkpt>
      <trkpt lat="49.43768" lon="1.08794">
        <ele>7.8</ele>
        <time>2021-05-23T06:59:44Z</time>
      </trkpt>
      <trkpt lat="49.43759" lon="1.08788">
        <ele>8</ele>
        <time>2021-05-23T06:59:46Z</time>
      </trkpt>
      <trkpt lat="49.43751" lon="1.08782">
        <ele>8</ele>
        <time>2021-05-23T06:59:48Z</time>
      </trkpt>
      <trkpt lat="49.43747" lon="1.08781">
        <ele>8</ele>
        <time>2021-05-23T06:59:49Z</time>
      </trkpt>
      <trkpt lat="49.43743" lon="1.08779">
        <ele>8</ele>
        <time>2021-05-23T06:59:50Z</time>
      </trkpt>
      <trkpt lat="49.43739" lon="1.08776">
        <ele>8</ele>
        <time>2021-05-23T06:59:51Z</time>
      </trkpt>
      <trkpt lat="49.43732" lon="1.08772">
        <ele>8</ele>
        <time>2021-05-23T06:59:53Z</time>
      </trkpt>
      <trkpt lat="49.43728" lon="1.0877">
        <ele>8.1</ele>
        <time>2021-05-23T06:59:54Z</time>
      </trkpt>
      <trkpt lat="49.43727" lon="1.08774">
        <ele>8.2</ele>
        <time>2021-05-23T06:59:56Z</time>
      </trkpt>
      <trkpt lat="49.43723" lon="1.0877">
        <ele>8.3</ele>
        <time>2021-05-23T06:59:57Z</time>
      </trkpt>
      <trkpt lat="49.43718" lon="1.08768">
        <ele>8.4</ele>
        <time>2021-05-23T06:59:58Z</time>
      </trkpt>
      <trkpt lat="49.4371" lon="1.08762">
        <ele>8.5</ele>
        <time>2021-05-23T07:00:00Z</time>
      </trkpt>
      <trkpt lat="49.43705" lon="1.08763">
        <ele>8.5</ele>
        <time>2021-05-23T07:00:01Z</time>
      </trkpt>
      <trkpt lat="49.43703" lon="1.08766">
        <ele>8.6</ele>
        <time>2021-05-23T07:00:02Z</time>
      </trkpt>
      <trkpt lat="49.43703" lon="1.08767">
        <ele>8.6</ele>
        <time>2021-05-23T07:00:03Z</time>
      </trkpt>
      <trkpt lat="49.43703" lon="1.08771">
        <ele>8.6</ele>
        <time>2021-05-23T07:00:06Z</time>
      </trkpt>
      <trkpt lat="49.43703" lon="1.08777">
        <ele>8.6</ele>
        <time>2021-05-23T07:00:08Z</time>
      </trkpt>
      <trkpt lat="49.43706" lon="1.08777">
        <ele>8.6</ele>
        <time>2021-05-23T07:00:09Z</time>
      </trkpt>
      <trkpt lat="49.43707" lon="1.08775">
        <ele>8.5</ele>
        <time>2021-05-23T07:00:10Z</time>
      </trkpt>
      <trkpt lat="49.4371" lon="1.08775">
        <ele>8.5</ele>
        <time>2021-05-23T07:00:12Z</time>
      </trkpt>
      <trkpt lat="49.43713" lon="1.08777">
        <ele>8.4</ele>
        <time>2021-05-23T07:00:13Z</time>
      </trkpt>
      <trkpt lat="49.43715" lon="1.08779">
        <ele>8.3</ele>
        <time>2021-05-23T07:00:14Z</time>
      </trkpt>
      <trkpt lat="49.4372" lon="1.08778">
        <ele>8.2</ele>
        <time>2021-05-23T07:00:15Z</time>
      </trkpt>
      <trkpt lat="49.43724" lon="1.08777">
        <ele>8.1</ele>
        <time>2021-05-23T07:00:17Z</time>
      </trkpt>
      <trkpt lat="49.43726" lon="1.08778">
        <ele>8</ele>
        <time>2021-05-23T07:00:18Z</time>
      </trkpt>
      <trkpt lat="49.43727" lon="1.08779">
        <ele>8</ele>
        <time>2021-05-23T07:00:19Z</time>
      </trkpt>
      <trkpt lat="49.4373" lon="1.08782">
        <ele>8</ele>
        <time>2021-05-23T07:00:20Z</time>
      </trkpt>
      <trkpt lat="49.43735" lon="1.08784">
        <ele>8</ele>
        <time>2021-05-23T07:00:21Z</time>
      </trkpt>
      <trkpt lat="49.43737" lon="1.08785">
        <ele>8</ele>
        <time>2021-05-23T07:00:22Z</time>
      </trkpt>
      <trkpt lat="49.43739" lon="1.08788">
        <ele>8</ele>
        <time>2021-05-23T07:00:24Z</time>
      </trkpt>
      <trkpt lat="49.43739" lon="1.08789">
        <ele>8</ele>
        <time>2021-05-23T07:00:25Z</time>
      </trkpt>
      <trkpt lat="49.4374" lon="1.08789">
        <ele>8</ele>
        <time>2021-05-23T07:00:26Z</time>
      </trkpt>
      <trkpt lat="49.43739" lon="1.08789">
        <ele>8</ele>
        <time>2021-05-23T07:00:28Z</time>
      </trkpt>
      <trkpt lat="49.43739" lon="1.08789">
        <ele>8</ele>
        <time>2021-05-23T07:00:29Z</time>
      </trkpt>
      <trkpt lat="49.43739" lon="1.08789">
        <ele>8</ele>
        <time>2021-05-23T07:00:31Z</time>
      </trkpt>
      <trkpt lat="49.43738" lon="1.08789">
        <ele>8</ele>
        <time>2021-05-23T07:00:32Z</time>
      </trkpt>
      <trkpt lat="49.43738" lon="1.08789">
        <ele>8</ele>
        <time>2021-05-23T07:00:33Z</time>
      </trkpt>
      <trkpt lat="49.43738" lon="1.08789">
        <ele>8</ele>
        <time>2021-05-23T07:00:34Z</time>
      </trkpt>
      <trkpt lat="49.43738" lon="1.08789">
        <ele>8</ele>
        <time>2021-05-23T07:00:36Z</time>
      </trkpt>
      <trkpt lat="49.43738" lon="1.08788">
        <ele>8</ele>
        <time>2021-05-23T07:00:37Z</time>
      </trkpt>
      <trkpt lat="49.43738" lon="1.08788">
        <ele>8</ele>
        <time>2021-05-23T07:00:39Z</time>
      </trkpt>
      <trkpt lat="49.43738" lon="1.08788">
        <ele>8</ele>
        <time>2021-05-23T07:00:40Z</time>
      </trkpt>
      <trkpt lat="49.43738" lon="1.08788">
        <ele>8</ele>
        <time>2021-05-23T07:00:42Z</time>
      </trkpt>
      <trkpt lat="49.43735" lon="1.08787">
        <ele>8</ele>
        <time>2021-05-23T07:00:48Z</time>
      </trkpt>
      <trkpt lat="49.43732" lon="1.08786">
        <ele>8.1</ele>
        <time>2021-05-23T07:00:49Z</time>
      </trkpt>
      <trkpt lat="49.43727" lon="1.08785">
        <ele>8.2</ele>
        <time>2021-05-23T07:00:51Z</time>
      </trkpt>
      <trkpt lat="49.43721" lon="1.08784">
        <ele>8.3</ele>
        <time>2021-05-23T07:00:54Z</time>
      </trkpt>
      <trkpt lat="49.43714" lon="1.0878">
        <ele>8.4</ele>
        <time>2021-05-23T07:00:56Z</time>
      </trkpt>
      <trkpt lat="49.4371" lon="1.0878">
        <ele>8.5</ele>
        <time>2021-05-23T07:00:57Z</time>
      </trkpt>
      <trkpt lat="49.43704" lon="1.0878">
        <ele>8.5</ele>
        <time>2021-05-23T07:00:59Z</time>
      </trkpt>
      <trkpt lat="49.43701" lon="1.08781">
        <ele>8.6</ele>
        <time>2021-05-23T07:01:01Z</time>
      </trkpt>
      <trkpt lat="49.43698" lon="1.08782">
        <ele>8.7</ele>
        <time>2021-05-23T07:01:02Z</time>
      </trkpt>
      <trkpt lat="49.43694" lon="1.08784">
        <ele>8.8</ele>
        <time>2021-05-23T07:01:03Z</time>
      </trkpt>
      <trkpt lat="49.43693" lon="1.08785">
        <ele>9</ele>
        <time>2021-05-23T07:01:04Z</time>
      </trkpt>
      <trkpt lat="49.43692" lon="1.08786">
        <ele>9.2</ele>
        <time>2021-05-23T07:01:06Z</time>
      </trkpt>
      <trkpt lat="49.43691" lon="1.08786">
        <ele>9.3</ele>
        <time>2021-05-23T07:01:08Z</time>
      </trkpt>
      <trkpt lat="49.43691" lon="1.08787">
        <ele>9.4</ele>
        <time>2021-05-23T07:01:09Z</time>
      </trkpt>
      <trkpt lat="49.4369" lon="1.08787">
        <ele>9.5</ele>
        <time>2021-05-23T07:01:10Z</time>
      </trkpt>
      <trkpt lat="49.4369" lon="1.08789">
        <ele>9.5</ele>
        <time>2021-05-23T07:01:11Z</time>
      </trkpt>
      <trkpt lat="49.43689" lon="1.08793">
        <ele>9.6</ele>
        <time>2021-05-23T07:01:13Z</time>
      </trkpt>
      <trkpt lat="49.43689" lon="1.08795">
        <ele>9.7</ele>
        <time>2021-05-23T07:01:14Z</time>
      </trkpt>
      <trkpt lat="49.43688" lon="1.08797">
        <ele>9.8</ele>
        <time>2021-05-23T07:01:15Z</time>
      </trkpt>
      <trkpt lat="49.43687" lon="1.08803">
        <ele>9.9</ele>
        <time>2021-05-23T07:01:17Z</time>
      </trkpt>
      <trkpt lat="49.43687" lon="1.08806">
        <ele>10</ele>
        <time>2021-05-23T07:01:19Z</time>
      </trkpt>
      <trkpt lat="49.43687" lon="1.08808">
        <ele>10</ele>
        <time>2021-05-23T07:01:20Z</time>
      </trkpt>
      <trkpt lat="49.43686" lon="1.08811">
        <ele>10</ele>
        <time>2021-05-23T07:01:21Z</time>
      </trkpt>
      <trkpt lat="49.43685" lon="1.08813">
        <ele>10</ele>
        <time>2021-05-23T07:01:23Z</time>
      </trkpt>
      <trkpt lat="49.43684" lon="1.08814">
        <ele>10.1</ele>
        <time>2021-05-23T07:01:25Z</time>
      </trkpt>
      <trkpt lat="49.43684" lon="1.08815">
        <ele>10.1</ele>
        <time>2021-05-23T07:01:26Z</time>
      </trkpt>
      <trkpt lat="49.43683" lon="1.08817">
        <ele>10.1</ele>
        <time>2021-05-23T07:01:27Z</time>
      </trkpt>
      <trkpt lat="49.43683" lon="1.08818">
        <ele>10.1</ele>
        <time>2021-05-23T07:01:28Z</time>
      </trkpt>
      <trkpt lat="49.43683" lon="1.08818">
        <ele>10.1</ele>
        <time>2021-05-23T07:01:29Z</time>
      </trkpt>
      <trkpt lat="49.43683" lon="1.08819">
        <ele>10.1</ele>
        <time>2021-05-23T07:01:31Z</time>
      </trkpt>
      <trkpt lat="49.43683" lon="1.0882">
        <ele>10.1</ele>
        <time>2021-05-23T07:01:32Z</time>
      </trkpt>
      <trkpt lat="49.43685" lon="1.08821">
        <ele>10</ele>
        <time>2021-05-23T07:01:33Z</time>
      </trkpt>
      <trkpt lat="49.43687" lon="1.08822">
        <ele>9.9</ele>
        <time>2021-05-23T07:01:34Z</time>
      </trkpt>
      <trkpt lat="49.43688" lon="1.08825">
        <ele>9.9</ele>
        <time>2021-05-23T07:01:36Z</time>
      </trkpt>
      <trkpt lat="49.43687" lon="1.08829">
        <ele>9.9</ele>
        <time>2021-05-23T07:01:38Z</time>
      </trkpt>
      <trkpt lat="49.43689" lon="1.0883">
        <ele>9.8</ele>
        <time>2021-05-23T07:01:39Z</time>
      </trkpt>
      <trkpt lat="49.43691" lon="1.08833">
        <ele>9.8</ele>
        <time>2021-05-23T07:01:41Z</time>
      </trkpt>
      <trkpt lat="49.4369" lon="1.08837">
        <ele>9.8</ele>
        <time>2021-05-23T07:01:43Z</time>
      </trkpt>
      <trkpt lat="49.43688" lon="1.08842">
        <ele>9.8</ele>
        <time>2021-05-23T07:01:45Z</time>
      </trkpt>
      <trkpt lat="49.43687" lon="1.08846">
        <ele>9.8</ele>
        <time>2021-05-23T07:01:46Z</time>
      </trkpt>
      <trkpt lat="49.43686" lon="1.0885">
        <ele>9.8</ele>
        <time>2021-05-23T07:01:48Z</time>
      </trkpt>
      <trkpt lat="49.43685" lon="1.08855">
        <ele>9.8</ele>
        <time>2021-05-23T07:02:11Z</time>
      </trkpt>
      <trkpt lat="49.43683" lon="1.08859">
        <ele>9.9</ele>
        <time>2021-05-23T07:02:12Z</time>
      </trkpt>
      <trkpt lat="49.43682" lon="1.08864">
        <ele>10</ele>
        <time>2021-05-23T07:02:13Z</time>
      </trkpt>
      <trkpt lat="49.4368" lon="1.08867">
        <ele>10</ele>
        <time>2021-05-23T07:02:15Z</time>
      </trkpt>
      <trkpt lat="49.43678" lon="1.08869">
        <ele>10</ele>
        <time>2021-05-23T07:02:16Z</time>
      </trkpt>
      <trkpt lat="49.43677" lon="1.08871">
        <ele>10</ele>
        <time>2021-05-23T07:02:18Z</time>
      </trkpt>
      <trkpt lat="49.43676" lon="1.08872">
        <ele>10</ele>
        <time>2021-05-23T07:02:19Z</time>
      </trkpt>
      <trkpt lat="49.43674" lon="1.08875">
        <ele>10</ele>
        <time>2021-05-23T07:02:21Z</time>
      </trkpt>
      <trkpt lat="49.43673" lon="1.08876">
        <ele>10</ele>
        <time>2021-05-23T07:02:23Z</time>
      </trkpt>
      <trkpt lat="49.43672" lon="1.08877">
        <ele>10</ele>
        <time>2021-05-23T07:02:24Z</time>
      </trkpt>
      <trkpt lat="49.43671" lon="1.08877">
        <ele>10</ele>
        <time>2021-05-23T07:02:25Z</time>
      </trkpt>
      <trkpt lat="49.4367" lon="1.08877">
        <ele>10</ele>
        <time>2021-05-23T07:02:27Z</time>
      </trkpt>
      <trkpt lat="49.4367" lon="1.08877">
        <ele>10</ele>
        <time>2021-05-23T07:02:28Z</time>
      </trkpt>
      <trkpt lat="49.43669" lon="1.08877">
        <ele>10</ele>
        <time>2021-05-23T07:02:30Z</time>
      </trkpt>
      <trkpt lat="49.43667" lon="1.08877">
        <ele>10</ele>
        <time>2021-05-23T07:02:32Z</time>
      </trkpt>
      <trkpt lat="49.43665" lon="1.08878">
        <ele>10</ele>
        <time>2021-05-23T07:02:34Z</time>
      </trkpt>
      <trkpt lat="49.43666" lon="1.08878">
        <ele>10</ele>
        <time>2021-05-23T07:02:36Z</time>
      </trkpt>
      <trkpt lat="49.4367" lon="1.08887">
        <ele>10</ele>
        <time>2021-05-23T07:13:10Z</time>
      </trkpt>
      <trkpt lat="49.43671" lon="1.08886">
        <ele>10</ele>
        <time>2021-05-23T07:13:11Z</time>
      </trkpt>
      <trkpt lat="49.43671" lon="1.08885">
        <ele>10</ele>
        <time>2021-05-23T07:13:13Z</time>
      </trkpt>
      <trkpt lat="49.43671" lon="1.08884">
        <ele>10</ele>
        <time>2021-05-23T07:13:14Z</time>
      </trkpt>
      <trkpt lat="49.43672" lon="1.08884">
        <ele>10</ele>
        <time>2021-05-23T07:13:16Z</time>
      </trkpt>
      <trkpt lat="49.43672" lon="1.08884">
        <ele>9.9</ele>
        <time>2021-05-23T07:13:18Z</time>
      </trkpt>
      <trkpt lat="49.43672" lon="1.08884">
        <ele>9.8</ele>
        <time>2021-05-23T07:13:20Z</time>
      </trkpt>
      <trkpt lat="49.43672" lon="1.08884">
        <ele>9.7</ele>
        <time>2021-05-23T07:13:21Z</time>
      </trkpt>
      <trkpt lat="49.43672" lon="1.08892">
        <ele>9.7</ele>
        <time>2021-05-23T07:13:33Z</time>
      </trkpt>
      <trkpt lat="49.43673" lon="1.08897">
        <ele>9.7</ele>
        <time>2021-05-23T07:13:35Z</time>
      </trkpt>
      <trkpt lat="49.43673" lon="1.08904">
        <ele>9.8</ele>
        <time>2021-05-23T07:13:36Z</time>
      </trkpt>
      <trkpt lat="49.43661" lon="1.0893">
        <ele>9.9</ele>
        <time>2021-05-23T07:13:38Z</time>
      </trkpt>
      <trkpt lat="49.43654" lon="1.08952">
        <ele>10</ele>
        <time>2021-05-23T07:13:40Z</time>
      </trkpt>
      <trkpt lat="49.43651" lon="1.08961">
        <ele>9.9</ele>
        <time>2021-05-23T07:13:41Z</time>
      </trkpt>
      <trkpt lat="49.43645" lon="1.08977">
        <ele>9.8</ele>
        <time>2021-05-23T07:13:43Z</time>
      </trkpt>
      <trkpt lat="49.4364" lon="1.08991">
        <ele>9.8</ele>
        <time>2021-05-23T07:13:45Z</time>
      </trkpt>
      <trkpt lat="49.43638" lon="1.08998">
        <ele>9.9</ele>
        <time>2021-05-23T07:13:46Z</time>
      </trkpt>
      <trkpt lat="49.43635" lon="1.09005">
        <ele>10</ele>
        <time>2021-05-23T07:13:47Z</time>
      </trkpt>
      <trkpt lat="49.43631" lon="1.09021">
        <ele>10.1</ele>
        <time>2021-05-23T07:13:49Z</time>
      </trkpt>
      <trkpt lat="49.43624" lon="1.09039">
        <ele>10.2</ele>
        <time>2021-05-23T07:13:51Z</time>
      </trkpt>
      <trkpt lat="49.43621" lon="1.09047">
        <ele>10.3</ele>
        <time>2021-05-23T07:13:52Z</time>
      </trkpt>
      <trkpt lat="49.43614" lon="1.09062">
        <ele>10.3</ele>
        <time>2021-05-23T07:13:54Z</time>
      </trkpt>
      <trkpt lat="49.43608" lon="1.09076">
        <ele>10.3</ele>
        <time>2021-05-23T07:13:56Z</time>
      </trkpt>
      <trkpt lat="49.43605" lon="1.09082">
        <ele>10.2</ele>
        <time>2021-05-23T07:13:57Z</time>
      </trkpt>
      <trkpt lat="49.43599" lon="1.09097">
        <ele>10.3</ele>
        <time>2021-05-23T07:13:59Z</time>
      </trkpt>
      <trkpt lat="49.43596" lon="1.09104">
        <ele>10.2</ele>
        <time>2021-05-23T07:14:00Z</time>
      </trkpt>
      <trkpt lat="49.4359" lon="1.09118">
        <ele>10</ele>
        <time>2021-05-23T07:14:02Z</time>
      </trkpt>
      <trkpt lat="49.43588" lon="1.09123">
        <ele>9.6</ele>
        <time>2021-05-23T07:14:03Z</time>
      </trkpt>
      <trkpt lat="49.43583" lon="1.09137">
        <ele>9.3</ele>
        <time>2021-05-23T07:14:05Z</time>
      </trkpt>
      <trkpt lat="49.43581" lon="1.09143">
        <ele>8.8</ele>
        <time>2021-05-23T07:14:06Z</time>
      </trkpt>
      <trkpt lat="49.43575" lon="1.09158">
        <ele>8.3</ele>
        <time>2021-05-23T07:14:08Z</time>
      </trkpt>
      <trkpt lat="49.43572" lon="1.09168">
        <ele>7.7</ele>
        <time>2021-05-23T07:14:09Z</time>
      </trkpt>
      <trkpt lat="49.43567" lon="1.09185">
        <ele>7.2</ele>
        <time>2021-05-23T07:14:11Z</time>
      </trkpt>
      <trkpt lat="49.43564" lon="1.09194">
        <ele>6.7</ele>
        <time>2021-05-23T07:14:12Z</time>
      </trkpt>
      <trkpt lat="49.43558" lon="1.0921">
        <ele>6.5</ele>
        <time>2021-05-23T07:14:14Z</time>
      </trkpt>
      <trkpt lat="49.43556" lon="1.09216">
        <ele>6.1</ele>
        <time>2021-05-23T07:14:15Z</time>
      </trkpt>
      <trkpt lat="49.4355" lon="1.09231">
        <ele>5.9</ele>
        <time>2021-05-23T07:14:18Z</time>
      </trkpt>
      <trkpt lat="49.43544" lon="1.09248">
        <ele>5.8</ele>
        <time>2021-05-23T07:14:20Z</time>
      </trkpt>
      <trkpt lat="49.43538" lon="1.09265">
        <ele>5.9</ele>
        <time>2021-05-23T07:14:22Z</time>
      </trkpt>
      <trkpt lat="49.43533" lon="1.0928">
        <ele>6.1</ele>
        <time>2021-05-23T07:14:24Z</time>
      </trkpt>
      <trkpt lat="49.43528" lon="1.09296">
        <ele>6.4</ele>
        <time>2021-05-23T07:14:26Z</time>
      </trkpt>
      <trkpt lat="49.43525" lon="1.09304">
        <ele>6.5</ele>
        <time>2021-05-23T07:14:27Z</time>
      </trkpt>
      <trkpt lat="49.43519" lon="1.0932">
        <ele>6.6</ele>
        <time>2021-05-23T07:14:29Z</time>
      </trkpt>
      <trkpt lat="49.43516" lon="1.09327">
        <ele>6.7</ele>
        <time>2021-05-23T07:14:30Z</time>
      </trkpt>
      <trkpt lat="49.43513" lon="1.09331">
        <ele>6.7</ele>
        <time>2021-05-23T07:14:31Z</time>
      </trkpt>
      <trkpt lat="49.43506" lon="1.09338">
        <ele>6.6</ele>
        <time>2021-05-23T07:14:33Z</time>
      </trkpt>
      <trkpt lat="49.43503" lon="1.09347">
        <ele>6.6</ele>
        <time>2021-05-23T07:14:35Z</time>
      </trkpt>
      <trkpt lat="49.43503" lon="1.09357">
        <ele>6.6</ele>
        <time>2021-05-23T07:14:37Z</time>
      </trkpt>
      <trkpt lat="49.43501" lon="1.09363">
        <ele>6.5</ele>
        <time>2021-05-23T07:14:39Z</time>
      </trkpt>
      <trkpt lat="49.435" lon="1.09366">
        <ele>6.5</ele>
        <time>2021-05-23T07:14:40Z</time>
      </trkpt>
      <trkpt lat="49.43499" lon="1.09367">
        <ele>6.3</ele>
        <time>2021-05-23T07:14:42Z</time>
      </trkpt>
      <trkpt lat="49.43498" lon="1.09368">
        <ele>6.1</ele>
        <time>2021-05-23T07:14:43Z</time>
      </trkpt>
      <trkpt lat="49.43497" lon="1.0937">
        <ele>6</ele>
        <time>2021-05-23T07:14:44Z</time>
      </trkpt>
      <trkpt lat="49.43496" lon="1.09372">
        <ele>6</ele>
        <time>2021-05-23T07:14:45Z</time>
      </trkpt>
      <trkpt lat="49.43496" lon="1.09377">
        <ele>6</ele>
        <time>2021-05-23T07:14:47Z</time>
      </trkpt>
      <trkpt lat="49.43497" lon="1.09378">
        <ele>6</ele>
        <time>2021-05-23T07:14:48Z</time>
      </trkpt>
      <trkpt lat="49.43498" lon="1.09383">
        <ele>6</ele>
        <time>2021-05-23T07:14:49Z</time>
      </trkpt>
      <trkpt lat="49.435" lon="1.09386">
        <ele>6</ele>
        <time>2021-05-23T07:14:50Z</time>
      </trkpt>
      <trkpt lat="49.43502" lon="1.0939">
        <ele>6</ele>
        <time>2021-05-23T07:14:52Z</time>
      </trkpt>
      <trkpt lat="49.43504" lon="1.09396">
        <ele>6</ele>
        <time>2021-05-23T07:14:53Z</time>
      </trkpt>
      <trkpt lat="49.43507" lon="1.09404">
        <ele>6</ele>
        <time>2021-05-23T07:14:55Z</time>
      </trkpt>
      <trkpt lat="49.43509" lon="1.09413">
        <ele>6</ele>
        <time>2021-05-23T07:14:56Z</time>
      </trkpt>
      <trkpt lat="49.43512" lon="1.09419">
        <ele>6</ele>
        <time>2021-05-23T07:14:58Z</time>
      </trkpt>
      <trkpt lat="49.43514" lon="1.09424">
        <ele>6</ele>
        <time>2021-05-23T07:14:59Z</time>
      </trkpt>
      <trkpt lat="49.43517" lon="1.0943">
        <ele>6</ele>
        <time>2021-05-23T07:15:00Z</time>
      </trkpt>
      <trkpt lat="49.43519" lon="1.09436">
        <ele>5.9</ele>
        <time>2021-05-23T07:15:01Z</time>
      </trkpt>
      <trkpt lat="49.43523" lon="1.09444">
        <ele>5.7</ele>
        <time>2021-05-23T07:15:03Z</time>
      </trkpt>
      <trkpt lat="49.43526" lon="1.0945">
        <ele>5.5</ele>
        <time>2021-05-23T07:15:05Z</time>
      </trkpt>
      <trkpt lat="49.43529" lon="1.09456">
        <ele>5.3</ele>
        <time>2021-05-23T07:15:07Z</time>
      </trkpt>
      <trkpt lat="49.43532" lon="1.09458">
        <ele>5</ele>
        <time>2021-05-23T07:15:08Z</time>
      </trkpt>
      <trkpt lat="49.43536" lon="1.09467">
        <ele>4.6</ele>
        <time>2021-05-23T07:15:10Z</time>
      </trkpt>
      <trkpt lat="49.43539" lon="1.0947">
        <ele>4.1</ele>
        <time>2021-05-23T07:15:11Z</time>
      </trkpt>
      <trkpt lat="49.43543" lon="1.09476">
        <ele>3.4</ele>
        <time>2021-05-23T07:15:12Z</time>
      </trkpt>
      <trkpt lat="49.43547" lon="1.09482">
        <ele>2.5</ele>
        <time>2021-05-23T07:15:14Z</time>
      </trkpt>
      <trkpt lat="49.43549" lon="1.09488">
        <ele>1.7</ele>
        <time>2021-05-23T07:15:15Z</time>
      </trkpt>
      <trkpt lat="49.43556" lon="1.09497">
        <ele>0.9</ele>
        <time>2021-05-23T07:15:16Z</time>
      </trkpt>
      <trkpt lat="49.43562" lon="1.09506">
        <ele>0.1</ele>
        <time>2021-05-23T07:15:18Z</time>
      </trkpt>
      <trkpt lat="49.43569" lon="1.09519">
        <ele>-0.6</ele>
        <time>2021-05-23T07:15:20Z</time>
      </trkpt>
      <trkpt lat="49.43574" lon="1.09526">
        <ele>-1.4</ele>
        <time>2021-05-23T07:15:21Z</time>
      </trkpt>
      <trkpt lat="49.43584" lon="1.09542">
        <ele>-2</ele>
        <time>2021-05-23T07:15:23Z</time>
      </trkpt>
      <trkpt lat="49.43597" lon="1.09551">
        <ele>-2.6</ele>
        <time>2021-05-23T07:15:25Z</time>
      </trkpt>
      <trkpt lat="49.4361" lon="1.09557">
        <ele>-3.2</ele>
        <time>2021-05-23T07:15:27Z</time>
      </trkpt>
      <trkpt lat="49.4362" lon="1.09562">
        <ele>-3.5</ele>
        <time>2021-05-23T07:15:29Z</time>
      </trkpt>
      <trkpt lat="49.43631" lon="1.09568">
        <ele>-3.6</ele>
        <time>2021-05-23T07:15:31Z</time>
      </trkpt>
      <trkpt lat="49.43636" lon="1.09572">
        <ele>-3.5</ele>
        <time>2021-05-23T07:15:32Z</time>
      </trkpt>
      <trkpt lat="49.43641" lon="1.09575">
        <ele>-3.3</ele>
        <time>2021-05-23T07:15:33Z</time>
      </trkpt>
      <trkpt lat="49.43651" lon="1.0958">
        <ele>-2.8</ele>
        <time>2021-05-23T07:15:35Z</time>
      </trkpt>
      <trkpt lat="49.43662" lon="1.09585">
        <ele>-2.2</ele>
        <time>2021-05-23T07:15:37Z</time>
      </trkpt>
      <trkpt lat="49.43667" lon="1.09588">
        <ele>-1.5</ele>
        <time>2021-05-23T07:15:38Z</time>
      </trkpt>
      <trkpt lat="49.43678" lon="1.09594">
        <ele>-0.5</ele>
        <time>2021-05-23T07:15:40Z</time>
      </trkpt>
      <trkpt lat="49.43689" lon="1.096">
        <ele>0.5</ele>
        <time>2021-05-23T07:15:42Z</time>
      </trkpt>
      <trkpt lat="49.437" lon="1.09603">
        <ele>1.5</ele>
        <time>2021-05-23T07:15:44Z</time>
      </trkpt>
      <trkpt lat="49.43705" lon="1.09606">
        <ele>2.7</ele>
        <time>2021-05-23T07:15:45Z</time>
      </trkpt>
      <trkpt lat="49.43708" lon="1.09608">
        <ele>4</ele>
        <time>2021-05-23T07:15:46Z</time>
      </trkpt>
      <trkpt lat="49.4371" lon="1.09619">
        <ele>5.2</ele>
        <time>2021-05-23T07:15:48Z</time>
      </trkpt>
      <trkpt lat="49.43711" lon="1.09627">
        <ele>6.4</ele>
        <time>2021-05-23T07:15:49Z</time>
      </trkpt>
      <trkpt lat="49.4371" lon="1.09636">
        <ele>7.5</ele>
        <time>2021-05-23T07:15:50Z</time>
      </trkpt>
      <trkpt lat="49.43706" lon="1.09654">
        <ele>8.5</ele>
        <time>2021-05-23T07:15:52Z</time>
      </trkpt>
      <trkpt lat="49.43702" lon="1.09676">
        <ele>9.3</ele>
        <time>2021-05-23T07:15:55Z</time>
      </trkpt>
      <trkpt lat="49.437" lon="1.09688">
        <ele>9.9</ele>
        <time>2021-05-23T07:15:56Z</time>
      </trkpt>
      <trkpt lat="49.43695" lon="1.09712">
        <ele>10.3</ele>
        <time>2021-05-23T07:15:58Z</time>
      </trkpt>
      <trkpt lat="49.4369" lon="1.09736">
        <ele>10.5</ele>
        <time>2021-05-23T07:16:00Z</time>
      </trkpt>
      <trkpt lat="49.43686" lon="1.0976">
        <ele>10.5</ele>
        <time>2021-05-23T07:16:02Z</time>
      </trkpt>
      <trkpt lat="49.43684" lon="1.09773">
        <ele>10.5</ele>
        <time>2021-05-23T07:16:03Z</time>
      </trkpt>
      <trkpt lat="49.43679" lon="1.09796">
        <ele>10.3</ele>
        <time>2021-05-23T07:16:05Z</time>
      </trkpt>
      <trkpt lat="49.43677" lon="1.09808">
        <ele>10.2</ele>
        <time>2021-05-23T07:16:06Z</time>
      </trkpt>
      <trkpt lat="49.43676" lon="1.0982">
        <ele>10</ele>
        <time>2021-05-23T07:16:07Z</time>
      </trkpt>
      <trkpt lat="49.43674" lon="1.09832">
        <ele>9.8</ele>
        <time>2021-05-23T07:16:08Z</time>
      </trkpt>
      <trkpt lat="49.43669" lon="1.09856">
        <ele>9.5</ele>
        <time>2021-05-23T07:16:10Z</time>
      </trkpt>
      <trkpt lat="49.43667" lon="1.09867">
        <ele>9.4</ele>
        <time>2021-05-23T07:16:11Z</time>
      </trkpt>
      <trkpt lat="49.43664" lon="1.09892">
        <ele>9.3</ele>
        <time>2021-05-23T07:16:13Z</time>
      </trkpt>
      <trkpt lat="49.43662" lon="1.09903">
        <ele>9.3</ele>
        <time>2021-05-23T07:16:14Z</time>
      </trkpt>
      <trkpt lat="49.43658" lon="1.09927">
        <ele>9.4</ele>
        <time>2021-05-23T07:16:16Z</time>
      </trkpt>
      <trkpt lat="49.43657" lon="1.0994">
        <ele>9.4</ele>
        <time>2021-05-23T07:16:17Z</time>
      </trkpt>
      <trkpt lat="49.43653" lon="1.09963">
        <ele>9.5</ele>
        <time>2021-05-23T07:16:19Z</time>
      </trkpt>
      <trkpt lat="49.43651" lon="1.09975">
        <ele>9.5</ele>
        <time>2021-05-23T07:16:20Z</time>
      </trkpt>
      <trkpt lat="49.43647" lon="1.09997">
        <ele>9.5</ele>
        <time>2021-05-23T07:16:22Z</time>
      </trkpt>
      <trkpt lat="49.43644" lon="1.10008">
        <ele>9.5</ele>
        <time>2021-05-23T07:16:23Z</time>
      </trkpt>
      <trkpt lat="49.43641" lon="1.10019">
        <ele>9.4</ele>
        <time>2021-05-23T07:16:24Z</time>
      </trkpt>
      <trkpt lat="49.43638" lon="1.10029">
        <ele>9.2</ele>
        <time>2021-05-23T07:16:25Z</time>
      </trkpt>
      <trkpt lat="49.43634" lon="1.10051">
        <ele>9</ele>
        <time>2021-05-23T07:16:27Z</time>
      </trkpt>
      <trkpt lat="49.43632" lon="1.10061">
        <ele>8.8</ele>
        <time>2021-05-23T07:16:28Z</time>
      </trkpt>
      <trkpt lat="49.4363" lon="1.10071">
        <ele>8.5</ele>
        <time>2021-05-23T07:16:29Z</time>
      </trkpt>
      <trkpt lat="49.43624" lon="1.10087">
        <ele>8.3</ele>
        <time>2021-05-23T07:16:31Z</time>
      </trkpt>
      <trkpt lat="49.43621" lon="1.10094">
        <ele>8.1</ele>
        <time>2021-05-23T07:16:32Z</time>
      </trkpt>
      <trkpt lat="49.43614" lon="1.10108">
        <ele>8</ele>
        <time>2021-05-23T07:16:34Z</time>
      </trkpt>
      <trkpt lat="49.4361" lon="1.10114">
        <ele>7.9</ele>
        <time>2021-05-23T07:16:35Z</time>
      </trkpt>
      <trkpt lat="49.43603" lon="1.10128">
        <ele>7.9</ele>
        <time>2021-05-23T07:16:37Z</time>
      </trkpt>
      <trkpt lat="49.436" lon="1.10136">
        <ele>7.9</ele>
        <time>2021-05-23T07:16:38Z</time>
      </trkpt>
      <trkpt lat="49.43595" lon="1.10151">
        <ele>8.1</ele>
        <time>2021-05-23T07:16:40Z</time>
      </trkpt>
      <trkpt lat="49.43595" lon="1.10166">
        <ele>8.3</ele>
        <time>2021-05-23T07:16:43Z</time>
      </trkpt>
      <trkpt lat="49.43594" lon="1.10176">
        <ele>8.5</ele>
        <time>2021-05-23T07:16:44Z</time>
      </trkpt>
      <trkpt lat="49.43592" lon="1.10194">
        <ele>8.6</ele>
        <time>2021-05-23T07:16:46Z</time>
      </trkpt>
      <trkpt lat="49.4359" lon="1.10212">
        <ele>8.8</ele>
        <time>2021-05-23T07:16:48Z</time>
      </trkpt>
      <trkpt lat="49.43587" lon="1.1022">
        <ele>9</ele>
        <time>2021-05-23T07:16:49Z</time>
      </trkpt>
      <trkpt lat="49.43585" lon="1.10228">
        <ele>9.2</ele>
        <time>2021-05-23T07:16:50Z</time>
      </trkpt>
      <trkpt lat="49.43576" lon="1.1024">
        <ele>9.3</ele>
        <time>2021-05-23T07:16:52Z</time>
      </trkpt>
      <trkpt lat="49.43572" lon="1.10247">
        <ele>9.3</ele>
        <time>2021-05-23T07:16:53Z</time>
      </trkpt>
      <trkpt lat="49.43568" lon="1.10253">
        <ele>9.2</ele>
        <time>2021-05-23T07:16:54Z</time>
      </trkpt>
      <trkpt lat="49.4356" lon="1.10265">
        <ele>9</ele>
        <time>2021-05-23T07:16:56Z</time>
      </trkpt>
      <trkpt lat="49.43553" lon="1.10278">
        <ele>8.7</ele>
        <time>2021-05-23T07:16:58Z</time>
      </trkpt>
      <trkpt lat="49.4355" lon="1.10284">
        <ele>8.5</ele>
        <time>2021-05-23T07:16:59Z</time>
      </trkpt>
      <trkpt lat="49.43543" lon="1.10297">
        <ele>8.1</ele>
        <time>2021-05-23T07:17:01Z</time>
      </trkpt>
      <trkpt lat="49.43538" lon="1.10305">
        <ele>7.7</ele>
        <time>2021-05-23T07:17:02Z</time>
      </trkpt>
      <trkpt lat="49.43525" lon="1.10322">
        <ele>7.5</ele>
        <time>2021-05-23T07:17:04Z</time>
      </trkpt>
      <trkpt lat="49.43518" lon="1.10325">
        <ele>7.1</ele>
        <time>2021-05-23T07:17:05Z</time>
      </trkpt>
      <trkpt lat="49.43505" lon="1.10337">
        <ele>6.7</ele>
        <time>2021-05-23T07:17:07Z</time>
      </trkpt>
      <trkpt lat="49.43499" lon="1.10342">
        <ele>6.5</ele>
        <time>2021-05-23T07:17:08Z</time>
      </trkpt>
      <trkpt lat="49.43494" lon="1.10347">
        <ele>6.3</ele>
        <time>2021-05-23T07:17:09Z</time>
      </trkpt>
      <trkpt lat="49.43483" lon="1.10357">
        <ele>6.1</ele>
        <time>2021-05-23T07:17:11Z</time>
      </trkpt>
      <trkpt lat="49.43472" lon="1.10368">
        <ele>6.1</ele>
        <time>2021-05-23T07:17:13Z</time>
      </trkpt>
      <trkpt lat="49.43467" lon="1.10373">
        <ele>6</ele>
        <time>2021-05-23T07:17:14Z</time>
      </trkpt>
      <trkpt lat="49.43462" lon="1.10379">
        <ele>5.9</ele>
        <time>2021-05-23T07:17:15Z</time>
      </trkpt>
      <trkpt lat="49.43451" lon="1.10391">
        <ele>5.9</ele>
        <time>2021-05-23T07:17:17Z</time>
      </trkpt>
      <trkpt lat="49.43446" lon="1.10396">
        <ele>5.8</ele>
        <time>2021-05-23T07:17:18Z</time>
      </trkpt>
      <trkpt lat="49.43443" lon="1.104">
        <ele>5.7</ele>
        <time>2021-05-23T07:17:19Z</time>
      </trkpt>
      <trkpt lat="49.43438" lon="1.10405">
        <ele>5.7</ele>
        <time>2021-05-23T07:17:21Z</time>
      </trkpt>
      <trkpt lat="49.43436" lon="1.10407">
        <ele>5.7</ele>
        <time>2021-05-23T07:17:22Z</time>
      </trkpt>
      <trkpt lat="49.43432" lon="1.10405">
        <ele>5.6</ele>
        <time>2021-05-23T07:17:24Z</time>
      </trkpt>
      <trkpt lat="49.43431" lon="1.10398">
        <ele>5.5</ele>
        <time>2021-05-23T07:17:26Z</time>
      </trkpt>
      <trkpt lat="49.43435" lon="1.10394">
        <ele>5.4</ele>
        <time>2021-05-23T07:17:27Z</time>
      </trkpt>
      <trkpt lat="49.43442" lon="1.10382">
        <ele>5.2</ele>
        <time>2021-05-23T07:17:29Z</time>
      </trkpt>
      <trkpt lat="49.43449" lon="1.10371">
        <ele>5</ele>
        <time>2021-05-23T07:17:32Z</time>
      </trkpt>
      <trkpt lat="49.43453" lon="1.10368">
        <ele>4.8</ele>
        <time>2021-05-23T07:17:33Z</time>
      </trkpt>
      <trkpt lat="49.43456" lon="1.10362">
        <ele>4.6</ele>
        <time>2021-05-23T07:17:34Z</time>
      </trkpt>
      <trkpt lat="49.43459" lon="1.10361">
        <ele>4.5</ele>
        <time>2021-05-23T07:17:35Z</time>
      </trkpt>
      <trkpt lat="49.43463" lon="1.10357">
        <ele>4.5</ele>
        <time>2021-05-23T07:17:37Z</time>
      </trkpt>
      <trkpt lat="49.43467" lon="1.10349">
        <ele>4.4</ele>
        <time>2021-05-23T07:17:39Z</time>
      </trkpt>
      <trkpt lat="49.43468" lon="1.10345">
        <ele>4.3</ele>
        <time>2021-05-23T07:17:40Z</time>
      </trkpt>
      <trkpt lat="49.43467" lon="1.10344">
        <ele>4.2</ele>
        <time>2021-05-23T07:17:41Z</time>
      </trkpt>
      <trkpt lat="49.43466" lon="1.10344">
        <ele>4.2</ele>
        <time>2021-05-23T07:17:43Z</time>
      </trkpt>
      <trkpt lat="49.43465" lon="1.10344">
        <ele>4.2</ele>
        <time>2021-05-23T07:17:44Z</time>
      </trkpt>
      <trkpt lat="49.43462" lon="1.10346">
        <ele>4.2</ele>
        <time>2021-05-23T07:17:46Z</time>
      </trkpt>
      <trkpt lat="49.43458" lon="1.10351">
        <ele>4.3</ele>
        <time>2021-05-23T07:17:47Z</time>
      </trkpt>
      <trkpt lat="49.43455" lon="1.10358">
        <ele>4.4</ele>
        <time>2021-05-23T07:17:49Z</time>
      </trkpt>
      <trkpt lat="49.43453" lon="1.10362">
        <ele>4.5</ele>
        <time>2021-05-23T07:17:50Z</time>
      </trkpt>
      <trkpt lat="49.43448" lon="1.10367">
        <ele>4.5</ele>
        <time>2021-05-23T07:17:52Z</time>
      </trkpt>
      <trkpt lat="49.43445" lon="1.1037">
        <ele>4.5</ele>
        <time>2021-05-23T07:17:53Z</time>
      </trkpt>
      <trkpt lat="49.43441" lon="1.10375">
        <ele>4.5</ele>
        <time>2021-05-23T07:17:55Z</time>
      </trkpt>
      <trkpt lat="49.43439" lon="1.10377">
        <ele>4.5</ele>
        <time>2021-05-23T07:17:56Z</time>
      </trkpt>
      <trkpt lat="49.43436" lon="1.10381">
        <ele>4.5</ele>
        <time>2021-05-23T07:17:58Z</time>
      </trkpt>
      <trkpt lat="49.43432" lon="1.10385">
        <ele>4.5</ele>
        <time>2021-05-23T07:17:59Z</time>
      </trkpt>
      <trkpt lat="49.43429" lon="1.10389">
        <ele>4.2</ele>
        <time>2021-05-23T07:18:01Z</time>
      </trkpt>
      <trkpt lat="49.43425" lon="1.10392">
        <ele>3.7</ele>
        <time>2021-05-23T07:18:02Z</time>
      </trkpt>
      <trkpt lat="49.43421" lon="1.10397">
        <ele>3.2</ele>
        <time>2021-05-23T07:18:03Z</time>
      </trkpt>
      <trkpt lat="49.43415" lon="1.10404">
        <ele>2.4</ele>
        <time>2021-05-23T07:18:04Z</time>
      </trkpt>
      <trkpt lat="49.43405" lon="1.10413">
        <ele>1.4</ele>
        <time>2021-05-23T07:18:06Z</time>
      </trkpt>
      <trkpt lat="49.43399" lon="1.10419">
        <ele>0.2</ele>
        <time>2021-05-23T07:18:07Z</time>
      </trkpt>
      <trkpt lat="49.43393" lon="1.10425">
        <ele>-0.9</ele>
        <time>2021-05-23T07:18:08Z</time>
      </trkpt>
      <trkpt lat="49.43388" lon="1.10429">
        <ele>-2</ele>
        <time>2021-05-23T07:18:09Z</time>
      </trkpt>
      <trkpt lat="49.43378" lon="1.10438">
        <ele>-2.9</ele>
        <time>2021-05-23T07:18:11Z</time>
      </trkpt>
      <trkpt lat="49.43369" lon="1.10447">
        <ele>-3.6</ele>
        <time>2021-05-23T07:18:13Z</time>
      </trkpt>
      <trkpt lat="49.43363" lon="1.10451">
        <ele>-4.2</ele>
        <time>2021-05-23T07:18:14Z</time>
      </trkpt>
      <trkpt lat="49.43353" lon="1.10462">
        <ele>-4.4</ele>
        <time>2021-05-23T07:18:16Z</time>
      </trkpt>
      <trkpt lat="49.43344" lon="1.10479">
        <ele>-4.3</ele>
        <time>2021-05-23T07:18:18Z</time>
      </trkpt>
      <trkpt lat="49.43338" lon="1.10492">
        <ele>-3.9</ele>
        <time>2021-05-23T07:18:21Z</time>
      </trkpt>
      <trkpt lat="49.43328" lon="1.10502">
        <ele>-3.2</ele>
        <time>2021-05-23T07:18:23Z</time>
      </trkpt>
      <trkpt lat="49.43323" lon="1.10507">
        <ele>-2.3</ele>
        <time>2021-05-23T07:18:24Z</time>
      </trkpt>
      <trkpt lat="49.43316" lon="1.10516">
        <ele>-1.2</ele>
        <time>2021-05-23T07:18:26Z</time>
      </trkpt>
      <trkpt lat="49.43312" lon="1.10521">
        <ele>-0.1</ele>
        <time>2021-05-23T07:18:27Z</time>
      </trkpt>
      <trkpt lat="49.43303" lon="1.10531">
        <ele>1</ele>
        <time>2021-05-23T07:18:29Z</time>
      </trkpt>
      <trkpt lat="49.43293" lon="1.10541">
        <ele>1.9</ele>
        <time>2021-05-23T07:18:31Z</time>
      </trkpt>
      <trkpt lat="49.43283" lon="1.1055">
        <ele>2.6</ele>
        <time>2021-05-23T07:18:33Z</time>
      </trkpt>
      <trkpt lat="49.43279" lon="1.10554">
        <ele>3.3</ele>
        <time>2021-05-23T07:18:34Z</time>
      </trkpt>
      <trkpt lat="49.43269" lon="1.10564">
        <ele>3.6</ele>
        <time>2021-05-23T07:18:36Z</time>
      </trkpt>
      <trkpt lat="49.43263" lon="1.10569">
        <ele>4</ele>
        <time>2021-05-23T07:18:37Z</time>
      </trkpt>
      <trkpt lat="49.43258" lon="1.10579">
        <ele>4.2</ele>
        <time>2021-05-23T07:18:39Z</time>
      </trkpt>
      <trkpt lat="49.43254" lon="1.10586">
        <ele>4.3</ele>
        <time>2021-05-23T07:18:40Z</time>
      </trkpt>
      <trkpt lat="49.43248" lon="1.10591">
        <ele>4.4</ele>
        <time>2021-05-23T07:18:41Z</time>
      </trkpt>
      <trkpt lat="49.43241" lon="1.10595">
        <ele>4.4</ele>
        <time>2021-05-23T07:18:42Z</time>
      </trkpt>
      <trkpt lat="49.43227" lon="1.10606">
        <ele>4.4</ele>
        <time>2021-05-23T07:18:44Z</time>
      </trkpt>
      <trkpt lat="49.43221" lon="1.10611">
        <ele>4.3</ele>
        <time>2021-05-23T07:18:45Z</time>
      </trkpt>
      <trkpt lat="49.43212" lon="1.10622">
        <ele>4.2</ele>
        <time>2021-05-23T07:18:47Z</time>
      </trkpt>
      <trkpt lat="49.43202" lon="1.10633">
        <ele>4.1</ele>
        <time>2021-05-23T07:18:49Z</time>
      </trkpt>
      <trkpt lat="49.43192" lon="1.10645">
        <ele>4</ele>
        <time>2021-05-23T07:18:51Z</time>
      </trkpt>
      <trkpt lat="49.43181" lon="1.10656">
        <ele>3.9</ele>
        <time>2021-05-23T07:18:53Z</time>
      </trkpt>
      <trkpt lat="49.43169" lon="1.10667">
        <ele>3.8</ele>
        <time>2021-05-23T07:18:55Z</time>
      </trkpt>
      <trkpt lat="49.43164" lon="1.10673">
        <ele>3.9</ele>
        <time>2021-05-23T07:18:56Z</time>
      </trkpt>
      <trkpt lat="49.43153" lon="1.10684">
        <ele>4</ele>
        <time>2021-05-23T07:18:58Z</time>
      </trkpt>
      <trkpt lat="49.43142" lon="1.10695">
        <ele>4.1</ele>
        <time>2021-05-23T07:19:00Z</time>
      </trkpt>
      <trkpt lat="49.43132" lon="1.10705">
        <ele>4.2</ele>
        <time>2021-05-23T07:19:02Z</time>
      </trkpt>
      <trkpt lat="49.43126" lon="1.10711">
        <ele>4.3</ele>
        <time>2021-05-23T07:19:03Z</time>
      </trkpt>
      <trkpt lat="49.43115" lon="1.10722">
        <ele>4.5</ele>
        <time>2021-05-23T07:19:05Z</time>
      </trkpt>
      <trkpt lat="49.43109" lon="1.10728">
        <ele>4.6</ele>
        <time>2021-05-23T07:19:06Z</time>
      </trkpt>
      <trkpt lat="49.43104" lon="1.10733">
        <ele>4.7</ele>
        <time>2021-05-23T07:19:08Z</time>
      </trkpt>
      <trkpt lat="49.43092" lon="1.10745">
        <ele>4.8</ele>
        <time>2021-05-23T07:19:10Z</time>
      </trkpt>
      <trkpt lat="49.43087" lon="1.10751">
        <ele>4.9</ele>
        <time>2021-05-23T07:19:11Z</time>
      </trkpt>
      <trkpt lat="49.43082" lon="1.10757">
        <ele>4.9</ele>
        <time>2021-05-23T07:19:12Z</time>
      </trkpt>
      <trkpt lat="49.43073" lon="1.10768">
        <ele>4.7</ele>
        <time>2021-05-23T07:19:14Z</time>
      </trkpt>
      <trkpt lat="49.43062" lon="1.10779">
        <ele>4.5</ele>
        <time>2021-05-23T07:19:16Z</time>
      </trkpt>
      <trkpt lat="49.43057" lon="1.10785">
        <ele>4.2</ele>
        <time>2021-05-23T07:19:17Z</time>
      </trkpt>
      <trkpt lat="49.43046" lon="1.10795">
        <ele>4</ele>
        <time>2021-05-23T07:19:19Z</time>
      </trkpt>
      <trkpt lat="49.43041" lon="1.108">
        <ele>3.8</ele>
        <time>2021-05-23T07:19:20Z</time>
      </trkpt>
      <trkpt lat="49.43032" lon="1.10812">
        <ele>3.6</ele>
        <time>2021-05-23T07:19:22Z</time>
      </trkpt>
      <trkpt lat="49.43022" lon="1.10822">
        <ele>3.5</ele>
        <time>2021-05-23T07:19:24Z</time>
      </trkpt>
      <trkpt lat="49.43017" lon="1.10827">
        <ele>3.5</ele>
        <time>2021-05-23T07:19:25Z</time>
      </trkpt>
      <trkpt lat="49.43011" lon="1.10831">
        <ele>3.5</ele>
        <time>2021-05-23T07:19:26Z</time>
      </trkpt>
      <trkpt lat="49.43" lon="1.10841">
        <ele>3.5</ele>
        <time>2021-05-23T07:19:28Z</time>
      </trkpt>
      <trkpt lat="49.42995" lon="1.10847">
        <ele>3.6</ele>
        <time>2021-05-23T07:19:29Z</time>
      </trkpt>
      <trkpt lat="49.4299" lon="1.10852">
        <ele>3.7</ele>
        <time>2021-05-23T07:19:30Z</time>
      </trkpt>
      <trkpt lat="49.42982" lon="1.10863">
        <ele>3.9</ele>
        <time>2021-05-23T07:19:32Z</time>
      </trkpt>
      <trkpt lat="49.42977" lon="1.10869">
        <ele>4.1</ele>
        <time>2021-05-23T07:19:33Z</time>
      </trkpt>
      <trkpt lat="49.42973" lon="1.10875">
        <ele>4.3</ele>
        <time>2021-05-23T07:19:34Z</time>
      </trkpt>
      <trkpt lat="49.42963" lon="1.10886">
        <ele>4.5</ele>
        <time>2021-05-23T07:19:36Z</time>
      </trkpt>
      <trkpt lat="49.42958" lon="1.10891">
        <ele>4.9</ele>
        <time>2021-05-23T07:19:37Z</time>
      </trkpt>
      <trkpt lat="49.42949" lon="1.10902">
        <ele>5.2</ele>
        <time>2021-05-23T07:19:39Z</time>
      </trkpt>
      <trkpt lat="49.42939" lon="1.1091">
        <ele>5.5</ele>
        <time>2021-05-23T07:19:41Z</time>
      </trkpt>
      <trkpt lat="49.42934" lon="1.10914">
        <ele>5.8</ele>
        <time>2021-05-23T07:19:42Z</time>
      </trkpt>
      <trkpt lat="49.42925" lon="1.10923">
        <ele>6.2</ele>
        <time>2021-05-23T07:19:44Z</time>
      </trkpt>
      <trkpt lat="49.42916" lon="1.10932">
        <ele>6.5</ele>
        <time>2021-05-23T07:19:46Z</time>
      </trkpt>
      <trkpt lat="49.42906" lon="1.10941">
        <ele>6.7</ele>
        <time>2021-05-23T07:19:48Z</time>
      </trkpt>
      <trkpt lat="49.42897" lon="1.10951">
        <ele>7</ele>
        <time>2021-05-23T07:19:50Z</time>
      </trkpt>
      <trkpt lat="49.42888" lon="1.10962">
        <ele>7.2</ele>
        <time>2021-05-23T07:19:52Z</time>
      </trkpt>
      <trkpt lat="49.42883" lon="1.10967">
        <ele>7.4</ele>
        <time>2021-05-23T07:19:53Z</time>
      </trkpt>
      <trkpt lat="49.42875" lon="1.10976">
        <ele>7.4</ele>
        <time>2021-05-23T07:19:55Z</time>
      </trkpt>
      <trkpt lat="49.4287" lon="1.10982">
        <ele>7.3</ele>
        <time>2021-05-23T07:19:57Z</time>
      </trkpt>
      <trkpt lat="49.4286" lon="1.10991">
        <ele>7.2</ele>
        <time>2021-05-23T07:19:59Z</time>
      </trkpt>
      <trkpt lat="49.42851" lon="1.11">
        <ele>7.1</ele>
        <time>2021-05-23T07:20:01Z</time>
      </trkpt>
      <trkpt lat="49.42842" lon="1.1101">
        <ele>6.9</ele>
        <time>2021-05-23T07:20:03Z</time>
      </trkpt>
      <trkpt lat="49.42832" lon="1.1102">
        <ele>6.7</ele>
        <time>2021-05-23T07:20:05Z</time>
      </trkpt>
      <trkpt lat="49.42822" lon="1.11029">
        <ele>6.5</ele>
        <time>2021-05-23T07:20:07Z</time>
      </trkpt>
      <trkpt lat="49.42816" lon="1.11033">
        <ele>6.5</ele>
        <time>2021-05-23T07:20:08Z</time>
      </trkpt>
      <trkpt lat="49.42811" lon="1.11037">
        <ele>6.4</ele>
        <time>2021-05-23T07:20:09Z</time>
      </trkpt>
      <trkpt lat="49.428" lon="1.11046">
        <ele>6.5</ele>
        <time>2021-05-23T07:20:11Z</time>
      </trkpt>
      <trkpt lat="49.42795" lon="1.11049">
        <ele>6.5</ele>
        <time>2021-05-23T07:20:12Z</time>
      </trkpt>
      <trkpt lat="49.42789" lon="1.11053">
        <ele>6.8</ele>
        <time>2021-05-23T07:20:13Z</time>
      </trkpt>
      <trkpt lat="49.42779" lon="1.11061">
        <ele>7.1</ele>
        <time>2021-05-23T07:20:15Z</time>
      </trkpt>
      <trkpt lat="49.42773" lon="1.11065">
        <ele>7.4</ele>
        <time>2021-05-23T07:20:16Z</time>
      </trkpt>
      <trkpt lat="49.42767" lon="1.11068">
        <ele>7.5</ele>
        <time>2021-05-23T07:20:17Z</time>
      </trkpt>
      <trkpt lat="49.4276" lon="1.11073">
        <ele>7.7</ele>
        <time>2021-05-23T07:20:19Z</time>
      </trkpt>
      <trkpt lat="49.42751" lon="1.11082">
        <ele>7.8</ele>
        <time>2021-05-23T07:20:21Z</time>
      </trkpt>
      <trkpt lat="49.42743" lon="1.11094">
        <ele>7.8</ele>
        <time>2021-05-23T07:20:23Z</time>
      </trkpt>
      <trkpt lat="49.42738" lon="1.11099">
        <ele>7.6</ele>
        <time>2021-05-23T07:20:24Z</time>
      </trkpt>
      <trkpt lat="49.42727" lon="1.11105">
        <ele>7.5</ele>
        <time>2021-05-23T07:20:26Z</time>
      </trkpt>
      <trkpt lat="49.42721" lon="1.11107">
        <ele>7.3</ele>
        <time>2021-05-23T07:20:27Z</time>
      </trkpt>
      <trkpt lat="49.42715" lon="1.11109">
        <ele>7.1</ele>
        <time>2021-05-23T07:20:28Z</time>
      </trkpt>
      <trkpt lat="49.42703" lon="1.11114">
        <ele>6.8</ele>
        <time>2021-05-23T07:20:30Z</time>
      </trkpt>
      <trkpt lat="49.42693" lon="1.11118">
        <ele>6.6</ele>
        <time>2021-05-23T07:20:32Z</time>
      </trkpt>
      <trkpt lat="49.42689" lon="1.11119">
        <ele>6.5</ele>
        <time>2021-05-23T07:20:33Z</time>
      </trkpt>
      <trkpt lat="49.42684" lon="1.11121">
        <ele>6.4</ele>
        <time>2021-05-23T07:20:34Z</time>
      </trkpt>
      <trkpt lat="49.4268" lon="1.11123">
        <ele>6.3</ele>
        <time>2021-05-23T07:20:36Z</time>
      </trkpt>
      <trkpt lat="49.42677" lon="1.11126">
        <ele>6.3</ele>
        <time>2021-05-23T07:20:37Z</time>
      </trkpt>
      <trkpt lat="49.42674" lon="1.11129">
        <ele>6.5</ele>
        <time>2021-05-23T07:20:38Z</time>
      </trkpt>
      <trkpt lat="49.42673" lon="1.1113">
        <ele>6.7</ele>
        <time>2021-05-23T07:20:40Z</time>
      </trkpt>
      <trkpt lat="49.42673" lon="1.11134">
        <ele>7</ele>
        <time>2021-05-23T07:20:41Z</time>
      </trkpt>
      <trkpt lat="49.42672" lon="1.11138">
        <ele>7.2</ele>
        <time>2021-05-23T07:20:43Z</time>
      </trkpt>
      <trkpt lat="49.42672" lon="1.11138">
        <ele>7.4</ele>
        <time>2021-05-23T07:20:45Z</time>
      </trkpt>
      <trkpt lat="49.42671" lon="1.1114">
        <ele>7.6</ele>
        <time>2021-05-23T07:20:46Z</time>
      </trkpt>
      <trkpt lat="49.42671" lon="1.11142">
        <ele>7.9</ele>
        <time>2021-05-23T07:20:47Z</time>
      </trkpt>
      <trkpt lat="49.4267" lon="1.11144">
        <ele>8.2</ele>
        <time>2021-05-23T07:20:48Z</time>
      </trkpt>
      <trkpt lat="49.4267" lon="1.11145">
        <ele>8.6</ele>
        <time>2021-05-23T07:20:50Z</time>
      </trkpt>
      <trkpt lat="49.42669" lon="1.11146">
        <ele>9.2</ele>
        <time>2021-05-23T07:20:51Z</time>
      </trkpt>
      <trkpt lat="49.42667" lon="1.1115">
        <ele>9.8</ele>
        <time>2021-05-23T07:20:52Z</time>
      </trkpt>
      <trkpt lat="49.42663" lon="1.11155">
        <ele>10.4</ele>
        <time>2021-05-23T07:20:54Z</time>
      </trkpt>
      <trkpt lat="49.42661" lon="1.11158">
        <ele>11</ele>
        <time>2021-05-23T07:20:55Z</time>
      </trkpt>
      <trkpt lat="49.42654" lon="1.11168">
        <ele>11.6</ele>
        <time>2021-05-23T07:20:56Z</time>
      </trkpt>
      <trkpt lat="49.42651" lon="1.11172">
        <ele>12.3</ele>
        <time>2021-05-23T07:20:58Z</time>
      </trkpt>
      <trkpt lat="49.42647" lon="1.11176">
        <ele>13</ele>
        <time>2021-05-23T07:21:00Z</time>
      </trkpt>
      <trkpt lat="49.42644" lon="1.11178">
        <ele>13.6</ele>
        <time>2021-05-23T07:21:01Z</time>
      </trkpt>
      <trkpt lat="49.42636" lon="1.11184">
        <ele>14.1</ele>
        <time>2021-05-23T07:21:03Z</time>
      </trkpt>
      <trkpt lat="49.42632" lon="1.11188">
        <ele>14.5</ele>
        <time>2021-05-23T07:21:04Z</time>
      </trkpt>
      <trkpt lat="49.42627" lon="1.1119">
        <ele>14.7</ele>
        <time>2021-05-23T07:21:05Z</time>
      </trkpt>
      <trkpt lat="49.42622" lon="1.11192">
        <ele>14.6</ele>
        <time>2021-05-23T07:21:06Z</time>
      </trkpt>
      <trkpt lat="49.42611" lon="1.11192">
        <ele>14.2</ele>
        <time>2021-05-23T07:21:08Z</time>
      </trkpt>
      <trkpt lat="49.42604" lon="1.11193">
        <ele>13.5</ele>
        <time>2021-05-23T07:21:09Z</time>
      </trkpt>
      <trkpt lat="49.4259" lon="1.11196">
        <ele>12.8</ele>
        <time>2021-05-23T07:21:11Z</time>
      </trkpt>
      <trkpt lat="49.42583" lon="1.11198">
        <ele>11.9</ele>
        <time>2021-05-23T07:21:12Z</time>
      </trkpt>
      <trkpt lat="49.4257" lon="1.112">
        <ele>11</ele>
        <time>2021-05-23T07:21:14Z</time>
      </trkpt>
      <trkpt lat="49.42556" lon="1.11203">
        <ele>10</ele>
        <time>2021-05-23T07:21:16Z</time>
      </trkpt>
      <trkpt lat="49.42542" lon="1.11207">
        <ele>9</ele>
        <time>2021-05-23T07:21:18Z</time>
      </trkpt>
      <trkpt lat="49.42535" lon="1.11209">
        <ele>8</ele>
        <time>2021-05-23T07:21:19Z</time>
      </trkpt>
      <trkpt lat="49.42518" lon="1.11213">
        <ele>7</ele>
        <time>2021-05-23T07:21:21Z</time>
      </trkpt>
      <trkpt lat="49.42511" lon="1.11216">
        <ele>6.1</ele>
        <time>2021-05-23T07:21:22Z</time>
      </trkpt>
      <trkpt lat="49.42499" lon="1.1122">
        <ele>5.3</ele>
        <time>2021-05-23T07:21:24Z</time>
      </trkpt>
      <trkpt lat="49.42493" lon="1.11222">
        <ele>4.7</ele>
        <time>2021-05-23T07:21:25Z</time>
      </trkpt>
      <trkpt lat="49.42488" lon="1.11224">
        <ele>4.4</ele>
        <time>2021-05-23T07:21:26Z</time>
      </trkpt>
      <trkpt lat="49.42478" lon="1.11228">
        <ele>4</ele>
        <time>2021-05-23T07:21:28Z</time>
      </trkpt>
      <trkpt lat="49.4247" lon="1.11231">
        <ele>3.8</ele>
        <time>2021-05-23T07:21:30Z</time>
      </trkpt>
      <trkpt lat="49.4246" lon="1.11235">
        <ele>3.6</ele>
        <time>2021-05-23T07:21:32Z</time>
      </trkpt>
      <trkpt lat="49.42455" lon="1.11236">
        <ele>3.5</ele>
        <time>2021-05-23T07:21:34Z</time>
      </trkpt>
      <trkpt lat="49.4245" lon="1.11238">
        <ele>3.3</ele>
        <time>2021-05-23T07:21:35Z</time>
      </trkpt>
      <trkpt lat="49.4244" lon="1.11245">
        <ele>3.3</ele>
        <time>2021-05-23T07:21:37Z</time>
      </trkpt>
      <trkpt lat="49.42429" lon="1.1125">
        <ele>3.3</ele>
        <time>2021-05-23T07:21:39Z</time>
      </trkpt>
      <trkpt lat="49.42425" lon="1.11252">
        <ele>3.3</ele>
        <time>2021-05-23T07:21:40Z</time>
      </trkpt>
      <trkpt lat="49.42423" lon="1.11255">
        <ele>3.5</ele>
        <time>2021-05-23T07:21:41Z</time>
      </trkpt>
      <trkpt lat="49.42421" lon="1.11255">
        <ele>3.7</ele>
        <time>2021-05-23T07:21:42Z</time>
      </trkpt>
      <trkpt lat="49.42421" lon="1.11258">
        <ele>4.1</ele>
        <time>2021-05-23T07:21:43Z</time>
      </trkpt>
      <trkpt lat="49.42421" lon="1.1126">
        <ele>4.5</ele>
        <time>2021-05-23T07:21:45Z</time>
      </trkpt>
      <trkpt lat="49.4242" lon="1.11262">
        <ele>5.1</ele>
        <time>2021-05-23T07:21:46Z</time>
      </trkpt>
      <trkpt lat="49.42408" lon="1.11274">
        <ele>5.7</ele>
        <time>2021-05-23T07:21:48Z</time>
      </trkpt>
      <trkpt lat="49.424" lon="1.11278">
        <ele>6.5</ele>
        <time>2021-05-23T07:21:49Z</time>
      </trkpt>
      <trkpt lat="49.42392" lon="1.11286">
        <ele>7.1</ele>
        <time>2021-05-23T07:21:51Z</time>
      </trkpt>
      <trkpt lat="49.42388" lon="1.11289">
        <ele>7.5</ele>
        <time>2021-05-23T07:21:52Z</time>
      </trkpt>
      <trkpt lat="49.42383" lon="1.11293">
        <ele>8</ele>
        <time>2021-05-23T07:21:53Z</time>
      </trkpt>
      <trkpt lat="49.42376" lon="1.11297">
        <ele>8.4</ele>
        <time>2021-05-23T07:21:54Z</time>
      </trkpt>
      <trkpt lat="49.42356" lon="1.11301">
        <ele>8.6</ele>
        <time>2021-05-23T07:21:56Z</time>
      </trkpt>
      <trkpt lat="49.42342" lon="1.11308">
        <ele>8.7</ele>
        <time>2021-05-23T07:21:58Z</time>
      </trkpt>
      <trkpt lat="49.42335" lon="1.11312">
        <ele>8.7</ele>
        <time>2021-05-23T07:21:59Z</time>
      </trkpt>
      <trkpt lat="49.42329" lon="1.11316">
        <ele>8.6</ele>
        <time>2021-05-23T07:22:00Z</time>
      </trkpt>
      <trkpt lat="49.42323" lon="1.1132">
        <ele>8.5</ele>
        <time>2021-05-23T07:22:01Z</time>
      </trkpt>
      <trkpt lat="49.42313" lon="1.11327">
        <ele>8.2</ele>
        <time>2021-05-23T07:22:03Z</time>
      </trkpt>
      <trkpt lat="49.42304" lon="1.11336">
        <ele>7.8</ele>
        <time>2021-05-23T07:22:05Z</time>
      </trkpt>
      <trkpt lat="49.42299" lon="1.1134">
        <ele>7.7</ele>
        <time>2021-05-23T07:22:06Z</time>
      </trkpt>
      <trkpt lat="49.42288" lon="1.11348">
        <ele>7.8</ele>
        <time>2021-05-23T07:22:08Z</time>
      </trkpt>
      <trkpt lat="49.42279" lon="1.11353">
        <ele>7.9</ele>
        <time>2021-05-23T07:22:10Z</time>
      </trkpt>
      <trkpt lat="49.42271" lon="1.11362">
        <ele>8.1</ele>
        <time>2021-05-23T07:22:12Z</time>
      </trkpt>
      <trkpt lat="49.4227" lon="1.11368">
        <ele>8.3</ele>
        <time>2021-05-23T07:22:13Z</time>
      </trkpt>
      <trkpt lat="49.42274" lon="1.11382">
        <ele>8.5</ele>
        <time>2021-05-23T07:22:15Z</time>
      </trkpt>
      <trkpt lat="49.42276" lon="1.11389">
        <ele>8.8</ele>
        <time>2021-05-23T07:22:16Z</time>
      </trkpt>
      <trkpt lat="49.42278" lon="1.11392">
        <ele>9.1</ele>
        <time>2021-05-23T07:22:17Z</time>
      </trkpt>
      <trkpt lat="49.42283" lon="1.11406">
        <ele>9.4</ele>
        <time>2021-05-23T07:22:19Z</time>
      </trkpt>
      <trkpt lat="49.42287" lon="1.11419">
        <ele>9.6</ele>
        <time>2021-05-23T07:22:21Z</time>
      </trkpt>
      <trkpt lat="49.42291" lon="1.1143">
        <ele>10</ele>
        <time>2021-05-23T07:22:24Z</time>
      </trkpt>
      <trkpt lat="49.42292" lon="1.11436">
        <ele>10.2</ele>
        <time>2021-05-23T07:22:25Z</time>
      </trkpt>
      <trkpt lat="49.42296" lon="1.11442">
        <ele>10.3</ele>
        <time>2021-05-23T07:22:26Z</time>
      </trkpt>
      <trkpt lat="49.42302" lon="1.11454">
        <ele>10.4</ele>
        <time>2021-05-23T07:22:28Z</time>
      </trkpt>
      <trkpt lat="49.42304" lon="1.11458">
        <ele>10.5</ele>
        <time>2021-05-23T07:22:29Z</time>
      </trkpt>
      <trkpt lat="49.42309" lon="1.11466">
        <ele>10.5</ele>
        <time>2021-05-23T07:22:30Z</time>
      </trkpt>
      <trkpt lat="49.4231" lon="1.11472">
        <ele>10.7</ele>
        <time>2021-05-23T07:22:32Z</time>
      </trkpt>
      <trkpt lat="49.42309" lon="1.11477">
        <ele>10.9</ele>
        <time>2021-05-23T07:22:34Z</time>
      </trkpt>
      <trkpt lat="49.42309" lon="1.11478">
        <ele>11.1</ele>
        <time>2021-05-23T07:22:35Z</time>
      </trkpt>
      <trkpt lat="49.42306" lon="1.11482">
        <ele>11.3</ele>
        <time>2021-05-23T07:22:36Z</time>
      </trkpt>
      <trkpt lat="49.42304" lon="1.11485">
        <ele>11.5</ele>
        <time>2021-05-23T07:22:37Z</time>
      </trkpt>
      <trkpt lat="49.42301" lon="1.11491">
        <ele>11.5</ele>
        <time>2021-05-23T07:22:39Z</time>
      </trkpt>
      <trkpt lat="49.42303" lon="1.11497">
        <ele>11.6</ele>
        <time>2021-05-23T07:22:40Z</time>
      </trkpt>
      <trkpt lat="49.42304" lon="1.11497">
        <ele>11.7</ele>
        <time>2021-05-23T07:22:42Z</time>
      </trkpt>
      <trkpt lat="49.42309" lon="1.11493">
        <ele>11.8</ele>
        <time>2021-05-23T07:22:44Z</time>
      </trkpt>
      <trkpt lat="49.42315" lon="1.11492">
        <ele>11.9</ele>
        <time>2021-05-23T07:22:45Z</time>
      </trkpt>
      <trkpt lat="49.42319" lon="1.11491">
        <ele>12</ele>
        <time>2021-05-23T07:22:47Z</time>
      </trkpt>
      <trkpt lat="49.42321" lon="1.11487">
        <ele>12</ele>
        <time>2021-05-23T07:22:48Z</time>
      </trkpt>
      <trkpt lat="49.42322" lon="1.11487">
        <ele>12</ele>
        <time>2021-05-23T07:22:49Z</time>
      </trkpt>
      <trkpt lat="49.42323" lon="1.11486">
        <ele>12</ele>
        <time>2021-05-23T07:22:51Z</time>
      </trkpt>
      <trkpt lat="49.42325" lon="1.11484">
        <ele>12</ele>
        <time>2021-05-23T07:22:52Z</time>
      </trkpt>
      <trkpt lat="49.42324" lon="1.1148">
        <ele>12</ele>
        <time>2021-05-23T07:22:54Z</time>
      </trkpt>
      <trkpt lat="49.42324" lon="1.11478">
        <ele>12</ele>
        <time>2021-05-23T07:22:55Z</time>
      </trkpt>
      <trkpt lat="49.42321" lon="1.1148">
        <ele>12.1</ele>
        <time>2021-05-23T07:22:57Z</time>
      </trkpt>
      <trkpt lat="49.4232" lon="1.11482">
        <ele>12.2</ele>
        <time>2021-05-23T07:22:58Z</time>
      </trkpt>
      <trkpt lat="49.42316" lon="1.11488">
        <ele>12.3</ele>
        <time>2021-05-23T07:22:59Z</time>
      </trkpt>
      <trkpt lat="49.42311" lon="1.11493">
        <ele>12.4</ele>
        <time>2021-05-23T07:23:00Z</time>
      </trkpt>
      <trkpt lat="49.42305" lon="1.11498">
        <ele>12.5</ele>
        <time>2021-05-23T07:23:01Z</time>
      </trkpt>
      <trkpt lat="49.42296" lon="1.11507">
        <ele>12.5</ele>
        <time>2021-05-23T07:23:03Z</time>
      </trkpt>
      <trkpt lat="49.42284" lon="1.11517">
        <ele>12.6</ele>
        <time>2021-05-23T07:23:05Z</time>
      </trkpt>
      <trkpt lat="49.42274" lon="1.11524">
        <ele>12.7</ele>
        <time>2021-05-23T07:23:07Z</time>
      </trkpt>
      <trkpt lat="49.42269" lon="1.11527">
        <ele>12.8</ele>
        <time>2021-05-23T07:23:08Z</time>
      </trkpt>
      <trkpt lat="49.42266" lon="1.11529">
        <ele>12.9</ele>
        <time>2021-05-23T07:23:09Z</time>
      </trkpt>
      <trkpt lat="49.4226" lon="1.11533">
        <ele>13</ele>
        <time>2021-05-23T07:23:12Z</time>
      </trkpt>
      <trkpt lat="49.42255" lon="1.11536">
        <ele>13</ele>
        <time>2021-05-23T07:23:14Z</time>
      </trkpt>
      <trkpt lat="49.42251" lon="1.11539">
        <ele>13</ele>
        <time>2021-05-23T07:23:15Z</time>
      </trkpt>
      <trkpt lat="49.42248" lon="1.11541">
        <ele>12.9</ele>
        <time>2021-05-23T07:23:17Z</time>
      </trkpt>
      <trkpt lat="49.42244" lon="1.11545">
        <ele>12.8</ele>
        <time>2021-05-23T07:23:18Z</time>
      </trkpt>
      <trkpt lat="49.42234" lon="1.1155">
        <ele>12.6</ele>
        <time>2021-05-23T07:23:20Z</time>
      </trkpt>
      <trkpt lat="49.42228" lon="1.11553">
        <ele>12.4</ele>
        <time>2021-05-23T07:23:21Z</time>
      </trkpt>
      <trkpt lat="49.42222" lon="1.11555">
        <ele>12.2</ele>
        <time>2021-05-23T07:23:22Z</time>
      </trkpt>
      <trkpt lat="49.4221" lon="1.11561">
        <ele>12.1</ele>
        <time>2021-05-23T07:23:24Z</time>
      </trkpt>
      <trkpt lat="49.42204" lon="1.11565">
        <ele>12</ele>
        <time>2021-05-23T07:23:25Z</time>
      </trkpt>
      <trkpt lat="49.4219" lon="1.11569">
        <ele>11.9</ele>
        <time>2021-05-23T07:23:27Z</time>
      </trkpt>
      <trkpt lat="49.42184" lon="1.11576">
        <ele>11.8</ele>
        <time>2021-05-23T07:23:29Z</time>
      </trkpt>
      <trkpt lat="49.42182" lon="1.11587">
        <ele>11.6</ele>
        <time>2021-05-23T07:23:30Z</time>
      </trkpt>
      <trkpt lat="49.42181" lon="1.11594">
        <ele>11.5</ele>
        <time>2021-05-23T07:23:32Z</time>
      </trkpt>
      <trkpt lat="49.42179" lon="1.11598">
        <ele>11.4</ele>
        <time>2021-05-23T07:23:33Z</time>
      </trkpt>
      <trkpt lat="49.42178" lon="1.116">
        <ele>11.3</ele>
        <time>2021-05-23T07:23:34Z</time>
      </trkpt>
      <trkpt lat="49.42174" lon="1.11601">
        <ele>11.3</ele>
        <time>2021-05-23T07:23:36Z</time>
      </trkpt>
      <trkpt lat="49.4217" lon="1.11603">
        <ele>11.4</ele>
        <time>2021-05-23T07:23:38Z</time>
      </trkpt>
      <trkpt lat="49.42166" lon="1.11605">
        <ele>11.4</ele>
        <time>2021-05-23T07:23:40Z</time>
      </trkpt>
      <trkpt lat="49.42165" lon="1.11607">
        <ele>11.3</ele>
        <time>2021-05-23T07:23:41Z</time>
      </trkpt>
      <trkpt lat="49.42164" lon="1.11608">
        <ele>11.2</ele>
        <time>2021-05-23T07:23:42Z</time>
      </trkpt>
      <trkpt lat="49.42163" lon="1.11608">
        <ele>11.1</ele>
        <time>2021-05-23T07:23:43Z</time>
      </trkpt>
      <trkpt lat="49.42159" lon="1.11609">
        <ele>11</ele>
        <time>2021-05-23T07:23:45Z</time>
      </trkpt>
      <trkpt lat="49.42158" lon="1.11609">
        <ele>11</ele>
        <time>2021-05-23T07:23:46Z</time>
      </trkpt>
      <trkpt lat="49.42155" lon="1.11611">
        <ele>11</ele>
        <time>2021-05-23T07:23:48Z</time>
      </trkpt>
      <trkpt lat="49.42151" lon="1.11614">
        <ele>11</ele>
        <time>2021-05-23T07:23:50Z</time>
      </trkpt>
      <trkpt lat="49.4215" lon="1.11615">
        <ele>11</ele>
        <time>2021-05-23T07:23:51Z</time>
      </trkpt>
      <trkpt lat="49.42149" lon="1.11615">
        <ele>11</ele>
        <time>2021-05-23T07:23:53Z</time>
      </trkpt>
      <trkpt lat="49.42149" lon="1.11615">
        <ele>11</ele>
        <time>2021-05-23T07:23:54Z</time>
      </trkpt>
      <trkpt lat="49.42149" lon="1.11615">
        <ele>11.1</ele>
        <time>2021-05-23T07:23:55Z</time>
      </trkpt>
      <trkpt lat="49.42149" lon="1.11615">
        <ele>11.3</ele>
        <time>2021-05-23T07:23:57Z</time>
      </trkpt>
      <trkpt lat="49.42149" lon="1.11615">
        <ele>11.5</ele>
        <time>2021-05-23T07:23:58Z</time>
      </trkpt>
      <trkpt lat="49.42149" lon="1.11615">
        <ele>11.7</ele>
        <time>2021-05-23T07:24:01Z</time>
      </trkpt>
      <trkpt lat="49.42149" lon="1.11616">
        <ele>12</ele>
        <time>2021-05-23T07:24:03Z</time>
      </trkpt>
      <trkpt lat="49.42151" lon="1.1162">
        <ele>12.3</ele>
        <time>2021-05-23T07:24:06Z</time>
      </trkpt>
      <trkpt lat="49.42152" lon="1.11621">
        <ele>12.6</ele>
        <time>2021-05-23T07:24:07Z</time>
      </trkpt>
      <trkpt lat="49.42154" lon="1.11624">
        <ele>13.1</ele>
        <time>2021-05-23T07:24:09Z</time>
      </trkpt>
      <trkpt lat="49.42154" lon="1.11627">
        <ele>13.6</ele>
        <time>2021-05-23T07:24:11Z</time>
      </trkpt>
      <trkpt lat="49.42154" lon="1.11629">
        <ele>14.3</ele>
        <time>2021-05-23T07:24:12Z</time>
      </trkpt>
      <trkpt lat="49.42155" lon="1.11631">
        <ele>14.9</ele>
        <time>2021-05-23T07:24:14Z</time>
      </trkpt>
      <trkpt lat="49.42155" lon="1.11636">
        <ele>15.5</ele>
        <time>2021-05-23T07:24:16Z</time>
      </trkpt>
      <trkpt lat="49.42156" lon="1.11641">
        <ele>16.2</ele>
        <time>2021-05-23T07:24:18Z</time>
      </trkpt>
      <trkpt lat="49.42157" lon="1.11646">
        <ele>16.9</ele>
        <time>2021-05-23T07:24:20Z</time>
      </trkpt>
      <trkpt lat="49.42157" lon="1.11649">
        <ele>17.6</ele>
        <time>2021-05-23T07:24:21Z</time>
      </trkpt>
      <trkpt lat="49.42158" lon="1.11654">
        <ele>18.5</ele>
        <time>2021-05-23T07:24:23Z</time>
      </trkpt>
      <trkpt lat="49.42159" lon="1.11658">
        <ele>19.5</ele>
        <time>2021-05-23T07:24:25Z</time>
      </trkpt>
      <trkpt lat="49.42159" lon="1.11664">
        <ele>20.5</ele>
        <time>2021-05-23T07:24:27Z</time>
      </trkpt>
      <trkpt lat="49.42159" lon="1.11673">
        <ele>21.5</ele>
        <time>2021-05-23T07:24:29Z</time>
      </trkpt>
      <trkpt lat="49.42159" lon="1.11678">
        <ele>22.4</ele>
        <time>2021-05-23T07:24:30Z</time>
      </trkpt>
      <trkpt lat="49.4216" lon="1.11687">
        <ele>23.2</ele>
        <time>2021-05-23T07:24:32Z</time>
      </trkpt>
      <trkpt lat="49.4216" lon="1.11693">
        <ele>24.1</ele>
        <time>2021-05-23T07:24:34Z</time>
      </trkpt>
      <trkpt lat="49.4216" lon="1.11696">
        <ele>24.9</ele>
        <time>2021-05-23T07:24:35Z</time>
      </trkpt>
      <trkpt lat="49.42162" lon="1.11702">
        <ele>25.6</ele>
        <time>2021-05-23T07:24:37Z</time>
      </trkpt>
      <trkpt lat="49.42165" lon="1.11704">
        <ele>26.3</ele>
        <time>2021-05-23T07:24:39Z</time>
      </trkpt>
      <trkpt lat="49.42167" lon="1.11703">
        <ele>26.8</ele>
        <time>2021-05-23T07:24:40Z</time>
      </trkpt>
      <trkpt lat="49.42171" lon="1.11702">
        <ele>27.2</ele>
        <time>2021-05-23T07:24:42Z</time>
      </trkpt>
      <trkpt lat="49.42172" lon="1.11702">
        <ele>27.5</ele>
        <time>2021-05-23T07:24:43Z</time>
      </trkpt>
      <trkpt lat="49.42175" lon="1.117">
        <ele>27.8</ele>
        <time>2021-05-23T07:24:45Z</time>
      </trkpt>
      <trkpt lat="49.42178" lon="1.11697">
        <ele>28</ele>
        <time>2021-05-23T07:24:48Z</time>
      </trkpt>
      <trkpt lat="49.42178" lon="1.11697">
        <ele>28.2</ele>
        <time>2021-05-23T07:24:49Z</time>
      </trkpt>
      <trkpt lat="49.42182" lon="1.11695">
        <ele>28.4</ele>
        <time>2021-05-23T07:24:51Z</time>
      </trkpt>
      <trkpt lat="49.42183" lon="1.11694">
        <ele>28.5</ele>
        <time>2021-05-23T07:24:52Z</time>
      </trkpt>
      <trkpt lat="49.42185" lon="1.11692">
        <ele>28.5</ele>
        <time>2021-05-23T07:24:54Z</time>
      </trkpt>
      <trkpt lat="49.42186" lon="1.11692">
        <ele>28.7</ele>
        <time>2021-05-23T07:24:55Z</time>
      </trkpt>
      <trkpt lat="49.42188" lon="1.1169">
        <ele>28.9</ele>
        <time>2021-05-23T07:24:56Z</time>
      </trkpt>
      <trkpt lat="49.42192" lon="1.11688">
        <ele>29.1</ele>
        <time>2021-05-23T07:24:58Z</time>
      </trkpt>
      <trkpt lat="49.42194" lon="1.11686">
        <ele>29.4</ele>
        <time>2021-05-23T07:24:59Z</time>
      </trkpt>
      <trkpt lat="49.42196" lon="1.11684">
        <ele>29.6</ele>
        <time>2021-05-23T07:25:01Z</time>
      </trkpt>
      <trkpt lat="49.422" lon="1.11682">
        <ele>29.9</ele>
        <time>2021-05-23T07:25:02Z</time>
      </trkpt>
      <trkpt lat="49.42202" lon="1.1168">
        <ele>30.3</ele>
        <time>2021-05-23T07:25:03Z</time>
      </trkpt>
      <trkpt lat="49.42206" lon="1.11679">
        <ele>30.8</ele>
        <time>2021-05-23T07:25:05Z</time>
      </trkpt>
      <trkpt lat="49.4221" lon="1.11678">
        <ele>31.5</ele>
        <time>2021-05-23T07:25:06Z</time>
      </trkpt>
      <trkpt lat="49.42213" lon="1.11678">
        <ele>32.1</ele>
        <time>2021-05-23T07:25:07Z</time>
      </trkpt>
      <trkpt lat="49.42218" lon="1.11677">
        <ele>32.8</ele>
        <time>2021-05-23T07:25:09Z</time>
      </trkpt>
      <trkpt lat="49.42221" lon="1.1168">
        <ele>33.5</ele>
        <time>2021-05-23T07:25:10Z</time>
      </trkpt>
      <trkpt lat="49.42224" lon="1.11683">
        <ele>34.2</ele>
        <time>2021-05-23T07:25:11Z</time>
      </trkpt>
      <trkpt lat="49.42225" lon="1.11686">
        <ele>34.9</ele>
        <time>2021-05-23T07:25:12Z</time>
      </trkpt>
      <trkpt lat="49.42226" lon="1.11689">
        <ele>35.5</ele>
        <time>2021-05-23T07:25:14Z</time>
      </trkpt>
      <trkpt lat="49.42225" lon="1.11693">
        <ele>36.2</ele>
        <time>2021-05-23T07:25:15Z</time>
      </trkpt>
      <trkpt lat="49.42224" lon="1.11695">
        <ele>36.7</ele>
        <time>2021-05-23T07:25:16Z</time>
      </trkpt>
      <trkpt lat="49.42223" lon="1.11696">
        <ele>37.3</ele>
        <time>2021-05-23T07:25:18Z</time>
      </trkpt>
      <trkpt lat="49.42222" lon="1.11699">
        <ele>37.6</ele>
        <time>2021-05-23T07:25:19Z</time>
      </trkpt>
      <trkpt lat="49.42219" lon="1.11702">
        <ele>37.9</ele>
        <time>2021-05-23T07:25:20Z</time>
      </trkpt>
      <trkpt lat="49.42218" lon="1.11702">
        <ele>38.3</ele>
        <time>2021-05-23T07:25:21Z</time>
      </trkpt>
      <trkpt lat="49.42216" lon="1.11706">
        <ele>38.5</ele>
        <time>2021-05-23T07:25:23Z</time>
      </trkpt>
      <trkpt lat="49.42214" lon="1.11709">
        <ele>38.8</ele>
        <time>2021-05-23T07:25:24Z</time>
      </trkpt>
      <trkpt lat="49.42212" lon="1.11712">
        <ele>39.1</ele>
        <time>2021-05-23T07:25:25Z</time>
      </trkpt>
      <trkpt lat="49.4221" lon="1.11716">
        <ele>39.4</ele>
        <time>2021-05-23T07:25:27Z</time>
      </trkpt>
      <trkpt lat="49.42208" lon="1.1172">
        <ele>39.7</ele>
        <time>2021-05-23T07:25:28Z</time>
      </trkpt>
      <trkpt lat="49.42207" lon="1.11721">
        <ele>40.1</ele>
        <time>2021-05-23T07:25:29Z</time>
      </trkpt>
      <trkpt lat="49.42204" lon="1.11726">
        <ele>40.5</ele>
        <time>2021-05-23T07:25:31Z</time>
      </trkpt>
      <trkpt lat="49.42204" lon="1.11728">
        <ele>40.7</ele>
        <time>2021-05-23T07:25:32Z</time>
      </trkpt>
      <trkpt lat="49.42202" lon="1.11732">
        <ele>41.1</ele>
        <time>2021-05-23T07:25:34Z</time>
      </trkpt>
      <trkpt lat="49.42199" lon="1.11735">
        <ele>41.5</ele>
        <time>2021-05-23T07:25:37Z</time>
      </trkpt>
      <trkpt lat="49.42197" lon="1.11739">
        <ele>41.7</ele>
        <time>2021-05-23T07:25:38Z</time>
      </trkpt>
      <trkpt lat="49.42195" lon="1.11742">
        <ele>42</ele>
        <time>2021-05-23T07:25:39Z</time>
      </trkpt>
      <trkpt lat="49.42194" lon="1.11743">
        <ele>42.4</ele>
        <time>2021-05-23T07:25:40Z</time>
      </trkpt>
      <trkpt lat="49.4219" lon="1.11747">
        <ele>42.6</ele>
        <time>2021-05-23T07:25:42Z</time>
      </trkpt>
      <trkpt lat="49.42189" lon="1.11748">
        <ele>42.9</ele>
        <time>2021-05-23T07:25:43Z</time>
      </trkpt>
      <trkpt lat="49.42187" lon="1.11751">
        <ele>43.1</ele>
        <time>2021-05-23T07:25:44Z</time>
      </trkpt>
      <trkpt lat="49.42185" lon="1.11753">
        <ele>43.3</ele>
        <time>2021-05-23T07:25:46Z</time>
      </trkpt>
      <trkpt lat="49.42181" lon="1.11757">
        <ele>43.5</ele>
        <time>2021-05-23T07:25:47Z</time>
      </trkpt>
      <trkpt lat="49.42179" lon="1.11759">
        <ele>43.8</ele>
        <time>2021-05-23T07:25:48Z</time>
      </trkpt>
      <trkpt lat="49.42176" lon="1.11762">
        <ele>44</ele>
        <time>2021-05-23T07:25:50Z</time>
      </trkpt>
      <trkpt lat="49.42174" lon="1.11764">
        <ele>44.3</ele>
        <time>2021-05-23T07:25:51Z</time>
      </trkpt>
      <trkpt lat="49.42171" lon="1.11767">
        <ele>44.5</ele>
        <time>2021-05-23T07:25:53Z</time>
      </trkpt>
      <trkpt lat="49.42168" lon="1.1177">
        <ele>44.9</ele>
        <time>2021-05-23T07:25:54Z</time>
      </trkpt>
      <trkpt lat="49.42168" lon="1.11771">
        <ele>45.3</ele>
        <time>2021-05-23T07:25:55Z</time>
      </trkpt>
      <trkpt lat="49.42165" lon="1.11774">
        <ele>45.7</ele>
        <time>2021-05-23T07:25:56Z</time>
      </trkpt>
      <trkpt lat="49.42164" lon="1.11775">
        <ele>46.3</ele>
        <time>2021-05-23T07:25:57Z</time>
      </trkpt>
      <trkpt lat="49.4216" lon="1.11778">
        <ele>46.9</ele>
        <time>2021-05-23T07:25:58Z</time>
      </trkpt>
      <trkpt lat="49.42157" lon="1.11781">
        <ele>47.6</ele>
        <time>2021-05-23T07:26:00Z</time>
      </trkpt>
      <trkpt lat="49.42154" lon="1.11783">
        <ele>48.3</ele>
        <time>2021-05-23T07:26:01Z</time>
      </trkpt>
      <trkpt lat="49.4215" lon="1.11787">
        <ele>48.9</ele>
        <time>2021-05-23T07:26:03Z</time>
      </trkpt>
      <trkpt lat="49.42146" lon="1.11789">
        <ele>49.5</ele>
        <time>2021-05-23T07:26:04Z</time>
      </trkpt>
      <trkpt lat="49.42144" lon="1.11792">
        <ele>50.1</ele>
        <time>2021-05-23T07:26:05Z</time>
      </trkpt>
      <trkpt lat="49.4214" lon="1.11795">
        <ele>50.6</ele>
        <time>2021-05-23T07:26:07Z</time>
      </trkpt>
      <trkpt lat="49.42138" lon="1.11795">
        <ele>51.1</ele>
        <time>2021-05-23T07:26:08Z</time>
      </trkpt>
      <trkpt lat="49.42137" lon="1.11796">
        <ele>51.5</ele>
        <time>2021-05-23T07:26:09Z</time>
      </trkpt>
      <trkpt lat="49.42136" lon="1.11796">
        <ele>51.6</ele>
        <time>2021-05-23T07:26:10Z</time>
      </trkpt>
      <trkpt lat="49.42134" lon="1.11796">
        <ele>51.7</ele>
        <time>2021-05-23T07:26:11Z</time>
      </trkpt>
      <trkpt lat="49.42133" lon="1.11795">
        <ele>51.7</ele>
        <time>2021-05-23T07:26:13Z</time>
      </trkpt>
      <trkpt lat="49.4213" lon="1.11792">
        <ele>51.6</ele>
        <time>2021-05-23T07:26:15Z</time>
      </trkpt>
      <trkpt lat="49.42127" lon="1.1179">
        <ele>51.5</ele>
        <time>2021-05-23T07:26:16Z</time>
      </trkpt>
      <trkpt lat="49.42126" lon="1.1179">
        <ele>51.5</ele>
        <time>2021-05-23T07:26:17Z</time>
      </trkpt>
      <trkpt lat="49.42124" lon="1.11789">
        <ele>51.5</ele>
        <time>2021-05-23T07:26:18Z</time>
      </trkpt>
      <trkpt lat="49.42122" lon="1.11788">
        <ele>51.6</ele>
        <time>2021-05-23T07:26:20Z</time>
      </trkpt>
      <trkpt lat="49.42121" lon="1.11788">
        <ele>51.7</ele>
        <time>2021-05-23T07:26:21Z</time>
      </trkpt>
      <trkpt lat="49.42119" lon="1.11789">
        <ele>51.8</ele>
        <time>2021-05-23T07:26:22Z</time>
      </trkpt>
      <trkpt lat="49.42116" lon="1.1179">
        <ele>51.9</ele>
        <time>2021-05-23T07:26:23Z</time>
      </trkpt>
      <trkpt lat="49.42115" lon="1.1179">
        <ele>52.1</ele>
        <time>2021-05-23T07:26:24Z</time>
      </trkpt>
      <trkpt lat="49.42112" lon="1.11791">
        <ele>52.4</ele>
        <time>2021-05-23T07:26:27Z</time>
      </trkpt>
      <trkpt lat="49.42111" lon="1.11791">
        <ele>52.6</ele>
        <time>2021-05-23T07:26:28Z</time>
      </trkpt>
      <trkpt lat="49.42107" lon="1.11791">
        <ele>52.9</ele>
        <time>2021-05-23T07:26:29Z</time>
      </trkpt>
      <trkpt lat="49.42103" lon="1.11792">
        <ele>53.3</ele>
        <time>2021-05-23T07:26:30Z</time>
      </trkpt>
      <trkpt lat="49.42099" lon="1.11794">
        <ele>53.6</ele>
        <time>2021-05-23T07:26:32Z</time>
      </trkpt>
      <trkpt lat="49.42096" lon="1.11795">
        <ele>54</ele>
        <time>2021-05-23T07:26:33Z</time>
      </trkpt>
      <trkpt lat="49.42092" lon="1.11797">
        <ele>54.4</ele>
        <time>2021-05-23T07:26:34Z</time>
      </trkpt>
      <trkpt lat="49.42089" lon="1.11798">
        <ele>54.7</ele>
        <time>2021-05-23T07:26:35Z</time>
      </trkpt>
      <trkpt lat="49.42086" lon="1.118">
        <ele>55.2</ele>
        <time>2021-05-23T07:26:36Z</time>
      </trkpt>
      <trkpt lat="49.42083" lon="1.11802">
        <ele>55.6</ele>
        <time>2021-05-23T07:26:37Z</time>
      </trkpt>
      <trkpt lat="49.42079" lon="1.11804">
        <ele>56.2</ele>
        <time>2021-05-23T07:26:39Z</time>
      </trkpt>
      <trkpt lat="49.42074" lon="1.11807">
        <ele>56.8</ele>
        <time>2021-05-23T07:26:40Z</time>
      </trkpt>
      <trkpt lat="49.4207" lon="1.11809">
        <ele>57.5</ele>
        <time>2021-05-23T07:26:42Z</time>
      </trkpt>
      <trkpt lat="49.42067" lon="1.11811">
        <ele>58</ele>
        <time>2021-05-23T07:26:43Z</time>
      </trkpt>
      <trkpt lat="49.42063" lon="1.11814">
        <ele>58.5</ele>
        <time>2021-05-23T07:26:44Z</time>
      </trkpt>
      <trkpt lat="49.42059" lon="1.11817">
        <ele>58.8</ele>
        <time>2021-05-23T07:26:45Z</time>
      </trkpt>
      <trkpt lat="49.42055" lon="1.11822">
        <ele>59.2</ele>
        <time>2021-05-23T07:26:47Z</time>
      </trkpt>
      <trkpt lat="49.42052" lon="1.11825">
        <ele>59.4</ele>
        <time>2021-05-23T07:26:48Z</time>
      </trkpt>
      <trkpt lat="49.42048" lon="1.11826">
        <ele>59.6</ele>
        <time>2021-05-23T07:26:49Z</time>
      </trkpt>
      <trkpt lat="49.42045" lon="1.11829">
        <ele>59.7</ele>
        <time>2021-05-23T07:26:50Z</time>
      </trkpt>
      <trkpt lat="49.4204" lon="1.11831">
        <ele>59.7</ele>
        <time>2021-05-23T07:26:52Z</time>
      </trkpt>
      <trkpt lat="49.42037" lon="1.11833">
        <ele>59.5</ele>
        <time>2021-05-23T07:26:53Z</time>
      </trkpt>
      <trkpt lat="49.42031" lon="1.11836">
        <ele>59.2</ele>
        <time>2021-05-23T07:26:55Z</time>
      </trkpt>
      <trkpt lat="49.42026" lon="1.1184">
        <ele>58.7</ele>
        <time>2021-05-23T07:26:56Z</time>
      </trkpt>
      <trkpt lat="49.42023" lon="1.11841">
        <ele>58.4</ele>
        <time>2021-05-23T07:26:58Z</time>
      </trkpt>
      <trkpt lat="49.42018" lon="1.11843">
        <ele>58</ele>
        <time>2021-05-23T07:26:59Z</time>
      </trkpt>
      <trkpt lat="49.42014" lon="1.11845">
        <ele>57.6</ele>
        <time>2021-05-23T07:27:01Z</time>
      </trkpt>
      <trkpt lat="49.4201" lon="1.11847">
        <ele>57.3</ele>
        <time>2021-05-23T07:27:02Z</time>
      </trkpt>
      <trkpt lat="49.42007" lon="1.11849">
        <ele>57</ele>
        <time>2021-05-23T07:27:03Z</time>
      </trkpt>
      <trkpt lat="49.42002" lon="1.11853">
        <ele>56.6</ele>
        <time>2021-05-23T07:27:06Z</time>
      </trkpt>
      <trkpt lat="49.41998" lon="1.11855">
        <ele>56.4</ele>
        <time>2021-05-23T07:27:07Z</time>
      </trkpt>
      <trkpt lat="49.41995" lon="1.11857">
        <ele>56.1</ele>
        <time>2021-05-23T07:27:08Z</time>
      </trkpt>
      <trkpt lat="49.41992" lon="1.1186">
        <ele>55.9</ele>
        <time>2021-05-23T07:27:10Z</time>
      </trkpt>
      <trkpt lat="49.41988" lon="1.11866">
        <ele>55.8</ele>
        <time>2021-05-23T07:27:12Z</time>
      </trkpt>
      <trkpt lat="49.41983" lon="1.1187">
        <ele>55.8</ele>
        <time>2021-05-23T07:27:13Z</time>
      </trkpt>
      <trkpt lat="49.4198" lon="1.11874">
        <ele>55.8</ele>
        <time>2021-05-23T07:27:16Z</time>
      </trkpt>
      <trkpt lat="49.41977" lon="1.11878">
        <ele>55.8</ele>
        <time>2021-05-23T07:27:17Z</time>
      </trkpt>
      <trkpt lat="49.41973" lon="1.11883">
        <ele>55.9</ele>
        <time>2021-05-23T07:27:19Z</time>
      </trkpt>
      <trkpt lat="49.41972" lon="1.11885">
        <ele>56</ele>
        <time>2021-05-23T07:27:20Z</time>
      </trkpt>
      <trkpt lat="49.41971" lon="1.11888">
        <ele>56.2</ele>
        <time>2021-05-23T07:27:21Z</time>
      </trkpt>
      <trkpt lat="49.41968" lon="1.11892">
        <ele>56.5</ele>
        <time>2021-05-23T07:27:23Z</time>
      </trkpt>
      <trkpt lat="49.41965" lon="1.11897">
        <ele>56.8</ele>
        <time>2021-05-23T07:27:24Z</time>
      </trkpt>
      <trkpt lat="49.41964" lon="1.119">
        <ele>57.4</ele>
        <time>2021-05-23T07:27:25Z</time>
      </trkpt>
      <trkpt lat="49.41961" lon="1.11905">
        <ele>58</ele>
        <time>2021-05-23T07:27:26Z</time>
      </trkpt>
      <trkpt lat="49.41959" lon="1.11912">
        <ele>58.5</ele>
        <time>2021-05-23T07:27:28Z</time>
      </trkpt>
      <trkpt lat="49.41958" lon="1.11918">
        <ele>59.2</ele>
        <time>2021-05-23T07:27:29Z</time>
      </trkpt>
      <trkpt lat="49.41958" lon="1.11923">
        <ele>59.8</ele>
        <time>2021-05-23T07:27:31Z</time>
      </trkpt>
      <trkpt lat="49.41958" lon="1.11928">
        <ele>60.5</ele>
        <time>2021-05-23T07:27:32Z</time>
      </trkpt>
      <trkpt lat="49.41957" lon="1.11933">
        <ele>61</ele>
        <time>2021-05-23T07:27:34Z</time>
      </trkpt>
      <trkpt lat="49.41957" lon="1.11935">
        <ele>61.6</ele>
        <time>2021-05-23T07:27:35Z</time>
      </trkpt>
      <trkpt lat="49.41956" lon="1.11943">
        <ele>62.2</ele>
        <time>2021-05-23T07:27:37Z</time>
      </trkpt>
      <trkpt lat="49.41956" lon="1.11946">
        <ele>62.6</ele>
        <time>2021-05-23T07:27:38Z</time>
      </trkpt>
      <trkpt lat="49.41955" lon="1.11949">
        <ele>63.1</ele>
        <time>2021-05-23T07:27:39Z</time>
      </trkpt>
      <trkpt lat="49.41954" lon="1.11952">
        <ele>63.5</ele>
        <time>2021-05-23T07:27:40Z</time>
      </trkpt>
      <trkpt lat="49.41953" lon="1.11958">
        <ele>63.9</ele>
        <time>2021-05-23T07:27:42Z</time>
      </trkpt>
      <trkpt lat="49.41953" lon="1.11962">
        <ele>64.4</ele>
        <time>2021-05-23T07:27:43Z</time>
      </trkpt>
      <trkpt lat="49.41952" lon="1.11967">
        <ele>64.7</ele>
        <time>2021-05-23T07:27:45Z</time>
      </trkpt>
      <trkpt lat="49.41951" lon="1.11973">
        <ele>65.1</ele>
        <time>2021-05-23T07:27:46Z</time>
      </trkpt>
      <trkpt lat="49.41952" lon="1.1198">
        <ele>65.5</ele>
        <time>2021-05-23T07:27:48Z</time>
      </trkpt>
      <trkpt lat="49.41952" lon="1.11983">
        <ele>65.8</ele>
        <time>2021-05-23T07:27:49Z</time>
      </trkpt>
      <trkpt lat="49.41952" lon="1.11986">
        <ele>66.1</ele>
        <time>2021-05-23T07:27:50Z</time>
      </trkpt>
      <trkpt lat="49.41952" lon="1.1199">
        <ele>66.4</ele>
        <time>2021-05-23T07:27:51Z</time>
      </trkpt>
      <trkpt lat="49.41951" lon="1.11991">
        <ele>66.6</ele>
        <time>2021-05-23T07:27:52Z</time>
      </trkpt>
      <trkpt lat="49.41951" lon="1.11992">
        <ele>66.8</ele>
        <time>2021-05-23T07:27:53Z</time>
      </trkpt>
      <trkpt lat="49.41951" lon="1.11992">
        <ele>67</ele>
        <time>2021-05-23T07:27:55Z</time>
      </trkpt>
      <trkpt lat="49.41951" lon="1.11993">
        <ele>67.3</ele>
        <time>2021-05-23T07:27:56Z</time>
      </trkpt>
      <trkpt lat="49.41951" lon="1.11993">
        <ele>67.5</ele>
        <time>2021-05-23T07:27:58Z</time>
      </trkpt>
      <trkpt lat="49.4195" lon="1.11996">
        <ele>67.9</ele>
        <time>2021-05-23T07:27:59Z</time>
      </trkpt>
      <trkpt lat="49.4195" lon="1.12">
        <ele>68.5</ele>
        <time>2021-05-23T07:28:00Z</time>
      </trkpt>
      <trkpt lat="49.41948" lon="1.12009">
        <ele>69.2</ele>
        <time>2021-05-23T07:28:01Z</time>
      </trkpt>
      <trkpt lat="49.41948" lon="1.12016">
        <ele>69.9</ele>
        <time>2021-05-23T07:28:03Z</time>
      </trkpt>
      <trkpt lat="49.41947" lon="1.12023">
        <ele>70.6</ele>
        <time>2021-05-23T07:28:05Z</time>
      </trkpt>
      <trkpt lat="49.41946" lon="1.12029">
        <ele>71.5</ele>
        <time>2021-05-23T07:28:06Z</time>
      </trkpt>
      <trkpt lat="49.41944" lon="1.12037">
        <ele>72.2</ele>
        <time>2021-05-23T07:28:08Z</time>
      </trkpt>
      <trkpt lat="49.41941" lon="1.12043">
        <ele>72.9</ele>
        <time>2021-05-23T07:28:10Z</time>
      </trkpt>
      <trkpt lat="49.41938" lon="1.12045">
        <ele>73.5</ele>
        <time>2021-05-23T07:28:11Z</time>
      </trkpt>
      <trkpt lat="49.41936" lon="1.12047">
        <ele>74.1</ele>
        <time>2021-05-23T07:28:12Z</time>
      </trkpt>
      <trkpt lat="49.41933" lon="1.12049">
        <ele>74.5</ele>
        <time>2021-05-23T07:28:13Z</time>
      </trkpt>
      <trkpt lat="49.41929" lon="1.12051">
        <ele>74.8</ele>
        <time>2021-05-23T07:28:15Z</time>
      </trkpt>
      <trkpt lat="49.41928" lon="1.12051">
        <ele>75.1</ele>
        <time>2021-05-23T07:28:16Z</time>
      </trkpt>
      <trkpt lat="49.41923" lon="1.12052">
        <ele>75.2</ele>
        <time>2021-05-23T07:28:17Z</time>
      </trkpt>
      <trkpt lat="49.4192" lon="1.12053">
        <ele>75.4</ele>
        <time>2021-05-23T07:28:19Z</time>
      </trkpt>
      <trkpt lat="49.41917" lon="1.12054">
        <ele>75.5</ele>
        <time>2021-05-23T07:28:20Z</time>
      </trkpt>
      <trkpt lat="49.41914" lon="1.12054">
        <ele>75.7</ele>
        <time>2021-05-23T07:28:21Z</time>
      </trkpt>
      <trkpt lat="49.4191" lon="1.12055">
        <ele>76.1</ele>
        <time>2021-05-23T07:28:22Z</time>
      </trkpt>
      <trkpt lat="49.41909" lon="1.12054">
        <ele>76.5</ele>
        <time>2021-05-23T07:28:23Z</time>
      </trkpt>
      <trkpt lat="49.41907" lon="1.12055">
        <ele>77</ele>
        <time>2021-05-23T07:28:24Z</time>
      </trkpt>
      <trkpt lat="49.41906" lon="1.12055">
        <ele>77.5</ele>
        <time>2021-05-23T07:28:26Z</time>
      </trkpt>
      <trkpt lat="49.41902" lon="1.12055">
        <ele>77.9</ele>
        <time>2021-05-23T07:28:27Z</time>
      </trkpt>
      <trkpt lat="49.41899" lon="1.12057">
        <ele>78.3</ele>
        <time>2021-05-23T07:28:29Z</time>
      </trkpt>
      <trkpt lat="49.41898" lon="1.12057">
        <ele>78.5</ele>
        <time>2021-05-23T07:28:30Z</time>
      </trkpt>
      <trkpt lat="49.41897" lon="1.12057">
        <ele>78.8</ele>
        <time>2021-05-23T07:28:31Z</time>
      </trkpt>
      <trkpt lat="49.41895" lon="1.12055">
        <ele>79</ele>
        <time>2021-05-23T07:28:32Z</time>
      </trkpt>
      <trkpt lat="49.41892" lon="1.12054">
        <ele>79.2</ele>
        <time>2021-05-23T07:28:33Z</time>
      </trkpt>
      <trkpt lat="49.41891" lon="1.12053">
        <ele>79.3</ele>
        <time>2021-05-23T07:28:34Z</time>
      </trkpt>
      <trkpt lat="49.41888" lon="1.12051">
        <ele>79.3</ele>
        <time>2021-05-23T07:28:36Z</time>
      </trkpt>
      <trkpt lat="49.41887" lon="1.1205">
        <ele>79.2</ele>
        <time>2021-05-23T07:28:37Z</time>
      </trkpt>
      <trkpt lat="49.41886" lon="1.12049">
        <ele>79.1</ele>
        <time>2021-05-23T07:28:38Z</time>
      </trkpt>
      <trkpt lat="49.41883" lon="1.12047">
        <ele>79</ele>
        <time>2021-05-23T07:28:40Z</time>
      </trkpt>
      <trkpt lat="49.4188" lon="1.12045">
        <ele>79</ele>
        <time>2021-05-23T07:28:41Z</time>
      </trkpt>
      <trkpt lat="49.41877" lon="1.12042">
        <ele>79</ele>
        <time>2021-05-23T07:28:43Z</time>
      </trkpt>
      <trkpt lat="49.41876" lon="1.12041">
        <ele>79</ele>
        <time>2021-05-23T07:28:44Z</time>
      </trkpt>
      <trkpt lat="49.41872" lon="1.12038">
        <ele>79</ele>
        <time>2021-05-23T07:28:45Z</time>
      </trkpt>
      <trkpt lat="49.4187" lon="1.12036">
        <ele>79</ele>
        <time>2021-05-23T07:28:46Z</time>
      </trkpt>
      <trkpt lat="49.41868" lon="1.12033">
        <ele>78.9</ele>
        <time>2021-05-23T07:28:47Z</time>
      </trkpt>
      <trkpt lat="49.41866" lon="1.12031">
        <ele>78.8</ele>
        <time>2021-05-23T07:28:49Z</time>
      </trkpt>
      <trkpt lat="49.41863" lon="1.12028">
        <ele>78.7</ele>
        <time>2021-05-23T07:28:50Z</time>
      </trkpt>
      <trkpt lat="49.41861" lon="1.12025">
        <ele>78.6</ele>
        <time>2021-05-23T07:28:51Z</time>
      </trkpt>
      <trkpt lat="49.41858" lon="1.1202">
        <ele>78.5</ele>
        <time>2021-05-23T07:28:54Z</time>
      </trkpt>
      <trkpt lat="49.41856" lon="1.12019">
        <ele>78.3</ele>
        <time>2021-05-23T07:28:55Z</time>
      </trkpt>
      <trkpt lat="49.41853" lon="1.12016">
        <ele>78.1</ele>
        <time>2021-05-23T07:28:56Z</time>
      </trkpt>
      <trkpt lat="49.41851" lon="1.12014">
        <ele>77.9</ele>
        <time>2021-05-23T07:28:57Z</time>
      </trkpt>
      <trkpt lat="49.41849" lon="1.12012">
        <ele>77.8</ele>
        <time>2021-05-23T07:28:59Z</time>
      </trkpt>
      <trkpt lat="49.41845" lon="1.12007">
        <ele>77.7</ele>
        <time>2021-05-23T07:29:00Z</time>
      </trkpt>
      <trkpt lat="49.41842" lon="1.12004">
        <ele>77.6</ele>
        <time>2021-05-23T07:29:02Z</time>
      </trkpt>
      <trkpt lat="49.4184" lon="1.12003">
        <ele>77.6</ele>
        <time>2021-05-23T07:29:03Z</time>
      </trkpt>
      <trkpt lat="49.41837" lon="1.12001">
        <ele>77.6</ele>
        <time>2021-05-23T07:29:04Z</time>
      </trkpt>
      <trkpt lat="49.41833" lon="1.12002">
        <ele>77.6</ele>
        <time>2021-05-23T07:29:05Z</time>
      </trkpt>
      <trkpt lat="49.41829" lon="1.12002">
        <ele>77.7</ele>
        <time>2021-05-23T07:29:07Z</time>
      </trkpt>
      <trkpt lat="49.41827" lon="1.12002">
        <ele>77.9</ele>
        <time>2021-05-23T07:29:08Z</time>
      </trkpt>
      <trkpt lat="49.41823" lon="1.12002">
        <ele>78.2</ele>
        <time>2021-05-23T07:29:10Z</time>
      </trkpt>
      <trkpt lat="49.4182" lon="1.12003">
        <ele>78.5</ele>
        <time>2021-05-23T07:29:11Z</time>
      </trkpt>
      <trkpt lat="49.41816" lon="1.12003">
        <ele>78.9</ele>
        <time>2021-05-23T07:29:13Z</time>
      </trkpt>
      <trkpt lat="49.41813" lon="1.12003">
        <ele>79.4</ele>
        <time>2021-05-23T07:29:14Z</time>
      </trkpt>
      <trkpt lat="49.4181" lon="1.12004">
        <ele>79.9</ele>
        <time>2021-05-23T07:29:15Z</time>
      </trkpt>
      <trkpt lat="49.41807" lon="1.12006">
        <ele>80.5</ele>
        <time>2021-05-23T07:29:16Z</time>
      </trkpt>
      <trkpt lat="49.41804" lon="1.12007">
        <ele>81.3</ele>
        <time>2021-05-23T07:29:17Z</time>
      </trkpt>
      <trkpt lat="49.41802" lon="1.12009">
        <ele>82.1</ele>
        <time>2021-05-23T07:29:19Z</time>
      </trkpt>
      <trkpt lat="49.41799" lon="1.12012">
        <ele>82.9</ele>
        <time>2021-05-23T07:29:20Z</time>
      </trkpt>
      <trkpt lat="49.41796" lon="1.12014">
        <ele>83.7</ele>
        <time>2021-05-23T07:29:22Z</time>
      </trkpt>
      <trkpt lat="49.41792" lon="1.12017">
        <ele>84.5</ele>
        <time>2021-05-23T07:29:24Z</time>
      </trkpt>
      <trkpt lat="49.41788" lon="1.12019">
        <ele>85.1</ele>
        <time>2021-05-23T07:29:25Z</time>
      </trkpt>
      <trkpt lat="49.41785" lon="1.1202">
        <ele>85.5</ele>
        <time>2021-05-23T07:29:26Z</time>
      </trkpt>
      <trkpt lat="49.41783" lon="1.12021">
        <ele>85.9</ele>
        <time>2021-05-23T07:29:27Z</time>
      </trkpt>
      <trkpt lat="49.4178" lon="1.12022">
        <ele>86</ele>
        <time>2021-05-23T07:29:29Z</time>
      </trkpt>
      <trkpt lat="49.41776" lon="1.12023">
        <ele>85.9</ele>
        <time>2021-05-23T07:29:30Z</time>
      </trkpt>
      <trkpt lat="49.41774" lon="1.12025">
        <ele>85.6</ele>
        <time>2021-05-23T07:29:31Z</time>
      </trkpt>
      <trkpt lat="49.41771" lon="1.12025">
        <ele>85.3</ele>
        <time>2021-05-23T07:29:33Z</time>
      </trkpt>
      <trkpt lat="49.41768" lon="1.12026">
        <ele>84.8</ele>
        <time>2021-05-23T07:29:34Z</time>
      </trkpt>
      <trkpt lat="49.41764" lon="1.12028">
        <ele>84.3</ele>
        <time>2021-05-23T07:29:36Z</time>
      </trkpt>
      <trkpt lat="49.4176" lon="1.12029">
        <ele>83.6</ele>
        <time>2021-05-23T07:29:37Z</time>
      </trkpt>
      <trkpt lat="49.41756" lon="1.12031">
        <ele>83.1</ele>
        <time>2021-05-23T07:29:39Z</time>
      </trkpt>
      <trkpt lat="49.41755" lon="1.12032">
        <ele>82.5</ele>
        <time>2021-05-23T07:29:40Z</time>
      </trkpt>
      <trkpt lat="49.41753" lon="1.12034">
        <ele>82.1</ele>
        <time>2021-05-23T07:29:41Z</time>
      </trkpt>
      <trkpt lat="49.41751" lon="1.12035">
        <ele>81.7</ele>
        <time>2021-05-23T07:29:42Z</time>
      </trkpt>
      <trkpt lat="49.4175" lon="1.12036">
        <ele>81.5</ele>
        <time>2021-05-23T07:29:44Z</time>
      </trkpt>
      <trkpt lat="49.41747" lon="1.12038">
        <ele>81.3</ele>
        <time>2021-05-23T07:29:46Z</time>
      </trkpt>
      <trkpt lat="49.41746" lon="1.12039">
        <ele>81.2</ele>
        <time>2021-05-23T07:29:47Z</time>
      </trkpt>
      <trkpt lat="49.41743" lon="1.12041">
        <ele>81.1</ele>
        <time>2021-05-23T07:29:48Z</time>
      </trkpt>
      <trkpt lat="49.41739" lon="1.12043">
        <ele>81</ele>
        <time>2021-05-23T07:29:49Z</time>
      </trkpt>
      <trkpt lat="49.41738" lon="1.12044">
        <ele>81.1</ele>
        <time>2021-05-23T07:29:50Z</time>
      </trkpt>
      <trkpt lat="49.41735" lon="1.12046">
        <ele>81.2</ele>
        <time>2021-05-23T07:29:51Z</time>
      </trkpt>
      <trkpt lat="49.41732" lon="1.12049">
        <ele>81.4</ele>
        <time>2021-05-23T07:29:52Z</time>
      </trkpt>
      <trkpt lat="49.4173" lon="1.12049">
        <ele>81.5</ele>
        <time>2021-05-23T07:29:53Z</time>
      </trkpt>
      <trkpt lat="49.41729" lon="1.12051">
        <ele>81.8</ele>
        <time>2021-05-23T07:29:54Z</time>
      </trkpt>
      <trkpt lat="49.41728" lon="1.12053">
        <ele>82.1</ele>
        <time>2021-05-23T07:29:56Z</time>
      </trkpt>
      <trkpt lat="49.41724" lon="1.12058">
        <ele>82.4</ele>
        <time>2021-05-23T07:29:57Z</time>
      </trkpt>
      <trkpt lat="49.41722" lon="1.1206">
        <ele>82.6</ele>
        <time>2021-05-23T07:29:58Z</time>
      </trkpt>
      <trkpt lat="49.4172" lon="1.12063">
        <ele>82.9</ele>
        <time>2021-05-23T07:30:00Z</time>
      </trkpt>
      <trkpt lat="49.41717" lon="1.12068">
        <ele>83.2</ele>
        <time>2021-05-23T07:30:02Z</time>
      </trkpt>
      <trkpt lat="49.41715" lon="1.1207">
        <ele>83.4</ele>
        <time>2021-05-23T07:30:03Z</time>
      </trkpt>
      <trkpt lat="49.41714" lon="1.12071">
        <ele>83.4</ele>
        <time>2021-05-23T07:30:05Z</time>
      </trkpt>
      <trkpt lat="49.41713" lon="1.12073">
        <ele>83.4</ele>
        <time>2021-05-23T07:30:06Z</time>
      </trkpt>
      <trkpt lat="49.41711" lon="1.12075">
        <ele>83.3</ele>
        <time>2021-05-23T07:30:07Z</time>
      </trkpt>
      <trkpt lat="49.41707" lon="1.12077">
        <ele>83.2</ele>
        <time>2021-05-23T07:30:09Z</time>
      </trkpt>
      <trkpt lat="49.41702" lon="1.1208">
        <ele>82.9</ele>
        <time>2021-05-23T07:30:10Z</time>
      </trkpt>
      <trkpt lat="49.41699" lon="1.12082">
        <ele>82.6</ele>
        <time>2021-05-23T07:30:11Z</time>
      </trkpt>
      <trkpt lat="49.41695" lon="1.12086">
        <ele>82.4</ele>
        <time>2021-05-23T07:30:13Z</time>
      </trkpt>
      <trkpt lat="49.41691" lon="1.12089">
        <ele>82.1</ele>
        <time>2021-05-23T07:30:14Z</time>
      </trkpt>
      <trkpt lat="49.41687" lon="1.12093">
        <ele>81.9</ele>
        <time>2021-05-23T07:30:16Z</time>
      </trkpt>
      <trkpt lat="49.41683" lon="1.12096">
        <ele>81.7</ele>
        <time>2021-05-23T07:30:17Z</time>
      </trkpt>
      <trkpt lat="49.41681" lon="1.12099">
        <ele>81.7</ele>
        <time>2021-05-23T07:30:18Z</time>
      </trkpt>
      <trkpt lat="49.41678" lon="1.12103">
        <ele>81.9</ele>
        <time>2021-05-23T07:30:20Z</time>
      </trkpt>
      <trkpt lat="49.41677" lon="1.12104">
        <ele>82.2</ele>
        <time>2021-05-23T07:30:21Z</time>
      </trkpt>
      <trkpt lat="49.41676" lon="1.12108">
        <ele>82.5</ele>
        <time>2021-05-23T07:30:22Z</time>
      </trkpt>
      <trkpt lat="49.41674" lon="1.12112">
        <ele>82.8</ele>
        <time>2021-05-23T07:30:23Z</time>
      </trkpt>
      <trkpt lat="49.41672" lon="1.12116">
        <ele>83.3</ele>
        <time>2021-05-23T07:30:25Z</time>
      </trkpt>
      <trkpt lat="49.4167" lon="1.12122">
        <ele>83.7</ele>
        <time>2021-05-23T07:30:26Z</time>
      </trkpt>
      <trkpt lat="49.41667" lon="1.12125">
        <ele>84.3</ele>
        <time>2021-05-23T07:30:28Z</time>
      </trkpt>
      <trkpt lat="49.41666" lon="1.12127">
        <ele>84.8</ele>
        <time>2021-05-23T07:30:29Z</time>
      </trkpt>
      <trkpt lat="49.41664" lon="1.1213">
        <ele>85.4</ele>
        <time>2021-05-23T07:30:30Z</time>
      </trkpt>
      <trkpt lat="49.41662" lon="1.12134">
        <ele>85.9</ele>
        <time>2021-05-23T07:30:31Z</time>
      </trkpt>
      <trkpt lat="49.41661" lon="1.12136">
        <ele>86.5</ele>
        <time>2021-05-23T07:30:33Z</time>
      </trkpt>
      <trkpt lat="49.41659" lon="1.12138">
        <ele>86.9</ele>
        <time>2021-05-23T07:30:35Z</time>
      </trkpt>
      <trkpt lat="49.41658" lon="1.12142">
        <ele>87.3</ele>
        <time>2021-05-23T07:30:36Z</time>
      </trkpt>
      <trkpt lat="49.41657" lon="1.12145">
        <ele>87.6</ele>
        <time>2021-05-23T07:30:37Z</time>
      </trkpt>
      <trkpt lat="49.41655" lon="1.12148">
        <ele>88</ele>
        <time>2021-05-23T07:30:39Z</time>
      </trkpt>
      <trkpt lat="49.41653" lon="1.12152">
        <ele>88.4</ele>
        <time>2021-05-23T07:30:40Z</time>
      </trkpt>
      <trkpt lat="49.41652" lon="1.12154">
        <ele>88.8</ele>
        <time>2021-05-23T07:30:41Z</time>
      </trkpt>
      <trkpt lat="49.41649" lon="1.12158">
        <ele>89.2</ele>
        <time>2021-05-23T07:30:42Z</time>
      </trkpt>
      <trkpt lat="49.41648" lon="1.12159">
        <ele>89.5</ele>
        <time>2021-05-23T07:30:43Z</time>
      </trkpt>
      <trkpt lat="49.41647" lon="1.12162">
        <ele>89.8</ele>
        <time>2021-05-23T07:30:44Z</time>
      </trkpt>
      <trkpt lat="49.41646" lon="1.12166">
        <ele>90.1</ele>
        <time>2021-05-23T07:30:46Z</time>
      </trkpt>
      <trkpt lat="49.41644" lon="1.12171">
        <ele>90.3</ele>
        <time>2021-05-23T07:30:47Z</time>
      </trkpt>
      <trkpt lat="49.41643" lon="1.12172">
        <ele>90.5</ele>
        <time>2021-05-23T07:30:48Z</time>
      </trkpt>
      <trkpt lat="49.4164" lon="1.12177">
        <ele>90.6</ele>
        <time>2021-05-23T07:30:49Z</time>
      </trkpt>
      <trkpt lat="49.41638" lon="1.1218">
        <ele>90.8</ele>
        <time>2021-05-23T07:30:50Z</time>
      </trkpt>
      <trkpt lat="49.41635" lon="1.12186">
        <ele>91</ele>
        <time>2021-05-23T07:30:52Z</time>
      </trkpt>
      <trkpt lat="49.41633" lon="1.12189">
        <ele>91.2</ele>
        <time>2021-05-23T07:30:54Z</time>
      </trkpt>
      <trkpt lat="49.4163" lon="1.12194">
        <ele>91.3</ele>
        <time>2021-05-23T07:30:56Z</time>
      </trkpt>
      <trkpt lat="49.41629" lon="1.122">
        <ele>91.5</ele>
        <time>2021-05-23T07:30:57Z</time>
      </trkpt>
      <trkpt lat="49.41628" lon="1.12203">
        <ele>91.6</ele>
        <time>2021-05-23T07:30:58Z</time>
      </trkpt>
      <trkpt lat="49.41626" lon="1.1221">
        <ele>91.9</ele>
        <time>2021-05-23T07:31:00Z</time>
      </trkpt>
      <trkpt lat="49.41626" lon="1.12214">
        <ele>92.3</ele>
        <time>2021-05-23T07:31:01Z</time>
      </trkpt>
      <trkpt lat="49.41625" lon="1.12217">
        <ele>92.6</ele>
        <time>2021-05-23T07:31:02Z</time>
      </trkpt>
      <trkpt lat="49.41625" lon="1.12222">
        <ele>93.1</ele>
        <time>2021-05-23T07:31:03Z</time>
      </trkpt>
      <trkpt lat="49.41625" lon="1.12223">
        <ele>93.6</ele>
        <time>2021-05-23T07:31:04Z</time>
      </trkpt>
      <trkpt lat="49.41625" lon="1.1223">
        <ele>94.3</ele>
        <time>2021-05-23T07:31:06Z</time>
      </trkpt>
      <trkpt lat="49.41625" lon="1.12233">
        <ele>94.8</ele>
        <time>2021-05-23T07:31:07Z</time>
      </trkpt>
      <trkpt lat="49.41625" lon="1.12237">
        <ele>95.4</ele>
        <time>2021-05-23T07:31:08Z</time>
      </trkpt>
      <trkpt lat="49.41625" lon="1.12241">
        <ele>96</ele>
        <time>2021-05-23T07:31:09Z</time>
      </trkpt>
      <trkpt lat="49.41625" lon="1.12245">
        <ele>96.5</ele>
        <time>2021-05-23T07:31:11Z</time>
      </trkpt>
      <trkpt lat="49.41625" lon="1.1225">
        <ele>97.1</ele>
        <time>2021-05-23T07:31:12Z</time>
      </trkpt>
      <trkpt lat="49.41625" lon="1.12252">
        <ele>97.6</ele>
        <time>2021-05-23T07:31:13Z</time>
      </trkpt>
      <trkpt lat="49.41624" lon="1.12255">
        <ele>98.1</ele>
        <time>2021-05-23T07:31:14Z</time>
      </trkpt>
      <trkpt lat="49.41624" lon="1.1226">
        <ele>98.5</ele>
        <time>2021-05-23T07:31:16Z</time>
      </trkpt>
      <trkpt lat="49.41624" lon="1.12263">
        <ele>99</ele>
        <time>2021-05-23T07:31:17Z</time>
      </trkpt>
      <trkpt lat="49.41624" lon="1.12268">
        <ele>99.4</ele>
        <time>2021-05-23T07:31:19Z</time>
      </trkpt>
      <trkpt lat="49.41624" lon="1.12273">
        <ele>99.7</ele>
        <time>2021-05-23T07:31:20Z</time>
      </trkpt>
      <trkpt lat="49.41624" lon="1.12274">
        <ele>100.1</ele>
        <time>2021-05-23T07:31:22Z</time>
      </trkpt>
      <trkpt lat="49.41624" lon="1.12279">
        <ele>100.5</ele>
        <time>2021-05-23T07:31:23Z</time>
      </trkpt>
      <trkpt lat="49.41624" lon="1.1228">
        <ele>100.9</ele>
        <time>2021-05-23T07:31:24Z</time>
      </trkpt>
      <trkpt lat="49.41624" lon="1.12283">
        <ele>101.4</ele>
        <time>2021-05-23T07:31:25Z</time>
      </trkpt>
      <trkpt lat="49.41625" lon="1.12289">
        <ele>101.8</ele>
        <time>2021-05-23T07:31:27Z</time>
      </trkpt>
      <trkpt lat="49.41625" lon="1.12292">
        <ele>102.2</ele>
        <time>2021-05-23T07:31:28Z</time>
      </trkpt>
      <trkpt lat="49.41626" lon="1.12296">
        <ele>102.5</ele>
        <time>2021-05-23T07:31:31Z</time>
      </trkpt>
      <trkpt lat="49.41626" lon="1.123">
        <ele>102.9</ele>
        <time>2021-05-23T07:31:32Z</time>
      </trkpt>
      <trkpt lat="49.41626" lon="1.12301">
        <ele>103.3</ele>
        <time>2021-05-23T07:31:34Z</time>
      </trkpt>
      <trkpt lat="49.41626" lon="1.12302">
        <ele>103.6</ele>
        <time>2021-05-23T07:31:35Z</time>
      </trkpt>
      <trkpt lat="49.41626" lon="1.12302">
        <ele>104</ele>
        <time>2021-05-23T07:31:36Z</time>
      </trkpt>
      <trkpt lat="49.41626" lon="1.12301">
        <ele>104.4</ele>
        <time>2021-05-23T07:31:38Z</time>
      </trkpt>
      <trkpt lat="49.41627" lon="1.12305">
        <ele>104.8</ele>
        <time>2021-05-23T07:31:39Z</time>
      </trkpt>
      <trkpt lat="49.41627" lon="1.12311">
        <ele>105.4</ele>
        <time>2021-05-23T07:31:41Z</time>
      </trkpt>
      <trkpt lat="49.41628" lon="1.12321">
        <ele>105.9</ele>
        <time>2021-05-23T07:31:42Z</time>
      </trkpt>
      <trkpt lat="49.41628" lon="1.12329">
        <ele>106.5</ele>
        <time>2021-05-23T07:31:43Z</time>
      </trkpt>
      <trkpt lat="49.41629" lon="1.12336">
        <ele>107.1</ele>
        <time>2021-05-23T07:31:44Z</time>
      </trkpt>
      <trkpt lat="49.4163" lon="1.12343">
        <ele>107.8</ele>
        <time>2021-05-23T07:31:45Z</time>
      </trkpt>
      <trkpt lat="49.41631" lon="1.12351">
        <ele>108.5</ele>
        <time>2021-05-23T07:31:47Z</time>
      </trkpt>
      <trkpt lat="49.41631" lon="1.12356">
        <ele>109.3</ele>
        <time>2021-05-23T07:31:48Z</time>
      </trkpt>
      <trkpt lat="49.41631" lon="1.12364">
        <ele>110</ele>
        <time>2021-05-23T07:31:49Z</time>
      </trkpt>
      <trkpt lat="49.41631" lon="1.12371">
        <ele>110.7</ele>
        <time>2021-05-23T07:31:51Z</time>
      </trkpt>
      <trkpt lat="49.41631" lon="1.12376">
        <ele>111.5</ele>
        <time>2021-05-23T07:31:52Z</time>
      </trkpt>
      <trkpt lat="49.41631" lon="1.12384">
        <ele>112</ele>
        <time>2021-05-23T07:31:54Z</time>
      </trkpt>
      <trkpt lat="49.41631" lon="1.12389">
        <ele>112.5</ele>
        <time>2021-05-23T07:31:55Z</time>
      </trkpt>
      <trkpt lat="49.41631" lon="1.12396">
        <ele>113</ele>
        <time>2021-05-23T07:31:57Z</time>
      </trkpt>
      <trkpt lat="49.41631" lon="1.12402">
        <ele>113.5</ele>
        <time>2021-05-23T07:31:58Z</time>
      </trkpt>
      <trkpt lat="49.41631" lon="1.12404">
        <ele>113.8</ele>
        <time>2021-05-23T07:31:59Z</time>
      </trkpt>
      <trkpt lat="49.41632" lon="1.12409">
        <ele>114.1</ele>
        <time>2021-05-23T07:32:00Z</time>
      </trkpt>
      <trkpt lat="49.41633" lon="1.12413">
        <ele>114.4</ele>
        <time>2021-05-23T07:32:01Z</time>
      </trkpt>
      <trkpt lat="49.41633" lon="1.12416">
        <ele>114.5</ele>
        <time>2021-05-23T07:32:03Z</time>
      </trkpt>
      <trkpt lat="49.41633" lon="1.12421">
        <ele>114.7</ele>
        <time>2021-05-23T07:32:04Z</time>
      </trkpt>
      <trkpt lat="49.41634" lon="1.12427">
        <ele>114.8</ele>
        <time>2021-05-23T07:32:05Z</time>
      </trkpt>
      <trkpt lat="49.41634" lon="1.12433">
        <ele>114.9</ele>
        <time>2021-05-23T07:32:06Z</time>
      </trkpt>
      <trkpt lat="49.41634" lon="1.12438">
        <ele>115</ele>
        <time>2021-05-23T07:32:08Z</time>
      </trkpt>
      <trkpt lat="49.41634" lon="1.1244">
        <ele>115</ele>
        <time>2021-05-23T07:32:09Z</time>
      </trkpt>
      <trkpt lat="49.41635" lon="1.12444">
        <ele>115</ele>
        <time>2021-05-23T07:32:10Z</time>
      </trkpt>
      <trkpt lat="49.41635" lon="1.12449">
        <ele>115</ele>
        <time>2021-05-23T07:32:12Z</time>
      </trkpt>
      <trkpt lat="49.41635" lon="1.12456">
        <ele>115</ele>
        <time>2021-05-23T07:32:13Z</time>
      </trkpt>
      <trkpt lat="49.41635" lon="1.1246">
        <ele>115</ele>
        <time>2021-05-23T07:32:14Z</time>
      </trkpt>
      <trkpt lat="49.41635" lon="1.12466">
        <ele>115.2</ele>
        <time>2021-05-23T07:32:16Z</time>
      </trkpt>
      <trkpt lat="49.41636" lon="1.12469">
        <ele>115.5</ele>
        <time>2021-05-23T07:32:17Z</time>
      </trkpt>
      <trkpt lat="49.41636" lon="1.12474">
        <ele>115.7</ele>
        <time>2021-05-23T07:32:19Z</time>
      </trkpt>
      <trkpt lat="49.41635" lon="1.12479">
        <ele>116</ele>
        <time>2021-05-23T07:32:20Z</time>
      </trkpt>
      <trkpt lat="49.41636" lon="1.12482">
        <ele>116.2</ele>
        <time>2021-05-23T07:32:22Z</time>
      </trkpt>
      <trkpt lat="49.41639" lon="1.12488">
        <ele>116.4</ele>
        <time>2021-05-23T07:32:24Z</time>
      </trkpt>
      <trkpt lat="49.41641" lon="1.12494">
        <ele>116.5</ele>
        <time>2021-05-23T07:32:26Z</time>
      </trkpt>
      <trkpt lat="49.41641" lon="1.12497">
        <ele>116.5</ele>
        <time>2021-05-23T07:32:27Z</time>
      </trkpt>
      <trkpt lat="49.41641" lon="1.12504">
        <ele>116.6</ele>
        <time>2021-05-23T07:32:29Z</time>
      </trkpt>
      <trkpt lat="49.4164" lon="1.12508">
        <ele>116.8</ele>
        <time>2021-05-23T07:32:30Z</time>
      </trkpt>
      <trkpt lat="49.4164" lon="1.12514">
        <ele>117</ele>
        <time>2021-05-23T07:32:31Z</time>
      </trkpt>
      <trkpt lat="49.4164" lon="1.12518">
        <ele>117.1</ele>
        <time>2021-05-23T07:32:32Z</time>
      </trkpt>
      <trkpt lat="49.41641" lon="1.12525">
        <ele>117.1</ele>
        <time>2021-05-23T07:32:34Z</time>
      </trkpt>
      <trkpt lat="49.41641" lon="1.12528">
        <ele>117.2</ele>
        <time>2021-05-23T07:32:35Z</time>
      </trkpt>
      <trkpt lat="49.41642" lon="1.12532">
        <ele>117.3</ele>
        <time>2021-05-23T07:32:37Z</time>
      </trkpt>
      <trkpt lat="49.41643" lon="1.12536">
        <ele>117.5</ele>
        <time>2021-05-23T07:32:38Z</time>
      </trkpt>
      <trkpt lat="49.41644" lon="1.12542">
        <ele>117.7</ele>
        <time>2021-05-23T07:32:39Z</time>
      </trkpt>
      <trkpt lat="49.41645" lon="1.12544">
        <ele>118.1</ele>
        <time>2021-05-23T07:32:40Z</time>
      </trkpt>
      <trkpt lat="49.41647" lon="1.1255">
        <ele>118.5</ele>
        <time>2021-05-23T07:32:42Z</time>
      </trkpt>
      <trkpt lat="49.41647" lon="1.12556">
        <ele>118.8</ele>
        <time>2021-05-23T07:32:43Z</time>
      </trkpt>
      <trkpt lat="49.41647" lon="1.12558">
        <ele>119.2</ele>
        <time>2021-05-23T07:32:44Z</time>
      </trkpt>
      <trkpt lat="49.41648" lon="1.12562">
        <ele>119.5</ele>
        <time>2021-05-23T07:32:46Z</time>
      </trkpt>
      <trkpt lat="49.41649" lon="1.12568">
        <ele>119.8</ele>
        <time>2021-05-23T07:32:47Z</time>
      </trkpt>
      <trkpt lat="49.4165" lon="1.12573">
        <ele>120.2</ele>
        <time>2021-05-23T07:32:49Z</time>
      </trkpt>
      <trkpt lat="49.4165" lon="1.12575">
        <ele>120.5</ele>
        <time>2021-05-23T07:32:50Z</time>
      </trkpt>
      <trkpt lat="49.41651" lon="1.1258">
        <ele>120.8</ele>
        <time>2021-05-23T07:32:51Z</time>
      </trkpt>
      <trkpt lat="49.41652" lon="1.12583">
        <ele>121.2</ele>
        <time>2021-05-23T07:32:52Z</time>
      </trkpt>
      <trkpt lat="49.41653" lon="1.12587">
        <ele>121.6</ele>
        <time>2021-05-23T07:32:54Z</time>
      </trkpt>
      <trkpt lat="49.41655" lon="1.12592">
        <ele>122.3</ele>
        <time>2021-05-23T07:32:55Z</time>
      </trkpt>
      <trkpt lat="49.41656" lon="1.12595">
        <ele>123</ele>
        <time>2021-05-23T07:32:56Z</time>
      </trkpt>
      <trkpt lat="49.41658" lon="1.12597">
        <ele>123.8</ele>
        <time>2021-05-23T07:32:57Z</time>
      </trkpt>
      <trkpt lat="49.41659" lon="1.12599">
        <ele>124.6</ele>
        <time>2021-05-23T07:32:59Z</time>
      </trkpt>
      <trkpt lat="49.41662" lon="1.12603">
        <ele>125.5</ele>
        <time>2021-05-23T07:33:01Z</time>
      </trkpt>
      <trkpt lat="49.41666" lon="1.12604">
        <ele>126.3</ele>
        <time>2021-05-23T07:33:03Z</time>
      </trkpt>
      <trkpt lat="49.41666" lon="1.12605">
        <ele>127.1</ele>
        <time>2021-05-23T07:33:04Z</time>
      </trkpt>
      <trkpt lat="49.41669" lon="1.12608">
        <ele>127.9</ele>
        <time>2021-05-23T07:33:05Z</time>
      </trkpt>
      <trkpt lat="49.41672" lon="1.1261">
        <ele>128.7</ele>
        <time>2021-05-23T07:33:06Z</time>
      </trkpt>
      <trkpt lat="49.41674" lon="1.12613">
        <ele>129.5</ele>
        <time>2021-05-23T07:33:08Z</time>
      </trkpt>
      <trkpt lat="49.41677" lon="1.12616">
        <ele>130.2</ele>
        <time>2021-05-23T07:33:09Z</time>
      </trkpt>
      <trkpt lat="49.41679" lon="1.1262">
        <ele>130.6</ele>
        <time>2021-05-23T07:33:10Z</time>
      </trkpt>
      <trkpt lat="49.4168" lon="1.12621">
        <ele>131</ele>
        <time>2021-05-23T07:33:11Z</time>
      </trkpt>
      <trkpt lat="49.41683" lon="1.12624">
        <ele>131.3</ele>
        <time>2021-05-23T07:33:12Z</time>
      </trkpt>
      <trkpt lat="49.41685" lon="1.12627">
        <ele>131.5</ele>
        <time>2021-05-23T07:33:13Z</time>
      </trkpt>
      <trkpt lat="49.41686" lon="1.12629">
        <ele>131.7</ele>
        <time>2021-05-23T07:33:15Z</time>
      </trkpt>
      <trkpt lat="49.41687" lon="1.12631">
        <ele>132</ele>
        <time>2021-05-23T07:33:16Z</time>
      </trkpt>
      <trkpt lat="49.41687" lon="1.12633">
        <ele>132.2</ele>
        <time>2021-05-23T07:33:18Z</time>
      </trkpt>
      <trkpt lat="49.41687" lon="1.12635">
        <ele>132.5</ele>
        <time>2021-05-23T07:33:19Z</time>
      </trkpt>
      <trkpt lat="49.41688" lon="1.12637">
        <ele>132.6</ele>
        <time>2021-05-23T07:33:21Z</time>
      </trkpt>
      <trkpt lat="49.41689" lon="1.12638">
        <ele>132.8</ele>
        <time>2021-05-23T07:33:22Z</time>
      </trkpt>
      <trkpt lat="49.4169" lon="1.12639">
        <ele>133</ele>
        <time>2021-05-23T07:33:23Z</time>
      </trkpt>
      <trkpt lat="49.41691" lon="1.12641">
        <ele>133.2</ele>
        <time>2021-05-23T07:33:24Z</time>
      </trkpt>
      <trkpt lat="49.41691" lon="1.12642">
        <ele>133.4</ele>
        <time>2021-05-23T07:33:26Z</time>
      </trkpt>
      <trkpt lat="49.41692" lon="1.12643">
        <ele>133.5</ele>
        <time>2021-05-23T07:33:27Z</time>
      </trkpt>
      <trkpt lat="49.41692" lon="1.12643">
        <ele>133.7</ele>
        <time>2021-05-23T07:33:28Z</time>
      </trkpt>
      <trkpt lat="49.41692" lon="1.12644">
        <ele>133.9</ele>
        <time>2021-05-23T07:33:29Z</time>
      </trkpt>
      <trkpt lat="49.41692" lon="1.12645">
        <ele>134.1</ele>
        <time>2021-05-23T07:33:30Z</time>
      </trkpt>
      <trkpt lat="49.41693" lon="1.12645">
        <ele>134.3</ele>
        <time>2021-05-23T07:33:31Z</time>
      </trkpt>
      <trkpt lat="49.41693" lon="1.12645">
        <ele>134.5</ele>
        <time>2021-05-23T07:33:33Z</time>
      </trkpt>
      <trkpt lat="49.41693" lon="1.12645">
        <ele>134.6</ele>
        <time>2021-05-23T07:33:34Z</time>
      </trkpt>
      <trkpt lat="49.41694" lon="1.12645">
        <ele>134.8</ele>
        <time>2021-05-23T07:33:36Z</time>
      </trkpt>
      <trkpt lat="49.41695" lon="1.12646">
        <ele>135</ele>
        <time>2021-05-23T07:33:37Z</time>
      </trkpt>
      <trkpt lat="49.41696" lon="1.12646">
        <ele>135.2</ele>
        <time>2021-05-23T07:33:38Z</time>
      </trkpt>
      <trkpt lat="49.41696" lon="1.12646">
        <ele>135.5</ele>
        <time>2021-05-23T07:33:39Z</time>
      </trkpt>
      <trkpt lat="49.41696" lon="1.12646">
        <ele>135.7</ele>
        <time>2021-05-23T07:33:41Z</time>
      </trkpt>
      <trkpt lat="49.41698" lon="1.12647">
        <ele>136</ele>
        <time>2021-05-23T07:33:42Z</time>
      </trkpt>
      <trkpt lat="49.41699" lon="1.12649">
        <ele>136.2</ele>
        <time>2021-05-23T07:33:44Z</time>
      </trkpt>
      <trkpt lat="49.417" lon="1.1265">
        <ele>136.5</ele>
        <time>2021-05-23T07:33:46Z</time>
      </trkpt>
      <trkpt lat="49.41701" lon="1.1265">
        <ele>136.8</ele>
        <time>2021-05-23T07:33:47Z</time>
      </trkpt>
      <trkpt lat="49.41702" lon="1.1265">
        <ele>137.1</ele>
        <time>2021-05-23T07:33:48Z</time>
      </trkpt>
      <trkpt lat="49.41703" lon="1.1265">
        <ele>137.5</ele>
        <time>2021-05-23T07:33:51Z</time>
      </trkpt>
      <trkpt lat="49.41703" lon="1.12651">
        <ele>137.9</ele>
        <time>2021-05-23T07:33:53Z</time>
      </trkpt>
      <trkpt lat="49.41707" lon="1.12655">
        <ele>138.4</ele>
        <time>2021-05-23T07:34:03Z</time>
      </trkpt>
      <trkpt lat="49.41709" lon="1.12658">
        <ele>138.8</ele>
        <time>2021-05-23T07:34:05Z</time>
      </trkpt>
      <trkpt lat="49.41712" lon="1.1266">
        <ele>139.2</ele>
        <time>2021-05-23T07:34:06Z</time>
      </trkpt>
      <trkpt lat="49.41714" lon="1.12663">
        <ele>139.5</ele>
        <time>2021-05-23T07:34:08Z</time>
      </trkpt>
      <trkpt lat="49.41716" lon="1.12667">
        <ele>139.9</ele>
        <time>2021-05-23T07:34:09Z</time>
      </trkpt>
      <trkpt lat="49.41718" lon="1.12672">
        <ele>140.2</ele>
        <time>2021-05-23T07:34:11Z</time>
      </trkpt>
      <trkpt lat="49.41719" lon="1.12677">
        <ele>140.4</ele>
        <time>2021-05-23T07:34:12Z</time>
      </trkpt>
      <trkpt lat="49.41719" lon="1.1268">
        <ele>140.5</ele>
        <time>2021-05-23T07:34:13Z</time>
      </trkpt>
      <trkpt lat="49.4172" lon="1.12684">
        <ele>140.5</ele>
        <time>2021-05-23T07:34:15Z</time>
      </trkpt>
      <trkpt lat="49.4172" lon="1.12689">
        <ele>140.5</ele>
        <time>2021-05-23T07:34:16Z</time>
      </trkpt>
      <trkpt lat="49.4172" lon="1.12691">
        <ele>140.4</ele>
        <time>2021-05-23T07:34:17Z</time>
      </trkpt>
      <trkpt lat="49.41721" lon="1.12697">
        <ele>140.1</ele>
        <time>2021-05-23T07:34:18Z</time>
      </trkpt>
      <trkpt lat="49.41721" lon="1.12699">
        <ele>139.8</ele>
        <time>2021-05-23T07:34:19Z</time>
      </trkpt>
      <trkpt lat="49.4172" lon="1.12704">
        <ele>139.5</ele>
        <time>2021-05-23T07:34:21Z</time>
      </trkpt>
      <trkpt lat="49.41719" lon="1.1271">
        <ele>139.2</ele>
        <time>2021-05-23T07:34:22Z</time>
      </trkpt>
      <trkpt lat="49.41717" lon="1.12715">
        <ele>138.8</ele>
        <time>2021-05-23T07:34:24Z</time>
      </trkpt>
      <trkpt lat="49.41715" lon="1.12719">
        <ele>138.5</ele>
        <time>2021-05-23T07:34:25Z</time>
      </trkpt>
      <trkpt lat="49.41713" lon="1.12723">
        <ele>138</ele>
        <time>2021-05-23T07:34:26Z</time>
      </trkpt>
      <trkpt lat="49.41711" lon="1.1273">
        <ele>137.5</ele>
        <time>2021-05-23T07:34:28Z</time>
      </trkpt>
      <trkpt lat="49.41708" lon="1.12736">
        <ele>137.1</ele>
        <time>2021-05-23T07:34:30Z</time>
      </trkpt>
      <trkpt lat="49.41705" lon="1.12742">
        <ele>136.5</ele>
        <time>2021-05-23T07:34:31Z</time>
      </trkpt>
      <trkpt lat="49.41699" lon="1.12751">
        <ele>136.1</ele>
        <time>2021-05-23T07:34:32Z</time>
      </trkpt>
      <trkpt lat="49.41696" lon="1.12757">
        <ele>135.6</ele>
        <time>2021-05-23T07:34:34Z</time>
      </trkpt>
      <trkpt lat="49.41693" lon="1.12762">
        <ele>135.2</ele>
        <time>2021-05-23T07:34:35Z</time>
      </trkpt>
      <trkpt lat="49.4169" lon="1.12769">
        <ele>134.7</ele>
        <time>2021-05-23T07:34:36Z</time>
      </trkpt>
      <trkpt lat="49.41688" lon="1.12773">
        <ele>134.4</ele>
        <time>2021-05-23T07:34:38Z</time>
      </trkpt>
      <trkpt lat="49.41686" lon="1.12779">
        <ele>134</ele>
        <time>2021-05-23T07:34:39Z</time>
      </trkpt>
      <trkpt lat="49.41684" lon="1.12783">
        <ele>133.7</ele>
        <time>2021-05-23T07:34:41Z</time>
      </trkpt>
      <trkpt lat="49.41682" lon="1.12787">
        <ele>133.5</ele>
        <time>2021-05-23T07:34:42Z</time>
      </trkpt>
      <trkpt lat="49.41681" lon="1.12792">
        <ele>133.4</ele>
        <time>2021-05-23T07:34:43Z</time>
      </trkpt>
      <trkpt lat="49.41679" lon="1.12797">
        <ele>133.2</ele>
        <time>2021-05-23T07:34:44Z</time>
      </trkpt>
      <trkpt lat="49.41677" lon="1.12807">
        <ele>133.1</ele>
        <time>2021-05-23T07:34:46Z</time>
      </trkpt>
      <trkpt lat="49.41677" lon="1.12811">
        <ele>133</ele>
        <time>2021-05-23T07:34:47Z</time>
      </trkpt>
      <trkpt lat="49.41675" lon="1.12819">
        <ele>133</ele>
        <time>2021-05-23T07:34:49Z</time>
      </trkpt>
      <trkpt lat="49.41674" lon="1.12824">
        <ele>133</ele>
        <time>2021-05-23T07:34:50Z</time>
      </trkpt>
      <trkpt lat="49.41674" lon="1.12831">
        <ele>133</ele>
        <time>2021-05-23T07:34:52Z</time>
      </trkpt>
      <trkpt lat="49.41672" lon="1.1284">
        <ele>133</ele>
        <time>2021-05-23T07:34:53Z</time>
      </trkpt>
      <trkpt lat="49.41672" lon="1.12845">
        <ele>133</ele>
        <time>2021-05-23T07:34:54Z</time>
      </trkpt>
      <trkpt lat="49.4167" lon="1.12863">
        <ele>133.1</ele>
        <time>2021-05-23T07:34:56Z</time>
      </trkpt>
      <trkpt lat="49.41669" lon="1.12876">
        <ele>133.2</ele>
        <time>2021-05-23T07:34:57Z</time>
      </trkpt>
      <trkpt lat="49.41668" lon="1.12887">
        <ele>133.4</ele>
        <time>2021-05-23T07:34:59Z</time>
      </trkpt>
      <trkpt lat="49.41667" lon="1.12896">
        <ele>133.6</ele>
        <time>2021-05-23T07:35:00Z</time>
      </trkpt>
      <trkpt lat="49.41665" lon="1.1291">
        <ele>134</ele>
        <time>2021-05-23T07:35:01Z</time>
      </trkpt>
      <trkpt lat="49.41665" lon="1.12917">
        <ele>134.4</ele>
        <time>2021-05-23T07:35:03Z</time>
      </trkpt>
      <trkpt lat="49.41664" lon="1.12925">
        <ele>134.8</ele>
        <time>2021-05-23T07:35:04Z</time>
      </trkpt>
      <trkpt lat="49.41664" lon="1.12932">
        <ele>135.5</ele>
        <time>2021-05-23T07:35:05Z</time>
      </trkpt>
      <trkpt lat="49.41664" lon="1.12939">
        <ele>136.1</ele>
        <time>2021-05-23T07:35:06Z</time>
      </trkpt>
      <trkpt lat="49.41664" lon="1.12945">
        <ele>136.8</ele>
        <time>2021-05-23T07:35:07Z</time>
      </trkpt>
      <trkpt lat="49.41663" lon="1.12951">
        <ele>137.6</ele>
        <time>2021-05-23T07:35:08Z</time>
      </trkpt>
      <trkpt lat="49.41663" lon="1.12962">
        <ele>138.5</ele>
        <time>2021-05-23T07:35:10Z</time>
      </trkpt>
      <trkpt lat="49.41662" lon="1.12973">
        <ele>139.3</ele>
        <time>2021-05-23T07:35:12Z</time>
      </trkpt>
      <trkpt lat="49.41662" lon="1.12981">
        <ele>140</ele>
        <time>2021-05-23T07:35:13Z</time>
      </trkpt>
      <trkpt lat="49.41662" lon="1.12988">
        <ele>140.6</ele>
        <time>2021-05-23T07:35:14Z</time>
      </trkpt>
      <trkpt lat="49.41662" lon="1.12996">
        <ele>141.3</ele>
        <time>2021-05-23T07:35:16Z</time>
      </trkpt>
      <trkpt lat="49.41663" lon="1.13002">
        <ele>141.9</ele>
        <time>2021-05-23T07:35:17Z</time>
      </trkpt>
      <trkpt lat="49.41663" lon="1.13005">
        <ele>142.5</ele>
        <time>2021-05-23T07:35:18Z</time>
      </trkpt>
      <trkpt lat="49.41663" lon="1.13008">
        <ele>142.9</ele>
        <time>2021-05-23T07:35:20Z</time>
      </trkpt>
      <trkpt lat="49.41663" lon="1.13011">
        <ele>143.4</ele>
        <time>2021-05-23T07:35:21Z</time>
      </trkpt>
      <trkpt lat="49.41664" lon="1.1302">
        <ele>143.8</ele>
        <time>2021-05-23T07:35:23Z</time>
      </trkpt>
      <trkpt lat="49.41665" lon="1.1303">
        <ele>144.2</ele>
        <time>2021-05-23T07:35:24Z</time>
      </trkpt>
      <trkpt lat="49.41666" lon="1.13041">
        <ele>144.5</ele>
        <time>2021-05-23T07:35:25Z</time>
      </trkpt>
      <trkpt lat="49.41666" lon="1.13052">
        <ele>144.7</ele>
        <time>2021-05-23T07:35:26Z</time>
      </trkpt>
      <trkpt lat="49.41666" lon="1.13061">
        <ele>145</ele>
        <time>2021-05-23T07:35:28Z</time>
      </trkpt>
      <trkpt lat="49.41667" lon="1.13073">
        <ele>145.3</ele>
        <time>2021-05-23T07:35:30Z</time>
      </trkpt>
      <trkpt lat="49.41668" lon="1.13081">
        <ele>145.5</ele>
        <time>2021-05-23T07:35:32Z</time>
      </trkpt>
      <trkpt lat="49.41669" lon="1.13087">
        <ele>145.6</ele>
        <time>2021-05-23T07:35:33Z</time>
      </trkpt>
      <trkpt lat="49.41671" lon="1.13097">
        <ele>145.8</ele>
        <time>2021-05-23T07:35:35Z</time>
      </trkpt>
      <trkpt lat="49.41676" lon="1.13098">
        <ele>145.9</ele>
        <time>2021-05-23T07:35:37Z</time>
      </trkpt>
      <trkpt lat="49.41678" lon="1.13098">
        <ele>146</ele>
        <time>2021-05-23T07:35:38Z</time>
      </trkpt>
      <trkpt lat="49.41679" lon="1.13097">
        <ele>146</ele>
        <time>2021-05-23T07:35:39Z</time>
      </trkpt>
      <trkpt lat="49.4168" lon="1.13091">
        <ele>146</ele>
        <time>2021-05-23T07:35:41Z</time>
      </trkpt>
      <trkpt lat="49.41681" lon="1.13088">
        <ele>146.1</ele>
        <time>2021-05-23T07:35:42Z</time>
      </trkpt>
      <trkpt lat="49.41686" lon="1.13082">
        <ele>146.2</ele>
        <time>2021-05-23T07:35:43Z</time>
      </trkpt>
      <trkpt lat="49.41691" lon="1.13077">
        <ele>146.4</ele>
        <time>2021-05-23T07:35:44Z</time>
      </trkpt>
      <trkpt lat="49.41695" lon="1.13072">
        <ele>146.5</ele>
        <time>2021-05-23T07:35:46Z</time>
      </trkpt>
      <trkpt lat="49.41699" lon="1.13068">
        <ele>146.7</ele>
        <time>2021-05-23T07:35:47Z</time>
      </trkpt>
      <trkpt lat="49.41702" lon="1.13063">
        <ele>147</ele>
        <time>2021-05-23T07:35:49Z</time>
      </trkpt>
      <trkpt lat="49.41706" lon="1.13059">
        <ele>147.3</ele>
        <time>2021-05-23T07:35:50Z</time>
      </trkpt>
      <trkpt lat="49.41716" lon="1.13046">
        <ele>147.5</ele>
        <time>2021-05-23T07:35:51Z</time>
      </trkpt>
      <trkpt lat="49.41722" lon="1.13039">
        <ele>147.9</ele>
        <time>2021-05-23T07:35:53Z</time>
      </trkpt>
      <trkpt lat="49.41729" lon="1.1303">
        <ele>148.3</ele>
        <time>2021-05-23T07:35:55Z</time>
      </trkpt>
      <trkpt lat="49.41733" lon="1.13026">
        <ele>148.6</ele>
        <time>2021-05-23T07:35:56Z</time>
      </trkpt>
      <trkpt lat="49.41737" lon="1.1302">
        <ele>148.9</ele>
        <time>2021-05-23T07:35:57Z</time>
      </trkpt>
      <trkpt lat="49.4174" lon="1.13014">
        <ele>149.2</ele>
        <time>2021-05-23T07:35:58Z</time>
      </trkpt>
      <trkpt lat="49.41743" lon="1.1301">
        <ele>149.4</ele>
        <time>2021-05-23T07:36:00Z</time>
      </trkpt>
      <trkpt lat="49.41746" lon="1.13006">
        <ele>149.5</ele>
        <time>2021-05-23T07:36:01Z</time>
      </trkpt>
      <trkpt lat="49.41749" lon="1.13002">
        <ele>149.7</ele>
        <time>2021-05-23T07:36:02Z</time>
      </trkpt>
      <trkpt lat="49.41752" lon="1.12998">
        <ele>149.8</ele>
        <time>2021-05-23T07:36:03Z</time>
      </trkpt>
      <trkpt lat="49.41754" lon="1.12994">
        <ele>149.9</ele>
        <time>2021-05-23T07:36:04Z</time>
      </trkpt>
      <trkpt lat="49.41757" lon="1.12988">
        <ele>150</ele>
        <time>2021-05-23T07:36:06Z</time>
      </trkpt>
      <trkpt lat="49.4176" lon="1.12984">
        <ele>149.9</ele>
        <time>2021-05-23T07:36:07Z</time>
      </trkpt>
      <trkpt lat="49.41762" lon="1.1298">
        <ele>149.8</ele>
        <time>2021-05-23T07:36:08Z</time>
      </trkpt>
      <trkpt lat="49.41767" lon="1.12974">
        <ele>149.7</ele>
        <time>2021-05-23T07:36:09Z</time>
      </trkpt>
      <trkpt lat="49.41772" lon="1.12968">
        <ele>149.6</ele>
        <time>2021-05-23T07:36:10Z</time>
      </trkpt>
      <trkpt lat="49.41775" lon="1.12963">
        <ele>149.5</ele>
        <time>2021-05-23T07:36:12Z</time>
      </trkpt>
      <trkpt lat="49.41781" lon="1.12952">
        <ele>149.5</ele>
        <time>2021-05-23T07:36:14Z</time>
      </trkpt>
      <trkpt lat="49.41786" lon="1.12943">
        <ele>149.4</ele>
        <time>2021-05-23T07:36:15Z</time>
      </trkpt>
      <trkpt lat="49.41789" lon="1.12935">
        <ele>149.3</ele>
        <time>2021-05-23T07:36:18Z</time>
      </trkpt>
      <trkpt lat="49.41794" lon="1.12923">
        <ele>149.2</ele>
        <time>2021-05-23T07:36:20Z</time>
      </trkpt>
      <trkpt lat="49.41797" lon="1.12917">
        <ele>149.1</ele>
        <time>2021-05-23T07:36:21Z</time>
      </trkpt>
      <trkpt lat="49.41799" lon="1.12911">
        <ele>148.9</ele>
        <time>2021-05-23T07:36:22Z</time>
      </trkpt>
      <trkpt lat="49.41802" lon="1.12904">
        <ele>148.8</ele>
        <time>2021-05-23T07:36:23Z</time>
      </trkpt>
      <trkpt lat="49.41807" lon="1.1289">
        <ele>148.7</ele>
        <time>2021-05-23T07:36:25Z</time>
      </trkpt>
      <trkpt lat="49.41809" lon="1.12884">
        <ele>148.6</ele>
        <time>2021-05-23T07:36:26Z</time>
      </trkpt>
      <trkpt lat="49.41812" lon="1.12878">
        <ele>148.5</ele>
        <time>2021-05-23T07:36:27Z</time>
      </trkpt>
      <trkpt lat="49.41818" lon="1.12866">
        <ele>148.5</ele>
        <time>2021-05-23T07:36:29Z</time>
      </trkpt>
      <trkpt lat="49.41823" lon="1.12853">
        <ele>148.4</ele>
        <time>2021-05-23T07:36:31Z</time>
      </trkpt>
      <trkpt lat="49.41826" lon="1.12847">
        <ele>148.3</ele>
        <time>2021-05-23T07:36:32Z</time>
      </trkpt>
      <trkpt lat="49.41829" lon="1.1284">
        <ele>148.2</ele>
        <time>2021-05-23T07:36:33Z</time>
      </trkpt>
      <trkpt lat="49.41834" lon="1.12827">
        <ele>148.1</ele>
        <time>2021-05-23T07:36:35Z</time>
      </trkpt>
      <trkpt lat="49.41838" lon="1.12816">
        <ele>148.1</ele>
        <time>2021-05-23T07:36:37Z</time>
      </trkpt>
      <trkpt lat="49.41839" lon="1.12809">
        <ele>148.2</ele>
        <time>2021-05-23T07:36:38Z</time>
      </trkpt>
      <trkpt lat="49.41842" lon="1.12794">
        <ele>148.3</ele>
        <time>2021-05-23T07:36:40Z</time>
      </trkpt>
      <trkpt lat="49.41844" lon="1.12787">
        <ele>148.4</ele>
        <time>2021-05-23T07:36:41Z</time>
      </trkpt>
      <trkpt lat="49.41846" lon="1.12781">
        <ele>148.5</ele>
        <time>2021-05-23T07:36:42Z</time>
      </trkpt>
      <trkpt lat="49.41848" lon="1.12774">
        <ele>148.5</ele>
        <time>2021-05-23T07:36:43Z</time>
      </trkpt>
      <trkpt lat="49.41849" lon="1.12767">
        <ele>148.6</ele>
        <time>2021-05-23T07:36:44Z</time>
      </trkpt>
      <trkpt lat="49.41853" lon="1.12753">
        <ele>148.7</ele>
        <time>2021-05-23T07:36:46Z</time>
      </trkpt>
      <trkpt lat="49.41858" lon="1.12745">
        <ele>148.8</ele>
        <time>2021-05-23T07:36:47Z</time>
      </trkpt>
      <trkpt lat="49.41861" lon="1.12738">
        <ele>148.8</ele>
        <time>2021-05-23T07:36:49Z</time>
      </trkpt>
      <trkpt lat="49.41865" lon="1.12728">
        <ele>148.8</ele>
        <time>2021-05-23T07:36:51Z</time>
      </trkpt>
      <trkpt lat="49.41868" lon="1.12719">
        <ele>148.7</ele>
        <time>2021-05-23T07:36:52Z</time>
      </trkpt>
      <trkpt lat="49.41872" lon="1.12712">
        <ele>148.6</ele>
        <time>2021-05-23T07:36:53Z</time>
      </trkpt>
      <trkpt lat="49.41876" lon="1.12705">
        <ele>148.5</ele>
        <time>2021-05-23T07:36:55Z</time>
      </trkpt>
      <trkpt lat="49.41878" lon="1.12698">
        <ele>148.3</ele>
        <time>2021-05-23T07:36:56Z</time>
      </trkpt>
      <trkpt lat="49.41882" lon="1.1269">
        <ele>148.1</ele>
        <time>2021-05-23T07:36:57Z</time>
      </trkpt>
      <trkpt lat="49.4189" lon="1.12677">
        <ele>147.9</ele>
        <time>2021-05-23T07:36:59Z</time>
      </trkpt>
      <trkpt lat="49.41894" lon="1.12672">
        <ele>147.7</ele>
        <time>2021-05-23T07:37:00Z</time>
      </trkpt>
      <trkpt lat="49.41905" lon="1.1266">
        <ele>147.6</ele>
        <time>2021-05-23T07:37:02Z</time>
      </trkpt>
      <trkpt lat="49.4191" lon="1.12654">
        <ele>147.5</ele>
        <time>2021-05-23T07:37:03Z</time>
      </trkpt>
      <trkpt lat="49.41915" lon="1.12649">
        <ele>147.6</ele>
        <time>2021-05-23T07:37:04Z</time>
      </trkpt>
      <trkpt lat="49.41924" lon="1.12638">
        <ele>147.7</ele>
        <time>2021-05-23T07:37:07Z</time>
      </trkpt>
      <trkpt lat="49.41934" lon="1.12625">
        <ele>147.8</ele>
        <time>2021-05-23T07:37:09Z</time>
      </trkpt>
      <trkpt lat="49.41946" lon="1.12612">
        <ele>147.8</ele>
        <time>2021-05-23T07:37:11Z</time>
      </trkpt>
      <trkpt lat="49.41951" lon="1.12605">
        <ele>147.9</ele>
        <time>2021-05-23T07:37:12Z</time>
      </trkpt>
      <trkpt lat="49.41961" lon="1.12592">
        <ele>148</ele>
        <time>2021-05-23T07:37:14Z</time>
      </trkpt>
      <trkpt lat="49.41972" lon="1.12579">
        <ele>148.1</ele>
        <time>2021-05-23T07:37:16Z</time>
      </trkpt>
      <trkpt lat="49.41978" lon="1.12571">
        <ele>148.2</ele>
        <time>2021-05-23T07:37:17Z</time>
      </trkpt>
      <trkpt lat="49.41988" lon="1.12557">
        <ele>148.3</ele>
        <time>2021-05-23T07:37:19Z</time>
      </trkpt>
      <trkpt lat="49.41993" lon="1.12551">
        <ele>148.4</ele>
        <time>2021-05-23T07:37:20Z</time>
      </trkpt>
      <trkpt lat="49.42003" lon="1.12538">
        <ele>148.5</ele>
        <time>2021-05-23T07:37:22Z</time>
      </trkpt>
      <trkpt lat="49.42015" lon="1.12528">
        <ele>148.5</ele>
        <time>2021-05-23T07:37:24Z</time>
      </trkpt>
      <trkpt lat="49.42021" lon="1.12523">
        <ele>148.6</ele>
        <time>2021-05-23T07:37:25Z</time>
      </trkpt>
      <trkpt lat="49.42026" lon="1.12519">
        <ele>148.7</ele>
        <time>2021-05-23T07:37:26Z</time>
      </trkpt>
      <trkpt lat="49.42032" lon="1.12515">
        <ele>148.9</ele>
        <time>2021-05-23T07:37:27Z</time>
      </trkpt>
      <trkpt lat="49.42038" lon="1.1251">
        <ele>149.1</ele>
        <time>2021-05-23T07:37:28Z</time>
      </trkpt>
      <trkpt lat="49.4205" lon="1.125">
        <ele>149.3</ele>
        <time>2021-05-23T07:37:30Z</time>
      </trkpt>
      <trkpt lat="49.42056" lon="1.12494">
        <ele>149.5</ele>
        <time>2021-05-23T07:37:31Z</time>
      </trkpt>
      <trkpt lat="49.42068" lon="1.12485">
        <ele>149.5</ele>
        <time>2021-05-23T07:37:33Z</time>
      </trkpt>
      <trkpt lat="49.42083" lon="1.12484">
        <ele>149.6</ele>
        <time>2021-05-23T07:37:35Z</time>
      </trkpt>
      <trkpt lat="49.4209" lon="1.12486">
        <ele>149.5</ele>
        <time>2021-05-23T07:37:36Z</time>
      </trkpt>
      <trkpt lat="49.42103" lon="1.12491">
        <ele>149.5</ele>
        <time>2021-05-23T07:37:38Z</time>
      </trkpt>
      <trkpt lat="49.42117" lon="1.12493">
        <ele>149.2</ele>
        <time>2021-05-23T07:37:40Z</time>
      </trkpt>
      <trkpt lat="49.42131" lon="1.12491">
        <ele>148.8</ele>
        <time>2021-05-23T07:37:42Z</time>
      </trkpt>
      <trkpt lat="49.42143" lon="1.12487">
        <ele>148.5</ele>
        <time>2021-05-23T07:37:44Z</time>
      </trkpt>
      <trkpt lat="49.4215" lon="1.12485">
        <ele>148.1</ele>
        <time>2021-05-23T07:37:45Z</time>
      </trkpt>
      <trkpt lat="49.42162" lon="1.12478">
        <ele>147.7</ele>
        <time>2021-05-23T07:37:47Z</time>
      </trkpt>
      <trkpt lat="49.42168" lon="1.12474">
        <ele>147.4</ele>
        <time>2021-05-23T07:37:48Z</time>
      </trkpt>
      <trkpt lat="49.4218" lon="1.12466">
        <ele>147</ele>
        <time>2021-05-23T07:37:50Z</time>
      </trkpt>
      <trkpt lat="49.42186" lon="1.12463">
        <ele>146.8</ele>
        <time>2021-05-23T07:37:51Z</time>
      </trkpt>
      <trkpt lat="49.42196" lon="1.12451">
        <ele>146.6</ele>
        <time>2021-05-23T07:37:54Z</time>
      </trkpt>
      <trkpt lat="49.42199" lon="1.12433">
        <ele>146.6</ele>
        <time>2021-05-23T07:37:56Z</time>
      </trkpt>
      <trkpt lat="49.42197" lon="1.12424">
        <ele>146.6</ele>
        <time>2021-05-23T07:37:57Z</time>
      </trkpt>
      <trkpt lat="49.42194" lon="1.12406">
        <ele>146.7</ele>
        <time>2021-05-23T07:37:59Z</time>
      </trkpt>
      <trkpt lat="49.42191" lon="1.12397">
        <ele>146.9</ele>
        <time>2021-05-23T07:38:00Z</time>
      </trkpt>
      <trkpt lat="49.42189" lon="1.12388">
        <ele>147.1</ele>
        <time>2021-05-23T07:38:01Z</time>
      </trkpt>
      <trkpt lat="49.42185" lon="1.12371">
        <ele>147.1</ele>
        <time>2021-05-23T07:38:03Z</time>
      </trkpt>
      <trkpt lat="49.42181" lon="1.12354">
        <ele>147.1</ele>
        <time>2021-05-23T07:38:05Z</time>
      </trkpt>
      <trkpt lat="49.42177" lon="1.12336">
        <ele>147</ele>
        <time>2021-05-23T07:38:07Z</time>
      </trkpt>
      <trkpt lat="49.42172" lon="1.1232">
        <ele>146.9</ele>
        <time>2021-05-23T07:38:09Z</time>
      </trkpt>
      <trkpt lat="49.42168" lon="1.12302">
        <ele>146.7</ele>
        <time>2021-05-23T07:38:11Z</time>
      </trkpt>
      <trkpt lat="49.42166" lon="1.12283">
        <ele>146.5</ele>
        <time>2021-05-23T07:38:13Z</time>
      </trkpt>
      <trkpt lat="49.42165" lon="1.12265">
        <ele>146.3</ele>
        <time>2021-05-23T07:38:15Z</time>
      </trkpt>
      <trkpt lat="49.42165" lon="1.12256">
        <ele>146</ele>
        <time>2021-05-23T07:38:16Z</time>
      </trkpt>
      <trkpt lat="49.42165" lon="1.12248">
        <ele>145.7</ele>
        <time>2021-05-23T07:38:17Z</time>
      </trkpt>
      <trkpt lat="49.42165" lon="1.12239">
        <ele>145.5</ele>
        <time>2021-05-23T07:38:18Z</time>
      </trkpt>
      <trkpt lat="49.42166" lon="1.12222">
        <ele>145.2</ele>
        <time>2021-05-23T07:38:20Z</time>
      </trkpt>
      <trkpt lat="49.42167" lon="1.12215">
        <ele>145.1</ele>
        <time>2021-05-23T07:38:21Z</time>
      </trkpt>
      <trkpt lat="49.42168" lon="1.1221">
        <ele>145</ele>
        <time>2021-05-23T07:38:22Z</time>
      </trkpt>
      <trkpt lat="49.42167" lon="1.12203">
        <ele>145</ele>
        <time>2021-05-23T07:38:24Z</time>
      </trkpt>
      <trkpt lat="49.42166" lon="1.12201">
        <ele>145</ele>
        <time>2021-05-23T07:38:25Z</time>
      </trkpt>
      <trkpt lat="49.42165" lon="1.12199">
        <ele>145</ele>
        <time>2021-05-23T07:38:26Z</time>
      </trkpt>
      <trkpt lat="49.42164" lon="1.12198">
        <ele>145</ele>
        <time>2021-05-23T07:38:28Z</time>
      </trkpt>
      <trkpt lat="49.42162" lon="1.12196">
        <ele>144.9</ele>
        <time>2021-05-23T07:38:29Z</time>
      </trkpt>
      <trkpt lat="49.42161" lon="1.12195">
        <ele>144.8</ele>
        <time>2021-05-23T07:38:31Z</time>
      </trkpt>
      <trkpt lat="49.4216" lon="1.12193">
        <ele>144.7</ele>
        <time>2021-05-23T07:38:32Z</time>
      </trkpt>
      <trkpt lat="49.42159" lon="1.12192">
        <ele>144.6</ele>
        <time>2021-05-23T07:38:34Z</time>
      </trkpt>
      <trkpt lat="49.42158" lon="1.1219">
        <ele>144.5</ele>
        <time>2021-05-23T07:47:59Z</time>
      </trkpt>
      <trkpt lat="49.42157" lon="1.12188">
        <ele>144.5</ele>
        <time>2021-05-23T07:48:01Z</time>
      </trkpt>
      <trkpt lat="49.42157" lon="1.12188">
        <ele>144.4</ele>
        <time>2021-05-23T07:48:02Z</time>
      </trkpt>
      <trkpt lat="49.42157" lon="1.12188">
        <ele>144.3</ele>
        <time>2021-05-23T07:48:03Z</time>
      </trkpt>
      <trkpt lat="49.42157" lon="1.12188">
        <ele>144.3</ele>
        <time>2021-05-23T07:48:05Z</time>
      </trkpt>
      <trkpt lat="49.42157" lon="1.12188">
        <ele>144.3</ele>
        <time>2021-05-23T07:48:06Z</time>
      </trkpt>
      <trkpt lat="49.42157" lon="1.12188">
        <ele>144.3</ele>
        <time>2021-05-23T07:48:07Z</time>
      </trkpt>
      <trkpt lat="49.42157" lon="1.12188">
        <ele>144.4</ele>
        <time>2021-05-23T07:48:09Z</time>
      </trkpt>
      <trkpt lat="49.42157" lon="1.12189">
        <ele>144.5</ele>
        <time>2021-05-23T07:48:10Z</time>
      </trkpt>
      <trkpt lat="49.42157" lon="1.12202">
        <ele>144.6</ele>
        <time>2021-05-23T07:48:13Z</time>
      </trkpt>
      <trkpt lat="49.42153" lon="1.12211">
        <ele>144.9</ele>
        <time>2021-05-23T07:48:15Z</time>
      </trkpt>
      <trkpt lat="49.42144" lon="1.1224">
        <ele>145.2</ele>
        <time>2021-05-23T07:48:16Z</time>
      </trkpt>
      <trkpt lat="49.42139" lon="1.12269">
        <ele>145.5</ele>
        <time>2021-05-23T07:48:18Z</time>
      </trkpt>
      <trkpt lat="49.42139" lon="1.12281">
        <ele>145.8</ele>
        <time>2021-05-23T07:48:19Z</time>
      </trkpt>
      <trkpt lat="49.42137" lon="1.12304">
        <ele>146.2</ele>
        <time>2021-05-23T07:48:21Z</time>
      </trkpt>
      <trkpt lat="49.42137" lon="1.12325">
        <ele>146.5</ele>
        <time>2021-05-23T07:48:23Z</time>
      </trkpt>
      <trkpt lat="49.4214" lon="1.12339">
        <ele>146.6</ele>
        <time>2021-05-23T07:48:25Z</time>
      </trkpt>
      <trkpt lat="49.42147" lon="1.12343">
        <ele>146.8</ele>
        <time>2021-05-23T07:48:26Z</time>
      </trkpt>
      <trkpt lat="49.42157" lon="1.12344">
        <ele>146.9</ele>
        <time>2021-05-23T07:48:27Z</time>
      </trkpt>
      <trkpt lat="49.4217" lon="1.12355">
        <ele>147</ele>
        <time>2021-05-23T07:48:29Z</time>
      </trkpt>
      <trkpt lat="49.42175" lon="1.12364">
        <ele>147</ele>
        <time>2021-05-23T07:48:30Z</time>
      </trkpt>
      <trkpt lat="49.4218" lon="1.12383">
        <ele>146.9</ele>
        <time>2021-05-23T07:48:32Z</time>
      </trkpt>
      <trkpt lat="49.42187" lon="1.12402">
        <ele>146.8</ele>
        <time>2021-05-23T07:48:34Z</time>
      </trkpt>
      <trkpt lat="49.42192" lon="1.12421">
        <ele>146.8</ele>
        <time>2021-05-23T07:48:36Z</time>
      </trkpt>
      <trkpt lat="49.42199" lon="1.12439">
        <ele>146.7</ele>
        <time>2021-05-23T07:48:38Z</time>
      </trkpt>
      <trkpt lat="49.42205" lon="1.12456">
        <ele>146.6</ele>
        <time>2021-05-23T07:48:40Z</time>
      </trkpt>
      <trkpt lat="49.4221" lon="1.12474">
        <ele>146.5</ele>
        <time>2021-05-23T07:48:42Z</time>
      </trkpt>
      <trkpt lat="49.42214" lon="1.12483">
        <ele>146.6</ele>
        <time>2021-05-23T07:48:43Z</time>
      </trkpt>
      <trkpt lat="49.42217" lon="1.12501">
        <ele>146.7</ele>
        <time>2021-05-23T07:48:45Z</time>
      </trkpt>
      <trkpt lat="49.4222" lon="1.1251">
        <ele>146.9</ele>
        <time>2021-05-23T07:48:46Z</time>
      </trkpt>
      <trkpt lat="49.42222" lon="1.12519">
        <ele>147.1</ele>
        <time>2021-05-23T07:48:47Z</time>
      </trkpt>
      <trkpt lat="49.42224" lon="1.12528">
        <ele>147.3</ele>
        <time>2021-05-23T07:48:48Z</time>
      </trkpt>
      <trkpt lat="49.4223" lon="1.12545">
        <ele>147.5</ele>
        <time>2021-05-23T07:48:50Z</time>
      </trkpt>
      <trkpt lat="49.42234" lon="1.12558">
        <ele>147.6</ele>
        <time>2021-05-23T07:48:52Z</time>
      </trkpt>
      <trkpt lat="49.42237" lon="1.12564">
        <ele>147.7</ele>
        <time>2021-05-23T07:48:54Z</time>
      </trkpt>
      <trkpt lat="49.42237" lon="1.12567">
        <ele>147.8</ele>
        <time>2021-05-23T07:48:55Z</time>
      </trkpt>
      <trkpt lat="49.42236" lon="1.12572">
        <ele>147.9</ele>
        <time>2021-05-23T07:48:57Z</time>
      </trkpt>
      <trkpt lat="49.42236" lon="1.12576">
        <ele>148</ele>
        <time>2021-05-23T07:48:59Z</time>
      </trkpt>
      <trkpt lat="49.42238" lon="1.12579">
        <ele>148.1</ele>
        <time>2021-05-23T07:49:01Z</time>
      </trkpt>
      <trkpt lat="49.4224" lon="1.12582">
        <ele>148.2</ele>
        <time>2021-05-23T07:49:02Z</time>
      </trkpt>
      <trkpt lat="49.4224" lon="1.12584">
        <ele>148.2</ele>
        <time>2021-05-23T07:49:03Z</time>
      </trkpt>
      <trkpt lat="49.42242" lon="1.12589">
        <ele>148.2</ele>
        <time>2021-05-23T07:49:05Z</time>
      </trkpt>
      <trkpt lat="49.42242" lon="1.12591">
        <ele>148.2</ele>
        <time>2021-05-23T07:49:06Z</time>
      </trkpt>
      <trkpt lat="49.42249" lon="1.12603">
        <ele>148.2</ele>
        <time>2021-05-23T07:49:07Z</time>
      </trkpt>
      <trkpt lat="49.42253" lon="1.12611">
        <ele>148.2</ele>
        <time>2021-05-23T07:49:08Z</time>
      </trkpt>
      <trkpt lat="49.42258" lon="1.12619">
        <ele>148.2</ele>
        <time>2021-05-23T07:49:09Z</time>
      </trkpt>
      <trkpt lat="49.42265" lon="1.12634">
        <ele>148.2</ele>
        <time>2021-05-23T07:49:11Z</time>
      </trkpt>
      <trkpt lat="49.42272" lon="1.12656">
        <ele>148.2</ele>
        <time>2021-05-23T07:49:13Z</time>
      </trkpt>
      <trkpt lat="49.42278" lon="1.12673">
        <ele>148.2</ele>
        <time>2021-05-23T07:49:15Z</time>
      </trkpt>
      <trkpt lat="49.4228" lon="1.12668">
        <ele>148</ele>
        <time>2021-05-23T07:49:16Z</time>
      </trkpt>
      <trkpt lat="49.42281" lon="1.12666">
        <ele>147.8</ele>
        <time>2021-05-23T07:49:18Z</time>
      </trkpt>
      <trkpt lat="49.42283" lon="1.12663">
        <ele>147.7</ele>
        <time>2021-05-23T07:49:19Z</time>
      </trkpt>
      <trkpt lat="49.42285" lon="1.12661">
        <ele>147.5</ele>
        <time>2021-05-23T07:49:20Z</time>
      </trkpt>
      <trkpt lat="49.42288" lon="1.12659">
        <ele>147.4</ele>
        <time>2021-05-23T07:49:21Z</time>
      </trkpt>
      <trkpt lat="49.423" lon="1.12656">
        <ele>147.2</ele>
        <time>2021-05-23T07:49:23Z</time>
      </trkpt>
      <trkpt lat="49.42308" lon="1.12653">
        <ele>147</ele>
        <time>2021-05-23T07:49:24Z</time>
      </trkpt>
      <trkpt lat="49.42317" lon="1.1265">
        <ele>146.8</ele>
        <time>2021-05-23T07:49:25Z</time>
      </trkpt>
      <trkpt lat="49.42332" lon="1.12651">
        <ele>146.7</ele>
        <time>2021-05-23T07:49:27Z</time>
      </trkpt>
      <trkpt lat="49.42346" lon="1.12671">
        <ele>146.7</ele>
        <time>2021-05-23T07:49:29Z</time>
      </trkpt>
      <trkpt lat="49.42358" lon="1.12688">
        <ele>146.8</ele>
        <time>2021-05-23T07:49:31Z</time>
      </trkpt>
      <trkpt lat="49.42367" lon="1.127">
        <ele>147</ele>
        <time>2021-05-23T07:49:32Z</time>
      </trkpt>
      <trkpt lat="49.42374" lon="1.12708">
        <ele>147.2</ele>
        <time>2021-05-23T07:49:33Z</time>
      </trkpt>
      <trkpt lat="49.42389" lon="1.12723">
        <ele>147.4</ele>
        <time>2021-05-23T07:49:35Z</time>
      </trkpt>
      <trkpt lat="49.42402" lon="1.12735">
        <ele>147.6</ele>
        <time>2021-05-23T07:49:37Z</time>
      </trkpt>
      <trkpt lat="49.42414" lon="1.12746">
        <ele>147.9</ele>
        <time>2021-05-23T07:49:39Z</time>
      </trkpt>
      <trkpt lat="49.4242" lon="1.12751">
        <ele>148.2</ele>
        <time>2021-05-23T07:49:40Z</time>
      </trkpt>
      <trkpt lat="49.42429" lon="1.12764">
        <ele>148.5</ele>
        <time>2021-05-23T07:49:43Z</time>
      </trkpt>
      <trkpt lat="49.42433" lon="1.1277">
        <ele>148.7</ele>
        <time>2021-05-23T07:49:44Z</time>
      </trkpt>
      <trkpt lat="49.42437" lon="1.12775">
        <ele>148.9</ele>
        <time>2021-05-23T07:49:45Z</time>
      </trkpt>
      <trkpt lat="49.4244" lon="1.1278">
        <ele>149</ele>
        <time>2021-05-23T07:49:46Z</time>
      </trkpt>
      <trkpt lat="49.42448" lon="1.12783">
        <ele>149</ele>
        <time>2021-05-23T07:49:48Z</time>
      </trkpt>
      <trkpt lat="49.42454" lon="1.12789">
        <ele>148.9</ele>
        <time>2021-05-23T07:49:49Z</time>
      </trkpt>
      <trkpt lat="49.42459" lon="1.12795">
        <ele>148.8</ele>
        <time>2021-05-23T07:49:50Z</time>
      </trkpt>
      <trkpt lat="49.42471" lon="1.12807">
        <ele>148.7</ele>
        <time>2021-05-23T07:49:52Z</time>
      </trkpt>
      <trkpt lat="49.42477" lon="1.12813">
        <ele>148.6</ele>
        <time>2021-05-23T07:49:53Z</time>
      </trkpt>
      <trkpt lat="49.42486" lon="1.12824">
        <ele>148.5</ele>
        <time>2021-05-23T07:49:55Z</time>
      </trkpt>
      <trkpt lat="49.42491" lon="1.12829">
        <ele>148.5</ele>
        <time>2021-05-23T07:49:56Z</time>
      </trkpt>
      <trkpt lat="49.42504" lon="1.12837">
        <ele>148.5</ele>
        <time>2021-05-23T07:49:58Z</time>
      </trkpt>
      <trkpt lat="49.42515" lon="1.12845">
        <ele>148.5</ele>
        <time>2021-05-23T07:50:00Z</time>
      </trkpt>
      <trkpt lat="49.4252" lon="1.12849">
        <ele>148.4</ele>
        <time>2021-05-23T07:50:01Z</time>
      </trkpt>
      <trkpt lat="49.42533" lon="1.12857">
        <ele>148.3</ele>
        <time>2021-05-23T07:50:03Z</time>
      </trkpt>
      <trkpt lat="49.42539" lon="1.12862">
        <ele>148.2</ele>
        <time>2021-05-23T07:50:04Z</time>
      </trkpt>
      <trkpt lat="49.4255" lon="1.1287">
        <ele>148.2</ele>
        <time>2021-05-23T07:50:06Z</time>
      </trkpt>
      <trkpt lat="49.42563" lon="1.12879">
        <ele>148.2</ele>
        <time>2021-05-23T07:50:08Z</time>
      </trkpt>
      <trkpt lat="49.42575" lon="1.12889">
        <ele>148.2</ele>
        <time>2021-05-23T07:50:10Z</time>
      </trkpt>
      <trkpt lat="49.42582" lon="1.12893">
        <ele>148.2</ele>
        <time>2021-05-23T07:50:11Z</time>
      </trkpt>
      <trkpt lat="49.42596" lon="1.12904">
        <ele>148.2</ele>
        <time>2021-05-23T07:50:13Z</time>
      </trkpt>
      <trkpt lat="49.42609" lon="1.12911">
        <ele>148.2</ele>
        <time>2021-05-23T07:50:15Z</time>
      </trkpt>
      <trkpt lat="49.42616" lon="1.12917">
        <ele>148.1</ele>
        <time>2021-05-23T07:50:16Z</time>
      </trkpt>
      <trkpt lat="49.42622" lon="1.12923">
        <ele>148</ele>
        <time>2021-05-23T07:50:17Z</time>
      </trkpt>
      <trkpt lat="49.42635" lon="1.12933">
        <ele>147.9</ele>
        <time>2021-05-23T07:50:19Z</time>
      </trkpt>
      <trkpt lat="49.42646" lon="1.12945">
        <ele>147.8</ele>
        <time>2021-05-23T07:50:21Z</time>
      </trkpt>
      <trkpt lat="49.4266" lon="1.12956">
        <ele>147.7</ele>
        <time>2021-05-23T07:50:23Z</time>
      </trkpt>
      <trkpt lat="49.42666" lon="1.12962">
        <ele>147.5</ele>
        <time>2021-05-23T07:50:24Z</time>
      </trkpt>
      <trkpt lat="49.42679" lon="1.12972">
        <ele>147.4</ele>
        <time>2021-05-23T07:50:26Z</time>
      </trkpt>
      <trkpt lat="49.42684" lon="1.12976">
        <ele>147.2</ele>
        <time>2021-05-23T07:50:27Z</time>
      </trkpt>
      <trkpt lat="49.42697" lon="1.12986">
        <ele>146.9</ele>
        <time>2021-05-23T07:50:29Z</time>
      </trkpt>
      <trkpt lat="49.42708" lon="1.12996">
        <ele>146.5</ele>
        <time>2021-05-23T07:50:32Z</time>
      </trkpt>
      <trkpt lat="49.42713" lon="1.12998">
        <ele>146.2</ele>
        <time>2021-05-23T07:50:33Z</time>
      </trkpt>
      <trkpt lat="49.42719" lon="1.13001">
        <ele>145.8</ele>
        <time>2021-05-23T07:50:34Z</time>
      </trkpt>
      <trkpt lat="49.4273" lon="1.1301">
        <ele>145.5</ele>
        <time>2021-05-23T07:50:36Z</time>
      </trkpt>
      <trkpt lat="49.42742" lon="1.13018">
        <ele>145.2</ele>
        <time>2021-05-23T07:50:38Z</time>
      </trkpt>
      <trkpt lat="49.42749" lon="1.13025">
        <ele>144.9</ele>
        <time>2021-05-23T07:50:39Z</time>
      </trkpt>
      <trkpt lat="49.42763" lon="1.13036">
        <ele>144.6</ele>
        <time>2021-05-23T07:50:41Z</time>
      </trkpt>
      <trkpt lat="49.4277" lon="1.13041">
        <ele>144.5</ele>
        <time>2021-05-23T07:50:42Z</time>
      </trkpt>
      <trkpt lat="49.42777" lon="1.13048">
        <ele>144.2</ele>
        <time>2021-05-23T07:50:43Z</time>
      </trkpt>
      <trkpt lat="49.42792" lon="1.13059">
        <ele>143.9</ele>
        <time>2021-05-23T07:50:45Z</time>
      </trkpt>
      <trkpt lat="49.42807" lon="1.13071">
        <ele>143.7</ele>
        <time>2021-05-23T07:50:47Z</time>
      </trkpt>
      <trkpt lat="49.42814" lon="1.13079">
        <ele>143.5</ele>
        <time>2021-05-23T07:50:48Z</time>
      </trkpt>
      <trkpt lat="49.42819" lon="1.13095">
        <ele>143.4</ele>
        <time>2021-05-23T07:50:50Z</time>
      </trkpt>
      <trkpt lat="49.42828" lon="1.13087">
        <ele>143.2</ele>
        <time>2021-05-23T07:50:52Z</time>
      </trkpt>
      <trkpt lat="49.42838" lon="1.13069">
        <ele>143</ele>
        <time>2021-05-23T07:50:54Z</time>
      </trkpt>
      <trkpt lat="49.42846" lon="1.13064">
        <ele>142.8</ele>
        <time>2021-05-23T07:50:55Z</time>
      </trkpt>
      <trkpt lat="49.42863" lon="1.13057">
        <ele>142.6</ele>
        <time>2021-05-23T07:50:57Z</time>
      </trkpt>
      <trkpt lat="49.42871" lon="1.13052">
        <ele>142.5</ele>
        <time>2021-05-23T07:50:58Z</time>
      </trkpt>
      <trkpt lat="49.42883" lon="1.13046">
        <ele>142.2</ele>
        <time>2021-05-23T07:51:00Z</time>
      </trkpt>
      <trkpt lat="49.42891" lon="1.13044">
        <ele>142</ele>
        <time>2021-05-23T07:51:02Z</time>
      </trkpt>
      <trkpt lat="49.42897" lon="1.13042">
        <ele>141.8</ele>
        <time>2021-05-23T07:51:04Z</time>
      </trkpt>
      <trkpt lat="49.429" lon="1.1304">
        <ele>141.6</ele>
        <time>2021-05-23T07:51:05Z</time>
      </trkpt>
      <trkpt lat="49.42904" lon="1.13039">
        <ele>141.5</ele>
        <time>2021-05-23T07:51:06Z</time>
      </trkpt>
      <trkpt lat="49.42913" lon="1.13039">
        <ele>141.3</ele>
        <time>2021-05-23T07:51:08Z</time>
      </trkpt>
      <trkpt lat="49.42919" lon="1.13035">
        <ele>141.1</ele>
        <time>2021-05-23T07:51:09Z</time>
      </trkpt>
      <trkpt lat="49.4292" lon="1.13033">
        <ele>141</ele>
        <time>2021-05-23T07:51:10Z</time>
      </trkpt>
      <trkpt lat="49.42923" lon="1.1303">
        <ele>140.9</ele>
        <time>2021-05-23T07:51:12Z</time>
      </trkpt>
      <trkpt lat="49.42926" lon="1.13026">
        <ele>140.8</ele>
        <time>2021-05-23T07:51:13Z</time>
      </trkpt>
      <trkpt lat="49.42926" lon="1.13023">
        <ele>140.7</ele>
        <time>2021-05-23T07:51:14Z</time>
      </trkpt>
      <trkpt lat="49.42926" lon="1.13017">
        <ele>140.6</ele>
        <time>2021-05-23T07:51:15Z</time>
      </trkpt>
      <trkpt lat="49.42925" lon="1.13012">
        <ele>140.5</ele>
        <time>2021-05-23T07:51:16Z</time>
      </trkpt>
      <trkpt lat="49.42922" lon="1.12993">
        <ele>140.5</ele>
        <time>2021-05-23T07:51:19Z</time>
      </trkpt>
      <trkpt lat="49.42922" lon="1.12982">
        <ele>140.3</ele>
        <time>2021-05-23T07:51:21Z</time>
      </trkpt>
      <trkpt lat="49.42923" lon="1.12975">
        <ele>140.2</ele>
        <time>2021-05-23T07:51:22Z</time>
      </trkpt>
      <trkpt lat="49.42923" lon="1.1297">
        <ele>140</ele>
        <time>2021-05-23T07:51:23Z</time>
      </trkpt>
      <trkpt lat="49.42924" lon="1.1296">
        <ele>139.8</ele>
        <time>2021-05-23T07:51:25Z</time>
      </trkpt>
      <trkpt lat="49.42925" lon="1.12956">
        <ele>139.5</ele>
        <time>2021-05-23T07:51:26Z</time>
      </trkpt>
      <trkpt lat="49.42929" lon="1.1295">
        <ele>139.3</ele>
        <time>2021-05-23T07:51:27Z</time>
      </trkpt>
      <trkpt lat="49.42933" lon="1.12946">
        <ele>139</ele>
        <time>2021-05-23T07:51:28Z</time>
      </trkpt>
      <trkpt lat="49.42937" lon="1.12941">
        <ele>138.7</ele>
        <time>2021-05-23T07:51:29Z</time>
      </trkpt>
      <trkpt lat="49.42943" lon="1.12935">
        <ele>138.6</ele>
        <time>2021-05-23T07:51:31Z</time>
      </trkpt>
      <trkpt lat="49.42948" lon="1.12933">
        <ele>138.5</ele>
        <time>2021-05-23T07:51:33Z</time>
      </trkpt>
      <trkpt lat="49.42954" lon="1.12931">
        <ele>138.5</ele>
        <time>2021-05-23T07:51:34Z</time>
      </trkpt>
      <trkpt lat="49.42957" lon="1.12929">
        <ele>138.5</ele>
        <time>2021-05-23T07:51:35Z</time>
      </trkpt>
      <trkpt lat="49.4296" lon="1.12925">
        <ele>138.5</ele>
        <time>2021-05-23T07:51:37Z</time>
      </trkpt>
      <trkpt lat="49.42967" lon="1.12913">
        <ele>138.6</ele>
        <time>2021-05-23T07:51:38Z</time>
      </trkpt>
      <trkpt lat="49.4297" lon="1.12909">
        <ele>138.8</ele>
        <time>2021-05-23T07:51:40Z</time>
      </trkpt>
      <trkpt lat="49.4297" lon="1.12906">
        <ele>139</ele>
        <time>2021-05-23T07:51:41Z</time>
      </trkpt>
      <trkpt lat="49.4297" lon="1.12904">
        <ele>139.2</ele>
        <time>2021-05-23T07:51:43Z</time>
      </trkpt>
      <trkpt lat="49.42971" lon="1.12904">
        <ele>139.4</ele>
        <time>2021-05-23T07:51:44Z</time>
      </trkpt>
      <trkpt lat="49.42973" lon="1.12903">
        <ele>139.5</ele>
        <time>2021-05-23T07:51:45Z</time>
      </trkpt>
      <trkpt lat="49.42977" lon="1.12902">
        <ele>139.6</ele>
        <time>2021-05-23T07:51:46Z</time>
      </trkpt>
      <trkpt lat="49.42993" lon="1.12899">
        <ele>139.7</ele>
        <time>2021-05-23T07:51:48Z</time>
      </trkpt>
      <trkpt lat="49.43003" lon="1.12898">
        <ele>139.8</ele>
        <time>2021-05-23T07:51:50Z</time>
      </trkpt>
      <trkpt lat="49.43005" lon="1.12897">
        <ele>140</ele>
        <time>2021-05-23T07:51:51Z</time>
      </trkpt>
      <trkpt lat="49.43008" lon="1.12896">
        <ele>140.2</ele>
        <time>2021-05-23T07:51:52Z</time>
      </trkpt>
      <trkpt lat="49.43012" lon="1.12894">
        <ele>140.4</ele>
        <time>2021-05-23T07:51:54Z</time>
      </trkpt>
      <trkpt lat="49.43018" lon="1.12888">
        <ele>140.6</ele>
        <time>2021-05-23T07:51:55Z</time>
      </trkpt>
      <trkpt lat="49.43023" lon="1.12884">
        <ele>141</ele>
        <time>2021-05-23T07:51:56Z</time>
      </trkpt>
      <trkpt lat="49.43028" lon="1.1288">
        <ele>141.4</ele>
        <time>2021-05-23T07:51:57Z</time>
      </trkpt>
      <trkpt lat="49.43032" lon="1.12874">
        <ele>141.8</ele>
        <time>2021-05-23T07:51:58Z</time>
      </trkpt>
      <trkpt lat="49.43035" lon="1.12867">
        <ele>142.3</ele>
        <time>2021-05-23T07:52:00Z</time>
      </trkpt>
      <trkpt lat="49.4304" lon="1.12857">
        <ele>142.7</ele>
        <time>2021-05-23T07:52:01Z</time>
      </trkpt>
      <trkpt lat="49.43042" lon="1.12849">
        <ele>143.3</ele>
        <time>2021-05-23T07:52:03Z</time>
      </trkpt>
      <trkpt lat="49.43044" lon="1.12843">
        <ele>143.7</ele>
        <time>2021-05-23T07:52:04Z</time>
      </trkpt>
      <trkpt lat="49.43045" lon="1.12836">
        <ele>144.1</ele>
        <time>2021-05-23T07:52:05Z</time>
      </trkpt>
      <trkpt lat="49.43044" lon="1.12824">
        <ele>144.5</ele>
        <time>2021-05-23T07:52:08Z</time>
      </trkpt>
      <trkpt lat="49.43043" lon="1.12812">
        <ele>144.7</ele>
        <time>2021-05-23T07:52:10Z</time>
      </trkpt>
      <trkpt lat="49.43043" lon="1.12805">
        <ele>144.8</ele>
        <time>2021-05-23T07:52:11Z</time>
      </trkpt>
      <trkpt lat="49.43043" lon="1.12795">
        <ele>144.8</ele>
        <time>2021-05-23T07:52:12Z</time>
      </trkpt>
      <trkpt lat="49.43044" lon="1.12787">
        <ele>144.8</ele>
        <time>2021-05-23T07:52:14Z</time>
      </trkpt>
      <trkpt lat="49.43045" lon="1.12781">
        <ele>144.7</ele>
        <time>2021-05-23T07:52:15Z</time>
      </trkpt>
      <trkpt lat="49.43048" lon="1.12773">
        <ele>144.5</ele>
        <time>2021-05-23T07:52:16Z</time>
      </trkpt>
      <trkpt lat="49.43051" lon="1.12762">
        <ele>144.4</ele>
        <time>2021-05-23T07:52:18Z</time>
      </trkpt>
      <trkpt lat="49.43051" lon="1.12754">
        <ele>144.1</ele>
        <time>2021-05-23T07:52:19Z</time>
      </trkpt>
      <trkpt lat="49.43052" lon="1.12748">
        <ele>143.9</ele>
        <time>2021-05-23T07:52:20Z</time>
      </trkpt>
      <trkpt lat="49.43052" lon="1.12742">
        <ele>143.7</ele>
        <time>2021-05-23T07:52:21Z</time>
      </trkpt>
      <trkpt lat="49.43055" lon="1.12732">
        <ele>143.5</ele>
        <time>2021-05-23T07:52:23Z</time>
      </trkpt>
      <trkpt lat="49.43058" lon="1.12725">
        <ele>143.4</ele>
        <time>2021-05-23T07:52:24Z</time>
      </trkpt>
      <trkpt lat="49.4306" lon="1.12721">
        <ele>143.3</ele>
        <time>2021-05-23T07:52:25Z</time>
      </trkpt>
      <trkpt lat="49.43063" lon="1.12712">
        <ele>143.2</ele>
        <time>2021-05-23T07:52:27Z</time>
      </trkpt>
      <trkpt lat="49.43065" lon="1.12703">
        <ele>143.1</ele>
        <time>2021-05-23T07:52:28Z</time>
      </trkpt>
      <trkpt lat="49.43067" lon="1.12696">
        <ele>143</ele>
        <time>2021-05-23T07:52:29Z</time>
      </trkpt>
      <trkpt lat="49.43071" lon="1.1269">
        <ele>143</ele>
        <time>2021-05-23T07:52:31Z</time>
      </trkpt>
      <trkpt lat="49.43072" lon="1.12686">
        <ele>143</ele>
        <time>2021-05-23T07:52:32Z</time>
      </trkpt>
      <trkpt lat="49.43073" lon="1.12684">
        <ele>143</ele>
        <time>2021-05-23T07:52:33Z</time>
      </trkpt>
      <trkpt lat="49.43073" lon="1.12682">
        <ele>143</ele>
        <time>2021-05-23T07:52:34Z</time>
      </trkpt>
      <trkpt lat="49.43075" lon="1.12678">
        <ele>143</ele>
        <time>2021-05-23T07:52:36Z</time>
      </trkpt>
      <trkpt lat="49.43075" lon="1.12675">
        <ele>143</ele>
        <time>2021-05-23T07:52:37Z</time>
      </trkpt>
      <trkpt lat="49.43076" lon="1.12673">
        <ele>143</ele>
        <time>2021-05-23T07:52:38Z</time>
      </trkpt>
      <trkpt lat="49.43078" lon="1.12664">
        <ele>143</ele>
        <time>2021-05-23T07:52:40Z</time>
      </trkpt>
      <trkpt lat="49.43084" lon="1.12648">
        <ele>142.9</ele>
        <time>2021-05-23T07:52:42Z</time>
      </trkpt>
      <trkpt lat="49.43088" lon="1.12632">
        <ele>142.7</ele>
        <time>2021-05-23T07:52:43Z</time>
      </trkpt>
      <trkpt lat="49.43093" lon="1.12617">
        <ele>142.5</ele>
        <time>2021-05-23T07:52:44Z</time>
      </trkpt>
      <trkpt lat="49.43095" lon="1.12607">
        <ele>142.4</ele>
        <time>2021-05-23T07:52:46Z</time>
      </trkpt>
      <trkpt lat="49.43097" lon="1.12598">
        <ele>142.2</ele>
        <time>2021-05-23T07:52:47Z</time>
      </trkpt>
      <trkpt lat="49.431" lon="1.12588">
        <ele>142</ele>
        <time>2021-05-23T07:52:48Z</time>
      </trkpt>
      <trkpt lat="49.43106" lon="1.12566">
        <ele>141.9</ele>
        <time>2021-05-23T07:52:50Z</time>
      </trkpt>
      <trkpt lat="49.43109" lon="1.12556">
        <ele>141.8</ele>
        <time>2021-05-23T07:52:51Z</time>
      </trkpt>
      <trkpt lat="49.43113" lon="1.12543">
        <ele>141.8</ele>
        <time>2021-05-23T07:52:52Z</time>
      </trkpt>
      <trkpt lat="49.43117" lon="1.12524">
        <ele>141.8</ele>
        <time>2021-05-23T07:52:54Z</time>
      </trkpt>
      <trkpt lat="49.4312" lon="1.12513">
        <ele>141.9</ele>
        <time>2021-05-23T07:52:55Z</time>
      </trkpt>
      <trkpt lat="49.43126" lon="1.12479">
        <ele>142.1</ele>
        <time>2021-05-23T07:52:58Z</time>
      </trkpt>
      <trkpt lat="49.43127" lon="1.12475">
        <ele>142.3</ele>
        <time>2021-05-23T07:52:59Z</time>
      </trkpt>
      <trkpt lat="49.43129" lon="1.12467">
        <ele>142.5</ele>
        <time>2021-05-23T07:53:01Z</time>
      </trkpt>
      <trkpt lat="49.43131" lon="1.12459">
        <ele>142.6</ele>
        <time>2021-05-23T07:53:02Z</time>
      </trkpt>
      <trkpt lat="49.43139" lon="1.12435">
        <ele>142.7</ele>
        <time>2021-05-23T07:53:03Z</time>
      </trkpt>
      <trkpt lat="49.43142" lon="1.12427">
        <ele>142.8</ele>
        <time>2021-05-23T07:53:04Z</time>
      </trkpt>
      <trkpt lat="49.43149" lon="1.12413">
        <ele>142.8</ele>
        <time>2021-05-23T07:53:05Z</time>
      </trkpt>
      <trkpt lat="49.43152" lon="1.12408">
        <ele>142.8</ele>
        <time>2021-05-23T07:53:07Z</time>
      </trkpt>
      <trkpt lat="49.43157" lon="1.1239">
        <ele>142.7</ele>
        <time>2021-05-23T07:53:08Z</time>
      </trkpt>
      <trkpt lat="49.43161" lon="1.12382">
        <ele>142.6</ele>
        <time>2021-05-23T07:53:10Z</time>
      </trkpt>
      <trkpt lat="49.43165" lon="1.12376">
        <ele>142.5</ele>
        <time>2021-05-23T07:53:11Z</time>
      </trkpt>
      <trkpt lat="49.43169" lon="1.12353">
        <ele>142.3</ele>
        <time>2021-05-23T07:53:12Z</time>
      </trkpt>
      <trkpt lat="49.43171" lon="1.12345">
        <ele>142.3</ele>
        <time>2021-05-23T07:53:13Z</time>
      </trkpt>
      <trkpt lat="49.43175" lon="1.12341">
        <ele>142.2</ele>
        <time>2021-05-23T07:53:15Z</time>
      </trkpt>
      <trkpt lat="49.43177" lon="1.12333">
        <ele>142</ele>
        <time>2021-05-23T07:53:16Z</time>
      </trkpt>
      <trkpt lat="49.4318" lon="1.12324">
        <ele>141.9</ele>
        <time>2021-05-23T07:53:17Z</time>
      </trkpt>
      <trkpt lat="49.43182" lon="1.12309">
        <ele>141.8</ele>
        <time>2021-05-23T07:53:19Z</time>
      </trkpt>
      <trkpt lat="49.43182" lon="1.12301">
        <ele>141.6</ele>
        <time>2021-05-23T07:53:20Z</time>
      </trkpt>
      <trkpt lat="49.43185" lon="1.12266">
        <ele>141.5</ele>
        <time>2021-05-23T07:53:22Z</time>
      </trkpt>
      <trkpt lat="49.43185" lon="1.12242">
        <ele>141.1</ele>
        <time>2021-05-23T07:53:23Z</time>
      </trkpt>
      <trkpt lat="49.43186" lon="1.12237">
        <ele>140.7</ele>
        <time>2021-05-23T07:53:24Z</time>
      </trkpt>
      <trkpt lat="49.43187" lon="1.1223">
        <ele>140.3</ele>
        <time>2021-05-23T07:53:26Z</time>
      </trkpt>
      <trkpt lat="49.43188" lon="1.12223">
        <ele>139.8</ele>
        <time>2021-05-23T07:53:27Z</time>
      </trkpt>
      <trkpt lat="49.43188" lon="1.12215">
        <ele>139.3</ele>
        <time>2021-05-23T07:53:28Z</time>
      </trkpt>
      <trkpt lat="49.43189" lon="1.12206">
        <ele>138.7</ele>
        <time>2021-05-23T07:53:29Z</time>
      </trkpt>
      <trkpt lat="49.43189" lon="1.12201">
        <ele>138.3</ele>
        <time>2021-05-23T07:53:30Z</time>
      </trkpt>
      <trkpt lat="49.43187" lon="1.12195">
        <ele>137.8</ele>
        <time>2021-05-23T07:53:32Z</time>
      </trkpt>
      <trkpt lat="49.43185" lon="1.1219">
        <ele>137.4</ele>
        <time>2021-05-23T07:53:33Z</time>
      </trkpt>
      <trkpt lat="49.43184" lon="1.12183">
        <ele>137.1</ele>
        <time>2021-05-23T07:53:34Z</time>
      </trkpt>
      <trkpt lat="49.43185" lon="1.12175">
        <ele>136.9</ele>
        <time>2021-05-23T07:53:35Z</time>
      </trkpt>
      <trkpt lat="49.43185" lon="1.12164">
        <ele>136.9</ele>
        <time>2021-05-23T07:53:37Z</time>
      </trkpt>
      <trkpt lat="49.43185" lon="1.12154">
        <ele>137</ele>
        <time>2021-05-23T07:53:38Z</time>
      </trkpt>
      <trkpt lat="49.43184" lon="1.12143">
        <ele>137.2</ele>
        <time>2021-05-23T07:53:39Z</time>
      </trkpt>
      <trkpt lat="49.43183" lon="1.12131">
        <ele>137.5</ele>
        <time>2021-05-23T07:53:40Z</time>
      </trkpt>
      <trkpt lat="49.43182" lon="1.12123">
        <ele>137.7</ele>
        <time>2021-05-23T07:53:42Z</time>
      </trkpt>
      <trkpt lat="49.43181" lon="1.12116">
        <ele>138.1</ele>
        <time>2021-05-23T07:53:43Z</time>
      </trkpt>
      <trkpt lat="49.4318" lon="1.12109">
        <ele>138.5</ele>
        <time>2021-05-23T07:53:44Z</time>
      </trkpt>
      <trkpt lat="49.43181" lon="1.12102">
        <ele>138.7</ele>
        <time>2021-05-23T07:53:45Z</time>
      </trkpt>
      <trkpt lat="49.43184" lon="1.12094">
        <ele>139</ele>
        <time>2021-05-23T07:53:48Z</time>
      </trkpt>
      <trkpt lat="49.43189" lon="1.12088">
        <ele>139.2</ele>
        <time>2021-05-23T07:53:50Z</time>
      </trkpt>
      <trkpt lat="49.43192" lon="1.12086">
        <ele>139.3</ele>
        <time>2021-05-23T07:53:51Z</time>
      </trkpt>
      <trkpt lat="49.43195" lon="1.12081">
        <ele>139.4</ele>
        <time>2021-05-23T07:53:52Z</time>
      </trkpt>
      <trkpt lat="49.43197" lon="1.12077">
        <ele>139.4</ele>
        <time>2021-05-23T07:53:53Z</time>
      </trkpt>
      <trkpt lat="49.43199" lon="1.1207">
        <ele>139.4</ele>
        <time>2021-05-23T07:53:54Z</time>
      </trkpt>
      <trkpt lat="49.432" lon="1.12066">
        <ele>139.3</ele>
        <time>2021-05-23T07:53:55Z</time>
      </trkpt>
      <trkpt lat="49.43201" lon="1.12062">
        <ele>139.2</ele>
        <time>2021-05-23T07:53:56Z</time>
      </trkpt>
      <trkpt lat="49.43202" lon="1.12057">
        <ele>139</ele>
        <time>2021-05-23T07:53:58Z</time>
      </trkpt>
      <trkpt lat="49.43204" lon="1.12051">
        <ele>138.8</ele>
        <time>2021-05-23T07:53:59Z</time>
      </trkpt>
      <trkpt lat="49.43205" lon="1.12046">
        <ele>138.7</ele>
        <time>2021-05-23T07:54:00Z</time>
      </trkpt>
      <trkpt lat="49.43207" lon="1.1204">
        <ele>138.6</ele>
        <time>2021-05-23T07:54:02Z</time>
      </trkpt>
      <trkpt lat="49.43209" lon="1.12034">
        <ele>138.5</ele>
        <time>2021-05-23T07:54:03Z</time>
      </trkpt>
      <trkpt lat="49.43211" lon="1.12027">
        <ele>138.5</ele>
        <time>2021-05-23T07:54:05Z</time>
      </trkpt>
      <trkpt lat="49.43213" lon="1.12022">
        <ele>138.3</ele>
        <time>2021-05-23T07:54:06Z</time>
      </trkpt>
      <trkpt lat="49.43215" lon="1.12017">
        <ele>138</ele>
        <time>2021-05-23T07:54:07Z</time>
      </trkpt>
      <trkpt lat="49.43215" lon="1.12015">
        <ele>137.7</ele>
        <time>2021-05-23T07:54:08Z</time>
      </trkpt>
      <trkpt lat="49.43218" lon="1.12009">
        <ele>137.5</ele>
        <time>2021-05-23T07:54:09Z</time>
      </trkpt>
      <trkpt lat="49.43221" lon="1.12002">
        <ele>137.2</ele>
        <time>2021-05-23T07:54:10Z</time>
      </trkpt>
      <trkpt lat="49.43225" lon="1.11997">
        <ele>137</ele>
        <time>2021-05-23T07:54:12Z</time>
      </trkpt>
      <trkpt lat="49.43232" lon="1.11976">
        <ele>136.8</ele>
        <time>2021-05-23T07:54:13Z</time>
      </trkpt>
      <trkpt lat="49.43235" lon="1.11965">
        <ele>136.6</ele>
        <time>2021-05-23T07:54:14Z</time>
      </trkpt>
      <trkpt lat="49.43235" lon="1.11961">
        <ele>136.4</ele>
        <time>2021-05-23T07:54:15Z</time>
      </trkpt>
      <trkpt lat="49.43235" lon="1.11955">
        <ele>136</ele>
        <time>2021-05-23T07:54:17Z</time>
      </trkpt>
      <trkpt lat="49.43234" lon="1.11951">
        <ele>135.6</ele>
        <time>2021-05-23T07:54:18Z</time>
      </trkpt>
      <trkpt lat="49.43234" lon="1.11949">
        <ele>135.3</ele>
        <time>2021-05-23T07:54:19Z</time>
      </trkpt>
      <trkpt lat="49.43233" lon="1.11944">
        <ele>135</ele>
        <time>2021-05-23T07:54:20Z</time>
      </trkpt>
      <trkpt lat="49.43235" lon="1.11935">
        <ele>134.8</ele>
        <time>2021-05-23T07:54:22Z</time>
      </trkpt>
      <trkpt lat="49.43237" lon="1.11923">
        <ele>134.7</ele>
        <time>2021-05-23T07:54:23Z</time>
      </trkpt>
      <trkpt lat="49.43239" lon="1.11914">
        <ele>134.7</ele>
        <time>2021-05-23T07:54:25Z</time>
      </trkpt>
      <trkpt lat="49.43239" lon="1.11909">
        <ele>134.7</ele>
        <time>2021-05-23T07:54:27Z</time>
      </trkpt>
      <trkpt lat="49.43238" lon="1.11904">
        <ele>134.7</ele>
        <time>2021-05-23T07:54:28Z</time>
      </trkpt>
      <trkpt lat="49.43237" lon="1.11898">
        <ele>134.8</ele>
        <time>2021-05-23T07:54:29Z</time>
      </trkpt>
      <trkpt lat="49.4323" lon="1.11881">
        <ele>135</ele>
        <time>2021-05-23T07:54:30Z</time>
      </trkpt>
      <trkpt lat="49.43229" lon="1.11877">
        <ele>135.4</ele>
        <time>2021-05-23T07:54:31Z</time>
      </trkpt>
      <trkpt lat="49.43228" lon="1.11872">
        <ele>135.7</ele>
        <time>2021-05-23T07:54:33Z</time>
      </trkpt>
      <trkpt lat="49.43227" lon="1.11864">
        <ele>136.2</ele>
        <time>2021-05-23T07:54:34Z</time>
      </trkpt>
      <trkpt lat="49.43226" lon="1.11857">
        <ele>136.6</ele>
        <time>2021-05-23T07:54:37Z</time>
      </trkpt>
      <trkpt lat="49.43224" lon="1.11849">
        <ele>137</ele>
        <time>2021-05-23T07:54:38Z</time>
      </trkpt>
      <trkpt lat="49.43223" lon="1.1184">
        <ele>137.3</ele>
        <time>2021-05-23T07:54:40Z</time>
      </trkpt>
      <trkpt lat="49.43222" lon="1.11837">
        <ele>137.5</ele>
        <time>2021-05-23T07:54:41Z</time>
      </trkpt>
      <trkpt lat="49.43222" lon="1.11835">
        <ele>137.6</ele>
        <time>2021-05-23T07:54:42Z</time>
      </trkpt>
      <trkpt lat="49.4322" lon="1.1183">
        <ele>137.8</ele>
        <time>2021-05-23T07:54:44Z</time>
      </trkpt>
      <trkpt lat="49.4322" lon="1.11828">
        <ele>137.9</ele>
        <time>2021-05-23T07:54:45Z</time>
      </trkpt>
      <trkpt lat="49.43219" lon="1.11818">
        <ele>138</ele>
        <time>2021-05-23T07:54:46Z</time>
      </trkpt>
      <trkpt lat="49.43218" lon="1.11814">
        <ele>138.1</ele>
        <time>2021-05-23T07:54:47Z</time>
      </trkpt>
      <trkpt lat="49.43218" lon="1.1181">
        <ele>138.2</ele>
        <time>2021-05-23T07:54:49Z</time>
      </trkpt>
      <trkpt lat="49.43216" lon="1.11806">
        <ele>138.3</ele>
        <time>2021-05-23T07:54:51Z</time>
      </trkpt>
      <trkpt lat="49.43215" lon="1.11804">
        <ele>138.4</ele>
        <time>2021-05-23T07:54:52Z</time>
      </trkpt>
      <trkpt lat="49.43212" lon="1.11796">
        <ele>138.5</ele>
        <time>2021-05-23T07:54:54Z</time>
      </trkpt>
      <trkpt lat="49.4321" lon="1.11792">
        <ele>138.6</ele>
        <time>2021-05-23T07:54:55Z</time>
      </trkpt>
      <trkpt lat="49.43208" lon="1.11787">
        <ele>138.8</ele>
        <time>2021-05-23T07:54:57Z</time>
      </trkpt>
      <trkpt lat="49.43207" lon="1.11786">
        <ele>139</ele>
        <time>2021-05-23T07:54:58Z</time>
      </trkpt>
      <trkpt lat="49.43206" lon="1.11784">
        <ele>139.3</ele>
        <time>2021-05-23T07:54:59Z</time>
      </trkpt>
      <trkpt lat="49.43205" lon="1.11781">
        <ele>139.5</ele>
        <time>2021-05-23T07:55:00Z</time>
      </trkpt>
      <trkpt lat="49.43204" lon="1.11776">
        <ele>139.8</ele>
        <time>2021-05-23T07:55:02Z</time>
      </trkpt>
      <trkpt lat="49.43202" lon="1.11768">
        <ele>140</ele>
        <time>2021-05-23T07:55:04Z</time>
      </trkpt>
      <trkpt lat="49.43201" lon="1.11761">
        <ele>140.2</ele>
        <time>2021-05-23T07:55:05Z</time>
      </trkpt>
      <trkpt lat="49.432" lon="1.11755">
        <ele>140.3</ele>
        <time>2021-05-23T07:55:06Z</time>
      </trkpt>
      <trkpt lat="49.432" lon="1.11746">
        <ele>140.4</ele>
        <time>2021-05-23T07:55:08Z</time>
      </trkpt>
      <trkpt lat="49.432" lon="1.11738">
        <ele>140.5</ele>
        <time>2021-05-23T07:55:09Z</time>
      </trkpt>
      <trkpt lat="49.43201" lon="1.11728">
        <ele>140.5</ele>
        <time>2021-05-23T07:55:11Z</time>
      </trkpt>
      <trkpt lat="49.43203" lon="1.11719">
        <ele>140.4</ele>
        <time>2021-05-23T07:55:12Z</time>
      </trkpt>
      <trkpt lat="49.43204" lon="1.11711">
        <ele>140.3</ele>
        <time>2021-05-23T07:55:13Z</time>
      </trkpt>
      <trkpt lat="49.43206" lon="1.11703">
        <ele>140.1</ele>
        <time>2021-05-23T07:55:14Z</time>
      </trkpt>
      <trkpt lat="49.43206" lon="1.11697">
        <ele>139.9</ele>
        <time>2021-05-23T07:55:16Z</time>
      </trkpt>
      <trkpt lat="49.43207" lon="1.11692">
        <ele>139.7</ele>
        <time>2021-05-23T07:55:17Z</time>
      </trkpt>
      <trkpt lat="49.43208" lon="1.11688">
        <ele>139.5</ele>
        <time>2021-05-23T07:55:18Z</time>
      </trkpt>
      <trkpt lat="49.43208" lon="1.11682">
        <ele>139.4</ele>
        <time>2021-05-23T07:55:19Z</time>
      </trkpt>
      <trkpt lat="49.43208" lon="1.11675">
        <ele>139.3</ele>
        <time>2021-05-23T07:55:20Z</time>
      </trkpt>
      <trkpt lat="49.43209" lon="1.11672">
        <ele>139.2</ele>
        <time>2021-05-23T07:55:21Z</time>
      </trkpt>
      <trkpt lat="49.4321" lon="1.11665">
        <ele>139.1</ele>
        <time>2021-05-23T07:55:23Z</time>
      </trkpt>
      <trkpt lat="49.43212" lon="1.11657">
        <ele>139</ele>
        <time>2021-05-23T07:55:25Z</time>
      </trkpt>
      <trkpt lat="49.43214" lon="1.11652">
        <ele>139</ele>
        <time>2021-05-23T07:55:26Z</time>
      </trkpt>
      <trkpt lat="49.43216" lon="1.11646">
        <ele>139.1</ele>
        <time>2021-05-23T07:55:27Z</time>
      </trkpt>
      <trkpt lat="49.4322" lon="1.11636">
        <ele>139.2</ele>
        <time>2021-05-23T07:55:29Z</time>
      </trkpt>
      <trkpt lat="49.43222" lon="1.11627">
        <ele>139.3</ele>
        <time>2021-05-23T07:55:30Z</time>
      </trkpt>
      <trkpt lat="49.43225" lon="1.11615">
        <ele>139.4</ele>
        <time>2021-05-23T07:55:31Z</time>
      </trkpt>
      <trkpt lat="49.4323" lon="1.11595">
        <ele>139.4</ele>
        <time>2021-05-23T07:55:33Z</time>
      </trkpt>
      <trkpt lat="49.43235" lon="1.11582">
        <ele>139.4</ele>
        <time>2021-05-23T07:55:35Z</time>
      </trkpt>
      <trkpt lat="49.43237" lon="1.11571">
        <ele>139.3</ele>
        <time>2021-05-23T07:55:36Z</time>
      </trkpt>
      <trkpt lat="49.43239" lon="1.11559">
        <ele>139.2</ele>
        <time>2021-05-23T07:55:38Z</time>
      </trkpt>
      <trkpt lat="49.4324" lon="1.1155">
        <ele>139</ele>
        <time>2021-05-23T07:55:39Z</time>
      </trkpt>
      <trkpt lat="49.43243" lon="1.1154">
        <ele>138.7</ele>
        <time>2021-05-23T07:55:40Z</time>
      </trkpt>
      <trkpt lat="49.43246" lon="1.11528">
        <ele>138.5</ele>
        <time>2021-05-23T07:55:42Z</time>
      </trkpt>
      <trkpt lat="49.43251" lon="1.11517">
        <ele>138</ele>
        <time>2021-05-23T07:55:44Z</time>
      </trkpt>
      <trkpt lat="49.43253" lon="1.11509">
        <ele>137.5</ele>
        <time>2021-05-23T07:55:45Z</time>
      </trkpt>
      <trkpt lat="49.43257" lon="1.11495">
        <ele>136.8</ele>
        <time>2021-05-23T07:55:46Z</time>
      </trkpt>
      <trkpt lat="49.43261" lon="1.11485">
        <ele>136.2</ele>
        <time>2021-05-23T07:55:48Z</time>
      </trkpt>
      <trkpt lat="49.43269" lon="1.11467">
        <ele>135.6</ele>
        <time>2021-05-23T07:55:49Z</time>
      </trkpt>
      <trkpt lat="49.43273" lon="1.11456">
        <ele>135.1</ele>
        <time>2021-05-23T07:55:50Z</time>
      </trkpt>
      <trkpt lat="49.43277" lon="1.11444">
        <ele>134.5</ele>
        <time>2021-05-23T07:55:51Z</time>
      </trkpt>
      <trkpt lat="49.43289" lon="1.1143">
        <ele>134</ele>
        <time>2021-05-23T07:55:53Z</time>
      </trkpt>
      <trkpt lat="49.43293" lon="1.11425">
        <ele>133.6</ele>
        <time>2021-05-23T07:55:54Z</time>
      </trkpt>
      <trkpt lat="49.433" lon="1.11408">
        <ele>133.5</ele>
        <time>2021-05-23T07:55:56Z</time>
      </trkpt>
      <trkpt lat="49.43312" lon="1.11386">
        <ele>133.4</ele>
        <time>2021-05-23T07:55:59Z</time>
      </trkpt>
      <trkpt lat="49.43317" lon="1.11377">
        <ele>133.5</ele>
        <time>2021-05-23T07:56:01Z</time>
      </trkpt>
      <trkpt lat="49.43321" lon="1.11365">
        <ele>133.7</ele>
        <time>2021-05-23T07:56:02Z</time>
      </trkpt>
      <trkpt lat="49.43324" lon="1.11354">
        <ele>134.2</ele>
        <time>2021-05-23T07:56:04Z</time>
      </trkpt>
      <trkpt lat="49.43322" lon="1.11347">
        <ele>134.7</ele>
        <time>2021-05-23T07:56:06Z</time>
      </trkpt>
      <trkpt lat="49.4332" lon="1.1134">
        <ele>135.3</ele>
        <time>2021-05-23T07:56:07Z</time>
      </trkpt>
      <trkpt lat="49.43317" lon="1.11335">
        <ele>135.9</ele>
        <time>2021-05-23T07:56:08Z</time>
      </trkpt>
      <trkpt lat="49.43313" lon="1.1133">
        <ele>136.6</ele>
        <time>2021-05-23T07:56:10Z</time>
      </trkpt>
      <trkpt lat="49.43309" lon="1.11327">
        <ele>137.4</ele>
        <time>2021-05-23T07:56:11Z</time>
      </trkpt>
      <trkpt lat="49.43305" lon="1.11324">
        <ele>138</ele>
        <time>2021-05-23T07:56:14Z</time>
      </trkpt>
      <trkpt lat="49.43301" lon="1.1132">
        <ele>138.5</ele>
        <time>2021-05-23T07:56:15Z</time>
      </trkpt>
      <trkpt lat="49.43296" lon="1.11313">
        <ele>138.8</ele>
        <time>2021-05-23T07:56:17Z</time>
      </trkpt>
      <trkpt lat="49.43295" lon="1.11307">
        <ele>139.1</ele>
        <time>2021-05-23T07:56:18Z</time>
      </trkpt>
      <trkpt lat="49.43294" lon="1.11302">
        <ele>139.2</ele>
        <time>2021-05-23T07:56:19Z</time>
      </trkpt>
      <trkpt lat="49.43294" lon="1.11296">
        <ele>139.2</ele>
        <time>2021-05-23T07:56:20Z</time>
      </trkpt>
      <trkpt lat="49.43295" lon="1.11291">
        <ele>139.1</ele>
        <time>2021-05-23T07:56:22Z</time>
      </trkpt>
      <trkpt lat="49.43296" lon="1.11285">
        <ele>138.9</ele>
        <time>2021-05-23T07:56:23Z</time>
      </trkpt>
      <trkpt lat="49.43298" lon="1.11277">
        <ele>138.6</ele>
        <time>2021-05-23T07:56:24Z</time>
      </trkpt>
      <trkpt lat="49.43299" lon="1.11268">
        <ele>138.4</ele>
        <time>2021-05-23T07:56:25Z</time>
      </trkpt>
      <trkpt lat="49.433" lon="1.11262">
        <ele>138</ele>
        <time>2021-05-23T07:56:26Z</time>
      </trkpt>
      <trkpt lat="49.43302" lon="1.11254">
        <ele>137.5</ele>
        <time>2021-05-23T07:56:28Z</time>
      </trkpt>
      <trkpt lat="49.43304" lon="1.11246">
        <ele>137.2</ele>
        <time>2021-05-23T07:56:29Z</time>
      </trkpt>
      <trkpt lat="49.43305" lon="1.11233">
        <ele>136.7</ele>
        <time>2021-05-23T07:56:30Z</time>
      </trkpt>
      <trkpt lat="49.43308" lon="1.11223">
        <ele>136.2</ele>
        <time>2021-05-23T07:56:32Z</time>
      </trkpt>
      <trkpt lat="49.43308" lon="1.11217">
        <ele>135.7</ele>
        <time>2021-05-23T07:56:33Z</time>
      </trkpt>
      <trkpt lat="49.43309" lon="1.11202">
        <ele>135.3</ele>
        <time>2021-05-23T07:56:35Z</time>
      </trkpt>
      <trkpt lat="49.4331" lon="1.1119">
        <ele>134.7</ele>
        <time>2021-05-23T07:56:36Z</time>
      </trkpt>
      <trkpt lat="49.4331" lon="1.11187">
        <ele>134.2</ele>
        <time>2021-05-23T07:56:37Z</time>
      </trkpt>
      <trkpt lat="49.4331" lon="1.11179">
        <ele>133.5</ele>
        <time>2021-05-23T07:56:39Z</time>
      </trkpt>
      <trkpt lat="49.43311" lon="1.11174">
        <ele>132.8</ele>
        <time>2021-05-23T07:56:40Z</time>
      </trkpt>
      <trkpt lat="49.43311" lon="1.11169">
        <ele>132.1</ele>
        <time>2021-05-23T07:56:42Z</time>
      </trkpt>
      <trkpt lat="49.43312" lon="1.11165">
        <ele>131.4</ele>
        <time>2021-05-23T07:56:43Z</time>
      </trkpt>
      <trkpt lat="49.43313" lon="1.11153">
        <ele>130.6</ele>
        <time>2021-05-23T07:56:44Z</time>
      </trkpt>
      <trkpt lat="49.43315" lon="1.11143">
        <ele>129.9</ele>
        <time>2021-05-23T07:56:45Z</time>
      </trkpt>
      <trkpt lat="49.43318" lon="1.11132">
        <ele>129.3</ele>
        <time>2021-05-23T07:56:46Z</time>
      </trkpt>
      <trkpt lat="49.43321" lon="1.11125">
        <ele>128.6</ele>
        <time>2021-05-23T07:56:48Z</time>
      </trkpt>
      <trkpt lat="49.43322" lon="1.11119">
        <ele>128</ele>
        <time>2021-05-23T07:56:49Z</time>
      </trkpt>
      <trkpt lat="49.43322" lon="1.11116">
        <ele>127.5</ele>
        <time>2021-05-23T07:56:50Z</time>
      </trkpt>
      <trkpt lat="49.43322" lon="1.11114">
        <ele>127</ele>
        <time>2021-05-23T07:56:52Z</time>
      </trkpt>
      <trkpt lat="49.43322" lon="1.11114">
        <ele>126.6</ele>
        <time>2021-05-23T07:56:53Z</time>
      </trkpt>
      <trkpt lat="49.43322" lon="1.11113">
        <ele>126.2</ele>
        <time>2021-05-23T07:56:55Z</time>
      </trkpt>
      <trkpt lat="49.43322" lon="1.11113">
        <ele>125.5</ele>
        <time>2021-05-23T07:56:56Z</time>
      </trkpt>
      <trkpt lat="49.43322" lon="1.11113">
        <ele>124.8</ele>
        <time>2021-05-23T07:56:57Z</time>
      </trkpt>
      <trkpt lat="49.43322" lon="1.11112">
        <ele>124</ele>
        <time>2021-05-23T07:56:59Z</time>
      </trkpt>
      <trkpt lat="49.43323" lon="1.11112">
        <ele>123.2</ele>
        <time>2021-05-23T07:57:00Z</time>
      </trkpt>
      <trkpt lat="49.43326" lon="1.111">
        <ele>122.3</ele>
        <time>2021-05-23T07:57:03Z</time>
      </trkpt>
      <trkpt lat="49.43328" lon="1.11088">
        <ele>121.3</ele>
        <time>2021-05-23T07:57:53Z</time>
      </trkpt>
      <trkpt lat="49.43331" lon="1.11075">
        <ele>120.3</ele>
        <time>2021-05-23T07:57:54Z</time>
      </trkpt>
      <trkpt lat="49.43332" lon="1.11071">
        <ele>119.1</ele>
        <time>2021-05-23T07:57:56Z</time>
      </trkpt>
      <trkpt lat="49.43334" lon="1.11066">
        <ele>117.7</ele>
        <time>2021-05-23T07:57:57Z</time>
      </trkpt>
      <trkpt lat="49.43334" lon="1.11062">
        <ele>116.3</ele>
        <time>2021-05-23T07:57:59Z</time>
      </trkpt>
      <trkpt lat="49.43333" lon="1.11057">
        <ele>114.9</ele>
        <time>2021-05-23T07:58:00Z</time>
      </trkpt>
      <trkpt lat="49.43333" lon="1.11054">
        <ele>113.7</ele>
        <time>2021-05-23T07:58:01Z</time>
      </trkpt>
      <trkpt lat="49.43332" lon="1.11048">
        <ele>112.7</ele>
        <time>2021-05-23T07:58:03Z</time>
      </trkpt>
      <trkpt lat="49.43332" lon="1.11041">
        <ele>111.7</ele>
        <time>2021-05-23T07:58:05Z</time>
      </trkpt>
      <trkpt lat="49.43333" lon="1.11036">
        <ele>110.7</ele>
        <time>2021-05-23T07:58:06Z</time>
      </trkpt>
      <trkpt lat="49.43333" lon="1.11033">
        <ele>109.8</ele>
        <time>2021-05-23T07:58:07Z</time>
      </trkpt>
      <trkpt lat="49.43332" lon="1.1103">
        <ele>108.7</ele>
        <time>2021-05-23T07:58:09Z</time>
      </trkpt>
      <trkpt lat="49.43332" lon="1.11028">
        <ele>107.5</ele>
        <time>2021-05-23T07:58:10Z</time>
      </trkpt>
      <trkpt lat="49.43331" lon="1.11026">
        <ele>106.5</ele>
        <time>2021-05-23T07:58:11Z</time>
      </trkpt>
      <trkpt lat="49.43332" lon="1.11022">
        <ele>105.8</ele>
        <time>2021-05-23T07:58:13Z</time>
      </trkpt>
      <trkpt lat="49.43332" lon="1.1102">
        <ele>105.1</ele>
        <time>2021-05-23T07:58:14Z</time>
      </trkpt>
      <trkpt lat="49.43339" lon="1.11008">
        <ele>104.5</ele>
        <time>2021-05-23T07:58:16Z</time>
      </trkpt>
      <trkpt lat="49.43346" lon="1.10999">
        <ele>103.9</ele>
        <time>2021-05-23T07:58:17Z</time>
      </trkpt>
      <trkpt lat="49.43352" lon="1.10996">
        <ele>103.3</ele>
        <time>2021-05-23T07:58:18Z</time>
      </trkpt>
      <trkpt lat="49.4336" lon="1.10996">
        <ele>102.7</ele>
        <time>2021-05-23T07:58:20Z</time>
      </trkpt>
      <trkpt lat="49.43363" lon="1.10992">
        <ele>102.3</ele>
        <time>2021-05-23T07:58:22Z</time>
      </trkpt>
      <trkpt lat="49.43364" lon="1.1099">
        <ele>101.8</ele>
        <time>2021-05-23T07:58:23Z</time>
      </trkpt>
      <trkpt lat="49.43365" lon="1.10988">
        <ele>101.6</ele>
        <time>2021-05-23T07:58:24Z</time>
      </trkpt>
      <trkpt lat="49.43366" lon="1.10986">
        <ele>101.5</ele>
        <time>2021-05-23T07:58:26Z</time>
      </trkpt>
      <trkpt lat="49.43366" lon="1.10985">
        <ele>101.5</ele>
        <time>2021-05-23T07:58:27Z</time>
      </trkpt>
      <trkpt lat="49.43366" lon="1.10984">
        <ele>101.3</ele>
        <time>2021-05-23T07:58:28Z</time>
      </trkpt>
      <trkpt lat="49.43366" lon="1.10984">
        <ele>101.2</ele>
        <time>2021-05-23T07:58:29Z</time>
      </trkpt>
      <trkpt lat="49.43366" lon="1.10982">
        <ele>101.1</ele>
        <time>2021-05-23T07:58:31Z</time>
      </trkpt>
      <trkpt lat="49.43365" lon="1.1098">
        <ele>101</ele>
        <time>2021-05-23T07:58:32Z</time>
      </trkpt>
      <trkpt lat="49.43365" lon="1.10979">
        <ele>101</ele>
        <time>2021-05-23T07:58:34Z</time>
      </trkpt>
      <trkpt lat="49.43365" lon="1.10977">
        <ele>100.9</ele>
        <time>2021-05-23T07:58:36Z</time>
      </trkpt>
      <trkpt lat="49.43365" lon="1.10978">
        <ele>100.8</ele>
        <time>2021-05-23T07:58:37Z</time>
      </trkpt>
      <trkpt lat="49.43365" lon="1.10979">
        <ele>100.6</ele>
        <time>2021-05-23T07:58:40Z</time>
      </trkpt>
      <trkpt lat="49.43365" lon="1.10978">
        <ele>100.5</ele>
        <time>2021-05-23T07:58:41Z</time>
      </trkpt>
      <trkpt lat="49.43366" lon="1.10974">
        <ele>100.3</ele>
        <time>2021-05-23T07:58:43Z</time>
      </trkpt>
      <trkpt lat="49.43369" lon="1.10971">
        <ele>100.1</ele>
        <time>2021-05-23T07:58:45Z</time>
      </trkpt>
      <trkpt lat="49.43372" lon="1.10968">
        <ele>99.9</ele>
        <time>2021-05-23T07:58:46Z</time>
      </trkpt>
      <trkpt lat="49.43374" lon="1.10964">
        <ele>99.7</ele>
        <time>2021-05-23T07:58:47Z</time>
      </trkpt>
      <trkpt lat="49.43375" lon="1.10963">
        <ele>99.5</ele>
        <time>2021-05-23T07:58:48Z</time>
      </trkpt>
      <trkpt lat="49.43376" lon="1.10961">
        <ele>99.4</ele>
        <time>2021-05-23T07:58:50Z</time>
      </trkpt>
      <trkpt lat="49.43377" lon="1.10958">
        <ele>99.2</ele>
        <time>2021-05-23T07:58:52Z</time>
      </trkpt>
      <trkpt lat="49.43378" lon="1.10957">
        <ele>99.1</ele>
        <time>2021-05-23T07:58:53Z</time>
      </trkpt>
      <trkpt lat="49.43379" lon="1.10958">
        <ele>99</ele>
        <time>2021-05-23T07:58:55Z</time>
      </trkpt>
      <trkpt lat="49.43379" lon="1.10957">
        <ele>99.1</ele>
        <time>2021-05-23T07:58:56Z</time>
      </trkpt>
      <trkpt lat="49.43378" lon="1.10956">
        <ele>99.2</ele>
        <time>2021-05-23T07:58:57Z</time>
      </trkpt>
      <trkpt lat="49.43377" lon="1.10959">
        <ele>99.3</ele>
        <time>2021-05-23T07:58:59Z</time>
      </trkpt>
      <trkpt lat="49.43374" lon="1.10961">
        <ele>99.4</ele>
        <time>2021-05-23T07:59:00Z</time>
      </trkpt>
      <trkpt lat="49.43374" lon="1.10965">
        <ele>99.5</ele>
        <time>2021-05-23T07:59:02Z</time>
      </trkpt>
      <trkpt lat="49.43374" lon="1.10966">
        <ele>99.5</ele>
        <time>2021-05-23T07:59:03Z</time>
      </trkpt>
      <trkpt lat="49.43375" lon="1.10967">
        <ele>99.6</ele>
        <time>2021-05-23T07:59:05Z</time>
      </trkpt>
      <trkpt lat="49.43376" lon="1.10967">
        <ele>99.7</ele>
        <time>2021-05-23T07:59:06Z</time>
      </trkpt>
      <trkpt lat="49.43377" lon="1.10968">
        <ele>99.8</ele>
        <time>2021-05-23T07:59:07Z</time>
      </trkpt>
      <trkpt lat="49.43377" lon="1.10968">
        <ele>99.8</ele>
        <time>2021-05-23T07:59:08Z</time>
      </trkpt>
      <trkpt lat="49.43377" lon="1.10967">
        <ele>99.8</ele>
        <time>2021-05-23T07:59:09Z</time>
      </trkpt>
      <trkpt lat="49.43376" lon="1.10968">
        <ele>99.7</ele>
        <time>2021-05-23T07:59:11Z</time>
      </trkpt>
      <trkpt lat="49.43376" lon="1.10968">
        <ele>99.6</ele>
        <time>2021-05-23T07:59:12Z</time>
      </trkpt>
      <trkpt lat="49.43377" lon="1.10967">
        <ele>99.5</ele>
        <time>2021-05-23T07:59:13Z</time>
      </trkpt>
      <trkpt lat="49.43382" lon="1.10959">
        <ele>99.3</ele>
        <time>2021-05-23T07:59:15Z</time>
      </trkpt>
      <trkpt lat="49.43386" lon="1.10952">
        <ele>99</ele>
        <time>2021-05-23T07:59:17Z</time>
      </trkpt>
      <trkpt lat="49.43387" lon="1.10948">
        <ele>98.6</ele>
        <time>2021-05-23T07:59:18Z</time>
      </trkpt>
      <trkpt lat="49.43388" lon="1.10945">
        <ele>98.2</ele>
        <time>2021-05-23T07:59:19Z</time>
      </trkpt>
      <trkpt lat="49.43388" lon="1.10936">
        <ele>97.3</ele>
        <time>2021-05-23T07:59:21Z</time>
      </trkpt>
      <trkpt lat="49.43389" lon="1.10931">
        <ele>96.3</ele>
        <time>2021-05-23T07:59:22Z</time>
      </trkpt>
      <trkpt lat="49.4339" lon="1.10926">
        <ele>95.3</ele>
        <time>2021-05-23T07:59:23Z</time>
      </trkpt>
      <trkpt lat="49.43392" lon="1.10918">
        <ele>94.2</ele>
        <time>2021-05-23T07:59:25Z</time>
      </trkpt>
      <trkpt lat="49.43394" lon="1.10911">
        <ele>92.9</ele>
        <time>2021-05-23T07:59:26Z</time>
      </trkpt>
      <trkpt lat="49.43405" lon="1.10893">
        <ele>91.5</ele>
        <time>2021-05-23T07:59:29Z</time>
      </trkpt>
      <trkpt lat="49.43414" lon="1.10886">
        <ele>90</ele>
        <time>2021-05-23T07:59:31Z</time>
      </trkpt>
      <trkpt lat="49.43419" lon="1.10886">
        <ele>88.3</ele>
        <time>2021-05-23T07:59:32Z</time>
      </trkpt>
      <trkpt lat="49.43424" lon="1.10884">
        <ele>86.6</ele>
        <time>2021-05-23T07:59:34Z</time>
      </trkpt>
      <trkpt lat="49.43432" lon="1.10876">
        <ele>85</ele>
        <time>2021-05-23T07:59:35Z</time>
      </trkpt>
      <trkpt lat="49.43444" lon="1.10876">
        <ele>83.5</ele>
        <time>2021-05-23T07:59:37Z</time>
      </trkpt>
      <trkpt lat="49.4345" lon="1.10878">
        <ele>82.3</ele>
        <time>2021-05-23T07:59:38Z</time>
      </trkpt>
      <trkpt lat="49.43461" lon="1.1088">
        <ele>81.1</ele>
        <time>2021-05-23T07:59:40Z</time>
      </trkpt>
      <trkpt lat="49.43465" lon="1.10883">
        <ele>79.9</ele>
        <time>2021-05-23T07:59:41Z</time>
      </trkpt>
      <trkpt lat="49.43469" lon="1.10887">
        <ele>78.7</ele>
        <time>2021-05-23T07:59:43Z</time>
      </trkpt>
      <trkpt lat="49.43472" lon="1.10891">
        <ele>77.7</ele>
        <time>2021-05-23T07:59:44Z</time>
      </trkpt>
      <trkpt lat="49.43476" lon="1.10893">
        <ele>76.9</ele>
        <time>2021-05-23T07:59:46Z</time>
      </trkpt>
      <trkpt lat="49.4348" lon="1.10891">
        <ele>76.2</ele>
        <time>2021-05-23T07:59:48Z</time>
      </trkpt>
      <trkpt lat="49.43484" lon="1.1089">
        <ele>75.7</ele>
        <time>2021-05-23T07:59:49Z</time>
      </trkpt>
      <trkpt lat="49.43485" lon="1.1089">
        <ele>75.1</ele>
        <time>2021-05-23T07:59:50Z</time>
      </trkpt>
      <trkpt lat="49.43486" lon="1.10889">
        <ele>74.5</ele>
        <time>2021-05-23T07:59:51Z</time>
      </trkpt>
      <trkpt lat="49.43487" lon="1.10889">
        <ele>73.7</ele>
        <time>2021-05-23T07:59:52Z</time>
      </trkpt>
      <trkpt lat="49.43487" lon="1.1089">
        <ele>73</ele>
        <time>2021-05-23T07:59:54Z</time>
      </trkpt>
      <trkpt lat="49.43487" lon="1.1089">
        <ele>72.3</ele>
        <time>2021-05-23T07:59:55Z</time>
      </trkpt>
      <trkpt lat="49.43492" lon="1.10895">
        <ele>71.5</ele>
        <time>2021-05-23T07:59:57Z</time>
      </trkpt>
      <trkpt lat="49.43496" lon="1.109">
        <ele>70.9</ele>
        <time>2021-05-23T07:59:58Z</time>
      </trkpt>
      <trkpt lat="49.435" lon="1.10907">
        <ele>70.2</ele>
        <time>2021-05-23T08:00:00Z</time>
      </trkpt>
      <trkpt lat="49.43504" lon="1.10913">
        <ele>69.5</ele>
        <time>2021-05-23T08:00:01Z</time>
      </trkpt>
      <trkpt lat="49.43506" lon="1.10917">
        <ele>68.6</ele>
        <time>2021-05-23T08:00:02Z</time>
      </trkpt>
      <trkpt lat="49.43511" lon="1.10925">
        <ele>67.7</ele>
        <time>2021-05-23T08:00:04Z</time>
      </trkpt>
      <trkpt lat="49.43513" lon="1.10931">
        <ele>67</ele>
        <time>2021-05-23T08:00:05Z</time>
      </trkpt>
      <trkpt lat="49.43517" lon="1.10937">
        <ele>66.3</ele>
        <time>2021-05-23T08:00:07Z</time>
      </trkpt>
      <trkpt lat="49.4352" lon="1.10941">
        <ele>65.5</ele>
        <time>2021-05-23T08:00:08Z</time>
      </trkpt>
      <trkpt lat="49.43525" lon="1.10942">
        <ele>64.9</ele>
        <time>2021-05-23T08:00:10Z</time>
      </trkpt>
      <trkpt lat="49.43526" lon="1.10942">
        <ele>64.3</ele>
        <time>2021-05-23T08:00:11Z</time>
      </trkpt>
      <trkpt lat="49.43528" lon="1.10941">
        <ele>63.6</ele>
        <time>2021-05-23T08:00:13Z</time>
      </trkpt>
      <trkpt lat="49.4353" lon="1.10941">
        <ele>62.8</ele>
        <time>2021-05-23T08:00:14Z</time>
      </trkpt>
      <trkpt lat="49.43531" lon="1.10941">
        <ele>62.1</ele>
        <time>2021-05-23T08:00:15Z</time>
      </trkpt>
      <trkpt lat="49.43532" lon="1.10941">
        <ele>61.3</ele>
        <time>2021-05-23T08:00:17Z</time>
      </trkpt>
      <trkpt lat="49.43533" lon="1.10941">
        <ele>60.4</ele>
        <time>2021-05-23T08:00:18Z</time>
      </trkpt>
      <trkpt lat="49.43536" lon="1.10942">
        <ele>59.5</ele>
        <time>2021-05-23T08:00:20Z</time>
      </trkpt>
      <trkpt lat="49.43539" lon="1.10944">
        <ele>58.5</ele>
        <time>2021-05-23T08:00:21Z</time>
      </trkpt>
      <trkpt lat="49.4354" lon="1.10944">
        <ele>57.5</ele>
        <time>2021-05-23T08:00:22Z</time>
      </trkpt>
      <trkpt lat="49.43542" lon="1.10944">
        <ele>56.5</ele>
        <time>2021-05-23T08:00:23Z</time>
      </trkpt>
      <trkpt lat="49.43545" lon="1.10944">
        <ele>55.5</ele>
        <time>2021-05-23T08:00:25Z</time>
      </trkpt>
      <trkpt lat="49.43546" lon="1.1094">
        <ele>54.5</ele>
        <time>2021-05-23T08:00:26Z</time>
      </trkpt>
      <trkpt lat="49.43548" lon="1.10938">
        <ele>53.5</ele>
        <time>2021-05-23T08:00:28Z</time>
      </trkpt>
      <trkpt lat="49.4355" lon="1.10938">
        <ele>52.7</ele>
        <time>2021-05-23T08:00:29Z</time>
      </trkpt>
      <trkpt lat="49.43552" lon="1.10941">
        <ele>51.8</ele>
        <time>2021-05-23T08:00:31Z</time>
      </trkpt>
      <trkpt lat="49.43554" lon="1.10944">
        <ele>50.9</ele>
        <time>2021-05-23T08:00:32Z</time>
      </trkpt>
      <trkpt lat="49.43554" lon="1.10945">
        <ele>49.9</ele>
        <time>2021-05-23T08:00:33Z</time>
      </trkpt>
      <trkpt lat="49.43557" lon="1.10946">
        <ele>48.9</ele>
        <time>2021-05-23T08:00:35Z</time>
      </trkpt>
      <trkpt lat="49.43558" lon="1.10948">
        <ele>47.5</ele>
        <time>2021-05-23T08:00:37Z</time>
      </trkpt>
      <trkpt lat="49.43561" lon="1.10951">
        <ele>45.9</ele>
        <time>2021-05-23T08:00:38Z</time>
      </trkpt>
      <trkpt lat="49.43562" lon="1.10951">
        <ele>44.2</ele>
        <time>2021-05-23T08:00:39Z</time>
      </trkpt>
      <trkpt lat="49.43566" lon="1.1095">
        <ele>42.4</ele>
        <time>2021-05-23T08:00:40Z</time>
      </trkpt>
      <trkpt lat="49.43569" lon="1.1095">
        <ele>40.4</ele>
        <time>2021-05-23T08:00:41Z</time>
      </trkpt>
      <trkpt lat="49.43578" lon="1.10951">
        <ele>38.5</ele>
        <time>2021-05-23T08:00:42Z</time>
      </trkpt>
      <trkpt lat="49.43585" lon="1.10951">
        <ele>36.5</ele>
        <time>2021-05-23T08:00:43Z</time>
      </trkpt>
      <trkpt lat="49.43593" lon="1.10952">
        <ele>34.6</ele>
        <time>2021-05-23T08:00:45Z</time>
      </trkpt>
      <trkpt lat="49.43597" lon="1.10953">
        <ele>32.7</ele>
        <time>2021-05-23T08:00:46Z</time>
      </trkpt>
      <trkpt lat="49.43601" lon="1.10954">
        <ele>31</ele>
        <time>2021-05-23T08:00:48Z</time>
      </trkpt>
      <trkpt lat="49.43605" lon="1.1095">
        <ele>29.4</ele>
        <time>2021-05-23T08:00:49Z</time>
      </trkpt>
      <trkpt lat="49.43606" lon="1.1095">
        <ele>28.2</ele>
        <time>2021-05-23T08:00:50Z</time>
      </trkpt>
      <trkpt lat="49.43608" lon="1.1095">
        <ele>27.5</ele>
        <time>2021-05-23T08:00:51Z</time>
      </trkpt>
      <trkpt lat="49.43616" lon="1.10949">
        <ele>26.9</ele>
        <time>2021-05-23T08:00:53Z</time>
      </trkpt>
      <trkpt lat="49.43621" lon="1.10953">
        <ele>26.5</ele>
        <time>2021-05-23T08:00:54Z</time>
      </trkpt>
      <trkpt lat="49.43626" lon="1.10961">
        <ele>26.1</ele>
        <time>2021-05-23T08:00:55Z</time>
      </trkpt>
      <trkpt lat="49.43629" lon="1.10986">
        <ele>25.8</ele>
        <time>2021-05-23T08:00:57Z</time>
      </trkpt>
      <trkpt lat="49.43632" lon="1.10997">
        <ele>25.5</ele>
        <time>2021-05-23T08:00:58Z</time>
      </trkpt>
      <trkpt lat="49.43635" lon="1.11011">
        <ele>25</ele>
        <time>2021-05-23T08:01:00Z</time>
      </trkpt>
      <trkpt lat="49.43639" lon="1.11007">
        <ele>24.7</ele>
        <time>2021-05-23T08:01:02Z</time>
      </trkpt>
      <trkpt lat="49.43639" lon="1.11002">
        <ele>24.5</ele>
        <time>2021-05-23T08:01:03Z</time>
      </trkpt>
      <trkpt lat="49.43639" lon="1.11">
        <ele>24.2</ele>
        <time>2021-05-23T08:01:04Z</time>
      </trkpt>
      <trkpt lat="49.43641" lon="1.10986">
        <ele>23.9</ele>
        <time>2021-05-23T08:01:07Z</time>
      </trkpt>
      <trkpt lat="49.43642" lon="1.10968">
        <ele>23.5</ele>
        <time>2021-05-23T08:01:09Z</time>
      </trkpt>
      <trkpt lat="49.43642" lon="1.10947">
        <ele>23.1</ele>
        <time>2021-05-23T08:01:11Z</time>
      </trkpt>
      <trkpt lat="49.43642" lon="1.1094">
        <ele>22.6</ele>
        <time>2021-05-23T08:01:12Z</time>
      </trkpt>
      <trkpt lat="49.43642" lon="1.10939">
        <ele>22.3</ele>
        <time>2021-05-23T08:01:13Z</time>
      </trkpt>
      <trkpt lat="49.43642" lon="1.10936">
        <ele>21.9</ele>
        <time>2021-05-23T08:01:15Z</time>
      </trkpt>
      <trkpt lat="49.43644" lon="1.10931">
        <ele>21.5</ele>
        <time>2021-05-23T08:01:16Z</time>
      </trkpt>
      <trkpt lat="49.43646" lon="1.1093">
        <ele>21.4</ele>
        <time>2021-05-23T08:01:17Z</time>
      </trkpt>
      <trkpt lat="49.43647" lon="1.1093">
        <ele>21.1</ele>
        <time>2021-05-23T08:01:18Z</time>
      </trkpt>
      <trkpt lat="49.43647" lon="1.10929">
        <ele>20.9</ele>
        <time>2021-05-23T08:01:19Z</time>
      </trkpt>
      <trkpt lat="49.43651" lon="1.10929">
        <ele>20.6</ele>
        <time>2021-05-23T08:01:21Z</time>
      </trkpt>
      <trkpt lat="49.43653" lon="1.10931">
        <ele>20.4</ele>
        <time>2021-05-23T08:01:23Z</time>
      </trkpt>
      <trkpt lat="49.43654" lon="1.10931">
        <ele>20.1</ele>
        <time>2021-05-23T08:01:24Z</time>
      </trkpt>
      <trkpt lat="49.43657" lon="1.10934">
        <ele>19.8</ele>
        <time>2021-05-23T08:01:26Z</time>
      </trkpt>
      <trkpt lat="49.43657" lon="1.10933">
        <ele>19.5</ele>
        <time>2021-05-23T08:01:28Z</time>
      </trkpt>
      <trkpt lat="49.4366" lon="1.10935">
        <ele>19.2</ele>
        <time>2021-05-23T08:01:30Z</time>
      </trkpt>
      <trkpt lat="49.43662" lon="1.10936">
        <ele>18.8</ele>
        <time>2021-05-23T08:01:31Z</time>
      </trkpt>
      <trkpt lat="49.43664" lon="1.10938">
        <ele>18.5</ele>
        <time>2021-05-23T08:01:33Z</time>
      </trkpt>
      <trkpt lat="49.43669" lon="1.10937">
        <ele>18.4</ele>
        <time>2021-05-23T08:01:35Z</time>
      </trkpt>
      <trkpt lat="49.43671" lon="1.10938">
        <ele>18.2</ele>
        <time>2021-05-23T08:01:36Z</time>
      </trkpt>
      <trkpt lat="49.43676" lon="1.10941">
        <ele>18</ele>
        <time>2021-05-23T08:01:38Z</time>
      </trkpt>
      <trkpt lat="49.43673" lon="1.10945">
        <ele>17.9</ele>
        <time>2021-05-23T08:01:40Z</time>
      </trkpt>
      <trkpt lat="49.43672" lon="1.10945">
        <ele>17.3</ele>
        <time>2021-05-23T08:01:41Z</time>
      </trkpt>
      <trkpt lat="49.43671" lon="1.10946">
        <ele>16.5</ele>
        <time>2021-05-23T08:01:42Z</time>
      </trkpt>
      <trkpt lat="49.4367" lon="1.10946">
        <ele>15.8</ele>
        <time>2021-05-23T08:01:43Z</time>
      </trkpt>
      <trkpt lat="49.4367" lon="1.10946">
        <ele>15.1</ele>
        <time>2021-05-23T08:01:44Z</time>
      </trkpt>
      <trkpt lat="49.4367" lon="1.10945">
        <ele>14.5</ele>
        <time>2021-05-23T08:01:46Z</time>
      </trkpt>
      <trkpt lat="49.43704" lon="1.10834">
        <ele>13.7</ele>
        <time>2021-05-23T08:02:17Z</time>
      </trkpt>
      <trkpt lat="49.43711" lon="1.10825">
        <ele>13</ele>
        <time>2021-05-23T08:02:18Z</time>
      </trkpt>
      <trkpt lat="49.4372" lon="1.10829">
        <ele>12.3</ele>
        <time>2021-05-23T08:02:20Z</time>
      </trkpt>
      <trkpt lat="49.43724" lon="1.10839">
        <ele>11.5</ele>
        <time>2021-05-23T08:02:21Z</time>
      </trkpt>
      <trkpt lat="49.43728" lon="1.10847">
        <ele>10.8</ele>
        <time>2021-05-23T08:02:22Z</time>
      </trkpt>
      <trkpt lat="49.43735" lon="1.10866">
        <ele>10</ele>
        <time>2021-05-23T08:02:24Z</time>
      </trkpt>
      <trkpt lat="49.4374" lon="1.10884">
        <ele>9.7</ele>
        <time>2021-05-23T08:02:26Z</time>
      </trkpt>
      <trkpt lat="49.43748" lon="1.109">
        <ele>9.5</ele>
        <time>2021-05-23T08:02:28Z</time>
      </trkpt>
      <trkpt lat="49.43751" lon="1.10911">
        <ele>9.3</ele>
        <time>2021-05-23T08:02:29Z</time>
      </trkpt>
      <trkpt lat="49.43763" lon="1.10929">
        <ele>9.1</ele>
        <time>2021-05-23T08:02:31Z</time>
      </trkpt>
      <trkpt lat="49.43767" lon="1.10938">
        <ele>8.9</ele>
        <time>2021-05-23T08:02:32Z</time>
      </trkpt>
      <trkpt lat="49.43774" lon="1.10956">
        <ele>8.8</ele>
        <time>2021-05-23T08:02:34Z</time>
      </trkpt>
      <trkpt lat="49.43776" lon="1.10971">
        <ele>8.7</ele>
        <time>2021-05-23T08:02:36Z</time>
      </trkpt>
      <trkpt lat="49.4378" lon="1.1099">
        <ele>8.5</ele>
        <time>2021-05-23T08:02:38Z</time>
      </trkpt>
      <trkpt lat="49.43785" lon="1.10993">
        <ele>8.4</ele>
        <time>2021-05-23T08:02:39Z</time>
      </trkpt>
      <trkpt lat="49.43788" lon="1.11005">
        <ele>8.2</ele>
        <time>2021-05-23T08:02:42Z</time>
      </trkpt>
      <trkpt lat="49.43788" lon="1.11012">
        <ele>8.1</ele>
        <time>2021-05-23T08:02:43Z</time>
      </trkpt>
      <trkpt lat="49.43796" lon="1.11024">
        <ele>7.9</ele>
        <time>2021-05-23T08:02:45Z</time>
      </trkpt>
      <trkpt lat="49.43801" lon="1.11028">
        <ele>7.8</ele>
        <time>2021-05-23T08:02:47Z</time>
      </trkpt>
      <trkpt lat="49.43804" lon="1.11032">
        <ele>7.8</ele>
        <time>2021-05-23T08:02:48Z</time>
      </trkpt>
      <trkpt lat="49.43807" lon="1.11034">
        <ele>7.8</ele>
        <time>2021-05-23T08:02:49Z</time>
      </trkpt>
      <trkpt lat="49.43809" lon="1.11038">
        <ele>7.8</ele>
        <time>2021-05-23T08:02:50Z</time>
      </trkpt>
      <trkpt lat="49.43811" lon="1.11042">
        <ele>7.8</ele>
        <time>2021-05-23T08:02:51Z</time>
      </trkpt>
      <trkpt lat="49.43817" lon="1.1105">
        <ele>7.8</ele>
        <time>2021-05-23T08:02:53Z</time>
      </trkpt>
      <trkpt lat="49.4382" lon="1.11052">
        <ele>7.8</ele>
        <time>2021-05-23T08:02:54Z</time>
      </trkpt>
      <trkpt lat="49.43823" lon="1.11053">
        <ele>7.8</ele>
        <time>2021-05-23T08:02:56Z</time>
      </trkpt>
      <trkpt lat="49.43824" lon="1.11053">
        <ele>7.8</ele>
        <time>2021-05-23T08:02:57Z</time>
      </trkpt>
      <trkpt lat="49.43829" lon="1.11052">
        <ele>7.8</ele>
        <time>2021-05-23T08:02:59Z</time>
      </trkpt>
      <trkpt lat="49.43831" lon="1.11051">
        <ele>7.9</ele>
        <time>2021-05-23T08:03:01Z</time>
      </trkpt>
      <trkpt lat="49.43832" lon="1.11051">
        <ele>8</ele>
        <time>2021-05-23T08:03:03Z</time>
      </trkpt>
      <trkpt lat="49.43832" lon="1.11052">
        <ele>8</ele>
        <time>2021-05-23T08:03:04Z</time>
      </trkpt>
      <trkpt lat="49.43833" lon="1.11052">
        <ele>8</ele>
        <time>2021-05-23T08:03:05Z</time>
      </trkpt>
      <trkpt lat="49.43833" lon="1.11052">
        <ele>8</ele>
        <time>2021-05-23T08:03:07Z</time>
      </trkpt>
      <trkpt lat="49.43834" lon="1.11052">
        <ele>8</ele>
        <time>2021-05-23T08:03:08Z</time>
      </trkpt>
      <trkpt lat="49.43843" lon="1.11054">
        <ele>8.1</ele>
        <time>2021-05-23T08:03:10Z</time>
      </trkpt>
      <trkpt lat="49.43846" lon="1.11055">
        <ele>8.2</ele>
        <time>2021-05-23T08:03:11Z</time>
      </trkpt>
      <trkpt lat="49.43847" lon="1.11061">
        <ele>8.3</ele>
        <time>2021-05-23T08:03:13Z</time>
      </trkpt>
      <trkpt lat="49.43847" lon="1.11064">
        <ele>8.5</ele>
        <time>2021-05-23T08:03:14Z</time>
      </trkpt>
      <trkpt lat="49.43846" lon="1.11082">
        <ele>8.7</ele>
        <time>2021-05-23T08:03:16Z</time>
      </trkpt>
      <trkpt lat="49.43845" lon="1.11095">
        <ele>9</ele>
        <time>2021-05-23T08:03:17Z</time>
      </trkpt>
      <trkpt lat="49.43844" lon="1.11106">
        <ele>9.3</ele>
        <time>2021-05-23T08:03:19Z</time>
      </trkpt>
      <trkpt lat="49.43845" lon="1.11125">
        <ele>9.5</ele>
        <time>2021-05-23T08:03:20Z</time>
      </trkpt>
      <trkpt lat="49.43846" lon="1.11145">
        <ele>9.9</ele>
        <time>2021-05-23T08:03:22Z</time>
      </trkpt>
      <trkpt lat="49.43855" lon="1.11159">
        <ele>10.3</ele>
        <time>2021-05-23T08:03:24Z</time>
      </trkpt>
      <trkpt lat="49.43864" lon="1.11169">
        <ele>10.6</ele>
        <time>2021-05-23T08:03:26Z</time>
      </trkpt>
      <trkpt lat="49.43868" lon="1.11174">
        <ele>10.9</ele>
        <time>2021-05-23T08:03:27Z</time>
      </trkpt>
      <trkpt lat="49.4388" lon="1.11181">
        <ele>11.1</ele>
        <time>2021-05-23T08:03:30Z</time>
      </trkpt>
      <trkpt lat="49.43885" lon="1.11186">
        <ele>11.2</ele>
        <time>2021-05-23T08:03:31Z</time>
      </trkpt>
      <trkpt lat="49.43898" lon="1.11193">
        <ele>11.1</ele>
        <time>2021-05-23T08:03:33Z</time>
      </trkpt>
      <trkpt lat="49.43907" lon="1.11196">
        <ele>10.8</ele>
        <time>2021-05-23T08:03:34Z</time>
      </trkpt>
      <trkpt lat="49.43919" lon="1.11203">
        <ele>10.5</ele>
        <time>2021-05-23T08:03:36Z</time>
      </trkpt>
      <trkpt lat="49.43928" lon="1.11206">
        <ele>10.3</ele>
        <time>2021-05-23T08:03:38Z</time>
      </trkpt>
      <trkpt lat="49.43945" lon="1.11217">
        <ele>10</ele>
        <time>2021-05-23T08:03:40Z</time>
      </trkpt>
      <trkpt lat="49.43953" lon="1.1122">
        <ele>9.7</ele>
        <time>2021-05-23T08:03:41Z</time>
      </trkpt>
      <trkpt lat="49.43968" lon="1.11223">
        <ele>9.5</ele>
        <time>2021-05-23T08:03:43Z</time>
      </trkpt>
      <trkpt lat="49.43974" lon="1.11222">
        <ele>9.5</ele>
        <time>2021-05-23T08:03:44Z</time>
      </trkpt>
      <trkpt lat="49.43986" lon="1.11219">
        <ele>9.5</ele>
        <time>2021-05-23T08:03:46Z</time>
      </trkpt>
      <trkpt lat="49.4399" lon="1.11221">
        <ele>9.7</ele>
        <time>2021-05-23T08:03:47Z</time>
      </trkpt>
      <trkpt lat="49.43995" lon="1.11234">
        <ele>10.1</ele>
        <time>2021-05-23T08:03:49Z</time>
      </trkpt>
      <trkpt lat="49.43996" lon="1.11244">
        <ele>10.5</ele>
        <time>2021-05-23T08:03:50Z</time>
      </trkpt>
      <trkpt lat="49.43996" lon="1.11264">
        <ele>11.1</ele>
        <time>2021-05-23T08:03:52Z</time>
      </trkpt>
      <trkpt lat="49.43997" lon="1.11283">
        <ele>11.6</ele>
        <time>2021-05-23T08:03:54Z</time>
      </trkpt>
      <trkpt lat="49.43999" lon="1.11304">
        <ele>12.2</ele>
        <time>2021-05-23T08:03:56Z</time>
      </trkpt>
      <trkpt lat="49.44001" lon="1.11321">
        <ele>12.7</ele>
        <time>2021-05-23T08:03:58Z</time>
      </trkpt>
      <trkpt lat="49.44002" lon="1.11328">
        <ele>13.1</ele>
        <time>2021-05-23T08:04:00Z</time>
      </trkpt>
      <trkpt lat="49.43996" lon="1.1133">
        <ele>13.3</ele>
        <time>2021-05-23T08:04:01Z</time>
      </trkpt>
      <trkpt lat="49.43982" lon="1.1134">
        <ele>13.3</ele>
        <time>2021-05-23T08:04:03Z</time>
      </trkpt>
      <trkpt lat="49.43976" lon="1.11345">
        <ele>13.2</ele>
        <time>2021-05-23T08:04:04Z</time>
      </trkpt>
      <trkpt lat="49.43965" lon="1.11358">
        <ele>12.9</ele>
        <time>2021-05-23T08:04:06Z</time>
      </trkpt>
      <trkpt lat="49.4396" lon="1.11366">
        <ele>12.6</ele>
        <time>2021-05-23T08:04:07Z</time>
      </trkpt>
      <trkpt lat="49.43956" lon="1.11384">
        <ele>12.4</ele>
        <time>2021-05-23T08:04:09Z</time>
      </trkpt>
      <trkpt lat="49.43952" lon="1.11404">
        <ele>12.1</ele>
        <time>2021-05-23T08:04:11Z</time>
      </trkpt>
      <trkpt lat="49.43947" lon="1.11424">
        <ele>11.8</ele>
        <time>2021-05-23T08:04:13Z</time>
      </trkpt>
      <trkpt lat="49.43945" lon="1.11433">
        <ele>11.5</ele>
        <time>2021-05-23T08:04:14Z</time>
      </trkpt>
      <trkpt lat="49.43946" lon="1.11453">
        <ele>11.1</ele>
        <time>2021-05-23T08:04:16Z</time>
      </trkpt>
      <trkpt lat="49.43947" lon="1.11472">
        <ele>10.8</ele>
        <time>2021-05-23T08:04:19Z</time>
      </trkpt>
      <trkpt lat="49.43947" lon="1.11482">
        <ele>10.6</ele>
        <time>2021-05-23T08:04:20Z</time>
      </trkpt>
      <trkpt lat="49.43945" lon="1.11501">
        <ele>10.6</ele>
        <time>2021-05-23T08:04:22Z</time>
      </trkpt>
      <trkpt lat="49.43944" lon="1.11516">
        <ele>10.6</ele>
        <time>2021-05-23T08:04:24Z</time>
      </trkpt>
      <trkpt lat="49.43946" lon="1.11519">
        <ele>10.5</ele>
        <time>2021-05-23T08:04:26Z</time>
      </trkpt>
      <trkpt lat="49.43953" lon="1.11525">
        <ele>10.5</ele>
        <time>2021-05-23T08:04:28Z</time>
      </trkpt>
      <trkpt lat="49.4396" lon="1.11531">
        <ele>10.4</ele>
        <time>2021-05-23T08:04:30Z</time>
      </trkpt>
      <trkpt lat="49.43971" lon="1.11534">
        <ele>10.3</ele>
        <time>2021-05-23T08:04:32Z</time>
      </trkpt>
      <trkpt lat="49.43976" lon="1.11534">
        <ele>10.3</ele>
        <time>2021-05-23T08:04:33Z</time>
      </trkpt>
      <trkpt lat="49.4398" lon="1.11535">
        <ele>10.3</ele>
        <time>2021-05-23T08:04:34Z</time>
      </trkpt>
      <trkpt lat="49.43986" lon="1.11537">
        <ele>10.2</ele>
        <time>2021-05-23T08:04:36Z</time>
      </trkpt>
      <trkpt lat="49.43992" lon="1.1153">
        <ele>10.1</ele>
        <time>2021-05-23T08:04:38Z</time>
      </trkpt>
      <trkpt lat="49.43995" lon="1.11521">
        <ele>10</ele>
        <time>2021-05-23T08:04:40Z</time>
      </trkpt>
      <trkpt lat="49.44002" lon="1.11506">
        <ele>9.7</ele>
        <time>2021-05-23T08:04:41Z</time>
      </trkpt>
      <trkpt lat="49.44011" lon="1.11494">
        <ele>9.5</ele>
        <time>2021-05-23T08:04:43Z</time>
      </trkpt>
      <trkpt lat="49.44023" lon="1.11489">
        <ele>9.5</ele>
        <time>2021-05-23T08:04:45Z</time>
      </trkpt>
      <trkpt lat="49.44036" lon="1.11491">
        <ele>9.5</ele>
        <time>2021-05-23T08:04:47Z</time>
      </trkpt>
      <trkpt lat="49.44049" lon="1.1149">
        <ele>9.5</ele>
        <time>2021-05-23T08:04:49Z</time>
      </trkpt>
      <trkpt lat="49.44055" lon="1.11491">
        <ele>9.5</ele>
        <time>2021-05-23T08:04:50Z</time>
      </trkpt>
      <trkpt lat="49.44069" lon="1.1149">
        <ele>9.5</ele>
        <time>2021-05-23T08:04:52Z</time>
      </trkpt>
      <trkpt lat="49.44075" lon="1.11491">
        <ele>9.6</ele>
        <time>2021-05-23T08:04:53Z</time>
      </trkpt>
      <trkpt lat="49.44079" lon="1.1149">
        <ele>9.9</ele>
        <time>2021-05-23T08:04:54Z</time>
      </trkpt>
      <trkpt lat="49.44092" lon="1.11487">
        <ele>10.2</ele>
        <time>2021-05-23T08:04:56Z</time>
      </trkpt>
      <trkpt lat="49.44102" lon="1.11487">
        <ele>10.5</ele>
        <time>2021-05-23T08:04:58Z</time>
      </trkpt>
      <trkpt lat="49.44107" lon="1.11485">
        <ele>11</ele>
        <time>2021-05-23T08:05:00Z</time>
      </trkpt>
      <trkpt lat="49.44111" lon="1.11488">
        <ele>11.4</ele>
        <time>2021-05-23T08:05:01Z</time>
      </trkpt>
      <trkpt lat="49.44117" lon="1.11495">
        <ele>11.7</ele>
        <time>2021-05-23T08:05:03Z</time>
      </trkpt>
      <trkpt lat="49.44123" lon="1.11498">
        <ele>12</ele>
        <time>2021-05-23T08:05:04Z</time>
      </trkpt>
      <trkpt lat="49.44127" lon="1.11499">
        <ele>12.3</ele>
        <time>2021-05-23T08:05:05Z</time>
      </trkpt>
      <trkpt lat="49.44131" lon="1.11502">
        <ele>12.5</ele>
        <time>2021-05-23T08:05:08Z</time>
      </trkpt>
      <trkpt lat="49.44134" lon="1.11507">
        <ele>12.8</ele>
        <time>2021-05-23T08:05:09Z</time>
      </trkpt>
      <trkpt lat="49.44137" lon="1.11513">
        <ele>13.2</ele>
        <time>2021-05-23T08:05:10Z</time>
      </trkpt>
      <trkpt lat="49.44141" lon="1.11521">
        <ele>13.5</ele>
        <time>2021-05-23T08:05:11Z</time>
      </trkpt>
      <trkpt lat="49.44145" lon="1.1153">
        <ele>13.8</ele>
        <time>2021-05-23T08:05:12Z</time>
      </trkpt>
      <trkpt lat="49.44149" lon="1.11539">
        <ele>14.1</ele>
        <time>2021-05-23T08:05:14Z</time>
      </trkpt>
      <trkpt lat="49.44153" lon="1.1155">
        <ele>14.4</ele>
        <time>2021-05-23T08:05:15Z</time>
      </trkpt>
      <trkpt lat="49.44158" lon="1.11565">
        <ele>14.7</ele>
        <time>2021-05-23T08:05:16Z</time>
      </trkpt>
      <trkpt lat="49.44161" lon="1.11573">
        <ele>15.1</ele>
        <time>2021-05-23T08:05:17Z</time>
      </trkpt>
      <trkpt lat="49.44165" lon="1.11589">
        <ele>15.5</ele>
        <time>2021-05-23T08:05:19Z</time>
      </trkpt>
      <trkpt lat="49.44167" lon="1.11597">
        <ele>15.8</ele>
        <time>2021-05-23T08:05:20Z</time>
      </trkpt>
      <trkpt lat="49.4417" lon="1.11611">
        <ele>16.1</ele>
        <time>2021-05-23T08:05:22Z</time>
      </trkpt>
      <trkpt lat="49.4417" lon="1.11619">
        <ele>16.4</ele>
        <time>2021-05-23T08:05:23Z</time>
      </trkpt>
      <trkpt lat="49.4417" lon="1.11628">
        <ele>16.5</ele>
        <time>2021-05-23T08:05:24Z</time>
      </trkpt>
      <trkpt lat="49.4417" lon="1.11645">
        <ele>16.7</ele>
        <time>2021-05-23T08:05:26Z</time>
      </trkpt>
      <trkpt lat="49.4417" lon="1.11662">
        <ele>16.8</ele>
        <time>2021-05-23T08:05:28Z</time>
      </trkpt>
      <trkpt lat="49.4417" lon="1.1167">
        <ele>16.8</ele>
        <time>2021-05-23T08:05:29Z</time>
      </trkpt>
      <trkpt lat="49.44171" lon="1.11678">
        <ele>16.8</ele>
        <time>2021-05-23T08:05:30Z</time>
      </trkpt>
      <trkpt lat="49.4417" lon="1.11685">
        <ele>16.6</ele>
        <time>2021-05-23T08:05:31Z</time>
      </trkpt>
      <trkpt lat="49.44168" lon="1.11701">
        <ele>16.5</ele>
        <time>2021-05-23T08:05:33Z</time>
      </trkpt>
      <trkpt lat="49.44167" lon="1.11718">
        <ele>16.3</ele>
        <time>2021-05-23T08:05:35Z</time>
      </trkpt>
      <trkpt lat="49.44164" lon="1.11726">
        <ele>16.1</ele>
        <time>2021-05-23T08:05:36Z</time>
      </trkpt>
      <trkpt lat="49.4416" lon="1.11744">
        <ele>15.9</ele>
        <time>2021-05-23T08:05:38Z</time>
      </trkpt>
      <trkpt lat="49.44158" lon="1.11752">
        <ele>15.7</ele>
        <time>2021-05-23T08:05:39Z</time>
      </trkpt>
      <trkpt lat="49.44156" lon="1.1177">
        <ele>15.6</ele>
        <time>2021-05-23T08:05:41Z</time>
      </trkpt>
      <trkpt lat="49.44156" lon="1.11778">
        <ele>15.5</ele>
        <time>2021-05-23T08:05:42Z</time>
      </trkpt>
      <trkpt lat="49.44152" lon="1.11798">
        <ele>15.5</ele>
        <time>2021-05-23T08:05:44Z</time>
      </trkpt>
      <trkpt lat="49.44146" lon="1.11817">
        <ele>15.5</ele>
        <time>2021-05-23T08:05:46Z</time>
      </trkpt>
      <trkpt lat="49.44143" lon="1.11825">
        <ele>15.4</ele>
        <time>2021-05-23T08:05:47Z</time>
      </trkpt>
      <trkpt lat="49.44138" lon="1.11842">
        <ele>15.4</ele>
        <time>2021-05-23T08:05:49Z</time>
      </trkpt>
      <trkpt lat="49.44132" lon="1.11863">
        <ele>15.4</ele>
        <time>2021-05-23T08:05:51Z</time>
      </trkpt>
      <trkpt lat="49.44129" lon="1.11872">
        <ele>15.4</ele>
        <time>2021-05-23T08:05:52Z</time>
      </trkpt>
      <trkpt lat="49.44125" lon="1.11881">
        <ele>15.4</ele>
        <time>2021-05-23T08:05:53Z</time>
      </trkpt>
      <trkpt lat="49.44118" lon="1.11899">
        <ele>15.3</ele>
        <time>2021-05-23T08:05:56Z</time>
      </trkpt>
      <trkpt lat="49.44115" lon="1.11906">
        <ele>15.2</ele>
        <time>2021-05-23T08:05:57Z</time>
      </trkpt>
      <trkpt lat="49.44113" lon="1.11912">
        <ele>15</ele>
        <time>2021-05-23T08:05:58Z</time>
      </trkpt>
      <trkpt lat="49.44109" lon="1.11921">
        <ele>14.9</ele>
        <time>2021-05-23T08:06:00Z</time>
      </trkpt>
      <trkpt lat="49.44103" lon="1.11933">
        <ele>14.8</ele>
        <time>2021-05-23T08:06:02Z</time>
      </trkpt>
      <trkpt lat="49.44097" lon="1.11946">
        <ele>14.8</ele>
        <time>2021-05-23T08:06:04Z</time>
      </trkpt>
      <trkpt lat="49.44094" lon="1.11945">
        <ele>15</ele>
        <time>2021-05-23T08:06:05Z</time>
      </trkpt>
      <trkpt lat="49.44092" lon="1.1195">
        <ele>15.2</ele>
        <time>2021-05-23T08:06:06Z</time>
      </trkpt>
      <trkpt lat="49.44088" lon="1.11978">
        <ele>15.4</ele>
        <time>2021-05-23T08:06:08Z</time>
      </trkpt>
      <trkpt lat="49.44085" lon="1.11987">
        <ele>15.5</ele>
        <time>2021-05-23T08:06:09Z</time>
      </trkpt>
      <trkpt lat="49.44081" lon="1.12008">
        <ele>15.7</ele>
        <time>2021-05-23T08:06:11Z</time>
      </trkpt>
      <trkpt lat="49.4408" lon="1.12026">
        <ele>16</ele>
        <time>2021-05-23T08:06:12Z</time>
      </trkpt>
      <trkpt lat="49.44078" lon="1.12051">
        <ele>16.2</ele>
        <time>2021-05-23T08:06:14Z</time>
      </trkpt>
      <trkpt lat="49.44076" lon="1.12061">
        <ele>16.4</ele>
        <time>2021-05-23T08:06:15Z</time>
      </trkpt>
      <trkpt lat="49.44071" lon="1.12079">
        <ele>16.5</ele>
        <time>2021-05-23T08:06:17Z</time>
      </trkpt>
      <trkpt lat="49.44065" lon="1.12092">
        <ele>16.5</ele>
        <time>2021-05-23T08:06:19Z</time>
      </trkpt>
      <trkpt lat="49.44063" lon="1.12097">
        <ele>16.3</ele>
        <time>2021-05-23T08:06:20Z</time>
      </trkpt>
      <trkpt lat="49.44057" lon="1.12112">
        <ele>15.9</ele>
        <time>2021-05-23T08:06:22Z</time>
      </trkpt>
      <trkpt lat="49.44054" lon="1.12121">
        <ele>15.5</ele>
        <time>2021-05-23T08:06:23Z</time>
      </trkpt>
      <trkpt lat="49.44047" lon="1.12146">
        <ele>15.2</ele>
        <time>2021-05-23T08:06:25Z</time>
      </trkpt>
      <trkpt lat="49.44042" lon="1.12168">
        <ele>14.8</ele>
        <time>2021-05-23T08:06:27Z</time>
      </trkpt>
      <trkpt lat="49.44038" lon="1.12187">
        <ele>14.5</ele>
        <time>2021-05-23T08:06:29Z</time>
      </trkpt>
      <trkpt lat="49.44035" lon="1.12206">
        <ele>14.1</ele>
        <time>2021-05-23T08:06:31Z</time>
      </trkpt>
      <trkpt lat="49.44034" lon="1.12215">
        <ele>13.8</ele>
        <time>2021-05-23T08:06:32Z</time>
      </trkpt>
      <trkpt lat="49.4403" lon="1.12232">
        <ele>13.5</ele>
        <time>2021-05-23T08:06:34Z</time>
      </trkpt>
      <trkpt lat="49.44027" lon="1.12249">
        <ele>13.3</ele>
        <time>2021-05-23T08:06:36Z</time>
      </trkpt>
      <trkpt lat="49.44027" lon="1.12257">
        <ele>13.1</ele>
        <time>2021-05-23T08:06:37Z</time>
      </trkpt>
      <trkpt lat="49.44026" lon="1.12267">
        <ele>13.1</ele>
        <time>2021-05-23T08:06:38Z</time>
      </trkpt>
      <trkpt lat="49.44023" lon="1.12284">
        <ele>13.2</ele>
        <time>2021-05-23T08:06:40Z</time>
      </trkpt>
      <trkpt lat="49.4402" lon="1.12293">
        <ele>13.3</ele>
        <time>2021-05-23T08:06:41Z</time>
      </trkpt>
      <trkpt lat="49.44016" lon="1.1231">
        <ele>13.4</ele>
        <time>2021-05-23T08:06:44Z</time>
      </trkpt>
      <trkpt lat="49.44015" lon="1.12319">
        <ele>13.5</ele>
        <time>2021-05-23T08:06:45Z</time>
      </trkpt>
      <trkpt lat="49.4401" lon="1.1234">
        <ele>13.5</ele>
        <time>2021-05-23T08:06:47Z</time>
      </trkpt>
      <trkpt lat="49.44006" lon="1.12362">
        <ele>13.5</ele>
        <time>2021-05-23T08:06:49Z</time>
      </trkpt>
      <trkpt lat="49.44005" lon="1.12373">
        <ele>13.5</ele>
        <time>2021-05-23T08:06:50Z</time>
      </trkpt>
      <trkpt lat="49.44004" lon="1.12391">
        <ele>13.5</ele>
        <time>2021-05-23T08:06:52Z</time>
      </trkpt>
      <trkpt lat="49.44003" lon="1.124">
        <ele>13.7</ele>
        <time>2021-05-23T08:06:53Z</time>
      </trkpt>
      <trkpt lat="49.44001" lon="1.1241">
        <ele>14</ele>
        <time>2021-05-23T08:06:54Z</time>
      </trkpt>
      <trkpt lat="49.43999" lon="1.12419">
        <ele>14.4</ele>
        <time>2021-05-23T08:06:55Z</time>
      </trkpt>
      <trkpt lat="49.43996" lon="1.12438">
        <ele>14.7</ele>
        <time>2021-05-23T08:06:57Z</time>
      </trkpt>
      <trkpt lat="49.43994" lon="1.12457">
        <ele>15.1</ele>
        <time>2021-05-23T08:06:59Z</time>
      </trkpt>
      <trkpt lat="49.43993" lon="1.12467">
        <ele>15.5</ele>
        <time>2021-05-23T08:07:00Z</time>
      </trkpt>
      <trkpt lat="49.43992" lon="1.12477">
        <ele>15.7</ele>
        <time>2021-05-23T08:07:01Z</time>
      </trkpt>
      <trkpt lat="49.43989" lon="1.12495">
        <ele>16.1</ele>
        <time>2021-05-23T08:07:03Z</time>
      </trkpt>
      <trkpt lat="49.43987" lon="1.12503">
        <ele>16.4</ele>
        <time>2021-05-23T08:07:04Z</time>
      </trkpt>
      <trkpt lat="49.43984" lon="1.12522">
        <ele>16.5</ele>
        <time>2021-05-23T08:07:06Z</time>
      </trkpt>
      <trkpt lat="49.43982" lon="1.12531">
        <ele>16.6</ele>
        <time>2021-05-23T08:07:07Z</time>
      </trkpt>
      <trkpt lat="49.43977" lon="1.12548">
        <ele>16.6</ele>
        <time>2021-05-23T08:07:09Z</time>
      </trkpt>
      <trkpt lat="49.43975" lon="1.12556">
        <ele>16.5</ele>
        <time>2021-05-23T08:07:10Z</time>
      </trkpt>
      <trkpt lat="49.43972" lon="1.12562">
        <ele>16.1</ele>
        <time>2021-05-23T08:07:11Z</time>
      </trkpt>
      <trkpt lat="49.43967" lon="1.12579">
        <ele>15.6</ele>
        <time>2021-05-23T08:07:13Z</time>
      </trkpt>
      <trkpt lat="49.43964" lon="1.12587">
        <ele>15.2</ele>
        <time>2021-05-23T08:07:14Z</time>
      </trkpt>
      <trkpt lat="49.43962" lon="1.12594">
        <ele>14.7</ele>
        <time>2021-05-23T08:07:15Z</time>
      </trkpt>
      <trkpt lat="49.43959" lon="1.12602">
        <ele>14.3</ele>
        <time>2021-05-23T08:07:16Z</time>
      </trkpt>
      <trkpt lat="49.43951" lon="1.12621">
        <ele>13.8</ele>
        <time>2021-05-23T08:07:18Z</time>
      </trkpt>
      <trkpt lat="49.43945" lon="1.12639">
        <ele>13.5</ele>
        <time>2021-05-23T08:07:20Z</time>
      </trkpt>
      <trkpt lat="49.43937" lon="1.12658">
        <ele>13.2</ele>
        <time>2021-05-23T08:07:22Z</time>
      </trkpt>
      <trkpt lat="49.43932" lon="1.12667">
        <ele>12.9</ele>
        <time>2021-05-23T08:07:23Z</time>
      </trkpt>
      <trkpt lat="49.43928" lon="1.12675">
        <ele>12.6</ele>
        <time>2021-05-23T08:07:24Z</time>
      </trkpt>
      <trkpt lat="49.4392" lon="1.12687">
        <ele>12.5</ele>
        <time>2021-05-23T08:07:26Z</time>
      </trkpt>
      <trkpt lat="49.43918" lon="1.12694">
        <ele>12.3</ele>
        <time>2021-05-23T08:07:27Z</time>
      </trkpt>
      <trkpt lat="49.43914" lon="1.12711">
        <ele>12.3</ele>
        <time>2021-05-23T08:07:29Z</time>
      </trkpt>
      <trkpt lat="49.43909" lon="1.12725">
        <ele>12.3</ele>
        <time>2021-05-23T08:07:32Z</time>
      </trkpt>
      <trkpt lat="49.43906" lon="1.12736">
        <ele>12.3</ele>
        <time>2021-05-23T08:07:34Z</time>
      </trkpt>
      <trkpt lat="49.43905" lon="1.12742">
        <ele>12.4</ele>
        <time>2021-05-23T08:07:35Z</time>
      </trkpt>
      <trkpt lat="49.43903" lon="1.12748">
        <ele>12.4</ele>
        <time>2021-05-23T08:07:36Z</time>
      </trkpt>
      <trkpt lat="49.43897" lon="1.12762">
        <ele>12.4</ele>
        <time>2021-05-23T08:07:38Z</time>
      </trkpt>
      <trkpt lat="49.43894" lon="1.1277">
        <ele>12.4</ele>
        <time>2021-05-23T08:07:39Z</time>
      </trkpt>
      <trkpt lat="49.43891" lon="1.12779">
        <ele>12.4</ele>
        <time>2021-05-23T08:07:40Z</time>
      </trkpt>
      <trkpt lat="49.43885" lon="1.12798">
        <ele>12.5</ele>
        <time>2021-05-23T08:07:42Z</time>
      </trkpt>
      <trkpt lat="49.43877" lon="1.12819">
        <ele>12.5</ele>
        <time>2021-05-23T08:07:44Z</time>
      </trkpt>
      <trkpt lat="49.43875" lon="1.1283">
        <ele>12.6</ele>
        <time>2021-05-23T08:07:45Z</time>
      </trkpt>
      <trkpt lat="49.43877" lon="1.12851">
        <ele>12.7</ele>
        <time>2021-05-23T08:07:47Z</time>
      </trkpt>
      <trkpt lat="49.43881" lon="1.1286">
        <ele>12.8</ele>
        <time>2021-05-23T08:07:48Z</time>
      </trkpt>
      <trkpt lat="49.43883" lon="1.12869">
        <ele>13</ele>
        <time>2021-05-23T08:07:49Z</time>
      </trkpt>
      <trkpt lat="49.43886" lon="1.12888">
        <ele>13.2</ele>
        <time>2021-05-23T08:07:51Z</time>
      </trkpt>
      <trkpt lat="49.43889" lon="1.12898">
        <ele>13.5</ele>
        <time>2021-05-23T08:07:52Z</time>
      </trkpt>
      <trkpt lat="49.43898" lon="1.12912">
        <ele>13.7</ele>
        <time>2021-05-23T08:07:54Z</time>
      </trkpt>
      <trkpt lat="49.43908" lon="1.12921">
        <ele>14.1</ele>
        <time>2021-05-23T08:07:56Z</time>
      </trkpt>
      <trkpt lat="49.43912" lon="1.12922">
        <ele>14.5</ele>
        <time>2021-05-23T08:07:58Z</time>
      </trkpt>
      <trkpt lat="49.43913" lon="1.12922">
        <ele>14.9</ele>
        <time>2021-05-23T08:07:59Z</time>
      </trkpt>
      <trkpt lat="49.43916" lon="1.12923">
        <ele>15.3</ele>
        <time>2021-05-23T08:08:00Z</time>
      </trkpt>
      <trkpt lat="49.43921" lon="1.1293">
        <ele>15.6</ele>
        <time>2021-05-23T08:08:02Z</time>
      </trkpt>
      <trkpt lat="49.43931" lon="1.1294">
        <ele>16</ele>
        <time>2021-05-23T08:08:04Z</time>
      </trkpt>
      <trkpt lat="49.43938" lon="1.12945">
        <ele>16.4</ele>
        <time>2021-05-23T08:08:06Z</time>
      </trkpt>
      <trkpt lat="49.43941" lon="1.12951">
        <ele>16.6</ele>
        <time>2021-05-23T08:08:07Z</time>
      </trkpt>
      <trkpt lat="49.43944" lon="1.12961">
        <ele>17</ele>
        <time>2021-05-23T08:08:09Z</time>
      </trkpt>
      <trkpt lat="49.43947" lon="1.12972">
        <ele>17.5</ele>
        <time>2021-05-23T08:08:11Z</time>
      </trkpt>
      <trkpt lat="49.43949" lon="1.12978">
        <ele>17.9</ele>
        <time>2021-05-23T08:08:12Z</time>
      </trkpt>
      <trkpt lat="49.43949" lon="1.12985">
        <ele>18.4</ele>
        <time>2021-05-23T08:08:13Z</time>
      </trkpt>
      <trkpt lat="49.4395" lon="1.12998">
        <ele>18.8</ele>
        <time>2021-05-23T08:08:14Z</time>
      </trkpt>
      <trkpt lat="49.43951" lon="1.13013">
        <ele>19.3</ele>
        <time>2021-05-23T08:08:16Z</time>
      </trkpt>
      <trkpt lat="49.43953" lon="1.13029">
        <ele>19.7</ele>
        <time>2021-05-23T08:08:18Z</time>
      </trkpt>
      <trkpt lat="49.43952" lon="1.13036">
        <ele>20.2</ele>
        <time>2021-05-23T08:08:20Z</time>
      </trkpt>
      <trkpt lat="49.43956" lon="1.13044">
        <ele>20.5</ele>
        <time>2021-05-23T08:08:21Z</time>
      </trkpt>
      <trkpt lat="49.43958" lon="1.13057">
        <ele>20.9</ele>
        <time>2021-05-23T08:08:23Z</time>
      </trkpt>
      <trkpt lat="49.43955" lon="1.13068">
        <ele>21.3</ele>
        <time>2021-05-23T08:08:25Z</time>
      </trkpt>
      <trkpt lat="49.43952" lon="1.13071">
        <ele>21.5</ele>
        <time>2021-05-23T08:08:26Z</time>
      </trkpt>
      <trkpt lat="49.43953" lon="1.13071">
        <ele>21.7</ele>
        <time>2021-05-23T08:08:28Z</time>
      </trkpt>
      <trkpt lat="49.43956" lon="1.13074">
        <ele>21.9</ele>
        <time>2021-05-23T08:08:30Z</time>
      </trkpt>
      <trkpt lat="49.43957" lon="1.13075">
        <ele>22</ele>
        <time>2021-05-23T08:08:32Z</time>
      </trkpt>
      <trkpt lat="49.43957" lon="1.13077">
        <ele>22</ele>
        <time>2021-05-23T08:08:33Z</time>
      </trkpt>
      <trkpt lat="49.43958" lon="1.13078">
        <ele>22</ele>
        <time>2021-05-23T08:08:34Z</time>
      </trkpt>
      <trkpt lat="49.43957" lon="1.13079">
        <ele>22</ele>
        <time>2021-05-23T08:08:35Z</time>
      </trkpt>
      <trkpt lat="49.43957" lon="1.13081">
        <ele>22</ele>
        <time>2021-05-23T08:08:37Z</time>
      </trkpt>
      <trkpt lat="49.43957" lon="1.13088">
        <ele>22</ele>
        <time>2021-05-23T08:08:43Z</time>
      </trkpt>
      <trkpt lat="49.43957" lon="1.1309">
        <ele>22</ele>
        <time>2021-05-23T08:08:44Z</time>
      </trkpt>
      <trkpt lat="49.43956" lon="1.13091">
        <ele>22</ele>
        <time>2021-05-23T08:08:45Z</time>
      </trkpt>
      <trkpt lat="49.43955" lon="1.13091">
        <ele>22</ele>
        <time>2021-05-23T08:08:46Z</time>
      </trkpt>
      <trkpt lat="49.43954" lon="1.13094">
        <ele>22</ele>
        <time>2021-05-23T08:08:47Z</time>
      </trkpt>
      <trkpt lat="49.43954" lon="1.13095">
        <ele>22</ele>
        <time>2021-05-23T08:08:49Z</time>
      </trkpt>
      <trkpt lat="49.43954" lon="1.13097">
        <ele>22</ele>
        <time>2021-05-23T08:08:50Z</time>
      </trkpt>
      <trkpt lat="49.43955" lon="1.131">
        <ele>22</ele>
        <time>2021-05-23T08:08:51Z</time>
      </trkpt>
      <trkpt lat="49.43956" lon="1.13101">
        <ele>22</ele>
        <time>2021-05-23T08:08:53Z</time>
      </trkpt>
      <trkpt lat="49.43956" lon="1.13102">
        <ele>22</ele>
        <time>2021-05-23T08:08:54Z</time>
      </trkpt>
      <trkpt lat="49.43958" lon="1.131">
        <ele>22.1</ele>
        <time>2021-05-23T08:08:55Z</time>
      </trkpt>
      <trkpt lat="49.43959" lon="1.13099">
        <ele>22.2</ele>
        <time>2021-05-23T08:08:57Z</time>
      </trkpt>
      <trkpt lat="49.4396" lon="1.13098">
        <ele>22.3</ele>
        <time>2021-05-23T08:08:59Z</time>
      </trkpt>
      <trkpt lat="49.43961" lon="1.13097">
        <ele>22.4</ele>
        <time>2021-05-23T08:09:00Z</time>
      </trkpt>
      <trkpt lat="49.43962" lon="1.13096">
        <ele>22.5</ele>
        <time>2021-05-23T08:09:01Z</time>
      </trkpt>
      <trkpt lat="49.43962" lon="1.13095">
        <ele>22.7</ele>
        <time>2021-05-23T08:09:02Z</time>
      </trkpt>
      <trkpt lat="49.43965" lon="1.13091">
        <ele>22.9</ele>
        <time>2021-05-23T08:09:04Z</time>
      </trkpt>
      <trkpt lat="49.43965" lon="1.1309">
        <ele>23</ele>
        <time>2021-05-23T08:09:05Z</time>
      </trkpt>
      <trkpt lat="49.43967" lon="1.13085">
        <ele>23.1</ele>
        <time>2021-05-23T08:09:08Z</time>
      </trkpt>
      <trkpt lat="49.43969" lon="1.13084">
        <ele>23.2</ele>
        <time>2021-05-23T08:09:09Z</time>
      </trkpt>
      <trkpt lat="49.4397" lon="1.13083">
        <ele>23.3</ele>
        <time>2021-05-23T08:09:11Z</time>
      </trkpt>
      <trkpt lat="49.4397" lon="1.13082">
        <ele>23.3</ele>
        <time>2021-05-23T08:09:12Z</time>
      </trkpt>
      <trkpt lat="49.43967" lon="1.13079">
        <ele>23.3</ele>
        <time>2021-05-23T08:09:13Z</time>
      </trkpt>
      <trkpt lat="49.43968" lon="1.13076">
        <ele>23.3</ele>
        <time>2021-05-23T08:09:14Z</time>
      </trkpt>
      <trkpt lat="49.43968" lon="1.13074">
        <ele>23.3</ele>
        <time>2021-05-23T08:09:15Z</time>
      </trkpt>
      <trkpt lat="49.43968" lon="1.13071">
        <ele>23.3</ele>
        <time>2021-05-23T08:09:17Z</time>
      </trkpt>
      <trkpt lat="49.43969" lon="1.1307">
        <ele>23.3</ele>
        <time>2021-05-23T08:09:18Z</time>
      </trkpt>
      <trkpt lat="49.4397" lon="1.13068">
        <ele>23.3</ele>
        <time>2021-05-23T08:09:19Z</time>
      </trkpt>
      <trkpt lat="49.43971" lon="1.13066">
        <ele>23.4</ele>
        <time>2021-05-23T08:09:21Z</time>
      </trkpt>
      <trkpt lat="49.43973" lon="1.13065">
        <ele>23.5</ele>
        <time>2021-05-23T08:09:22Z</time>
      </trkpt>
      <trkpt lat="49.43974" lon="1.13064">
        <ele>23.5</ele>
        <time>2021-05-23T08:09:23Z</time>
      </trkpt>
      <trkpt lat="49.43976" lon="1.13064">
        <ele>23.6</ele>
        <time>2021-05-23T08:09:24Z</time>
      </trkpt>
      <trkpt lat="49.43979" lon="1.13066">
        <ele>23.8</ele>
        <time>2021-05-23T08:09:26Z</time>
      </trkpt>
      <trkpt lat="49.43979" lon="1.13067">
        <ele>24</ele>
        <time>2021-05-23T08:09:27Z</time>
      </trkpt>
      <trkpt lat="49.4398" lon="1.13066">
        <ele>24.2</ele>
        <time>2021-05-23T08:09:29Z</time>
      </trkpt>
      <trkpt lat="49.4398" lon="1.13067">
        <ele>24.5</ele>
        <time>2021-05-23T08:09:30Z</time>
      </trkpt>
      <trkpt lat="49.43981" lon="1.13069">
        <ele>24.6</ele>
        <time>2021-05-23T08:09:32Z</time>
      </trkpt>
      <trkpt lat="49.43983" lon="1.13069">
        <ele>24.7</ele>
        <time>2021-05-23T08:09:33Z</time>
      </trkpt>
      <trkpt lat="49.43988" lon="1.1307">
        <ele>24.8</ele>
        <time>2021-05-23T08:09:35Z</time>
      </trkpt>
      <trkpt lat="49.43991" lon="1.13071">
        <ele>25</ele>
        <time>2021-05-23T08:09:36Z</time>
      </trkpt>
      <trkpt lat="49.43992" lon="1.13073">
        <ele>25.2</ele>
        <time>2021-05-23T08:09:38Z</time>
      </trkpt>
      <trkpt lat="49.43992" lon="1.13075">
        <ele>25.4</ele>
        <time>2021-05-23T08:09:39Z</time>
      </trkpt>
      <trkpt lat="49.43992" lon="1.13078">
        <ele>25.5</ele>
        <time>2021-05-23T08:09:40Z</time>
      </trkpt>
      <trkpt lat="49.43992" lon="1.13083">
        <ele>25.6</ele>
        <time>2021-05-23T08:09:42Z</time>
      </trkpt>
      <trkpt lat="49.43995" lon="1.13086">
        <ele>25.7</ele>
        <time>2021-05-23T08:09:44Z</time>
      </trkpt>
      <trkpt lat="49.43996" lon="1.13084">
        <ele>25.8</ele>
        <time>2021-05-23T08:09:45Z</time>
      </trkpt>
      <trkpt lat="49.43996" lon="1.13082">
        <ele>25.8</ele>
        <time>2021-05-23T08:09:47Z</time>
      </trkpt>
      <trkpt lat="49.43996" lon="1.13083">
        <ele>25.9</ele>
        <time>2021-05-23T08:09:48Z</time>
      </trkpt>
      <trkpt lat="49.43997" lon="1.13083">
        <ele>26.2</ele>
        <time>2021-05-23T08:09:50Z</time>
      </trkpt>
      <trkpt lat="49.43998" lon="1.13082">
        <ele>26.5</ele>
        <time>2021-05-23T08:09:52Z</time>
      </trkpt>
      <trkpt lat="49.44" lon="1.13082">
        <ele>26.7</ele>
        <time>2021-05-23T08:09:55Z</time>
      </trkpt>
      <trkpt lat="49.44002" lon="1.13082">
        <ele>27</ele>
        <time>2021-05-23T08:09:56Z</time>
      </trkpt>
      <trkpt lat="49.44003" lon="1.1308">
        <ele>27.4</ele>
        <time>2021-05-23T08:09:57Z</time>
      </trkpt>
      <trkpt lat="49.44006" lon="1.13078">
        <ele>27.7</ele>
        <time>2021-05-23T08:09:59Z</time>
      </trkpt>
      <trkpt lat="49.44007" lon="1.13077">
        <ele>28.2</ele>
        <time>2021-05-23T08:10:00Z</time>
      </trkpt>
      <trkpt lat="49.44012" lon="1.13077">
        <ele>28.7</ele>
        <time>2021-05-23T08:10:02Z</time>
      </trkpt>
      <trkpt lat="49.44014" lon="1.13074">
        <ele>29.3</ele>
        <time>2021-05-23T08:10:03Z</time>
      </trkpt>
      <trkpt lat="49.44016" lon="1.13071">
        <ele>29.8</ele>
        <time>2021-05-23T08:10:04Z</time>
      </trkpt>
      <trkpt lat="49.44019" lon="1.13065">
        <ele>30.3</ele>
        <time>2021-05-23T08:10:06Z</time>
      </trkpt>
      <trkpt lat="49.44023" lon="1.13061">
        <ele>30.6</ele>
        <time>2021-05-23T08:10:08Z</time>
      </trkpt>
      <trkpt lat="49.44026" lon="1.13059">
        <ele>31</ele>
        <time>2021-05-23T08:10:09Z</time>
      </trkpt>
      <trkpt lat="49.44027" lon="1.13058">
        <ele>31.3</ele>
        <time>2021-05-23T08:10:10Z</time>
      </trkpt>
      <trkpt lat="49.4403" lon="1.13052">
        <ele>31.5</ele>
        <time>2021-05-23T08:10:12Z</time>
      </trkpt>
      <trkpt lat="49.4403" lon="1.13048">
        <ele>31.7</ele>
        <time>2021-05-23T08:10:13Z</time>
      </trkpt>
      <trkpt lat="49.4403" lon="1.13046">
        <ele>32</ele>
        <time>2021-05-23T08:10:14Z</time>
      </trkpt>
      <trkpt lat="49.4403" lon="1.13041">
        <ele>32.2</ele>
        <time>2021-05-23T08:10:16Z</time>
      </trkpt>
      <trkpt lat="49.44031" lon="1.1304">
        <ele>32.3</ele>
        <time>2021-05-23T08:10:17Z</time>
      </trkpt>
      <trkpt lat="49.44033" lon="1.13038">
        <ele>32.4</ele>
        <time>2021-05-23T08:10:18Z</time>
      </trkpt>
      <trkpt lat="49.44036" lon="1.13039">
        <ele>32.5</ele>
        <time>2021-05-23T08:10:20Z</time>
      </trkpt>
      <trkpt lat="49.4404" lon="1.13038">
        <ele>32.7</ele>
        <time>2021-05-23T08:10:21Z</time>
      </trkpt>
      <trkpt lat="49.44042" lon="1.13037">
        <ele>32.9</ele>
        <time>2021-05-23T08:10:22Z</time>
      </trkpt>
      <trkpt lat="49.44047" lon="1.13036">
        <ele>33.1</ele>
        <time>2021-05-23T08:10:24Z</time>
      </trkpt>
      <trkpt lat="49.44051" lon="1.13036">
        <ele>33.3</ele>
        <time>2021-05-23T08:10:25Z</time>
      </trkpt>
      <trkpt lat="49.44052" lon="1.13037">
        <ele>33.5</ele>
        <time>2021-05-23T08:10:26Z</time>
      </trkpt>
      <trkpt lat="49.44054" lon="1.13037">
        <ele>33.6</ele>
        <time>2021-05-23T08:10:27Z</time>
      </trkpt>
      <trkpt lat="49.44056" lon="1.13037">
        <ele>33.7</ele>
        <time>2021-05-23T08:10:29Z</time>
      </trkpt>
      <trkpt lat="49.44059" lon="1.13037">
        <ele>33.9</ele>
        <time>2021-05-23T08:10:30Z</time>
      </trkpt>
      <trkpt lat="49.4406" lon="1.13037">
        <ele>34.1</ele>
        <time>2021-05-23T08:10:31Z</time>
      </trkpt>
      <trkpt lat="49.44063" lon="1.13038">
        <ele>34.3</ele>
        <time>2021-05-23T08:10:33Z</time>
      </trkpt>
      <trkpt lat="49.44064" lon="1.13039">
        <ele>34.5</ele>
        <time>2021-05-23T08:10:34Z</time>
      </trkpt>
      <trkpt lat="49.44065" lon="1.13039">
        <ele>34.6</ele>
        <time>2021-05-23T08:10:35Z</time>
      </trkpt>
      <trkpt lat="49.44067" lon="1.13041">
        <ele>34.8</ele>
        <time>2021-05-23T08:10:36Z</time>
      </trkpt>
      <trkpt lat="49.44068" lon="1.13042">
        <ele>35</ele>
        <time>2021-05-23T08:10:37Z</time>
      </trkpt>
      <trkpt lat="49.44071" lon="1.13045">
        <ele>35.3</ele>
        <time>2021-05-23T08:10:39Z</time>
      </trkpt>
      <trkpt lat="49.44073" lon="1.13048">
        <ele>35.5</ele>
        <time>2021-05-23T08:10:40Z</time>
      </trkpt>
      <trkpt lat="49.44074" lon="1.13049">
        <ele>35.8</ele>
        <time>2021-05-23T08:10:41Z</time>
      </trkpt>
      <trkpt lat="49.44076" lon="1.13052">
        <ele>36.1</ele>
        <time>2021-05-23T08:10:44Z</time>
      </trkpt>
      <trkpt lat="49.44077" lon="1.13052">
        <ele>36.4</ele>
        <time>2021-05-23T08:10:45Z</time>
      </trkpt>
      <trkpt lat="49.44079" lon="1.13054">
        <ele>36.6</ele>
        <time>2021-05-23T08:10:46Z</time>
      </trkpt>
      <trkpt lat="49.44082" lon="1.13056">
        <ele>36.9</ele>
        <time>2021-05-23T08:10:48Z</time>
      </trkpt>
      <trkpt lat="49.44085" lon="1.13059">
        <ele>37.1</ele>
        <time>2021-05-23T08:10:50Z</time>
      </trkpt>
      <trkpt lat="49.44086" lon="1.13059">
        <ele>37.3</ele>
        <time>2021-05-23T08:10:51Z</time>
      </trkpt>
      <trkpt lat="49.44087" lon="1.13061">
        <ele>37.5</ele>
        <time>2021-05-23T08:10:52Z</time>
      </trkpt>
      <trkpt lat="49.44088" lon="1.13062">
        <ele>37.7</ele>
        <time>2021-05-23T08:10:53Z</time>
      </trkpt>
      <trkpt lat="49.4409" lon="1.13064">
        <ele>37.9</ele>
        <time>2021-05-23T08:10:54Z</time>
      </trkpt>
      <trkpt lat="49.44091" lon="1.13066">
        <ele>38.2</ele>
        <time>2021-05-23T08:10:56Z</time>
      </trkpt>
      <trkpt lat="49.44094" lon="1.13068">
        <ele>38.5</ele>
        <time>2021-05-23T08:10:57Z</time>
      </trkpt>
      <trkpt lat="49.44095" lon="1.13069">
        <ele>38.7</ele>
        <time>2021-05-23T08:10:58Z</time>
      </trkpt>
      <trkpt lat="49.44097" lon="1.13073">
        <ele>39</ele>
        <time>2021-05-23T08:10:59Z</time>
      </trkpt>
      <trkpt lat="49.44098" lon="1.13074">
        <ele>39.4</ele>
        <time>2021-05-23T08:11:00Z</time>
      </trkpt>
      <trkpt lat="49.44101" lon="1.13079">
        <ele>39.7</ele>
        <time>2021-05-23T08:11:02Z</time>
      </trkpt>
      <trkpt lat="49.44102" lon="1.13081">
        <ele>40.2</ele>
        <time>2021-05-23T08:11:03Z</time>
      </trkpt>
      <trkpt lat="49.44103" lon="1.13082">
        <ele>40.7</ele>
        <time>2021-05-23T08:11:04Z</time>
      </trkpt>
      <trkpt lat="49.44106" lon="1.13088">
        <ele>41.4</ele>
        <time>2021-05-23T08:11:06Z</time>
      </trkpt>
      <trkpt lat="49.44107" lon="1.1309">
        <ele>41.9</ele>
        <time>2021-05-23T08:11:07Z</time>
      </trkpt>
      <trkpt lat="49.44108" lon="1.13092">
        <ele>42.5</ele>
        <time>2021-05-23T08:11:08Z</time>
      </trkpt>
      <trkpt lat="49.4411" lon="1.13098">
        <ele>43.1</ele>
        <time>2021-05-23T08:11:10Z</time>
      </trkpt>
      <trkpt lat="49.4411" lon="1.13101">
        <ele>43.6</ele>
        <time>2021-05-23T08:11:11Z</time>
      </trkpt>
      <trkpt lat="49.44112" lon="1.13106">
        <ele>44.2</ele>
        <time>2021-05-23T08:11:13Z</time>
      </trkpt>
      <trkpt lat="49.44113" lon="1.13109">
        <ele>44.7</ele>
        <time>2021-05-23T08:11:14Z</time>
      </trkpt>
      <trkpt lat="49.44115" lon="1.13112">
        <ele>45.2</ele>
        <time>2021-05-23T08:11:16Z</time>
      </trkpt>
      <trkpt lat="49.44118" lon="1.13115">
        <ele>45.6</ele>
        <time>2021-05-23T08:11:17Z</time>
      </trkpt>
      <trkpt lat="49.44118" lon="1.13117">
        <ele>46</ele>
        <time>2021-05-23T08:11:18Z</time>
      </trkpt>
      <trkpt lat="49.4412" lon="1.13119">
        <ele>46.4</ele>
        <time>2021-05-23T08:11:19Z</time>
      </trkpt>
      <trkpt lat="49.44121" lon="1.13122">
        <ele>46.6</ele>
        <time>2021-05-23T08:11:21Z</time>
      </trkpt>
      <trkpt lat="49.44124" lon="1.13125">
        <ele>47</ele>
        <time>2021-05-23T08:11:22Z</time>
      </trkpt>
      <trkpt lat="49.44125" lon="1.13126">
        <ele>47.3</ele>
        <time>2021-05-23T08:11:23Z</time>
      </trkpt>
      <trkpt lat="49.44127" lon="1.13128">
        <ele>47.6</ele>
        <time>2021-05-23T08:11:24Z</time>
      </trkpt>
      <trkpt lat="49.44131" lon="1.13132">
        <ele>48.1</ele>
        <time>2021-05-23T08:11:26Z</time>
      </trkpt>
      <trkpt lat="49.44132" lon="1.13135">
        <ele>48.5</ele>
        <time>2021-05-23T08:11:27Z</time>
      </trkpt>
      <trkpt lat="49.44135" lon="1.13138">
        <ele>49</ele>
        <time>2021-05-23T08:11:29Z</time>
      </trkpt>
      <trkpt lat="49.44138" lon="1.13141">
        <ele>49.5</ele>
        <time>2021-05-23T08:11:32Z</time>
      </trkpt>
      <trkpt lat="49.44141" lon="1.13143">
        <ele>49.9</ele>
        <time>2021-05-23T08:11:33Z</time>
      </trkpt>
      <trkpt lat="49.44144" lon="1.13146">
        <ele>50.4</ele>
        <time>2021-05-23T08:11:34Z</time>
      </trkpt>
      <trkpt lat="49.44145" lon="1.13148">
        <ele>50.8</ele>
        <time>2021-05-23T08:11:35Z</time>
      </trkpt>
      <trkpt lat="49.44149" lon="1.13151">
        <ele>51.3</ele>
        <time>2021-05-23T08:11:37Z</time>
      </trkpt>
      <trkpt lat="49.44151" lon="1.13152">
        <ele>51.6</ele>
        <time>2021-05-23T08:11:38Z</time>
      </trkpt>
      <trkpt lat="49.44152" lon="1.13153">
        <ele>52.1</ele>
        <time>2021-05-23T08:11:39Z</time>
      </trkpt>
      <trkpt lat="49.44153" lon="1.13155">
        <ele>52.5</ele>
        <time>2021-05-23T08:11:40Z</time>
      </trkpt>
      <trkpt lat="49.44157" lon="1.13157">
        <ele>52.7</ele>
        <time>2021-05-23T08:11:42Z</time>
      </trkpt>
      <trkpt lat="49.44159" lon="1.13159">
        <ele>53.1</ele>
        <time>2021-05-23T08:11:44Z</time>
      </trkpt>
      <trkpt lat="49.4416" lon="1.1316">
        <ele>53.4</ele>
        <time>2021-05-23T08:11:45Z</time>
      </trkpt>
      <trkpt lat="49.44161" lon="1.13161">
        <ele>53.6</ele>
        <time>2021-05-23T08:11:47Z</time>
      </trkpt>
      <trkpt lat="49.44162" lon="1.13161">
        <ele>53.9</ele>
        <time>2021-05-23T08:11:48Z</time>
      </trkpt>
      <trkpt lat="49.44162" lon="1.13164">
        <ele>54.2</ele>
        <time>2021-05-23T08:11:50Z</time>
      </trkpt>
      <trkpt lat="49.44162" lon="1.13166">
        <ele>54.4</ele>
        <time>2021-05-23T08:11:52Z</time>
      </trkpt>
      <trkpt lat="49.44162" lon="1.13166">
        <ele>54.5</ele>
        <time>2021-05-23T08:11:53Z</time>
      </trkpt>
      <trkpt lat="49.44162" lon="1.13165">
        <ele>54.7</ele>
        <time>2021-05-23T08:11:55Z</time>
      </trkpt>
      <trkpt lat="49.44162" lon="1.13165">
        <ele>54.8</ele>
        <time>2021-05-23T08:11:56Z</time>
      </trkpt>
      <trkpt lat="49.44163" lon="1.13166">
        <ele>54.9</ele>
        <time>2021-05-23T08:11:58Z</time>
      </trkpt>
      <trkpt lat="49.44163" lon="1.13166">
        <ele>55</ele>
        <time>2021-05-23T08:12:00Z</time>
      </trkpt>
      <trkpt lat="49.44163" lon="1.13165">
        <ele>55.1</ele>
        <time>2021-05-23T08:12:02Z</time>
      </trkpt>
      <trkpt lat="49.44164" lon="1.13165">
        <ele>55.2</ele>
        <time>2021-05-23T08:12:03Z</time>
      </trkpt>
      <trkpt lat="49.44166" lon="1.13166">
        <ele>55.4</ele>
        <time>2021-05-23T08:12:05Z</time>
      </trkpt>
      <trkpt lat="49.44169" lon="1.13167">
        <ele>55.5</ele>
        <time>2021-05-23T08:12:06Z</time>
      </trkpt>
      <trkpt lat="49.4417" lon="1.13168">
        <ele>55.7</ele>
        <time>2021-05-23T08:12:07Z</time>
      </trkpt>
      <trkpt lat="49.44172" lon="1.1317">
        <ele>55.9</ele>
        <time>2021-05-23T08:12:08Z</time>
      </trkpt>
      <trkpt lat="49.44173" lon="1.13171">
        <ele>56.1</ele>
        <time>2021-05-23T08:12:09Z</time>
      </trkpt>
      <trkpt lat="49.44178" lon="1.13173">
        <ele>56.3</ele>
        <time>2021-05-23T08:12:11Z</time>
      </trkpt>
      <trkpt lat="49.44179" lon="1.13173">
        <ele>56.5</ele>
        <time>2021-05-23T08:12:12Z</time>
      </trkpt>
      <trkpt lat="49.44181" lon="1.13173">
        <ele>56.6</ele>
        <time>2021-05-23T08:12:13Z</time>
      </trkpt>
      <trkpt lat="49.44183" lon="1.13172">
        <ele>56.9</ele>
        <time>2021-05-23T08:12:14Z</time>
      </trkpt>
      <trkpt lat="49.44186" lon="1.13172">
        <ele>57.1</ele>
        <time>2021-05-23T08:12:16Z</time>
      </trkpt>
      <trkpt lat="49.44189" lon="1.13172">
        <ele>57.3</ele>
        <time>2021-05-23T08:12:17Z</time>
      </trkpt>
      <trkpt lat="49.44193" lon="1.13171">
        <ele>57.5</ele>
        <time>2021-05-23T08:12:19Z</time>
      </trkpt>
      <trkpt lat="49.44196" lon="1.13171">
        <ele>57.6</ele>
        <time>2021-05-23T08:12:20Z</time>
      </trkpt>
      <trkpt lat="49.44202" lon="1.1317">
        <ele>57.9</ele>
        <time>2021-05-23T08:12:22Z</time>
      </trkpt>
      <trkpt lat="49.44207" lon="1.1317">
        <ele>58.2</ele>
        <time>2021-05-23T08:12:24Z</time>
      </trkpt>
      <trkpt lat="49.4421" lon="1.1317">
        <ele>58.5</ele>
        <time>2021-05-23T08:12:25Z</time>
      </trkpt>
      <trkpt lat="49.44214" lon="1.1317">
        <ele>58.7</ele>
        <time>2021-05-23T08:12:26Z</time>
      </trkpt>
      <trkpt lat="49.44217" lon="1.1317">
        <ele>59</ele>
        <time>2021-05-23T08:12:27Z</time>
      </trkpt>
      <trkpt lat="49.44223" lon="1.1317">
        <ele>59.3</ele>
        <time>2021-05-23T08:12:29Z</time>
      </trkpt>
      <trkpt lat="49.44227" lon="1.1317">
        <ele>59.5</ele>
        <time>2021-05-23T08:12:30Z</time>
      </trkpt>
      <trkpt lat="49.44231" lon="1.13169">
        <ele>59.6</ele>
        <time>2021-05-23T08:12:31Z</time>
      </trkpt>
      <trkpt lat="49.44236" lon="1.13168">
        <ele>59.8</ele>
        <time>2021-05-23T08:12:33Z</time>
      </trkpt>
      <trkpt lat="49.44241" lon="1.13168">
        <ele>59.9</ele>
        <time>2021-05-23T08:12:34Z</time>
      </trkpt>
      <trkpt lat="49.44244" lon="1.13168">
        <ele>60</ele>
        <time>2021-05-23T08:12:36Z</time>
      </trkpt>
      <trkpt lat="49.44249" lon="1.13167">
        <ele>60</ele>
        <time>2021-05-23T08:12:37Z</time>
      </trkpt>
      <trkpt lat="49.44252" lon="1.13167">
        <ele>60</ele>
        <time>2021-05-23T08:12:38Z</time>
      </trkpt>
      <trkpt lat="49.44255" lon="1.13166">
        <ele>60</ele>
        <time>2021-05-23T08:12:39Z</time>
      </trkpt>
      <trkpt lat="49.44259" lon="1.13166">
        <ele>59.9</ele>
        <time>2021-05-23T08:12:40Z</time>
      </trkpt>
      <trkpt lat="49.4426" lon="1.13165">
        <ele>59.8</ele>
        <time>2021-05-23T08:12:41Z</time>
      </trkpt>
      <trkpt lat="49.44264" lon="1.13164">
        <ele>59.7</ele>
        <time>2021-05-23T08:12:43Z</time>
      </trkpt>
      <trkpt lat="49.44267" lon="1.13162">
        <ele>59.6</ele>
        <time>2021-05-23T08:12:44Z</time>
      </trkpt>
      <trkpt lat="49.4427" lon="1.13161">
        <ele>59.5</ele>
        <time>2021-05-23T08:12:45Z</time>
      </trkpt>
      <trkpt lat="49.44273" lon="1.13159">
        <ele>59.5</ele>
        <time>2021-05-23T08:12:47Z</time>
      </trkpt>
      <trkpt lat="49.44276" lon="1.13157">
        <ele>59.3</ele>
        <time>2021-05-23T08:12:48Z</time>
      </trkpt>
      <trkpt lat="49.44279" lon="1.13156">
        <ele>59.2</ele>
        <time>2021-05-23T08:12:49Z</time>
      </trkpt>
      <trkpt lat="49.44283" lon="1.13154">
        <ele>59.1</ele>
        <time>2021-05-23T08:12:51Z</time>
      </trkpt>
      <trkpt lat="49.44287" lon="1.13152">
        <ele>59</ele>
        <time>2021-05-23T08:12:52Z</time>
      </trkpt>
      <trkpt lat="49.44293" lon="1.13149">
        <ele>58.9</ele>
        <time>2021-05-23T08:12:53Z</time>
      </trkpt>
      <trkpt lat="49.44321" lon="1.13131">
        <ele>58.9</ele>
        <time>2021-05-23T08:12:55Z</time>
      </trkpt>
      <trkpt lat="49.44329" lon="1.13127">
        <ele>58.8</ele>
        <time>2021-05-23T08:12:56Z</time>
      </trkpt>
      <trkpt lat="49.44347" lon="1.13122">
        <ele>58.7</ele>
        <time>2021-05-23T08:12:58Z</time>
      </trkpt>
      <trkpt lat="49.44353" lon="1.13119">
        <ele>58.6</ele>
        <time>2021-05-23T08:13:00Z</time>
      </trkpt>
      <trkpt lat="49.44364" lon="1.13117">
        <ele>58.5</ele>
        <time>2021-05-23T08:13:01Z</time>
      </trkpt>
      <trkpt lat="49.44367" lon="1.13115">
        <ele>58.5</ele>
        <time>2021-05-23T08:13:02Z</time>
      </trkpt>
      <trkpt lat="49.44371" lon="1.13112">
        <ele>58.7</ele>
        <time>2021-05-23T08:13:04Z</time>
      </trkpt>
      <trkpt lat="49.44384" lon="1.13109">
        <ele>59</ele>
        <time>2021-05-23T08:13:05Z</time>
      </trkpt>
      <trkpt lat="49.44387" lon="1.13107">
        <ele>59.4</ele>
        <time>2021-05-23T08:13:06Z</time>
      </trkpt>
      <trkpt lat="49.44393" lon="1.13106">
        <ele>59.8</ele>
        <time>2021-05-23T08:13:09Z</time>
      </trkpt>
      <trkpt lat="49.44398" lon="1.13108">
        <ele>60.3</ele>
        <time>2021-05-23T08:13:10Z</time>
      </trkpt>
      <trkpt lat="49.44404" lon="1.1311">
        <ele>60.8</ele>
        <time>2021-05-23T08:13:11Z</time>
      </trkpt>
      <trkpt lat="49.44411" lon="1.13113">
        <ele>61.5</ele>
        <time>2021-05-23T08:13:12Z</time>
      </trkpt>
      <trkpt lat="49.44418" lon="1.13115">
        <ele>62.2</ele>
        <time>2021-05-23T08:13:13Z</time>
      </trkpt>
      <trkpt lat="49.44422" lon="1.13117">
        <ele>62.9</ele>
        <time>2021-05-23T08:13:14Z</time>
      </trkpt>
      <trkpt lat="49.44427" lon="1.13119">
        <ele>63.6</ele>
        <time>2021-05-23T08:13:15Z</time>
      </trkpt>
      <trkpt lat="49.4443" lon="1.13121">
        <ele>64.4</ele>
        <time>2021-05-23T08:13:16Z</time>
      </trkpt>
      <trkpt lat="49.44435" lon="1.13123">
        <ele>65.1</ele>
        <time>2021-05-23T08:13:18Z</time>
      </trkpt>
      <trkpt lat="49.4444" lon="1.13125">
        <ele>65.6</ele>
        <time>2021-05-23T08:13:19Z</time>
      </trkpt>
      <trkpt lat="49.44445" lon="1.13127">
        <ele>66.1</ele>
        <time>2021-05-23T08:13:20Z</time>
      </trkpt>
      <trkpt lat="49.4445" lon="1.13128">
        <ele>66.5</ele>
        <time>2021-05-23T08:13:21Z</time>
      </trkpt>
      <trkpt lat="49.44456" lon="1.13131">
        <ele>67</ele>
        <time>2021-05-23T08:13:23Z</time>
      </trkpt>
      <trkpt lat="49.4446" lon="1.13133">
        <ele>67.5</ele>
        <time>2021-05-23T08:13:24Z</time>
      </trkpt>
      <trkpt lat="49.44462" lon="1.13133">
        <ele>67.9</ele>
        <time>2021-05-23T08:13:25Z</time>
      </trkpt>
      <trkpt lat="49.44465" lon="1.13133">
        <ele>68.3</ele>
        <time>2021-05-23T08:13:27Z</time>
      </trkpt>
      <trkpt lat="49.44468" lon="1.13134">
        <ele>68.7</ele>
        <time>2021-05-23T08:13:28Z</time>
      </trkpt>
      <trkpt lat="49.44471" lon="1.13136">
        <ele>69.2</ele>
        <time>2021-05-23T08:13:30Z</time>
      </trkpt>
      <trkpt lat="49.44475" lon="1.13136">
        <ele>69.5</ele>
        <time>2021-05-23T08:13:31Z</time>
      </trkpt>
      <trkpt lat="49.4448" lon="1.13136">
        <ele>69.8</ele>
        <time>2021-05-23T08:13:33Z</time>
      </trkpt>
      <trkpt lat="49.44483" lon="1.13136">
        <ele>70.1</ele>
        <time>2021-05-23T08:13:34Z</time>
      </trkpt>
      <trkpt lat="49.44487" lon="1.13137">
        <ele>70.4</ele>
        <time>2021-05-23T08:13:35Z</time>
      </trkpt>
      <trkpt lat="49.44492" lon="1.13137">
        <ele>70.5</ele>
        <time>2021-05-23T08:13:37Z</time>
      </trkpt>
      <trkpt lat="49.44495" lon="1.13137">
        <ele>70.7</ele>
        <time>2021-05-23T08:13:38Z</time>
      </trkpt>
      <trkpt lat="49.44495" lon="1.13137">
        <ele>70.8</ele>
        <time>2021-05-23T08:13:39Z</time>
      </trkpt>
      <trkpt lat="49.44497" lon="1.13134">
        <ele>70.9</ele>
        <time>2021-05-23T08:13:41Z</time>
      </trkpt>
      <trkpt lat="49.44501" lon="1.13131">
        <ele>71</ele>
        <time>2021-05-23T08:13:42Z</time>
      </trkpt>
      <trkpt lat="49.44505" lon="1.13127">
        <ele>71</ele>
        <time>2021-05-23T08:13:44Z</time>
      </trkpt>
      <trkpt lat="49.44506" lon="1.13125">
        <ele>71</ele>
        <time>2021-05-23T08:13:45Z</time>
      </trkpt>
      <trkpt lat="49.44508" lon="1.13123">
        <ele>71</ele>
        <time>2021-05-23T08:13:46Z</time>
      </trkpt>
      <trkpt lat="49.4451" lon="1.13121">
        <ele>71</ele>
        <time>2021-05-23T08:13:47Z</time>
      </trkpt>
      <trkpt lat="49.44514" lon="1.13117">
        <ele>71</ele>
        <time>2021-05-23T08:13:49Z</time>
      </trkpt>
      <trkpt lat="49.44516" lon="1.13114">
        <ele>71.1</ele>
        <time>2021-05-23T08:13:50Z</time>
      </trkpt>
      <trkpt lat="49.44519" lon="1.1311">
        <ele>71.2</ele>
        <time>2021-05-23T08:13:52Z</time>
      </trkpt>
      <trkpt lat="49.44521" lon="1.13107">
        <ele>71.3</ele>
        <time>2021-05-23T08:13:53Z</time>
      </trkpt>
      <trkpt lat="49.44524" lon="1.13103">
        <ele>71.4</ele>
        <time>2021-05-23T08:13:54Z</time>
      </trkpt>
      <trkpt lat="49.44526" lon="1.131">
        <ele>71.5</ele>
        <time>2021-05-23T08:13:56Z</time>
      </trkpt>
      <trkpt lat="49.44528" lon="1.13096">
        <ele>71.5</ele>
        <time>2021-05-23T08:13:57Z</time>
      </trkpt>
      <trkpt lat="49.44531" lon="1.13092">
        <ele>71.6</ele>
        <time>2021-05-23T08:13:59Z</time>
      </trkpt>
      <trkpt lat="49.44534" lon="1.13088">
        <ele>71.7</ele>
        <time>2021-05-23T08:14:00Z</time>
      </trkpt>
      <trkpt lat="49.44536" lon="1.13085">
        <ele>71.8</ele>
        <time>2021-05-23T08:14:01Z</time>
      </trkpt>
      <trkpt lat="49.44541" lon="1.1308">
        <ele>72</ele>
        <time>2021-05-23T08:14:03Z</time>
      </trkpt>
      <trkpt lat="49.44543" lon="1.13077">
        <ele>72.2</ele>
        <time>2021-05-23T08:14:05Z</time>
      </trkpt>
      <trkpt lat="49.44546" lon="1.13074">
        <ele>72.3</ele>
        <time>2021-05-23T08:14:06Z</time>
      </trkpt>
      <trkpt lat="49.4455" lon="1.1307">
        <ele>72.4</ele>
        <time>2021-05-23T08:14:08Z</time>
      </trkpt>
      <trkpt lat="49.44551" lon="1.13069">
        <ele>72.5</ele>
        <time>2021-05-23T08:14:09Z</time>
      </trkpt>
      <trkpt lat="49.44552" lon="1.13067">
        <ele>72.5</ele>
        <time>2021-05-23T08:14:10Z</time>
      </trkpt>
      <trkpt lat="49.44554" lon="1.13064">
        <ele>72.5</ele>
        <time>2021-05-23T08:14:12Z</time>
      </trkpt>
      <trkpt lat="49.44555" lon="1.13063">
        <ele>72.5</ele>
        <time>2021-05-23T08:14:13Z</time>
      </trkpt>
      <trkpt lat="49.44558" lon="1.1306">
        <ele>72.5</ele>
        <time>2021-05-23T08:14:14Z</time>
      </trkpt>
      <trkpt lat="49.44561" lon="1.13057">
        <ele>72.5</ele>
        <time>2021-05-23T08:14:15Z</time>
      </trkpt>
      <trkpt lat="49.44562" lon="1.13056">
        <ele>72.5</ele>
        <time>2021-05-23T08:14:16Z</time>
      </trkpt>
      <trkpt lat="49.44565" lon="1.13054">
        <ele>72.5</ele>
        <time>2021-05-23T08:14:18Z</time>
      </trkpt>
      <trkpt lat="49.44568" lon="1.13051">
        <ele>72.4</ele>
        <time>2021-05-23T08:14:19Z</time>
      </trkpt>
      <trkpt lat="49.4457" lon="1.1305">
        <ele>72.3</ele>
        <time>2021-05-23T08:14:20Z</time>
      </trkpt>
      <trkpt lat="49.44573" lon="1.13048">
        <ele>72.2</ele>
        <time>2021-05-23T08:14:22Z</time>
      </trkpt>
      <trkpt lat="49.44575" lon="1.13047">
        <ele>72.1</ele>
        <time>2021-05-23T08:14:23Z</time>
      </trkpt>
      <trkpt lat="49.44577" lon="1.13045">
        <ele>72</ele>
        <time>2021-05-23T08:14:25Z</time>
      </trkpt>
      <trkpt lat="49.4458" lon="1.13044">
        <ele>72</ele>
        <time>2021-05-23T08:14:26Z</time>
      </trkpt>
      <trkpt lat="49.44581" lon="1.13044">
        <ele>71.8</ele>
        <time>2021-05-23T08:14:27Z</time>
      </trkpt>
      <trkpt lat="49.44585" lon="1.13042">
        <ele>71.6</ele>
        <time>2021-05-23T08:14:28Z</time>
      </trkpt>
      <trkpt lat="49.44586" lon="1.13041">
        <ele>71.5</ele>
        <time>2021-05-23T08:14:29Z</time>
      </trkpt>
      <trkpt lat="49.44589" lon="1.13039">
        <ele>71.2</ele>
        <time>2021-05-23T08:14:30Z</time>
      </trkpt>
      <trkpt lat="49.44592" lon="1.13036">
        <ele>70.9</ele>
        <time>2021-05-23T08:14:32Z</time>
      </trkpt>
      <trkpt lat="49.44611" lon="1.13012">
        <ele>70.6</ele>
        <time>2021-05-23T08:14:33Z</time>
      </trkpt>
      <trkpt lat="49.44617" lon="1.13007">
        <ele>70.4</ele>
        <time>2021-05-23T08:14:34Z</time>
      </trkpt>
      <trkpt lat="49.44626" lon="1.12997">
        <ele>70.1</ele>
        <time>2021-05-23T08:14:36Z</time>
      </trkpt>
      <trkpt lat="49.44634" lon="1.12987">
        <ele>69.8</ele>
        <time>2021-05-23T08:14:38Z</time>
      </trkpt>
      <trkpt lat="49.44638" lon="1.12981">
        <ele>69.5</ele>
        <time>2021-05-23T08:14:39Z</time>
      </trkpt>
      <trkpt lat="49.44645" lon="1.12974">
        <ele>69.4</ele>
        <time>2021-05-23T08:14:41Z</time>
      </trkpt>
      <trkpt lat="49.44649" lon="1.12971">
        <ele>69.4</ele>
        <time>2021-05-23T08:14:42Z</time>
      </trkpt>
      <trkpt lat="49.44654" lon="1.12968">
        <ele>69.5</ele>
        <time>2021-05-23T08:14:45Z</time>
      </trkpt>
      <trkpt lat="49.44658" lon="1.12968">
        <ele>69.5</ele>
        <time>2021-05-23T08:14:46Z</time>
      </trkpt>
      <trkpt lat="49.4466" lon="1.12971">
        <ele>69.8</ele>
        <time>2021-05-23T08:14:47Z</time>
      </trkpt>
      <trkpt lat="49.44661" lon="1.12973">
        <ele>70.1</ele>
        <time>2021-05-23T08:14:48Z</time>
      </trkpt>
      <trkpt lat="49.44662" lon="1.12975">
        <ele>70.5</ele>
        <time>2021-05-23T08:14:49Z</time>
      </trkpt>
      <trkpt lat="49.44663" lon="1.12978">
        <ele>70.8</ele>
        <time>2021-05-23T08:14:51Z</time>
      </trkpt>
      <trkpt lat="49.44663" lon="1.12983">
        <ele>71.3</ele>
        <time>2021-05-23T08:14:52Z</time>
      </trkpt>
      <trkpt lat="49.44662" lon="1.12986">
        <ele>71.7</ele>
        <time>2021-05-23T08:14:53Z</time>
      </trkpt>
      <trkpt lat="49.4466" lon="1.12991">
        <ele>72.2</ele>
        <time>2021-05-23T08:14:55Z</time>
      </trkpt>
      <trkpt lat="49.44658" lon="1.12998">
        <ele>72.6</ele>
        <time>2021-05-23T08:14:57Z</time>
      </trkpt>
      <trkpt lat="49.44657" lon="1.13">
        <ele>73.1</ele>
        <time>2021-05-23T08:14:59Z</time>
      </trkpt>
      <trkpt lat="49.44656" lon="1.13002">
        <ele>73.5</ele>
        <time>2021-05-23T08:15:00Z</time>
      </trkpt>
      <trkpt lat="49.44654" lon="1.13006">
        <ele>74.1</ele>
        <time>2021-05-23T08:15:01Z</time>
      </trkpt>
      <trkpt lat="49.44652" lon="1.13008">
        <ele>74.5</ele>
        <time>2021-05-23T08:15:02Z</time>
      </trkpt>
      <trkpt lat="49.4465" lon="1.13012">
        <ele>75.1</ele>
        <time>2021-05-23T08:15:04Z</time>
      </trkpt>
      <trkpt lat="49.44648" lon="1.13015">
        <ele>75.5</ele>
        <time>2021-05-23T08:15:05Z</time>
      </trkpt>
      <trkpt lat="49.44646" lon="1.13017">
        <ele>76</ele>
        <time>2021-05-23T08:15:07Z</time>
      </trkpt>
      <trkpt lat="49.44643" lon="1.13021">
        <ele>76.4</ele>
        <time>2021-05-23T08:15:08Z</time>
      </trkpt>
      <trkpt lat="49.44642" lon="1.13023">
        <ele>76.8</ele>
        <time>2021-05-23T08:15:09Z</time>
      </trkpt>
      <trkpt lat="49.44639" lon="1.13026">
        <ele>77.3</ele>
        <time>2021-05-23T08:15:10Z</time>
      </trkpt>
      <trkpt lat="49.44638" lon="1.13028">
        <ele>77.6</ele>
        <time>2021-05-23T08:15:11Z</time>
      </trkpt>
      <trkpt lat="49.44635" lon="1.13031">
        <ele>78.1</ele>
        <time>2021-05-23T08:15:13Z</time>
      </trkpt>
      <trkpt lat="49.44633" lon="1.13034">
        <ele>78.5</ele>
        <time>2021-05-23T08:15:14Z</time>
      </trkpt>
      <trkpt lat="49.4463" lon="1.13038">
        <ele>78.7</ele>
        <time>2021-05-23T08:15:16Z</time>
      </trkpt>
      <trkpt lat="49.44628" lon="1.1304">
        <ele>79</ele>
        <time>2021-05-23T08:15:17Z</time>
      </trkpt>
      <trkpt lat="49.44626" lon="1.13043">
        <ele>79.2</ele>
        <time>2021-05-23T08:15:18Z</time>
      </trkpt>
      <trkpt lat="49.44625" lon="1.13045">
        <ele>79.4</ele>
        <time>2021-05-23T08:15:20Z</time>
      </trkpt>
      <trkpt lat="49.44623" lon="1.13047">
        <ele>79.5</ele>
        <time>2021-05-23T08:15:21Z</time>
      </trkpt>
      <trkpt lat="49.44622" lon="1.13049">
        <ele>79.8</ele>
        <time>2021-05-23T08:15:23Z</time>
      </trkpt>
      <trkpt lat="49.44621" lon="1.1305">
        <ele>80.1</ele>
        <time>2021-05-23T08:15:24Z</time>
      </trkpt>
      <trkpt lat="49.44621" lon="1.1305">
        <ele>80.4</ele>
        <time>2021-05-23T08:15:25Z</time>
      </trkpt>
      <trkpt lat="49.44621" lon="1.1305">
        <ele>80.7</ele>
        <time>2021-05-23T08:15:27Z</time>
      </trkpt>
      <trkpt lat="49.44619" lon="1.13052">
        <ele>81</ele>
        <time>2021-05-23T08:15:28Z</time>
      </trkpt>
      <trkpt lat="49.44617" lon="1.13057">
        <ele>81.4</ele>
        <time>2021-05-23T08:15:30Z</time>
      </trkpt>
      <trkpt lat="49.44614" lon="1.13061">
        <ele>81.7</ele>
        <time>2021-05-23T08:15:32Z</time>
      </trkpt>
      <trkpt lat="49.44612" lon="1.13065">
        <ele>82.2</ele>
        <time>2021-05-23T08:15:34Z</time>
      </trkpt>
      <trkpt lat="49.4461" lon="1.13068">
        <ele>82.7</ele>
        <time>2021-05-23T08:15:35Z</time>
      </trkpt>
      <trkpt lat="49.44608" lon="1.13071">
        <ele>83.4</ele>
        <time>2021-05-23T08:15:36Z</time>
      </trkpt>
      <trkpt lat="49.44605" lon="1.13075">
        <ele>83.9</ele>
        <time>2021-05-23T08:15:37Z</time>
      </trkpt>
      <trkpt lat="49.44605" lon="1.13076">
        <ele>84.4</ele>
        <time>2021-05-23T08:15:38Z</time>
      </trkpt>
      <trkpt lat="49.44605" lon="1.13082">
        <ele>84.7</ele>
        <time>2021-05-23T08:15:40Z</time>
      </trkpt>
      <trkpt lat="49.44605" lon="1.13084">
        <ele>85.1</ele>
        <time>2021-05-23T08:15:41Z</time>
      </trkpt>
      <trkpt lat="49.44607" lon="1.13085">
        <ele>85.4</ele>
        <time>2021-05-23T08:15:42Z</time>
      </trkpt>
      <trkpt lat="49.4461" lon="1.13082">
        <ele>85.6</ele>
        <time>2021-05-23T08:15:44Z</time>
      </trkpt>
      <trkpt lat="49.44612" lon="1.13079">
        <ele>85.8</ele>
        <time>2021-05-23T08:15:46Z</time>
      </trkpt>
      <trkpt lat="49.44613" lon="1.13078">
        <ele>86</ele>
        <time>2021-05-23T08:15:47Z</time>
      </trkpt>
      <trkpt lat="49.44615" lon="1.13077">
        <ele>86.1</ele>
        <time>2021-05-23T08:15:48Z</time>
      </trkpt>
      <trkpt lat="49.44618" lon="1.13076">
        <ele>86.1</ele>
        <time>2021-05-23T08:15:50Z</time>
      </trkpt>
      <trkpt lat="49.4462" lon="1.13075">
        <ele>86</ele>
        <time>2021-05-23T08:15:51Z</time>
      </trkpt>
      <trkpt lat="49.44623" lon="1.13074">
        <ele>86</ele>
        <time>2021-05-23T08:15:52Z</time>
      </trkpt>
      <trkpt lat="49.44626" lon="1.13073">
        <ele>86</ele>
        <time>2021-05-23T08:15:53Z</time>
      </trkpt>
      <trkpt lat="49.44629" lon="1.13072">
        <ele>86</ele>
        <time>2021-05-23T08:15:54Z</time>
      </trkpt>
      <trkpt lat="49.44632" lon="1.1307">
        <ele>86</ele>
        <time>2021-05-23T08:15:55Z</time>
      </trkpt>
      <trkpt lat="49.44637" lon="1.13068">
        <ele>86</ele>
        <time>2021-05-23T08:15:57Z</time>
      </trkpt>
      <trkpt lat="49.44641" lon="1.13067">
        <ele>86</ele>
        <time>2021-05-23T08:15:58Z</time>
      </trkpt>
      <trkpt lat="49.4465" lon="1.13067">
        <ele>86</ele>
        <time>2021-05-23T08:16:00Z</time>
      </trkpt>
      <trkpt lat="49.44657" lon="1.13068">
        <ele>86.1</ele>
        <time>2021-05-23T08:16:01Z</time>
      </trkpt>
      <trkpt lat="49.44663" lon="1.1307">
        <ele>86.2</ele>
        <time>2021-05-23T08:16:02Z</time>
      </trkpt>
      <trkpt lat="49.44666" lon="1.13071">
        <ele>86.3</ele>
        <time>2021-05-23T08:16:03Z</time>
      </trkpt>
      <trkpt lat="49.4467" lon="1.13073">
        <ele>86.4</ele>
        <time>2021-05-23T08:16:04Z</time>
      </trkpt>
      <trkpt lat="49.44675" lon="1.13077">
        <ele>86.5</ele>
        <time>2021-05-23T08:16:06Z</time>
      </trkpt>
      <trkpt lat="49.44678" lon="1.13079">
        <ele>86.7</ele>
        <time>2021-05-23T08:16:07Z</time>
      </trkpt>
      <trkpt lat="49.44681" lon="1.1308">
        <ele>86.9</ele>
        <time>2021-05-23T08:16:08Z</time>
      </trkpt>
      <trkpt lat="49.44684" lon="1.13081">
        <ele>87.2</ele>
        <time>2021-05-23T08:16:09Z</time>
      </trkpt>
      <trkpt lat="49.44688" lon="1.13084">
        <ele>87.5</ele>
        <time>2021-05-23T08:16:11Z</time>
      </trkpt>
      <trkpt lat="49.44691" lon="1.13086">
        <ele>87.7</ele>
        <time>2021-05-23T08:16:12Z</time>
      </trkpt>
      <trkpt lat="49.44695" lon="1.13088">
        <ele>88</ele>
        <time>2021-05-23T08:16:13Z</time>
      </trkpt>
      <trkpt lat="49.44698" lon="1.13091">
        <ele>88.2</ele>
        <time>2021-05-23T08:16:14Z</time>
      </trkpt>
      <trkpt lat="49.44702" lon="1.13093">
        <ele>88.4</ele>
        <time>2021-05-23T08:16:15Z</time>
      </trkpt>
      <trkpt lat="49.44707" lon="1.13097">
        <ele>88.6</ele>
        <time>2021-05-23T08:16:17Z</time>
      </trkpt>
      <trkpt lat="49.4471" lon="1.13099">
        <ele>88.9</ele>
        <time>2021-05-23T08:16:18Z</time>
      </trkpt>
      <trkpt lat="49.44714" lon="1.13101">
        <ele>89.1</ele>
        <time>2021-05-23T08:16:21Z</time>
      </trkpt>
      <trkpt lat="49.44716" lon="1.13104">
        <ele>89.3</ele>
        <time>2021-05-23T08:16:22Z</time>
      </trkpt>
      <trkpt lat="49.44718" lon="1.13106">
        <ele>89.5</ele>
        <time>2021-05-23T08:16:24Z</time>
      </trkpt>
      <trkpt lat="49.4472" lon="1.13108">
        <ele>89.5</ele>
        <time>2021-05-23T08:16:26Z</time>
      </trkpt>
      <trkpt lat="49.44722" lon="1.1311">
        <ele>89.7</ele>
        <time>2021-05-23T08:16:28Z</time>
      </trkpt>
      <trkpt lat="49.44724" lon="1.13112">
        <ele>89.9</ele>
        <time>2021-05-23T08:16:29Z</time>
      </trkpt>
      <trkpt lat="49.44728" lon="1.13117">
        <ele>90.1</ele>
        <time>2021-05-23T08:16:31Z</time>
      </trkpt>
      <trkpt lat="49.44732" lon="1.13122">
        <ele>90.3</ele>
        <time>2021-05-23T08:16:32Z</time>
      </trkpt>
      <trkpt lat="49.44736" lon="1.13127">
        <ele>90.5</ele>
        <time>2021-05-23T08:16:33Z</time>
      </trkpt>
      <trkpt lat="49.4474" lon="1.13132">
        <ele>90.5</ele>
        <time>2021-05-23T08:16:34Z</time>
      </trkpt>
      <trkpt lat="49.44744" lon="1.13137">
        <ele>90.6</ele>
        <time>2021-05-23T08:16:35Z</time>
      </trkpt>
      <trkpt lat="49.44747" lon="1.1314">
        <ele>90.7</ele>
        <time>2021-05-23T08:16:37Z</time>
      </trkpt>
      <trkpt lat="49.4475" lon="1.13143">
        <ele>90.9</ele>
        <time>2021-05-23T08:16:38Z</time>
      </trkpt>
      <trkpt lat="49.44754" lon="1.13147">
        <ele>91.2</ele>
        <time>2021-05-23T08:16:39Z</time>
      </trkpt>
      <trkpt lat="49.44759" lon="1.13154">
        <ele>91.5</ele>
        <time>2021-05-23T08:16:41Z</time>
      </trkpt>
      <trkpt lat="49.44762" lon="1.13158">
        <ele>91.6</ele>
        <time>2021-05-23T08:16:42Z</time>
      </trkpt>
      <trkpt lat="49.44764" lon="1.13161">
        <ele>91.8</ele>
        <time>2021-05-23T08:16:43Z</time>
      </trkpt>
      <trkpt lat="49.44766" lon="1.13167">
        <ele>92</ele>
        <time>2021-05-23T08:16:45Z</time>
      </trkpt>
      <trkpt lat="49.44769" lon="1.13174">
        <ele>92.2</ele>
        <time>2021-05-23T08:16:46Z</time>
      </trkpt>
      <trkpt lat="49.44773" lon="1.1318">
        <ele>92.4</ele>
        <time>2021-05-23T08:16:48Z</time>
      </trkpt>
      <trkpt lat="49.44777" lon="1.13183">
        <ele>92.5</ele>
        <time>2021-05-23T08:16:49Z</time>
      </trkpt>
      <trkpt lat="49.4478" lon="1.13186">
        <ele>92.5</ele>
        <time>2021-05-23T08:16:50Z</time>
      </trkpt>
      <trkpt lat="49.44783" lon="1.13192">
        <ele>92.5</ele>
        <time>2021-05-23T08:16:52Z</time>
      </trkpt>
      <trkpt lat="49.44787" lon="1.13196">
        <ele>92.3</ele>
        <time>2021-05-23T08:16:53Z</time>
      </trkpt>
      <trkpt lat="49.44791" lon="1.132">
        <ele>91.9</ele>
        <time>2021-05-23T08:16:54Z</time>
      </trkpt>
      <trkpt lat="49.44798" lon="1.13205">
        <ele>91.5</ele>
        <time>2021-05-23T08:16:56Z</time>
      </trkpt>
      <trkpt lat="49.44806" lon="1.13211">
        <ele>91.2</ele>
        <time>2021-05-23T08:16:57Z</time>
      </trkpt>
      <trkpt lat="49.44812" lon="1.13216">
        <ele>90.9</ele>
        <time>2021-05-23T08:16:58Z</time>
      </trkpt>
      <trkpt lat="49.44825" lon="1.13223">
        <ele>90.7</ele>
        <time>2021-05-23T08:17:00Z</time>
      </trkpt>
      <trkpt lat="49.44828" lon="1.13224">
        <ele>90.6</ele>
        <time>2021-05-23T08:17:01Z</time>
      </trkpt>
      <trkpt lat="49.44829" lon="1.13225">
        <ele>90.6</ele>
        <time>2021-05-23T08:17:03Z</time>
      </trkpt>
      <trkpt lat="49.44831" lon="1.13226">
        <ele>90.7</ele>
        <time>2021-05-23T08:17:04Z</time>
      </trkpt>
      <trkpt lat="49.44845" lon="1.13233">
        <ele>90.8</ele>
        <time>2021-05-23T08:17:05Z</time>
      </trkpt>
      <trkpt lat="49.44864" lon="1.13243">
        <ele>90.9</ele>
        <time>2021-05-23T08:17:08Z</time>
      </trkpt>
      <trkpt lat="49.44875" lon="1.1325">
        <ele>91.1</ele>
        <time>2021-05-23T08:17:10Z</time>
      </trkpt>
      <trkpt lat="49.4488" lon="1.13257">
        <ele>91.4</ele>
        <time>2021-05-23T08:17:12Z</time>
      </trkpt>
      <trkpt lat="49.44884" lon="1.13259">
        <ele>91.6</ele>
        <time>2021-05-23T08:17:13Z</time>
      </trkpt>
      <trkpt lat="49.44888" lon="1.13261">
        <ele>91.9</ele>
        <time>2021-05-23T08:17:14Z</time>
      </trkpt>
      <trkpt lat="49.44891" lon="1.13262">
        <ele>92.2</ele>
        <time>2021-05-23T08:17:15Z</time>
      </trkpt>
      <trkpt lat="49.44895" lon="1.13265">
        <ele>92.4</ele>
        <time>2021-05-23T08:17:17Z</time>
      </trkpt>
      <trkpt lat="49.449" lon="1.13268">
        <ele>92.5</ele>
        <time>2021-05-23T08:17:18Z</time>
      </trkpt>
      <trkpt lat="49.44904" lon="1.13272">
        <ele>92.5</ele>
        <time>2021-05-23T08:17:19Z</time>
      </trkpt>
      <trkpt lat="49.44909" lon="1.13276">
        <ele>92.7</ele>
        <time>2021-05-23T08:17:20Z</time>
      </trkpt>
      <trkpt lat="49.44912" lon="1.13281">
        <ele>93</ele>
        <time>2021-05-23T08:17:21Z</time>
      </trkpt>
      <trkpt lat="49.44917" lon="1.13285">
        <ele>93.4</ele>
        <time>2021-05-23T08:17:23Z</time>
      </trkpt>
      <trkpt lat="49.44921" lon="1.13289">
        <ele>93.7</ele>
        <time>2021-05-23T08:17:24Z</time>
      </trkpt>
      <trkpt lat="49.44924" lon="1.13293">
        <ele>94.1</ele>
        <time>2021-05-23T08:17:25Z</time>
      </trkpt>
      <trkpt lat="49.44928" lon="1.13298">
        <ele>94.5</ele>
        <time>2021-05-23T08:17:26Z</time>
      </trkpt>
      <trkpt lat="49.44931" lon="1.13301">
        <ele>95.1</ele>
        <time>2021-05-23T08:17:27Z</time>
      </trkpt>
      <trkpt lat="49.44937" lon="1.13305">
        <ele>95.5</ele>
        <time>2021-05-23T08:17:29Z</time>
      </trkpt>
      <trkpt lat="49.44941" lon="1.13308">
        <ele>96</ele>
        <time>2021-05-23T08:17:31Z</time>
      </trkpt>
      <trkpt lat="49.44944" lon="1.1331">
        <ele>96.5</ele>
        <time>2021-05-23T08:17:32Z</time>
      </trkpt>
      <trkpt lat="49.44948" lon="1.13313">
        <ele>97</ele>
        <time>2021-05-23T08:17:34Z</time>
      </trkpt>
      <trkpt lat="49.44951" lon="1.13315">
        <ele>97.4</ele>
        <time>2021-05-23T08:17:35Z</time>
      </trkpt>
      <trkpt lat="49.44953" lon="1.13318">
        <ele>97.8</ele>
        <time>2021-05-23T08:17:36Z</time>
      </trkpt>
      <trkpt lat="49.44958" lon="1.13319">
        <ele>98.3</ele>
        <time>2021-05-23T08:17:37Z</time>
      </trkpt>
      <trkpt lat="49.44963" lon="1.13321">
        <ele>98.7</ele>
        <time>2021-05-23T08:17:39Z</time>
      </trkpt>
      <trkpt lat="49.44966" lon="1.13323">
        <ele>99.2</ele>
        <time>2021-05-23T08:17:40Z</time>
      </trkpt>
      <trkpt lat="49.44968" lon="1.13325">
        <ele>99.5</ele>
        <time>2021-05-23T08:17:41Z</time>
      </trkpt>
      <trkpt lat="49.44974" lon="1.1333">
        <ele>99.8</ele>
        <time>2021-05-23T08:17:43Z</time>
      </trkpt>
      <trkpt lat="49.44977" lon="1.13334">
        <ele>100.1</ele>
        <time>2021-05-23T08:17:44Z</time>
      </trkpt>
      <trkpt lat="49.44979" lon="1.13336">
        <ele>100.5</ele>
        <time>2021-05-23T08:17:45Z</time>
      </trkpt>
      <trkpt lat="49.4498" lon="1.13337">
        <ele>100.7</ele>
        <time>2021-05-23T08:17:46Z</time>
      </trkpt>
      <trkpt lat="49.44982" lon="1.13339">
        <ele>101</ele>
        <time>2021-05-23T08:17:47Z</time>
      </trkpt>
      <trkpt lat="49.44985" lon="1.13341">
        <ele>101.3</ele>
        <time>2021-05-23T08:17:49Z</time>
      </trkpt>
      <trkpt lat="49.44987" lon="1.13344">
        <ele>101.5</ele>
        <time>2021-05-23T08:17:50Z</time>
      </trkpt>
      <trkpt lat="49.44988" lon="1.13345">
        <ele>101.5</ele>
        <time>2021-05-23T08:17:51Z</time>
      </trkpt>
      <trkpt lat="49.4499" lon="1.13347">
        <ele>101.6</ele>
        <time>2021-05-23T08:17:52Z</time>
      </trkpt>
      <trkpt lat="49.44996" lon="1.13351">
        <ele>101.6</ele>
        <time>2021-05-23T08:17:56Z</time>
      </trkpt>
      <trkpt lat="49.44999" lon="1.13353">
        <ele>101.6</ele>
        <time>2021-05-23T08:17:57Z</time>
      </trkpt>
      <trkpt lat="49.45" lon="1.13354">
        <ele>101.6</ele>
        <time>2021-05-23T08:17:58Z</time>
      </trkpt>
      <trkpt lat="49.45004" lon="1.13357">
        <ele>101.6</ele>
        <time>2021-05-23T08:17:59Z</time>
      </trkpt>
      <trkpt lat="49.45007" lon="1.1336">
        <ele>101.5</ele>
        <time>2021-05-23T08:18:00Z</time>
      </trkpt>
      <trkpt lat="49.45011" lon="1.13361">
        <ele>101.5</ele>
        <time>2021-05-23T08:18:02Z</time>
      </trkpt>
      <trkpt lat="49.45014" lon="1.13363">
        <ele>101.5</ele>
        <time>2021-05-23T08:18:03Z</time>
      </trkpt>
      <trkpt lat="49.45019" lon="1.13366">
        <ele>101.5</ele>
        <time>2021-05-23T08:18:05Z</time>
      </trkpt>
      <trkpt lat="49.45024" lon="1.13369">
        <ele>101.5</ele>
        <time>2021-05-23T08:18:06Z</time>
      </trkpt>
      <trkpt lat="49.45027" lon="1.13372">
        <ele>101.5</ele>
        <time>2021-05-23T08:18:07Z</time>
      </trkpt>
      <trkpt lat="49.45032" lon="1.13376">
        <ele>101.6</ele>
        <time>2021-05-23T08:18:09Z</time>
      </trkpt>
      <trkpt lat="49.45037" lon="1.1338">
        <ele>101.8</ele>
        <time>2021-05-23T08:18:10Z</time>
      </trkpt>
      <trkpt lat="49.45042" lon="1.13382">
        <ele>102</ele>
        <time>2021-05-23T08:18:12Z</time>
      </trkpt>
      <trkpt lat="49.45046" lon="1.13384">
        <ele>102.2</ele>
        <time>2021-05-23T08:18:13Z</time>
      </trkpt>
      <trkpt lat="49.45049" lon="1.13385">
        <ele>102.5</ele>
        <time>2021-05-23T08:18:14Z</time>
      </trkpt>
      <trkpt lat="49.45053" lon="1.13386">
        <ele>102.7</ele>
        <time>2021-05-23T08:18:15Z</time>
      </trkpt>
      <trkpt lat="49.45056" lon="1.13388">
        <ele>103</ele>
        <time>2021-05-23T08:18:16Z</time>
      </trkpt>
      <trkpt lat="49.45061" lon="1.1339">
        <ele>103.2</ele>
        <time>2021-05-23T08:18:18Z</time>
      </trkpt>
      <trkpt lat="49.45064" lon="1.13391">
        <ele>103.4</ele>
        <time>2021-05-23T08:18:19Z</time>
      </trkpt>
      <trkpt lat="49.45068" lon="1.13392">
        <ele>103.5</ele>
        <time>2021-05-23T08:18:20Z</time>
      </trkpt>
      <trkpt lat="49.45073" lon="1.13392">
        <ele>103.7</ele>
        <time>2021-05-23T08:18:21Z</time>
      </trkpt>
      <trkpt lat="49.45081" lon="1.13392">
        <ele>103.9</ele>
        <time>2021-05-23T08:18:23Z</time>
      </trkpt>
      <trkpt lat="49.45089" lon="1.13394">
        <ele>104.2</ele>
        <time>2021-05-23T08:18:25Z</time>
      </trkpt>
      <trkpt lat="49.45095" lon="1.13397">
        <ele>104.5</ele>
        <time>2021-05-23T08:18:26Z</time>
      </trkpt>
      <trkpt lat="49.45098" lon="1.134">
        <ele>104.8</ele>
        <time>2021-05-23T08:18:27Z</time>
      </trkpt>
      <trkpt lat="49.45105" lon="1.13405">
        <ele>105.1</ele>
        <time>2021-05-23T08:18:29Z</time>
      </trkpt>
      <trkpt lat="49.45122" lon="1.13412">
        <ele>105.5</ele>
        <time>2021-05-23T08:18:30Z</time>
      </trkpt>
      <trkpt lat="49.45127" lon="1.13415">
        <ele>105.9</ele>
        <time>2021-05-23T08:18:32Z</time>
      </trkpt>
      <trkpt lat="49.4513" lon="1.13417">
        <ele>106.4</ele>
        <time>2021-05-23T08:18:33Z</time>
      </trkpt>
      <trkpt lat="49.45134" lon="1.13419">
        <ele>106.8</ele>
        <time>2021-05-23T08:18:34Z</time>
      </trkpt>
      <trkpt lat="49.45137" lon="1.13422">
        <ele>107.3</ele>
        <time>2021-05-23T08:18:35Z</time>
      </trkpt>
      <trkpt lat="49.45143" lon="1.13429">
        <ele>107.6</ele>
        <time>2021-05-23T08:18:37Z</time>
      </trkpt>
      <trkpt lat="49.45144" lon="1.13431">
        <ele>108</ele>
        <time>2021-05-23T08:18:38Z</time>
      </trkpt>
      <trkpt lat="49.45147" lon="1.13433">
        <ele>108.3</ele>
        <time>2021-05-23T08:18:40Z</time>
      </trkpt>
      <trkpt lat="49.45151" lon="1.13435">
        <ele>108.5</ele>
        <time>2021-05-23T08:18:41Z</time>
      </trkpt>
      <trkpt lat="49.45152" lon="1.13436">
        <ele>108.7</ele>
        <time>2021-05-23T08:18:42Z</time>
      </trkpt>
      <trkpt lat="49.45156" lon="1.13437">
        <ele>108.9</ele>
        <time>2021-05-23T08:18:45Z</time>
      </trkpt>
      <trkpt lat="49.45157" lon="1.13438">
        <ele>109</ele>
        <time>2021-05-23T08:18:46Z</time>
      </trkpt>
      <trkpt lat="49.45161" lon="1.13439">
        <ele>109</ele>
        <time>2021-05-23T08:18:47Z</time>
      </trkpt>
      <trkpt lat="49.45162" lon="1.13439">
        <ele>109</ele>
        <time>2021-05-23T08:18:48Z</time>
      </trkpt>
      <trkpt lat="49.45165" lon="1.1344">
        <ele>109</ele>
        <time>2021-05-23T08:18:49Z</time>
      </trkpt>
      <trkpt lat="49.45165" lon="1.1344">
        <ele>109.1</ele>
        <time>2021-05-23T08:18:50Z</time>
      </trkpt>
      <trkpt lat="49.45167" lon="1.1344">
        <ele>109.2</ele>
        <time>2021-05-23T08:18:51Z</time>
      </trkpt>
      <trkpt lat="49.45171" lon="1.13441">
        <ele>109.3</ele>
        <time>2021-05-23T08:18:53Z</time>
      </trkpt>
      <trkpt lat="49.45176" lon="1.13439">
        <ele>109.3</ele>
        <time>2021-05-23T08:18:55Z</time>
      </trkpt>
      <trkpt lat="49.45179" lon="1.1344">
        <ele>109.3</ele>
        <time>2021-05-23T08:18:56Z</time>
      </trkpt>
      <trkpt lat="49.45185" lon="1.13444">
        <ele>109.3</ele>
        <time>2021-05-23T08:18:58Z</time>
      </trkpt>
      <trkpt lat="49.45189" lon="1.13445">
        <ele>109.2</ele>
        <time>2021-05-23T08:18:59Z</time>
      </trkpt>
      <trkpt lat="49.452" lon="1.13447">
        <ele>109.1</ele>
        <time>2021-05-23T08:19:01Z</time>
      </trkpt>
      <trkpt lat="49.45207" lon="1.13447">
        <ele>109</ele>
        <time>2021-05-23T08:19:03Z</time>
      </trkpt>
      <trkpt lat="49.45211" lon="1.13448">
        <ele>108.9</ele>
        <time>2021-05-23T08:19:04Z</time>
      </trkpt>
      <trkpt lat="49.45217" lon="1.13449">
        <ele>108.7</ele>
        <time>2021-05-23T08:19:06Z</time>
      </trkpt>
      <trkpt lat="49.4522" lon="1.1345">
        <ele>108.5</ele>
        <time>2021-05-23T08:19:07Z</time>
      </trkpt>
      <trkpt lat="49.45221" lon="1.1345">
        <ele>108.2</ele>
        <time>2021-05-23T08:19:08Z</time>
      </trkpt>
      <trkpt lat="49.45222" lon="1.1345">
        <ele>107.9</ele>
        <time>2021-05-23T08:19:09Z</time>
      </trkpt>
      <trkpt lat="49.45225" lon="1.13451">
        <ele>107.7</ele>
        <time>2021-05-23T08:19:11Z</time>
      </trkpt>
      <trkpt lat="49.45241" lon="1.13453">
        <ele>107.5</ele>
        <time>2021-05-23T08:19:12Z</time>
      </trkpt>
      <trkpt lat="49.45246" lon="1.13453">
        <ele>107.3</ele>
        <time>2021-05-23T08:19:13Z</time>
      </trkpt>
      <trkpt lat="49.45251" lon="1.13454">
        <ele>107.1</ele>
        <time>2021-05-23T08:19:15Z</time>
      </trkpt>
      <trkpt lat="49.45256" lon="1.13454">
        <ele>106.8</ele>
        <time>2021-05-23T08:19:16Z</time>
      </trkpt>
      <trkpt lat="49.45264" lon="1.13456">
        <ele>106.5</ele>
        <time>2021-05-23T08:19:17Z</time>
      </trkpt>
      <trkpt lat="49.45271" lon="1.13456">
        <ele>106.3</ele>
        <time>2021-05-23T08:19:18Z</time>
      </trkpt>
      <trkpt lat="49.45277" lon="1.13456">
        <ele>106.1</ele>
        <time>2021-05-23T08:19:19Z</time>
      </trkpt>
      <trkpt lat="49.45282" lon="1.13455">
        <ele>105.9</ele>
        <time>2021-05-23T08:19:21Z</time>
      </trkpt>
      <trkpt lat="49.45291" lon="1.13454">
        <ele>105.7</ele>
        <time>2021-05-23T08:19:22Z</time>
      </trkpt>
      <trkpt lat="49.45297" lon="1.13455">
        <ele>105.6</ele>
        <time>2021-05-23T08:19:23Z</time>
      </trkpt>
      <trkpt lat="49.45305" lon="1.13456">
        <ele>105.6</ele>
        <time>2021-05-23T08:19:25Z</time>
      </trkpt>
      <trkpt lat="49.45313" lon="1.13458">
        <ele>105.6</ele>
        <time>2021-05-23T08:19:27Z</time>
      </trkpt>
      <trkpt lat="49.45317" lon="1.1346">
        <ele>105.7</ele>
        <time>2021-05-23T08:19:28Z</time>
      </trkpt>
      <trkpt lat="49.4532" lon="1.13461">
        <ele>105.9</ele>
        <time>2021-05-23T08:19:29Z</time>
      </trkpt>
      <trkpt lat="49.45325" lon="1.13463">
        <ele>106.2</ele>
        <time>2021-05-23T08:19:30Z</time>
      </trkpt>
      <trkpt lat="49.45329" lon="1.13466">
        <ele>106.5</ele>
        <time>2021-05-23T08:19:32Z</time>
      </trkpt>
      <trkpt lat="49.45332" lon="1.13468">
        <ele>106.9</ele>
        <time>2021-05-23T08:19:34Z</time>
      </trkpt>
      <trkpt lat="49.45335" lon="1.13469">
        <ele>107.3</ele>
        <time>2021-05-23T08:19:35Z</time>
      </trkpt>
      <trkpt lat="49.45341" lon="1.13468">
        <ele>107.7</ele>
        <time>2021-05-23T08:19:37Z</time>
      </trkpt>
      <trkpt lat="49.45343" lon="1.13469">
        <ele>108.2</ele>
        <time>2021-05-23T08:19:39Z</time>
      </trkpt>
      <trkpt lat="49.45346" lon="1.13469">
        <ele>108.5</ele>
        <time>2021-05-23T08:19:40Z</time>
      </trkpt>
      <trkpt lat="49.45348" lon="1.1347">
        <ele>108.8</ele>
        <time>2021-05-23T08:19:41Z</time>
      </trkpt>
      <trkpt lat="49.45353" lon="1.13469">
        <ele>109.1</ele>
        <time>2021-05-23T08:19:42Z</time>
      </trkpt>
      <trkpt lat="49.45357" lon="1.1347">
        <ele>109.4</ele>
        <time>2021-05-23T08:19:44Z</time>
      </trkpt>
      <trkpt lat="49.4536" lon="1.1347">
        <ele>109.5</ele>
        <time>2021-05-23T08:19:45Z</time>
      </trkpt>
      <trkpt lat="49.45363" lon="1.13469">
        <ele>109.7</ele>
        <time>2021-05-23T08:19:46Z</time>
      </trkpt>
      <trkpt lat="49.45368" lon="1.13466">
        <ele>109.7</ele>
        <time>2021-05-23T08:19:47Z</time>
      </trkpt>
      <trkpt lat="49.45372" lon="1.13464">
        <ele>109.7</ele>
        <time>2021-05-23T08:19:49Z</time>
      </trkpt>
      <trkpt lat="49.45375" lon="1.13464">
        <ele>109.7</ele>
        <time>2021-05-23T08:19:50Z</time>
      </trkpt>
      <trkpt lat="49.45382" lon="1.13461">
        <ele>109.5</ele>
        <time>2021-05-23T08:19:52Z</time>
      </trkpt>
      <trkpt lat="49.45384" lon="1.1346">
        <ele>109.4</ele>
        <time>2021-05-23T08:19:53Z</time>
      </trkpt>
      <trkpt lat="49.4539" lon="1.13456">
        <ele>109.1</ele>
        <time>2021-05-23T08:19:55Z</time>
      </trkpt>
      <trkpt lat="49.45393" lon="1.13455">
        <ele>108.7</ele>
        <time>2021-05-23T08:19:56Z</time>
      </trkpt>
      <trkpt lat="49.45398" lon="1.13452">
        <ele>108.3</ele>
        <time>2021-05-23T08:19:58Z</time>
      </trkpt>
      <trkpt lat="49.454" lon="1.1345">
        <ele>107.8</ele>
        <time>2021-05-23T08:19:59Z</time>
      </trkpt>
      <trkpt lat="49.45404" lon="1.13447">
        <ele>107.2</ele>
        <time>2021-05-23T08:20:00Z</time>
      </trkpt>
      <trkpt lat="49.45409" lon="1.13444">
        <ele>106.5</ele>
        <time>2021-05-23T08:20:01Z</time>
      </trkpt>
      <trkpt lat="49.45416" lon="1.13438">
        <ele>106.1</ele>
        <time>2021-05-23T08:20:03Z</time>
      </trkpt>
      <trkpt lat="49.45421" lon="1.13433">
        <ele>105.6</ele>
        <time>2021-05-23T08:20:04Z</time>
      </trkpt>
      <trkpt lat="49.45424" lon="1.1343">
        <ele>105.2</ele>
        <time>2021-05-23T08:20:05Z</time>
      </trkpt>
      <trkpt lat="49.4544" lon="1.13417">
        <ele>104.9</ele>
        <time>2021-05-23T08:20:07Z</time>
      </trkpt>
      <trkpt lat="49.45446" lon="1.13414">
        <ele>104.6</ele>
        <time>2021-05-23T08:20:08Z</time>
      </trkpt>
      <trkpt lat="49.45451" lon="1.13412">
        <ele>104.6</ele>
        <time>2021-05-23T08:20:10Z</time>
      </trkpt>
      <trkpt lat="49.45453" lon="1.13412">
        <ele>104.7</ele>
        <time>2021-05-23T08:20:11Z</time>
      </trkpt>
      <trkpt lat="49.45455" lon="1.13412">
        <ele>105</ele>
        <time>2021-05-23T08:20:13Z</time>
      </trkpt>
      <trkpt lat="49.45458" lon="1.13411">
        <ele>105.4</ele>
        <time>2021-05-23T08:20:14Z</time>
      </trkpt>
      <trkpt lat="49.4546" lon="1.13411">
        <ele>105.9</ele>
        <time>2021-05-23T08:20:15Z</time>
      </trkpt>
      <trkpt lat="49.45463" lon="1.13413">
        <ele>106.5</ele>
        <time>2021-05-23T08:20:16Z</time>
      </trkpt>
      <trkpt lat="49.45465" lon="1.13413">
        <ele>107.1</ele>
        <time>2021-05-23T08:20:17Z</time>
      </trkpt>
      <trkpt lat="49.45468" lon="1.13413">
        <ele>107.7</ele>
        <time>2021-05-23T08:20:20Z</time>
      </trkpt>
      <trkpt lat="49.45471" lon="1.13413">
        <ele>108.4</ele>
        <time>2021-05-23T08:20:21Z</time>
      </trkpt>
      <trkpt lat="49.45476" lon="1.13413">
        <ele>108.9</ele>
        <time>2021-05-23T08:20:23Z</time>
      </trkpt>
      <trkpt lat="49.45479" lon="1.13414">
        <ele>109.5</ele>
        <time>2021-05-23T08:20:24Z</time>
      </trkpt>
      <trkpt lat="49.4548" lon="1.13414">
        <ele>109.8</ele>
        <time>2021-05-23T08:20:25Z</time>
      </trkpt>
      <trkpt lat="49.45481" lon="1.13414">
        <ele>110.2</ele>
        <time>2021-05-23T08:20:26Z</time>
      </trkpt>
      <trkpt lat="49.45484" lon="1.13413">
        <ele>110.5</ele>
        <time>2021-05-23T08:20:28Z</time>
      </trkpt>
      <trkpt lat="49.45487" lon="1.13412">
        <ele>110.6</ele>
        <time>2021-05-23T08:20:29Z</time>
      </trkpt>
      <trkpt lat="49.45489" lon="1.13412">
        <ele>110.8</ele>
        <time>2021-05-23T08:20:30Z</time>
      </trkpt>
      <trkpt lat="49.45492" lon="1.1341">
        <ele>110.9</ele>
        <time>2021-05-23T08:20:31Z</time>
      </trkpt>
      <trkpt lat="49.45496" lon="1.13408">
        <ele>111</ele>
        <time>2021-05-23T08:20:33Z</time>
      </trkpt>
      <trkpt lat="49.45502" lon="1.13407">
        <ele>111</ele>
        <time>2021-05-23T08:20:34Z</time>
      </trkpt>
      <trkpt lat="49.45507" lon="1.13408">
        <ele>111</ele>
        <time>2021-05-23T08:20:35Z</time>
      </trkpt>
      <trkpt lat="49.45511" lon="1.1341">
        <ele>111.1</ele>
        <time>2021-05-23T08:20:36Z</time>
      </trkpt>
      <trkpt lat="49.45516" lon="1.13411">
        <ele>111.2</ele>
        <time>2021-05-23T08:20:38Z</time>
      </trkpt>
      <trkpt lat="49.4552" lon="1.13412">
        <ele>111.4</ele>
        <time>2021-05-23T08:20:39Z</time>
      </trkpt>
      <trkpt lat="49.45529" lon="1.13413">
        <ele>111.5</ele>
        <time>2021-05-23T08:20:41Z</time>
      </trkpt>
      <trkpt lat="49.45535" lon="1.13415">
        <ele>111.8</ele>
        <time>2021-05-23T08:20:42Z</time>
      </trkpt>
      <trkpt lat="49.45555" lon="1.13425">
        <ele>112.2</ele>
        <time>2021-05-23T08:20:43Z</time>
      </trkpt>
      <trkpt lat="49.45557" lon="1.13426">
        <ele>112.6</ele>
        <time>2021-05-23T08:20:44Z</time>
      </trkpt>
      <trkpt lat="49.45564" lon="1.13428">
        <ele>113.2</ele>
        <time>2021-05-23T08:20:46Z</time>
      </trkpt>
      <trkpt lat="49.45569" lon="1.13431">
        <ele>113.8</ele>
        <time>2021-05-23T08:20:47Z</time>
      </trkpt>
      <trkpt lat="49.45577" lon="1.13434">
        <ele>114.5</ele>
        <time>2021-05-23T08:20:48Z</time>
      </trkpt>
      <trkpt lat="49.45581" lon="1.13437">
        <ele>115.2</ele>
        <time>2021-05-23T08:20:50Z</time>
      </trkpt>
      <trkpt lat="49.45586" lon="1.13441">
        <ele>115.9</ele>
        <time>2021-05-23T08:20:51Z</time>
      </trkpt>
      <trkpt lat="49.45591" lon="1.13446">
        <ele>116.6</ele>
        <time>2021-05-23T08:20:52Z</time>
      </trkpt>
      <trkpt lat="49.45596" lon="1.1345">
        <ele>117.3</ele>
        <time>2021-05-23T08:20:54Z</time>
      </trkpt>
      <trkpt lat="49.45599" lon="1.13452">
        <ele>117.9</ele>
        <time>2021-05-23T08:20:55Z</time>
      </trkpt>
      <trkpt lat="49.45603" lon="1.13455">
        <ele>118.5</ele>
        <time>2021-05-23T08:20:56Z</time>
      </trkpt>
      <trkpt lat="49.45608" lon="1.13461">
        <ele>118.9</ele>
        <time>2021-05-23T08:20:58Z</time>
      </trkpt>
      <trkpt lat="49.45611" lon="1.13462">
        <ele>119.3</ele>
        <time>2021-05-23T08:20:59Z</time>
      </trkpt>
      <trkpt lat="49.45614" lon="1.13463">
        <ele>119.5</ele>
        <time>2021-05-23T08:21:00Z</time>
      </trkpt>
      <trkpt lat="49.45615" lon="1.13463">
        <ele>119.3</ele>
        <time>2021-05-23T08:21:02Z</time>
      </trkpt>
      <trkpt lat="49.45614" lon="1.13462">
        <ele>118.8</ele>
        <time>2021-05-23T08:21:03Z</time>
      </trkpt>
      <trkpt lat="49.45613" lon="1.13462">
        <ele>117.7</ele>
        <time>2021-05-23T08:21:05Z</time>
      </trkpt>
      <trkpt lat="49.45611" lon="1.13464">
        <ele>116.2</ele>
        <time>2021-05-23T08:21:06Z</time>
      </trkpt>
      <trkpt lat="49.45603" lon="1.13457">
        <ele>114.5</ele>
        <time>2021-05-23T08:21:09Z</time>
      </trkpt>
      <trkpt lat="49.45594" lon="1.13442">
        <ele>112.8</ele>
        <time>2021-05-23T08:21:10Z</time>
      </trkpt>
      <trkpt lat="49.45582" lon="1.13429">
        <ele>111</ele>
        <time>2021-05-23T08:21:11Z</time>
      </trkpt>
      <trkpt lat="49.45562" lon="1.13402">
        <ele>109.1</ele>
        <time>2021-05-23T08:21:13Z</time>
      </trkpt>
      <trkpt lat="49.45547" lon="1.1338">
        <ele>107.1</ele>
        <time>2021-05-23T08:21:15Z</time>
      </trkpt>
      <trkpt lat="49.45543" lon="1.13373">
        <ele>105</ele>
        <time>2021-05-23T08:21:16Z</time>
      </trkpt>
      <trkpt lat="49.45542" lon="1.13373">
        <ele>103</ele>
        <time>2021-05-23T08:21:17Z</time>
      </trkpt>
      <trkpt lat="49.45539" lon="1.13369">
        <ele>101.3</ele>
        <time>2021-05-23T08:21:19Z</time>
      </trkpt>
      <trkpt lat="49.45537" lon="1.13364">
        <ele>99.8</ele>
        <time>2021-05-23T08:21:20Z</time>
      </trkpt>
      <trkpt lat="49.45534" lon="1.13358">
        <ele>98.9</ele>
        <time>2021-05-23T08:21:21Z</time>
      </trkpt>
      <trkpt lat="49.45532" lon="1.13355">
        <ele>98.4</ele>
        <time>2021-05-23T08:21:22Z</time>
      </trkpt>
      <trkpt lat="49.45532" lon="1.13352">
        <ele>97.8</ele>
        <time>2021-05-23T08:21:23Z</time>
      </trkpt>
      <trkpt lat="49.45533" lon="1.13351">
        <ele>97.4</ele>
        <time>2021-05-23T08:21:25Z</time>
      </trkpt>
      <trkpt lat="49.45533" lon="1.1335">
        <ele>97</ele>
        <time>2021-05-23T08:21:27Z</time>
      </trkpt>
      <trkpt lat="49.45534" lon="1.13348">
        <ele>96.6</ele>
        <time>2021-05-23T08:21:28Z</time>
      </trkpt>
      <trkpt lat="49.45536" lon="1.13347">
        <ele>96.4</ele>
        <time>2021-05-23T08:21:29Z</time>
      </trkpt>
      <trkpt lat="49.45541" lon="1.13342">
        <ele>96.2</ele>
        <time>2021-05-23T08:21:31Z</time>
      </trkpt>
      <trkpt lat="49.45543" lon="1.13339">
        <ele>95.9</ele>
        <time>2021-05-23T08:21:32Z</time>
      </trkpt>
      <trkpt lat="49.45544" lon="1.13338">
        <ele>95.6</ele>
        <time>2021-05-23T08:21:33Z</time>
      </trkpt>
      <trkpt lat="49.45545" lon="1.13335">
        <ele>95.3</ele>
        <time>2021-05-23T08:21:34Z</time>
      </trkpt>
      <trkpt lat="49.45546" lon="1.13332">
        <ele>94.8</ele>
        <time>2021-05-23T08:21:35Z</time>
      </trkpt>
      <trkpt lat="49.45547" lon="1.13327">
        <ele>94.4</ele>
        <time>2021-05-23T08:21:37Z</time>
      </trkpt>
      <trkpt lat="49.45548" lon="1.13322">
        <ele>94</ele>
        <time>2021-05-23T08:21:38Z</time>
      </trkpt>
      <trkpt lat="49.45547" lon="1.13316">
        <ele>93.6</ele>
        <time>2021-05-23T08:21:39Z</time>
      </trkpt>
      <trkpt lat="49.45546" lon="1.13309">
        <ele>93.3</ele>
        <time>2021-05-23T08:21:41Z</time>
      </trkpt>
      <trkpt lat="49.45545" lon="1.13293">
        <ele>93</ele>
        <time>2021-05-23T08:21:42Z</time>
      </trkpt>
      <trkpt lat="49.45543" lon="1.13286">
        <ele>92.7</ele>
        <time>2021-05-23T08:21:43Z</time>
      </trkpt>
      <trkpt lat="49.45543" lon="1.13279">
        <ele>92.5</ele>
        <time>2021-05-23T08:21:45Z</time>
      </trkpt>
      <trkpt lat="49.45542" lon="1.13276">
        <ele>92.3</ele>
        <time>2021-05-23T08:21:46Z</time>
      </trkpt>
      <trkpt lat="49.45538" lon="1.13268">
        <ele>92.2</ele>
        <time>2021-05-23T08:21:47Z</time>
      </trkpt>
      <trkpt lat="49.45534" lon="1.1326">
        <ele>92.2</ele>
        <time>2021-05-23T08:21:49Z</time>
      </trkpt>
      <trkpt lat="49.45529" lon="1.13254">
        <ele>92.3</ele>
        <time>2021-05-23T08:21:51Z</time>
      </trkpt>
      <trkpt lat="49.45524" lon="1.13247">
        <ele>92.4</ele>
        <time>2021-05-23T08:21:52Z</time>
      </trkpt>
      <trkpt lat="49.45516" lon="1.13238">
        <ele>92.5</ele>
        <time>2021-05-23T08:21:54Z</time>
      </trkpt>
      <trkpt lat="49.45511" lon="1.13232">
        <ele>92.7</ele>
        <time>2021-05-23T08:21:56Z</time>
      </trkpt>
      <trkpt lat="49.45504" lon="1.13224">
        <ele>92.9</ele>
        <time>2021-05-23T08:21:58Z</time>
      </trkpt>
      <trkpt lat="49.45499" lon="1.1322">
        <ele>93.1</ele>
        <time>2021-05-23T08:21:59Z</time>
      </trkpt>
      <trkpt lat="49.45495" lon="1.13215">
        <ele>93.3</ele>
        <time>2021-05-23T08:22:00Z</time>
      </trkpt>
      <trkpt lat="49.45491" lon="1.13212">
        <ele>93.5</ele>
        <time>2021-05-23T08:22:01Z</time>
      </trkpt>
      <trkpt lat="49.45486" lon="1.13208">
        <ele>93.6</ele>
        <time>2021-05-23T08:22:03Z</time>
      </trkpt>
      <trkpt lat="49.45482" lon="1.13205">
        <ele>93.7</ele>
        <time>2021-05-23T08:22:04Z</time>
      </trkpt>
      <trkpt lat="49.45478" lon="1.13203">
        <ele>93.8</ele>
        <time>2021-05-23T08:22:05Z</time>
      </trkpt>
      <trkpt lat="49.45474" lon="1.13201">
        <ele>94</ele>
        <time>2021-05-23T08:22:06Z</time>
      </trkpt>
      <trkpt lat="49.45471" lon="1.13199">
        <ele>94.2</ele>
        <time>2021-05-23T08:22:07Z</time>
      </trkpt>
      <trkpt lat="49.45465" lon="1.13194">
        <ele>94.3</ele>
        <time>2021-05-23T08:22:09Z</time>
      </trkpt>
      <trkpt lat="49.45461" lon="1.13192">
        <ele>94.5</ele>
        <time>2021-05-23T08:22:10Z</time>
      </trkpt>
      <trkpt lat="49.45456" lon="1.13188">
        <ele>94.7</ele>
        <time>2021-05-23T08:22:12Z</time>
      </trkpt>
      <trkpt lat="49.45452" lon="1.13183">
        <ele>95.1</ele>
        <time>2021-05-23T08:22:13Z</time>
      </trkpt>
      <trkpt lat="49.45448" lon="1.1318">
        <ele>95.5</ele>
        <time>2021-05-23T08:22:15Z</time>
      </trkpt>
      <trkpt lat="49.45443" lon="1.13176">
        <ele>96.1</ele>
        <time>2021-05-23T08:22:16Z</time>
      </trkpt>
      <trkpt lat="49.45438" lon="1.13174">
        <ele>96.6</ele>
        <time>2021-05-23T08:22:18Z</time>
      </trkpt>
      <trkpt lat="49.45435" lon="1.13172">
        <ele>97.3</ele>
        <time>2021-05-23T08:22:19Z</time>
      </trkpt>
      <trkpt lat="49.45431" lon="1.13168">
        <ele>97.9</ele>
        <time>2021-05-23T08:22:20Z</time>
      </trkpt>
      <trkpt lat="49.45428" lon="1.13166">
        <ele>98.5</ele>
        <time>2021-05-23T08:22:21Z</time>
      </trkpt>
      <trkpt lat="49.45425" lon="1.13164">
        <ele>99.2</ele>
        <time>2021-05-23T08:22:22Z</time>
      </trkpt>
      <trkpt lat="49.45422" lon="1.13162">
        <ele>99.9</ele>
        <time>2021-05-23T08:22:24Z</time>
      </trkpt>
      <trkpt lat="49.4542" lon="1.13161">
        <ele>100.6</ele>
        <time>2021-05-23T08:22:25Z</time>
      </trkpt>
      <trkpt lat="49.45416" lon="1.13159">
        <ele>101.3</ele>
        <time>2021-05-23T08:22:27Z</time>
      </trkpt>
      <trkpt lat="49.45413" lon="1.13158">
        <ele>101.9</ele>
        <time>2021-05-23T08:22:28Z</time>
      </trkpt>
      <trkpt lat="49.4541" lon="1.13156">
        <ele>102.5</ele>
        <time>2021-05-23T08:22:29Z</time>
      </trkpt>
      <trkpt lat="49.45406" lon="1.13153">
        <ele>102.9</ele>
        <time>2021-05-23T08:22:31Z</time>
      </trkpt>
      <trkpt lat="49.45401" lon="1.1315">
        <ele>103.4</ele>
        <time>2021-05-23T08:22:32Z</time>
      </trkpt>
      <trkpt lat="49.45397" lon="1.13148">
        <ele>103.7</ele>
        <time>2021-05-23T08:22:34Z</time>
      </trkpt>
      <trkpt lat="49.45393" lon="1.13146">
        <ele>104.1</ele>
        <time>2021-05-23T08:22:35Z</time>
      </trkpt>
      <trkpt lat="49.45389" lon="1.13143">
        <ele>104.4</ele>
        <time>2021-05-23T08:22:36Z</time>
      </trkpt>
      <trkpt lat="49.45385" lon="1.1314">
        <ele>104.6</ele>
        <time>2021-05-23T08:22:38Z</time>
      </trkpt>
      <trkpt lat="49.4538" lon="1.13138">
        <ele>104.8</ele>
        <time>2021-05-23T08:22:39Z</time>
      </trkpt>
      <trkpt lat="49.45377" lon="1.13136">
        <ele>105</ele>
        <time>2021-05-23T08:22:40Z</time>
      </trkpt>
      <trkpt lat="49.45371" lon="1.13132">
        <ele>105.2</ele>
        <time>2021-05-23T08:22:42Z</time>
      </trkpt>
      <trkpt lat="49.45365" lon="1.13129">
        <ele>105.3</ele>
        <time>2021-05-23T08:22:44Z</time>
      </trkpt>
      <trkpt lat="49.45361" lon="1.13125">
        <ele>105.5</ele>
        <time>2021-05-23T08:22:45Z</time>
      </trkpt>
      <trkpt lat="49.45356" lon="1.13123">
        <ele>105.6</ele>
        <time>2021-05-23T08:22:47Z</time>
      </trkpt>
      <trkpt lat="49.45353" lon="1.13121">
        <ele>105.8</ele>
        <time>2021-05-23T08:22:48Z</time>
      </trkpt>
      <trkpt lat="49.4535" lon="1.13119">
        <ele>106</ele>
        <time>2021-05-23T08:22:49Z</time>
      </trkpt>
      <trkpt lat="49.45346" lon="1.13116">
        <ele>106.3</ele>
        <time>2021-05-23T08:22:51Z</time>
      </trkpt>
      <trkpt lat="49.45343" lon="1.13115">
        <ele>106.5</ele>
        <time>2021-05-23T08:22:52Z</time>
      </trkpt>
      <trkpt lat="49.4534" lon="1.13113">
        <ele>106.8</ele>
        <time>2021-05-23T08:22:54Z</time>
      </trkpt>
      <trkpt lat="49.45336" lon="1.1311">
        <ele>107.1</ele>
        <time>2021-05-23T08:22:55Z</time>
      </trkpt>
      <trkpt lat="49.45333" lon="1.13109">
        <ele>107.3</ele>
        <time>2021-05-23T08:22:56Z</time>
      </trkpt>
      <trkpt lat="49.45328" lon="1.13108">
        <ele>107.5</ele>
        <time>2021-05-23T08:22:58Z</time>
      </trkpt>
      <trkpt lat="49.45325" lon="1.13106">
        <ele>107.7</ele>
        <time>2021-05-23T08:22:59Z</time>
      </trkpt>
      <trkpt lat="49.45319" lon="1.13105">
        <ele>107.9</ele>
        <time>2021-05-23T08:23:01Z</time>
      </trkpt>
      <trkpt lat="49.45316" lon="1.13104">
        <ele>108.1</ele>
        <time>2021-05-23T08:23:02Z</time>
      </trkpt>
      <trkpt lat="49.45313" lon="1.13104">
        <ele>108.4</ele>
        <time>2021-05-23T08:23:03Z</time>
      </trkpt>
      <trkpt lat="49.4531" lon="1.13104">
        <ele>108.6</ele>
        <time>2021-05-23T08:23:05Z</time>
      </trkpt>
      <trkpt lat="49.45306" lon="1.13101">
        <ele>108.8</ele>
        <time>2021-05-23T08:23:06Z</time>
      </trkpt>
      <trkpt lat="49.45306" lon="1.13099">
        <ele>109.1</ele>
        <time>2021-05-23T08:23:07Z</time>
      </trkpt>
      <trkpt lat="49.45306" lon="1.13094">
        <ele>109.4</ele>
        <time>2021-05-23T08:23:09Z</time>
      </trkpt>
      <trkpt lat="49.45309" lon="1.13091">
        <ele>109.7</ele>
        <time>2021-05-23T08:23:10Z</time>
      </trkpt>
      <trkpt lat="49.45311" lon="1.13086">
        <ele>110.1</ele>
        <time>2021-05-23T08:23:12Z</time>
      </trkpt>
      <trkpt lat="49.45311" lon="1.1308">
        <ele>110.5</ele>
        <time>2021-05-23T08:23:13Z</time>
      </trkpt>
      <trkpt lat="49.45311" lon="1.13075">
        <ele>110.9</ele>
        <time>2021-05-23T08:23:14Z</time>
      </trkpt>
      <trkpt lat="49.45311" lon="1.13071">
        <ele>111.4</ele>
        <time>2021-05-23T08:23:15Z</time>
      </trkpt>
      <trkpt lat="49.45311" lon="1.13064">
        <ele>111.9</ele>
        <time>2021-05-23T08:23:17Z</time>
      </trkpt>
      <trkpt lat="49.45311" lon="1.13058">
        <ele>112.4</ele>
        <time>2021-05-23T08:23:18Z</time>
      </trkpt>
      <trkpt lat="49.45311" lon="1.13053">
        <ele>112.9</ele>
        <time>2021-05-23T08:23:20Z</time>
      </trkpt>
      <trkpt lat="49.45311" lon="1.13048">
        <ele>113.5</ele>
        <time>2021-05-23T08:23:21Z</time>
      </trkpt>
      <trkpt lat="49.45311" lon="1.13044">
        <ele>114</ele>
        <time>2021-05-23T08:23:22Z</time>
      </trkpt>
      <trkpt lat="49.45311" lon="1.13038">
        <ele>114.6</ele>
        <time>2021-05-23T08:23:24Z</time>
      </trkpt>
      <trkpt lat="49.45311" lon="1.13033">
        <ele>115.2</ele>
        <time>2021-05-23T08:23:25Z</time>
      </trkpt>
      <trkpt lat="49.45311" lon="1.13029">
        <ele>115.8</ele>
        <time>2021-05-23T08:23:26Z</time>
      </trkpt>
      <trkpt lat="49.45312" lon="1.13024">
        <ele>116.5</ele>
        <time>2021-05-23T08:23:28Z</time>
      </trkpt>
      <trkpt lat="49.45313" lon="1.13019">
        <ele>117.1</ele>
        <time>2021-05-23T08:23:29Z</time>
      </trkpt>
      <trkpt lat="49.45314" lon="1.13013">
        <ele>117.7</ele>
        <time>2021-05-23T08:23:32Z</time>
      </trkpt>
      <trkpt lat="49.45315" lon="1.13009">
        <ele>118.4</ele>
        <time>2021-05-23T08:23:33Z</time>
      </trkpt>
      <trkpt lat="49.45316" lon="1.13004">
        <ele>119</ele>
        <time>2021-05-23T08:23:35Z</time>
      </trkpt>
      <trkpt lat="49.45318" lon="1.12998">
        <ele>119.6</ele>
        <time>2021-05-23T08:23:36Z</time>
      </trkpt>
      <trkpt lat="49.45319" lon="1.12996">
        <ele>120.4</ele>
        <time>2021-05-23T08:23:37Z</time>
      </trkpt>
      <trkpt lat="49.45321" lon="1.1299">
        <ele>121.1</ele>
        <time>2021-05-23T08:23:39Z</time>
      </trkpt>
      <trkpt lat="49.45322" lon="1.12988">
        <ele>121.7</ele>
        <time>2021-05-23T08:23:40Z</time>
      </trkpt>
      <trkpt lat="49.45323" lon="1.12985">
        <ele>122.5</ele>
        <time>2021-05-23T08:23:41Z</time>
      </trkpt>
      <trkpt lat="49.45325" lon="1.12982">
        <ele>123.3</ele>
        <time>2021-05-23T08:23:43Z</time>
      </trkpt>
      <trkpt lat="49.45326" lon="1.12978">
        <ele>124.1</ele>
        <time>2021-05-23T08:23:44Z</time>
      </trkpt>
      <trkpt lat="49.45328" lon="1.12974">
        <ele>125</ele>
        <time>2021-05-23T08:23:46Z</time>
      </trkpt>
      <trkpt lat="49.45329" lon="1.1297">
        <ele>125.9</ele>
        <time>2021-05-23T08:23:47Z</time>
      </trkpt>
      <trkpt lat="49.4533" lon="1.12964">
        <ele>126.8</ele>
        <time>2021-05-23T08:23:48Z</time>
      </trkpt>
      <trkpt lat="49.4533" lon="1.12962">
        <ele>127.8</ele>
        <time>2021-05-23T08:23:49Z</time>
      </trkpt>
      <trkpt lat="49.4533" lon="1.12955">
        <ele>128.7</ele>
        <time>2021-05-23T08:23:51Z</time>
      </trkpt>
      <trkpt lat="49.45329" lon="1.12951">
        <ele>129.5</ele>
        <time>2021-05-23T08:23:52Z</time>
      </trkpt>
      <trkpt lat="49.45329" lon="1.12944">
        <ele>130.3</ele>
        <time>2021-05-23T08:23:54Z</time>
      </trkpt>
      <trkpt lat="49.45329" lon="1.1294">
        <ele>131</ele>
        <time>2021-05-23T08:23:55Z</time>
      </trkpt>
      <trkpt lat="49.45326" lon="1.12934">
        <ele>131.5</ele>
        <time>2021-05-23T08:23:57Z</time>
      </trkpt>
      <trkpt lat="49.45324" lon="1.12929">
        <ele>132</ele>
        <time>2021-05-23T08:23:59Z</time>
      </trkpt>
      <trkpt lat="49.45323" lon="1.12928">
        <ele>132.2</ele>
        <time>2021-05-23T08:24:00Z</time>
      </trkpt>
      <trkpt lat="49.4532" lon="1.12926">
        <ele>132.3</ele>
        <time>2021-05-23T08:24:02Z</time>
      </trkpt>
      <trkpt lat="49.45319" lon="1.12926">
        <ele>132.2</ele>
        <time>2021-05-23T08:24:03Z</time>
      </trkpt>
      <trkpt lat="49.45317" lon="1.12926">
        <ele>132</ele>
        <time>2021-05-23T08:24:04Z</time>
      </trkpt>
      <trkpt lat="49.45315" lon="1.12927">
        <ele>131.6</ele>
        <time>2021-05-23T08:24:06Z</time>
      </trkpt>
      <trkpt lat="49.45313" lon="1.12929">
        <ele>131.2</ele>
        <time>2021-05-23T08:24:07Z</time>
      </trkpt>
      <trkpt lat="49.45312" lon="1.1293">
        <ele>130.6</ele>
        <time>2021-05-23T08:24:08Z</time>
      </trkpt>
      <trkpt lat="49.4531" lon="1.12934">
        <ele>130.1</ele>
        <time>2021-05-23T08:24:10Z</time>
      </trkpt>
      <trkpt lat="49.45309" lon="1.12937">
        <ele>129.5</ele>
        <time>2021-05-23T08:24:11Z</time>
      </trkpt>
      <trkpt lat="49.45307" lon="1.1294">
        <ele>128.7</ele>
        <time>2021-05-23T08:24:13Z</time>
      </trkpt>
      <trkpt lat="49.45305" lon="1.12944">
        <ele>128.1</ele>
        <time>2021-05-23T08:24:14Z</time>
      </trkpt>
      <trkpt lat="49.45304" lon="1.12948">
        <ele>127.5</ele>
        <time>2021-05-23T08:24:16Z</time>
      </trkpt>
      <trkpt lat="49.45302" lon="1.12952">
        <ele>126.9</ele>
        <time>2021-05-23T08:24:17Z</time>
      </trkpt>
      <trkpt lat="49.45299" lon="1.12956">
        <ele>126.4</ele>
        <time>2021-05-23T08:24:20Z</time>
      </trkpt>
      <trkpt lat="49.45295" lon="1.12958">
        <ele>125.8</ele>
        <time>2021-05-23T08:24:21Z</time>
      </trkpt>
      <trkpt lat="49.45292" lon="1.1296">
        <ele>125.4</ele>
        <time>2021-05-23T08:24:22Z</time>
      </trkpt>
      <trkpt lat="49.45289" lon="1.1296">
        <ele>125</ele>
        <time>2021-05-23T08:24:23Z</time>
      </trkpt>
      <trkpt lat="49.45285" lon="1.1296">
        <ele>124.7</ele>
        <time>2021-05-23T08:24:25Z</time>
      </trkpt>
      <trkpt lat="49.45281" lon="1.12959">
        <ele>124.5</ele>
        <time>2021-05-23T08:24:26Z</time>
      </trkpt>
      <trkpt lat="49.45279" lon="1.12958">
        <ele>124.3</ele>
        <time>2021-05-23T08:24:27Z</time>
      </trkpt>
      <trkpt lat="49.45275" lon="1.12954">
        <ele>124.3</ele>
        <time>2021-05-23T08:24:29Z</time>
      </trkpt>
      <trkpt lat="49.45272" lon="1.12951">
        <ele>124.3</ele>
        <time>2021-05-23T08:24:30Z</time>
      </trkpt>
      <trkpt lat="49.45269" lon="1.12948">
        <ele>124.3</ele>
        <time>2021-05-23T08:24:31Z</time>
      </trkpt>
      <trkpt lat="49.45267" lon="1.12946">
        <ele>124.5</ele>
        <time>2021-05-23T08:24:32Z</time>
      </trkpt>
      <trkpt lat="49.45264" lon="1.12942">
        <ele>124.6</ele>
        <time>2021-05-23T08:24:34Z</time>
      </trkpt>
      <trkpt lat="49.45261" lon="1.12938">
        <ele>124.8</ele>
        <time>2021-05-23T08:24:36Z</time>
      </trkpt>
      <trkpt lat="49.45258" lon="1.12934">
        <ele>125.1</ele>
        <time>2021-05-23T08:24:37Z</time>
      </trkpt>
      <trkpt lat="49.45254" lon="1.12929">
        <ele>125.4</ele>
        <time>2021-05-23T08:24:39Z</time>
      </trkpt>
      <trkpt lat="49.45252" lon="1.12925">
        <ele>125.6</ele>
        <time>2021-05-23T08:24:40Z</time>
      </trkpt>
      <trkpt lat="49.45249" lon="1.12921">
        <ele>126</ele>
        <time>2021-05-23T08:24:42Z</time>
      </trkpt>
      <trkpt lat="49.45246" lon="1.12918">
        <ele>126.4</ele>
        <time>2021-05-23T08:24:43Z</time>
      </trkpt>
      <trkpt lat="49.45243" lon="1.12913">
        <ele>126.6</ele>
        <time>2021-05-23T08:24:44Z</time>
      </trkpt>
      <trkpt lat="49.45242" lon="1.12911">
        <ele>126.9</ele>
        <time>2021-05-23T08:24:45Z</time>
      </trkpt>
      <trkpt lat="49.4524" lon="1.12908">
        <ele>127.2</ele>
        <time>2021-05-23T08:24:47Z</time>
      </trkpt>
      <trkpt lat="49.45237" lon="1.12904">
        <ele>127.5</ele>
        <time>2021-05-23T08:24:48Z</time>
      </trkpt>
      <trkpt lat="49.45235" lon="1.129">
        <ele>127.7</ele>
        <time>2021-05-23T08:24:49Z</time>
      </trkpt>
      <trkpt lat="49.45231" lon="1.12894">
        <ele>128.1</ele>
        <time>2021-05-23T08:24:51Z</time>
      </trkpt>
      <trkpt lat="49.45226" lon="1.12889">
        <ele>128.5</ele>
        <time>2021-05-23T08:24:53Z</time>
      </trkpt>
      <trkpt lat="49.45221" lon="1.12882">
        <ele>128.8</ele>
        <time>2021-05-23T08:24:55Z</time>
      </trkpt>
      <trkpt lat="49.45219" lon="1.12879">
        <ele>129.3</ele>
        <time>2021-05-23T08:24:56Z</time>
      </trkpt>
      <trkpt lat="49.45217" lon="1.12874">
        <ele>129.6</ele>
        <time>2021-05-23T08:24:58Z</time>
      </trkpt>
      <trkpt lat="49.45214" lon="1.12868">
        <ele>130.1</ele>
        <time>2021-05-23T08:25:00Z</time>
      </trkpt>
      <trkpt lat="49.45212" lon="1.12864">
        <ele>130.5</ele>
        <time>2021-05-23T08:25:01Z</time>
      </trkpt>
      <trkpt lat="49.45211" lon="1.12861">
        <ele>131.1</ele>
        <time>2021-05-23T08:25:02Z</time>
      </trkpt>
      <trkpt lat="49.45208" lon="1.12857">
        <ele>131.6</ele>
        <time>2021-05-23T08:25:04Z</time>
      </trkpt>
      <trkpt lat="49.45204" lon="1.1285">
        <ele>132.1</ele>
        <time>2021-05-23T08:25:06Z</time>
      </trkpt>
      <trkpt lat="49.45201" lon="1.12844">
        <ele>132.5</ele>
        <time>2021-05-23T08:25:09Z</time>
      </trkpt>
      <trkpt lat="49.45199" lon="1.1284">
        <ele>133</ele>
        <time>2021-05-23T08:25:10Z</time>
      </trkpt>
      <trkpt lat="49.45195" lon="1.12833">
        <ele>133.4</ele>
        <time>2021-05-23T08:25:12Z</time>
      </trkpt>
      <trkpt lat="49.45193" lon="1.12828">
        <ele>133.7</ele>
        <time>2021-05-23T08:25:13Z</time>
      </trkpt>
      <trkpt lat="49.45189" lon="1.12822">
        <ele>134</ele>
        <time>2021-05-23T08:25:15Z</time>
      </trkpt>
      <trkpt lat="49.45187" lon="1.12816">
        <ele>134.3</ele>
        <time>2021-05-23T08:25:16Z</time>
      </trkpt>
      <trkpt lat="49.45183" lon="1.12808">
        <ele>134.5</ele>
        <time>2021-05-23T08:25:18Z</time>
      </trkpt>
      <trkpt lat="49.4518" lon="1.12803">
        <ele>134.6</ele>
        <time>2021-05-23T08:25:19Z</time>
      </trkpt>
      <trkpt lat="49.45176" lon="1.12796">
        <ele>134.6</ele>
        <time>2021-05-23T08:25:21Z</time>
      </trkpt>
      <trkpt lat="49.45173" lon="1.12791">
        <ele>134.6</ele>
        <time>2021-05-23T08:25:22Z</time>
      </trkpt>
      <trkpt lat="49.45169" lon="1.12782">
        <ele>134.6</ele>
        <time>2021-05-23T08:25:24Z</time>
      </trkpt>
      <trkpt lat="49.45164" lon="1.12773">
        <ele>134.6</ele>
        <time>2021-05-23T08:25:26Z</time>
      </trkpt>
      <trkpt lat="49.45162" lon="1.12768">
        <ele>134.6</ele>
        <time>2021-05-23T08:25:27Z</time>
      </trkpt>
      <trkpt lat="49.45159" lon="1.12763">
        <ele>134.7</ele>
        <time>2021-05-23T08:25:28Z</time>
      </trkpt>
      <trkpt lat="49.45156" lon="1.12758">
        <ele>134.8</ele>
        <time>2021-05-23T08:25:30Z</time>
      </trkpt>
      <trkpt lat="49.45154" lon="1.12753">
        <ele>134.9</ele>
        <time>2021-05-23T08:25:31Z</time>
      </trkpt>
      <trkpt lat="49.45151" lon="1.12749">
        <ele>135.1</ele>
        <time>2021-05-23T08:25:32Z</time>
      </trkpt>
      <trkpt lat="49.45148" lon="1.12742">
        <ele>135.3</ele>
        <time>2021-05-23T08:25:33Z</time>
      </trkpt>
      <trkpt lat="49.45145" lon="1.12736">
        <ele>135.5</ele>
        <time>2021-05-23T08:25:35Z</time>
      </trkpt>
      <trkpt lat="49.45143" lon="1.12732">
        <ele>135.9</ele>
        <time>2021-05-23T08:25:36Z</time>
      </trkpt>
      <trkpt lat="49.4514" lon="1.12727">
        <ele>136.4</ele>
        <time>2021-05-23T08:25:37Z</time>
      </trkpt>
      <trkpt lat="49.45137" lon="1.12722">
        <ele>136.8</ele>
        <time>2021-05-23T08:25:38Z</time>
      </trkpt>
      <trkpt lat="49.45134" lon="1.12715">
        <ele>137.3</ele>
        <time>2021-05-23T08:25:40Z</time>
      </trkpt>
      <trkpt lat="49.45131" lon="1.12708">
        <ele>137.6</ele>
        <time>2021-05-23T08:25:42Z</time>
      </trkpt>
      <trkpt lat="49.45129" lon="1.12704">
        <ele>138</ele>
        <time>2021-05-23T08:25:43Z</time>
      </trkpt>
      <trkpt lat="49.45125" lon="1.12699">
        <ele>138.3</ele>
        <time>2021-05-23T08:25:45Z</time>
      </trkpt>
      <trkpt lat="49.45121" lon="1.12694">
        <ele>138.5</ele>
        <time>2021-05-23T08:25:46Z</time>
      </trkpt>
      <trkpt lat="49.45119" lon="1.1269">
        <ele>138.7</ele>
        <time>2021-05-23T08:25:47Z</time>
      </trkpt>
      <trkpt lat="49.45114" lon="1.12684">
        <ele>138.9</ele>
        <time>2021-05-23T08:25:49Z</time>
      </trkpt>
      <trkpt lat="49.45111" lon="1.12681">
        <ele>139</ele>
        <time>2021-05-23T08:25:50Z</time>
      </trkpt>
      <trkpt lat="49.45109" lon="1.12677">
        <ele>139.1</ele>
        <time>2021-05-23T08:25:51Z</time>
      </trkpt>
      <trkpt lat="49.45105" lon="1.12672">
        <ele>139.1</ele>
        <time>2021-05-23T08:25:53Z</time>
      </trkpt>
      <trkpt lat="49.45102" lon="1.12669">
        <ele>139.1</ele>
        <time>2021-05-23T08:25:54Z</time>
      </trkpt>
      <trkpt lat="49.45098" lon="1.12664">
        <ele>139.2</ele>
        <time>2021-05-23T08:25:56Z</time>
      </trkpt>
      <trkpt lat="49.45094" lon="1.12658">
        <ele>139.3</ele>
        <time>2021-05-23T08:25:58Z</time>
      </trkpt>
      <trkpt lat="49.45091" lon="1.12655">
        <ele>139.3</ele>
        <time>2021-05-23T08:25:59Z</time>
      </trkpt>
      <trkpt lat="49.45085" lon="1.1265">
        <ele>139.4</ele>
        <time>2021-05-23T08:26:01Z</time>
      </trkpt>
      <trkpt lat="49.45082" lon="1.12643">
        <ele>139.4</ele>
        <time>2021-05-23T08:26:03Z</time>
      </trkpt>
      <trkpt lat="49.45079" lon="1.12638">
        <ele>139.4</ele>
        <time>2021-05-23T08:26:05Z</time>
      </trkpt>
      <trkpt lat="49.45074" lon="1.1263">
        <ele>139.4</ele>
        <time>2021-05-23T08:26:07Z</time>
      </trkpt>
      <trkpt lat="49.4507" lon="1.12628">
        <ele>139.4</ele>
        <time>2021-05-23T08:26:09Z</time>
      </trkpt>
      <trkpt lat="49.45069" lon="1.12628">
        <ele>139.4</ele>
        <time>2021-05-23T08:26:10Z</time>
      </trkpt>
      <trkpt lat="49.45068" lon="1.12628">
        <ele>139.4</ele>
        <time>2021-05-23T08:26:12Z</time>
      </trkpt>
      <trkpt lat="49.45067" lon="1.12629">
        <ele>139.4</ele>
        <time>2021-05-23T08:26:13Z</time>
      </trkpt>
      <trkpt lat="49.45066" lon="1.12629">
        <ele>139.3</ele>
        <time>2021-05-23T08:26:15Z</time>
      </trkpt>
      <trkpt lat="49.45065" lon="1.12629">
        <ele>139.2</ele>
        <time>2021-05-23T08:26:16Z</time>
      </trkpt>
      <trkpt lat="49.45065" lon="1.12631">
        <ele>139</ele>
        <time>2021-05-23T08:26:18Z</time>
      </trkpt>
      <trkpt lat="49.45065" lon="1.12632">
        <ele>138.7</ele>
        <time>2021-05-23T08:26:19Z</time>
      </trkpt>
      <trkpt lat="49.45066" lon="1.12633">
        <ele>138.5</ele>
        <time>2021-05-23T08:26:20Z</time>
      </trkpt>
      <trkpt lat="49.45067" lon="1.12634">
        <ele>138.4</ele>
        <time>2021-05-23T08:26:21Z</time>
      </trkpt>
      <trkpt lat="49.45067" lon="1.12636">
        <ele>138.1</ele>
        <time>2021-05-23T08:26:23Z</time>
      </trkpt>
      <trkpt lat="49.45068" lon="1.1264">
        <ele>137.8</ele>
        <time>2021-05-23T08:26:24Z</time>
      </trkpt>
      <trkpt lat="49.45066" lon="1.12644">
        <ele>137.4</ele>
        <time>2021-05-23T08:26:25Z</time>
      </trkpt>
      <trkpt lat="49.45065" lon="1.12646">
        <ele>136.6</ele>
        <time>2021-05-23T08:26:26Z</time>
      </trkpt>
      <trkpt lat="49.45061" lon="1.12646">
        <ele>135.9</ele>
        <time>2021-05-23T08:26:28Z</time>
      </trkpt>
      <trkpt lat="49.45058" lon="1.12645">
        <ele>135.1</ele>
        <time>2021-05-23T08:26:29Z</time>
      </trkpt>
      <trkpt lat="49.45055" lon="1.12645">
        <ele>134.5</ele>
        <time>2021-05-23T08:26:31Z</time>
      </trkpt>
      <trkpt lat="49.45034" lon="1.12637">
        <ele>133.5</ele>
        <time>2021-05-23T08:26:32Z</time>
      </trkpt>
      <trkpt lat="49.45013" lon="1.12626">
        <ele>132.5</ele>
        <time>2021-05-23T08:26:34Z</time>
      </trkpt>
      <trkpt lat="49.45002" lon="1.1262">
        <ele>131.3</ele>
        <time>2021-05-23T08:26:35Z</time>
      </trkpt>
      <trkpt lat="49.44994" lon="1.12613">
        <ele>129.8</ele>
        <time>2021-05-23T08:26:36Z</time>
      </trkpt>
      <trkpt lat="49.44974" lon="1.12592">
        <ele>128.2</ele>
        <time>2021-05-23T08:26:38Z</time>
      </trkpt>
      <trkpt lat="49.44956" lon="1.12579">
        <ele>126.6</ele>
        <time>2021-05-23T08:26:40Z</time>
      </trkpt>
      <trkpt lat="49.44947" lon="1.12573">
        <ele>125.4</ele>
        <time>2021-05-23T08:26:41Z</time>
      </trkpt>
      <trkpt lat="49.44926" lon="1.12554">
        <ele>124.5</ele>
        <time>2021-05-23T08:26:44Z</time>
      </trkpt>
      <trkpt lat="49.44909" lon="1.12533">
        <ele>123.8</ele>
        <time>2021-05-23T08:26:46Z</time>
      </trkpt>
      <trkpt lat="49.44892" lon="1.12513">
        <ele>123.3</ele>
        <time>2021-05-23T08:26:48Z</time>
      </trkpt>
      <trkpt lat="49.44878" lon="1.12495">
        <ele>122.6</ele>
        <time>2021-05-23T08:26:50Z</time>
      </trkpt>
      <trkpt lat="49.44872" lon="1.12487">
        <ele>122.5</ele>
        <time>2021-05-23T08:26:51Z</time>
      </trkpt>
      <trkpt lat="49.44863" lon="1.12471">
        <ele>122.4</ele>
        <time>2021-05-23T08:26:53Z</time>
      </trkpt>
      <trkpt lat="49.44853" lon="1.12456">
        <ele>122.5</ele>
        <time>2021-05-23T08:26:55Z</time>
      </trkpt>
      <trkpt lat="49.44848" lon="1.12449">
        <ele>122.8</ele>
        <time>2021-05-23T08:26:56Z</time>
      </trkpt>
      <trkpt lat="49.44839" lon="1.12434">
        <ele>123.5</ele>
        <time>2021-05-23T08:26:58Z</time>
      </trkpt>
      <trkpt lat="49.4483" lon="1.12424">
        <ele>123.9</ele>
        <time>2021-05-23T08:27:00Z</time>
      </trkpt>
      <trkpt lat="49.44819" lon="1.12417">
        <ele>124.3</ele>
        <time>2021-05-23T08:27:02Z</time>
      </trkpt>
      <trkpt lat="49.44812" lon="1.12412">
        <ele>124.5</ele>
        <time>2021-05-23T08:27:04Z</time>
      </trkpt>
      <trkpt lat="49.44804" lon="1.12401">
        <ele>124.5</ele>
        <time>2021-05-23T08:27:06Z</time>
      </trkpt>
      <trkpt lat="49.44794" lon="1.12395">
        <ele>124.5</ele>
        <time>2021-05-23T08:27:08Z</time>
      </trkpt>
      <trkpt lat="49.4479" lon="1.12394">
        <ele>124.5</ele>
        <time>2021-05-23T08:27:09Z</time>
      </trkpt>
      <trkpt lat="49.44785" lon="1.12393">
        <ele>124.3</ele>
        <time>2021-05-23T08:27:10Z</time>
      </trkpt>
      <trkpt lat="49.44781" lon="1.1239">
        <ele>124.3</ele>
        <time>2021-05-23T08:27:11Z</time>
      </trkpt>
      <trkpt lat="49.44776" lon="1.12386">
        <ele>124.5</ele>
        <time>2021-05-23T08:27:13Z</time>
      </trkpt>
      <trkpt lat="49.44773" lon="1.12384">
        <ele>124.6</ele>
        <time>2021-05-23T08:27:14Z</time>
      </trkpt>
      <trkpt lat="49.4477" lon="1.12382">
        <ele>125</ele>
        <time>2021-05-23T08:27:15Z</time>
      </trkpt>
      <trkpt lat="49.44767" lon="1.12381">
        <ele>125.5</ele>
        <time>2021-05-23T08:27:16Z</time>
      </trkpt>
      <trkpt lat="49.44763" lon="1.12376">
        <ele>125.9</ele>
        <time>2021-05-23T08:27:18Z</time>
      </trkpt>
      <trkpt lat="49.44759" lon="1.12371">
        <ele>126.3</ele>
        <time>2021-05-23T08:27:19Z</time>
      </trkpt>
      <trkpt lat="49.44756" lon="1.12366">
        <ele>126.6</ele>
        <time>2021-05-23T08:27:20Z</time>
      </trkpt>
      <trkpt lat="49.4475" lon="1.12359">
        <ele>126.9</ele>
        <time>2021-05-23T08:27:22Z</time>
      </trkpt>
      <trkpt lat="49.44746" lon="1.12354">
        <ele>127.1</ele>
        <time>2021-05-23T08:27:24Z</time>
      </trkpt>
      <trkpt lat="49.44743" lon="1.12351">
        <ele>127.1</ele>
        <time>2021-05-23T08:27:25Z</time>
      </trkpt>
      <trkpt lat="49.44736" lon="1.12346">
        <ele>126.8</ele>
        <time>2021-05-23T08:27:27Z</time>
      </trkpt>
      <trkpt lat="49.44732" lon="1.12341">
        <ele>126.2</ele>
        <time>2021-05-23T08:27:28Z</time>
      </trkpt>
      <trkpt lat="49.4472" lon="1.12324">
        <ele>125.4</ele>
        <time>2021-05-23T08:27:30Z</time>
      </trkpt>
      <trkpt lat="49.44713" lon="1.12315">
        <ele>124.3</ele>
        <time>2021-05-23T08:27:32Z</time>
      </trkpt>
      <trkpt lat="49.44707" lon="1.12306">
        <ele>123.2</ele>
        <time>2021-05-23T08:27:33Z</time>
      </trkpt>
      <trkpt lat="49.44693" lon="1.1229">
        <ele>122.2</ele>
        <time>2021-05-23T08:27:35Z</time>
      </trkpt>
      <trkpt lat="49.4468" lon="1.12272">
        <ele>121.2</ele>
        <time>2021-05-23T08:27:37Z</time>
      </trkpt>
      <trkpt lat="49.44674" lon="1.12266">
        <ele>120.3</ele>
        <time>2021-05-23T08:27:38Z</time>
      </trkpt>
      <trkpt lat="49.44669" lon="1.12258">
        <ele>119.5</ele>
        <time>2021-05-23T08:27:39Z</time>
      </trkpt>
      <trkpt lat="49.44666" lon="1.12248">
        <ele>118.9</ele>
        <time>2021-05-23T08:27:40Z</time>
      </trkpt>
      <trkpt lat="49.44666" lon="1.12239">
        <ele>118.5</ele>
        <time>2021-05-23T08:27:42Z</time>
      </trkpt>
      <trkpt lat="49.44665" lon="1.12235">
        <ele>118.2</ele>
        <time>2021-05-23T08:27:43Z</time>
      </trkpt>
      <trkpt lat="49.44665" lon="1.12233">
        <ele>118.2</ele>
        <time>2021-05-23T08:27:44Z</time>
      </trkpt>
      <trkpt lat="49.44667" lon="1.12223">
        <ele>118.3</ele>
        <time>2021-05-23T08:27:46Z</time>
      </trkpt>
      <trkpt lat="49.44668" lon="1.12216">
        <ele>118.5</ele>
        <time>2021-05-23T08:27:47Z</time>
      </trkpt>
      <trkpt lat="49.44668" lon="1.12205">
        <ele>118.6</ele>
        <time>2021-05-23T08:27:49Z</time>
      </trkpt>
      <trkpt lat="49.44671" lon="1.1219">
        <ele>118.7</ele>
        <time>2021-05-23T08:27:51Z</time>
      </trkpt>
      <trkpt lat="49.44672" lon="1.12182">
        <ele>118.9</ele>
        <time>2021-05-23T08:27:52Z</time>
      </trkpt>
      <trkpt lat="49.44674" lon="1.12173">
        <ele>119</ele>
        <time>2021-05-23T08:27:54Z</time>
      </trkpt>
      <trkpt lat="49.44676" lon="1.12165">
        <ele>118.9</ele>
        <time>2021-05-23T08:27:55Z</time>
      </trkpt>
      <trkpt lat="49.44677" lon="1.12159">
        <ele>118.7</ele>
        <time>2021-05-23T08:27:56Z</time>
      </trkpt>
      <trkpt lat="49.44677" lon="1.12157">
        <ele>118.5</ele>
        <time>2021-05-23T08:27:58Z</time>
      </trkpt>
      <trkpt lat="49.44678" lon="1.12154">
        <ele>118.2</ele>
        <time>2021-05-23T08:27:59Z</time>
      </trkpt>
      <trkpt lat="49.44679" lon="1.12152">
        <ele>117.8</ele>
        <time>2021-05-23T08:28:00Z</time>
      </trkpt>
      <trkpt lat="49.44678" lon="1.12145">
        <ele>117.5</ele>
        <time>2021-05-23T08:28:02Z</time>
      </trkpt>
      <trkpt lat="49.44677" lon="1.12141">
        <ele>117</ele>
        <time>2021-05-23T08:28:03Z</time>
      </trkpt>
      <trkpt lat="49.44675" lon="1.12136">
        <ele>116.5</ele>
        <time>2021-05-23T08:28:04Z</time>
      </trkpt>
      <trkpt lat="49.44675" lon="1.12134">
        <ele>115.9</ele>
        <time>2021-05-23T08:28:05Z</time>
      </trkpt>
      <trkpt lat="49.44674" lon="1.1213">
        <ele>115.4</ele>
        <time>2021-05-23T08:28:06Z</time>
      </trkpt>
      <trkpt lat="49.44674" lon="1.12123">
        <ele>114.8</ele>
        <time>2021-05-23T08:28:07Z</time>
      </trkpt>
      <trkpt lat="49.44677" lon="1.12113">
        <ele>114.4</ele>
        <time>2021-05-23T08:28:09Z</time>
      </trkpt>
      <trkpt lat="49.44679" lon="1.12104">
        <ele>114</ele>
        <time>2021-05-23T08:28:10Z</time>
      </trkpt>
      <trkpt lat="49.44682" lon="1.12097">
        <ele>113.7</ele>
        <time>2021-05-23T08:28:11Z</time>
      </trkpt>
      <trkpt lat="49.44686" lon="1.12082">
        <ele>113.5</ele>
        <time>2021-05-23T08:28:13Z</time>
      </trkpt>
      <trkpt lat="49.44691" lon="1.12072">
        <ele>113.3</ele>
        <time>2021-05-23T08:28:15Z</time>
      </trkpt>
      <trkpt lat="49.44702" lon="1.12059">
        <ele>113</ele>
        <time>2021-05-23T08:28:16Z</time>
      </trkpt>
      <trkpt lat="49.44704" lon="1.12054">
        <ele>112.8</ele>
        <time>2021-05-23T08:28:18Z</time>
      </trkpt>
      <trkpt lat="49.44706" lon="1.12052">
        <ele>112.7</ele>
        <time>2021-05-23T08:28:20Z</time>
      </trkpt>
      <trkpt lat="49.44708" lon="1.12048">
        <ele>112.6</ele>
        <time>2021-05-23T08:28:21Z</time>
      </trkpt>
      <trkpt lat="49.44709" lon="1.12045">
        <ele>112.5</ele>
        <time>2021-05-23T08:28:22Z</time>
      </trkpt>
      <trkpt lat="49.44712" lon="1.12035">
        <ele>112.5</ele>
        <time>2021-05-23T08:28:24Z</time>
      </trkpt>
      <trkpt lat="49.44713" lon="1.12031">
        <ele>112.4</ele>
        <time>2021-05-23T08:28:25Z</time>
      </trkpt>
      <trkpt lat="49.44715" lon="1.12029">
        <ele>112.3</ele>
        <time>2021-05-23T08:28:26Z</time>
      </trkpt>
      <trkpt lat="49.44717" lon="1.12025">
        <ele>112.2</ele>
        <time>2021-05-23T08:28:28Z</time>
      </trkpt>
      <trkpt lat="49.4472" lon="1.12022">
        <ele>112.2</ele>
        <time>2021-05-23T08:28:29Z</time>
      </trkpt>
      <trkpt lat="49.44721" lon="1.12021">
        <ele>112.2</ele>
        <time>2021-05-23T08:28:30Z</time>
      </trkpt>
      <trkpt lat="49.44725" lon="1.12018">
        <ele>112.4</ele>
        <time>2021-05-23T08:28:31Z</time>
      </trkpt>
      <trkpt lat="49.4473" lon="1.12014">
        <ele>112.5</ele>
        <time>2021-05-23T08:28:33Z</time>
      </trkpt>
      <trkpt lat="49.44734" lon="1.12011">
        <ele>112.7</ele>
        <time>2021-05-23T08:28:35Z</time>
      </trkpt>
      <trkpt lat="49.44738" lon="1.12008">
        <ele>112.9</ele>
        <time>2021-05-23T08:28:36Z</time>
      </trkpt>
      <trkpt lat="49.44743" lon="1.12005">
        <ele>113.1</ele>
        <time>2021-05-23T08:28:37Z</time>
      </trkpt>
      <trkpt lat="49.44748" lon="1.12002">
        <ele>113.3</ele>
        <time>2021-05-23T08:28:38Z</time>
      </trkpt>
      <trkpt lat="49.44749" lon="1.12">
        <ele>113.5</ele>
        <time>2021-05-23T08:28:39Z</time>
      </trkpt>
      <trkpt lat="49.4475" lon="1.11998">
        <ele>113.8</ele>
        <time>2021-05-23T08:28:41Z</time>
      </trkpt>
      <trkpt lat="49.4475" lon="1.11998">
        <ele>114.2</ele>
        <time>2021-05-23T08:28:42Z</time>
      </trkpt>
      <trkpt lat="49.44752" lon="1.11996">
        <ele>114.5</ele>
        <time>2021-05-23T08:28:43Z</time>
      </trkpt>
      <trkpt lat="49.44759" lon="1.11991">
        <ele>114.7</ele>
        <time>2021-05-23T08:28:45Z</time>
      </trkpt>
      <trkpt lat="49.44763" lon="1.11987">
        <ele>114.9</ele>
        <time>2021-05-23T08:28:46Z</time>
      </trkpt>
      <trkpt lat="49.44768" lon="1.11982">
        <ele>115.1</ele>
        <time>2021-05-23T08:28:48Z</time>
      </trkpt>
      <trkpt lat="49.44773" lon="1.11978">
        <ele>115.4</ele>
        <time>2021-05-23T08:28:49Z</time>
      </trkpt>
      <trkpt lat="49.44777" lon="1.11974">
        <ele>115.6</ele>
        <time>2021-05-23T08:28:50Z</time>
      </trkpt>
      <trkpt lat="49.44781" lon="1.11969">
        <ele>115.9</ele>
        <time>2021-05-23T08:28:51Z</time>
      </trkpt>
      <trkpt lat="49.44785" lon="1.11966">
        <ele>116.2</ele>
        <time>2021-05-23T08:28:52Z</time>
      </trkpt>
      <trkpt lat="49.44789" lon="1.11962">
        <ele>116.4</ele>
        <time>2021-05-23T08:28:54Z</time>
      </trkpt>
      <trkpt lat="49.44793" lon="1.11959">
        <ele>116.5</ele>
        <time>2021-05-23T08:28:55Z</time>
      </trkpt>
      <trkpt lat="49.44797" lon="1.11954">
        <ele>116.6</ele>
        <time>2021-05-23T08:28:56Z</time>
      </trkpt>
      <trkpt lat="49.44801" lon="1.11951">
        <ele>116.7</ele>
        <time>2021-05-23T08:28:57Z</time>
      </trkpt>
      <trkpt lat="49.44804" lon="1.11948">
        <ele>116.8</ele>
        <time>2021-05-23T08:28:58Z</time>
      </trkpt>
      <trkpt lat="49.44807" lon="1.11944">
        <ele>116.8</ele>
        <time>2021-05-23T08:28:59Z</time>
      </trkpt>
      <trkpt lat="49.44811" lon="1.11941">
        <ele>116.8</ele>
        <time>2021-05-23T08:29:00Z</time>
      </trkpt>
      <trkpt lat="49.44813" lon="1.11938">
        <ele>116.7</ele>
        <time>2021-05-23T08:29:01Z</time>
      </trkpt>
      <trkpt lat="49.44818" lon="1.11931">
        <ele>116.6</ele>
        <time>2021-05-23T08:29:03Z</time>
      </trkpt>
      <trkpt lat="49.44821" lon="1.11928">
        <ele>116.6</ele>
        <time>2021-05-23T08:29:04Z</time>
      </trkpt>
      <trkpt lat="49.44823" lon="1.11924">
        <ele>116.6</ele>
        <time>2021-05-23T08:29:05Z</time>
      </trkpt>
      <trkpt lat="49.44827" lon="1.11919">
        <ele>116.7</ele>
        <time>2021-05-23T08:29:08Z</time>
      </trkpt>
      <trkpt lat="49.4483" lon="1.11914">
        <ele>116.8</ele>
        <time>2021-05-23T08:29:09Z</time>
      </trkpt>
      <trkpt lat="49.44833" lon="1.1191">
        <ele>116.9</ele>
        <time>2021-05-23T08:29:10Z</time>
      </trkpt>
      <trkpt lat="49.44836" lon="1.11908">
        <ele>117.1</ele>
        <time>2021-05-23T08:29:12Z</time>
      </trkpt>
      <trkpt lat="49.44839" lon="1.11906">
        <ele>117.3</ele>
        <time>2021-05-23T08:29:13Z</time>
      </trkpt>
      <trkpt lat="49.44842" lon="1.11904">
        <ele>117.5</ele>
        <time>2021-05-23T08:29:14Z</time>
      </trkpt>
      <trkpt lat="49.44845" lon="1.11902">
        <ele>117.9</ele>
        <time>2021-05-23T08:29:15Z</time>
      </trkpt>
      <trkpt lat="49.44847" lon="1.11902">
        <ele>118.3</ele>
        <time>2021-05-23T08:29:16Z</time>
      </trkpt>
      <trkpt lat="49.4485" lon="1.11899">
        <ele>118.6</ele>
        <time>2021-05-23T08:29:18Z</time>
      </trkpt>
      <trkpt lat="49.44852" lon="1.11897">
        <ele>118.9</ele>
        <time>2021-05-23T08:29:19Z</time>
      </trkpt>
      <trkpt lat="49.44855" lon="1.11895">
        <ele>119.3</ele>
        <time>2021-05-23T08:29:21Z</time>
      </trkpt>
      <trkpt lat="49.44858" lon="1.11892">
        <ele>119.5</ele>
        <time>2021-05-23T08:29:22Z</time>
      </trkpt>
      <trkpt lat="49.44858" lon="1.11892">
        <ele>119.8</ele>
        <time>2021-05-23T08:29:23Z</time>
      </trkpt>
      <trkpt lat="49.4486" lon="1.11891">
        <ele>120.1</ele>
        <time>2021-05-23T08:29:24Z</time>
      </trkpt>
      <trkpt lat="49.44862" lon="1.11891">
        <ele>120.3</ele>
        <time>2021-05-23T08:29:25Z</time>
      </trkpt>
      <trkpt lat="49.44864" lon="1.1189">
        <ele>120.5</ele>
        <time>2021-05-23T08:29:27Z</time>
      </trkpt>
      <trkpt lat="49.44864" lon="1.1189">
        <ele>120.6</ele>
        <time>2021-05-23T08:29:28Z</time>
      </trkpt>
      <trkpt lat="49.44865" lon="1.11889">
        <ele>120.7</ele>
        <time>2021-05-23T08:29:30Z</time>
      </trkpt>
      <trkpt lat="49.44865" lon="1.11889">
        <ele>120.8</ele>
        <time>2021-05-23T08:29:31Z</time>
      </trkpt>
      <trkpt lat="49.44866" lon="1.11888">
        <ele>120.9</ele>
        <time>2021-05-23T08:29:32Z</time>
      </trkpt>
      <trkpt lat="49.44866" lon="1.11888">
        <ele>121.1</ele>
        <time>2021-05-23T08:29:34Z</time>
      </trkpt>
      <trkpt lat="49.44866" lon="1.11888">
        <ele>121.2</ele>
        <time>2021-05-23T08:29:35Z</time>
      </trkpt>
      <trkpt lat="49.44867" lon="1.11887">
        <ele>121.3</ele>
        <time>2021-05-23T08:29:37Z</time>
      </trkpt>
      <trkpt lat="49.44868" lon="1.11885">
        <ele>121.4</ele>
        <time>2021-05-23T08:29:39Z</time>
      </trkpt>
      <trkpt lat="49.44869" lon="1.11883">
        <ele>121.5</ele>
        <time>2021-05-23T08:29:41Z</time>
      </trkpt>
      <trkpt lat="49.44871" lon="1.11881">
        <ele>121.5</ele>
        <time>2021-05-23T08:29:43Z</time>
      </trkpt>
      <trkpt lat="49.44871" lon="1.11881">
        <ele>121.7</ele>
        <time>2021-05-23T08:29:44Z</time>
      </trkpt>
      <trkpt lat="49.44872" lon="1.1188">
        <ele>121.9</ele>
        <time>2021-05-23T08:29:46Z</time>
      </trkpt>
      <trkpt lat="49.44872" lon="1.1188">
        <ele>122.1</ele>
        <time>2021-05-23T08:29:47Z</time>
      </trkpt>
      <trkpt lat="49.44876" lon="1.11879">
        <ele>122.3</ele>
        <time>2021-05-23T08:29:49Z</time>
      </trkpt>
      <trkpt lat="49.44876" lon="1.11879">
        <ele>122.4</ele>
        <time>2021-05-23T08:29:50Z</time>
      </trkpt>
      <trkpt lat="49.44878" lon="1.11879">
        <ele>122.4</ele>
        <time>2021-05-23T08:29:51Z</time>
      </trkpt>
      <trkpt lat="49.44879" lon="1.11877">
        <ele>122.3</ele>
        <time>2021-05-23T08:29:52Z</time>
      </trkpt>
      <trkpt lat="49.44881" lon="1.11872">
        <ele>122.1</ele>
        <time>2021-05-23T08:29:54Z</time>
      </trkpt>
      <trkpt lat="49.44881" lon="1.11864">
        <ele>121.9</ele>
        <time>2021-05-23T08:29:56Z</time>
      </trkpt>
      <trkpt lat="49.44882" lon="1.11858">
        <ele>121.6</ele>
        <time>2021-05-23T08:29:57Z</time>
      </trkpt>
      <trkpt lat="49.44881" lon="1.11852">
        <ele>121.4</ele>
        <time>2021-05-23T08:29:58Z</time>
      </trkpt>
      <trkpt lat="49.44881" lon="1.11845">
        <ele>121</ele>
        <time>2021-05-23T08:29:59Z</time>
      </trkpt>
      <trkpt lat="49.44881" lon="1.11838">
        <ele>120.7</ele>
        <time>2021-05-23T08:30:00Z</time>
      </trkpt>
      <trkpt lat="49.4488" lon="1.11832">
        <ele>120.5</ele>
        <time>2021-05-23T08:30:02Z</time>
      </trkpt>
      <trkpt lat="49.4488" lon="1.11828">
        <ele>120.5</ele>
        <time>2021-05-23T08:30:03Z</time>
      </trkpt>
      <trkpt lat="49.44881" lon="1.11823">
        <ele>120.5</ele>
        <time>2021-05-23T08:30:05Z</time>
      </trkpt>
      <trkpt lat="49.44883" lon="1.11819">
        <ele>120.7</ele>
        <time>2021-05-23T08:30:06Z</time>
      </trkpt>
      <trkpt lat="49.44886" lon="1.11819">
        <ele>121.1</ele>
        <time>2021-05-23T08:30:07Z</time>
      </trkpt>
      <trkpt lat="49.44887" lon="1.11825">
        <ele>121.5</ele>
        <time>2021-05-23T08:30:09Z</time>
      </trkpt>
      <trkpt lat="49.44889" lon="1.11834">
        <ele>122.1</ele>
        <time>2021-05-23T08:30:11Z</time>
      </trkpt>
      <trkpt lat="49.4489" lon="1.11838">
        <ele>122.6</ele>
        <time>2021-05-23T08:30:12Z</time>
      </trkpt>
      <trkpt lat="49.44892" lon="1.11845">
        <ele>123.2</ele>
        <time>2021-05-23T08:30:14Z</time>
      </trkpt>
      <trkpt lat="49.44895" lon="1.11849">
        <ele>123.7</ele>
        <time>2021-05-23T08:30:16Z</time>
      </trkpt>
      <trkpt lat="49.44899" lon="1.11847">
        <ele>124.1</ele>
        <time>2021-05-23T08:30:17Z</time>
      </trkpt>
      <trkpt lat="49.44899" lon="1.11846">
        <ele>124.4</ele>
        <time>2021-05-23T08:30:18Z</time>
      </trkpt>
      <trkpt lat="49.44901" lon="1.11839">
        <ele>124.5</ele>
        <time>2021-05-23T08:30:20Z</time>
      </trkpt>
      <trkpt lat="49.449" lon="1.11836">
        <ele>124.5</ele>
        <time>2021-05-23T08:30:22Z</time>
      </trkpt>
      <trkpt lat="49.449" lon="1.11834">
        <ele>124.4</ele>
        <time>2021-05-23T08:30:23Z</time>
      </trkpt>
      <trkpt lat="49.44899" lon="1.11829">
        <ele>124.1</ele>
        <time>2021-05-23T08:30:24Z</time>
      </trkpt>
      <trkpt lat="49.44899" lon="1.11824">
        <ele>123.8</ele>
        <time>2021-05-23T08:30:25Z</time>
      </trkpt>
      <trkpt lat="49.44899" lon="1.11819">
        <ele>123.4</ele>
        <time>2021-05-23T08:30:26Z</time>
      </trkpt>
      <trkpt lat="49.44898" lon="1.11813">
        <ele>123</ele>
        <time>2021-05-23T08:30:27Z</time>
      </trkpt>
      <trkpt lat="49.44896" lon="1.11804">
        <ele>122.6</ele>
        <time>2021-05-23T08:30:29Z</time>
      </trkpt>
      <trkpt lat="49.44896" lon="1.11798">
        <ele>122.3</ele>
        <time>2021-05-23T08:30:30Z</time>
      </trkpt>
      <trkpt lat="49.44895" lon="1.11794">
        <ele>122</ele>
        <time>2021-05-23T08:30:31Z</time>
      </trkpt>
      <trkpt lat="49.44894" lon="1.11789">
        <ele>121.7</ele>
        <time>2021-05-23T08:30:32Z</time>
      </trkpt>
      <trkpt lat="49.44893" lon="1.11787">
        <ele>121.5</ele>
        <time>2021-05-23T08:30:33Z</time>
      </trkpt>
      <trkpt lat="49.44892" lon="1.11783">
        <ele>121.3</ele>
        <time>2021-05-23T08:30:34Z</time>
      </trkpt>
      <trkpt lat="49.44892" lon="1.11777">
        <ele>121.2</ele>
        <time>2021-05-23T08:30:36Z</time>
      </trkpt>
      <trkpt lat="49.44891" lon="1.11768">
        <ele>121.1</ele>
        <time>2021-05-23T08:30:37Z</time>
      </trkpt>
      <trkpt lat="49.4489" lon="1.11762">
        <ele>121</ele>
        <time>2021-05-23T08:30:38Z</time>
      </trkpt>
      <trkpt lat="49.4489" lon="1.11755">
        <ele>121</ele>
        <time>2021-05-23T08:30:39Z</time>
      </trkpt>
      <trkpt lat="49.44889" lon="1.11749">
        <ele>121</ele>
        <time>2021-05-23T08:30:40Z</time>
      </trkpt>
      <trkpt lat="49.44889" lon="1.11736">
        <ele>121</ele>
        <time>2021-05-23T08:30:42Z</time>
      </trkpt>
      <trkpt lat="49.44889" lon="1.11727">
        <ele>121</ele>
        <time>2021-05-23T08:30:44Z</time>
      </trkpt>
      <trkpt lat="49.44889" lon="1.1172">
        <ele>120.9</ele>
        <time>2021-05-23T08:30:46Z</time>
      </trkpt>
      <trkpt lat="49.44889" lon="1.11713">
        <ele>120.8</ele>
        <time>2021-05-23T08:30:47Z</time>
      </trkpt>
      <trkpt lat="49.44889" lon="1.11705">
        <ele>120.6</ele>
        <time>2021-05-23T08:30:48Z</time>
      </trkpt>
      <trkpt lat="49.44889" lon="1.11696">
        <ele>120.4</ele>
        <time>2021-05-23T08:30:49Z</time>
      </trkpt>
      <trkpt lat="49.44889" lon="1.11685">
        <ele>120.2</ele>
        <time>2021-05-23T08:30:51Z</time>
      </trkpt>
      <trkpt lat="49.44889" lon="1.11679">
        <ele>119.9</ele>
        <time>2021-05-23T08:30:52Z</time>
      </trkpt>
      <trkpt lat="49.44889" lon="1.11668">
        <ele>119.6</ele>
        <time>2021-05-23T08:30:54Z</time>
      </trkpt>
      <trkpt lat="49.44888" lon="1.1166">
        <ele>119.4</ele>
        <time>2021-05-23T08:30:55Z</time>
      </trkpt>
      <trkpt lat="49.44887" lon="1.11652">
        <ele>119</ele>
        <time>2021-05-23T08:30:57Z</time>
      </trkpt>
      <trkpt lat="49.44889" lon="1.11646">
        <ele>118.6</ele>
        <time>2021-05-23T08:30:58Z</time>
      </trkpt>
      <trkpt lat="49.44893" lon="1.11634">
        <ele>118.3</ele>
        <time>2021-05-23T08:31:00Z</time>
      </trkpt>
      <trkpt lat="49.44896" lon="1.11626">
        <ele>118</ele>
        <time>2021-05-23T08:31:02Z</time>
      </trkpt>
      <trkpt lat="49.44894" lon="1.11624">
        <ele>117.7</ele>
        <time>2021-05-23T08:31:04Z</time>
      </trkpt>
      <trkpt lat="49.44894" lon="1.11622">
        <ele>117.5</ele>
        <time>2021-05-23T08:31:05Z</time>
      </trkpt>
      <trkpt lat="49.44894" lon="1.11622">
        <ele>117.5</ele>
        <time>2021-05-23T08:31:06Z</time>
      </trkpt>
      <trkpt lat="49.44893" lon="1.11622">
        <ele>117.3</ele>
        <time>2021-05-23T08:31:07Z</time>
      </trkpt>
      <trkpt lat="49.44894" lon="1.11621">
        <ele>117.2</ele>
        <time>2021-05-23T08:31:08Z</time>
      </trkpt>
      <trkpt lat="49.44895" lon="1.11616">
        <ele>116.9</ele>
        <time>2021-05-23T08:31:10Z</time>
      </trkpt>
      <trkpt lat="49.44898" lon="1.1161">
        <ele>116.5</ele>
        <time>2021-05-23T08:31:11Z</time>
      </trkpt>
      <trkpt lat="49.44903" lon="1.116">
        <ele>116.1</ele>
        <time>2021-05-23T08:31:13Z</time>
      </trkpt>
      <trkpt lat="49.44906" lon="1.11591">
        <ele>115.6</ele>
        <time>2021-05-23T08:31:14Z</time>
      </trkpt>
      <trkpt lat="49.44911" lon="1.1158">
        <ele>115.1</ele>
        <time>2021-05-23T08:31:15Z</time>
      </trkpt>
      <trkpt lat="49.44917" lon="1.11563">
        <ele>114.5</ele>
        <time>2021-05-23T08:31:17Z</time>
      </trkpt>
      <trkpt lat="49.44921" lon="1.1155">
        <ele>113.8</ele>
        <time>2021-05-23T08:31:19Z</time>
      </trkpt>
      <trkpt lat="49.44925" lon="1.11541">
        <ele>113.1</ele>
        <time>2021-05-23T08:31:20Z</time>
      </trkpt>
      <trkpt lat="49.44928" lon="1.11532">
        <ele>112.4</ele>
        <time>2021-05-23T08:31:21Z</time>
      </trkpt>
      <trkpt lat="49.4493" lon="1.11523">
        <ele>111.5</ele>
        <time>2021-05-23T08:31:22Z</time>
      </trkpt>
      <trkpt lat="49.44933" lon="1.11513">
        <ele>110.7</ele>
        <time>2021-05-23T08:31:23Z</time>
      </trkpt>
      <trkpt lat="49.44937" lon="1.11503">
        <ele>110</ele>
        <time>2021-05-23T08:31:25Z</time>
      </trkpt>
      <trkpt lat="49.4494" lon="1.11492">
        <ele>109.5</ele>
        <time>2021-05-23T08:31:26Z</time>
      </trkpt>
      <trkpt lat="49.44944" lon="1.11481">
        <ele>109.1</ele>
        <time>2021-05-23T08:31:28Z</time>
      </trkpt>
      <trkpt lat="49.44947" lon="1.11466">
        <ele>108.7</ele>
        <time>2021-05-23T08:31:29Z</time>
      </trkpt>
      <trkpt lat="49.4495" lon="1.1146">
        <ele>108.5</ele>
        <time>2021-05-23T08:31:30Z</time>
      </trkpt>
      <trkpt lat="49.44952" lon="1.11454">
        <ele>108.4</ele>
        <time>2021-05-23T08:31:33Z</time>
      </trkpt>
      <trkpt lat="49.44954" lon="1.1145">
        <ele>108.3</ele>
        <time>2021-05-23T08:31:34Z</time>
      </trkpt>
      <trkpt lat="49.44955" lon="1.1145">
        <ele>108.3</ele>
        <time>2021-05-23T08:31:35Z</time>
      </trkpt>
      <trkpt lat="49.44958" lon="1.11446">
        <ele>108.3</ele>
        <time>2021-05-23T08:31:37Z</time>
      </trkpt>
      <trkpt lat="49.4496" lon="1.11444">
        <ele>108.4</ele>
        <time>2021-05-23T08:31:38Z</time>
      </trkpt>
      <trkpt lat="49.44962" lon="1.11443">
        <ele>108.5</ele>
        <time>2021-05-23T08:31:39Z</time>
      </trkpt>
      <trkpt lat="49.44963" lon="1.11442">
        <ele>108.7</ele>
        <time>2021-05-23T08:31:41Z</time>
      </trkpt>
      <trkpt lat="49.44963" lon="1.11442">
        <ele>108.9</ele>
        <time>2021-05-23T08:31:43Z</time>
      </trkpt>
      <trkpt lat="49.44964" lon="1.11442">
        <ele>109.3</ele>
        <time>2021-05-23T08:31:44Z</time>
      </trkpt>
      <trkpt lat="49.44963" lon="1.11442">
        <ele>109.7</ele>
        <time>2021-05-23T08:31:45Z</time>
      </trkpt>
      <trkpt lat="49.44964" lon="1.11441">
        <ele>110.3</ele>
        <time>2021-05-23T08:31:46Z</time>
      </trkpt>
      <trkpt lat="49.44968" lon="1.11438">
        <ele>110.7</ele>
        <time>2021-05-23T08:31:47Z</time>
      </trkpt>
      <trkpt lat="49.44969" lon="1.11437">
        <ele>111.2</ele>
        <time>2021-05-23T08:31:48Z</time>
      </trkpt>
      <trkpt lat="49.44976" lon="1.11432">
        <ele>111.6</ele>
        <time>2021-05-23T08:31:50Z</time>
      </trkpt>
      <trkpt lat="49.44978" lon="1.11431">
        <ele>112.1</ele>
        <time>2021-05-23T08:31:51Z</time>
      </trkpt>
      <trkpt lat="49.44981" lon="1.11428">
        <ele>112.6</ele>
        <time>2021-05-23T08:31:53Z</time>
      </trkpt>
      <trkpt lat="49.44982" lon="1.11423">
        <ele>113.1</ele>
        <time>2021-05-23T08:31:54Z</time>
      </trkpt>
      <trkpt lat="49.44982" lon="1.11421">
        <ele>113.5</ele>
        <time>2021-05-23T08:31:55Z</time>
      </trkpt>
      <trkpt lat="49.44983" lon="1.11418">
        <ele>114</ele>
        <time>2021-05-23T08:31:56Z</time>
      </trkpt>
      <trkpt lat="49.44984" lon="1.11415">
        <ele>114.3</ele>
        <time>2021-05-23T08:31:58Z</time>
      </trkpt>
      <trkpt lat="49.44985" lon="1.11414">
        <ele>114.5</ele>
        <time>2021-05-23T08:31:59Z</time>
      </trkpt>
      <trkpt lat="49.44984" lon="1.11415">
        <ele>114.5</ele>
        <time>2021-05-23T08:32:01Z</time>
      </trkpt>
      <trkpt lat="49.44984" lon="1.11415">
        <ele>114.6</ele>
        <time>2021-05-23T08:32:02Z</time>
      </trkpt>
      <trkpt lat="49.44985" lon="1.11415">
        <ele>114.7</ele>
        <time>2021-05-23T08:32:03Z</time>
      </trkpt>
      <trkpt lat="49.44984" lon="1.11415">
        <ele>114.8</ele>
        <time>2021-05-23T08:32:04Z</time>
      </trkpt>
      <trkpt lat="49.44985" lon="1.11415">
        <ele>114.9</ele>
        <time>2021-05-23T08:32:06Z</time>
      </trkpt>
      <trkpt lat="49.44985" lon="1.11415">
        <ele>114.9</ele>
        <time>2021-05-23T08:32:07Z</time>
      </trkpt>
      <trkpt lat="49.44985" lon="1.11416">
        <ele>115.1</ele>
        <time>2021-05-23T08:32:08Z</time>
      </trkpt>
      <trkpt lat="49.44985" lon="1.11416">
        <ele>115.2</ele>
        <time>2021-05-23T08:32:09Z</time>
      </trkpt>
      <trkpt lat="49.44985" lon="1.11417">
        <ele>115.3</ele>
        <time>2021-05-23T08:32:11Z</time>
      </trkpt>
      <trkpt lat="49.44986" lon="1.11418">
        <ele>115.5</ele>
        <time>2021-05-23T08:32:12Z</time>
      </trkpt>
      <trkpt lat="49.44987" lon="1.1142">
        <ele>115.7</ele>
        <time>2021-05-23T08:32:14Z</time>
      </trkpt>
      <trkpt lat="49.44988" lon="1.11424">
        <ele>116</ele>
        <time>2021-05-23T08:32:16Z</time>
      </trkpt>
      <trkpt lat="49.44988" lon="1.11424">
        <ele>116.4</ele>
        <time>2021-05-23T08:32:17Z</time>
      </trkpt>
      <trkpt lat="49.4499" lon="1.11426">
        <ele>116.8</ele>
        <time>2021-05-23T08:32:20Z</time>
      </trkpt>
      <trkpt lat="49.44993" lon="1.11428">
        <ele>117.3</ele>
        <time>2021-05-23T08:32:22Z</time>
      </trkpt>
      <trkpt lat="49.44996" lon="1.11429">
        <ele>117.7</ele>
        <time>2021-05-23T08:32:23Z</time>
      </trkpt>
      <trkpt lat="49.44997" lon="1.11429">
        <ele>118.3</ele>
        <time>2021-05-23T08:32:24Z</time>
      </trkpt>
      <trkpt lat="49.45" lon="1.11431">
        <ele>118.8</ele>
        <time>2021-05-23T08:32:26Z</time>
      </trkpt>
      <trkpt lat="49.45002" lon="1.11432">
        <ele>119.5</ele>
        <time>2021-05-23T08:32:27Z</time>
      </trkpt>
      <trkpt lat="49.45003" lon="1.11434">
        <ele>120.2</ele>
        <time>2021-05-23T08:32:28Z</time>
      </trkpt>
      <trkpt lat="49.45005" lon="1.11435">
        <ele>120.9</ele>
        <time>2021-05-23T08:32:29Z</time>
      </trkpt>
      <trkpt lat="49.45008" lon="1.11438">
        <ele>121.5</ele>
        <time>2021-05-23T08:32:31Z</time>
      </trkpt>
      <trkpt lat="49.45012" lon="1.11442">
        <ele>122.3</ele>
        <time>2021-05-23T08:32:33Z</time>
      </trkpt>
      <trkpt lat="49.45016" lon="1.11446">
        <ele>122.9</ele>
        <time>2021-05-23T08:32:35Z</time>
      </trkpt>
      <trkpt lat="49.45019" lon="1.1145">
        <ele>123.5</ele>
        <time>2021-05-23T08:32:37Z</time>
      </trkpt>
      <trkpt lat="49.45021" lon="1.11454">
        <ele>124</ele>
        <time>2021-05-23T08:32:39Z</time>
      </trkpt>
      <trkpt lat="49.45023" lon="1.11456">
        <ele>124.6</ele>
        <time>2021-05-23T08:32:40Z</time>
      </trkpt>
      <trkpt lat="49.45025" lon="1.11459">
        <ele>125.2</ele>
        <time>2021-05-23T08:32:42Z</time>
      </trkpt>
      <trkpt lat="49.45025" lon="1.11461">
        <ele>125.6</ele>
        <time>2021-05-23T08:32:43Z</time>
      </trkpt>
      <trkpt lat="49.45025" lon="1.11462">
        <ele>126.1</ele>
        <time>2021-05-23T08:32:44Z</time>
      </trkpt>
      <trkpt lat="49.45026" lon="1.11466">
        <ele>126.5</ele>
        <time>2021-05-23T08:32:46Z</time>
      </trkpt>
      <trkpt lat="49.45027" lon="1.11469">
        <ele>126.8</ele>
        <time>2021-05-23T08:32:48Z</time>
      </trkpt>
      <trkpt lat="49.45029" lon="1.11471">
        <ele>127.2</ele>
        <time>2021-05-23T08:32:50Z</time>
      </trkpt>
      <trkpt lat="49.4503" lon="1.11474">
        <ele>127.5</ele>
        <time>2021-05-23T08:32:51Z</time>
      </trkpt>
      <trkpt lat="49.4503" lon="1.11476">
        <ele>127.9</ele>
        <time>2021-05-23T08:32:52Z</time>
      </trkpt>
      <trkpt lat="49.45032" lon="1.11479">
        <ele>128.3</ele>
        <time>2021-05-23T08:32:54Z</time>
      </trkpt>
      <trkpt lat="49.45034" lon="1.11483">
        <ele>128.7</ele>
        <time>2021-05-23T08:32:56Z</time>
      </trkpt>
      <trkpt lat="49.45035" lon="1.11485">
        <ele>129.1</ele>
        <time>2021-05-23T08:32:57Z</time>
      </trkpt>
      <trkpt lat="49.45036" lon="1.1149">
        <ele>129.5</ele>
        <time>2021-05-23T08:32:59Z</time>
      </trkpt>
      <trkpt lat="49.45039" lon="1.11493">
        <ele>130</ele>
        <time>2021-05-23T08:33:01Z</time>
      </trkpt>
      <trkpt lat="49.4504" lon="1.11495">
        <ele>130.5</ele>
        <time>2021-05-23T08:33:02Z</time>
      </trkpt>
      <trkpt lat="49.45042" lon="1.11497">
        <ele>130.9</ele>
        <time>2021-05-23T08:33:04Z</time>
      </trkpt>
      <trkpt lat="49.45043" lon="1.11499">
        <ele>131.3</ele>
        <time>2021-05-23T08:33:05Z</time>
      </trkpt>
      <trkpt lat="49.45045" lon="1.11502">
        <ele>131.7</ele>
        <time>2021-05-23T08:33:08Z</time>
      </trkpt>
      <trkpt lat="49.45048" lon="1.11506">
        <ele>132.1</ele>
        <time>2021-05-23T08:33:10Z</time>
      </trkpt>
      <trkpt lat="49.4505" lon="1.1151">
        <ele>132.5</ele>
        <time>2021-05-23T08:33:12Z</time>
      </trkpt>
      <trkpt lat="49.45052" lon="1.11514">
        <ele>132.8</ele>
        <time>2021-05-23T08:33:14Z</time>
      </trkpt>
      <trkpt lat="49.45054" lon="1.11516">
        <ele>133.2</ele>
        <time>2021-05-23T08:33:15Z</time>
      </trkpt>
      <trkpt lat="49.45056" lon="1.11521">
        <ele>133.5</ele>
        <time>2021-05-23T08:33:17Z</time>
      </trkpt>
      <trkpt lat="49.45058" lon="1.11524">
        <ele>133.8</ele>
        <time>2021-05-23T08:33:18Z</time>
      </trkpt>
      <trkpt lat="49.45059" lon="1.11525">
        <ele>134.1</ele>
        <time>2021-05-23T08:33:19Z</time>
      </trkpt>
      <trkpt lat="49.4506" lon="1.11527">
        <ele>134.4</ele>
        <time>2021-05-23T08:33:20Z</time>
      </trkpt>
      <trkpt lat="49.45061" lon="1.11529">
        <ele>134.6</ele>
        <time>2021-05-23T08:33:21Z</time>
      </trkpt>
      <trkpt lat="49.45062" lon="1.11532">
        <ele>134.9</ele>
        <time>2021-05-23T08:33:23Z</time>
      </trkpt>
      <trkpt lat="49.45065" lon="1.11536">
        <ele>135.1</ele>
        <time>2021-05-23T08:33:25Z</time>
      </trkpt>
      <trkpt lat="49.45067" lon="1.11539">
        <ele>135.3</ele>
        <time>2021-05-23T08:33:27Z</time>
      </trkpt>
      <trkpt lat="49.45068" lon="1.11541">
        <ele>135.5</ele>
        <time>2021-05-23T08:33:28Z</time>
      </trkpt>
      <trkpt lat="49.4507" lon="1.11544">
        <ele>135.8</ele>
        <time>2021-05-23T08:33:30Z</time>
      </trkpt>
      <trkpt lat="49.45072" lon="1.11548">
        <ele>136</ele>
        <time>2021-05-23T08:33:32Z</time>
      </trkpt>
      <trkpt lat="49.45074" lon="1.11552">
        <ele>136.2</ele>
        <time>2021-05-23T08:33:34Z</time>
      </trkpt>
      <trkpt lat="49.45076" lon="1.11555">
        <ele>136.4</ele>
        <time>2021-05-23T08:33:36Z</time>
      </trkpt>
      <trkpt lat="49.45078" lon="1.11559">
        <ele>136.5</ele>
        <time>2021-05-23T08:33:38Z</time>
      </trkpt>
      <trkpt lat="49.45079" lon="1.11561">
        <ele>136.6</ele>
        <time>2021-05-23T08:33:39Z</time>
      </trkpt>
      <trkpt lat="49.45081" lon="1.11565">
        <ele>136.7</ele>
        <time>2021-05-23T08:33:41Z</time>
      </trkpt>
      <trkpt lat="49.45082" lon="1.11566">
        <ele>136.9</ele>
        <time>2021-05-23T08:33:42Z</time>
      </trkpt>
      <trkpt lat="49.45084" lon="1.11571">
        <ele>137.1</ele>
        <time>2021-05-23T08:33:44Z</time>
      </trkpt>
      <trkpt lat="49.45086" lon="1.11574">
        <ele>137.3</ele>
        <time>2021-05-23T08:33:45Z</time>
      </trkpt>
      <trkpt lat="49.45086" lon="1.11575">
        <ele>137.4</ele>
        <time>2021-05-23T08:33:46Z</time>
      </trkpt>
      <trkpt lat="49.45088" lon="1.11578">
        <ele>137.5</ele>
        <time>2021-05-23T08:33:47Z</time>
      </trkpt>
      <trkpt lat="49.45091" lon="1.11582">
        <ele>137.6</ele>
        <time>2021-05-23T08:33:49Z</time>
      </trkpt>
      <trkpt lat="49.45092" lon="1.11585">
        <ele>137.8</ele>
        <time>2021-05-23T08:33:50Z</time>
      </trkpt>
      <trkpt lat="49.45094" lon="1.11589">
        <ele>138</ele>
        <time>2021-05-23T08:33:52Z</time>
      </trkpt>
      <trkpt lat="49.45097" lon="1.11594">
        <ele>138.2</ele>
        <time>2021-05-23T08:33:54Z</time>
      </trkpt>
      <trkpt lat="49.45098" lon="1.11596">
        <ele>138.4</ele>
        <time>2021-05-23T08:33:56Z</time>
      </trkpt>
      <trkpt lat="49.45102" lon="1.11601">
        <ele>138.5</ele>
        <time>2021-05-23T08:33:58Z</time>
      </trkpt>
      <trkpt lat="49.45103" lon="1.11603">
        <ele>138.7</ele>
        <time>2021-05-23T08:33:59Z</time>
      </trkpt>
      <trkpt lat="49.45107" lon="1.11609">
        <ele>138.9</ele>
        <time>2021-05-23T08:34:01Z</time>
      </trkpt>
      <trkpt lat="49.45109" lon="1.11611">
        <ele>139.1</ele>
        <time>2021-05-23T08:34:02Z</time>
      </trkpt>
      <trkpt lat="49.45113" lon="1.11617">
        <ele>139.4</ele>
        <time>2021-05-23T08:34:04Z</time>
      </trkpt>
      <trkpt lat="49.45115" lon="1.11621">
        <ele>139.6</ele>
        <time>2021-05-23T08:34:05Z</time>
      </trkpt>
      <trkpt lat="49.45118" lon="1.11627">
        <ele>139.8</ele>
        <time>2021-05-23T08:34:07Z</time>
      </trkpt>
      <trkpt lat="49.4512" lon="1.11631">
        <ele>140</ele>
        <time>2021-05-23T08:34:08Z</time>
      </trkpt>
      <trkpt lat="49.45124" lon="1.11637">
        <ele>140.2</ele>
        <time>2021-05-23T08:34:10Z</time>
      </trkpt>
      <trkpt lat="49.45125" lon="1.1164">
        <ele>140.4</ele>
        <time>2021-05-23T08:34:11Z</time>
      </trkpt>
      <trkpt lat="49.45127" lon="1.11644">
        <ele>140.6</ele>
        <time>2021-05-23T08:34:12Z</time>
      </trkpt>
      <trkpt lat="49.45131" lon="1.11651">
        <ele>140.9</ele>
        <time>2021-05-23T08:34:14Z</time>
      </trkpt>
      <trkpt lat="49.45135" lon="1.11658">
        <ele>141.1</ele>
        <time>2021-05-23T08:34:16Z</time>
      </trkpt>
      <trkpt lat="49.45138" lon="1.11662">
        <ele>141.4</ele>
        <time>2021-05-23T08:34:17Z</time>
      </trkpt>
      <trkpt lat="49.45142" lon="1.11669">
        <ele>141.6</ele>
        <time>2021-05-23T08:34:19Z</time>
      </trkpt>
      <trkpt lat="49.45144" lon="1.11673">
        <ele>141.9</ele>
        <time>2021-05-23T08:34:20Z</time>
      </trkpt>
      <trkpt lat="49.45147" lon="1.11676">
        <ele>142.2</ele>
        <time>2021-05-23T08:34:21Z</time>
      </trkpt>
      <trkpt lat="49.4515" lon="1.11684">
        <ele>142.5</ele>
        <time>2021-05-23T08:34:23Z</time>
      </trkpt>
      <trkpt lat="49.45154" lon="1.11692">
        <ele>142.8</ele>
        <time>2021-05-23T08:34:25Z</time>
      </trkpt>
      <trkpt lat="49.45157" lon="1.11699">
        <ele>143.2</ele>
        <time>2021-05-23T08:34:26Z</time>
      </trkpt>
      <trkpt lat="49.45164" lon="1.11715">
        <ele>143.5</ele>
        <time>2021-05-23T08:34:28Z</time>
      </trkpt>
      <trkpt lat="49.45166" lon="1.1172">
        <ele>143.8</ele>
        <time>2021-05-23T08:34:29Z</time>
      </trkpt>
      <trkpt lat="49.45171" lon="1.1173">
        <ele>144.1</ele>
        <time>2021-05-23T08:34:31Z</time>
      </trkpt>
      <trkpt lat="49.45176" lon="1.1174">
        <ele>144.4</ele>
        <time>2021-05-23T08:34:33Z</time>
      </trkpt>
      <trkpt lat="49.45179" lon="1.11746">
        <ele>144.5</ele>
        <time>2021-05-23T08:34:34Z</time>
      </trkpt>
      <trkpt lat="49.45183" lon="1.11754">
        <ele>144.7</ele>
        <time>2021-05-23T08:34:36Z</time>
      </trkpt>
      <trkpt lat="49.45185" lon="1.11759">
        <ele>144.8</ele>
        <time>2021-05-23T08:34:37Z</time>
      </trkpt>
      <trkpt lat="49.45189" lon="1.11769">
        <ele>145</ele>
        <time>2021-05-23T08:34:39Z</time>
      </trkpt>
      <trkpt lat="49.4519" lon="1.11773">
        <ele>145.2</ele>
        <time>2021-05-23T08:34:40Z</time>
      </trkpt>
      <trkpt lat="49.45193" lon="1.11784">
        <ele>145.3</ele>
        <time>2021-05-23T08:34:43Z</time>
      </trkpt>
      <trkpt lat="49.45195" lon="1.1179">
        <ele>145.5</ele>
        <time>2021-05-23T08:34:44Z</time>
      </trkpt>
      <trkpt lat="49.45199" lon="1.11803">
        <ele>145.6</ele>
        <time>2021-05-23T08:34:46Z</time>
      </trkpt>
      <trkpt lat="49.45204" lon="1.11816">
        <ele>145.8</ele>
        <time>2021-05-23T08:34:48Z</time>
      </trkpt>
      <trkpt lat="49.45206" lon="1.11819">
        <ele>146</ele>
        <time>2021-05-23T08:34:50Z</time>
      </trkpt>
      <trkpt lat="49.45207" lon="1.1182">
        <ele>146.2</ele>
        <time>2021-05-23T08:34:51Z</time>
      </trkpt>
      <trkpt lat="49.45215" lon="1.11837">
        <ele>146.4</ele>
        <time>2021-05-23T08:34:53Z</time>
      </trkpt>
      <trkpt lat="49.45221" lon="1.11852">
        <ele>146.5</ele>
        <time>2021-05-23T08:34:55Z</time>
      </trkpt>
      <trkpt lat="49.45225" lon="1.11864">
        <ele>146.7</ele>
        <time>2021-05-23T08:34:57Z</time>
      </trkpt>
      <trkpt lat="49.45228" lon="1.11869">
        <ele>146.8</ele>
        <time>2021-05-23T08:34:58Z</time>
      </trkpt>
      <trkpt lat="49.4523" lon="1.11874">
        <ele>146.9</ele>
        <time>2021-05-23T08:34:59Z</time>
      </trkpt>
      <trkpt lat="49.45233" lon="1.11882">
        <ele>147</ele>
        <time>2021-05-23T08:35:01Z</time>
      </trkpt>
      <trkpt lat="49.45233" lon="1.11886">
        <ele>147</ele>
        <time>2021-05-23T08:35:02Z</time>
      </trkpt>
      <trkpt lat="49.45234" lon="1.1189">
        <ele>147</ele>
        <time>2021-05-23T08:35:04Z</time>
      </trkpt>
      <trkpt lat="49.45236" lon="1.11889">
        <ele>147</ele>
        <time>2021-05-23T08:35:06Z</time>
      </trkpt>
      <trkpt lat="49.45236" lon="1.11887">
        <ele>147</ele>
        <time>2021-05-23T08:35:07Z</time>
      </trkpt>
      <trkpt lat="49.45237" lon="1.11884">
        <ele>147</ele>
        <time>2021-05-23T08:35:09Z</time>
      </trkpt>
      <trkpt lat="49.45238" lon="1.11884">
        <ele>147</ele>
        <time>2021-05-23T08:35:10Z</time>
      </trkpt>
      <trkpt lat="49.45238" lon="1.11884">
        <ele>147</ele>
        <time>2021-05-23T08:35:12Z</time>
      </trkpt>
      <trkpt lat="49.45238" lon="1.11882">
        <ele>147</ele>
        <time>2021-05-23T08:35:13Z</time>
      </trkpt>
      <trkpt lat="49.45238" lon="1.11881">
        <ele>147</ele>
        <time>2021-05-23T08:35:15Z</time>
      </trkpt>
      <trkpt lat="49.45238" lon="1.1188">
        <ele>147</ele>
        <time>2021-05-23T08:35:17Z</time>
      </trkpt>
      <trkpt lat="49.45239" lon="1.11878">
        <ele>147</ele>
        <time>2021-05-23T08:35:19Z</time>
      </trkpt>
      <trkpt lat="49.45239" lon="1.11877">
        <ele>147</ele>
        <time>2021-05-23T08:39:43Z</time>
      </trkpt>
      <trkpt lat="49.45239" lon="1.11875">
        <ele>147</ele>
        <time>2021-05-23T08:39:45Z</time>
      </trkpt>
      <trkpt lat="49.45239" lon="1.11874">
        <ele>147</ele>
        <time>2021-05-23T08:39:46Z</time>
      </trkpt>
      <trkpt lat="49.45241" lon="1.11875">
        <ele>147.1</ele>
        <time>2021-05-23T08:39:48Z</time>
      </trkpt>
      <trkpt lat="49.45241" lon="1.11875">
        <ele>147.2</ele>
        <time>2021-05-23T08:39:49Z</time>
      </trkpt>
      <trkpt lat="49.45241" lon="1.11876">
        <ele>147.3</ele>
        <time>2021-05-23T08:39:50Z</time>
      </trkpt>
      <trkpt lat="49.45241" lon="1.11875">
        <ele>147.4</ele>
        <time>2021-05-23T08:39:51Z</time>
      </trkpt>
      <trkpt lat="49.45243" lon="1.11875">
        <ele>147.5</ele>
        <time>2021-05-23T08:39:52Z</time>
      </trkpt>
      <trkpt lat="49.45243" lon="1.1187">
        <ele>147.5</ele>
        <time>2021-05-23T08:39:54Z</time>
      </trkpt>
      <trkpt lat="49.45249" lon="1.11867">
        <ele>147.7</ele>
        <time>2021-05-23T08:39:55Z</time>
      </trkpt>
      <trkpt lat="49.45254" lon="1.11865">
        <ele>148</ele>
        <time>2021-05-23T08:39:56Z</time>
      </trkpt>
      <trkpt lat="49.45259" lon="1.11863">
        <ele>148.3</ele>
        <time>2021-05-23T08:39:57Z</time>
      </trkpt>
      <trkpt lat="49.45269" lon="1.11855">
        <ele>148.5</ele>
        <time>2021-05-23T08:39:59Z</time>
      </trkpt>
      <trkpt lat="49.45277" lon="1.11847">
        <ele>148.8</ele>
        <time>2021-05-23T08:40:01Z</time>
      </trkpt>
      <trkpt lat="49.45287" lon="1.11841">
        <ele>149</ele>
        <time>2021-05-23T08:40:03Z</time>
      </trkpt>
      <trkpt lat="49.45295" lon="1.11835">
        <ele>149.3</ele>
        <time>2021-05-23T08:40:05Z</time>
      </trkpt>
      <trkpt lat="49.453" lon="1.11833">
        <ele>149.5</ele>
        <time>2021-05-23T08:40:06Z</time>
      </trkpt>
      <trkpt lat="49.45305" lon="1.11831">
        <ele>149.8</ele>
        <time>2021-05-23T08:40:07Z</time>
      </trkpt>
      <trkpt lat="49.45307" lon="1.11828">
        <ele>150.1</ele>
        <time>2021-05-23T08:40:08Z</time>
      </trkpt>
      <trkpt lat="49.45316" lon="1.11823">
        <ele>150.4</ele>
        <time>2021-05-23T08:40:10Z</time>
      </trkpt>
      <trkpt lat="49.45326" lon="1.11816">
        <ele>150.5</ele>
        <time>2021-05-23T08:40:13Z</time>
      </trkpt>
      <trkpt lat="49.45339" lon="1.1181">
        <ele>150.6</ele>
        <time>2021-05-23T08:40:15Z</time>
      </trkpt>
      <trkpt lat="49.45345" lon="1.11807">
        <ele>150.7</ele>
        <time>2021-05-23T08:40:16Z</time>
      </trkpt>
      <trkpt lat="49.45357" lon="1.11798">
        <ele>150.8</ele>
        <time>2021-05-23T08:40:18Z</time>
      </trkpt>
      <trkpt lat="49.45369" lon="1.1179">
        <ele>151</ele>
        <time>2021-05-23T08:40:20Z</time>
      </trkpt>
      <trkpt lat="49.45375" lon="1.11787">
        <ele>151.2</ele>
        <time>2021-05-23T08:40:21Z</time>
      </trkpt>
      <trkpt lat="49.45385" lon="1.11778">
        <ele>151.3</ele>
        <time>2021-05-23T08:40:23Z</time>
      </trkpt>
      <trkpt lat="49.45388" lon="1.11776">
        <ele>151.4</ele>
        <time>2021-05-23T08:40:24Z</time>
      </trkpt>
      <trkpt lat="49.45393" lon="1.11775">
        <ele>151.5</ele>
        <time>2021-05-23T08:40:25Z</time>
      </trkpt>
      <trkpt lat="49.45403" lon="1.11769">
        <ele>151.6</ele>
        <time>2021-05-23T08:40:27Z</time>
      </trkpt>
      <trkpt lat="49.45409" lon="1.11766">
        <ele>151.8</ele>
        <time>2021-05-23T08:40:28Z</time>
      </trkpt>
      <trkpt lat="49.45419" lon="1.11759">
        <ele>151.9</ele>
        <time>2021-05-23T08:40:30Z</time>
      </trkpt>
      <trkpt lat="49.45424" lon="1.11755">
        <ele>152</ele>
        <time>2021-05-23T08:40:31Z</time>
      </trkpt>
      <trkpt lat="49.45429" lon="1.11752">
        <ele>152.1</ele>
        <time>2021-05-23T08:40:32Z</time>
      </trkpt>
      <trkpt lat="49.45432" lon="1.11749">
        <ele>152.1</ele>
        <time>2021-05-23T08:40:33Z</time>
      </trkpt>
      <trkpt lat="49.45438" lon="1.11744">
        <ele>152</ele>
        <time>2021-05-23T08:40:35Z</time>
      </trkpt>
      <trkpt lat="49.45449" lon="1.11736">
        <ele>151.8</ele>
        <time>2021-05-23T08:40:37Z</time>
      </trkpt>
      <trkpt lat="49.4546" lon="1.11727">
        <ele>151.6</ele>
        <time>2021-05-23T08:40:39Z</time>
      </trkpt>
      <trkpt lat="49.45464" lon="1.11722">
        <ele>151.5</ele>
        <time>2021-05-23T08:40:40Z</time>
      </trkpt>
      <trkpt lat="49.45476" lon="1.11712">
        <ele>151.2</ele>
        <time>2021-05-23T08:40:42Z</time>
      </trkpt>
      <trkpt lat="49.45487" lon="1.11703">
        <ele>150.8</ele>
        <time>2021-05-23T08:40:44Z</time>
      </trkpt>
      <trkpt lat="49.45493" lon="1.11698">
        <ele>150.4</ele>
        <time>2021-05-23T08:40:45Z</time>
      </trkpt>
      <trkpt lat="49.45505" lon="1.11688">
        <ele>149.9</ele>
        <time>2021-05-23T08:40:47Z</time>
      </trkpt>
      <trkpt lat="49.4551" lon="1.11682">
        <ele>149.5</ele>
        <time>2021-05-23T08:40:48Z</time>
      </trkpt>
      <trkpt lat="49.45519" lon="1.11669">
        <ele>148.9</ele>
        <time>2021-05-23T08:40:50Z</time>
      </trkpt>
      <trkpt lat="49.45523" lon="1.11653">
        <ele>148.5</ele>
        <time>2021-05-23T08:40:52Z</time>
      </trkpt>
      <trkpt lat="49.45534" lon="1.1164">
        <ele>148</ele>
        <time>2021-05-23T08:40:54Z</time>
      </trkpt>
      <trkpt lat="49.4554" lon="1.11633">
        <ele>147.5</ele>
        <time>2021-05-23T08:40:55Z</time>
      </trkpt>
      <trkpt lat="49.45544" lon="1.11626">
        <ele>147.1</ele>
        <time>2021-05-23T08:40:56Z</time>
      </trkpt>
      <trkpt lat="49.45551" lon="1.11613">
        <ele>146.6</ele>
        <time>2021-05-23T08:40:58Z</time>
      </trkpt>
      <trkpt lat="49.45555" lon="1.11607">
        <ele>146.3</ele>
        <time>2021-05-23T08:41:01Z</time>
      </trkpt>
      <trkpt lat="49.45557" lon="1.11605">
        <ele>145.9</ele>
        <time>2021-05-23T08:41:02Z</time>
      </trkpt>
      <trkpt lat="49.45558" lon="1.11605">
        <ele>145.5</ele>
        <time>2021-05-23T08:41:04Z</time>
      </trkpt>
      <trkpt lat="49.45559" lon="1.11605">
        <ele>145.1</ele>
        <time>2021-05-23T08:41:05Z</time>
      </trkpt>
      <trkpt lat="49.45562" lon="1.11607">
        <ele>144.7</ele>
        <time>2021-05-23T08:41:07Z</time>
      </trkpt>
      <trkpt lat="49.45565" lon="1.1161">
        <ele>144.4</ele>
        <time>2021-05-23T08:41:08Z</time>
      </trkpt>
      <trkpt lat="49.4557" lon="1.11612">
        <ele>143.9</ele>
        <time>2021-05-23T08:41:09Z</time>
      </trkpt>
      <trkpt lat="49.45583" lon="1.11616">
        <ele>143.5</ele>
        <time>2021-05-23T08:41:11Z</time>
      </trkpt>
      <trkpt lat="49.45589" lon="1.11618">
        <ele>143</ele>
        <time>2021-05-23T08:41:12Z</time>
      </trkpt>
      <trkpt lat="49.45604" lon="1.11623">
        <ele>142.5</ele>
        <time>2021-05-23T08:41:14Z</time>
      </trkpt>
      <trkpt lat="49.45622" lon="1.11608">
        <ele>142.1</ele>
        <time>2021-05-23T08:41:17Z</time>
      </trkpt>
      <trkpt lat="49.45626" lon="1.11595">
        <ele>141.5</ele>
        <time>2021-05-23T08:41:18Z</time>
      </trkpt>
      <trkpt lat="49.45629" lon="1.11586">
        <ele>141</ele>
        <time>2021-05-23T08:41:19Z</time>
      </trkpt>
      <trkpt lat="49.45633" lon="1.11579">
        <ele>140.6</ele>
        <time>2021-05-23T08:41:20Z</time>
      </trkpt>
      <trkpt lat="49.45644" lon="1.11568">
        <ele>140.5</ele>
        <time>2021-05-23T08:41:22Z</time>
      </trkpt>
      <trkpt lat="49.45655" lon="1.11553">
        <ele>140.3</ele>
        <time>2021-05-23T08:41:24Z</time>
      </trkpt>
      <trkpt lat="49.4566" lon="1.11546">
        <ele>140.3</ele>
        <time>2021-05-23T08:41:25Z</time>
      </trkpt>
      <trkpt lat="49.45669" lon="1.11533">
        <ele>140.4</ele>
        <time>2021-05-23T08:41:27Z</time>
      </trkpt>
      <trkpt lat="49.45673" lon="1.11526">
        <ele>140.5</ele>
        <time>2021-05-23T08:41:28Z</time>
      </trkpt>
      <trkpt lat="49.45683" lon="1.11513">
        <ele>140.5</ele>
        <time>2021-05-23T08:41:30Z</time>
      </trkpt>
      <trkpt lat="49.45687" lon="1.11507">
        <ele>140.5</ele>
        <time>2021-05-23T08:41:31Z</time>
      </trkpt>
      <trkpt lat="49.45695" lon="1.11494">
        <ele>140.5</ele>
        <time>2021-05-23T08:41:33Z</time>
      </trkpt>
      <trkpt lat="49.45702" lon="1.11481">
        <ele>140.7</ele>
        <time>2021-05-23T08:41:35Z</time>
      </trkpt>
      <trkpt lat="49.45705" lon="1.11472">
        <ele>140.9</ele>
        <time>2021-05-23T08:41:36Z</time>
      </trkpt>
      <trkpt lat="49.4571" lon="1.11455">
        <ele>141.1</ele>
        <time>2021-05-23T08:41:38Z</time>
      </trkpt>
      <trkpt lat="49.45713" lon="1.11436">
        <ele>141.1</ele>
        <time>2021-05-23T08:41:40Z</time>
      </trkpt>
      <trkpt lat="49.45716" lon="1.11426">
        <ele>141.1</ele>
        <time>2021-05-23T08:41:41Z</time>
      </trkpt>
      <trkpt lat="49.4572" lon="1.11417">
        <ele>141.1</ele>
        <time>2021-05-23T08:41:42Z</time>
      </trkpt>
      <trkpt lat="49.45723" lon="1.11409">
        <ele>141.1</ele>
        <time>2021-05-23T08:41:43Z</time>
      </trkpt>
      <trkpt lat="49.45726" lon="1.11402">
        <ele>141.2</ele>
        <time>2021-05-23T08:41:44Z</time>
      </trkpt>
      <trkpt lat="49.45732" lon="1.11388">
        <ele>141.4</ele>
        <time>2021-05-23T08:41:46Z</time>
      </trkpt>
      <trkpt lat="49.45736" lon="1.1138">
        <ele>141.6</ele>
        <time>2021-05-23T08:41:47Z</time>
      </trkpt>
      <trkpt lat="49.45747" lon="1.11363">
        <ele>142</ele>
        <time>2021-05-23T08:41:50Z</time>
      </trkpt>
      <trkpt lat="49.45751" lon="1.11357">
        <ele>142.3</ele>
        <time>2021-05-23T08:41:51Z</time>
      </trkpt>
      <trkpt lat="49.4576" lon="1.11346">
        <ele>142.6</ele>
        <time>2021-05-23T08:41:53Z</time>
      </trkpt>
      <trkpt lat="49.45763" lon="1.11341">
        <ele>143</ele>
        <time>2021-05-23T08:41:54Z</time>
      </trkpt>
      <trkpt lat="49.45766" lon="1.11336">
        <ele>143.5</ele>
        <time>2021-05-23T08:41:55Z</time>
      </trkpt>
      <trkpt lat="49.4577" lon="1.11328">
        <ele>143.9</ele>
        <time>2021-05-23T08:41:57Z</time>
      </trkpt>
      <trkpt lat="49.45774" lon="1.11322">
        <ele>144.3</ele>
        <time>2021-05-23T08:41:58Z</time>
      </trkpt>
      <trkpt lat="49.45781" lon="1.11312">
        <ele>144.6</ele>
        <time>2021-05-23T08:42:00Z</time>
      </trkpt>
      <trkpt lat="49.45788" lon="1.11307">
        <ele>144.9</ele>
        <time>2021-05-23T08:42:01Z</time>
      </trkpt>
      <trkpt lat="49.45793" lon="1.11302">
        <ele>145.3</ele>
        <time>2021-05-23T08:42:02Z</time>
      </trkpt>
      <trkpt lat="49.45797" lon="1.11299">
        <ele>145.6</ele>
        <time>2021-05-23T08:42:03Z</time>
      </trkpt>
      <trkpt lat="49.45801" lon="1.11292">
        <ele>145.9</ele>
        <time>2021-05-23T08:42:05Z</time>
      </trkpt>
      <trkpt lat="49.45806" lon="1.11286">
        <ele>146.3</ele>
        <time>2021-05-23T08:42:06Z</time>
      </trkpt>
      <trkpt lat="49.4581" lon="1.11281">
        <ele>146.5</ele>
        <time>2021-05-23T08:42:08Z</time>
      </trkpt>
      <trkpt lat="49.45816" lon="1.11275">
        <ele>146.8</ele>
        <time>2021-05-23T08:42:10Z</time>
      </trkpt>
      <trkpt lat="49.4582" lon="1.1127">
        <ele>147</ele>
        <time>2021-05-23T08:42:11Z</time>
      </trkpt>
      <trkpt lat="49.45824" lon="1.11266">
        <ele>147.2</ele>
        <time>2021-05-23T08:42:12Z</time>
      </trkpt>
      <trkpt lat="49.45828" lon="1.11265">
        <ele>147.5</ele>
        <time>2021-05-23T08:42:13Z</time>
      </trkpt>
      <trkpt lat="49.45831" lon="1.1127">
        <ele>147.8</ele>
        <time>2021-05-23T08:42:15Z</time>
      </trkpt>
      <trkpt lat="49.4583" lon="1.11274">
        <ele>148.2</ele>
        <time>2021-05-23T08:42:16Z</time>
      </trkpt>
      <trkpt lat="49.45832" lon="1.11278">
        <ele>148.5</ele>
        <time>2021-05-23T08:42:17Z</time>
      </trkpt>
      <trkpt lat="49.45835" lon="1.11284">
        <ele>148.7</ele>
        <time>2021-05-23T08:42:18Z</time>
      </trkpt>
      <trkpt lat="49.4584" lon="1.11292">
        <ele>149</ele>
        <time>2021-05-23T08:42:20Z</time>
      </trkpt>
      <trkpt lat="49.45845" lon="1.11303">
        <ele>149.3</ele>
        <time>2021-05-23T08:42:22Z</time>
      </trkpt>
      <trkpt lat="49.45849" lon="1.1131">
        <ele>149.5</ele>
        <time>2021-05-23T08:42:23Z</time>
      </trkpt>
      <trkpt lat="49.45851" lon="1.11313">
        <ele>149.8</ele>
        <time>2021-05-23T08:42:25Z</time>
      </trkpt>
      <trkpt lat="49.45851" lon="1.11314">
        <ele>150.1</ele>
        <time>2021-05-23T08:42:26Z</time>
      </trkpt>
      <trkpt lat="49.45852" lon="1.11316">
        <ele>150.4</ele>
        <time>2021-05-23T08:42:28Z</time>
      </trkpt>
      <trkpt lat="49.45853" lon="1.11316">
        <ele>150.5</ele>
        <time>2021-05-23T08:42:29Z</time>
      </trkpt>
      <trkpt lat="49.45853" lon="1.11316">
        <ele>150.7</ele>
        <time>2021-05-23T08:42:30Z</time>
      </trkpt>
      <trkpt lat="49.45853" lon="1.11317">
        <ele>151.1</ele>
        <time>2021-05-23T08:42:31Z</time>
      </trkpt>
      <trkpt lat="49.45854" lon="1.1132">
        <ele>151.5</ele>
        <time>2021-05-23T08:42:33Z</time>
      </trkpt>
      <trkpt lat="49.45859" lon="1.11324">
        <ele>151.8</ele>
        <time>2021-05-23T08:42:40Z</time>
      </trkpt>
      <trkpt lat="49.45863" lon="1.11326">
        <ele>152.2</ele>
        <time>2021-05-23T08:42:42Z</time>
      </trkpt>
      <trkpt lat="49.45868" lon="1.11326">
        <ele>152.5</ele>
        <time>2021-05-23T08:42:43Z</time>
      </trkpt>
      <trkpt lat="49.45884" lon="1.11321">
        <ele>152.7</ele>
        <time>2021-05-23T08:42:45Z</time>
      </trkpt>
      <trkpt lat="49.45888" lon="1.11318">
        <ele>153</ele>
        <time>2021-05-23T08:42:46Z</time>
      </trkpt>
      <trkpt lat="49.4589" lon="1.11314">
        <ele>153.3</ele>
        <time>2021-05-23T08:42:47Z</time>
      </trkpt>
      <trkpt lat="49.45911" lon="1.11305">
        <ele>153.5</ele>
        <time>2021-05-23T08:42:49Z</time>
      </trkpt>
      <trkpt lat="49.45917" lon="1.11296">
        <ele>153.8</ele>
        <time>2021-05-23T08:42:51Z</time>
      </trkpt>
      <trkpt lat="49.45922" lon="1.11289">
        <ele>154.1</ele>
        <time>2021-05-23T08:42:52Z</time>
      </trkpt>
      <trkpt lat="49.45926" lon="1.11286">
        <ele>154.3</ele>
        <time>2021-05-23T08:42:53Z</time>
      </trkpt>
      <trkpt lat="49.45933" lon="1.11281">
        <ele>154.5</ele>
        <time>2021-05-23T08:42:54Z</time>
      </trkpt>
      <trkpt lat="49.45942" lon="1.11272">
        <ele>154.6</ele>
        <time>2021-05-23T08:42:56Z</time>
      </trkpt>
      <trkpt lat="49.45946" lon="1.11267">
        <ele>154.8</ele>
        <time>2021-05-23T08:42:57Z</time>
      </trkpt>
      <trkpt lat="49.45955" lon="1.11257">
        <ele>155</ele>
        <time>2021-05-23T08:42:59Z</time>
      </trkpt>
      <trkpt lat="49.45965" lon="1.11247">
        <ele>155.2</ele>
        <time>2021-05-23T08:43:01Z</time>
      </trkpt>
      <trkpt lat="49.45973" lon="1.11238">
        <ele>155.4</ele>
        <time>2021-05-23T08:43:03Z</time>
      </trkpt>
      <trkpt lat="49.45976" lon="1.11233">
        <ele>155.5</ele>
        <time>2021-05-23T08:43:04Z</time>
      </trkpt>
      <trkpt lat="49.4598" lon="1.11228">
        <ele>155.7</ele>
        <time>2021-05-23T08:43:05Z</time>
      </trkpt>
      <trkpt lat="49.45987" lon="1.1122">
        <ele>155.9</ele>
        <time>2021-05-23T08:43:07Z</time>
      </trkpt>
      <trkpt lat="49.45995" lon="1.1121">
        <ele>156</ele>
        <time>2021-05-23T08:43:09Z</time>
      </trkpt>
      <trkpt lat="49.45999" lon="1.11204">
        <ele>156</ele>
        <time>2021-05-23T08:43:10Z</time>
      </trkpt>
      <trkpt lat="49.46006" lon="1.11195">
        <ele>156</ele>
        <time>2021-05-23T08:43:12Z</time>
      </trkpt>
      <trkpt lat="49.4601" lon="1.11189">
        <ele>156</ele>
        <time>2021-05-23T08:43:13Z</time>
      </trkpt>
      <trkpt lat="49.46017" lon="1.11177">
        <ele>156.1</ele>
        <time>2021-05-23T08:43:15Z</time>
      </trkpt>
      <trkpt lat="49.46023" lon="1.11167">
        <ele>156.2</ele>
        <time>2021-05-23T08:43:17Z</time>
      </trkpt>
      <trkpt lat="49.46027" lon="1.11163">
        <ele>156.3</ele>
        <time>2021-05-23T08:43:18Z</time>
      </trkpt>
      <trkpt lat="49.46031" lon="1.11156">
        <ele>156.4</ele>
        <time>2021-05-23T08:43:20Z</time>
      </trkpt>
      <trkpt lat="49.4604" lon="1.11145">
        <ele>156.5</ele>
        <time>2021-05-23T08:43:22Z</time>
      </trkpt>
      <trkpt lat="49.46044" lon="1.11138">
        <ele>156.5</ele>
        <time>2021-05-23T08:43:23Z</time>
      </trkpt>
      <trkpt lat="49.46048" lon="1.11131">
        <ele>156.5</ele>
        <time>2021-05-23T08:43:25Z</time>
      </trkpt>
      <trkpt lat="49.46053" lon="1.11118">
        <ele>156.5</ele>
        <time>2021-05-23T08:43:27Z</time>
      </trkpt>
      <trkpt lat="49.46057" lon="1.11112">
        <ele>156.5</ele>
        <time>2021-05-23T08:43:28Z</time>
      </trkpt>
      <trkpt lat="49.4606" lon="1.11104">
        <ele>156.5</ele>
        <time>2021-05-23T08:43:29Z</time>
      </trkpt>
      <trkpt lat="49.46069" lon="1.11091">
        <ele>156.5</ele>
        <time>2021-05-23T08:43:31Z</time>
      </trkpt>
      <trkpt lat="49.46074" lon="1.11082">
        <ele>156.3</ele>
        <time>2021-05-23T08:43:33Z</time>
      </trkpt>
      <trkpt lat="49.46075" lon="1.11079">
        <ele>156.1</ele>
        <time>2021-05-23T08:43:34Z</time>
      </trkpt>
      <trkpt lat="49.46077" lon="1.11078">
        <ele>155.8</ele>
        <time>2021-05-23T08:43:35Z</time>
      </trkpt>
      <trkpt lat="49.4608" lon="1.11073">
        <ele>155.5</ele>
        <time>2021-05-23T08:43:36Z</time>
      </trkpt>
      <trkpt lat="49.46085" lon="1.11065">
        <ele>155.3</ele>
        <time>2021-05-23T08:43:37Z</time>
      </trkpt>
      <trkpt lat="49.46091" lon="1.11058">
        <ele>155</ele>
        <time>2021-05-23T08:43:39Z</time>
      </trkpt>
      <trkpt lat="49.46097" lon="1.11054">
        <ele>154.8</ele>
        <time>2021-05-23T08:43:41Z</time>
      </trkpt>
      <trkpt lat="49.46101" lon="1.11049">
        <ele>154.6</ele>
        <time>2021-05-23T08:43:42Z</time>
      </trkpt>
      <trkpt lat="49.46103" lon="1.11044">
        <ele>154.5</ele>
        <time>2021-05-23T08:43:43Z</time>
      </trkpt>
      <trkpt lat="49.46106" lon="1.11035">
        <ele>154.3</ele>
        <time>2021-05-23T08:43:44Z</time>
      </trkpt>
      <trkpt lat="49.46112" lon="1.11031">
        <ele>154.2</ele>
        <time>2021-05-23T08:43:46Z</time>
      </trkpt>
      <trkpt lat="49.46121" lon="1.11022">
        <ele>154.1</ele>
        <time>2021-05-23T08:43:48Z</time>
      </trkpt>
      <trkpt lat="49.46129" lon="1.11009">
        <ele>154</ele>
        <time>2021-05-23T08:43:50Z</time>
      </trkpt>
      <trkpt lat="49.46137" lon="1.10995">
        <ele>154</ele>
        <time>2021-05-23T08:43:52Z</time>
      </trkpt>
      <trkpt lat="49.46142" lon="1.1099">
        <ele>154</ele>
        <time>2021-05-23T08:43:53Z</time>
      </trkpt>
      <trkpt lat="49.46146" lon="1.10984">
        <ele>153.9</ele>
        <time>2021-05-23T08:43:54Z</time>
      </trkpt>
      <trkpt lat="49.46154" lon="1.1097">
        <ele>153.8</ele>
        <time>2021-05-23T08:43:56Z</time>
      </trkpt>
      <trkpt lat="49.46162" lon="1.10955">
        <ele>153.7</ele>
        <time>2021-05-23T08:43:58Z</time>
      </trkpt>
      <trkpt lat="49.46171" lon="1.10941">
        <ele>153.6</ele>
        <time>2021-05-23T08:44:00Z</time>
      </trkpt>
      <trkpt lat="49.46174" lon="1.10931">
        <ele>153.5</ele>
        <time>2021-05-23T08:44:01Z</time>
      </trkpt>
      <trkpt lat="49.46182" lon="1.10915">
        <ele>153.3</ele>
        <time>2021-05-23T08:44:03Z</time>
      </trkpt>
      <trkpt lat="49.4619" lon="1.109">
        <ele>153.1</ele>
        <time>2021-05-23T08:44:05Z</time>
      </trkpt>
      <trkpt lat="49.46194" lon="1.10893">
        <ele>152.9</ele>
        <time>2021-05-23T08:44:06Z</time>
      </trkpt>
      <trkpt lat="49.46197" lon="1.10878">
        <ele>152.7</ele>
        <time>2021-05-23T08:44:08Z</time>
      </trkpt>
      <trkpt lat="49.46194" lon="1.1087">
        <ele>152.6</ele>
        <time>2021-05-23T08:44:09Z</time>
      </trkpt>
      <trkpt lat="49.46185" lon="1.10857">
        <ele>152.5</ele>
        <time>2021-05-23T08:44:12Z</time>
      </trkpt>
      <trkpt lat="49.4618" lon="1.10851">
        <ele>152.5</ele>
        <time>2021-05-23T08:44:13Z</time>
      </trkpt>
      <trkpt lat="49.4617" lon="1.10838">
        <ele>152.5</ele>
        <time>2021-05-23T08:44:15Z</time>
      </trkpt>
      <trkpt lat="49.46164" lon="1.10832">
        <ele>152.5</ele>
        <time>2021-05-23T08:44:16Z</time>
      </trkpt>
      <trkpt lat="49.46152" lon="1.10822">
        <ele>152.5</ele>
        <time>2021-05-23T08:44:18Z</time>
      </trkpt>
      <trkpt lat="49.46147" lon="1.10817">
        <ele>152.6</ele>
        <time>2021-05-23T08:44:19Z</time>
      </trkpt>
      <trkpt lat="49.46137" lon="1.10807">
        <ele>152.7</ele>
        <time>2021-05-23T08:44:21Z</time>
      </trkpt>
      <trkpt lat="49.46132" lon="1.10802">
        <ele>152.8</ele>
        <time>2021-05-23T08:44:22Z</time>
      </trkpt>
      <trkpt lat="49.4612" lon="1.10793">
        <ele>152.9</ele>
        <time>2021-05-23T08:44:24Z</time>
      </trkpt>
      <trkpt lat="49.46109" lon="1.10783">
        <ele>152.9</ele>
        <time>2021-05-23T08:44:26Z</time>
      </trkpt>
      <trkpt lat="49.46098" lon="1.10773">
        <ele>152.8</ele>
        <time>2021-05-23T08:44:28Z</time>
      </trkpt>
      <trkpt lat="49.46087" lon="1.10765">
        <ele>152.7</ele>
        <time>2021-05-23T08:44:30Z</time>
      </trkpt>
      <trkpt lat="49.46081" lon="1.10761">
        <ele>152.5</ele>
        <time>2021-05-23T08:44:31Z</time>
      </trkpt>
      <trkpt lat="49.46068" lon="1.10754">
        <ele>152.4</ele>
        <time>2021-05-23T08:44:33Z</time>
      </trkpt>
      <trkpt lat="49.46063" lon="1.1075">
        <ele>152.2</ele>
        <time>2021-05-23T08:44:34Z</time>
      </trkpt>
      <trkpt lat="49.46052" lon="1.10742">
        <ele>152</ele>
        <time>2021-05-23T08:44:36Z</time>
      </trkpt>
      <trkpt lat="49.4604" lon="1.10733">
        <ele>151.7</ele>
        <time>2021-05-23T08:44:38Z</time>
      </trkpt>
      <trkpt lat="49.46029" lon="1.10725">
        <ele>151.5</ele>
        <time>2021-05-23T08:44:40Z</time>
      </trkpt>
      <trkpt lat="49.46024" lon="1.10721">
        <ele>151.2</ele>
        <time>2021-05-23T08:44:41Z</time>
      </trkpt>
      <trkpt lat="49.46019" lon="1.10717">
        <ele>150.9</ele>
        <time>2021-05-23T08:44:42Z</time>
      </trkpt>
      <trkpt lat="49.46011" lon="1.1071">
        <ele>150.7</ele>
        <time>2021-05-23T08:44:44Z</time>
      </trkpt>
      <trkpt lat="49.46004" lon="1.10705">
        <ele>150.5</ele>
        <time>2021-05-23T08:44:46Z</time>
      </trkpt>
      <trkpt lat="49.45993" lon="1.10696">
        <ele>150.2</ele>
        <time>2021-05-23T08:44:48Z</time>
      </trkpt>
      <trkpt lat="49.45983" lon="1.10681">
        <ele>150</ele>
        <time>2021-05-23T08:44:50Z</time>
      </trkpt>
      <trkpt lat="49.45974" lon="1.10667">
        <ele>149.8</ele>
        <time>2021-05-23T08:44:52Z</time>
      </trkpt>
      <trkpt lat="49.45969" lon="1.1066">
        <ele>149.6</ele>
        <time>2021-05-23T08:44:53Z</time>
      </trkpt>
      <trkpt lat="49.45963" lon="1.10651">
        <ele>149.4</ele>
        <time>2021-05-23T08:44:54Z</time>
      </trkpt>
      <trkpt lat="49.45959" lon="1.10643">
        <ele>149.2</ele>
        <time>2021-05-23T08:44:55Z</time>
      </trkpt>
      <trkpt lat="49.45948" lon="1.10626">
        <ele>149</ele>
        <time>2021-05-23T08:44:57Z</time>
      </trkpt>
      <trkpt lat="49.45943" lon="1.10618">
        <ele>148.8</ele>
        <time>2021-05-23T08:44:58Z</time>
      </trkpt>
      <trkpt lat="49.45939" lon="1.1061">
        <ele>148.6</ele>
        <time>2021-05-23T08:45:00Z</time>
      </trkpt>
      <trkpt lat="49.4593" lon="1.10593">
        <ele>148.5</ele>
        <time>2021-05-23T08:45:02Z</time>
      </trkpt>
      <trkpt lat="49.45925" lon="1.10584">
        <ele>148.5</ele>
        <time>2021-05-23T08:45:03Z</time>
      </trkpt>
      <trkpt lat="49.45915" lon="1.10569">
        <ele>148.5</ele>
        <time>2021-05-23T08:45:05Z</time>
      </trkpt>
      <trkpt lat="49.4591" lon="1.1056">
        <ele>148.5</ele>
        <time>2021-05-23T08:45:06Z</time>
      </trkpt>
      <trkpt lat="49.45902" lon="1.10543">
        <ele>148.4</ele>
        <time>2021-05-23T08:45:08Z</time>
      </trkpt>
      <trkpt lat="49.45899" lon="1.10535">
        <ele>148.3</ele>
        <time>2021-05-23T08:45:09Z</time>
      </trkpt>
      <trkpt lat="49.45892" lon="1.10523">
        <ele>148.3</ele>
        <time>2021-05-23T08:45:11Z</time>
      </trkpt>
      <trkpt lat="49.45896" lon="1.1051">
        <ele>148.3</ele>
        <time>2021-05-23T08:45:13Z</time>
      </trkpt>
      <trkpt lat="49.45899" lon="1.10503">
        <ele>148.3</ele>
        <time>2021-05-23T08:45:14Z</time>
      </trkpt>
      <trkpt lat="49.45903" lon="1.10497">
        <ele>148.2</ele>
        <time>2021-05-23T08:45:15Z</time>
      </trkpt>
      <trkpt lat="49.45907" lon="1.10489">
        <ele>148.1</ele>
        <time>2021-05-23T08:45:16Z</time>
      </trkpt>
      <trkpt lat="49.45917" lon="1.10474">
        <ele>147.8</ele>
        <time>2021-05-23T08:45:18Z</time>
      </trkpt>
      <trkpt lat="49.45921" lon="1.10465">
        <ele>147.5</ele>
        <time>2021-05-23T08:45:19Z</time>
      </trkpt>
      <trkpt lat="49.45931" lon="1.1045">
        <ele>147</ele>
        <time>2021-05-23T08:45:21Z</time>
      </trkpt>
      <trkpt lat="49.45935" lon="1.10442">
        <ele>146.5</ele>
        <time>2021-05-23T08:45:22Z</time>
      </trkpt>
      <trkpt lat="49.45938" lon="1.10433">
        <ele>146</ele>
        <time>2021-05-23T08:45:23Z</time>
      </trkpt>
      <trkpt lat="49.45945" lon="1.10418">
        <ele>145.5</ele>
        <time>2021-05-23T08:45:25Z</time>
      </trkpt>
      <trkpt lat="49.45954" lon="1.10405">
        <ele>144.8</ele>
        <time>2021-05-23T08:45:27Z</time>
      </trkpt>
      <trkpt lat="49.45959" lon="1.10399">
        <ele>144</ele>
        <time>2021-05-23T08:45:28Z</time>
      </trkpt>
      <trkpt lat="49.45969" lon="1.10383">
        <ele>143.1</ele>
        <time>2021-05-23T08:45:30Z</time>
      </trkpt>
      <trkpt lat="49.45975" lon="1.10373">
        <ele>142.2</ele>
        <time>2021-05-23T08:45:31Z</time>
      </trkpt>
      <trkpt lat="49.4598" lon="1.10362">
        <ele>140.9</ele>
        <time>2021-05-23T08:45:32Z</time>
      </trkpt>
      <trkpt lat="49.45984" lon="1.1035">
        <ele>139.5</ele>
        <time>2021-05-23T08:45:33Z</time>
      </trkpt>
      <trkpt lat="49.45985" lon="1.10319">
        <ele>137.8</ele>
        <time>2021-05-23T08:45:35Z</time>
      </trkpt>
      <trkpt lat="49.45985" lon="1.10304">
        <ele>135.5</ele>
        <time>2021-05-23T08:45:36Z</time>
      </trkpt>
      <trkpt lat="49.45981" lon="1.10286">
        <ele>133</ele>
        <time>2021-05-23T08:45:37Z</time>
      </trkpt>
      <trkpt lat="49.45957" lon="1.10263">
        <ele>129.9</ele>
        <time>2021-05-23T08:45:39Z</time>
      </trkpt>
      <trkpt lat="49.45942" lon="1.10253">
        <ele>126.8</ele>
        <time>2021-05-23T08:45:40Z</time>
      </trkpt>
      <trkpt lat="49.45927" lon="1.10246">
        <ele>123.5</ele>
        <time>2021-05-23T08:45:41Z</time>
      </trkpt>
      <trkpt lat="49.45898" lon="1.10236">
        <ele>120.5</ele>
        <time>2021-05-23T08:45:43Z</time>
      </trkpt>
      <trkpt lat="49.45884" lon="1.10231">
        <ele>117.5</ele>
        <time>2021-05-23T08:45:44Z</time>
      </trkpt>
      <trkpt lat="49.4586" lon="1.10209">
        <ele>114.8</ele>
        <time>2021-05-23T08:45:46Z</time>
      </trkpt>
      <trkpt lat="49.4585" lon="1.10193">
        <ele>112.5</ele>
        <time>2021-05-23T08:45:48Z</time>
      </trkpt>
      <trkpt lat="49.45828" lon="1.10168">
        <ele>110.2</ele>
        <time>2021-05-23T08:45:50Z</time>
      </trkpt>
      <trkpt lat="49.45821" lon="1.10154">
        <ele>108.3</ele>
        <time>2021-05-23T08:45:51Z</time>
      </trkpt>
      <trkpt lat="49.45808" lon="1.10126">
        <ele>106.9</ele>
        <time>2021-05-23T08:45:53Z</time>
      </trkpt>
      <trkpt lat="49.45796" lon="1.10102">
        <ele>105.9</ele>
        <time>2021-05-23T08:45:55Z</time>
      </trkpt>
      <trkpt lat="49.45789" lon="1.10091">
        <ele>105.4</ele>
        <time>2021-05-23T08:45:56Z</time>
      </trkpt>
      <trkpt lat="49.45777" lon="1.10067">
        <ele>104.8</ele>
        <time>2021-05-23T08:45:58Z</time>
      </trkpt>
      <trkpt lat="49.45774" lon="1.10054">
        <ele>104.5</ele>
        <time>2021-05-23T08:45:59Z</time>
      </trkpt>
      <trkpt lat="49.45767" lon="1.10028">
        <ele>104.1</ele>
        <time>2021-05-23T08:46:01Z</time>
      </trkpt>
      <trkpt lat="49.45763" lon="1.10016">
        <ele>103.5</ele>
        <time>2021-05-23T08:46:02Z</time>
      </trkpt>
      <trkpt lat="49.45759" lon="1.10005">
        <ele>102.6</ele>
        <time>2021-05-23T08:46:03Z</time>
      </trkpt>
      <trkpt lat="49.45752" lon="1.09984">
        <ele>101.7</ele>
        <time>2021-05-23T08:46:05Z</time>
      </trkpt>
      <trkpt lat="49.45749" lon="1.09972">
        <ele>100.9</ele>
        <time>2021-05-23T08:46:06Z</time>
      </trkpt>
      <trkpt lat="49.45743" lon="1.09949">
        <ele>100.1</ele>
        <time>2021-05-23T08:46:08Z</time>
      </trkpt>
      <trkpt lat="49.4574" lon="1.09938">
        <ele>99.4</ele>
        <time>2021-05-23T08:46:09Z</time>
      </trkpt>
      <trkpt lat="49.45738" lon="1.09913">
        <ele>98.5</ele>
        <time>2021-05-23T08:46:11Z</time>
      </trkpt>
      <trkpt lat="49.45736" lon="1.09888">
        <ele>97.7</ele>
        <time>2021-05-23T08:46:13Z</time>
      </trkpt>
      <trkpt lat="49.45737" lon="1.09873">
        <ele>96.9</ele>
        <time>2021-05-23T08:46:14Z</time>
      </trkpt>
      <trkpt lat="49.45738" lon="1.09859">
        <ele>96.1</ele>
        <time>2021-05-23T08:46:15Z</time>
      </trkpt>
      <trkpt lat="49.45743" lon="1.09833">
        <ele>95.5</ele>
        <time>2021-05-23T08:46:17Z</time>
      </trkpt>
      <trkpt lat="49.45744" lon="1.09819">
        <ele>95.1</ele>
        <time>2021-05-23T08:46:18Z</time>
      </trkpt>
      <trkpt lat="49.45749" lon="1.09789">
        <ele>94.7</ele>
        <time>2021-05-23T08:46:20Z</time>
      </trkpt>
      <trkpt lat="49.45754" lon="1.09769">
        <ele>94.5</ele>
        <time>2021-05-23T08:46:22Z</time>
      </trkpt>
      <trkpt lat="49.45754" lon="1.0977">
        <ele>94.3</ele>
        <time>2021-05-23T08:46:23Z</time>
      </trkpt>
      <trkpt lat="49.45755" lon="1.0977">
        <ele>94.1</ele>
        <time>2021-05-23T08:46:25Z</time>
      </trkpt>
      <trkpt lat="49.45755" lon="1.0977">
        <ele>93.9</ele>
        <time>2021-05-23T08:46:26Z</time>
      </trkpt>
      <trkpt lat="49.45755" lon="1.0977">
        <ele>93.8</ele>
        <time>2021-05-23T08:46:27Z</time>
      </trkpt>
      <trkpt lat="49.45755" lon="1.09771">
        <ele>93.7</ele>
        <time>2021-05-23T08:46:29Z</time>
      </trkpt>
      <trkpt lat="49.45755" lon="1.09771">
        <ele>93.7</ele>
        <time>2021-05-23T08:46:30Z</time>
      </trkpt>
      <trkpt lat="49.45755" lon="1.09771">
        <ele>93.7</ele>
        <time>2021-05-23T08:46:32Z</time>
      </trkpt>
      <trkpt lat="49.45755" lon="1.0977">
        <ele>93.7</ele>
        <time>2021-05-23T08:46:34Z</time>
      </trkpt>
      <trkpt lat="49.45754" lon="1.0977">
        <ele>93.6</ele>
        <time>2021-05-23T08:46:35Z</time>
      </trkpt>
      <trkpt lat="49.45755" lon="1.09765">
        <ele>93.5</ele>
        <time>2021-05-23T08:46:36Z</time>
      </trkpt>
      <trkpt lat="49.45757" lon="1.0976">
        <ele>93.3</ele>
        <time>2021-05-23T08:46:37Z</time>
      </trkpt>
      <trkpt lat="49.45759" lon="1.09757">
        <ele>93</ele>
        <time>2021-05-23T08:46:38Z</time>
      </trkpt>
      <trkpt lat="49.45823" lon="1.09674">
        <ele>92.7</ele>
        <time>2021-05-23T08:47:07Z</time>
      </trkpt>
      <trkpt lat="49.45837" lon="1.09659">
        <ele>92.4</ele>
        <time>2021-05-23T08:47:12Z</time>
      </trkpt>
      <trkpt lat="49.4585" lon="1.09644">
        <ele>92</ele>
        <time>2021-05-23T08:47:18Z</time>
      </trkpt>
      <trkpt lat="49.45877" lon="1.09618">
        <ele>91.7</ele>
        <time>2021-05-23T08:47:29Z</time>
      </trkpt>
      <trkpt lat="49.45878" lon="1.09615">
        <ele>91.5</ele>
        <time>2021-05-23T08:47:30Z</time>
      </trkpt>
      <trkpt lat="49.45877" lon="1.09615">
        <ele>91.5</ele>
        <time>2021-05-23T08:47:30Z</time>
      </trkpt>
      <trkpt lat="49.45886" lon="1.09603">
        <ele>91.4</ele>
        <time>2021-05-23T08:47:32Z</time>
      </trkpt>
      <trkpt lat="49.45891" lon="1.096">
        <ele>91.5</ele>
        <time>2021-05-23T08:47:33Z</time>
      </trkpt>
      <trkpt lat="49.45895" lon="1.09598">
        <ele>91.6</ele>
        <time>2021-05-23T08:47:34Z</time>
      </trkpt>
      <trkpt lat="49.45898" lon="1.09599">
        <ele>91.8</ele>
        <time>2021-05-23T08:47:35Z</time>
      </trkpt>
      <trkpt lat="49.45905" lon="1.09599">
        <ele>92.2</ele>
        <time>2021-05-23T08:47:37Z</time>
      </trkpt>
      <trkpt lat="49.4591" lon="1.096">
        <ele>92.5</ele>
        <time>2021-05-23T08:47:39Z</time>
      </trkpt>
      <trkpt lat="49.45914" lon="1.09603">
        <ele>93.1</ele>
        <time>2021-05-23T08:47:40Z</time>
      </trkpt>
      <trkpt lat="49.45916" lon="1.09603">
        <ele>93.6</ele>
        <time>2021-05-23T08:47:41Z</time>
      </trkpt>
      <trkpt lat="49.45919" lon="1.09603">
        <ele>94.2</ele>
        <time>2021-05-23T08:47:42Z</time>
      </trkpt>
      <trkpt lat="49.45922" lon="1.09604">
        <ele>94.6</ele>
        <time>2021-05-23T08:47:44Z</time>
      </trkpt>
      <trkpt lat="49.45925" lon="1.09605">
        <ele>95</ele>
        <time>2021-05-23T08:47:45Z</time>
      </trkpt>
      <trkpt lat="49.45929" lon="1.09606">
        <ele>95.3</ele>
        <time>2021-05-23T08:47:47Z</time>
      </trkpt>
      <trkpt lat="49.45931" lon="1.09607">
        <ele>95.5</ele>
        <time>2021-05-23T08:47:48Z</time>
      </trkpt>
      <trkpt lat="49.45932" lon="1.09606">
        <ele>95.6</ele>
        <time>2021-05-23T08:47:49Z</time>
      </trkpt>
      <trkpt lat="49.45933" lon="1.09605">
        <ele>95.8</ele>
        <time>2021-05-23T08:47:50Z</time>
      </trkpt>
      <trkpt lat="49.45934" lon="1.09605">
        <ele>95.8</ele>
        <time>2021-05-23T08:47:52Z</time>
      </trkpt>
      <trkpt lat="49.45935" lon="1.09604">
        <ele>95.8</ele>
        <time>2021-05-23T08:47:53Z</time>
      </trkpt>
      <trkpt lat="49.45935" lon="1.09603">
        <ele>95.8</ele>
        <time>2021-05-23T08:47:54Z</time>
      </trkpt>
      <trkpt lat="49.45934" lon="1.09604">
        <ele>95.8</ele>
        <time>2021-05-23T08:47:55Z</time>
      </trkpt>
      <trkpt lat="49.45934" lon="1.09604">
        <ele>95.9</ele>
        <time>2021-05-23T08:47:57Z</time>
      </trkpt>
      <trkpt lat="49.45935" lon="1.09603">
        <ele>96.1</ele>
        <time>2021-05-23T08:47:59Z</time>
      </trkpt>
      <trkpt lat="49.4594" lon="1.09601">
        <ele>96.3</ele>
        <time>2021-05-23T08:48:01Z</time>
      </trkpt>
      <trkpt lat="49.45945" lon="1.09602">
        <ele>96.5</ele>
        <time>2021-05-23T08:48:02Z</time>
      </trkpt>
      <trkpt lat="49.45971" lon="1.09608">
        <ele>96.7</ele>
        <time>2021-05-23T08:48:03Z</time>
      </trkpt>
      <trkpt lat="49.45976" lon="1.0961">
        <ele>97</ele>
        <time>2021-05-23T08:48:04Z</time>
      </trkpt>
      <trkpt lat="49.45978" lon="1.09615">
        <ele>97.4</ele>
        <time>2021-05-23T08:48:05Z</time>
      </trkpt>
      <trkpt lat="49.45995" lon="1.09619">
        <ele>97.8</ele>
        <time>2021-05-23T08:48:07Z</time>
      </trkpt>
      <trkpt lat="49.46004" lon="1.09625">
        <ele>98.3</ele>
        <time>2021-05-23T08:48:09Z</time>
      </trkpt>
      <trkpt lat="49.46004" lon="1.0963">
        <ele>98.6</ele>
        <time>2021-05-23T08:48:10Z</time>
      </trkpt>
      <trkpt lat="49.4601" lon="1.09632">
        <ele>99</ele>
        <time>2021-05-23T08:48:11Z</time>
      </trkpt>
      <trkpt lat="49.46016" lon="1.09635">
        <ele>99.3</ele>
        <time>2021-05-23T08:48:12Z</time>
      </trkpt>
      <trkpt lat="49.46022" lon="1.09638">
        <ele>99.5</ele>
        <time>2021-05-23T08:48:14Z</time>
      </trkpt>
      <trkpt lat="49.46028" lon="1.09643">
        <ele>99.5</ele>
        <time>2021-05-23T08:48:16Z</time>
      </trkpt>
      <trkpt lat="49.46028" lon="1.09643">
        <ele>99.6</ele>
        <time>2021-05-23T08:48:17Z</time>
      </trkpt>
      <trkpt lat="49.46027" lon="1.09642">
        <ele>99.5</ele>
        <time>2021-05-23T08:48:18Z</time>
      </trkpt>
      <trkpt lat="49.46025" lon="1.09641">
        <ele>99.3</ele>
        <time>2021-05-23T08:48:19Z</time>
      </trkpt>
      <trkpt lat="49.46023" lon="1.0964">
        <ele>99</ele>
        <time>2021-05-23T08:48:20Z</time>
      </trkpt>
      <trkpt lat="49.46016" lon="1.09631">
        <ele>98.6</ele>
        <time>2021-05-23T08:48:22Z</time>
      </trkpt>
      <trkpt lat="49.4601" lon="1.09629">
        <ele>98.3</ele>
        <time>2021-05-23T08:48:23Z</time>
      </trkpt>
      <trkpt lat="49.45996" lon="1.09618">
        <ele>97.9</ele>
        <time>2021-05-23T08:48:25Z</time>
      </trkpt>
      <trkpt lat="49.45992" lon="1.09616">
        <ele>97.6</ele>
        <time>2021-05-23T08:48:26Z</time>
      </trkpt>
      <trkpt lat="49.45987" lon="1.09613">
        <ele>97.5</ele>
        <time>2021-05-23T08:48:27Z</time>
      </trkpt>
      <trkpt lat="49.45978" lon="1.09609">
        <ele>97.5</ele>
        <time>2021-05-23T08:48:29Z</time>
      </trkpt>
      <trkpt lat="49.45968" lon="1.09605">
        <ele>97.6</ele>
        <time>2021-05-23T08:48:31Z</time>
      </trkpt>
      <trkpt lat="49.45958" lon="1.09603">
        <ele>97.9</ele>
        <time>2021-05-23T08:48:33Z</time>
      </trkpt>
      <trkpt lat="49.45954" lon="1.09606">
        <ele>98.4</ele>
        <time>2021-05-23T08:48:34Z</time>
      </trkpt>
      <trkpt lat="49.45955" lon="1.09614">
        <ele>98.9</ele>
        <time>2021-05-23T08:48:36Z</time>
      </trkpt>
      <trkpt lat="49.45955" lon="1.09619">
        <ele>99.5</ele>
        <time>2021-05-23T08:48:37Z</time>
      </trkpt>
      <trkpt lat="49.45957" lon="1.09625">
        <ele>100</ele>
        <time>2021-05-23T08:48:39Z</time>
      </trkpt>
      <trkpt lat="49.45958" lon="1.09628">
        <ele>100.5</ele>
        <time>2021-05-23T08:48:40Z</time>
      </trkpt>
      <trkpt lat="49.45958" lon="1.09631">
        <ele>101.1</ele>
        <time>2021-05-23T08:48:42Z</time>
      </trkpt>
      <trkpt lat="49.4596" lon="1.09633">
        <ele>101.5</ele>
        <time>2021-05-23T08:48:44Z</time>
      </trkpt>
      <trkpt lat="49.4596" lon="1.09633">
        <ele>101.9</ele>
        <time>2021-05-23T08:48:45Z</time>
      </trkpt>
      <trkpt lat="49.45961" lon="1.09633">
        <ele>102.2</ele>
        <time>2021-05-23T08:48:48Z</time>
      </trkpt>
      <trkpt lat="49.45961" lon="1.09633">
        <ele>102.4</ele>
        <time>2021-05-23T08:48:49Z</time>
      </trkpt>
      <trkpt lat="49.45962" lon="1.09633">
        <ele>102.5</ele>
        <time>2021-05-23T08:48:51Z</time>
      </trkpt>
      <trkpt lat="49.45962" lon="1.09633">
        <ele>102.5</ele>
        <time>2021-05-23T08:48:52Z</time>
      </trkpt>
      <trkpt lat="49.45963" lon="1.09633">
        <ele>102.5</ele>
        <time>2021-05-23T08:48:53Z</time>
      </trkpt>
      <trkpt lat="49.45967" lon="1.09636">
        <ele>102.5</ele>
        <time>2021-05-23T08:48:54Z</time>
      </trkpt>
      <trkpt lat="49.45971" lon="1.09638">
        <ele>102.6</ele>
        <time>2021-05-23T08:48:56Z</time>
      </trkpt>
      <trkpt lat="49.45976" lon="1.09641">
        <ele>102.8</ele>
        <time>2021-05-23T08:48:57Z</time>
      </trkpt>
      <trkpt lat="49.45979" lon="1.09642">
        <ele>103</ele>
        <time>2021-05-23T08:48:58Z</time>
      </trkpt>
      <trkpt lat="49.45985" lon="1.09644">
        <ele>103.2</ele>
        <time>2021-05-23T08:48:59Z</time>
      </trkpt>
      <trkpt lat="49.45989" lon="1.09646">
        <ele>103.4</ele>
        <time>2021-05-23T08:49:00Z</time>
      </trkpt>
      <trkpt lat="49.45993" lon="1.09649">
        <ele>103.5</ele>
        <time>2021-05-23T08:49:01Z</time>
      </trkpt>
      <trkpt lat="49.45998" lon="1.09652">
        <ele>103.5</ele>
        <time>2021-05-23T08:49:03Z</time>
      </trkpt>
      <trkpt lat="49.46005" lon="1.09656">
        <ele>103.7</ele>
        <time>2021-05-23T08:49:04Z</time>
      </trkpt>
      <trkpt lat="49.46009" lon="1.09659">
        <ele>103.9</ele>
        <time>2021-05-23T08:49:06Z</time>
      </trkpt>
      <trkpt lat="49.46012" lon="1.09661">
        <ele>104.1</ele>
        <time>2021-05-23T08:49:07Z</time>
      </trkpt>
      <trkpt lat="49.46016" lon="1.09665">
        <ele>104.3</ele>
        <time>2021-05-23T08:49:08Z</time>
      </trkpt>
      <trkpt lat="49.46019" lon="1.09669">
        <ele>104.5</ele>
        <time>2021-05-23T08:49:09Z</time>
      </trkpt>
      <trkpt lat="49.46022" lon="1.09673">
        <ele>104.7</ele>
        <time>2021-05-23T08:49:11Z</time>
      </trkpt>
      <trkpt lat="49.46027" lon="1.09678">
        <ele>105</ele>
        <time>2021-05-23T08:49:12Z</time>
      </trkpt>
      <trkpt lat="49.46031" lon="1.09683">
        <ele>105.3</ele>
        <time>2021-05-23T08:49:14Z</time>
      </trkpt>
      <trkpt lat="49.46033" lon="1.09686">
        <ele>105.6</ele>
        <time>2021-05-23T08:49:15Z</time>
      </trkpt>
      <trkpt lat="49.46037" lon="1.09691">
        <ele>106</ele>
        <time>2021-05-23T08:49:16Z</time>
      </trkpt>
      <trkpt lat="49.46041" lon="1.09695">
        <ele>106.5</ele>
        <time>2021-05-23T08:49:18Z</time>
      </trkpt>
      <trkpt lat="49.46044" lon="1.097">
        <ele>106.9</ele>
        <time>2021-05-23T08:49:19Z</time>
      </trkpt>
      <trkpt lat="49.46048" lon="1.09705">
        <ele>107.5</ele>
        <time>2021-05-23T08:49:20Z</time>
      </trkpt>
      <trkpt lat="49.46051" lon="1.09709">
        <ele>108.1</ele>
        <time>2021-05-23T08:49:22Z</time>
      </trkpt>
      <trkpt lat="49.46053" lon="1.09712">
        <ele>108.9</ele>
        <time>2021-05-23T08:49:23Z</time>
      </trkpt>
      <trkpt lat="49.46058" lon="1.0972">
        <ele>109.6</ele>
        <time>2021-05-23T08:49:25Z</time>
      </trkpt>
      <trkpt lat="49.46062" lon="1.09726">
        <ele>110.5</ele>
        <time>2021-05-23T08:49:26Z</time>
      </trkpt>
      <trkpt lat="49.46065" lon="1.09731">
        <ele>111.2</ele>
        <time>2021-05-23T08:49:27Z</time>
      </trkpt>
      <trkpt lat="49.46071" lon="1.09738">
        <ele>112</ele>
        <time>2021-05-23T08:49:28Z</time>
      </trkpt>
      <trkpt lat="49.46076" lon="1.09745">
        <ele>112.7</ele>
        <time>2021-05-23T08:49:30Z</time>
      </trkpt>
      <trkpt lat="49.4608" lon="1.0975">
        <ele>113.5</ele>
        <time>2021-05-23T08:49:31Z</time>
      </trkpt>
      <trkpt lat="49.46084" lon="1.09755">
        <ele>114.1</ele>
        <time>2021-05-23T08:49:32Z</time>
      </trkpt>
      <trkpt lat="49.4609" lon="1.09762">
        <ele>114.5</ele>
        <time>2021-05-23T08:49:35Z</time>
      </trkpt>
      <trkpt lat="49.46094" lon="1.09771">
        <ele>114.9</ele>
        <time>2021-05-23T08:49:37Z</time>
      </trkpt>
      <trkpt lat="49.46099" lon="1.09777">
        <ele>115.2</ele>
        <time>2021-05-23T08:49:38Z</time>
      </trkpt>
      <trkpt lat="49.46101" lon="1.0978">
        <ele>115.4</ele>
        <time>2021-05-23T08:49:39Z</time>
      </trkpt>
      <trkpt lat="49.46105" lon="1.09784">
        <ele>115.5</ele>
        <time>2021-05-23T08:49:41Z</time>
      </trkpt>
      <trkpt lat="49.46109" lon="1.09789">
        <ele>115.6</ele>
        <time>2021-05-23T08:49:42Z</time>
      </trkpt>
      <trkpt lat="49.46112" lon="1.09793">
        <ele>115.7</ele>
        <time>2021-05-23T08:49:44Z</time>
      </trkpt>
      <trkpt lat="49.46116" lon="1.09798">
        <ele>115.7</ele>
        <time>2021-05-23T08:49:45Z</time>
      </trkpt>
      <trkpt lat="49.46119" lon="1.09803">
        <ele>115.8</ele>
        <time>2021-05-23T08:49:46Z</time>
      </trkpt>
      <trkpt lat="49.46123" lon="1.09808">
        <ele>115.9</ele>
        <time>2021-05-23T08:49:48Z</time>
      </trkpt>
      <trkpt lat="49.46123" lon="1.09808">
        <ele>116</ele>
        <time>2021-05-23T08:49:49Z</time>
      </trkpt>
      <trkpt lat="49.46125" lon="1.09808">
        <ele>116.2</ele>
        <time>2021-05-23T08:49:50Z</time>
      </trkpt>
      <trkpt lat="49.46126" lon="1.09809">
        <ele>116.3</ele>
        <time>2021-05-23T08:49:51Z</time>
      </trkpt>
      <trkpt lat="49.46129" lon="1.09815">
        <ele>116.4</ele>
        <time>2021-05-23T08:49:52Z</time>
      </trkpt>
      <trkpt lat="49.46133" lon="1.09819">
        <ele>116.4</ele>
        <time>2021-05-23T08:49:54Z</time>
      </trkpt>
      <trkpt lat="49.46137" lon="1.09825">
        <ele>116.3</ele>
        <time>2021-05-23T08:49:55Z</time>
      </trkpt>
      <trkpt lat="49.46141" lon="1.09828">
        <ele>115.9</ele>
        <time>2021-05-23T08:49:57Z</time>
      </trkpt>
      <trkpt lat="49.46144" lon="1.09831">
        <ele>115.5</ele>
        <time>2021-05-23T08:49:58Z</time>
      </trkpt>
      <trkpt lat="49.46148" lon="1.09835">
        <ele>115.1</ele>
        <time>2021-05-23T08:49:59Z</time>
      </trkpt>
      <trkpt lat="49.46151" lon="1.0984">
        <ele>114.5</ele>
        <time>2021-05-23T08:50:01Z</time>
      </trkpt>
      <trkpt lat="49.46155" lon="1.09844">
        <ele>113.8</ele>
        <time>2021-05-23T08:50:03Z</time>
      </trkpt>
      <trkpt lat="49.4617" lon="1.09866">
        <ele>113.1</ele>
        <time>2021-05-23T08:50:05Z</time>
      </trkpt>
      <trkpt lat="49.46176" lon="1.09873">
        <ele>112.3</ele>
        <time>2021-05-23T08:50:06Z</time>
      </trkpt>
      <trkpt lat="49.46189" lon="1.09885">
        <ele>111.5</ele>
        <time>2021-05-23T08:50:08Z</time>
      </trkpt>
      <trkpt lat="49.46202" lon="1.099">
        <ele>110.6</ele>
        <time>2021-05-23T08:50:10Z</time>
      </trkpt>
      <trkpt lat="49.4621" lon="1.09905">
        <ele>109.8</ele>
        <time>2021-05-23T08:50:11Z</time>
      </trkpt>
      <trkpt lat="49.46218" lon="1.09912">
        <ele>109.1</ele>
        <time>2021-05-23T08:50:12Z</time>
      </trkpt>
      <trkpt lat="49.46234" lon="1.09926">
        <ele>108.6</ele>
        <time>2021-05-23T08:50:14Z</time>
      </trkpt>
      <trkpt lat="49.46243" lon="1.09933">
        <ele>108.2</ele>
        <time>2021-05-23T08:50:15Z</time>
      </trkpt>
      <trkpt lat="49.46252" lon="1.0994">
        <ele>107.7</ele>
        <time>2021-05-23T08:50:16Z</time>
      </trkpt>
      <trkpt lat="49.46261" lon="1.09948">
        <ele>107.3</ele>
        <time>2021-05-23T08:50:17Z</time>
      </trkpt>
      <trkpt lat="49.4628" lon="1.09964">
        <ele>106.8</ele>
        <time>2021-05-23T08:50:19Z</time>
      </trkpt>
      <trkpt lat="49.4629" lon="1.09974">
        <ele>106.4</ele>
        <time>2021-05-23T08:50:20Z</time>
      </trkpt>
      <trkpt lat="49.46299" lon="1.09984">
        <ele>105.8</ele>
        <time>2021-05-23T08:50:21Z</time>
      </trkpt>
      <trkpt lat="49.46319" lon="1.10004">
        <ele>105.3</ele>
        <time>2021-05-23T08:50:24Z</time>
      </trkpt>
      <trkpt lat="49.46338" lon="1.10024">
        <ele>104.5</ele>
        <time>2021-05-23T08:50:26Z</time>
      </trkpt>
      <trkpt lat="49.46356" lon="1.10045">
        <ele>103.7</ele>
        <time>2021-05-23T08:50:28Z</time>
      </trkpt>
      <trkpt lat="49.46366" lon="1.10052">
        <ele>102.9</ele>
        <time>2021-05-23T08:50:29Z</time>
      </trkpt>
      <trkpt lat="49.46385" lon="1.10066">
        <ele>102.1</ele>
        <time>2021-05-23T08:50:31Z</time>
      </trkpt>
      <trkpt lat="49.46394" lon="1.10073">
        <ele>101.3</ele>
        <time>2021-05-23T08:50:32Z</time>
      </trkpt>
      <trkpt lat="49.46404" lon="1.10076">
        <ele>100.5</ele>
        <time>2021-05-23T08:50:33Z</time>
      </trkpt>
      <trkpt lat="49.46426" lon="1.10083">
        <ele>99.7</ele>
        <time>2021-05-23T08:50:35Z</time>
      </trkpt>
      <trkpt lat="49.46449" lon="1.10091">
        <ele>99.1</ele>
        <time>2021-05-23T08:50:37Z</time>
      </trkpt>
      <trkpt lat="49.46461" lon="1.10093">
        <ele>98.6</ele>
        <time>2021-05-23T08:50:38Z</time>
      </trkpt>
      <trkpt lat="49.46472" lon="1.10095">
        <ele>98.4</ele>
        <time>2021-05-23T08:50:39Z</time>
      </trkpt>
      <trkpt lat="49.46495" lon="1.101">
        <ele>98.1</ele>
        <time>2021-05-23T08:50:41Z</time>
      </trkpt>
      <trkpt lat="49.46519" lon="1.10106">
        <ele>98.1</ele>
        <time>2021-05-23T08:50:43Z</time>
      </trkpt>
      <trkpt lat="49.46532" lon="1.10111">
        <ele>98.1</ele>
        <time>2021-05-23T08:50:44Z</time>
      </trkpt>
      <trkpt lat="49.46553" lon="1.10123">
        <ele>98.2</ele>
        <time>2021-05-23T08:50:46Z</time>
      </trkpt>
      <trkpt lat="49.4657" lon="1.10135">
        <ele>98.5</ele>
        <time>2021-05-23T08:50:48Z</time>
      </trkpt>
      <trkpt lat="49.46585" lon="1.10149">
        <ele>98.7</ele>
        <time>2021-05-23T08:50:50Z</time>
      </trkpt>
      <trkpt lat="49.466" lon="1.10161">
        <ele>99.2</ele>
        <time>2021-05-23T08:50:52Z</time>
      </trkpt>
      <trkpt lat="49.46611" lon="1.10175">
        <ele>99.7</ele>
        <time>2021-05-23T08:50:54Z</time>
      </trkpt>
      <trkpt lat="49.46623" lon="1.10188">
        <ele>100.3</ele>
        <time>2021-05-23T08:50:56Z</time>
      </trkpt>
      <trkpt lat="49.46634" lon="1.10202">
        <ele>100.7</ele>
        <time>2021-05-23T08:50:58Z</time>
      </trkpt>
      <trkpt lat="49.46639" lon="1.10208">
        <ele>101.2</ele>
        <time>2021-05-23T08:50:59Z</time>
      </trkpt>
      <trkpt lat="49.46647" lon="1.10223">
        <ele>101.7</ele>
        <time>2021-05-23T08:51:01Z</time>
      </trkpt>
      <trkpt lat="49.46655" lon="1.10235">
        <ele>102.2</ele>
        <time>2021-05-23T08:51:03Z</time>
      </trkpt>
      <trkpt lat="49.4666" lon="1.10242">
        <ele>102.8</ele>
        <time>2021-05-23T08:51:04Z</time>
      </trkpt>
      <trkpt lat="49.46667" lon="1.10253">
        <ele>103.4</ele>
        <time>2021-05-23T08:51:06Z</time>
      </trkpt>
      <trkpt lat="49.46669" lon="1.1026">
        <ele>103.7</ele>
        <time>2021-05-23T08:51:07Z</time>
      </trkpt>
      <trkpt lat="49.46674" lon="1.1027">
        <ele>104.2</ele>
        <time>2021-05-23T08:51:09Z</time>
      </trkpt>
      <trkpt lat="49.46676" lon="1.10275">
        <ele>104.5</ele>
        <time>2021-05-23T08:51:11Z</time>
      </trkpt>
      <trkpt lat="49.46678" lon="1.10286">
        <ele>104.8</ele>
        <time>2021-05-23T08:51:13Z</time>
      </trkpt>
      <trkpt lat="49.46681" lon="1.10295">
        <ele>105.1</ele>
        <time>2021-05-23T08:51:14Z</time>
      </trkpt>
      <trkpt lat="49.46686" lon="1.10302">
        <ele>105.5</ele>
        <time>2021-05-23T08:51:16Z</time>
      </trkpt>
      <trkpt lat="49.46688" lon="1.1031">
        <ele>105.8</ele>
        <time>2021-05-23T08:51:17Z</time>
      </trkpt>
      <trkpt lat="49.4669" lon="1.10317">
        <ele>106.3</ele>
        <time>2021-05-23T08:51:18Z</time>
      </trkpt>
      <trkpt lat="49.46692" lon="1.10324">
        <ele>106.8</ele>
        <time>2021-05-23T08:51:19Z</time>
      </trkpt>
      <trkpt lat="49.46693" lon="1.10331">
        <ele>107.4</ele>
        <time>2021-05-23T08:51:20Z</time>
      </trkpt>
      <trkpt lat="49.46694" lon="1.10343">
        <ele>107.9</ele>
        <time>2021-05-23T08:51:22Z</time>
      </trkpt>
      <trkpt lat="49.46697" lon="1.10346">
        <ele>108.5</ele>
        <time>2021-05-23T08:51:23Z</time>
      </trkpt>
      <trkpt lat="49.467" lon="1.10356">
        <ele>109.2</ele>
        <time>2021-05-23T08:51:24Z</time>
      </trkpt>
      <trkpt lat="49.46705" lon="1.10367">
        <ele>109.8</ele>
        <time>2021-05-23T08:51:26Z</time>
      </trkpt>
      <trkpt lat="49.46708" lon="1.10372">
        <ele>110.5</ele>
        <time>2021-05-23T08:51:27Z</time>
      </trkpt>
      <trkpt lat="49.46713" lon="1.10377">
        <ele>111</ele>
        <time>2021-05-23T08:51:28Z</time>
      </trkpt>
      <trkpt lat="49.46717" lon="1.10382">
        <ele>111.5</ele>
        <time>2021-05-23T08:51:29Z</time>
      </trkpt>
      <trkpt lat="49.46719" lon="1.10389">
        <ele>111.9</ele>
        <time>2021-05-23T08:51:31Z</time>
      </trkpt>
      <trkpt lat="49.46722" lon="1.10395">
        <ele>112.2</ele>
        <time>2021-05-23T08:51:32Z</time>
      </trkpt>
      <trkpt lat="49.46725" lon="1.10399">
        <ele>112.4</ele>
        <time>2021-05-23T08:51:33Z</time>
      </trkpt>
      <trkpt lat="49.46727" lon="1.10404">
        <ele>112.4</ele>
        <time>2021-05-23T08:51:35Z</time>
      </trkpt>
      <trkpt lat="49.46731" lon="1.10412">
        <ele>112.4</ele>
        <time>2021-05-23T08:51:36Z</time>
      </trkpt>
      <trkpt lat="49.46737" lon="1.10419">
        <ele>112.3</ele>
        <time>2021-05-23T08:51:38Z</time>
      </trkpt>
      <trkpt lat="49.46741" lon="1.10428">
        <ele>112.1</ele>
        <time>2021-05-23T08:51:39Z</time>
      </trkpt>
      <trkpt lat="49.46746" lon="1.10435">
        <ele>111.9</ele>
        <time>2021-05-23T08:51:40Z</time>
      </trkpt>
      <trkpt lat="49.46749" lon="1.1044">
        <ele>111.7</ele>
        <time>2021-05-23T08:51:41Z</time>
      </trkpt>
      <trkpt lat="49.46754" lon="1.10446">
        <ele>111.5</ele>
        <time>2021-05-23T08:51:43Z</time>
      </trkpt>
      <trkpt lat="49.46756" lon="1.10449">
        <ele>111.2</ele>
        <time>2021-05-23T08:51:44Z</time>
      </trkpt>
      <trkpt lat="49.46758" lon="1.10453">
        <ele>110.9</ele>
        <time>2021-05-23T08:51:45Z</time>
      </trkpt>
      <trkpt lat="49.46762" lon="1.10461">
        <ele>110.7</ele>
        <time>2021-05-23T08:51:47Z</time>
      </trkpt>
      <trkpt lat="49.46764" lon="1.10465">
        <ele>110.5</ele>
        <time>2021-05-23T08:51:48Z</time>
      </trkpt>
      <trkpt lat="49.46767" lon="1.10469">
        <ele>110.3</ele>
        <time>2021-05-23T08:51:50Z</time>
      </trkpt>
      <trkpt lat="49.46769" lon="1.10474">
        <ele>110.2</ele>
        <time>2021-05-23T08:51:51Z</time>
      </trkpt>
      <trkpt lat="49.4677" lon="1.10476">
        <ele>110.1</ele>
        <time>2021-05-23T08:51:52Z</time>
      </trkpt>
      <trkpt lat="49.46773" lon="1.10478">
        <ele>110.1</ele>
        <time>2021-05-23T08:51:53Z</time>
      </trkpt>
      <trkpt lat="49.46776" lon="1.10482">
        <ele>110.1</ele>
        <time>2021-05-23T08:51:55Z</time>
      </trkpt>
      <trkpt lat="49.46778" lon="1.10483">
        <ele>110.2</ele>
        <time>2021-05-23T08:51:56Z</time>
      </trkpt>
      <trkpt lat="49.4678" lon="1.10487">
        <ele>110.5</ele>
        <time>2021-05-23T08:51:57Z</time>
      </trkpt>
      <trkpt lat="49.46782" lon="1.10492">
        <ele>110.8</ele>
        <time>2021-05-23T08:52:00Z</time>
      </trkpt>
      <trkpt lat="49.46786" lon="1.10497">
        <ele>111.2</ele>
        <time>2021-05-23T08:52:01Z</time>
      </trkpt>
      <trkpt lat="49.46789" lon="1.10503">
        <ele>111.5</ele>
        <time>2021-05-23T08:52:02Z</time>
      </trkpt>
      <trkpt lat="49.46793" lon="1.1051">
        <ele>112.1</ele>
        <time>2021-05-23T08:52:04Z</time>
      </trkpt>
      <trkpt lat="49.46797" lon="1.10516">
        <ele>112.6</ele>
        <time>2021-05-23T08:52:05Z</time>
      </trkpt>
      <trkpt lat="49.468" lon="1.10521">
        <ele>113.2</ele>
        <time>2021-05-23T08:52:06Z</time>
      </trkpt>
      <trkpt lat="49.46804" lon="1.10525">
        <ele>113.7</ele>
        <time>2021-05-23T08:52:08Z</time>
      </trkpt>
      <trkpt lat="49.46807" lon="1.10529">
        <ele>114.3</ele>
        <time>2021-05-23T08:52:09Z</time>
      </trkpt>
      <trkpt lat="49.46809" lon="1.10533">
        <ele>114.8</ele>
        <time>2021-05-23T08:52:10Z</time>
      </trkpt>
      <trkpt lat="49.46812" lon="1.10538">
        <ele>115.4</ele>
        <time>2021-05-23T08:52:12Z</time>
      </trkpt>
      <trkpt lat="49.46815" lon="1.10542">
        <ele>115.9</ele>
        <time>2021-05-23T08:52:13Z</time>
      </trkpt>
      <trkpt lat="49.46817" lon="1.10545">
        <ele>116.4</ele>
        <time>2021-05-23T08:52:14Z</time>
      </trkpt>
      <trkpt lat="49.46819" lon="1.10549">
        <ele>116.9</ele>
        <time>2021-05-23T08:52:16Z</time>
      </trkpt>
      <trkpt lat="49.46822" lon="1.10554">
        <ele>117.5</ele>
        <time>2021-05-23T08:52:17Z</time>
      </trkpt>
      <trkpt lat="49.46825" lon="1.1056">
        <ele>118</ele>
        <time>2021-05-23T08:52:18Z</time>
      </trkpt>
      <trkpt lat="49.46827" lon="1.10567">
        <ele>118.5</ele>
        <time>2021-05-23T08:52:20Z</time>
      </trkpt>
      <trkpt lat="49.4683" lon="1.10573">
        <ele>119</ele>
        <time>2021-05-23T08:52:21Z</time>
      </trkpt>
      <trkpt lat="49.46832" lon="1.1058">
        <ele>119.5</ele>
        <time>2021-05-23T08:52:22Z</time>
      </trkpt>
      <trkpt lat="49.46836" lon="1.10589">
        <ele>119.8</ele>
        <time>2021-05-23T08:52:24Z</time>
      </trkpt>
      <trkpt lat="49.46839" lon="1.10596">
        <ele>120.2</ele>
        <time>2021-05-23T08:52:25Z</time>
      </trkpt>
      <trkpt lat="49.4684" lon="1.10602">
        <ele>120.5</ele>
        <time>2021-05-23T08:52:26Z</time>
      </trkpt>
      <trkpt lat="49.46842" lon="1.10608">
        <ele>120.6</ele>
        <time>2021-05-23T08:52:28Z</time>
      </trkpt>
      <trkpt lat="49.46844" lon="1.10616">
        <ele>120.8</ele>
        <time>2021-05-23T08:52:29Z</time>
      </trkpt>
      <trkpt lat="49.46846" lon="1.10622">
        <ele>121</ele>
        <time>2021-05-23T08:52:30Z</time>
      </trkpt>
      <trkpt lat="49.46847" lon="1.10628">
        <ele>121.2</ele>
        <time>2021-05-23T08:52:32Z</time>
      </trkpt>
      <trkpt lat="49.46849" lon="1.10635">
        <ele>121.4</ele>
        <time>2021-05-23T08:52:33Z</time>
      </trkpt>
      <trkpt lat="49.4685" lon="1.1064">
        <ele>121.5</ele>
        <time>2021-05-23T08:52:35Z</time>
      </trkpt>
      <trkpt lat="49.46852" lon="1.10643">
        <ele>121.7</ele>
        <time>2021-05-23T08:52:36Z</time>
      </trkpt>
      <trkpt lat="49.46853" lon="1.10653">
        <ele>122</ele>
        <time>2021-05-23T08:52:38Z</time>
      </trkpt>
      <trkpt lat="49.46854" lon="1.10663">
        <ele>122.3</ele>
        <time>2021-05-23T08:52:40Z</time>
      </trkpt>
      <trkpt lat="49.46857" lon="1.10671">
        <ele>122.5</ele>
        <time>2021-05-23T08:52:41Z</time>
      </trkpt>
      <trkpt lat="49.46858" lon="1.10677">
        <ele>122.8</ele>
        <time>2021-05-23T08:52:43Z</time>
      </trkpt>
      <trkpt lat="49.4686" lon="1.10684">
        <ele>123.1</ele>
        <time>2021-05-23T08:52:44Z</time>
      </trkpt>
      <trkpt lat="49.46862" lon="1.10692">
        <ele>123.4</ele>
        <time>2021-05-23T08:52:47Z</time>
      </trkpt>
      <trkpt lat="49.46863" lon="1.10699">
        <ele>123.5</ele>
        <time>2021-05-23T08:52:48Z</time>
      </trkpt>
      <trkpt lat="49.46865" lon="1.10704">
        <ele>123.7</ele>
        <time>2021-05-23T08:52:49Z</time>
      </trkpt>
      <trkpt lat="49.46866" lon="1.1071">
        <ele>123.8</ele>
        <time>2021-05-23T08:52:51Z</time>
      </trkpt>
      <trkpt lat="49.46868" lon="1.10717">
        <ele>123.9</ele>
        <time>2021-05-23T08:52:52Z</time>
      </trkpt>
      <trkpt lat="49.4687" lon="1.10724">
        <ele>124</ele>
        <time>2021-05-23T08:52:53Z</time>
      </trkpt>
      <trkpt lat="49.46873" lon="1.10733">
        <ele>124.1</ele>
        <time>2021-05-23T08:52:55Z</time>
      </trkpt>
      <trkpt lat="49.46876" lon="1.10739">
        <ele>124.2</ele>
        <time>2021-05-23T08:52:56Z</time>
      </trkpt>
      <trkpt lat="49.4688" lon="1.10747">
        <ele>124.4</ele>
        <time>2021-05-23T08:52:57Z</time>
      </trkpt>
      <trkpt lat="49.46885" lon="1.10756">
        <ele>124.5</ele>
        <time>2021-05-23T08:52:59Z</time>
      </trkpt>
      <trkpt lat="49.46889" lon="1.10762">
        <ele>124.8</ele>
        <time>2021-05-23T08:53:00Z</time>
      </trkpt>
      <trkpt lat="49.46894" lon="1.1077">
        <ele>125.1</ele>
        <time>2021-05-23T08:53:02Z</time>
      </trkpt>
      <trkpt lat="49.46898" lon="1.10777">
        <ele>125.5</ele>
        <time>2021-05-23T08:53:03Z</time>
      </trkpt>
      <trkpt lat="49.46905" lon="1.10784">
        <ele>125.8</ele>
        <time>2021-05-23T08:53:04Z</time>
      </trkpt>
      <trkpt lat="49.4691" lon="1.10788">
        <ele>126.3</ele>
        <time>2021-05-23T08:53:06Z</time>
      </trkpt>
      <trkpt lat="49.46913" lon="1.10791">
        <ele>126.7</ele>
        <time>2021-05-23T08:53:07Z</time>
      </trkpt>
      <trkpt lat="49.46918" lon="1.10795">
        <ele>127.3</ele>
        <time>2021-05-23T08:53:08Z</time>
      </trkpt>
      <trkpt lat="49.46922" lon="1.10798">
        <ele>127.8</ele>
        <time>2021-05-23T08:53:09Z</time>
      </trkpt>
      <trkpt lat="49.46925" lon="1.10802">
        <ele>128.4</ele>
        <time>2021-05-23T08:53:11Z</time>
      </trkpt>
      <trkpt lat="49.4693" lon="1.10807">
        <ele>128.9</ele>
        <time>2021-05-23T08:53:12Z</time>
      </trkpt>
      <trkpt lat="49.46934" lon="1.10811">
        <ele>129.5</ele>
        <time>2021-05-23T08:53:14Z</time>
      </trkpt>
      <trkpt lat="49.4694" lon="1.10816">
        <ele>129.9</ele>
        <time>2021-05-23T08:53:15Z</time>
      </trkpt>
      <trkpt lat="49.46944" lon="1.1082">
        <ele>130.4</ele>
        <time>2021-05-23T08:53:17Z</time>
      </trkpt>
      <trkpt lat="49.46948" lon="1.10824">
        <ele>130.7</ele>
        <time>2021-05-23T08:53:18Z</time>
      </trkpt>
      <trkpt lat="49.46952" lon="1.10827">
        <ele>131.1</ele>
        <time>2021-05-23T08:53:20Z</time>
      </trkpt>
      <trkpt lat="49.46955" lon="1.10831">
        <ele>131.4</ele>
        <time>2021-05-23T08:53:21Z</time>
      </trkpt>
      <trkpt lat="49.46957" lon="1.10834">
        <ele>131.6</ele>
        <time>2021-05-23T08:53:22Z</time>
      </trkpt>
      <trkpt lat="49.46958" lon="1.10835">
        <ele>131.8</ele>
        <time>2021-05-23T08:53:23Z</time>
      </trkpt>
      <trkpt lat="49.46959" lon="1.10836">
        <ele>131.9</ele>
        <time>2021-05-23T08:53:24Z</time>
      </trkpt>
      <trkpt lat="49.46961" lon="1.10838">
        <ele>132</ele>
        <time>2021-05-23T08:53:26Z</time>
      </trkpt>
      <trkpt lat="49.46964" lon="1.10841">
        <ele>132</ele>
        <time>2021-05-23T08:53:27Z</time>
      </trkpt>
      <trkpt lat="49.46966" lon="1.10844">
        <ele>132</ele>
        <time>2021-05-23T08:53:28Z</time>
      </trkpt>
      <trkpt lat="49.46969" lon="1.10848">
        <ele>132</ele>
        <time>2021-05-23T08:53:29Z</time>
      </trkpt>
      <trkpt lat="49.46973" lon="1.10851">
        <ele>132</ele>
        <time>2021-05-23T08:53:31Z</time>
      </trkpt>
      <trkpt lat="49.46978" lon="1.10857">
        <ele>132</ele>
        <time>2021-05-23T08:53:32Z</time>
      </trkpt>
      <trkpt lat="49.46981" lon="1.10861">
        <ele>131.9</ele>
        <time>2021-05-23T08:53:35Z</time>
      </trkpt>
      <trkpt lat="49.46984" lon="1.10864">
        <ele>131.9</ele>
        <time>2021-05-23T08:53:36Z</time>
      </trkpt>
      <trkpt lat="49.46988" lon="1.10868">
        <ele>131.9</ele>
        <time>2021-05-23T08:53:37Z</time>
      </trkpt>
      <trkpt lat="49.46992" lon="1.10873">
        <ele>131.9</ele>
        <time>2021-05-23T08:53:39Z</time>
      </trkpt>
      <trkpt lat="49.46997" lon="1.10877">
        <ele>132</ele>
        <time>2021-05-23T08:53:40Z</time>
      </trkpt>
      <trkpt lat="49.47001" lon="1.1088">
        <ele>132.1</ele>
        <time>2021-05-23T08:53:42Z</time>
      </trkpt>
      <trkpt lat="49.47005" lon="1.10884">
        <ele>132.2</ele>
        <time>2021-05-23T08:53:43Z</time>
      </trkpt>
      <trkpt lat="49.4701" lon="1.10887">
        <ele>132.4</ele>
        <time>2021-05-23T08:53:45Z</time>
      </trkpt>
      <trkpt lat="49.47016" lon="1.10892">
        <ele>132.5</ele>
        <time>2021-05-23T08:53:46Z</time>
      </trkpt>
      <trkpt lat="49.47021" lon="1.10895">
        <ele>132.7</ele>
        <time>2021-05-23T08:53:48Z</time>
      </trkpt>
      <trkpt lat="49.47026" lon="1.109">
        <ele>133</ele>
        <time>2021-05-23T08:53:49Z</time>
      </trkpt>
      <trkpt lat="49.47031" lon="1.10906">
        <ele>133.4</ele>
        <time>2021-05-23T08:53:51Z</time>
      </trkpt>
      <trkpt lat="49.47034" lon="1.10911">
        <ele>133.6</ele>
        <time>2021-05-23T08:53:52Z</time>
      </trkpt>
      <trkpt lat="49.47037" lon="1.10916">
        <ele>133.9</ele>
        <time>2021-05-23T08:53:53Z</time>
      </trkpt>
      <trkpt lat="49.47039" lon="1.10921">
        <ele>134.3</ele>
        <time>2021-05-23T08:53:55Z</time>
      </trkpt>
      <trkpt lat="49.47042" lon="1.10928">
        <ele>134.5</ele>
        <time>2021-05-23T08:53:56Z</time>
      </trkpt>
      <trkpt lat="49.47044" lon="1.10934">
        <ele>134.8</ele>
        <time>2021-05-23T08:53:58Z</time>
      </trkpt>
      <trkpt lat="49.47046" lon="1.10939">
        <ele>135.2</ele>
        <time>2021-05-23T08:54:00Z</time>
      </trkpt>
      <trkpt lat="49.47047" lon="1.10944">
        <ele>135.5</ele>
        <time>2021-05-23T08:54:01Z</time>
      </trkpt>
      <trkpt lat="49.47049" lon="1.10948">
        <ele>135.7</ele>
        <time>2021-05-23T08:54:02Z</time>
      </trkpt>
      <trkpt lat="49.47051" lon="1.10953">
        <ele>136.1</ele>
        <time>2021-05-23T08:54:03Z</time>
      </trkpt>
      <trkpt lat="49.47053" lon="1.10958">
        <ele>136.5</ele>
        <time>2021-05-23T08:54:04Z</time>
      </trkpt>
      <trkpt lat="49.47055" lon="1.10962">
        <ele>136.8</ele>
        <time>2021-05-23T08:54:05Z</time>
      </trkpt>
      <trkpt lat="49.47057" lon="1.10966">
        <ele>137.3</ele>
        <time>2021-05-23T08:54:07Z</time>
      </trkpt>
      <trkpt lat="49.47058" lon="1.10969">
        <ele>137.7</ele>
        <time>2021-05-23T08:54:08Z</time>
      </trkpt>
      <trkpt lat="49.47061" lon="1.10975">
        <ele>138.2</ele>
        <time>2021-05-23T08:54:10Z</time>
      </trkpt>
      <trkpt lat="49.47064" lon="1.10981">
        <ele>138.6</ele>
        <time>2021-05-23T08:54:11Z</time>
      </trkpt>
      <trkpt lat="49.47068" lon="1.10988">
        <ele>139.2</ele>
        <time>2021-05-23T08:54:12Z</time>
      </trkpt>
      <trkpt lat="49.4707" lon="1.10994">
        <ele>139.6</ele>
        <time>2021-05-23T08:54:13Z</time>
      </trkpt>
      <trkpt lat="49.47073" lon="1.11003">
        <ele>140.1</ele>
        <time>2021-05-23T08:54:15Z</time>
      </trkpt>
      <trkpt lat="49.47075" lon="1.11008">
        <ele>140.5</ele>
        <time>2021-05-23T08:54:17Z</time>
      </trkpt>
      <trkpt lat="49.47077" lon="1.11012">
        <ele>141</ele>
        <time>2021-05-23T08:54:18Z</time>
      </trkpt>
      <trkpt lat="49.47079" lon="1.11019">
        <ele>141.4</ele>
        <time>2021-05-23T08:54:20Z</time>
      </trkpt>
      <trkpt lat="49.4708" lon="1.11022">
        <ele>141.8</ele>
        <time>2021-05-23T08:54:21Z</time>
      </trkpt>
      <trkpt lat="49.47082" lon="1.11026">
        <ele>142.2</ele>
        <time>2021-05-23T08:54:23Z</time>
      </trkpt>
      <trkpt lat="49.47085" lon="1.11032">
        <ele>142.6</ele>
        <time>2021-05-23T08:54:24Z</time>
      </trkpt>
      <trkpt lat="49.47087" lon="1.11037">
        <ele>143</ele>
        <time>2021-05-23T08:54:26Z</time>
      </trkpt>
      <trkpt lat="49.4709" lon="1.11043">
        <ele>143.4</ele>
        <time>2021-05-23T08:54:27Z</time>
      </trkpt>
      <trkpt lat="49.47093" lon="1.11049">
        <ele>143.7</ele>
        <time>2021-05-23T08:54:29Z</time>
      </trkpt>
      <trkpt lat="49.47096" lon="1.11053">
        <ele>144.1</ele>
        <time>2021-05-23T08:54:30Z</time>
      </trkpt>
      <trkpt lat="49.471" lon="1.1106">
        <ele>144.5</ele>
        <time>2021-05-23T08:54:32Z</time>
      </trkpt>
      <trkpt lat="49.47103" lon="1.11066">
        <ele>144.8</ele>
        <time>2021-05-23T08:54:33Z</time>
      </trkpt>
      <trkpt lat="49.47106" lon="1.11071">
        <ele>145.1</ele>
        <time>2021-05-23T08:54:35Z</time>
      </trkpt>
      <trkpt lat="49.4711" lon="1.11076">
        <ele>145.5</ele>
        <time>2021-05-23T08:54:36Z</time>
      </trkpt>
      <trkpt lat="49.47113" lon="1.11079">
        <ele>145.7</ele>
        <time>2021-05-23T08:54:38Z</time>
      </trkpt>
      <trkpt lat="49.47116" lon="1.11083">
        <ele>146</ele>
        <time>2021-05-23T08:54:39Z</time>
      </trkpt>
      <trkpt lat="49.47119" lon="1.11087">
        <ele>146.2</ele>
        <time>2021-05-23T08:54:40Z</time>
      </trkpt>
      <trkpt lat="49.47123" lon="1.11092">
        <ele>146.4</ele>
        <time>2021-05-23T08:54:42Z</time>
      </trkpt>
      <trkpt lat="49.47126" lon="1.11095">
        <ele>146.5</ele>
        <time>2021-05-23T08:54:43Z</time>
      </trkpt>
      <trkpt lat="49.47129" lon="1.11099">
        <ele>146.7</ele>
        <time>2021-05-23T08:54:44Z</time>
      </trkpt>
      <trkpt lat="49.47133" lon="1.11102">
        <ele>146.9</ele>
        <time>2021-05-23T08:54:46Z</time>
      </trkpt>
      <trkpt lat="49.47137" lon="1.11106">
        <ele>147.1</ele>
        <time>2021-05-23T08:54:47Z</time>
      </trkpt>
      <trkpt lat="49.4714" lon="1.1111">
        <ele>147.3</ele>
        <time>2021-05-23T08:54:49Z</time>
      </trkpt>
      <trkpt lat="49.47143" lon="1.11112">
        <ele>147.5</ele>
        <time>2021-05-23T08:54:50Z</time>
      </trkpt>
      <trkpt lat="49.47147" lon="1.11118">
        <ele>147.7</ele>
        <time>2021-05-23T08:54:51Z</time>
      </trkpt>
      <trkpt lat="49.4715" lon="1.11121">
        <ele>147.9</ele>
        <time>2021-05-23T08:54:53Z</time>
      </trkpt>
      <trkpt lat="49.47154" lon="1.11126">
        <ele>148.1</ele>
        <time>2021-05-23T08:54:55Z</time>
      </trkpt>
      <trkpt lat="49.47158" lon="1.11127">
        <ele>148.3</ele>
        <time>2021-05-23T08:54:56Z</time>
      </trkpt>
      <trkpt lat="49.4716" lon="1.11123">
        <ele>148.5</ele>
        <time>2021-05-23T08:54:58Z</time>
      </trkpt>
      <trkpt lat="49.4716" lon="1.11121">
        <ele>148.6</ele>
        <time>2021-05-23T08:54:59Z</time>
      </trkpt>
      <trkpt lat="49.47159" lon="1.11119">
        <ele>148.7</ele>
        <time>2021-05-23T08:55:01Z</time>
      </trkpt>
      <trkpt lat="49.47159" lon="1.11117">
        <ele>148.8</ele>
        <time>2021-05-23T08:55:02Z</time>
      </trkpt>
      <trkpt lat="49.47158" lon="1.11115">
        <ele>148.9</ele>
        <time>2021-05-23T08:55:03Z</time>
      </trkpt>
      <trkpt lat="49.47157" lon="1.11112">
        <ele>149</ele>
        <time>2021-05-23T08:55:05Z</time>
      </trkpt>
      <trkpt lat="49.47156" lon="1.11106">
        <ele>149</ele>
        <time>2021-05-23T08:55:07Z</time>
      </trkpt>
      <trkpt lat="49.47154" lon="1.11101">
        <ele>148.9</ele>
        <time>2021-05-23T08:55:08Z</time>
      </trkpt>
      <trkpt lat="49.47154" lon="1.11099">
        <ele>148.8</ele>
        <time>2021-05-23T08:55:09Z</time>
      </trkpt>
      <trkpt lat="49.47152" lon="1.11093">
        <ele>148.7</ele>
        <time>2021-05-23T08:55:12Z</time>
      </trkpt>
      <trkpt lat="49.47151" lon="1.11089">
        <ele>148.5</ele>
        <time>2021-05-23T08:55:13Z</time>
      </trkpt>
      <trkpt lat="49.4715" lon="1.11084">
        <ele>148.4</ele>
        <time>2021-05-23T08:55:14Z</time>
      </trkpt>
      <trkpt lat="49.47148" lon="1.11078">
        <ele>148.2</ele>
        <time>2021-05-23T08:55:15Z</time>
      </trkpt>
      <trkpt lat="49.47146" lon="1.11071">
        <ele>148</ele>
        <time>2021-05-23T08:55:17Z</time>
      </trkpt>
      <trkpt lat="49.47143" lon="1.11064">
        <ele>147.8</ele>
        <time>2021-05-23T08:55:18Z</time>
      </trkpt>
      <trkpt lat="49.47142" lon="1.11058">
        <ele>147.7</ele>
        <time>2021-05-23T08:55:19Z</time>
      </trkpt>
      <trkpt lat="49.4714" lon="1.11052">
        <ele>147.6</ele>
        <time>2021-05-23T08:55:21Z</time>
      </trkpt>
      <trkpt lat="49.47139" lon="1.11047">
        <ele>147.6</ele>
        <time>2021-05-23T08:55:22Z</time>
      </trkpt>
      <trkpt lat="49.47137" lon="1.11038">
        <ele>147.7</ele>
        <time>2021-05-23T08:55:24Z</time>
      </trkpt>
      <trkpt lat="49.47136" lon="1.11032">
        <ele>147.8</ele>
        <time>2021-05-23T08:55:25Z</time>
      </trkpt>
      <trkpt lat="49.47134" lon="1.11018">
        <ele>148</ele>
        <time>2021-05-23T08:55:26Z</time>
      </trkpt>
      <trkpt lat="49.47131" lon="1.11006">
        <ele>148.3</ele>
        <time>2021-05-23T08:55:27Z</time>
      </trkpt>
      <trkpt lat="49.47129" lon="1.10993">
        <ele>148.5</ele>
        <time>2021-05-23T08:55:29Z</time>
      </trkpt>
      <trkpt lat="49.47127" lon="1.10985">
        <ele>148.8</ele>
        <time>2021-05-23T08:55:30Z</time>
      </trkpt>
      <trkpt lat="49.47125" lon="1.10977">
        <ele>149.1</ele>
        <time>2021-05-23T08:55:31Z</time>
      </trkpt>
      <trkpt lat="49.47124" lon="1.10966">
        <ele>149.4</ele>
        <time>2021-05-23T08:55:32Z</time>
      </trkpt>
      <trkpt lat="49.47122" lon="1.10957">
        <ele>149.5</ele>
        <time>2021-05-23T08:55:33Z</time>
      </trkpt>
      <trkpt lat="49.47119" lon="1.10949">
        <ele>149.5</ele>
        <time>2021-05-23T08:55:35Z</time>
      </trkpt>
      <trkpt lat="49.47114" lon="1.10934">
        <ele>149.5</ele>
        <time>2021-05-23T08:55:37Z</time>
      </trkpt>
      <trkpt lat="49.47113" lon="1.10926">
        <ele>149.6</ele>
        <time>2021-05-23T08:55:38Z</time>
      </trkpt>
      <trkpt lat="49.47111" lon="1.10919">
        <ele>149.7</ele>
        <time>2021-05-23T08:55:39Z</time>
      </trkpt>
      <trkpt lat="49.47107" lon="1.10907">
        <ele>149.8</ele>
        <time>2021-05-23T08:55:41Z</time>
      </trkpt>
      <trkpt lat="49.47105" lon="1.10901">
        <ele>149.9</ele>
        <time>2021-05-23T08:55:42Z</time>
      </trkpt>
      <trkpt lat="49.47104" lon="1.10894">
        <ele>150</ele>
        <time>2021-05-23T08:55:43Z</time>
      </trkpt>
      <trkpt lat="49.47103" lon="1.10882">
        <ele>150.1</ele>
        <time>2021-05-23T08:55:45Z</time>
      </trkpt>
      <trkpt lat="49.47101" lon="1.10871">
        <ele>150.2</ele>
        <time>2021-05-23T08:55:46Z</time>
      </trkpt>
      <trkpt lat="49.471" lon="1.10863">
        <ele>150.3</ele>
        <time>2021-05-23T08:55:48Z</time>
      </trkpt>
      <trkpt lat="49.47098" lon="1.10853">
        <ele>150.5</ele>
        <time>2021-05-23T08:55:50Z</time>
      </trkpt>
      <trkpt lat="49.47096" lon="1.10845">
        <ele>150.6</ele>
        <time>2021-05-23T08:55:51Z</time>
      </trkpt>
      <trkpt lat="49.47094" lon="1.10837">
        <ele>150.8</ele>
        <time>2021-05-23T08:55:52Z</time>
      </trkpt>
      <trkpt lat="49.47092" lon="1.1083">
        <ele>150.9</ele>
        <time>2021-05-23T08:55:54Z</time>
      </trkpt>
      <trkpt lat="49.47091" lon="1.10824">
        <ele>151</ele>
        <time>2021-05-23T08:55:55Z</time>
      </trkpt>
      <trkpt lat="49.4709" lon="1.10818">
        <ele>151</ele>
        <time>2021-05-23T08:55:56Z</time>
      </trkpt>
      <trkpt lat="49.47088" lon="1.10812">
        <ele>151</ele>
        <time>2021-05-23T08:55:57Z</time>
      </trkpt>
      <trkpt lat="49.47085" lon="1.10804">
        <ele>150.9</ele>
        <time>2021-05-23T08:55:59Z</time>
      </trkpt>
      <trkpt lat="49.47079" lon="1.10792">
        <ele>150.8</ele>
        <time>2021-05-23T08:56:01Z</time>
      </trkpt>
      <trkpt lat="49.47073" lon="1.10783">
        <ele>150.7</ele>
        <time>2021-05-23T08:56:03Z</time>
      </trkpt>
      <trkpt lat="49.47074" lon="1.10779">
        <ele>150.6</ele>
        <time>2021-05-23T08:56:04Z</time>
      </trkpt>
      <trkpt lat="49.47072" lon="1.1078">
        <ele>150.5</ele>
        <time>2021-05-23T08:56:05Z</time>
      </trkpt>
      <trkpt lat="49.47066" lon="1.10772">
        <ele>150.5</ele>
        <time>2021-05-23T08:56:07Z</time>
      </trkpt>
      <trkpt lat="49.47062" lon="1.10769">
        <ele>150.4</ele>
        <time>2021-05-23T08:56:09Z</time>
      </trkpt>
      <trkpt lat="49.47062" lon="1.10769">
        <ele>150.3</ele>
        <time>2021-05-23T08:56:10Z</time>
      </trkpt>
      <trkpt lat="49.47061" lon="1.1077">
        <ele>150.1</ele>
        <time>2021-05-23T08:56:11Z</time>
      </trkpt>
      <trkpt lat="49.47061" lon="1.1077">
        <ele>149.9</ele>
        <time>2021-05-23T08:56:13Z</time>
      </trkpt>
      <trkpt lat="49.47061" lon="1.1077">
        <ele>149.7</ele>
        <time>2021-05-23T08:56:14Z</time>
      </trkpt>
      <trkpt lat="49.47061" lon="1.10771">
        <ele>149.6</ele>
        <time>2021-05-23T08:56:15Z</time>
      </trkpt>
      <trkpt lat="49.47061" lon="1.10771">
        <ele>149.5</ele>
        <time>2021-05-23T08:56:17Z</time>
      </trkpt>
      <trkpt lat="49.47059" lon="1.1077">
        <ele>149.5</ele>
        <time>2021-05-23T08:56:24Z</time>
      </trkpt>
      <trkpt lat="49.47057" lon="1.1077">
        <ele>149.4</ele>
        <time>2021-05-23T08:56:25Z</time>
      </trkpt>
      <trkpt lat="49.47056" lon="1.1077">
        <ele>149.3</ele>
        <time>2021-05-23T08:56:27Z</time>
      </trkpt>
      <trkpt lat="49.47055" lon="1.10769">
        <ele>149.2</ele>
        <time>2021-05-23T08:56:28Z</time>
      </trkpt>
      <trkpt lat="49.47058" lon="1.10767">
        <ele>149.1</ele>
        <time>2021-05-23T08:59:41Z</time>
      </trkpt>
      <trkpt lat="49.47058" lon="1.10766">
        <ele>149</ele>
        <time>2021-05-23T08:59:43Z</time>
      </trkpt>
      <trkpt lat="49.47057" lon="1.10764">
        <ele>149</ele>
        <time>2021-05-23T08:59:44Z</time>
      </trkpt>
      <trkpt lat="49.47057" lon="1.10763">
        <ele>149</ele>
        <time>2021-05-23T08:59:45Z</time>
      </trkpt>
      <trkpt lat="49.47056" lon="1.10762">
        <ele>149</ele>
        <time>2021-05-23T08:59:47Z</time>
      </trkpt>
      <trkpt lat="49.47055" lon="1.10761">
        <ele>148.9</ele>
        <time>2021-05-23T08:59:48Z</time>
      </trkpt>
      <trkpt lat="49.47055" lon="1.1076">
        <ele>148.7</ele>
        <time>2021-05-23T08:59:49Z</time>
      </trkpt>
      <trkpt lat="49.47054" lon="1.10759">
        <ele>148.5</ele>
        <time>2021-05-23T08:59:51Z</time>
      </trkpt>
      <trkpt lat="49.47054" lon="1.10758">
        <ele>148.4</ele>
        <time>2021-05-23T08:59:55Z</time>
      </trkpt>
      <trkpt lat="49.47053" lon="1.10757">
        <ele>148.3</ele>
        <time>2021-05-23T08:59:56Z</time>
      </trkpt>
      <trkpt lat="49.47046" lon="1.10742">
        <ele>148.2</ele>
        <time>2021-05-23T08:59:58Z</time>
      </trkpt>
      <trkpt lat="49.4704" lon="1.1073">
        <ele>148.1</ele>
        <time>2021-05-23T08:59:59Z</time>
      </trkpt>
      <trkpt lat="49.47036" lon="1.10722">
        <ele>148.1</ele>
        <time>2021-05-23T09:00:00Z</time>
      </trkpt>
      <trkpt lat="49.47032" lon="1.10711">
        <ele>148.1</ele>
        <time>2021-05-23T09:00:02Z</time>
      </trkpt>
      <trkpt lat="49.47027" lon="1.107">
        <ele>148.1</ele>
        <time>2021-05-23T09:00:03Z</time>
      </trkpt>
      <trkpt lat="49.47023" lon="1.10688">
        <ele>148.1</ele>
        <time>2021-05-23T09:00:05Z</time>
      </trkpt>
      <trkpt lat="49.47021" lon="1.10682">
        <ele>148.3</ele>
        <time>2021-05-23T09:00:06Z</time>
      </trkpt>
      <trkpt lat="49.47019" lon="1.10673">
        <ele>148.5</ele>
        <time>2021-05-23T09:00:07Z</time>
      </trkpt>
      <trkpt lat="49.47013" lon="1.10662">
        <ele>148.7</ele>
        <time>2021-05-23T09:00:09Z</time>
      </trkpt>
      <trkpt lat="49.4701" lon="1.10656">
        <ele>148.9</ele>
        <time>2021-05-23T09:00:10Z</time>
      </trkpt>
      <trkpt lat="49.47008" lon="1.1064">
        <ele>149</ele>
        <time>2021-05-23T09:00:12Z</time>
      </trkpt>
      <trkpt lat="49.47005" lon="1.1063">
        <ele>149.1</ele>
        <time>2021-05-23T09:00:13Z</time>
      </trkpt>
      <trkpt lat="49.46999" lon="1.10613">
        <ele>149.2</ele>
        <time>2021-05-23T09:00:15Z</time>
      </trkpt>
      <trkpt lat="49.46995" lon="1.10595">
        <ele>149.2</ele>
        <time>2021-05-23T09:00:17Z</time>
      </trkpt>
      <trkpt lat="49.4699" lon="1.10576">
        <ele>149.3</ele>
        <time>2021-05-23T09:00:19Z</time>
      </trkpt>
      <trkpt lat="49.46984" lon="1.10557">
        <ele>149.4</ele>
        <time>2021-05-23T09:00:21Z</time>
      </trkpt>
      <trkpt lat="49.4698" lon="1.10538">
        <ele>149.5</ele>
        <time>2021-05-23T09:00:23Z</time>
      </trkpt>
      <trkpt lat="49.46975" lon="1.1052">
        <ele>149.5</ele>
        <time>2021-05-23T09:00:25Z</time>
      </trkpt>
      <trkpt lat="49.46973" lon="1.1051">
        <ele>149.5</ele>
        <time>2021-05-23T09:00:26Z</time>
      </trkpt>
      <trkpt lat="49.46971" lon="1.105">
        <ele>149.5</ele>
        <time>2021-05-23T09:00:27Z</time>
      </trkpt>
      <trkpt lat="49.46966" lon="1.1048">
        <ele>149.6</ele>
        <time>2021-05-23T09:00:29Z</time>
      </trkpt>
      <trkpt lat="49.46961" lon="1.1046">
        <ele>149.6</ele>
        <time>2021-05-23T09:00:31Z</time>
      </trkpt>
      <trkpt lat="49.46955" lon="1.1044">
        <ele>149.6</ele>
        <time>2021-05-23T09:00:33Z</time>
      </trkpt>
      <trkpt lat="49.46949" lon="1.10422">
        <ele>149.6</ele>
        <time>2021-05-23T09:00:35Z</time>
      </trkpt>
      <trkpt lat="49.46943" lon="1.10403">
        <ele>149.6</ele>
        <time>2021-05-23T09:00:37Z</time>
      </trkpt>
      <trkpt lat="49.4694" lon="1.10393">
        <ele>149.5</ele>
        <time>2021-05-23T09:00:38Z</time>
      </trkpt>
      <trkpt lat="49.46934" lon="1.10375">
        <ele>149.5</ele>
        <time>2021-05-23T09:00:40Z</time>
      </trkpt>
      <trkpt lat="49.46931" lon="1.10367">
        <ele>149.4</ele>
        <time>2021-05-23T09:00:42Z</time>
      </trkpt>
      <trkpt lat="49.46929" lon="1.10358">
        <ele>149.4</ele>
        <time>2021-05-23T09:00:43Z</time>
      </trkpt>
      <trkpt lat="49.46924" lon="1.1034">
        <ele>149.4</ele>
        <time>2021-05-23T09:00:45Z</time>
      </trkpt>
      <trkpt lat="49.46921" lon="1.10332">
        <ele>149.4</ele>
        <time>2021-05-23T09:00:46Z</time>
      </trkpt>
      <trkpt lat="49.46917" lon="1.10325">
        <ele>149.4</ele>
        <time>2021-05-23T09:00:47Z</time>
      </trkpt>
      <trkpt lat="49.46914" lon="1.10316">
        <ele>149.3</ele>
        <time>2021-05-23T09:00:48Z</time>
      </trkpt>
      <trkpt lat="49.46911" lon="1.10306">
        <ele>149.2</ele>
        <time>2021-05-23T09:00:49Z</time>
      </trkpt>
      <trkpt lat="49.46905" lon="1.10289">
        <ele>149</ele>
        <time>2021-05-23T09:00:51Z</time>
      </trkpt>
      <trkpt lat="49.46903" lon="1.10282">
        <ele>148.8</ele>
        <time>2021-05-23T09:00:52Z</time>
      </trkpt>
      <trkpt lat="49.46898" lon="1.10275">
        <ele>148.6</ele>
        <time>2021-05-23T09:00:53Z</time>
      </trkpt>
      <trkpt lat="49.46891" lon="1.10258">
        <ele>148.5</ele>
        <time>2021-05-23T09:00:55Z</time>
      </trkpt>
      <trkpt lat="49.46885" lon="1.10241">
        <ele>148.4</ele>
        <time>2021-05-23T09:00:57Z</time>
      </trkpt>
      <trkpt lat="49.4688" lon="1.10222">
        <ele>148.2</ele>
        <time>2021-05-23T09:00:59Z</time>
      </trkpt>
      <trkpt lat="49.46879" lon="1.10212">
        <ele>148</ele>
        <time>2021-05-23T09:01:00Z</time>
      </trkpt>
      <trkpt lat="49.46875" lon="1.10194">
        <ele>147.9</ele>
        <time>2021-05-23T09:01:02Z</time>
      </trkpt>
      <trkpt lat="49.46872" lon="1.10174">
        <ele>147.8</ele>
        <time>2021-05-23T09:01:04Z</time>
      </trkpt>
      <trkpt lat="49.46873" lon="1.10163">
        <ele>147.9</ele>
        <time>2021-05-23T09:01:05Z</time>
      </trkpt>
      <trkpt lat="49.46874" lon="1.10145">
        <ele>148</ele>
        <time>2021-05-23T09:01:07Z</time>
      </trkpt>
      <trkpt lat="49.46875" lon="1.10136">
        <ele>148.2</ele>
        <time>2021-05-23T09:01:08Z</time>
      </trkpt>
      <trkpt lat="49.46877" lon="1.10118">
        <ele>148.4</ele>
        <time>2021-05-23T09:01:10Z</time>
      </trkpt>
      <trkpt lat="49.46877" lon="1.1011">
        <ele>148.5</ele>
        <time>2021-05-23T09:01:11Z</time>
      </trkpt>
      <trkpt lat="49.46877" lon="1.10101">
        <ele>148.7</ele>
        <time>2021-05-23T09:01:12Z</time>
      </trkpt>
      <trkpt lat="49.46876" lon="1.10085">
        <ele>148.8</ele>
        <time>2021-05-23T09:01:14Z</time>
      </trkpt>
      <trkpt lat="49.46875" lon="1.10077">
        <ele>148.9</ele>
        <time>2021-05-23T09:01:15Z</time>
      </trkpt>
      <trkpt lat="49.46872" lon="1.10058">
        <ele>149</ele>
        <time>2021-05-23T09:01:17Z</time>
      </trkpt>
      <trkpt lat="49.46868" lon="1.1004">
        <ele>148.9</ele>
        <time>2021-05-23T09:01:19Z</time>
      </trkpt>
      <trkpt lat="49.46866" lon="1.10021">
        <ele>148.7</ele>
        <time>2021-05-23T09:01:21Z</time>
      </trkpt>
      <trkpt lat="49.46866" lon="1.10003">
        <ele>148.5</ele>
        <time>2021-05-23T09:01:23Z</time>
      </trkpt>
      <trkpt lat="49.46872" lon="1.09982">
        <ele>148.2</ele>
        <time>2021-05-23T09:01:25Z</time>
      </trkpt>
      <trkpt lat="49.4688" lon="1.09962">
        <ele>147.8</ele>
        <time>2021-05-23T09:01:27Z</time>
      </trkpt>
      <trkpt lat="49.46886" lon="1.09943">
        <ele>147.5</ele>
        <time>2021-05-23T09:01:30Z</time>
      </trkpt>
      <trkpt lat="49.46892" lon="1.09918">
        <ele>147.1</ele>
        <time>2021-05-23T09:01:32Z</time>
      </trkpt>
      <trkpt lat="49.46896" lon="1.09905">
        <ele>146.6</ele>
        <time>2021-05-23T09:01:33Z</time>
      </trkpt>
      <trkpt lat="49.46902" lon="1.09881">
        <ele>146.2</ele>
        <time>2021-05-23T09:01:35Z</time>
      </trkpt>
      <trkpt lat="49.46902" lon="1.09854">
        <ele>145.7</ele>
        <time>2021-05-23T09:01:37Z</time>
      </trkpt>
      <trkpt lat="49.46907" lon="1.09834">
        <ele>145.3</ele>
        <time>2021-05-23T09:01:39Z</time>
      </trkpt>
      <trkpt lat="49.46904" lon="1.09829">
        <ele>144.9</ele>
        <time>2021-05-23T09:01:40Z</time>
      </trkpt>
      <trkpt lat="49.46894" lon="1.09825">
        <ele>144.6</ele>
        <time>2021-05-23T09:01:42Z</time>
      </trkpt>
      <trkpt lat="49.46889" lon="1.09817">
        <ele>144.5</ele>
        <time>2021-05-23T09:01:44Z</time>
      </trkpt>
      <trkpt lat="49.46888" lon="1.09805">
        <ele>144.3</ele>
        <time>2021-05-23T09:01:45Z</time>
      </trkpt>
      <trkpt lat="49.46885" lon="1.09795">
        <ele>144.2</ele>
        <time>2021-05-23T09:01:46Z</time>
      </trkpt>
      <trkpt lat="49.46881" lon="1.09786">
        <ele>143.9</ele>
        <time>2021-05-23T09:01:47Z</time>
      </trkpt>
      <trkpt lat="49.46877" lon="1.09768">
        <ele>143.6</ele>
        <time>2021-05-23T09:01:49Z</time>
      </trkpt>
      <trkpt lat="49.46871" lon="1.09754">
        <ele>143.4</ele>
        <time>2021-05-23T09:01:51Z</time>
      </trkpt>
      <trkpt lat="49.46866" lon="1.09745">
        <ele>143.1</ele>
        <time>2021-05-23T09:01:52Z</time>
      </trkpt>
      <trkpt lat="49.46854" lon="1.09729">
        <ele>142.8</ele>
        <time>2021-05-23T09:01:54Z</time>
      </trkpt>
      <trkpt lat="49.46838" lon="1.09709">
        <ele>142.6</ele>
        <time>2021-05-23T09:01:56Z</time>
      </trkpt>
      <trkpt lat="49.4683" lon="1.09699">
        <ele>142.3</ele>
        <time>2021-05-23T09:01:57Z</time>
      </trkpt>
      <trkpt lat="49.46814" lon="1.09681">
        <ele>141.8</ele>
        <time>2021-05-23T09:01:59Z</time>
      </trkpt>
      <trkpt lat="49.46801" lon="1.09656">
        <ele>141.1</ele>
        <time>2021-05-23T09:02:01Z</time>
      </trkpt>
      <trkpt lat="49.46796" lon="1.09642">
        <ele>140.2</ele>
        <time>2021-05-23T09:02:02Z</time>
      </trkpt>
      <trkpt lat="49.46785" lon="1.09611">
        <ele>139.3</ele>
        <time>2021-05-23T09:02:04Z</time>
      </trkpt>
      <trkpt lat="49.46779" lon="1.09595">
        <ele>138.4</ele>
        <time>2021-05-23T09:02:05Z</time>
      </trkpt>
      <trkpt lat="49.46775" lon="1.09577">
        <ele>137.5</ele>
        <time>2021-05-23T09:02:06Z</time>
      </trkpt>
      <trkpt lat="49.46768" lon="1.09541">
        <ele>136.5</ele>
        <time>2021-05-23T09:02:08Z</time>
      </trkpt>
      <trkpt lat="49.46763" lon="1.09523">
        <ele>135.5</ele>
        <time>2021-05-23T09:02:09Z</time>
      </trkpt>
      <trkpt lat="49.46758" lon="1.09504">
        <ele>134.5</ele>
        <time>2021-05-23T09:02:10Z</time>
      </trkpt>
      <trkpt lat="49.46752" lon="1.09467">
        <ele>133</ele>
        <time>2021-05-23T09:02:12Z</time>
      </trkpt>
      <trkpt lat="49.46749" lon="1.09448">
        <ele>131.5</ele>
        <time>2021-05-23T09:02:13Z</time>
      </trkpt>
      <trkpt lat="49.46745" lon="1.0943">
        <ele>130.1</ele>
        <time>2021-05-23T09:02:14Z</time>
      </trkpt>
      <trkpt lat="49.46738" lon="1.09397">
        <ele>128.6</ele>
        <time>2021-05-23T09:02:16Z</time>
      </trkpt>
      <trkpt lat="49.46726" lon="1.09368">
        <ele>127.3</ele>
        <time>2021-05-23T09:02:19Z</time>
      </trkpt>
      <trkpt lat="49.46711" lon="1.09351">
        <ele>125.8</ele>
        <time>2021-05-23T09:02:21Z</time>
      </trkpt>
      <trkpt lat="49.46695" lon="1.09335">
        <ele>124.5</ele>
        <time>2021-05-23T09:02:23Z</time>
      </trkpt>
      <trkpt lat="49.46686" lon="1.09325">
        <ele>123.2</ele>
        <time>2021-05-23T09:02:24Z</time>
      </trkpt>
      <trkpt lat="49.46669" lon="1.09305">
        <ele>122</ele>
        <time>2021-05-23T09:02:26Z</time>
      </trkpt>
      <trkpt lat="49.46659" lon="1.09294">
        <ele>120.8</ele>
        <time>2021-05-23T09:02:27Z</time>
      </trkpt>
      <trkpt lat="49.4665" lon="1.09265">
        <ele>119.7</ele>
        <time>2021-05-23T09:02:29Z</time>
      </trkpt>
      <trkpt lat="49.46637" lon="1.09242">
        <ele>118.8</ele>
        <time>2021-05-23T09:02:31Z</time>
      </trkpt>
      <trkpt lat="49.4663" lon="1.0923">
        <ele>118.1</ele>
        <time>2021-05-23T09:02:32Z</time>
      </trkpt>
      <trkpt lat="49.46614" lon="1.09208">
        <ele>117.4</ele>
        <time>2021-05-23T09:02:34Z</time>
      </trkpt>
      <trkpt lat="49.46599" lon="1.09189">
        <ele>116.8</ele>
        <time>2021-05-23T09:02:36Z</time>
      </trkpt>
      <trkpt lat="49.46592" lon="1.09178">
        <ele>116.3</ele>
        <time>2021-05-23T09:02:37Z</time>
      </trkpt>
      <trkpt lat="49.46585" lon="1.09167">
        <ele>115.8</ele>
        <time>2021-05-23T09:02:38Z</time>
      </trkpt>
      <trkpt lat="49.46571" lon="1.09147">
        <ele>115.4</ele>
        <time>2021-05-23T09:02:40Z</time>
      </trkpt>
      <trkpt lat="49.46563" lon="1.09138">
        <ele>114.6</ele>
        <time>2021-05-23T09:02:41Z</time>
      </trkpt>
      <trkpt lat="49.46555" lon="1.09129">
        <ele>113.8</ele>
        <time>2021-05-23T09:02:42Z</time>
      </trkpt>
      <trkpt lat="49.4654" lon="1.09107">
        <ele>112.9</ele>
        <time>2021-05-23T09:02:44Z</time>
      </trkpt>
      <trkpt lat="49.46536" lon="1.09095">
        <ele>111.9</ele>
        <time>2021-05-23T09:02:45Z</time>
      </trkpt>
      <trkpt lat="49.46525" lon="1.09072">
        <ele>110.9</ele>
        <time>2021-05-23T09:02:47Z</time>
      </trkpt>
      <trkpt lat="49.46514" lon="1.09048">
        <ele>109.9</ele>
        <time>2021-05-23T09:02:49Z</time>
      </trkpt>
      <trkpt lat="49.46508" lon="1.09036">
        <ele>108.8</ele>
        <time>2021-05-23T09:02:50Z</time>
      </trkpt>
      <trkpt lat="49.46502" lon="1.09025">
        <ele>107.7</ele>
        <time>2021-05-23T09:02:51Z</time>
      </trkpt>
      <trkpt lat="49.4649" lon="1.09001">
        <ele>106.8</ele>
        <time>2021-05-23T09:02:53Z</time>
      </trkpt>
      <trkpt lat="49.46484" lon="1.0899">
        <ele>105.9</ele>
        <time>2021-05-23T09:02:54Z</time>
      </trkpt>
      <trkpt lat="49.4648" lon="1.08983">
        <ele>105</ele>
        <time>2021-05-23T09:02:55Z</time>
      </trkpt>
      <trkpt lat="49.46469" lon="1.08965">
        <ele>104.3</ele>
        <time>2021-05-23T09:02:57Z</time>
      </trkpt>
      <trkpt lat="49.46453" lon="1.08945">
        <ele>103.5</ele>
        <time>2021-05-23T09:02:59Z</time>
      </trkpt>
      <trkpt lat="49.4644" lon="1.08923">
        <ele>102.9</ele>
        <time>2021-05-23T09:03:01Z</time>
      </trkpt>
      <trkpt lat="49.46433" lon="1.08915">
        <ele>102.3</ele>
        <time>2021-05-23T09:03:02Z</time>
      </trkpt>
      <trkpt lat="49.46422" lon="1.08906">
        <ele>101.7</ele>
        <time>2021-05-23T09:03:05Z</time>
      </trkpt>
      <trkpt lat="49.46415" lon="1.08903">
        <ele>101.2</ele>
        <time>2021-05-23T09:03:06Z</time>
      </trkpt>
      <trkpt lat="49.46404" lon="1.08902">
        <ele>100.8</ele>
        <time>2021-05-23T09:03:08Z</time>
      </trkpt>
      <trkpt lat="49.46398" lon="1.089">
        <ele>100.5</ele>
        <time>2021-05-23T09:03:09Z</time>
      </trkpt>
      <trkpt lat="49.46385" lon="1.08899">
        <ele>100.3</ele>
        <time>2021-05-23T09:03:11Z</time>
      </trkpt>
      <trkpt lat="49.46378" lon="1.08898">
        <ele>100</ele>
        <time>2021-05-23T09:03:12Z</time>
      </trkpt>
      <trkpt lat="49.46372" lon="1.08897">
        <ele>99.9</ele>
        <time>2021-05-23T09:03:13Z</time>
      </trkpt>
      <trkpt lat="49.4636" lon="1.08892">
        <ele>99.8</ele>
        <time>2021-05-23T09:03:15Z</time>
      </trkpt>
      <trkpt lat="49.46349" lon="1.08886">
        <ele>99.9</ele>
        <time>2021-05-23T09:03:17Z</time>
      </trkpt>
      <trkpt lat="49.46344" lon="1.08883">
        <ele>100.2</ele>
        <time>2021-05-23T09:03:18Z</time>
      </trkpt>
      <trkpt lat="49.4634" lon="1.08878">
        <ele>100.5</ele>
        <time>2021-05-23T09:03:19Z</time>
      </trkpt>
      <trkpt lat="49.46331" lon="1.08869">
        <ele>101</ele>
        <time>2021-05-23T09:03:21Z</time>
      </trkpt>
      <trkpt lat="49.46327" lon="1.08864">
        <ele>101.5</ele>
        <time>2021-05-23T09:03:22Z</time>
      </trkpt>
      <trkpt lat="49.46319" lon="1.08855">
        <ele>102</ele>
        <time>2021-05-23T09:03:24Z</time>
      </trkpt>
      <trkpt lat="49.46314" lon="1.08851">
        <ele>102.5</ele>
        <time>2021-05-23T09:03:25Z</time>
      </trkpt>
      <trkpt lat="49.4631" lon="1.08846">
        <ele>103</ele>
        <time>2021-05-23T09:03:26Z</time>
      </trkpt>
      <trkpt lat="49.46306" lon="1.08841">
        <ele>103.5</ele>
        <time>2021-05-23T09:03:27Z</time>
      </trkpt>
      <trkpt lat="49.46302" lon="1.08836">
        <ele>104</ele>
        <time>2021-05-23T09:03:28Z</time>
      </trkpt>
      <trkpt lat="49.46293" lon="1.08826">
        <ele>104.5</ele>
        <time>2021-05-23T09:03:30Z</time>
      </trkpt>
      <trkpt lat="49.46285" lon="1.08817">
        <ele>104.8</ele>
        <time>2021-05-23T09:03:32Z</time>
      </trkpt>
      <trkpt lat="49.46282" lon="1.08813">
        <ele>105.1</ele>
        <time>2021-05-23T09:03:33Z</time>
      </trkpt>
      <trkpt lat="49.46277" lon="1.08806">
        <ele>105.4</ele>
        <time>2021-05-23T09:03:35Z</time>
      </trkpt>
      <trkpt lat="49.46272" lon="1.08799">
        <ele>105.6</ele>
        <time>2021-05-23T09:03:36Z</time>
      </trkpt>
      <trkpt lat="49.46268" lon="1.08795">
        <ele>106</ele>
        <time>2021-05-23T09:03:37Z</time>
      </trkpt>
      <trkpt lat="49.46263" lon="1.0879">
        <ele>106.3</ele>
        <time>2021-05-23T09:03:39Z</time>
      </trkpt>
      <trkpt lat="49.46257" lon="1.08785">
        <ele>106.6</ele>
        <time>2021-05-23T09:03:40Z</time>
      </trkpt>
      <trkpt lat="49.46254" lon="1.08781">
        <ele>107</ele>
        <time>2021-05-23T09:03:41Z</time>
      </trkpt>
      <trkpt lat="49.46249" lon="1.08774">
        <ele>107.4</ele>
        <time>2021-05-23T09:03:43Z</time>
      </trkpt>
      <trkpt lat="49.46247" lon="1.08769">
        <ele>107.8</ele>
        <time>2021-05-23T09:03:44Z</time>
      </trkpt>
      <trkpt lat="49.46243" lon="1.08764">
        <ele>108.3</ele>
        <time>2021-05-23T09:03:45Z</time>
      </trkpt>
      <trkpt lat="49.46236" lon="1.08756">
        <ele>108.7</ele>
        <time>2021-05-23T09:03:47Z</time>
      </trkpt>
      <trkpt lat="49.46231" lon="1.0875">
        <ele>109.2</ele>
        <time>2021-05-23T09:03:49Z</time>
      </trkpt>
      <trkpt lat="49.46226" lon="1.08743">
        <ele>109.6</ele>
        <time>2021-05-23T09:03:50Z</time>
      </trkpt>
      <trkpt lat="49.46223" lon="1.08738">
        <ele>109.9</ele>
        <time>2021-05-23T09:03:51Z</time>
      </trkpt>
      <trkpt lat="49.46218" lon="1.08734">
        <ele>110.1</ele>
        <time>2021-05-23T09:03:54Z</time>
      </trkpt>
      <trkpt lat="49.46212" lon="1.08731">
        <ele>110.4</ele>
        <time>2021-05-23T09:03:55Z</time>
      </trkpt>
      <trkpt lat="49.46209" lon="1.08729">
        <ele>110.5</ele>
        <time>2021-05-23T09:03:56Z</time>
      </trkpt>
      <trkpt lat="49.46202" lon="1.08725">
        <ele>110.7</ele>
        <time>2021-05-23T09:03:58Z</time>
      </trkpt>
      <trkpt lat="49.46198" lon="1.08723">
        <ele>110.8</ele>
        <time>2021-05-23T09:04:00Z</time>
      </trkpt>
      <trkpt lat="49.46194" lon="1.08721">
        <ele>110.8</ele>
        <time>2021-05-23T09:04:01Z</time>
      </trkpt>
      <trkpt lat="49.46188" lon="1.08715">
        <ele>110.8</ele>
        <time>2021-05-23T09:04:02Z</time>
      </trkpt>
      <trkpt lat="49.46184" lon="1.08713">
        <ele>110.9</ele>
        <time>2021-05-23T09:04:04Z</time>
      </trkpt>
      <trkpt lat="49.4618" lon="1.0871">
        <ele>111</ele>
        <time>2021-05-23T09:04:05Z</time>
      </trkpt>
      <trkpt lat="49.46175" lon="1.08707">
        <ele>111.1</ele>
        <time>2021-05-23T09:04:06Z</time>
      </trkpt>
      <trkpt lat="49.46169" lon="1.08703">
        <ele>111.3</ele>
        <time>2021-05-23T09:04:08Z</time>
      </trkpt>
      <trkpt lat="49.46161" lon="1.08699">
        <ele>111.5</ele>
        <time>2021-05-23T09:04:09Z</time>
      </trkpt>
      <trkpt lat="49.46152" lon="1.08693">
        <ele>111.5</ele>
        <time>2021-05-23T09:04:11Z</time>
      </trkpt>
      <trkpt lat="49.46145" lon="1.08689">
        <ele>111.5</ele>
        <time>2021-05-23T09:04:13Z</time>
      </trkpt>
      <trkpt lat="49.4614" lon="1.08688">
        <ele>111.5</ele>
        <time>2021-05-23T09:04:15Z</time>
      </trkpt>
      <trkpt lat="49.46135" lon="1.08685">
        <ele>111.5</ele>
        <time>2021-05-23T09:04:16Z</time>
      </trkpt>
      <trkpt lat="49.46131" lon="1.08684">
        <ele>111.5</ele>
        <time>2021-05-23T09:04:17Z</time>
      </trkpt>
      <trkpt lat="49.46125" lon="1.08681">
        <ele>111.5</ele>
        <time>2021-05-23T09:04:19Z</time>
      </trkpt>
      <trkpt lat="49.4612" lon="1.08679">
        <ele>111.5</ele>
        <time>2021-05-23T09:04:21Z</time>
      </trkpt>
      <trkpt lat="49.46115" lon="1.08675">
        <ele>111.6</ele>
        <time>2021-05-23T09:04:22Z</time>
      </trkpt>
      <trkpt lat="49.46112" lon="1.08672">
        <ele>111.8</ele>
        <time>2021-05-23T09:04:23Z</time>
      </trkpt>
      <trkpt lat="49.46106" lon="1.08666">
        <ele>112</ele>
        <time>2021-05-23T09:04:25Z</time>
      </trkpt>
      <trkpt lat="49.46104" lon="1.08662">
        <ele>112.3</ele>
        <time>2021-05-23T09:04:26Z</time>
      </trkpt>
      <trkpt lat="49.46105" lon="1.08657">
        <ele>112.6</ele>
        <time>2021-05-23T09:04:28Z</time>
      </trkpt>
      <trkpt lat="49.46106" lon="1.08651">
        <ele>113.1</ele>
        <time>2021-05-23T09:04:29Z</time>
      </trkpt>
      <trkpt lat="49.46108" lon="1.08646">
        <ele>113.5</ele>
        <time>2021-05-23T09:04:30Z</time>
      </trkpt>
      <trkpt lat="49.46108" lon="1.08641">
        <ele>114</ele>
        <time>2021-05-23T09:04:31Z</time>
      </trkpt>
      <trkpt lat="49.46108" lon="1.08635">
        <ele>114.5</ele>
        <time>2021-05-23T09:04:32Z</time>
      </trkpt>
      <trkpt lat="49.46106" lon="1.08627">
        <ele>115</ele>
        <time>2021-05-23T09:04:34Z</time>
      </trkpt>
      <trkpt lat="49.46105" lon="1.08623">
        <ele>115.5</ele>
        <time>2021-05-23T09:04:35Z</time>
      </trkpt>
      <trkpt lat="49.46104" lon="1.08621">
        <ele>115.8</ele>
        <time>2021-05-23T09:04:36Z</time>
      </trkpt>
      <trkpt lat="49.46103" lon="1.0862">
        <ele>116.1</ele>
        <time>2021-05-23T09:04:37Z</time>
      </trkpt>
      <trkpt lat="49.46102" lon="1.08619">
        <ele>116.4</ele>
        <time>2021-05-23T09:04:39Z</time>
      </trkpt>
      <trkpt lat="49.46101" lon="1.08618">
        <ele>116.5</ele>
        <time>2021-05-23T09:04:41Z</time>
      </trkpt>
      <trkpt lat="49.46101" lon="1.08617">
        <ele>116.5</ele>
        <time>2021-05-23T09:04:42Z</time>
      </trkpt>
      <trkpt lat="49.46096" lon="1.08612">
        <ele>116.5</ele>
        <time>2021-05-23T09:04:43Z</time>
      </trkpt>
      <trkpt lat="49.46085" lon="1.08604">
        <ele>116.5</ele>
        <time>2021-05-23T09:04:45Z</time>
      </trkpt>
      <trkpt lat="49.46074" lon="1.08597">
        <ele>116.5</ele>
        <time>2021-05-23T09:04:47Z</time>
      </trkpt>
      <trkpt lat="49.46068" lon="1.08593">
        <ele>116.5</ele>
        <time>2021-05-23T09:04:48Z</time>
      </trkpt>
      <trkpt lat="49.46061" lon="1.08588">
        <ele>116.5</ele>
        <time>2021-05-23T09:04:50Z</time>
      </trkpt>
      <trkpt lat="49.46053" lon="1.0858">
        <ele>116.5</ele>
        <time>2021-05-23T09:04:52Z</time>
      </trkpt>
      <trkpt lat="49.46045" lon="1.08573">
        <ele>116.5</ele>
        <time>2021-05-23T09:04:54Z</time>
      </trkpt>
      <trkpt lat="49.4604" lon="1.08571">
        <ele>116.5</ele>
        <time>2021-05-23T09:04:55Z</time>
      </trkpt>
      <trkpt lat="49.46036" lon="1.08564">
        <ele>116.6</ele>
        <time>2021-05-23T09:04:57Z</time>
      </trkpt>
      <trkpt lat="49.46031" lon="1.08558">
        <ele>116.8</ele>
        <time>2021-05-23T09:04:58Z</time>
      </trkpt>
      <trkpt lat="49.46027" lon="1.08554">
        <ele>117.1</ele>
        <time>2021-05-23T09:04:59Z</time>
      </trkpt>
      <trkpt lat="49.46024" lon="1.0855">
        <ele>117.4</ele>
        <time>2021-05-23T09:05:00Z</time>
      </trkpt>
      <trkpt lat="49.46021" lon="1.08543">
        <ele>117.7</ele>
        <time>2021-05-23T09:05:02Z</time>
      </trkpt>
      <trkpt lat="49.46018" lon="1.08537">
        <ele>118.1</ele>
        <time>2021-05-23T09:05:03Z</time>
      </trkpt>
      <trkpt lat="49.46014" lon="1.0853">
        <ele>118.4</ele>
        <time>2021-05-23T09:05:04Z</time>
      </trkpt>
      <trkpt lat="49.46009" lon="1.08522">
        <ele>118.6</ele>
        <time>2021-05-23T09:05:06Z</time>
      </trkpt>
      <trkpt lat="49.46005" lon="1.08515">
        <ele>119</ele>
        <time>2021-05-23T09:05:07Z</time>
      </trkpt>
      <trkpt lat="49.46001" lon="1.08509">
        <ele>119.4</ele>
        <time>2021-05-23T09:05:09Z</time>
      </trkpt>
      <trkpt lat="49.45996" lon="1.08504">
        <ele>119.7</ele>
        <time>2021-05-23T09:05:10Z</time>
      </trkpt>
      <trkpt lat="49.45992" lon="1.08498">
        <ele>120.1</ele>
        <time>2021-05-23T09:05:11Z</time>
      </trkpt>
      <trkpt lat="49.45988" lon="1.08492">
        <ele>120.5</ele>
        <time>2021-05-23T09:05:12Z</time>
      </trkpt>
      <trkpt lat="49.45985" lon="1.08486">
        <ele>120.6</ele>
        <time>2021-05-23T09:05:14Z</time>
      </trkpt>
      <trkpt lat="49.45981" lon="1.08479">
        <ele>120.8</ele>
        <time>2021-05-23T09:05:15Z</time>
      </trkpt>
      <trkpt lat="49.45974" lon="1.08471">
        <ele>120.9</ele>
        <time>2021-05-23T09:05:17Z</time>
      </trkpt>
      <trkpt lat="49.45972" lon="1.08465">
        <ele>121</ele>
        <time>2021-05-23T09:05:18Z</time>
      </trkpt>
      <trkpt lat="49.45967" lon="1.0846">
        <ele>121.1</ele>
        <time>2021-05-23T09:05:20Z</time>
      </trkpt>
      <trkpt lat="49.45962" lon="1.08455">
        <ele>121.2</ele>
        <time>2021-05-23T09:05:21Z</time>
      </trkpt>
      <trkpt lat="49.45958" lon="1.08451">
        <ele>121.2</ele>
        <time>2021-05-23T09:05:22Z</time>
      </trkpt>
      <trkpt lat="49.45954" lon="1.08444">
        <ele>121.2</ele>
        <time>2021-05-23T09:05:24Z</time>
      </trkpt>
      <trkpt lat="49.45949" lon="1.0844">
        <ele>121.2</ele>
        <time>2021-05-23T09:05:26Z</time>
      </trkpt>
      <trkpt lat="49.45947" lon="1.08438">
        <ele>121.1</ele>
        <time>2021-05-23T09:05:27Z</time>
      </trkpt>
      <trkpt lat="49.45945" lon="1.08437">
        <ele>121</ele>
        <time>2021-05-23T09:05:30Z</time>
      </trkpt>
      <trkpt lat="49.45943" lon="1.08435">
        <ele>121</ele>
        <time>2021-05-23T09:05:31Z</time>
      </trkpt>
      <trkpt lat="49.45934" lon="1.08425">
        <ele>121.1</ele>
        <time>2021-05-23T09:05:33Z</time>
      </trkpt>
      <trkpt lat="49.45926" lon="1.08419">
        <ele>121.3</ele>
        <time>2021-05-23T09:05:34Z</time>
      </trkpt>
      <trkpt lat="49.45919" lon="1.08413">
        <ele>121.5</ele>
        <time>2021-05-23T09:05:36Z</time>
      </trkpt>
      <trkpt lat="49.45914" lon="1.08408">
        <ele>121.6</ele>
        <time>2021-05-23T09:05:37Z</time>
      </trkpt>
      <trkpt lat="49.45908" lon="1.08401">
        <ele>121.8</ele>
        <time>2021-05-23T09:05:39Z</time>
      </trkpt>
      <trkpt lat="49.45904" lon="1.08397">
        <ele>122</ele>
        <time>2021-05-23T09:05:40Z</time>
      </trkpt>
      <trkpt lat="49.45898" lon="1.0839">
        <ele>122.3</ele>
        <time>2021-05-23T09:05:42Z</time>
      </trkpt>
      <trkpt lat="49.45893" lon="1.08386">
        <ele>122.5</ele>
        <time>2021-05-23T09:05:43Z</time>
      </trkpt>
      <trkpt lat="49.45889" lon="1.08382">
        <ele>122.9</ele>
        <time>2021-05-23T09:05:44Z</time>
      </trkpt>
      <trkpt lat="49.45885" lon="1.08379">
        <ele>123.3</ele>
        <time>2021-05-23T09:05:46Z</time>
      </trkpt>
      <trkpt lat="49.4588" lon="1.08374">
        <ele>123.6</ele>
        <time>2021-05-23T09:05:47Z</time>
      </trkpt>
      <trkpt lat="49.45876" lon="1.0837">
        <ele>123.9</ele>
        <time>2021-05-23T09:05:49Z</time>
      </trkpt>
      <trkpt lat="49.45873" lon="1.08365">
        <ele>124.2</ele>
        <time>2021-05-23T09:05:50Z</time>
      </trkpt>
      <trkpt lat="49.4587" lon="1.08362">
        <ele>124.5</ele>
        <time>2021-05-23T09:05:51Z</time>
      </trkpt>
      <trkpt lat="49.45868" lon="1.0836">
        <ele>124.8</ele>
        <time>2021-05-23T09:05:53Z</time>
      </trkpt>
      <trkpt lat="49.45868" lon="1.08358">
        <ele>125.3</ele>
        <time>2021-05-23T09:05:54Z</time>
      </trkpt>
      <trkpt lat="49.45867" lon="1.08356">
        <ele>125.8</ele>
        <time>2021-05-23T09:05:55Z</time>
      </trkpt>
      <trkpt lat="49.45867" lon="1.08355">
        <ele>126.4</ele>
        <time>2021-05-23T09:05:56Z</time>
      </trkpt>
      <trkpt lat="49.45867" lon="1.08353">
        <ele>126.9</ele>
        <time>2021-05-23T09:05:57Z</time>
      </trkpt>
      <trkpt lat="49.45864" lon="1.08344">
        <ele>127.4</ele>
        <time>2021-05-23T09:05:59Z</time>
      </trkpt>
      <trkpt lat="49.45862" lon="1.08337">
        <ele>127.9</ele>
        <time>2021-05-23T09:06:01Z</time>
      </trkpt>
      <trkpt lat="49.45862" lon="1.08332">
        <ele>128.5</ele>
        <time>2021-05-23T09:06:02Z</time>
      </trkpt>
      <trkpt lat="49.45861" lon="1.08326">
        <ele>129</ele>
        <time>2021-05-23T09:06:04Z</time>
      </trkpt>
      <trkpt lat="49.45861" lon="1.08323">
        <ele>129.6</ele>
        <time>2021-05-23T09:06:05Z</time>
      </trkpt>
      <trkpt lat="49.4586" lon="1.08319">
        <ele>130.3</ele>
        <time>2021-05-23T09:06:07Z</time>
      </trkpt>
      <trkpt lat="49.4586" lon="1.08314">
        <ele>130.8</ele>
        <time>2021-05-23T09:06:09Z</time>
      </trkpt>
      <trkpt lat="49.4586" lon="1.08312">
        <ele>131.3</ele>
        <time>2021-05-23T09:06:11Z</time>
      </trkpt>
      <trkpt lat="49.4586" lon="1.0831">
        <ele>131.7</ele>
        <time>2021-05-23T09:06:12Z</time>
      </trkpt>
      <trkpt lat="49.45862" lon="1.08302">
        <ele>132.1</ele>
        <time>2021-05-23T09:06:14Z</time>
      </trkpt>
      <trkpt lat="49.45862" lon="1.083">
        <ele>132.5</ele>
        <time>2021-05-23T09:06:15Z</time>
      </trkpt>
      <trkpt lat="49.45861" lon="1.08298">
        <ele>132.9</ele>
        <time>2021-05-23T09:06:17Z</time>
      </trkpt>
      <trkpt lat="49.45861" lon="1.08296">
        <ele>133.2</ele>
        <time>2021-05-23T09:06:18Z</time>
      </trkpt>
      <trkpt lat="49.45859" lon="1.08294">
        <ele>133.4</ele>
        <time>2021-05-23T09:06:19Z</time>
      </trkpt>
      <trkpt lat="49.45856" lon="1.08291">
        <ele>133.5</ele>
        <time>2021-05-23T09:06:21Z</time>
      </trkpt>
      <trkpt lat="49.4585" lon="1.08288">
        <ele>133.5</ele>
        <time>2021-05-23T09:06:23Z</time>
      </trkpt>
      <trkpt lat="49.45838" lon="1.0828">
        <ele>133.4</ele>
        <time>2021-05-23T09:06:25Z</time>
      </trkpt>
      <trkpt lat="49.45823" lon="1.08273">
        <ele>133.1</ele>
        <time>2021-05-23T09:06:26Z</time>
      </trkpt>
      <trkpt lat="49.45816" lon="1.08269">
        <ele>132.6</ele>
        <time>2021-05-23T09:06:27Z</time>
      </trkpt>
      <trkpt lat="49.4581" lon="1.08266">
        <ele>132</ele>
        <time>2021-05-23T09:06:29Z</time>
      </trkpt>
      <trkpt lat="49.45806" lon="1.08265">
        <ele>131.3</ele>
        <time>2021-05-23T09:06:30Z</time>
      </trkpt>
      <trkpt lat="49.45798" lon="1.08262">
        <ele>130.5</ele>
        <time>2021-05-23T09:06:31Z</time>
      </trkpt>
      <trkpt lat="49.45788" lon="1.08262">
        <ele>129.5</ele>
        <time>2021-05-23T09:06:33Z</time>
      </trkpt>
      <trkpt lat="49.45778" lon="1.08263">
        <ele>128.5</ele>
        <time>2021-05-23T09:06:35Z</time>
      </trkpt>
      <trkpt lat="49.45774" lon="1.08263">
        <ele>127.5</ele>
        <time>2021-05-23T09:06:36Z</time>
      </trkpt>
      <trkpt lat="49.4577" lon="1.08265">
        <ele>126.5</ele>
        <time>2021-05-23T09:06:38Z</time>
      </trkpt>
      <trkpt lat="49.45768" lon="1.08266">
        <ele>125.6</ele>
        <time>2021-05-23T09:06:39Z</time>
      </trkpt>
      <trkpt lat="49.45761" lon="1.08266">
        <ele>124.6</ele>
        <time>2021-05-23T09:06:40Z</time>
      </trkpt>
      <trkpt lat="49.45758" lon="1.08264">
        <ele>123.8</ele>
        <time>2021-05-23T09:06:41Z</time>
      </trkpt>
      <trkpt lat="49.45754" lon="1.08262">
        <ele>123.2</ele>
        <time>2021-05-23T09:06:43Z</time>
      </trkpt>
      <trkpt lat="49.45752" lon="1.08263">
        <ele>122.6</ele>
        <time>2021-05-23T09:06:44Z</time>
      </trkpt>
      <trkpt lat="49.4575" lon="1.08264">
        <ele>122.2</ele>
        <time>2021-05-23T09:06:45Z</time>
      </trkpt>
      <trkpt lat="49.45748" lon="1.08267">
        <ele>121.9</ele>
        <time>2021-05-23T09:06:47Z</time>
      </trkpt>
      <trkpt lat="49.45749" lon="1.08266">
        <ele>121.7</ele>
        <time>2021-05-23T09:06:48Z</time>
      </trkpt>
      <trkpt lat="49.45749" lon="1.08265">
        <ele>121.6</ele>
        <time>2021-05-23T09:06:49Z</time>
      </trkpt>
      <trkpt lat="49.45749" lon="1.08265">
        <ele>121.5</ele>
        <time>2021-05-23T09:06:51Z</time>
      </trkpt>
      <trkpt lat="49.4575" lon="1.08264">
        <ele>121.5</ele>
        <time>2021-05-23T09:06:52Z</time>
      </trkpt>
      <trkpt lat="49.4575" lon="1.08263">
        <ele>121.6</ele>
        <time>2021-05-23T09:06:53Z</time>
      </trkpt>
      <trkpt lat="49.4575" lon="1.08263">
        <ele>121.8</ele>
        <time>2021-05-23T09:06:55Z</time>
      </trkpt>
      <trkpt lat="49.4575" lon="1.08262">
        <ele>122</ele>
        <time>2021-05-23T09:06:56Z</time>
      </trkpt>
      <trkpt lat="49.45751" lon="1.08262">
        <ele>122.2</ele>
        <time>2021-05-23T09:06:57Z</time>
      </trkpt>
      <trkpt lat="49.45751" lon="1.08261">
        <ele>122.4</ele>
        <time>2021-05-23T09:06:58Z</time>
      </trkpt>
      <trkpt lat="49.45751" lon="1.0826">
        <ele>122.5</ele>
        <time>2021-05-23T09:07:00Z</time>
      </trkpt>
      <trkpt lat="49.45752" lon="1.0826">
        <ele>122.7</ele>
        <time>2021-05-23T09:07:01Z</time>
      </trkpt>
      <trkpt lat="49.45752" lon="1.08259">
        <ele>122.9</ele>
        <time>2021-05-23T09:07:02Z</time>
      </trkpt>
      <trkpt lat="49.45752" lon="1.08259">
        <ele>123.1</ele>
        <time>2021-05-23T09:07:05Z</time>
      </trkpt>
      <trkpt lat="49.45753" lon="1.08258">
        <ele>123.3</ele>
        <time>2021-05-23T09:07:07Z</time>
      </trkpt>
      <trkpt lat="49.45753" lon="1.08257">
        <ele>123.5</ele>
        <time>2021-05-23T09:07:08Z</time>
      </trkpt>
      <trkpt lat="49.45753" lon="1.08257">
        <ele>123.6</ele>
        <time>2021-05-23T09:07:09Z</time>
      </trkpt>
      <trkpt lat="49.45754" lon="1.08256">
        <ele>123.8</ele>
        <time>2021-05-23T09:07:10Z</time>
      </trkpt>
      <trkpt lat="49.45754" lon="1.08256">
        <ele>124.1</ele>
        <time>2021-05-23T09:07:11Z</time>
      </trkpt>
      <trkpt lat="49.45754" lon="1.08255">
        <ele>124.5</ele>
        <time>2021-05-23T09:07:13Z</time>
      </trkpt>
      <trkpt lat="49.45755" lon="1.08254">
        <ele>125.1</ele>
        <time>2021-05-23T09:07:14Z</time>
      </trkpt>
      <trkpt lat="49.45755" lon="1.08254">
        <ele>125.7</ele>
        <time>2021-05-23T09:07:15Z</time>
      </trkpt>
      <trkpt lat="49.45755" lon="1.08253">
        <ele>126.4</ele>
        <time>2021-05-23T09:07:16Z</time>
      </trkpt>
      <trkpt lat="49.45755" lon="1.08246">
        <ele>127.1</ele>
        <time>2021-05-23T09:07:18Z</time>
      </trkpt>
      <trkpt lat="49.45754" lon="1.08239">
        <ele>127.9</ele>
        <time>2021-05-23T09:07:19Z</time>
      </trkpt>
      <trkpt lat="49.45753" lon="1.08234">
        <ele>128.7</ele>
        <time>2021-05-23T09:07:20Z</time>
      </trkpt>
      <trkpt lat="49.45754" lon="1.08228">
        <ele>129.6</ele>
        <time>2021-05-23T09:07:21Z</time>
      </trkpt>
      <trkpt lat="49.45755" lon="1.08224">
        <ele>130.5</ele>
        <time>2021-05-23T09:07:22Z</time>
      </trkpt>
      <trkpt lat="49.45757" lon="1.0822">
        <ele>131.5</ele>
        <time>2021-05-23T09:07:23Z</time>
      </trkpt>
      <trkpt lat="49.45757" lon="1.08219">
        <ele>132.3</ele>
        <time>2021-05-23T09:07:24Z</time>
      </trkpt>
      <trkpt lat="49.45758" lon="1.08215">
        <ele>133</ele>
        <time>2021-05-23T09:07:26Z</time>
      </trkpt>
      <trkpt lat="49.45757" lon="1.08209">
        <ele>133.6</ele>
        <time>2021-05-23T09:07:27Z</time>
      </trkpt>
      <trkpt lat="49.45756" lon="1.08203">
        <ele>134.2</ele>
        <time>2021-05-23T09:07:28Z</time>
      </trkpt>
      <trkpt lat="49.45754" lon="1.08196">
        <ele>134.6</ele>
        <time>2021-05-23T09:07:29Z</time>
      </trkpt>
      <trkpt lat="49.45753" lon="1.0819">
        <ele>135</ele>
        <time>2021-05-23T09:07:31Z</time>
      </trkpt>
      <trkpt lat="49.45752" lon="1.08186">
        <ele>135.3</ele>
        <time>2021-05-23T09:07:32Z</time>
      </trkpt>
      <trkpt lat="49.45751" lon="1.08182">
        <ele>135.5</ele>
        <time>2021-05-23T09:07:33Z</time>
      </trkpt>
      <trkpt lat="49.4575" lon="1.08177">
        <ele>135.7</ele>
        <time>2021-05-23T09:07:35Z</time>
      </trkpt>
      <trkpt lat="49.45749" lon="1.08175">
        <ele>135.8</ele>
        <time>2021-05-23T09:07:36Z</time>
      </trkpt>
      <trkpt lat="49.45748" lon="1.0817">
        <ele>135.9</ele>
        <time>2021-05-23T09:07:37Z</time>
      </trkpt>
      <trkpt lat="49.45746" lon="1.08167">
        <ele>136</ele>
        <time>2021-05-23T09:07:39Z</time>
      </trkpt>
      <trkpt lat="49.45744" lon="1.08164">
        <ele>136</ele>
        <time>2021-05-23T09:07:41Z</time>
      </trkpt>
      <trkpt lat="49.45744" lon="1.08162">
        <ele>136.1</ele>
        <time>2021-05-23T09:07:43Z</time>
      </trkpt>
      <trkpt lat="49.45743" lon="1.08157">
        <ele>136.2</ele>
        <time>2021-05-23T09:07:44Z</time>
      </trkpt>
      <trkpt lat="49.45743" lon="1.08156">
        <ele>136.3</ele>
        <time>2021-05-23T09:07:45Z</time>
      </trkpt>
      <trkpt lat="49.45744" lon="1.08152">
        <ele>136.4</ele>
        <time>2021-05-23T09:07:47Z</time>
      </trkpt>
      <trkpt lat="49.45745" lon="1.08149">
        <ele>136.5</ele>
        <time>2021-05-23T09:07:48Z</time>
      </trkpt>
      <trkpt lat="49.45743" lon="1.08144">
        <ele>136.5</ele>
        <time>2021-05-23T09:07:50Z</time>
      </trkpt>
      <trkpt lat="49.45743" lon="1.08141">
        <ele>136.6</ele>
        <time>2021-05-23T09:07:51Z</time>
      </trkpt>
      <trkpt lat="49.45743" lon="1.08139">
        <ele>136.7</ele>
        <time>2021-05-23T09:07:53Z</time>
      </trkpt>
      <trkpt lat="49.45744" lon="1.08136">
        <ele>136.8</ele>
        <time>2021-05-23T09:07:55Z</time>
      </trkpt>
      <trkpt lat="49.45745" lon="1.08135">
        <ele>136.9</ele>
        <time>2021-05-23T09:07:56Z</time>
      </trkpt>
      <trkpt lat="49.45747" lon="1.08133">
        <ele>137</ele>
        <time>2021-05-23T09:07:57Z</time>
      </trkpt>
      <trkpt lat="49.4575" lon="1.08131">
        <ele>137.1</ele>
        <time>2021-05-23T09:07:59Z</time>
      </trkpt>
      <trkpt lat="49.45753" lon="1.08128">
        <ele>137.3</ele>
        <time>2021-05-23T09:08:00Z</time>
      </trkpt>
      <trkpt lat="49.45757" lon="1.08123">
        <ele>137.5</ele>
        <time>2021-05-23T09:08:02Z</time>
      </trkpt>
      <trkpt lat="49.45759" lon="1.08121">
        <ele>137.6</ele>
        <time>2021-05-23T09:08:03Z</time>
      </trkpt>
      <trkpt lat="49.45763" lon="1.08115">
        <ele>137.8</ele>
        <time>2021-05-23T09:08:05Z</time>
      </trkpt>
      <trkpt lat="49.45768" lon="1.08108">
        <ele>138</ele>
        <time>2021-05-23T09:08:07Z</time>
      </trkpt>
      <trkpt lat="49.45779" lon="1.08095">
        <ele>138.1</ele>
        <time>2021-05-23T09:08:08Z</time>
      </trkpt>
      <trkpt lat="49.45788" lon="1.08091">
        <ele>138.1</ele>
        <time>2021-05-23T09:08:09Z</time>
      </trkpt>
      <trkpt lat="49.45797" lon="1.08086">
        <ele>138.1</ele>
        <time>2021-05-23T09:08:11Z</time>
      </trkpt>
      <trkpt lat="49.45803" lon="1.08084">
        <ele>138.1</ele>
        <time>2021-05-23T09:08:12Z</time>
      </trkpt>
      <trkpt lat="49.4581" lon="1.08081">
        <ele>138.1</ele>
        <time>2021-05-23T09:08:13Z</time>
      </trkpt>
      <trkpt lat="49.45822" lon="1.08078">
        <ele>138</ele>
        <time>2021-05-23T09:08:15Z</time>
      </trkpt>
      <trkpt lat="49.45826" lon="1.08076">
        <ele>137.8</ele>
        <time>2021-05-23T09:08:16Z</time>
      </trkpt>
      <trkpt lat="49.45829" lon="1.08072">
        <ele>137.6</ele>
        <time>2021-05-23T09:08:17Z</time>
      </trkpt>
      <trkpt lat="49.45834" lon="1.0807">
        <ele>137.5</ele>
        <time>2021-05-23T09:08:18Z</time>
      </trkpt>
      <trkpt lat="49.45844" lon="1.0807">
        <ele>137.5</ele>
        <time>2021-05-23T09:08:20Z</time>
      </trkpt>
      <trkpt lat="49.45851" lon="1.0807">
        <ele>137.4</ele>
        <time>2021-05-23T09:08:22Z</time>
      </trkpt>
      <trkpt lat="49.45857" lon="1.08065">
        <ele>137.4</ele>
        <time>2021-05-23T09:08:23Z</time>
      </trkpt>
      <trkpt lat="49.45861" lon="1.08066">
        <ele>137.5</ele>
        <time>2021-05-23T09:08:25Z</time>
      </trkpt>
      <trkpt lat="49.45866" lon="1.08066">
        <ele>137.5</ele>
        <time>2021-05-23T09:08:26Z</time>
      </trkpt>
      <trkpt lat="49.45871" lon="1.08064">
        <ele>137.6</ele>
        <time>2021-05-23T09:08:27Z</time>
      </trkpt>
      <trkpt lat="49.45875" lon="1.08062">
        <ele>137.8</ele>
        <time>2021-05-23T09:08:28Z</time>
      </trkpt>
      <trkpt lat="49.45879" lon="1.08059">
        <ele>138</ele>
        <time>2021-05-23T09:08:30Z</time>
      </trkpt>
      <trkpt lat="49.45885" lon="1.08056">
        <ele>138.2</ele>
        <time>2021-05-23T09:08:31Z</time>
      </trkpt>
      <trkpt lat="49.45893" lon="1.08053">
        <ele>138.4</ele>
        <time>2021-05-23T09:08:33Z</time>
      </trkpt>
      <trkpt lat="49.45898" lon="1.08052">
        <ele>138.5</ele>
        <time>2021-05-23T09:08:34Z</time>
      </trkpt>
      <trkpt lat="49.45907" lon="1.08047">
        <ele>138.5</ele>
        <time>2021-05-23T09:08:35Z</time>
      </trkpt>
      <trkpt lat="49.45912" lon="1.08043">
        <ele>138.6</ele>
        <time>2021-05-23T09:08:36Z</time>
      </trkpt>
      <trkpt lat="49.45917" lon="1.0804">
        <ele>138.7</ele>
        <time>2021-05-23T09:08:38Z</time>
      </trkpt>
      <trkpt lat="49.45922" lon="1.08039">
        <ele>138.8</ele>
        <time>2021-05-23T09:08:39Z</time>
      </trkpt>
      <trkpt lat="49.45926" lon="1.08036">
        <ele>138.9</ele>
        <time>2021-05-23T09:08:41Z</time>
      </trkpt>
      <trkpt lat="49.45929" lon="1.0803">
        <ele>138.9</ele>
        <time>2021-05-23T09:08:43Z</time>
      </trkpt>
      <trkpt lat="49.45929" lon="1.08028">
        <ele>138.8</ele>
        <time>2021-05-23T09:08:44Z</time>
      </trkpt>
      <trkpt lat="49.45927" lon="1.08023">
        <ele>138.6</ele>
        <time>2021-05-23T09:08:46Z</time>
      </trkpt>
      <trkpt lat="49.45923" lon="1.08016">
        <ele>138.4</ele>
        <time>2021-05-23T09:08:47Z</time>
      </trkpt>
      <trkpt lat="49.45924" lon="1.08009">
        <ele>138.1</ele>
        <time>2021-05-23T09:08:48Z</time>
      </trkpt>
      <trkpt lat="49.45921" lon="1.08001">
        <ele>137.8</ele>
        <time>2021-05-23T09:08:50Z</time>
      </trkpt>
      <trkpt lat="49.45921" lon="1.07995">
        <ele>137.5</ele>
        <time>2021-05-23T09:08:51Z</time>
      </trkpt>
      <trkpt lat="49.4592" lon="1.07979">
        <ele>137.1</ele>
        <time>2021-05-23T09:08:52Z</time>
      </trkpt>
      <trkpt lat="49.45919" lon="1.07975">
        <ele>136.6</ele>
        <time>2021-05-23T09:08:54Z</time>
      </trkpt>
      <trkpt lat="49.45918" lon="1.07974">
        <ele>136.2</ele>
        <time>2021-05-23T09:08:55Z</time>
      </trkpt>
      <trkpt lat="49.45917" lon="1.07967">
        <ele>135.6</ele>
        <time>2021-05-23T09:08:57Z</time>
      </trkpt>
      <trkpt lat="49.45914" lon="1.07965">
        <ele>135.2</ele>
        <time>2021-05-23T09:08:58Z</time>
      </trkpt>
      <trkpt lat="49.45911" lon="1.0796">
        <ele>134.6</ele>
        <time>2021-05-23T09:09:00Z</time>
      </trkpt>
      <trkpt lat="49.45909" lon="1.07955">
        <ele>134.2</ele>
        <time>2021-05-23T09:09:01Z</time>
      </trkpt>
      <trkpt lat="49.45908" lon="1.07952">
        <ele>133.7</ele>
        <time>2021-05-23T09:09:02Z</time>
      </trkpt>
      <trkpt lat="49.45908" lon="1.07948">
        <ele>133.3</ele>
        <time>2021-05-23T09:09:03Z</time>
      </trkpt>
      <trkpt lat="49.45908" lon="1.07945">
        <ele>132.7</ele>
        <time>2021-05-23T09:09:05Z</time>
      </trkpt>
      <trkpt lat="49.45908" lon="1.07941">
        <ele>132.3</ele>
        <time>2021-05-23T09:09:07Z</time>
      </trkpt>
      <trkpt lat="49.45909" lon="1.07935">
        <ele>131.8</ele>
        <time>2021-05-23T09:09:08Z</time>
      </trkpt>
      <trkpt lat="49.4591" lon="1.07931">
        <ele>131.4</ele>
        <time>2021-05-23T09:09:09Z</time>
      </trkpt>
      <trkpt lat="49.45909" lon="1.07929">
        <ele>131</ele>
        <time>2021-05-23T09:09:11Z</time>
      </trkpt>
      <trkpt lat="49.45908" lon="1.07928">
        <ele>130.7</ele>
        <time>2021-05-23T09:09:12Z</time>
      </trkpt>
      <trkpt lat="49.4591" lon="1.07923">
        <ele>130.5</ele>
        <time>2021-05-23T09:09:14Z</time>
      </trkpt>
      <trkpt lat="49.4591" lon="1.07922">
        <ele>130.3</ele>
        <time>2021-05-23T09:09:15Z</time>
      </trkpt>
      <trkpt lat="49.45913" lon="1.07918">
        <ele>129.9</ele>
        <time>2021-05-23T09:09:17Z</time>
      </trkpt>
      <trkpt lat="49.45914" lon="1.07918">
        <ele>129.5</ele>
        <time>2021-05-23T09:09:18Z</time>
      </trkpt>
      <trkpt lat="49.45916" lon="1.07917">
        <ele>129</ele>
        <time>2021-05-23T09:09:19Z</time>
      </trkpt>
      <trkpt lat="49.4592" lon="1.07919">
        <ele>128.6</ele>
        <time>2021-05-23T09:09:21Z</time>
      </trkpt>
      <trkpt lat="49.45926" lon="1.0791">
        <ele>128.3</ele>
        <time>2021-05-23T09:09:22Z</time>
      </trkpt>
      <trkpt lat="49.45931" lon="1.07904">
        <ele>127.8</ele>
        <time>2021-05-23T09:09:23Z</time>
      </trkpt>
      <trkpt lat="49.45945" lon="1.07882">
        <ele>127.4</ele>
        <time>2021-05-23T09:09:25Z</time>
      </trkpt>
      <trkpt lat="49.45951" lon="1.07876">
        <ele>126.7</ele>
        <time>2021-05-23T09:09:26Z</time>
      </trkpt>
      <trkpt lat="49.45952" lon="1.07873">
        <ele>125.8</ele>
        <time>2021-05-23T09:09:29Z</time>
      </trkpt>
      <trkpt lat="49.45952" lon="1.07869">
        <ele>124.7</ele>
        <time>2021-05-23T09:09:30Z</time>
      </trkpt>
      <trkpt lat="49.45952" lon="1.07866">
        <ele>123.7</ele>
        <time>2021-05-23T09:09:31Z</time>
      </trkpt>
      <trkpt lat="49.45952" lon="1.07857">
        <ele>122.7</ele>
        <time>2021-05-23T09:09:32Z</time>
      </trkpt>
      <trkpt lat="49.45954" lon="1.07843">
        <ele>122</ele>
        <time>2021-05-23T09:09:34Z</time>
      </trkpt>
      <trkpt lat="49.45951" lon="1.07821">
        <ele>121.3</ele>
        <time>2021-05-23T09:09:35Z</time>
      </trkpt>
      <trkpt lat="49.45951" lon="1.0781">
        <ele>120.8</ele>
        <time>2021-05-23T09:09:37Z</time>
      </trkpt>
      <trkpt lat="49.45953" lon="1.07787">
        <ele>120.4</ele>
        <time>2021-05-23T09:09:38Z</time>
      </trkpt>
      <trkpt lat="49.45954" lon="1.07775">
        <ele>120.1</ele>
        <time>2021-05-23T09:09:40Z</time>
      </trkpt>
      <trkpt lat="49.45957" lon="1.07759">
        <ele>120</ele>
        <time>2021-05-23T09:09:41Z</time>
      </trkpt>
      <trkpt lat="49.45958" lon="1.0775">
        <ele>120</ele>
        <time>2021-05-23T09:09:42Z</time>
      </trkpt>
      <trkpt lat="49.45965" lon="1.07731">
        <ele>120.3</ele>
        <time>2021-05-23T09:09:44Z</time>
      </trkpt>
      <trkpt lat="49.45968" lon="1.07723">
        <ele>120.6</ele>
        <time>2021-05-23T09:09:45Z</time>
      </trkpt>
      <trkpt lat="49.45971" lon="1.07713">
        <ele>121.2</ele>
        <time>2021-05-23T09:09:47Z</time>
      </trkpt>
      <trkpt lat="49.45973" lon="1.07705">
        <ele>121.8</ele>
        <time>2021-05-23T09:09:48Z</time>
      </trkpt>
      <trkpt lat="49.45972" lon="1.07693">
        <ele>122.4</ele>
        <time>2021-05-23T09:09:50Z</time>
      </trkpt>
      <trkpt lat="49.45973" lon="1.07687">
        <ele>122.9</ele>
        <time>2021-05-23T09:09:51Z</time>
      </trkpt>
      <trkpt lat="49.45976" lon="1.07674">
        <ele>123.2</ele>
        <time>2021-05-23T09:09:52Z</time>
      </trkpt>
      <trkpt lat="49.45978" lon="1.0766">
        <ele>123.5</ele>
        <time>2021-05-23T09:09:53Z</time>
      </trkpt>
      <trkpt lat="49.45978" lon="1.0764">
        <ele>123.7</ele>
        <time>2021-05-23T09:09:55Z</time>
      </trkpt>
      <trkpt lat="49.45978" lon="1.07635">
        <ele>123.9</ele>
        <time>2021-05-23T09:09:56Z</time>
      </trkpt>
      <trkpt lat="49.45975" lon="1.07621">
        <ele>124.1</ele>
        <time>2021-05-23T09:09:58Z</time>
      </trkpt>
      <trkpt lat="49.4597" lon="1.07606">
        <ele>124.4</ele>
        <time>2021-05-23T09:09:59Z</time>
      </trkpt>
      <trkpt lat="49.45964" lon="1.076">
        <ele>124.6</ele>
        <time>2021-05-23T09:10:01Z</time>
      </trkpt>
      <trkpt lat="49.45963" lon="1.07596">
        <ele>124.8</ele>
        <time>2021-05-23T09:10:02Z</time>
      </trkpt>
      <trkpt lat="49.45955" lon="1.07591">
        <ele>125</ele>
        <time>2021-05-23T09:10:04Z</time>
      </trkpt>
      <trkpt lat="49.45949" lon="1.07589">
        <ele>125.2</ele>
        <time>2021-05-23T09:10:05Z</time>
      </trkpt>
      <trkpt lat="49.45945" lon="1.07588">
        <ele>125.4</ele>
        <time>2021-05-23T09:10:06Z</time>
      </trkpt>
      <trkpt lat="49.45942" lon="1.07588">
        <ele>125.5</ele>
        <time>2021-05-23T09:10:07Z</time>
      </trkpt>
      <trkpt lat="49.45938" lon="1.07587">
        <ele>125.7</ele>
        <time>2021-05-23T09:10:09Z</time>
      </trkpt>
      <trkpt lat="49.45937" lon="1.07587">
        <ele>125.8</ele>
        <time>2021-05-23T09:10:10Z</time>
      </trkpt>
      <trkpt lat="49.45935" lon="1.07586">
        <ele>125.9</ele>
        <time>2021-05-23T09:10:11Z</time>
      </trkpt>
      <trkpt lat="49.45934" lon="1.07586">
        <ele>126</ele>
        <time>2021-05-23T09:10:12Z</time>
      </trkpt>
      <trkpt lat="49.45932" lon="1.07589">
        <ele>126</ele>
        <time>2021-05-23T09:10:14Z</time>
      </trkpt>
      <trkpt lat="49.45929" lon="1.0759">
        <ele>125.9</ele>
        <time>2021-05-23T09:10:15Z</time>
      </trkpt>
      <trkpt lat="49.45925" lon="1.07593">
        <ele>125.8</ele>
        <time>2021-05-23T09:10:18Z</time>
      </trkpt>
      <trkpt lat="49.45923" lon="1.07596">
        <ele>125.7</ele>
        <time>2021-05-23T09:10:19Z</time>
      </trkpt>
      <trkpt lat="49.45922" lon="1.07597">
        <ele>125.6</ele>
        <time>2021-05-23T09:10:20Z</time>
      </trkpt>
      <trkpt lat="49.45919" lon="1.07599">
        <ele>125.5</ele>
        <time>2021-05-23T09:10:22Z</time>
      </trkpt>
      <trkpt lat="49.45918" lon="1.07603">
        <ele>125.5</ele>
        <time>2021-05-23T09:10:23Z</time>
      </trkpt>
      <trkpt lat="49.45916" lon="1.07607">
        <ele>125.4</ele>
        <time>2021-05-23T09:10:24Z</time>
      </trkpt>
      <trkpt lat="49.45914" lon="1.07608">
        <ele>125.3</ele>
        <time>2021-05-23T09:10:25Z</time>
      </trkpt>
      <trkpt lat="49.45912" lon="1.07609">
        <ele>125.1</ele>
        <time>2021-05-23T09:10:27Z</time>
      </trkpt>
      <trkpt lat="49.45911" lon="1.07609">
        <ele>124.9</ele>
        <time>2021-05-23T09:10:28Z</time>
      </trkpt>
      <trkpt lat="49.45907" lon="1.07612">
        <ele>124.7</ele>
        <time>2021-05-23T09:10:30Z</time>
      </trkpt>
      <trkpt lat="49.45906" lon="1.07613">
        <ele>124.6</ele>
        <time>2021-05-23T09:10:31Z</time>
      </trkpt>
      <trkpt lat="49.45905" lon="1.07614">
        <ele>124.5</ele>
        <time>2021-05-23T09:10:32Z</time>
      </trkpt>
      <trkpt lat="49.45903" lon="1.07616">
        <ele>124.5</ele>
        <time>2021-05-23T09:10:33Z</time>
      </trkpt>
      <trkpt lat="49.45901" lon="1.07617">
        <ele>124.4</ele>
        <time>2021-05-23T09:10:35Z</time>
      </trkpt>
      <trkpt lat="49.45898" lon="1.07618">
        <ele>124.3</ele>
        <time>2021-05-23T09:10:36Z</time>
      </trkpt>
      <trkpt lat="49.45897" lon="1.07619">
        <ele>124.2</ele>
        <time>2021-05-23T09:10:37Z</time>
      </trkpt>
      <trkpt lat="49.45894" lon="1.0762">
        <ele>124.1</ele>
        <time>2021-05-23T09:10:38Z</time>
      </trkpt>
      <trkpt lat="49.45893" lon="1.07621">
        <ele>124</ele>
        <time>2021-05-23T09:10:39Z</time>
      </trkpt>
      <trkpt lat="49.45891" lon="1.07621">
        <ele>124</ele>
        <time>2021-05-23T09:10:41Z</time>
      </trkpt>
      <trkpt lat="49.45889" lon="1.07622">
        <ele>124</ele>
        <time>2021-05-23T09:10:42Z</time>
      </trkpt>
      <trkpt lat="49.45887" lon="1.07622">
        <ele>124</ele>
        <time>2021-05-23T09:10:43Z</time>
      </trkpt>
      <trkpt lat="49.45884" lon="1.07623">
        <ele>124.1</ele>
        <time>2021-05-23T09:10:45Z</time>
      </trkpt>
      <trkpt lat="49.45882" lon="1.07624">
        <ele>124.2</ele>
        <time>2021-05-23T09:10:47Z</time>
      </trkpt>
      <trkpt lat="49.4588" lon="1.07624">
        <ele>124.3</ele>
        <time>2021-05-23T09:10:48Z</time>
      </trkpt>
      <trkpt lat="49.45878" lon="1.07623">
        <ele>124.5</ele>
        <time>2021-05-23T09:10:49Z</time>
      </trkpt>
      <trkpt lat="49.45875" lon="1.07623">
        <ele>124.6</ele>
        <time>2021-05-23T09:10:51Z</time>
      </trkpt>
      <trkpt lat="49.45873" lon="1.07622">
        <ele>124.9</ele>
        <time>2021-05-23T09:10:52Z</time>
      </trkpt>
      <trkpt lat="49.45872" lon="1.07621">
        <ele>125.2</ele>
        <time>2021-05-23T09:10:53Z</time>
      </trkpt>
      <trkpt lat="49.45869" lon="1.0762">
        <ele>125.5</ele>
        <time>2021-05-23T09:10:54Z</time>
      </trkpt>
      <trkpt lat="49.45868" lon="1.0762">
        <ele>125.9</ele>
        <time>2021-05-23T09:10:55Z</time>
      </trkpt>
      <trkpt lat="49.45866" lon="1.07619">
        <ele>126.3</ele>
        <time>2021-05-23T09:10:56Z</time>
      </trkpt>
      <trkpt lat="49.45862" lon="1.07618">
        <ele>126.6</ele>
        <time>2021-05-23T09:10:58Z</time>
      </trkpt>
      <trkpt lat="49.45858" lon="1.07614">
        <ele>127</ele>
        <time>2021-05-23T09:11:00Z</time>
      </trkpt>
      <trkpt lat="49.45855" lon="1.07611">
        <ele>127.4</ele>
        <time>2021-05-23T09:11:01Z</time>
      </trkpt>
      <trkpt lat="49.45853" lon="1.07609">
        <ele>127.7</ele>
        <time>2021-05-23T09:11:02Z</time>
      </trkpt>
      <trkpt lat="49.45851" lon="1.07605">
        <ele>128.1</ele>
        <time>2021-05-23T09:11:05Z</time>
      </trkpt>
      <trkpt lat="49.4585" lon="1.07601">
        <ele>128.5</ele>
        <time>2021-05-23T09:11:06Z</time>
      </trkpt>
      <trkpt lat="49.45851" lon="1.07598">
        <ele>128.7</ele>
        <time>2021-05-23T09:11:08Z</time>
      </trkpt>
      <trkpt lat="49.45851" lon="1.07596">
        <ele>129</ele>
        <time>2021-05-23T09:11:09Z</time>
      </trkpt>
      <trkpt lat="49.45849" lon="1.07594">
        <ele>129.2</ele>
        <time>2021-05-23T09:11:11Z</time>
      </trkpt>
      <trkpt lat="49.45848" lon="1.07593">
        <ele>129.4</ele>
        <time>2021-05-23T09:11:12Z</time>
      </trkpt>
      <trkpt lat="49.45847" lon="1.0759">
        <ele>129.6</ele>
        <time>2021-05-23T09:11:14Z</time>
      </trkpt>
      <trkpt lat="49.45846" lon="1.07589">
        <ele>129.9</ele>
        <time>2021-05-23T09:11:15Z</time>
      </trkpt>
      <trkpt lat="49.45845" lon="1.07588">
        <ele>130.1</ele>
        <time>2021-05-23T09:11:16Z</time>
      </trkpt>
      <trkpt lat="49.45844" lon="1.07586">
        <ele>130.3</ele>
        <time>2021-05-23T09:11:18Z</time>
      </trkpt>
      <trkpt lat="49.45844" lon="1.07584">
        <ele>130.5</ele>
        <time>2021-05-23T09:11:19Z</time>
      </trkpt>
      <trkpt lat="49.45844" lon="1.0758">
        <ele>130.5</ele>
        <time>2021-05-23T09:11:21Z</time>
      </trkpt>
      <trkpt lat="49.45843" lon="1.07579">
        <ele>130.6</ele>
        <time>2021-05-23T09:11:22Z</time>
      </trkpt>
      <trkpt lat="49.45843" lon="1.07577">
        <ele>130.7</ele>
        <time>2021-05-23T09:11:23Z</time>
      </trkpt>
      <trkpt lat="49.45843" lon="1.07576">
        <ele>130.8</ele>
        <time>2021-05-23T09:11:24Z</time>
      </trkpt>
      <trkpt lat="49.45843" lon="1.07577">
        <ele>130.9</ele>
        <time>2021-05-23T09:11:25Z</time>
      </trkpt>
      <trkpt lat="49.45842" lon="1.07577">
        <ele>131</ele>
        <time>2021-05-23T09:11:27Z</time>
      </trkpt>
      <trkpt lat="49.45842" lon="1.07577">
        <ele>131</ele>
        <time>2021-05-23T09:11:28Z</time>
      </trkpt>
      <trkpt lat="49.45841" lon="1.07575">
        <ele>131</ele>
        <time>2021-05-23T09:11:29Z</time>
      </trkpt>
      <trkpt lat="49.45842" lon="1.07573">
        <ele>131.1</ele>
        <time>2021-05-23T09:11:31Z</time>
      </trkpt>
      <trkpt lat="49.45842" lon="1.07571">
        <ele>131.2</ele>
        <time>2021-05-23T09:11:32Z</time>
      </trkpt>
      <trkpt lat="49.45841" lon="1.07569">
        <ele>131.3</ele>
        <time>2021-05-23T09:11:34Z</time>
      </trkpt>
      <trkpt lat="49.4584" lon="1.07567">
        <ele>131.4</ele>
        <time>2021-05-23T09:11:35Z</time>
      </trkpt>
      <trkpt lat="49.45839" lon="1.07565">
        <ele>131.5</ele>
        <time>2021-05-23T09:11:36Z</time>
      </trkpt>
      <trkpt lat="49.45839" lon="1.07563">
        <ele>131.5</ele>
        <time>2021-05-23T09:11:37Z</time>
      </trkpt>
      <trkpt lat="49.45838" lon="1.07561">
        <ele>131.6</ele>
        <time>2021-05-23T09:11:39Z</time>
      </trkpt>
      <trkpt lat="49.45836" lon="1.07557">
        <ele>131.7</ele>
        <time>2021-05-23T09:11:40Z</time>
      </trkpt>
      <trkpt lat="49.45836" lon="1.07555">
        <ele>131.9</ele>
        <time>2021-05-23T09:11:41Z</time>
      </trkpt>
      <trkpt lat="49.45835" lon="1.07553">
        <ele>132.1</ele>
        <time>2021-05-23T09:11:42Z</time>
      </trkpt>
      <trkpt lat="49.45835" lon="1.07549">
        <ele>132.3</ele>
        <time>2021-05-23T09:11:44Z</time>
      </trkpt>
      <trkpt lat="49.45834" lon="1.07543">
        <ele>132.4</ele>
        <time>2021-05-23T09:11:46Z</time>
      </trkpt>
      <trkpt lat="49.45833" lon="1.07541">
        <ele>132.5</ele>
        <time>2021-05-23T09:11:47Z</time>
      </trkpt>
      <trkpt lat="49.45833" lon="1.0754">
        <ele>132.7</ele>
        <time>2021-05-23T09:11:48Z</time>
      </trkpt>
      <trkpt lat="49.45833" lon="1.07536">
        <ele>132.9</ele>
        <time>2021-05-23T09:11:49Z</time>
      </trkpt>
      <trkpt lat="49.45832" lon="1.07531">
        <ele>133.1</ele>
        <time>2021-05-23T09:11:51Z</time>
      </trkpt>
      <trkpt lat="49.4583" lon="1.07522">
        <ele>133.3</ele>
        <time>2021-05-23T09:11:54Z</time>
      </trkpt>
      <trkpt lat="49.45829" lon="1.07517">
        <ele>133.5</ele>
        <time>2021-05-23T09:11:55Z</time>
      </trkpt>
      <trkpt lat="49.45828" lon="1.07509">
        <ele>133.6</ele>
        <time>2021-05-23T09:11:57Z</time>
      </trkpt>
      <trkpt lat="49.45826" lon="1.07504">
        <ele>133.8</ele>
        <time>2021-05-23T09:11:58Z</time>
      </trkpt>
      <trkpt lat="49.45824" lon="1.07498">
        <ele>134</ele>
        <time>2021-05-23T09:12:00Z</time>
      </trkpt>
      <trkpt lat="49.45823" lon="1.07492">
        <ele>134.2</ele>
        <time>2021-05-23T09:12:01Z</time>
      </trkpt>
      <trkpt lat="49.45822" lon="1.0749">
        <ele>134.5</ele>
        <time>2021-05-23T09:12:02Z</time>
      </trkpt>
      <trkpt lat="49.45822" lon="1.07487">
        <ele>134.6</ele>
        <time>2021-05-23T09:12:03Z</time>
      </trkpt>
      <trkpt lat="49.45821" lon="1.07481">
        <ele>134.8</ele>
        <time>2021-05-23T09:12:05Z</time>
      </trkpt>
      <trkpt lat="49.4582" lon="1.07476">
        <ele>135.1</ele>
        <time>2021-05-23T09:12:06Z</time>
      </trkpt>
      <trkpt lat="49.45819" lon="1.07471">
        <ele>135.4</ele>
        <time>2021-05-23T09:12:07Z</time>
      </trkpt>
      <trkpt lat="49.45818" lon="1.07467">
        <ele>135.7</ele>
        <time>2021-05-23T09:12:08Z</time>
      </trkpt>
      <trkpt lat="49.45816" lon="1.07464">
        <ele>136</ele>
        <time>2021-05-23T09:12:09Z</time>
      </trkpt>
      <trkpt lat="49.45814" lon="1.07456">
        <ele>136.3</ele>
        <time>2021-05-23T09:12:11Z</time>
      </trkpt>
      <trkpt lat="49.45812" lon="1.07449">
        <ele>136.5</ele>
        <time>2021-05-23T09:12:13Z</time>
      </trkpt>
      <trkpt lat="49.45808" lon="1.07432">
        <ele>136.6</ele>
        <time>2021-05-23T09:12:14Z</time>
      </trkpt>
      <trkpt lat="49.45806" lon="1.07421">
        <ele>136.7</ele>
        <time>2021-05-23T09:12:16Z</time>
      </trkpt>
      <trkpt lat="49.45804" lon="1.07417">
        <ele>136.6</ele>
        <time>2021-05-23T09:12:17Z</time>
      </trkpt>
      <trkpt lat="49.45803" lon="1.07411">
        <ele>136.5</ele>
        <time>2021-05-23T09:12:19Z</time>
      </trkpt>
      <trkpt lat="49.45801" lon="1.07405">
        <ele>136.5</ele>
        <time>2021-05-23T09:12:20Z</time>
      </trkpt>
      <trkpt lat="49.45799" lon="1.074">
        <ele>136.5</ele>
        <time>2021-05-23T09:12:21Z</time>
      </trkpt>
      <trkpt lat="49.45796" lon="1.07396">
        <ele>136.5</ele>
        <time>2021-05-23T09:12:22Z</time>
      </trkpt>
      <trkpt lat="49.45792" lon="1.07386">
        <ele>136.4</ele>
        <time>2021-05-23T09:12:24Z</time>
      </trkpt>
      <trkpt lat="49.45792" lon="1.07381">
        <ele>136.4</ele>
        <time>2021-05-23T09:12:25Z</time>
      </trkpt>
      <trkpt lat="49.45794" lon="1.07377">
        <ele>136.4</ele>
        <time>2021-05-23T09:12:26Z</time>
      </trkpt>
      <trkpt lat="49.45795" lon="1.07371">
        <ele>136.4</ele>
        <time>2021-05-23T09:12:27Z</time>
      </trkpt>
      <trkpt lat="49.45796" lon="1.07369">
        <ele>136.4</ele>
        <time>2021-05-23T09:12:28Z</time>
      </trkpt>
      <trkpt lat="49.45797" lon="1.07364">
        <ele>136.5</ele>
        <time>2021-05-23T09:12:30Z</time>
      </trkpt>
      <trkpt lat="49.45797" lon="1.07358">
        <ele>136.5</ele>
        <time>2021-05-23T09:12:31Z</time>
      </trkpt>
      <trkpt lat="49.45797" lon="1.07356">
        <ele>136.5</ele>
        <time>2021-05-23T09:12:32Z</time>
      </trkpt>
      <trkpt lat="49.45797" lon="1.07352">
        <ele>136.2</ele>
        <time>2021-05-23T09:12:33Z</time>
      </trkpt>
      <trkpt lat="49.45798" lon="1.07347">
        <ele>135.9</ele>
        <time>2021-05-23T09:12:35Z</time>
      </trkpt>
      <trkpt lat="49.45799" lon="1.07339">
        <ele>135.5</ele>
        <time>2021-05-23T09:12:36Z</time>
      </trkpt>
      <trkpt lat="49.45798" lon="1.07333">
        <ele>135</ele>
        <time>2021-05-23T09:12:37Z</time>
      </trkpt>
      <trkpt lat="49.45795" lon="1.07319">
        <ele>134.5</ele>
        <time>2021-05-23T09:12:38Z</time>
      </trkpt>
      <trkpt lat="49.45792" lon="1.07311">
        <ele>133.8</ele>
        <time>2021-05-23T09:12:40Z</time>
      </trkpt>
      <trkpt lat="49.45791" lon="1.07307">
        <ele>133.2</ele>
        <time>2021-05-23T09:12:41Z</time>
      </trkpt>
      <trkpt lat="49.4579" lon="1.07304">
        <ele>132.5</ele>
        <time>2021-05-23T09:12:43Z</time>
      </trkpt>
      <trkpt lat="49.45784" lon="1.07295">
        <ele>131.7</ele>
        <time>2021-05-23T09:12:45Z</time>
      </trkpt>
      <trkpt lat="49.4578" lon="1.07287">
        <ele>130.9</ele>
        <time>2021-05-23T09:12:46Z</time>
      </trkpt>
      <trkpt lat="49.45778" lon="1.07281">
        <ele>130.2</ele>
        <time>2021-05-23T09:12:47Z</time>
      </trkpt>
      <trkpt lat="49.45777" lon="1.07277">
        <ele>129.5</ele>
        <time>2021-05-23T09:12:48Z</time>
      </trkpt>
      <trkpt lat="49.45775" lon="1.07276">
        <ele>128.8</ele>
        <time>2021-05-23T09:12:49Z</time>
      </trkpt>
      <trkpt lat="49.45765" lon="1.07267">
        <ele>128.2</ele>
        <time>2021-05-23T09:12:51Z</time>
      </trkpt>
      <trkpt lat="49.45758" lon="1.07261">
        <ele>127.8</ele>
        <time>2021-05-23T09:12:53Z</time>
      </trkpt>
      <trkpt lat="49.45755" lon="1.07256">
        <ele>127.5</ele>
        <time>2021-05-23T09:12:54Z</time>
      </trkpt>
      <trkpt lat="49.45752" lon="1.0725">
        <ele>127.4</ele>
        <time>2021-05-23T09:12:55Z</time>
      </trkpt>
      <trkpt lat="49.45751" lon="1.07246">
        <ele>127.3</ele>
        <time>2021-05-23T09:12:57Z</time>
      </trkpt>
      <trkpt lat="49.45752" lon="1.07241">
        <ele>127.2</ele>
        <time>2021-05-23T09:12:58Z</time>
      </trkpt>
      <trkpt lat="49.45753" lon="1.07236">
        <ele>127.3</ele>
        <time>2021-05-23T09:12:59Z</time>
      </trkpt>
      <trkpt lat="49.45754" lon="1.07231">
        <ele>127.5</ele>
        <time>2021-05-23T09:13:00Z</time>
      </trkpt>
      <trkpt lat="49.45753" lon="1.07224">
        <ele>127.7</ele>
        <time>2021-05-23T09:13:02Z</time>
      </trkpt>
      <trkpt lat="49.45752" lon="1.07219">
        <ele>128</ele>
        <time>2021-05-23T09:13:03Z</time>
      </trkpt>
      <trkpt lat="49.45752" lon="1.07216">
        <ele>128.1</ele>
        <time>2021-05-23T09:13:04Z</time>
      </trkpt>
      <trkpt lat="49.45751" lon="1.07209">
        <ele>128.2</ele>
        <time>2021-05-23T09:13:06Z</time>
      </trkpt>
      <trkpt lat="49.45751" lon="1.07205">
        <ele>128.1</ele>
        <time>2021-05-23T09:13:07Z</time>
      </trkpt>
      <trkpt lat="49.45749" lon="1.07198">
        <ele>127.9</ele>
        <time>2021-05-23T09:13:09Z</time>
      </trkpt>
      <trkpt lat="49.45743" lon="1.07188">
        <ele>127.7</ele>
        <time>2021-05-23T09:13:10Z</time>
      </trkpt>
      <trkpt lat="49.45739" lon="1.07182">
        <ele>127.5</ele>
        <time>2021-05-23T09:13:11Z</time>
      </trkpt>
      <trkpt lat="49.45737" lon="1.0718">
        <ele>127.2</ele>
        <time>2021-05-23T09:13:13Z</time>
      </trkpt>
      <trkpt lat="49.45735" lon="1.07179">
        <ele>126.9</ele>
        <time>2021-05-23T09:13:14Z</time>
      </trkpt>
      <trkpt lat="49.45732" lon="1.07176">
        <ele>126.7</ele>
        <time>2021-05-23T09:13:16Z</time>
      </trkpt>
      <trkpt lat="49.4573" lon="1.07172">
        <ele>126.5</ele>
        <time>2021-05-23T09:13:18Z</time>
      </trkpt>
      <trkpt lat="49.4573" lon="1.07169">
        <ele>126.5</ele>
        <time>2021-05-23T09:13:19Z</time>
      </trkpt>
      <trkpt lat="49.45729" lon="1.07163">
        <ele>126.7</ele>
        <time>2021-05-23T09:13:21Z</time>
      </trkpt>
      <trkpt lat="49.45728" lon="1.0716">
        <ele>127</ele>
        <time>2021-05-23T09:13:22Z</time>
      </trkpt>
      <trkpt lat="49.45727" lon="1.07153">
        <ele>127.5</ele>
        <time>2021-05-23T09:13:24Z</time>
      </trkpt>
      <trkpt lat="49.45727" lon="1.07147">
        <ele>127.9</ele>
        <time>2021-05-23T09:13:25Z</time>
      </trkpt>
      <trkpt lat="49.45726" lon="1.07139">
        <ele>128.5</ele>
        <time>2021-05-23T09:13:26Z</time>
      </trkpt>
      <trkpt lat="49.45725" lon="1.07129">
        <ele>129.1</ele>
        <time>2021-05-23T09:13:28Z</time>
      </trkpt>
      <trkpt lat="49.45724" lon="1.07121">
        <ele>129.8</ele>
        <time>2021-05-23T09:13:29Z</time>
      </trkpt>
      <trkpt lat="49.45723" lon="1.07114">
        <ele>130.5</ele>
        <time>2021-05-23T09:13:31Z</time>
      </trkpt>
      <trkpt lat="49.45723" lon="1.07108">
        <ele>131.2</ele>
        <time>2021-05-23T09:13:32Z</time>
      </trkpt>
      <trkpt lat="49.45723" lon="1.07104">
        <ele>131.8</ele>
        <time>2021-05-23T09:13:33Z</time>
      </trkpt>
      <trkpt lat="49.45723" lon="1.07099">
        <ele>132.5</ele>
        <time>2021-05-23T09:13:34Z</time>
      </trkpt>
      <trkpt lat="49.4572" lon="1.07085">
        <ele>133</ele>
        <time>2021-05-23T09:13:36Z</time>
      </trkpt>
      <trkpt lat="49.45719" lon="1.0708">
        <ele>133.5</ele>
        <time>2021-05-23T09:13:37Z</time>
      </trkpt>
      <trkpt lat="49.45716" lon="1.07074">
        <ele>133.9</ele>
        <time>2021-05-23T09:13:38Z</time>
      </trkpt>
      <trkpt lat="49.45716" lon="1.07072">
        <ele>134.4</ele>
        <time>2021-05-23T09:13:39Z</time>
      </trkpt>
      <trkpt lat="49.45713" lon="1.07064">
        <ele>134.7</ele>
        <time>2021-05-23T09:13:41Z</time>
      </trkpt>
      <trkpt lat="49.45714" lon="1.07059">
        <ele>135</ele>
        <time>2021-05-23T09:13:42Z</time>
      </trkpt>
      <trkpt lat="49.45714" lon="1.07057">
        <ele>135.2</ele>
        <time>2021-05-23T09:13:43Z</time>
      </trkpt>
      <trkpt lat="49.45714" lon="1.07051">
        <ele>135.5</ele>
        <time>2021-05-23T09:13:44Z</time>
      </trkpt>
      <trkpt lat="49.45713" lon="1.07048">
        <ele>135.7</ele>
        <time>2021-05-23T09:13:45Z</time>
      </trkpt>
      <trkpt lat="49.45712" lon="1.07042">
        <ele>136</ele>
        <time>2021-05-23T09:13:46Z</time>
      </trkpt>
      <trkpt lat="49.45709" lon="1.07034">
        <ele>136.2</ele>
        <time>2021-05-23T09:13:48Z</time>
      </trkpt>
      <trkpt lat="49.45708" lon="1.07026">
        <ele>136.4</ele>
        <time>2021-05-23T09:13:49Z</time>
      </trkpt>
      <trkpt lat="49.45707" lon="1.07019">
        <ele>136.5</ele>
        <time>2021-05-23T09:13:50Z</time>
      </trkpt>
      <trkpt lat="49.45705" lon="1.07006">
        <ele>136.6</ele>
        <time>2021-05-23T09:13:52Z</time>
      </trkpt>
      <trkpt lat="49.45704" lon="1.07">
        <ele>136.6</ele>
        <time>2021-05-23T09:13:53Z</time>
      </trkpt>
      <trkpt lat="49.45703" lon="1.0699">
        <ele>136.6</ele>
        <time>2021-05-23T09:13:54Z</time>
      </trkpt>
      <trkpt lat="49.45701" lon="1.06979">
        <ele>136.6</ele>
        <time>2021-05-23T09:13:56Z</time>
      </trkpt>
      <trkpt lat="49.457" lon="1.06972">
        <ele>136.6</ele>
        <time>2021-05-23T09:13:57Z</time>
      </trkpt>
      <trkpt lat="49.45699" lon="1.06965">
        <ele>136.5</ele>
        <time>2021-05-23T09:13:59Z</time>
      </trkpt>
      <trkpt lat="49.45697" lon="1.06958">
        <ele>136.5</ele>
        <time>2021-05-23T09:14:00Z</time>
      </trkpt>
      <trkpt lat="49.45697" lon="1.06951">
        <ele>136.3</ele>
        <time>2021-05-23T09:14:01Z</time>
      </trkpt>
      <trkpt lat="49.45696" lon="1.06945">
        <ele>136.1</ele>
        <time>2021-05-23T09:14:02Z</time>
      </trkpt>
      <trkpt lat="49.45693" lon="1.06936">
        <ele>135.9</ele>
        <time>2021-05-23T09:14:04Z</time>
      </trkpt>
      <trkpt lat="49.45691" lon="1.06931">
        <ele>135.7</ele>
        <time>2021-05-23T09:14:05Z</time>
      </trkpt>
      <trkpt lat="49.45689" lon="1.06926">
        <ele>135.5</ele>
        <time>2021-05-23T09:14:07Z</time>
      </trkpt>
      <trkpt lat="49.45686" lon="1.06922">
        <ele>135.5</ele>
        <time>2021-05-23T09:14:09Z</time>
      </trkpt>
      <trkpt lat="49.45686" lon="1.06922">
        <ele>135.3</ele>
        <time>2021-05-23T09:14:10Z</time>
      </trkpt>
      <trkpt lat="49.45684" lon="1.0692">
        <ele>135.1</ele>
        <time>2021-05-23T09:14:11Z</time>
      </trkpt>
      <trkpt lat="49.45682" lon="1.06917">
        <ele>134.9</ele>
        <time>2021-05-23T09:14:13Z</time>
      </trkpt>
      <trkpt lat="49.45681" lon="1.06917">
        <ele>134.7</ele>
        <time>2021-05-23T09:14:14Z</time>
      </trkpt>
      <trkpt lat="49.45681" lon="1.06917">
        <ele>134.5</ele>
        <time>2021-05-23T09:14:16Z</time>
      </trkpt>
      <trkpt lat="49.4568" lon="1.06917">
        <ele>134.5</ele>
        <time>2021-05-23T09:14:17Z</time>
      </trkpt>
      <trkpt lat="49.4568" lon="1.06916">
        <ele>134.4</ele>
        <time>2021-05-23T09:14:18Z</time>
      </trkpt>
      <trkpt lat="49.4568" lon="1.06916">
        <ele>134.3</ele>
        <time>2021-05-23T09:14:20Z</time>
      </trkpt>
      <trkpt lat="49.4568" lon="1.06915">
        <ele>134.2</ele>
        <time>2021-05-23T09:14:22Z</time>
      </trkpt>
      <trkpt lat="49.4568" lon="1.06914">
        <ele>134.1</ele>
        <time>2021-05-23T09:14:23Z</time>
      </trkpt>
      <trkpt lat="49.4568" lon="1.06913">
        <ele>134</ele>
        <time>2021-05-23T09:14:24Z</time>
      </trkpt>
      <trkpt lat="49.45679" lon="1.06912">
        <ele>134</ele>
        <time>2021-05-23T09:14:26Z</time>
      </trkpt>
      <trkpt lat="49.45679" lon="1.06911">
        <ele>134</ele>
        <time>2021-05-23T09:14:28Z</time>
      </trkpt>
      <trkpt lat="49.45679" lon="1.0691">
        <ele>133.9</ele>
        <time>2021-05-23T09:14:29Z</time>
      </trkpt>
      <trkpt lat="49.45679" lon="1.0691">
        <ele>133.8</ele>
        <time>2021-05-23T09:14:30Z</time>
      </trkpt>
      <trkpt lat="49.45678" lon="1.0691">
        <ele>133.7</ele>
        <time>2021-05-23T09:14:32Z</time>
      </trkpt>
      <trkpt lat="49.45677" lon="1.06909">
        <ele>133.6</ele>
        <time>2021-05-23T09:14:33Z</time>
      </trkpt>
      <trkpt lat="49.45676" lon="1.06909">
        <ele>133.5</ele>
        <time>2021-05-23T09:14:35Z</time>
      </trkpt>
      <trkpt lat="49.45675" lon="1.06907">
        <ele>133.3</ele>
        <time>2021-05-23T09:14:36Z</time>
      </trkpt>
      <trkpt lat="49.45673" lon="1.06902">
        <ele>132.9</ele>
        <time>2021-05-23T09:14:37Z</time>
      </trkpt>
      <trkpt lat="49.45672" lon="1.06901">
        <ele>132.5</ele>
        <time>2021-05-23T09:14:38Z</time>
      </trkpt>
      <trkpt lat="49.4567" lon="1.06898">
        <ele>132</ele>
        <time>2021-05-23T09:14:39Z</time>
      </trkpt>
      <trkpt lat="49.45668" lon="1.06893">
        <ele>131.5</ele>
        <time>2021-05-23T09:14:40Z</time>
      </trkpt>
      <trkpt lat="49.45665" lon="1.06879">
        <ele>130.9</ele>
        <time>2021-05-23T09:14:42Z</time>
      </trkpt>
      <trkpt lat="49.4566" lon="1.06872">
        <ele>130.5</ele>
        <time>2021-05-23T09:14:44Z</time>
      </trkpt>
      <trkpt lat="49.45655" lon="1.06867">
        <ele>130</ele>
        <time>2021-05-23T09:14:46Z</time>
      </trkpt>
      <trkpt lat="49.45651" lon="1.06866">
        <ele>129.5</ele>
        <time>2021-05-23T09:14:47Z</time>
      </trkpt>
      <trkpt lat="49.45649" lon="1.06863">
        <ele>129.1</ele>
        <time>2021-05-23T09:14:48Z</time>
      </trkpt>
      <trkpt lat="49.4565" lon="1.06858">
        <ele>128.7</ele>
        <time>2021-05-23T09:14:50Z</time>
      </trkpt>
      <trkpt lat="49.4565" lon="1.06858">
        <ele>128.4</ele>
        <time>2021-05-23T09:14:51Z</time>
      </trkpt>
      <trkpt lat="49.4565" lon="1.06857">
        <ele>128.2</ele>
        <time>2021-05-23T09:14:52Z</time>
      </trkpt>
      <trkpt lat="49.4565" lon="1.06857">
        <ele>128.1</ele>
        <time>2021-05-23T09:14:53Z</time>
      </trkpt>
      <trkpt lat="49.4565" lon="1.06856">
        <ele>128</ele>
        <time>2021-05-23T09:14:55Z</time>
      </trkpt>
      <trkpt lat="49.4565" lon="1.06855">
        <ele>128</ele>
        <time>2021-05-23T09:14:56Z</time>
      </trkpt>
      <trkpt lat="49.4565" lon="1.06855">
        <ele>128</ele>
        <time>2021-05-23T09:14:58Z</time>
      </trkpt>
      <trkpt lat="49.4565" lon="1.06854">
        <ele>128</ele>
        <time>2021-05-23T09:15:00Z</time>
      </trkpt>
      <trkpt lat="49.4565" lon="1.06854">
        <ele>128</ele>
        <time>2021-05-23T09:15:02Z</time>
      </trkpt>
      <trkpt lat="49.4565" lon="1.06853">
        <ele>128</ele>
        <time>2021-05-23T09:15:04Z</time>
      </trkpt>
      <trkpt lat="49.4565" lon="1.06853">
        <ele>128</ele>
        <time>2021-05-23T09:20:19Z</time>
      </trkpt>
      <trkpt lat="49.4565" lon="1.06852">
        <ele>128</ele>
        <time>2021-05-23T09:20:21Z</time>
      </trkpt>
      <trkpt lat="49.4565" lon="1.06851">
        <ele>128</ele>
        <time>2021-05-23T09:20:23Z</time>
      </trkpt>
      <trkpt lat="49.4565" lon="1.06851">
        <ele>128</ele>
        <time>2021-05-23T09:20:24Z</time>
      </trkpt>
      <trkpt lat="49.4565" lon="1.0685">
        <ele>128</ele>
        <time>2021-05-23T09:20:25Z</time>
      </trkpt>
      <trkpt lat="49.45649" lon="1.0685">
        <ele>128.1</ele>
        <time>2021-05-23T09:20:26Z</time>
      </trkpt>
      <trkpt lat="49.45649" lon="1.06849">
        <ele>128.3</ele>
        <time>2021-05-23T09:20:28Z</time>
      </trkpt>
      <trkpt lat="49.45649" lon="1.06848">
        <ele>128.5</ele>
        <time>2021-05-23T09:20:29Z</time>
      </trkpt>
      <trkpt lat="49.4565" lon="1.06846">
        <ele>128.8</ele>
        <time>2021-05-23T09:20:30Z</time>
      </trkpt>
      <trkpt lat="49.45652" lon="1.06841">
        <ele>129.2</ele>
        <time>2021-05-23T09:20:32Z</time>
      </trkpt>
      <trkpt lat="49.45654" lon="1.06835">
        <ele>129.6</ele>
        <time>2021-05-23T09:20:33Z</time>
      </trkpt>
      <trkpt lat="49.45656" lon="1.06823">
        <ele>130.2</ele>
        <time>2021-05-23T09:20:34Z</time>
      </trkpt>
      <trkpt lat="49.45659" lon="1.06814">
        <ele>130.8</ele>
        <time>2021-05-23T09:20:37Z</time>
      </trkpt>
      <trkpt lat="49.45659" lon="1.06808">
        <ele>131.5</ele>
        <time>2021-05-23T09:20:38Z</time>
      </trkpt>
      <trkpt lat="49.45663" lon="1.06802">
        <ele>132.3</ele>
        <time>2021-05-23T09:20:39Z</time>
      </trkpt>
      <trkpt lat="49.45667" lon="1.06797">
        <ele>133.1</ele>
        <time>2021-05-23T09:20:41Z</time>
      </trkpt>
      <trkpt lat="49.45672" lon="1.06795">
        <ele>134</ele>
        <time>2021-05-23T09:20:42Z</time>
      </trkpt>
      <trkpt lat="49.45676" lon="1.0679">
        <ele>134.9</ele>
        <time>2021-05-23T09:20:43Z</time>
      </trkpt>
      <trkpt lat="49.45679" lon="1.06785">
        <ele>135.6</ele>
        <time>2021-05-23T09:20:45Z</time>
      </trkpt>
      <trkpt lat="49.4568" lon="1.06777">
        <ele>136.4</ele>
        <time>2021-05-23T09:20:46Z</time>
      </trkpt>
      <trkpt lat="49.45685" lon="1.06769">
        <ele>137</ele>
        <time>2021-05-23T09:20:48Z</time>
      </trkpt>
      <trkpt lat="49.4569" lon="1.06755">
        <ele>137.5</ele>
        <time>2021-05-23T09:20:50Z</time>
      </trkpt>
      <trkpt lat="49.45692" lon="1.06743">
        <ele>138</ele>
        <time>2021-05-23T09:20:51Z</time>
      </trkpt>
      <trkpt lat="49.45695" lon="1.06734">
        <ele>138.3</ele>
        <time>2021-05-23T09:20:53Z</time>
      </trkpt>
      <trkpt lat="49.45696" lon="1.0673">
        <ele>138.5</ele>
        <time>2021-05-23T09:20:54Z</time>
      </trkpt>
      <trkpt lat="49.45697" lon="1.06726">
        <ele>138.4</ele>
        <time>2021-05-23T09:20:55Z</time>
      </trkpt>
      <trkpt lat="49.45699" lon="1.06715">
        <ele>138.1</ele>
        <time>2021-05-23T09:20:57Z</time>
      </trkpt>
      <trkpt lat="49.45696" lon="1.06694">
        <ele>137.5</ele>
        <time>2021-05-23T09:20:59Z</time>
      </trkpt>
      <trkpt lat="49.45695" lon="1.06674">
        <ele>136.9</ele>
        <time>2021-05-23T09:21:01Z</time>
      </trkpt>
      <trkpt lat="49.45692" lon="1.06662">
        <ele>136.4</ele>
        <time>2021-05-23T09:21:02Z</time>
      </trkpt>
      <trkpt lat="49.45675" lon="1.06627">
        <ele>135.8</ele>
        <time>2021-05-23T09:21:03Z</time>
      </trkpt>
      <trkpt lat="49.4567" lon="1.06621">
        <ele>135.3</ele>
        <time>2021-05-23T09:21:05Z</time>
      </trkpt>
      <trkpt lat="49.45661" lon="1.06609">
        <ele>134.7</ele>
        <time>2021-05-23T09:21:07Z</time>
      </trkpt>
      <trkpt lat="49.45656" lon="1.066">
        <ele>134.2</ele>
        <time>2021-05-23T09:21:08Z</time>
      </trkpt>
      <trkpt lat="49.4565" lon="1.06584">
        <ele>133.7</ele>
        <time>2021-05-23T09:21:10Z</time>
      </trkpt>
      <trkpt lat="49.45649" lon="1.06577">
        <ele>133.3</ele>
        <time>2021-05-23T09:21:11Z</time>
      </trkpt>
      <trkpt lat="49.45648" lon="1.06568">
        <ele>133.2</ele>
        <time>2021-05-23T09:21:12Z</time>
      </trkpt>
      <trkpt lat="49.45649" lon="1.06551">
        <ele>133.2</ele>
        <time>2021-05-23T09:21:14Z</time>
      </trkpt>
      <trkpt lat="49.45653" lon="1.06542">
        <ele>133.3</ele>
        <time>2021-05-23T09:21:16Z</time>
      </trkpt>
      <trkpt lat="49.45656" lon="1.06535">
        <ele>133.4</ele>
        <time>2021-05-23T09:21:17Z</time>
      </trkpt>
      <trkpt lat="49.45659" lon="1.06522">
        <ele>133.4</ele>
        <time>2021-05-23T09:21:19Z</time>
      </trkpt>
      <trkpt lat="49.45657" lon="1.06512">
        <ele>133.3</ele>
        <time>2021-05-23T09:21:20Z</time>
      </trkpt>
      <trkpt lat="49.45651" lon="1.06497">
        <ele>133.1</ele>
        <time>2021-05-23T09:21:22Z</time>
      </trkpt>
      <trkpt lat="49.45648" lon="1.06492">
        <ele>132.9</ele>
        <time>2021-05-23T09:21:23Z</time>
      </trkpt>
      <trkpt lat="49.4564" lon="1.06474">
        <ele>132.6</ele>
        <time>2021-05-23T09:21:26Z</time>
      </trkpt>
      <trkpt lat="49.45637" lon="1.06465">
        <ele>132.3</ele>
        <time>2021-05-23T09:21:27Z</time>
      </trkpt>
      <trkpt lat="49.45624" lon="1.06455">
        <ele>131.9</ele>
        <time>2021-05-23T09:21:29Z</time>
      </trkpt>
      <trkpt lat="49.45619" lon="1.06453">
        <ele>131.4</ele>
        <time>2021-05-23T09:21:30Z</time>
      </trkpt>
      <trkpt lat="49.45615" lon="1.06452">
        <ele>130.7</ele>
        <time>2021-05-23T09:21:31Z</time>
      </trkpt>
      <trkpt lat="49.45606" lon="1.06438">
        <ele>130.1</ele>
        <time>2021-05-23T09:21:33Z</time>
      </trkpt>
      <trkpt lat="49.45596" lon="1.06429">
        <ele>129.5</ele>
        <time>2021-05-23T09:21:35Z</time>
      </trkpt>
      <trkpt lat="49.45592" lon="1.06424">
        <ele>129</ele>
        <time>2021-05-23T09:21:36Z</time>
      </trkpt>
      <trkpt lat="49.45579" lon="1.06413">
        <ele>128.6</ele>
        <time>2021-05-23T09:21:38Z</time>
      </trkpt>
      <trkpt lat="49.45572" lon="1.06407">
        <ele>128.5</ele>
        <time>2021-05-23T09:21:39Z</time>
      </trkpt>
      <trkpt lat="49.4556" lon="1.06398">
        <ele>128.2</ele>
        <time>2021-05-23T09:21:41Z</time>
      </trkpt>
      <trkpt lat="49.45549" lon="1.06388">
        <ele>127.9</ele>
        <time>2021-05-23T09:21:43Z</time>
      </trkpt>
      <trkpt lat="49.45543" lon="1.06382">
        <ele>127.5</ele>
        <time>2021-05-23T09:21:44Z</time>
      </trkpt>
      <trkpt lat="49.45531" lon="1.06373">
        <ele>127</ele>
        <time>2021-05-23T09:21:46Z</time>
      </trkpt>
      <trkpt lat="49.45528" lon="1.06372">
        <ele>126.4</ele>
        <time>2021-05-23T09:21:47Z</time>
      </trkpt>
      <trkpt lat="49.45521" lon="1.06368">
        <ele>125.8</ele>
        <time>2021-05-23T09:21:48Z</time>
      </trkpt>
      <trkpt lat="49.45508" lon="1.0636">
        <ele>125.2</ele>
        <time>2021-05-23T09:21:50Z</time>
      </trkpt>
      <trkpt lat="49.45498" lon="1.06349">
        <ele>124.6</ele>
        <time>2021-05-23T09:21:52Z</time>
      </trkpt>
      <trkpt lat="49.45494" lon="1.06341">
        <ele>124</ele>
        <time>2021-05-23T09:21:53Z</time>
      </trkpt>
      <trkpt lat="49.45487" lon="1.06327">
        <ele>123.3</ele>
        <time>2021-05-23T09:21:55Z</time>
      </trkpt>
      <trkpt lat="49.45485" lon="1.0632">
        <ele>122.5</ele>
        <time>2021-05-23T09:21:56Z</time>
      </trkpt>
      <trkpt lat="49.45485" lon="1.06311">
        <ele>121.7</ele>
        <time>2021-05-23T09:21:57Z</time>
      </trkpt>
      <trkpt lat="49.45487" lon="1.06304">
        <ele>121.1</ele>
        <time>2021-05-23T09:21:59Z</time>
      </trkpt>
      <trkpt lat="49.45488" lon="1.063">
        <ele>120.6</ele>
        <time>2021-05-23T09:22:00Z</time>
      </trkpt>
      <trkpt lat="49.45483" lon="1.06299">
        <ele>120.4</ele>
        <time>2021-05-23T09:22:02Z</time>
      </trkpt>
      <trkpt lat="49.45481" lon="1.06296">
        <ele>120.3</ele>
        <time>2021-05-23T09:22:03Z</time>
      </trkpt>
      <trkpt lat="49.45479" lon="1.06292">
        <ele>120.2</ele>
        <time>2021-05-23T09:22:04Z</time>
      </trkpt>
      <trkpt lat="49.45478" lon="1.06289">
        <ele>120.2</ele>
        <time>2021-05-23T09:22:05Z</time>
      </trkpt>
      <trkpt lat="49.4548" lon="1.06284">
        <ele>120.1</ele>
        <time>2021-05-23T09:22:07Z</time>
      </trkpt>
      <trkpt lat="49.45481" lon="1.06283">
        <ele>120</ele>
        <time>2021-05-23T09:22:08Z</time>
      </trkpt>
      <trkpt lat="49.45481" lon="1.06281">
        <ele>120</ele>
        <time>2021-05-23T09:22:09Z</time>
      </trkpt>
      <trkpt lat="49.4548" lon="1.06279">
        <ele>120</ele>
        <time>2021-05-23T09:22:10Z</time>
      </trkpt>
      <trkpt lat="49.45481" lon="1.06276">
        <ele>120</ele>
        <time>2021-05-23T09:22:11Z</time>
      </trkpt>
      <trkpt lat="49.45482" lon="1.06276">
        <ele>120</ele>
        <time>2021-05-23T09:22:14Z</time>
      </trkpt>
      <trkpt lat="49.45481" lon="1.06275">
        <ele>120</ele>
        <time>2021-05-23T09:22:15Z</time>
      </trkpt>
      <trkpt lat="49.45482" lon="1.06274">
        <ele>120</ele>
        <time>2021-05-23T09:22:17Z</time>
      </trkpt>
      <trkpt lat="49.45482" lon="1.06273">
        <ele>119.9</ele>
        <time>2021-05-23T09:22:18Z</time>
      </trkpt>
      <trkpt lat="49.45482" lon="1.06271">
        <ele>119.9</ele>
        <time>2021-05-23T09:22:19Z</time>
      </trkpt>
      <trkpt lat="49.45482" lon="1.06267">
        <ele>119.9</ele>
        <time>2021-05-23T09:22:21Z</time>
      </trkpt>
      <trkpt lat="49.45482" lon="1.06266">
        <ele>119.8</ele>
        <time>2021-05-23T09:22:22Z</time>
      </trkpt>
      <trkpt lat="49.45482" lon="1.06264">
        <ele>119.8</ele>
        <time>2021-05-23T09:22:23Z</time>
      </trkpt>
      <trkpt lat="49.45482" lon="1.0626">
        <ele>119.8</ele>
        <time>2021-05-23T09:22:25Z</time>
      </trkpt>
      <trkpt lat="49.45483" lon="1.06258">
        <ele>119.7</ele>
        <time>2021-05-23T09:22:26Z</time>
      </trkpt>
      <trkpt lat="49.45484" lon="1.06256">
        <ele>119.6</ele>
        <time>2021-05-23T09:22:27Z</time>
      </trkpt>
      <trkpt lat="49.45484" lon="1.06254">
        <ele>119.5</ele>
        <time>2021-05-23T09:22:28Z</time>
      </trkpt>
      <trkpt lat="49.45485" lon="1.06253">
        <ele>119.5</ele>
        <time>2021-05-23T09:22:29Z</time>
      </trkpt>
      <trkpt lat="49.45487" lon="1.06251">
        <ele>119.3</ele>
        <time>2021-05-23T09:22:31Z</time>
      </trkpt>
      <trkpt lat="49.45488" lon="1.06249">
        <ele>119.2</ele>
        <time>2021-05-23T09:22:32Z</time>
      </trkpt>
      <trkpt lat="49.4549" lon="1.06244">
        <ele>119</ele>
        <time>2021-05-23T09:22:34Z</time>
      </trkpt>
      <trkpt lat="49.45491" lon="1.0624">
        <ele>118.7</ele>
        <time>2021-05-23T09:22:35Z</time>
      </trkpt>
      <trkpt lat="49.45493" lon="1.06235">
        <ele>118.5</ele>
        <time>2021-05-23T09:22:37Z</time>
      </trkpt>
      <trkpt lat="49.45494" lon="1.06232">
        <ele>118.3</ele>
        <time>2021-05-23T09:22:38Z</time>
      </trkpt>
      <trkpt lat="49.45495" lon="1.06225">
        <ele>118</ele>
        <time>2021-05-23T09:22:40Z</time>
      </trkpt>
      <trkpt lat="49.45495" lon="1.06223">
        <ele>117.8</ele>
        <time>2021-05-23T09:22:41Z</time>
      </trkpt>
      <trkpt lat="49.45495" lon="1.06221">
        <ele>117.6</ele>
        <time>2021-05-23T09:22:42Z</time>
      </trkpt>
      <trkpt lat="49.45496" lon="1.06219">
        <ele>117.5</ele>
        <time>2021-05-23T09:22:43Z</time>
      </trkpt>
      <trkpt lat="49.45496" lon="1.0622">
        <ele>117.3</ele>
        <time>2021-05-23T09:22:45Z</time>
      </trkpt>
      <trkpt lat="49.45496" lon="1.0622">
        <ele>117.2</ele>
        <time>2021-05-23T09:22:46Z</time>
      </trkpt>
      <trkpt lat="49.45496" lon="1.0622">
        <ele>117.1</ele>
        <time>2021-05-23T09:22:48Z</time>
      </trkpt>
      <trkpt lat="49.45496" lon="1.06219">
        <ele>117</ele>
        <time>2021-05-23T09:22:50Z</time>
      </trkpt>
      <trkpt lat="49.45495" lon="1.0622">
        <ele>117.1</ele>
        <time>2021-05-23T09:22:52Z</time>
      </trkpt>
      <trkpt lat="49.45496" lon="1.0622">
        <ele>117.2</ele>
        <time>2021-05-23T09:22:53Z</time>
      </trkpt>
      <trkpt lat="49.45496" lon="1.0622">
        <ele>117.3</ele>
        <time>2021-05-23T09:22:54Z</time>
      </trkpt>
      <trkpt lat="49.45495" lon="1.0622">
        <ele>117.4</ele>
        <time>2021-05-23T09:22:56Z</time>
      </trkpt>
      <trkpt lat="49.45495" lon="1.06221">
        <ele>117.4</ele>
        <time>2021-05-23T09:22:58Z</time>
      </trkpt>
      <trkpt lat="49.45499" lon="1.06226">
        <ele>117.4</ele>
        <time>2021-05-23T09:23:14Z</time>
      </trkpt>
      <trkpt lat="49.45501" lon="1.06225">
        <ele>117.4</ele>
        <time>2021-05-23T09:23:15Z</time>
      </trkpt>
      <trkpt lat="49.45502" lon="1.06222">
        <ele>117.3</ele>
        <time>2021-05-23T09:23:16Z</time>
      </trkpt>
      <trkpt lat="49.45504" lon="1.0622">
        <ele>117.2</ele>
        <time>2021-05-23T09:23:17Z</time>
      </trkpt>
      <trkpt lat="49.45506" lon="1.06218">
        <ele>117</ele>
        <time>2021-05-23T09:23:19Z</time>
      </trkpt>
      <trkpt lat="49.45507" lon="1.06214">
        <ele>116.8</ele>
        <time>2021-05-23T09:23:20Z</time>
      </trkpt>
      <trkpt lat="49.4551" lon="1.06211">
        <ele>116.5</ele>
        <time>2021-05-23T09:23:21Z</time>
      </trkpt>
      <trkpt lat="49.45511" lon="1.06209">
        <ele>116.3</ele>
        <time>2021-05-23T09:23:22Z</time>
      </trkpt>
      <trkpt lat="49.45513" lon="1.06207">
        <ele>116</ele>
        <time>2021-05-23T09:23:24Z</time>
      </trkpt>
      <trkpt lat="49.45514" lon="1.06202">
        <ele>115.7</ele>
        <time>2021-05-23T09:23:26Z</time>
      </trkpt>
      <trkpt lat="49.45516" lon="1.06201">
        <ele>115.5</ele>
        <time>2021-05-23T09:23:28Z</time>
      </trkpt>
      <trkpt lat="49.45518" lon="1.06199">
        <ele>115.4</ele>
        <time>2021-05-23T09:23:30Z</time>
      </trkpt>
      <trkpt lat="49.4552" lon="1.06198">
        <ele>115.2</ele>
        <time>2021-05-23T09:23:31Z</time>
      </trkpt>
      <trkpt lat="49.45521" lon="1.06199">
        <ele>115</ele>
        <time>2021-05-23T09:23:32Z</time>
      </trkpt>
      <trkpt lat="49.45522" lon="1.06198">
        <ele>114.8</ele>
        <time>2021-05-23T09:23:34Z</time>
      </trkpt>
      <trkpt lat="49.45522" lon="1.06196">
        <ele>114.7</ele>
        <time>2021-05-23T09:23:35Z</time>
      </trkpt>
      <trkpt lat="49.45523" lon="1.06195">
        <ele>114.6</ele>
        <time>2021-05-23T09:23:37Z</time>
      </trkpt>
      <trkpt lat="49.45524" lon="1.06194">
        <ele>114.5</ele>
        <time>2021-05-23T09:23:38Z</time>
      </trkpt>
      <trkpt lat="49.45525" lon="1.06192">
        <ele>114.5</ele>
        <time>2021-05-23T09:23:40Z</time>
      </trkpt>
      <trkpt lat="49.45526" lon="1.06191">
        <ele>114.4</ele>
        <time>2021-05-23T09:23:41Z</time>
      </trkpt>
      <trkpt lat="49.45526" lon="1.0619">
        <ele>114.3</ele>
        <time>2021-05-23T09:23:43Z</time>
      </trkpt>
      <trkpt lat="49.45527" lon="1.0619">
        <ele>114.1</ele>
        <time>2021-05-23T09:23:44Z</time>
      </trkpt>
      <trkpt lat="49.45527" lon="1.06189">
        <ele>113.9</ele>
        <time>2021-05-23T09:23:45Z</time>
      </trkpt>
      <trkpt lat="49.45528" lon="1.06188">
        <ele>113.7</ele>
        <time>2021-05-23T09:23:46Z</time>
      </trkpt>
      <trkpt lat="49.45528" lon="1.06187">
        <ele>113.6</ele>
        <time>2021-05-23T09:23:48Z</time>
      </trkpt>
      <trkpt lat="49.45529" lon="1.06186">
        <ele>113.5</ele>
        <time>2021-05-23T09:23:49Z</time>
      </trkpt>
      <trkpt lat="49.45529" lon="1.06185">
        <ele>113.5</ele>
        <time>2021-05-23T09:23:52Z</time>
      </trkpt>
      <trkpt lat="49.45533" lon="1.0618">
        <ele>113.4</ele>
        <time>2021-05-23T09:23:58Z</time>
      </trkpt>
      <trkpt lat="49.45534" lon="1.06178">
        <ele>113.3</ele>
        <time>2021-05-23T09:23:59Z</time>
      </trkpt>
      <trkpt lat="49.45535" lon="1.06177">
        <ele>113.2</ele>
        <time>2021-05-23T09:24:00Z</time>
      </trkpt>
      <trkpt lat="49.45536" lon="1.06176">
        <ele>113.1</ele>
        <time>2021-05-23T09:24:02Z</time>
      </trkpt>
      <trkpt lat="49.45537" lon="1.06177">
        <ele>113</ele>
        <time>2021-05-23T09:24:03Z</time>
      </trkpt>
      <trkpt lat="49.45538" lon="1.06177">
        <ele>113</ele>
        <time>2021-05-23T09:24:05Z</time>
      </trkpt>
      <trkpt lat="49.45539" lon="1.06177">
        <ele>113</ele>
        <time>2021-05-23T09:24:06Z</time>
      </trkpt>
      <trkpt lat="49.45539" lon="1.06177">
        <ele>113</ele>
        <time>2021-05-23T09:24:07Z</time>
      </trkpt>
      <trkpt lat="49.4554" lon="1.06177">
        <ele>113</ele>
        <time>2021-05-23T09:24:08Z</time>
      </trkpt>
      <trkpt lat="49.45541" lon="1.06176">
        <ele>113</ele>
        <time>2021-05-23T09:24:10Z</time>
      </trkpt>
      <trkpt lat="49.45542" lon="1.06175">
        <ele>113.1</ele>
        <time>2021-05-23T09:24:12Z</time>
      </trkpt>
      <trkpt lat="49.45543" lon="1.06174">
        <ele>113.2</ele>
        <time>2021-05-23T09:24:14Z</time>
      </trkpt>
      <trkpt lat="49.45543" lon="1.06174">
        <ele>113.3</ele>
        <time>2021-05-23T09:24:15Z</time>
      </trkpt>
      <trkpt lat="49.45544" lon="1.06173">
        <ele>113.4</ele>
        <time>2021-05-23T09:24:17Z</time>
      </trkpt>
      <trkpt lat="49.45545" lon="1.06174">
        <ele>113.5</ele>
        <time>2021-05-23T09:24:19Z</time>
      </trkpt>
      <trkpt lat="49.45546" lon="1.06175">
        <ele>113.5</ele>
        <time>2021-05-23T09:24:20Z</time>
      </trkpt>
      <trkpt lat="49.45547" lon="1.06176">
        <ele>113.7</ele>
        <time>2021-05-23T09:24:22Z</time>
      </trkpt>
      <trkpt lat="49.45548" lon="1.06177">
        <ele>113.9</ele>
        <time>2021-05-23T09:24:24Z</time>
      </trkpt>
      <trkpt lat="49.45548" lon="1.06178">
        <ele>114.1</ele>
        <time>2021-05-23T09:24:25Z</time>
      </trkpt>
      <trkpt lat="49.45548" lon="1.06178">
        <ele>114.3</ele>
        <time>2021-05-23T09:24:27Z</time>
      </trkpt>
      <trkpt lat="49.45549" lon="1.06178">
        <ele>114.5</ele>
        <time>2021-05-23T09:24:28Z</time>
      </trkpt>
      <trkpt lat="49.4555" lon="1.06178">
        <ele>114.5</ele>
        <time>2021-05-23T09:24:30Z</time>
      </trkpt>
      <trkpt lat="49.4555" lon="1.06179">
        <ele>114.6</ele>
        <time>2021-05-23T09:24:31Z</time>
      </trkpt>
      <trkpt lat="49.45551" lon="1.06178">
        <ele>114.7</ele>
        <time>2021-05-23T09:24:33Z</time>
      </trkpt>
      <trkpt lat="49.45551" lon="1.06178">
        <ele>114.8</ele>
        <time>2021-05-23T09:24:34Z</time>
      </trkpt>
      <trkpt lat="49.45552" lon="1.06178">
        <ele>114.9</ele>
        <time>2021-05-23T09:24:36Z</time>
      </trkpt>
      <trkpt lat="49.45552" lon="1.06178">
        <ele>115</ele>
        <time>2021-05-23T09:24:37Z</time>
      </trkpt>
      <trkpt lat="49.45553" lon="1.06178">
        <ele>115</ele>
        <time>2021-05-23T09:24:38Z</time>
      </trkpt>
      <trkpt lat="49.45555" lon="1.06177">
        <ele>115</ele>
        <time>2021-05-23T09:24:40Z</time>
      </trkpt>
      <trkpt lat="49.45555" lon="1.06176">
        <ele>115</ele>
        <time>2021-05-23T09:24:42Z</time>
      </trkpt>
      <trkpt lat="49.45556" lon="1.06176">
        <ele>115</ele>
        <time>2021-05-23T09:24:43Z</time>
      </trkpt>
      <trkpt lat="49.45557" lon="1.06175">
        <ele>115</ele>
        <time>2021-05-23T09:24:45Z</time>
      </trkpt>
      <trkpt lat="49.45558" lon="1.06174">
        <ele>115</ele>
        <time>2021-05-23T09:24:47Z</time>
      </trkpt>
      <trkpt lat="49.45558" lon="1.06173">
        <ele>115</ele>
        <time>2021-05-23T09:24:49Z</time>
      </trkpt>
      <trkpt lat="49.45559" lon="1.06173">
        <ele>115</ele>
        <time>2021-05-23T09:24:50Z</time>
      </trkpt>
      <trkpt lat="49.4556" lon="1.06172">
        <ele>115</ele>
        <time>2021-05-23T09:24:52Z</time>
      </trkpt>
      <trkpt lat="49.45561" lon="1.06171">
        <ele>115</ele>
        <time>2021-05-23T09:24:53Z</time>
      </trkpt>
      <trkpt lat="49.45561" lon="1.0617">
        <ele>115</ele>
        <time>2021-05-23T09:24:54Z</time>
      </trkpt>
      <trkpt lat="49.45562" lon="1.0617">
        <ele>115</ele>
        <time>2021-05-23T09:24:55Z</time>
      </trkpt>
      <trkpt lat="49.45563" lon="1.06169">
        <ele>115</ele>
        <time>2021-05-23T09:24:56Z</time>
      </trkpt>
      <trkpt lat="49.45564" lon="1.06168">
        <ele>115</ele>
        <time>2021-05-23T09:24:58Z</time>
      </trkpt>
      <trkpt lat="49.45564" lon="1.06167">
        <ele>115</ele>
        <time>2021-05-23T09:25:10Z</time>
      </trkpt>
      <trkpt lat="49.45565" lon="1.06167">
        <ele>114.9</ele>
        <time>2021-05-23T09:25:11Z</time>
      </trkpt>
      <trkpt lat="49.45566" lon="1.06166">
        <ele>114.8</ele>
        <time>2021-05-23T09:25:12Z</time>
      </trkpt>
      <trkpt lat="49.45567" lon="1.06165">
        <ele>114.7</ele>
        <time>2021-05-23T09:25:14Z</time>
      </trkpt>
      <trkpt lat="49.45567" lon="1.06164">
        <ele>114.6</ele>
        <time>2021-05-23T09:25:15Z</time>
      </trkpt>
      <trkpt lat="49.45568" lon="1.06164">
        <ele>114.5</ele>
        <time>2021-05-23T09:25:17Z</time>
      </trkpt>
      <trkpt lat="49.45569" lon="1.06163">
        <ele>114.5</ele>
        <time>2021-05-23T09:25:19Z</time>
      </trkpt>
      <trkpt lat="49.4557" lon="1.06162">
        <ele>114.4</ele>
        <time>2021-05-23T09:25:21Z</time>
      </trkpt>
      <trkpt lat="49.4557" lon="1.06161">
        <ele>114.3</ele>
        <time>2021-05-23T09:25:23Z</time>
      </trkpt>
      <trkpt lat="49.45571" lon="1.06161">
        <ele>114.2</ele>
        <time>2021-05-23T09:25:24Z</time>
      </trkpt>
      <trkpt lat="49.45572" lon="1.0616">
        <ele>114</ele>
        <time>2021-05-23T09:25:25Z</time>
      </trkpt>
      <trkpt lat="49.45573" lon="1.06159">
        <ele>113.8</ele>
        <time>2021-05-23T09:25:50Z</time>
      </trkpt>
      <trkpt lat="49.45573" lon="1.06158">
        <ele>113.6</ele>
        <time>2021-05-23T09:25:51Z</time>
      </trkpt>
      <trkpt lat="49.45574" lon="1.06158">
        <ele>113.4</ele>
        <time>2021-05-23T09:25:54Z</time>
      </trkpt>
      <trkpt lat="49.45575" lon="1.06157">
        <ele>113.1</ele>
        <time>2021-05-23T09:25:55Z</time>
      </trkpt>
      <trkpt lat="49.45576" lon="1.06156">
        <ele>112.8</ele>
        <time>2021-05-23T09:25:56Z</time>
      </trkpt>
      <trkpt lat="49.45576" lon="1.06155">
        <ele>112.7</ele>
        <time>2021-05-23T09:25:57Z</time>
      </trkpt>
      <trkpt lat="49.45578" lon="1.06149">
        <ele>112.7</ele>
        <time>2021-05-23T09:25:59Z</time>
      </trkpt>
      <trkpt lat="49.45579" lon="1.06147">
        <ele>112.8</ele>
        <time>2021-05-23T09:26:00Z</time>
      </trkpt>
      <trkpt lat="49.45579" lon="1.06146">
        <ele>113</ele>
        <time>2021-05-23T09:26:02Z</time>
      </trkpt>
      <trkpt lat="49.4558" lon="1.06143">
        <ele>113.2</ele>
        <time>2021-05-23T09:26:04Z</time>
      </trkpt>
      <trkpt lat="49.45576" lon="1.06152">
        <ele>113.5</ele>
        <time>2021-05-23T09:26:05Z</time>
      </trkpt>
      <trkpt lat="49.45573" lon="1.0616">
        <ele>112.7</ele>
        <time>2021-05-23T09:26:07Z</time>
      </trkpt>
      <trkpt lat="49.4557" lon="1.06166">
        <ele>112.1</ele>
        <time>2021-05-23T09:26:08Z</time>
      </trkpt>
      <trkpt lat="49.45569" lon="1.06169">
        <ele>111.5</ele>
        <time>2021-05-23T09:26:09Z</time>
      </trkpt>
      <trkpt lat="49.45569" lon="1.06169">
        <ele>110.7</ele>
        <time>2021-05-23T09:26:11Z</time>
      </trkpt>
      <trkpt lat="49.45569" lon="1.06169">
        <ele>110</ele>
        <time>2021-05-23T09:26:13Z</time>
      </trkpt>
      <trkpt lat="49.456" lon="1.06125">
        <ele>109.1</ele>
        <time>2021-05-23T09:27:18Z</time>
      </trkpt>
      <trkpt lat="49.45601" lon="1.06123">
        <ele>108.1</ele>
        <time>2021-05-23T09:27:19Z</time>
      </trkpt>
      <trkpt lat="49.45602" lon="1.0612">
        <ele>107</ele>
        <time>2021-05-23T09:27:20Z</time>
      </trkpt>
      <trkpt lat="49.45608" lon="1.06114">
        <ele>106</ele>
        <time>2021-05-23T09:27:21Z</time>
      </trkpt>
      <trkpt lat="49.4561" lon="1.06114">
        <ele>105.1</ele>
        <time>2021-05-23T09:27:23Z</time>
      </trkpt>
      <trkpt lat="49.45611" lon="1.06114">
        <ele>104.5</ele>
        <time>2021-05-23T09:27:24Z</time>
      </trkpt>
      <trkpt lat="49.45612" lon="1.06115">
        <ele>104.8</ele>
        <time>2021-05-23T09:27:25Z</time>
      </trkpt>
      <trkpt lat="49.45612" lon="1.06116">
        <ele>105.4</ele>
        <time>2021-05-23T09:27:26Z</time>
      </trkpt>
      <trkpt lat="49.45615" lon="1.06122">
        <ele>106</ele>
        <time>2021-05-23T09:27:27Z</time>
      </trkpt>
      <trkpt lat="49.45619" lon="1.06126">
        <ele>106.8</ele>
        <time>2021-05-23T09:27:29Z</time>
      </trkpt>
      <trkpt lat="49.45622" lon="1.06133">
        <ele>107.7</ele>
        <time>2021-05-23T09:27:30Z</time>
      </trkpt>
      <trkpt lat="49.45625" lon="1.06136">
        <ele>108.6</ele>
        <time>2021-05-23T09:27:32Z</time>
      </trkpt>
      <trkpt lat="49.45629" lon="1.06139">
        <ele>109.5</ele>
        <time>2021-05-23T09:27:33Z</time>
      </trkpt>
      <trkpt lat="49.45633" lon="1.0614">
        <ele>110.5</ele>
        <time>2021-05-23T09:27:35Z</time>
      </trkpt>
      <trkpt lat="49.45636" lon="1.06142">
        <ele>111.4</ele>
        <time>2021-05-23T09:27:36Z</time>
      </trkpt>
      <trkpt lat="49.4564" lon="1.06143">
        <ele>112.1</ele>
        <time>2021-05-23T09:27:38Z</time>
      </trkpt>
      <trkpt lat="49.45644" lon="1.06144">
        <ele>112.5</ele>
        <time>2021-05-23T09:27:39Z</time>
      </trkpt>
      <trkpt lat="49.4565" lon="1.06145">
        <ele>113.1</ele>
        <time>2021-05-23T09:27:41Z</time>
      </trkpt>
      <trkpt lat="49.45655" lon="1.06145">
        <ele>113.5</ele>
        <time>2021-05-23T09:27:43Z</time>
      </trkpt>
      <trkpt lat="49.45658" lon="1.06145">
        <ele>114</ele>
        <time>2021-05-23T09:27:44Z</time>
      </trkpt>
      <trkpt lat="49.45662" lon="1.06145">
        <ele>114.5</ele>
        <time>2021-05-23T09:27:45Z</time>
      </trkpt>
      <trkpt lat="49.4567" lon="1.06144">
        <ele>114.9</ele>
        <time>2021-05-23T09:27:47Z</time>
      </trkpt>
      <trkpt lat="49.45675" lon="1.06144">
        <ele>115.5</ele>
        <time>2021-05-23T09:27:48Z</time>
      </trkpt>
      <trkpt lat="49.45683" lon="1.06141">
        <ele>116</ele>
        <time>2021-05-23T09:27:51Z</time>
      </trkpt>
      <trkpt lat="49.45687" lon="1.06141">
        <ele>116.5</ele>
        <time>2021-05-23T09:27:52Z</time>
      </trkpt>
      <trkpt lat="49.45693" lon="1.06139">
        <ele>117.1</ele>
        <time>2021-05-23T09:27:53Z</time>
      </trkpt>
      <trkpt lat="49.457" lon="1.06137">
        <ele>117.5</ele>
        <time>2021-05-23T09:27:55Z</time>
      </trkpt>
      <trkpt lat="49.45709" lon="1.06135">
        <ele>118</ele>
        <time>2021-05-23T09:27:57Z</time>
      </trkpt>
      <trkpt lat="49.45714" lon="1.06133">
        <ele>118.3</ele>
        <time>2021-05-23T09:27:58Z</time>
      </trkpt>
      <trkpt lat="49.45721" lon="1.06131">
        <ele>118.5</ele>
        <time>2021-05-23T09:28:00Z</time>
      </trkpt>
      <trkpt lat="49.45726" lon="1.06129">
        <ele>118.5</ele>
        <time>2021-05-23T09:28:01Z</time>
      </trkpt>
      <trkpt lat="49.45732" lon="1.06126">
        <ele>118.4</ele>
        <time>2021-05-23T09:28:02Z</time>
      </trkpt>
      <trkpt lat="49.45735" lon="1.06124">
        <ele>117.9</ele>
        <time>2021-05-23T09:28:03Z</time>
      </trkpt>
      <trkpt lat="49.45741" lon="1.06121">
        <ele>117.4</ele>
        <time>2021-05-23T09:28:04Z</time>
      </trkpt>
      <trkpt lat="49.45748" lon="1.06119">
        <ele>116.6</ele>
        <time>2021-05-23T09:28:05Z</time>
      </trkpt>
      <trkpt lat="49.45755" lon="1.06117">
        <ele>115.8</ele>
        <time>2021-05-23T09:28:07Z</time>
      </trkpt>
      <trkpt lat="49.45761" lon="1.06115">
        <ele>114.9</ele>
        <time>2021-05-23T09:28:08Z</time>
      </trkpt>
      <trkpt lat="49.45769" lon="1.06111">
        <ele>114.1</ele>
        <time>2021-05-23T09:28:10Z</time>
      </trkpt>
      <trkpt lat="49.45772" lon="1.06111">
        <ele>113.2</ele>
        <time>2021-05-23T09:28:11Z</time>
      </trkpt>
      <trkpt lat="49.45776" lon="1.06108">
        <ele>112.4</ele>
        <time>2021-05-23T09:28:13Z</time>
      </trkpt>
      <trkpt lat="49.4578" lon="1.06106">
        <ele>111.5</ele>
        <time>2021-05-23T09:28:14Z</time>
      </trkpt>
      <trkpt lat="49.45784" lon="1.06105">
        <ele>110.5</ele>
        <time>2021-05-23T09:28:15Z</time>
      </trkpt>
      <trkpt lat="49.45785" lon="1.06104">
        <ele>109.7</ele>
        <time>2021-05-23T09:28:17Z</time>
      </trkpt>
      <trkpt lat="49.45786" lon="1.06103">
        <ele>108.9</ele>
        <time>2021-05-23T09:28:18Z</time>
      </trkpt>
      <trkpt lat="49.45788" lon="1.06102">
        <ele>108.1</ele>
        <time>2021-05-23T09:28:20Z</time>
      </trkpt>
      <trkpt lat="49.4579" lon="1.06101">
        <ele>107.5</ele>
        <time>2021-05-23T09:28:21Z</time>
      </trkpt>
      <trkpt lat="49.45793" lon="1.06097">
        <ele>106.7</ele>
        <time>2021-05-23T09:28:23Z</time>
      </trkpt>
      <trkpt lat="49.45798" lon="1.06094">
        <ele>106.1</ele>
        <time>2021-05-23T09:28:24Z</time>
      </trkpt>
      <trkpt lat="49.45803" lon="1.0609">
        <ele>105.4</ele>
        <time>2021-05-23T09:28:49Z</time>
      </trkpt>
      <trkpt lat="49.45804" lon="1.06089">
        <ele>104.7</ele>
        <time>2021-05-23T09:28:50Z</time>
      </trkpt>
      <trkpt lat="49.45805" lon="1.06089">
        <ele>104.1</ele>
        <time>2021-05-23T09:28:51Z</time>
      </trkpt>
      <trkpt lat="49.45807" lon="1.06086">
        <ele>103.5</ele>
        <time>2021-05-23T09:28:53Z</time>
      </trkpt>
      <trkpt lat="49.45809" lon="1.06085">
        <ele>103.1</ele>
        <time>2021-05-23T09:28:54Z</time>
      </trkpt>
      <trkpt lat="49.45812" lon="1.06081">
        <ele>102.7</ele>
        <time>2021-05-23T09:28:56Z</time>
      </trkpt>
      <trkpt lat="49.45815" lon="1.06079">
        <ele>102.6</ele>
        <time>2021-05-23T09:28:57Z</time>
      </trkpt>
      <trkpt lat="49.45818" lon="1.06077">
        <ele>102.5</ele>
        <time>2021-05-23T09:28:58Z</time>
      </trkpt>
      <trkpt lat="49.4582" lon="1.06076">
        <ele>102.5</ele>
        <time>2021-05-23T09:28:59Z</time>
      </trkpt>
      <trkpt lat="49.45823" lon="1.06075">
        <ele>102.5</ele>
        <time>2021-05-23T09:29:01Z</time>
      </trkpt>
      <trkpt lat="49.45828" lon="1.06074">
        <ele>102.5</ele>
        <time>2021-05-23T09:29:02Z</time>
      </trkpt>
      <trkpt lat="49.45833" lon="1.06074">
        <ele>102.7</ele>
        <time>2021-05-23T09:29:03Z</time>
      </trkpt>
      <trkpt lat="49.45836" lon="1.06073">
        <ele>103</ele>
        <time>2021-05-23T09:29:04Z</time>
      </trkpt>
      <trkpt lat="49.4584" lon="1.06072">
        <ele>103.3</ele>
        <time>2021-05-23T09:29:05Z</time>
      </trkpt>
      <trkpt lat="49.45845" lon="1.06072">
        <ele>103.5</ele>
        <time>2021-05-23T09:29:06Z</time>
      </trkpt>
      <trkpt lat="49.45849" lon="1.06071">
        <ele>103.8</ele>
        <time>2021-05-23T09:29:07Z</time>
      </trkpt>
      <trkpt lat="49.45856" lon="1.06071">
        <ele>104.1</ele>
        <time>2021-05-23T09:29:08Z</time>
      </trkpt>
      <trkpt lat="49.45863" lon="1.06071">
        <ele>104.3</ele>
        <time>2021-05-23T09:29:10Z</time>
      </trkpt>
      <trkpt lat="49.4587" lon="1.06071">
        <ele>104.4</ele>
        <time>2021-05-23T09:29:11Z</time>
      </trkpt>
      <trkpt lat="49.45878" lon="1.0607">
        <ele>104.5</ele>
        <time>2021-05-23T09:29:13Z</time>
      </trkpt>
      <trkpt lat="49.45883" lon="1.06071">
        <ele>104.5</ele>
        <time>2021-05-23T09:29:14Z</time>
      </trkpt>
      <trkpt lat="49.45897" lon="1.06069">
        <ele>104.4</ele>
        <time>2021-05-23T09:29:15Z</time>
      </trkpt>
      <trkpt lat="49.45907" lon="1.06068">
        <ele>104.1</ele>
        <time>2021-05-23T09:29:16Z</time>
      </trkpt>
      <trkpt lat="49.45915" lon="1.06066">
        <ele>103.6</ele>
        <time>2021-05-23T09:29:18Z</time>
      </trkpt>
      <trkpt lat="49.4592" lon="1.06066">
        <ele>103.1</ele>
        <time>2021-05-23T09:29:19Z</time>
      </trkpt>
      <trkpt lat="49.45928" lon="1.06067">
        <ele>102.5</ele>
        <time>2021-05-23T09:29:21Z</time>
      </trkpt>
      <trkpt lat="49.45932" lon="1.06067">
        <ele>101.9</ele>
        <time>2021-05-23T09:29:22Z</time>
      </trkpt>
      <trkpt lat="49.45951" lon="1.06066">
        <ele>101.4</ele>
        <time>2021-05-23T09:29:24Z</time>
      </trkpt>
      <trkpt lat="49.45958" lon="1.06065">
        <ele>100.8</ele>
        <time>2021-05-23T09:29:25Z</time>
      </trkpt>
      <trkpt lat="49.45965" lon="1.06064">
        <ele>100.5</ele>
        <time>2021-05-23T09:29:27Z</time>
      </trkpt>
      <trkpt lat="49.45977" lon="1.06063">
        <ele>100.1</ele>
        <time>2021-05-23T09:29:29Z</time>
      </trkpt>
      <trkpt lat="49.45981" lon="1.0606">
        <ele>99.8</ele>
        <time>2021-05-23T09:29:30Z</time>
      </trkpt>
      <trkpt lat="49.45995" lon="1.06059">
        <ele>99.6</ele>
        <time>2021-05-23T09:29:32Z</time>
      </trkpt>
      <trkpt lat="49.46" lon="1.06058">
        <ele>99.6</ele>
        <time>2021-05-23T09:29:33Z</time>
      </trkpt>
      <trkpt lat="49.46003" lon="1.06058">
        <ele>99.8</ele>
        <time>2021-05-23T09:29:34Z</time>
      </trkpt>
      <trkpt lat="49.46004" lon="1.06058">
        <ele>100.1</ele>
        <time>2021-05-23T09:29:35Z</time>
      </trkpt>
      <trkpt lat="49.46006" lon="1.06059">
        <ele>100.4</ele>
        <time>2021-05-23T09:29:36Z</time>
      </trkpt>
      <trkpt lat="49.4601" lon="1.0606">
        <ele>100.6</ele>
        <time>2021-05-23T09:29:38Z</time>
      </trkpt>
      <trkpt lat="49.46012" lon="1.0606">
        <ele>100.8</ele>
        <time>2021-05-23T09:29:39Z</time>
      </trkpt>
      <trkpt lat="49.46013" lon="1.0606">
        <ele>101</ele>
        <time>2021-05-23T09:29:40Z</time>
      </trkpt>
      <trkpt lat="49.46014" lon="1.0606">
        <ele>101.2</ele>
        <time>2021-05-23T09:29:42Z</time>
      </trkpt>
      <trkpt lat="49.46015" lon="1.06059">
        <ele>101.6</ele>
        <time>2021-05-23T09:29:43Z</time>
      </trkpt>
      <trkpt lat="49.46014" lon="1.06058">
        <ele>102.1</ele>
        <time>2021-05-23T09:29:44Z</time>
      </trkpt>
      <trkpt lat="49.46015" lon="1.06057">
        <ele>102.5</ele>
        <time>2021-05-23T09:29:46Z</time>
      </trkpt>
      <trkpt lat="49.46015" lon="1.06056">
        <ele>103</ele>
        <time>2021-05-23T09:29:48Z</time>
      </trkpt>
      <trkpt lat="49.46019" lon="1.06058">
        <ele>103.4</ele>
        <time>2021-05-23T09:30:27Z</time>
      </trkpt>
      <trkpt lat="49.46032" lon="1.06061">
        <ele>103.7</ele>
        <time>2021-05-23T09:30:29Z</time>
      </trkpt>
      <trkpt lat="49.46032" lon="1.06061">
        <ele>104.1</ele>
        <time>2021-05-23T09:30:30Z</time>
      </trkpt>
      <trkpt lat="49.46033" lon="1.06061">
        <ele>104.5</ele>
        <time>2021-05-23T09:30:32Z</time>
      </trkpt>
      <trkpt lat="49.46034" lon="1.0606">
        <ele>105</ele>
        <time>2021-05-23T09:30:33Z</time>
      </trkpt>
      <trkpt lat="49.46034" lon="1.0606">
        <ele>105.5</ele>
        <time>2021-05-23T09:30:34Z</time>
      </trkpt>
      <trkpt lat="49.46035" lon="1.0606">
        <ele>106</ele>
        <time>2021-05-23T09:30:35Z</time>
      </trkpt>
      <trkpt lat="49.46036" lon="1.06059">
        <ele>106.2</ele>
        <time>2021-05-23T09:30:37Z</time>
      </trkpt>
      <trkpt lat="49.46036" lon="1.06059">
        <ele>106.4</ele>
        <time>2021-05-23T09:30:38Z</time>
      </trkpt>
      <trkpt lat="49.46037" lon="1.06059">
        <ele>106.5</ele>
        <time>2021-05-23T09:30:40Z</time>
      </trkpt>
      <trkpt lat="49.46038" lon="1.06059">
        <ele>106.7</ele>
        <time>2021-05-23T09:30:41Z</time>
      </trkpt>
      <trkpt lat="49.46039" lon="1.06059">
        <ele>106.9</ele>
        <time>2021-05-23T09:30:42Z</time>
      </trkpt>
      <trkpt lat="49.46041" lon="1.06059">
        <ele>107.1</ele>
        <time>2021-05-23T09:30:44Z</time>
      </trkpt>
      <trkpt lat="49.46041" lon="1.06059">
        <ele>107.3</ele>
        <time>2021-05-23T09:30:45Z</time>
      </trkpt>
      <trkpt lat="49.46042" lon="1.06058">
        <ele>107.5</ele>
        <time>2021-05-23T09:30:46Z</time>
      </trkpt>
      <trkpt lat="49.46042" lon="1.06058">
        <ele>107.8</ele>
        <time>2021-05-23T09:30:48Z</time>
      </trkpt>
      <trkpt lat="49.46043" lon="1.06058">
        <ele>108</ele>
        <time>2021-05-23T09:30:50Z</time>
      </trkpt>
      <trkpt lat="49.46042" lon="1.06058">
        <ele>108.2</ele>
        <time>2021-05-23T09:30:52Z</time>
      </trkpt>
      <trkpt lat="49.46043" lon="1.06058">
        <ele>108.4</ele>
        <time>2021-05-23T09:30:53Z</time>
      </trkpt>
      <trkpt lat="49.46044" lon="1.0606">
        <ele>108.5</ele>
        <time>2021-05-23T09:30:55Z</time>
      </trkpt>
      <trkpt lat="49.46046" lon="1.06061">
        <ele>108.6</ele>
        <time>2021-05-23T09:30:57Z</time>
      </trkpt>
      <trkpt lat="49.46047" lon="1.06061">
        <ele>108.7</ele>
        <time>2021-05-23T09:30:59Z</time>
      </trkpt>
      <trkpt lat="49.46047" lon="1.06061">
        <ele>108.8</ele>
        <time>2021-05-23T09:31:00Z</time>
      </trkpt>
      <trkpt lat="49.46047" lon="1.0606">
        <ele>108.9</ele>
        <time>2021-05-23T09:31:03Z</time>
      </trkpt>
      <trkpt lat="49.46047" lon="1.06059">
        <ele>109.1</ele>
        <time>2021-05-23T09:31:05Z</time>
      </trkpt>
      <trkpt lat="49.46047" lon="1.06058">
        <ele>109.2</ele>
        <time>2021-05-23T09:31:06Z</time>
      </trkpt>
      <trkpt lat="49.46048" lon="1.06058">
        <ele>109.3</ele>
        <time>2021-05-23T09:31:07Z</time>
      </trkpt>
      <trkpt lat="49.46048" lon="1.06057">
        <ele>109.5</ele>
        <time>2021-05-23T09:31:08Z</time>
      </trkpt>
      <trkpt lat="49.4605" lon="1.06057">
        <ele>109.6</ele>
        <time>2021-05-23T09:31:10Z</time>
      </trkpt>
      <trkpt lat="49.46051" lon="1.06056">
        <ele>109.8</ele>
        <time>2021-05-23T09:31:11Z</time>
      </trkpt>
      <trkpt lat="49.46052" lon="1.06056">
        <ele>110.1</ele>
        <time>2021-05-23T09:31:13Z</time>
      </trkpt>
      <trkpt lat="49.46053" lon="1.06056">
        <ele>110.4</ele>
        <time>2021-05-23T09:31:15Z</time>
      </trkpt>
      <trkpt lat="49.46054" lon="1.06056">
        <ele>110.6</ele>
        <time>2021-05-23T09:31:16Z</time>
      </trkpt>
      <trkpt lat="49.46056" lon="1.06055">
        <ele>111</ele>
        <time>2021-05-23T09:31:18Z</time>
      </trkpt>
      <trkpt lat="49.46058" lon="1.06056">
        <ele>111.4</ele>
        <time>2021-05-23T09:31:19Z</time>
      </trkpt>
      <trkpt lat="49.46059" lon="1.06058">
        <ele>111.6</ele>
        <time>2021-05-23T09:31:20Z</time>
      </trkpt>
      <trkpt lat="49.4606" lon="1.06058">
        <ele>111.9</ele>
        <time>2021-05-23T09:31:22Z</time>
      </trkpt>
      <trkpt lat="49.46061" lon="1.06058">
        <ele>112.2</ele>
        <time>2021-05-23T09:31:23Z</time>
      </trkpt>
      <trkpt lat="49.46064" lon="1.06058">
        <ele>112.5</ele>
        <time>2021-05-23T09:31:25Z</time>
      </trkpt>
      <trkpt lat="49.46064" lon="1.06059">
        <ele>112.7</ele>
        <time>2021-05-23T09:31:26Z</time>
      </trkpt>
      <trkpt lat="49.46064" lon="1.06059">
        <ele>113</ele>
        <time>2021-05-23T09:31:27Z</time>
      </trkpt>
      <trkpt lat="49.46065" lon="1.06059">
        <ele>113.2</ele>
        <time>2021-05-23T09:31:29Z</time>
      </trkpt>
      <trkpt lat="49.46066" lon="1.06059">
        <ele>113.4</ele>
        <time>2021-05-23T09:31:30Z</time>
      </trkpt>
      <trkpt lat="49.46067" lon="1.06059">
        <ele>113.5</ele>
        <time>2021-05-23T09:31:32Z</time>
      </trkpt>
      <trkpt lat="49.46068" lon="1.06059">
        <ele>113.6</ele>
        <time>2021-05-23T09:31:33Z</time>
      </trkpt>
      <trkpt lat="49.46068" lon="1.06058">
        <ele>113.7</ele>
        <time>2021-05-23T09:31:34Z</time>
      </trkpt>
      <trkpt lat="49.46069" lon="1.06057">
        <ele>113.8</ele>
        <time>2021-05-23T09:31:35Z</time>
      </trkpt>
      <trkpt lat="49.46069" lon="1.06057">
        <ele>113.9</ele>
        <time>2021-05-23T09:31:36Z</time>
      </trkpt>
      <trkpt lat="49.4607" lon="1.06056">
        <ele>114</ele>
        <time>2021-05-23T09:31:38Z</time>
      </trkpt>
      <trkpt lat="49.4607" lon="1.06057">
        <ele>114</ele>
        <time>2021-05-23T09:31:39Z</time>
      </trkpt>
      <trkpt lat="49.4607" lon="1.06057">
        <ele>114</ele>
        <time>2021-05-23T09:31:40Z</time>
      </trkpt>
      <trkpt lat="49.4607" lon="1.06058">
        <ele>114</ele>
        <time>2021-05-23T09:31:42Z</time>
      </trkpt>
      <trkpt lat="49.46069" lon="1.06059">
        <ele>114</ele>
        <time>2021-05-23T09:31:44Z</time>
      </trkpt>
      <trkpt lat="49.46068" lon="1.06059">
        <ele>114</ele>
        <time>2021-05-23T09:31:46Z</time>
      </trkpt>
      <trkpt lat="49.46068" lon="1.06059">
        <ele>114</ele>
        <time>2021-05-23T09:31:47Z</time>
      </trkpt>
      <trkpt lat="49.46067" lon="1.06059">
        <ele>114</ele>
        <time>2021-05-23T09:31:48Z</time>
      </trkpt>
      <trkpt lat="49.46067" lon="1.0606">
        <ele>113.9</ele>
        <time>2021-05-23T09:31:50Z</time>
      </trkpt>
      <trkpt lat="49.46067" lon="1.0606">
        <ele>113.8</ele>
        <time>2021-05-23T09:31:52Z</time>
      </trkpt>
      <trkpt lat="49.46067" lon="1.0606">
        <ele>113.7</ele>
        <time>2021-05-23T09:31:53Z</time>
      </trkpt>
      <trkpt lat="49.46067" lon="1.06061">
        <ele>113.5</ele>
        <time>2021-05-23T09:31:54Z</time>
      </trkpt>
      <trkpt lat="49.46066" lon="1.06062">
        <ele>113.4</ele>
        <time>2021-05-23T09:31:55Z</time>
      </trkpt>
      <trkpt lat="49.46065" lon="1.06059">
        <ele>113.2</ele>
        <time>2021-05-23T09:31:57Z</time>
      </trkpt>
      <trkpt lat="49.46064" lon="1.06058">
        <ele>113</ele>
        <time>2021-05-23T09:31:58Z</time>
      </trkpt>
      <trkpt lat="49.46063" lon="1.06057">
        <ele>112.8</ele>
        <time>2021-05-23T09:31:59Z</time>
      </trkpt>
      <trkpt lat="49.46063" lon="1.06057">
        <ele>112.6</ele>
        <time>2021-05-23T09:32:00Z</time>
      </trkpt>
      <trkpt lat="49.46062" lon="1.06056">
        <ele>112.4</ele>
        <time>2021-05-23T09:32:02Z</time>
      </trkpt>
      <trkpt lat="49.46062" lon="1.06056">
        <ele>112.1</ele>
        <time>2021-05-23T09:32:03Z</time>
      </trkpt>
      <trkpt lat="49.46062" lon="1.06056">
        <ele>111.9</ele>
        <time>2021-05-23T09:32:04Z</time>
      </trkpt>
      <trkpt lat="49.46061" lon="1.06055">
        <ele>111.7</ele>
        <time>2021-05-23T09:32:06Z</time>
      </trkpt>
      <trkpt lat="49.46059" lon="1.06055">
        <ele>111.5</ele>
        <time>2021-05-23T09:32:07Z</time>
      </trkpt>
      <trkpt lat="49.46058" lon="1.06056">
        <ele>111.5</ele>
        <time>2021-05-23T09:32:09Z</time>
      </trkpt>
      <trkpt lat="49.46057" lon="1.06057">
        <ele>111.4</ele>
        <time>2021-05-23T09:32:10Z</time>
      </trkpt>
      <trkpt lat="49.46057" lon="1.06057">
        <ele>111.2</ele>
        <time>2021-05-23T09:32:12Z</time>
      </trkpt>
      <trkpt lat="49.46056" lon="1.06056">
        <ele>111.1</ele>
        <time>2021-05-23T09:32:13Z</time>
      </trkpt>
      <trkpt lat="49.46057" lon="1.06055">
        <ele>111</ele>
        <time>2021-05-23T09:32:15Z</time>
      </trkpt>
      <trkpt lat="49.46059" lon="1.06053">
        <ele>110.8</ele>
        <time>2021-05-23T09:32:16Z</time>
      </trkpt>
      <trkpt lat="49.4606" lon="1.06051">
        <ele>110.7</ele>
        <time>2021-05-23T09:32:17Z</time>
      </trkpt>
      <trkpt lat="49.4606" lon="1.0605">
        <ele>110.6</ele>
        <time>2021-05-23T09:32:19Z</time>
      </trkpt>
      <trkpt lat="49.46061" lon="1.0605">
        <ele>110.5</ele>
        <time>2021-05-23T09:32:21Z</time>
      </trkpt>
      <trkpt lat="49.46063" lon="1.0605">
        <ele>110.5</ele>
        <time>2021-05-23T09:32:22Z</time>
      </trkpt>
      <trkpt lat="49.46062" lon="1.06048">
        <ele>110.4</ele>
        <time>2021-05-23T09:32:24Z</time>
      </trkpt>
      <trkpt lat="49.46062" lon="1.06047">
        <ele>110.3</ele>
        <time>2021-05-23T09:32:25Z</time>
      </trkpt>
      <trkpt lat="49.46062" lon="1.06046">
        <ele>110.3</ele>
        <time>2021-05-23T09:32:27Z</time>
      </trkpt>
      <trkpt lat="49.46064" lon="1.06045">
        <ele>110.4</ele>
        <time>2021-05-23T09:32:28Z</time>
      </trkpt>
      <trkpt lat="49.46066" lon="1.06043">
        <ele>110.4</ele>
        <time>2021-05-23T09:32:30Z</time>
      </trkpt>
      <trkpt lat="49.46067" lon="1.06042">
        <ele>110.4</ele>
        <time>2021-05-23T09:32:31Z</time>
      </trkpt>
      <trkpt lat="49.4607" lon="1.06041">
        <ele>110.5</ele>
        <time>2021-05-23T09:32:33Z</time>
      </trkpt>
      <trkpt lat="49.46071" lon="1.06041">
        <ele>110.5</ele>
        <time>2021-05-23T09:32:34Z</time>
      </trkpt>
      <trkpt lat="49.46071" lon="1.0604">
        <ele>110.6</ele>
        <time>2021-05-23T09:32:35Z</time>
      </trkpt>
      <trkpt lat="49.46071" lon="1.06041">
        <ele>110.7</ele>
        <time>2021-05-23T09:32:37Z</time>
      </trkpt>
      <trkpt lat="49.46071" lon="1.06041">
        <ele>110.8</ele>
        <time>2021-05-23T09:32:38Z</time>
      </trkpt>
      <trkpt lat="49.46072" lon="1.06042">
        <ele>110.9</ele>
        <time>2021-05-23T09:32:41Z</time>
      </trkpt>
      <trkpt lat="49.46073" lon="1.06041">
        <ele>111</ele>
        <time>2021-05-23T09:32:42Z</time>
      </trkpt>
      <trkpt lat="49.46074" lon="1.0604">
        <ele>110.9</ele>
        <time>2021-05-23T09:32:43Z</time>
      </trkpt>
      <trkpt lat="49.46076" lon="1.06037">
        <ele>110.8</ele>
        <time>2021-05-23T09:32:44Z</time>
      </trkpt>
      <trkpt lat="49.46077" lon="1.06036">
        <ele>110.6</ele>
        <time>2021-05-23T09:32:46Z</time>
      </trkpt>
      <trkpt lat="49.46078" lon="1.06034">
        <ele>110.5</ele>
        <time>2021-05-23T09:32:47Z</time>
      </trkpt>
      <trkpt lat="49.46078" lon="1.06032">
        <ele>110.2</ele>
        <time>2021-05-23T09:32:48Z</time>
      </trkpt>
      <trkpt lat="49.46081" lon="1.06026">
        <ele>109.9</ele>
        <time>2021-05-23T09:32:50Z</time>
      </trkpt>
      <trkpt lat="49.46084" lon="1.06022">
        <ele>109.6</ele>
        <time>2021-05-23T09:32:51Z</time>
      </trkpt>
      <trkpt lat="49.46087" lon="1.06018">
        <ele>109.4</ele>
        <time>2021-05-23T09:32:52Z</time>
      </trkpt>
      <trkpt lat="49.4609" lon="1.06015">
        <ele>109.1</ele>
        <time>2021-05-23T09:32:53Z</time>
      </trkpt>
      <trkpt lat="49.46093" lon="1.06011">
        <ele>108.7</ele>
        <time>2021-05-23T09:32:54Z</time>
      </trkpt>
      <trkpt lat="49.46097" lon="1.06007">
        <ele>108.4</ele>
        <time>2021-05-23T09:32:56Z</time>
      </trkpt>
      <trkpt lat="49.46101" lon="1.06004">
        <ele>108.1</ele>
        <time>2021-05-23T09:32:57Z</time>
      </trkpt>
      <trkpt lat="49.46105" lon="1.06002">
        <ele>107.9</ele>
        <time>2021-05-23T09:32:58Z</time>
      </trkpt>
      <trkpt lat="49.46109" lon="1.05999">
        <ele>107.9</ele>
        <time>2021-05-23T09:32:59Z</time>
      </trkpt>
      <trkpt lat="49.46113" lon="1.05997">
        <ele>107.9</ele>
        <time>2021-05-23T09:33:00Z</time>
      </trkpt>
      <trkpt lat="49.46172" lon="1.0596">
        <ele>107.9</ele>
        <time>2021-05-23T09:33:02Z</time>
      </trkpt>
      <trkpt lat="49.46181" lon="1.05954">
        <ele>107.9</ele>
        <time>2021-05-23T09:33:04Z</time>
      </trkpt>
      <trkpt lat="49.46198" lon="1.05944">
        <ele>108</ele>
        <time>2021-05-23T09:33:06Z</time>
      </trkpt>
      <trkpt lat="49.46204" lon="1.0594">
        <ele>108</ele>
        <time>2021-05-23T09:33:07Z</time>
      </trkpt>
      <trkpt lat="49.46212" lon="1.05934">
        <ele>108</ele>
        <time>2021-05-23T09:33:08Z</time>
      </trkpt>
      <trkpt lat="49.46218" lon="1.05929">
        <ele>108</ele>
        <time>2021-05-23T09:33:09Z</time>
      </trkpt>
      <trkpt lat="49.4623" lon="1.05922">
        <ele>108</ele>
        <time>2021-05-23T09:33:11Z</time>
      </trkpt>
      <trkpt lat="49.46237" lon="1.05919">
        <ele>108</ele>
        <time>2021-05-23T09:33:12Z</time>
      </trkpt>
      <trkpt lat="49.46249" lon="1.05909">
        <ele>107.9</ele>
        <time>2021-05-23T09:33:14Z</time>
      </trkpt>
      <trkpt lat="49.46253" lon="1.05904">
        <ele>107.7</ele>
        <time>2021-05-23T09:33:15Z</time>
      </trkpt>
      <trkpt lat="49.46256" lon="1.05901">
        <ele>107.6</ele>
        <time>2021-05-23T09:33:16Z</time>
      </trkpt>
      <trkpt lat="49.46264" lon="1.05893">
        <ele>107.7</ele>
        <time>2021-05-23T09:33:18Z</time>
      </trkpt>
      <trkpt lat="49.46271" lon="1.05887">
        <ele>107.9</ele>
        <time>2021-05-23T09:33:20Z</time>
      </trkpt>
      <trkpt lat="49.46274" lon="1.05883">
        <ele>108</ele>
        <time>2021-05-23T09:33:21Z</time>
      </trkpt>
      <trkpt lat="49.46277" lon="1.05881">
        <ele>108.2</ele>
        <time>2021-05-23T09:33:22Z</time>
      </trkpt>
      <trkpt lat="49.46283" lon="1.05877">
        <ele>108.4</ele>
        <time>2021-05-23T09:33:24Z</time>
      </trkpt>
      <trkpt lat="49.46294" lon="1.05873">
        <ele>108.5</ele>
        <time>2021-05-23T09:33:26Z</time>
      </trkpt>
      <trkpt lat="49.46301" lon="1.05871">
        <ele>108.7</ele>
        <time>2021-05-23T09:33:29Z</time>
      </trkpt>
      <trkpt lat="49.46307" lon="1.05868">
        <ele>108.8</ele>
        <time>2021-05-23T09:33:31Z</time>
      </trkpt>
      <trkpt lat="49.46316" lon="1.05866">
        <ele>108.9</ele>
        <time>2021-05-23T09:33:33Z</time>
      </trkpt>
      <trkpt lat="49.46326" lon="1.05862">
        <ele>109</ele>
        <time>2021-05-23T09:33:35Z</time>
      </trkpt>
      <trkpt lat="49.46338" lon="1.05858">
        <ele>109</ele>
        <time>2021-05-23T09:33:37Z</time>
      </trkpt>
      <trkpt lat="49.46344" lon="1.05856">
        <ele>108.9</ele>
        <time>2021-05-23T09:33:38Z</time>
      </trkpt>
      <trkpt lat="49.46355" lon="1.05852">
        <ele>108.7</ele>
        <time>2021-05-23T09:33:40Z</time>
      </trkpt>
      <trkpt lat="49.46365" lon="1.05849">
        <ele>108.5</ele>
        <time>2021-05-23T09:33:42Z</time>
      </trkpt>
      <trkpt lat="49.46368" lon="1.05849">
        <ele>108.4</ele>
        <time>2021-05-23T09:33:44Z</time>
      </trkpt>
      <trkpt lat="49.46371" lon="1.05848">
        <ele>108</ele>
        <time>2021-05-23T09:33:46Z</time>
      </trkpt>
      <trkpt lat="49.46373" lon="1.05848">
        <ele>107.7</ele>
        <time>2021-05-23T09:33:48Z</time>
      </trkpt>
      <trkpt lat="49.46374" lon="1.05847">
        <ele>107.4</ele>
        <time>2021-05-23T09:33:49Z</time>
      </trkpt>
      <trkpt lat="49.46375" lon="1.05847">
        <ele>107</ele>
        <time>2021-05-23T09:33:50Z</time>
      </trkpt>
      <trkpt lat="49.46385" lon="1.05844">
        <ele>106.5</ele>
        <time>2021-05-23T09:33:52Z</time>
      </trkpt>
      <trkpt lat="49.46414" lon="1.05839">
        <ele>106.1</ele>
        <time>2021-05-23T09:34:00Z</time>
      </trkpt>
      <trkpt lat="49.46419" lon="1.05838">
        <ele>105.6</ele>
        <time>2021-05-23T09:34:01Z</time>
      </trkpt>
      <trkpt lat="49.46427" lon="1.05837">
        <ele>105.2</ele>
        <time>2021-05-23T09:34:03Z</time>
      </trkpt>
      <trkpt lat="49.46436" lon="1.05836">
        <ele>104.6</ele>
        <time>2021-05-23T09:34:05Z</time>
      </trkpt>
      <trkpt lat="49.46445" lon="1.05835">
        <ele>104.2</ele>
        <time>2021-05-23T09:34:07Z</time>
      </trkpt>
      <trkpt lat="49.46452" lon="1.05834">
        <ele>103.7</ele>
        <time>2021-05-23T09:34:09Z</time>
      </trkpt>
      <trkpt lat="49.46458" lon="1.05833">
        <ele>103.5</ele>
        <time>2021-05-23T09:34:10Z</time>
      </trkpt>
      <trkpt lat="49.46466" lon="1.05832">
        <ele>103.4</ele>
        <time>2021-05-23T09:34:12Z</time>
      </trkpt>
      <trkpt lat="49.46471" lon="1.0583">
        <ele>103.4</ele>
        <time>2021-05-23T09:34:14Z</time>
      </trkpt>
      <trkpt lat="49.46476" lon="1.0583">
        <ele>103.5</ele>
        <time>2021-05-23T09:34:15Z</time>
      </trkpt>
      <trkpt lat="49.46479" lon="1.05829">
        <ele>103.6</ele>
        <time>2021-05-23T09:34:17Z</time>
      </trkpt>
      <trkpt lat="49.46484" lon="1.05828">
        <ele>103.8</ele>
        <time>2021-05-23T09:34:19Z</time>
      </trkpt>
      <trkpt lat="49.46487" lon="1.05827">
        <ele>104.1</ele>
        <time>2021-05-23T09:34:21Z</time>
      </trkpt>
      <trkpt lat="49.46489" lon="1.05826">
        <ele>104.4</ele>
        <time>2021-05-23T09:34:22Z</time>
      </trkpt>
      <trkpt lat="49.46494" lon="1.05824">
        <ele>104.7</ele>
        <time>2021-05-23T09:34:24Z</time>
      </trkpt>
      <trkpt lat="49.46502" lon="1.05821">
        <ele>105</ele>
        <time>2021-05-23T09:34:26Z</time>
      </trkpt>
      <trkpt lat="49.46505" lon="1.0582">
        <ele>105.3</ele>
        <time>2021-05-23T09:34:27Z</time>
      </trkpt>
      <trkpt lat="49.4651" lon="1.05819">
        <ele>105.4</ele>
        <time>2021-05-23T09:34:29Z</time>
      </trkpt>
      <trkpt lat="49.46516" lon="1.05818">
        <ele>105.5</ele>
        <time>2021-05-23T09:34:31Z</time>
      </trkpt>
      <trkpt lat="49.46521" lon="1.05817">
        <ele>105.5</ele>
        <time>2021-05-23T09:34:33Z</time>
      </trkpt>
      <trkpt lat="49.46526" lon="1.05815">
        <ele>105.4</ele>
        <time>2021-05-23T09:34:35Z</time>
      </trkpt>
      <trkpt lat="49.46531" lon="1.05814">
        <ele>105.3</ele>
        <time>2021-05-23T09:34:36Z</time>
      </trkpt>
      <trkpt lat="49.46535" lon="1.05811">
        <ele>105.1</ele>
        <time>2021-05-23T09:34:38Z</time>
      </trkpt>
      <trkpt lat="49.46537" lon="1.0581">
        <ele>104.8</ele>
        <time>2021-05-23T09:34:39Z</time>
      </trkpt>
      <trkpt lat="49.46542" lon="1.05809">
        <ele>104.5</ele>
        <time>2021-05-23T09:34:41Z</time>
      </trkpt>
      <trkpt lat="49.46548" lon="1.05806">
        <ele>104.1</ele>
        <time>2021-05-23T09:34:43Z</time>
      </trkpt>
      <trkpt lat="49.46553" lon="1.05803">
        <ele>103.6</ele>
        <time>2021-05-23T09:34:45Z</time>
      </trkpt>
      <trkpt lat="49.46559" lon="1.05801">
        <ele>103.2</ele>
        <time>2021-05-23T09:34:47Z</time>
      </trkpt>
      <trkpt lat="49.46562" lon="1.058">
        <ele>102.7</ele>
        <time>2021-05-23T09:34:48Z</time>
      </trkpt>
      <trkpt lat="49.46567" lon="1.05798">
        <ele>102.3</ele>
        <time>2021-05-23T09:34:50Z</time>
      </trkpt>
      <trkpt lat="49.46571" lon="1.05797">
        <ele>101.7</ele>
        <time>2021-05-23T09:34:51Z</time>
      </trkpt>
      <trkpt lat="49.46572" lon="1.05796">
        <ele>101.2</ele>
        <time>2021-05-23T09:34:52Z</time>
      </trkpt>
      <trkpt lat="49.46578" lon="1.05794">
        <ele>100.5</ele>
        <time>2021-05-23T09:34:54Z</time>
      </trkpt>
      <trkpt lat="49.46584" lon="1.05792">
        <ele>100</ele>
        <time>2021-05-23T09:34:56Z</time>
      </trkpt>
      <trkpt lat="49.46587" lon="1.05791">
        <ele>99.4</ele>
        <time>2021-05-23T09:34:57Z</time>
      </trkpt>
      <trkpt lat="49.46594" lon="1.05788">
        <ele>98.7</ele>
        <time>2021-05-23T09:34:59Z</time>
      </trkpt>
      <trkpt lat="49.46597" lon="1.05787">
        <ele>98.1</ele>
        <time>2021-05-23T09:35:00Z</time>
      </trkpt>
      <trkpt lat="49.46601" lon="1.05784">
        <ele>97.5</ele>
        <time>2021-05-23T09:35:02Z</time>
      </trkpt>
      <trkpt lat="49.46605" lon="1.05783">
        <ele>97</ele>
        <time>2021-05-23T09:35:03Z</time>
      </trkpt>
      <trkpt lat="49.46608" lon="1.05781">
        <ele>96.5</ele>
        <time>2021-05-23T09:35:06Z</time>
      </trkpt>
      <trkpt lat="49.4661" lon="1.05779">
        <ele>96</ele>
        <time>2021-05-23T09:35:07Z</time>
      </trkpt>
      <trkpt lat="49.46613" lon="1.05777">
        <ele>95.6</ele>
        <time>2021-05-23T09:35:09Z</time>
      </trkpt>
      <trkpt lat="49.46614" lon="1.05776">
        <ele>95.4</ele>
        <time>2021-05-23T09:35:10Z</time>
      </trkpt>
      <trkpt lat="49.46615" lon="1.05776">
        <ele>95.2</ele>
        <time>2021-05-23T09:35:11Z</time>
      </trkpt>
      <trkpt lat="49.46618" lon="1.05774">
        <ele>95.1</ele>
        <time>2021-05-23T09:35:13Z</time>
      </trkpt>
      <trkpt lat="49.46619" lon="1.05773">
        <ele>95.1</ele>
        <time>2021-05-23T09:35:14Z</time>
      </trkpt>
      <trkpt lat="49.46623" lon="1.05772">
        <ele>95.3</ele>
        <time>2021-05-23T09:35:16Z</time>
      </trkpt>
      <trkpt lat="49.46624" lon="1.05773">
        <ele>95.5</ele>
        <time>2021-05-23T09:35:17Z</time>
      </trkpt>
      <trkpt lat="49.46626" lon="1.05774">
        <ele>95.6</ele>
        <time>2021-05-23T09:35:18Z</time>
      </trkpt>
      <trkpt lat="49.46628" lon="1.05777">
        <ele>95.9</ele>
        <time>2021-05-23T09:35:20Z</time>
      </trkpt>
      <trkpt lat="49.4663" lon="1.05778">
        <ele>96.2</ele>
        <time>2021-05-23T09:35:21Z</time>
      </trkpt>
      <trkpt lat="49.46633" lon="1.05778">
        <ele>96.6</ele>
        <time>2021-05-23T09:35:23Z</time>
      </trkpt>
      <trkpt lat="49.46635" lon="1.05779">
        <ele>97</ele>
        <time>2021-05-23T09:35:24Z</time>
      </trkpt>
      <trkpt lat="49.46637" lon="1.0578">
        <ele>97.5</ele>
        <time>2021-05-23T09:35:25Z</time>
      </trkpt>
      <trkpt lat="49.46639" lon="1.05781">
        <ele>97.9</ele>
        <time>2021-05-23T09:35:26Z</time>
      </trkpt>
      <trkpt lat="49.46641" lon="1.05782">
        <ele>98.3</ele>
        <time>2021-05-23T09:35:28Z</time>
      </trkpt>
      <trkpt lat="49.46644" lon="1.05784">
        <ele>98.7</ele>
        <time>2021-05-23T09:35:29Z</time>
      </trkpt>
      <trkpt lat="49.46645" lon="1.05785">
        <ele>99.2</ele>
        <time>2021-05-23T09:35:30Z</time>
      </trkpt>
      <trkpt lat="49.46647" lon="1.05785">
        <ele>99.6</ele>
        <time>2021-05-23T09:35:32Z</time>
      </trkpt>
      <trkpt lat="49.46648" lon="1.05785">
        <ele>100.1</ele>
        <time>2021-05-23T09:35:33Z</time>
      </trkpt>
      <trkpt lat="49.46649" lon="1.05786">
        <ele>100.5</ele>
        <time>2021-05-23T09:35:34Z</time>
      </trkpt>
      <trkpt lat="49.46651" lon="1.05787">
        <ele>101</ele>
        <time>2021-05-23T09:35:35Z</time>
      </trkpt>
      <trkpt lat="49.46654" lon="1.0579">
        <ele>101.4</ele>
        <time>2021-05-23T09:35:36Z</time>
      </trkpt>
      <trkpt lat="49.46655" lon="1.0579">
        <ele>101.8</ele>
        <time>2021-05-23T09:35:38Z</time>
      </trkpt>
      <trkpt lat="49.46657" lon="1.05791">
        <ele>102.2</ele>
        <time>2021-05-23T09:35:39Z</time>
      </trkpt>
      <trkpt lat="49.46658" lon="1.05791">
        <ele>102.6</ele>
        <time>2021-05-23T09:35:40Z</time>
      </trkpt>
      <trkpt lat="49.4666" lon="1.05792">
        <ele>103.1</ele>
        <time>2021-05-23T09:35:41Z</time>
      </trkpt>
      <trkpt lat="49.46663" lon="1.05792">
        <ele>103.5</ele>
        <time>2021-05-23T09:35:43Z</time>
      </trkpt>
      <trkpt lat="49.46666" lon="1.05792">
        <ele>103.9</ele>
        <time>2021-05-23T09:35:44Z</time>
      </trkpt>
      <trkpt lat="49.46667" lon="1.05792">
        <ele>104.3</ele>
        <time>2021-05-23T09:35:45Z</time>
      </trkpt>
      <trkpt lat="49.46669" lon="1.05792">
        <ele>104.6</ele>
        <time>2021-05-23T09:35:46Z</time>
      </trkpt>
      <trkpt lat="49.46671" lon="1.05793">
        <ele>105</ele>
        <time>2021-05-23T09:35:48Z</time>
      </trkpt>
      <trkpt lat="49.46674" lon="1.05793">
        <ele>105.4</ele>
        <time>2021-05-23T09:35:49Z</time>
      </trkpt>
      <trkpt lat="49.46675" lon="1.05793">
        <ele>105.7</ele>
        <time>2021-05-23T09:35:50Z</time>
      </trkpt>
      <trkpt lat="49.46677" lon="1.05793">
        <ele>106</ele>
        <time>2021-05-23T09:35:51Z</time>
      </trkpt>
      <trkpt lat="49.46679" lon="1.05792">
        <ele>106.3</ele>
        <time>2021-05-23T09:35:52Z</time>
      </trkpt>
      <trkpt lat="49.4668" lon="1.05792">
        <ele>106.5</ele>
        <time>2021-05-23T09:35:54Z</time>
      </trkpt>
      <trkpt lat="49.46682" lon="1.05791">
        <ele>106.8</ele>
        <time>2021-05-23T09:35:56Z</time>
      </trkpt>
      <trkpt lat="49.46683" lon="1.0579">
        <ele>107</ele>
        <time>2021-05-23T09:35:57Z</time>
      </trkpt>
      <trkpt lat="49.46684" lon="1.0579">
        <ele>107.2</ele>
        <time>2021-05-23T09:35:58Z</time>
      </trkpt>
      <trkpt lat="49.46686" lon="1.05789">
        <ele>107.4</ele>
        <time>2021-05-23T09:36:00Z</time>
      </trkpt>
      <trkpt lat="49.46688" lon="1.05789">
        <ele>107.5</ele>
        <time>2021-05-23T09:36:01Z</time>
      </trkpt>
      <trkpt lat="49.46689" lon="1.05788">
        <ele>107.6</ele>
        <time>2021-05-23T09:36:02Z</time>
      </trkpt>
      <trkpt lat="49.4669" lon="1.05787">
        <ele>107.7</ele>
        <time>2021-05-23T09:36:04Z</time>
      </trkpt>
      <trkpt lat="49.46691" lon="1.05787">
        <ele>107.8</ele>
        <time>2021-05-23T09:36:05Z</time>
      </trkpt>
      <trkpt lat="49.46691" lon="1.05786">
        <ele>107.9</ele>
        <time>2021-05-23T09:36:06Z</time>
      </trkpt>
      <trkpt lat="49.46692" lon="1.05785">
        <ele>108.1</ele>
        <time>2021-05-23T09:36:07Z</time>
      </trkpt>
      <trkpt lat="49.46693" lon="1.05785">
        <ele>108.2</ele>
        <time>2021-05-23T09:36:08Z</time>
      </trkpt>
      <trkpt lat="49.46694" lon="1.05784">
        <ele>108.3</ele>
        <time>2021-05-23T09:36:10Z</time>
      </trkpt>
      <trkpt lat="49.46695" lon="1.05783">
        <ele>108.4</ele>
        <time>2021-05-23T09:36:11Z</time>
      </trkpt>
      <trkpt lat="49.46696" lon="1.05783">
        <ele>108.5</ele>
        <time>2021-05-23T09:36:13Z</time>
      </trkpt>
      <trkpt lat="49.46697" lon="1.05783">
        <ele>108.5</ele>
        <time>2021-05-23T09:36:14Z</time>
      </trkpt>
      <trkpt lat="49.46699" lon="1.05781">
        <ele>108.7</ele>
        <time>2021-05-23T09:36:15Z</time>
      </trkpt>
      <trkpt lat="49.467" lon="1.0578">
        <ele>108.9</ele>
        <time>2021-05-23T09:36:16Z</time>
      </trkpt>
      <trkpt lat="49.46701" lon="1.05779">
        <ele>109.2</ele>
        <time>2021-05-23T09:36:18Z</time>
      </trkpt>
      <trkpt lat="49.46702" lon="1.05778">
        <ele>109.5</ele>
        <time>2021-05-23T09:36:20Z</time>
      </trkpt>
      <trkpt lat="49.46703" lon="1.05777">
        <ele>109.8</ele>
        <time>2021-05-23T09:36:21Z</time>
      </trkpt>
      <trkpt lat="49.46706" lon="1.05777">
        <ele>110.2</ele>
        <time>2021-05-23T09:36:23Z</time>
      </trkpt>
      <trkpt lat="49.46707" lon="1.05777">
        <ele>110.6</ele>
        <time>2021-05-23T09:36:24Z</time>
      </trkpt>
      <trkpt lat="49.46711" lon="1.05778">
        <ele>111.1</ele>
        <time>2021-05-23T09:36:25Z</time>
      </trkpt>
      <trkpt lat="49.46712" lon="1.05778">
        <ele>111.6</ele>
        <time>2021-05-23T09:36:26Z</time>
      </trkpt>
      <trkpt lat="49.46715" lon="1.05778">
        <ele>112.2</ele>
        <time>2021-05-23T09:36:28Z</time>
      </trkpt>
      <trkpt lat="49.46718" lon="1.05779">
        <ele>112.7</ele>
        <time>2021-05-23T09:36:30Z</time>
      </trkpt>
      <trkpt lat="49.46721" lon="1.0578">
        <ele>113.2</ele>
        <time>2021-05-23T09:36:31Z</time>
      </trkpt>
      <trkpt lat="49.46722" lon="1.05781">
        <ele>113.7</ele>
        <time>2021-05-23T09:36:32Z</time>
      </trkpt>
      <trkpt lat="49.46725" lon="1.05781">
        <ele>114.2</ele>
        <time>2021-05-23T09:36:33Z</time>
      </trkpt>
      <trkpt lat="49.46726" lon="1.05781">
        <ele>114.6</ele>
        <time>2021-05-23T09:36:35Z</time>
      </trkpt>
      <trkpt lat="49.46727" lon="1.05781">
        <ele>115</ele>
        <time>2021-05-23T09:36:36Z</time>
      </trkpt>
      <trkpt lat="49.46729" lon="1.05781">
        <ele>115.4</ele>
        <time>2021-05-23T09:36:37Z</time>
      </trkpt>
      <trkpt lat="49.46732" lon="1.0578">
        <ele>115.6</ele>
        <time>2021-05-23T09:36:39Z</time>
      </trkpt>
      <trkpt lat="49.46735" lon="1.05779">
        <ele>116</ele>
        <time>2021-05-23T09:36:40Z</time>
      </trkpt>
      <trkpt lat="49.46737" lon="1.05778">
        <ele>116.3</ele>
        <time>2021-05-23T09:36:43Z</time>
      </trkpt>
      <trkpt lat="49.46741" lon="1.05777">
        <ele>116.5</ele>
        <time>2021-05-23T09:36:44Z</time>
      </trkpt>
      <trkpt lat="49.46743" lon="1.05776">
        <ele>116.8</ele>
        <time>2021-05-23T09:36:45Z</time>
      </trkpt>
      <trkpt lat="49.46746" lon="1.05776">
        <ele>117.2</ele>
        <time>2021-05-23T09:36:46Z</time>
      </trkpt>
      <trkpt lat="49.4675" lon="1.05776">
        <ele>117.5</ele>
        <time>2021-05-23T09:36:48Z</time>
      </trkpt>
      <trkpt lat="49.46753" lon="1.05776">
        <ele>117.7</ele>
        <time>2021-05-23T09:36:49Z</time>
      </trkpt>
      <trkpt lat="49.46756" lon="1.05776">
        <ele>118</ele>
        <time>2021-05-23T09:36:50Z</time>
      </trkpt>
      <trkpt lat="49.4676" lon="1.05775">
        <ele>118.3</ele>
        <time>2021-05-23T09:36:52Z</time>
      </trkpt>
      <trkpt lat="49.46764" lon="1.05774">
        <ele>118.5</ele>
        <time>2021-05-23T09:36:54Z</time>
      </trkpt>
      <trkpt lat="49.46767" lon="1.05773">
        <ele>118.6</ele>
        <time>2021-05-23T09:36:55Z</time>
      </trkpt>
      <trkpt lat="49.46768" lon="1.05773">
        <ele>118.8</ele>
        <time>2021-05-23T09:36:56Z</time>
      </trkpt>
      <trkpt lat="49.4677" lon="1.05772">
        <ele>119</ele>
        <time>2021-05-23T09:36:57Z</time>
      </trkpt>
      <trkpt lat="49.46773" lon="1.0577">
        <ele>119.2</ele>
        <time>2021-05-23T09:36:59Z</time>
      </trkpt>
      <trkpt lat="49.46775" lon="1.05769">
        <ele>119.4</ele>
        <time>2021-05-23T09:37:01Z</time>
      </trkpt>
      <trkpt lat="49.46777" lon="1.0577">
        <ele>119.5</ele>
        <time>2021-05-23T09:37:02Z</time>
      </trkpt>
      <trkpt lat="49.46781" lon="1.05769">
        <ele>119.5</ele>
        <time>2021-05-23T09:37:04Z</time>
      </trkpt>
      <trkpt lat="49.46783" lon="1.05769">
        <ele>119.6</ele>
        <time>2021-05-23T09:37:05Z</time>
      </trkpt>
      <trkpt lat="49.46785" lon="1.05768">
        <ele>119.7</ele>
        <time>2021-05-23T09:37:07Z</time>
      </trkpt>
      <trkpt lat="49.46786" lon="1.05768">
        <ele>119.8</ele>
        <time>2021-05-23T09:37:08Z</time>
      </trkpt>
      <trkpt lat="49.46787" lon="1.05767">
        <ele>120</ele>
        <time>2021-05-23T09:37:09Z</time>
      </trkpt>
      <trkpt lat="49.46789" lon="1.05766">
        <ele>120.3</ele>
        <time>2021-05-23T09:37:10Z</time>
      </trkpt>
      <trkpt lat="49.4679" lon="1.05765">
        <ele>120.5</ele>
        <time>2021-05-23T09:37:11Z</time>
      </trkpt>
      <trkpt lat="49.46794" lon="1.05764">
        <ele>120.6</ele>
        <time>2021-05-23T09:37:13Z</time>
      </trkpt>
      <trkpt lat="49.46796" lon="1.05763">
        <ele>120.8</ele>
        <time>2021-05-23T09:37:14Z</time>
      </trkpt>
      <trkpt lat="49.46801" lon="1.05761">
        <ele>121.1</ele>
        <time>2021-05-23T09:37:16Z</time>
      </trkpt>
      <trkpt lat="49.46807" lon="1.0576">
        <ele>121.4</ele>
        <time>2021-05-23T09:37:18Z</time>
      </trkpt>
      <trkpt lat="49.46811" lon="1.05759">
        <ele>121.6</ele>
        <time>2021-05-23T09:37:19Z</time>
      </trkpt>
      <trkpt lat="49.46815" lon="1.05757">
        <ele>121.9</ele>
        <time>2021-05-23T09:37:21Z</time>
      </trkpt>
      <trkpt lat="49.46819" lon="1.05756">
        <ele>122.2</ele>
        <time>2021-05-23T09:37:22Z</time>
      </trkpt>
      <trkpt lat="49.46824" lon="1.05755">
        <ele>122.5</ele>
        <time>2021-05-23T09:37:24Z</time>
      </trkpt>
      <trkpt lat="49.46827" lon="1.05754">
        <ele>122.6</ele>
        <time>2021-05-23T09:37:25Z</time>
      </trkpt>
      <trkpt lat="49.4683" lon="1.05753">
        <ele>122.6</ele>
        <time>2021-05-23T09:37:26Z</time>
      </trkpt>
      <trkpt lat="49.46835" lon="1.05751">
        <ele>122.5</ele>
        <time>2021-05-23T09:37:28Z</time>
      </trkpt>
      <trkpt lat="49.46838" lon="1.0575">
        <ele>122.5</ele>
        <time>2021-05-23T09:37:29Z</time>
      </trkpt>
      <trkpt lat="49.46841" lon="1.05749">
        <ele>122.2</ele>
        <time>2021-05-23T09:37:30Z</time>
      </trkpt>
      <trkpt lat="49.46841" lon="1.05748">
        <ele>121.8</ele>
        <time>2021-05-23T09:37:32Z</time>
      </trkpt>
      <trkpt lat="49.46844" lon="1.05745">
        <ele>121.4</ele>
        <time>2021-05-23T09:37:33Z</time>
      </trkpt>
      <trkpt lat="49.46845" lon="1.0574">
        <ele>120.8</ele>
        <time>2021-05-23T09:37:35Z</time>
      </trkpt>
      <trkpt lat="49.46846" lon="1.05736">
        <ele>120.3</ele>
        <time>2021-05-23T09:37:36Z</time>
      </trkpt>
      <trkpt lat="49.46848" lon="1.05728">
        <ele>119.6</ele>
        <time>2021-05-23T09:37:38Z</time>
      </trkpt>
      <trkpt lat="49.46849" lon="1.05725">
        <ele>119</ele>
        <time>2021-05-23T09:37:39Z</time>
      </trkpt>
      <trkpt lat="49.46852" lon="1.0572">
        <ele>118.3</ele>
        <time>2021-05-23T09:37:41Z</time>
      </trkpt>
      <trkpt lat="49.46864" lon="1.05713">
        <ele>117.6</ele>
        <time>2021-05-23T09:37:42Z</time>
      </trkpt>
      <trkpt lat="49.4687" lon="1.05709">
        <ele>117.1</ele>
        <time>2021-05-23T09:37:43Z</time>
      </trkpt>
      <trkpt lat="49.46878" lon="1.05705">
        <ele>116.5</ele>
        <time>2021-05-23T09:37:45Z</time>
      </trkpt>
      <trkpt lat="49.46881" lon="1.05703">
        <ele>116.2</ele>
        <time>2021-05-23T09:37:47Z</time>
      </trkpt>
      <trkpt lat="49.46882" lon="1.05702">
        <ele>115.8</ele>
        <time>2021-05-23T09:37:48Z</time>
      </trkpt>
      <trkpt lat="49.46882" lon="1.05702">
        <ele>115.5</ele>
        <time>2021-05-23T09:37:49Z</time>
      </trkpt>
      <trkpt lat="49.46882" lon="1.05701">
        <ele>115.3</ele>
        <time>2021-05-23T09:37:50Z</time>
      </trkpt>
      <trkpt lat="49.46882" lon="1.05701">
        <ele>115.1</ele>
        <time>2021-05-23T09:37:52Z</time>
      </trkpt>
      <trkpt lat="49.46882" lon="1.05699">
        <ele>115</ele>
        <time>2021-05-23T09:38:06Z</time>
      </trkpt>
      <trkpt lat="49.46884" lon="1.05698">
        <ele>114.9</ele>
        <time>2021-05-23T09:38:07Z</time>
      </trkpt>
      <trkpt lat="49.46888" lon="1.05697">
        <ele>115</ele>
        <time>2021-05-23T09:38:09Z</time>
      </trkpt>
      <trkpt lat="49.46892" lon="1.05697">
        <ele>115.1</ele>
        <time>2021-05-23T09:38:10Z</time>
      </trkpt>
      <trkpt lat="49.46895" lon="1.05697">
        <ele>115.2</ele>
        <time>2021-05-23T09:38:11Z</time>
      </trkpt>
      <trkpt lat="49.469" lon="1.05696">
        <ele>115.4</ele>
        <time>2021-05-23T09:38:13Z</time>
      </trkpt>
      <trkpt lat="49.46902" lon="1.05697">
        <ele>115.5</ele>
        <time>2021-05-23T09:38:14Z</time>
      </trkpt>
      <trkpt lat="49.46906" lon="1.05697">
        <ele>115.7</ele>
        <time>2021-05-23T09:38:15Z</time>
      </trkpt>
      <trkpt lat="49.4691" lon="1.05698">
        <ele>116.1</ele>
        <time>2021-05-23T09:38:16Z</time>
      </trkpt>
      <trkpt lat="49.46913" lon="1.05699">
        <ele>116.4</ele>
        <time>2021-05-23T09:38:18Z</time>
      </trkpt>
      <trkpt lat="49.46915" lon="1.057">
        <ele>116.7</ele>
        <time>2021-05-23T09:38:20Z</time>
      </trkpt>
      <trkpt lat="49.46916" lon="1.05701">
        <ele>117.1</ele>
        <time>2021-05-23T09:38:21Z</time>
      </trkpt>
      <trkpt lat="49.46919" lon="1.05703">
        <ele>117.5</ele>
        <time>2021-05-23T09:38:22Z</time>
      </trkpt>
      <trkpt lat="49.46923" lon="1.05705">
        <ele>117.8</ele>
        <time>2021-05-23T09:38:23Z</time>
      </trkpt>
      <trkpt lat="49.46925" lon="1.05706">
        <ele>118.2</ele>
        <time>2021-05-23T09:38:25Z</time>
      </trkpt>
      <trkpt lat="49.46926" lon="1.05706">
        <ele>118.5</ele>
        <time>2021-05-23T09:38:26Z</time>
      </trkpt>
      <trkpt lat="49.46926" lon="1.05707">
        <ele>118.9</ele>
        <time>2021-05-23T09:38:27Z</time>
      </trkpt>
      <trkpt lat="49.4693" lon="1.05708">
        <ele>119.4</ele>
        <time>2021-05-23T09:38:29Z</time>
      </trkpt>
      <trkpt lat="49.46931" lon="1.05709">
        <ele>119.8</ele>
        <time>2021-05-23T09:38:30Z</time>
      </trkpt>
      <trkpt lat="49.46934" lon="1.0571">
        <ele>120.3</ele>
        <time>2021-05-23T09:38:32Z</time>
      </trkpt>
      <trkpt lat="49.46935" lon="1.05711">
        <ele>120.7</ele>
        <time>2021-05-23T09:38:33Z</time>
      </trkpt>
      <trkpt lat="49.4694" lon="1.05714">
        <ele>121.1</ele>
        <time>2021-05-23T09:38:35Z</time>
      </trkpt>
      <trkpt lat="49.46941" lon="1.05715">
        <ele>121.5</ele>
        <time>2021-05-23T09:38:36Z</time>
      </trkpt>
      <trkpt lat="49.46943" lon="1.05716">
        <ele>121.8</ele>
        <time>2021-05-23T09:38:37Z</time>
      </trkpt>
      <trkpt lat="49.46945" lon="1.05719">
        <ele>122.1</ele>
        <time>2021-05-23T09:38:39Z</time>
      </trkpt>
      <trkpt lat="49.46947" lon="1.0572">
        <ele>122.4</ele>
        <time>2021-05-23T09:38:40Z</time>
      </trkpt>
      <trkpt lat="49.46949" lon="1.05721">
        <ele>122.6</ele>
        <time>2021-05-23T09:38:42Z</time>
      </trkpt>
      <trkpt lat="49.46951" lon="1.05724">
        <ele>122.8</ele>
        <time>2021-05-23T09:38:43Z</time>
      </trkpt>
      <trkpt lat="49.46952" lon="1.05725">
        <ele>122.9</ele>
        <time>2021-05-23T09:38:44Z</time>
      </trkpt>
      <trkpt lat="49.46953" lon="1.05725">
        <ele>123</ele>
        <time>2021-05-23T09:38:45Z</time>
      </trkpt>
      <trkpt lat="49.46954" lon="1.05726">
        <ele>123</ele>
        <time>2021-05-23T09:38:47Z</time>
      </trkpt>
      <trkpt lat="49.46955" lon="1.05727">
        <ele>123</ele>
        <time>2021-05-23T09:38:48Z</time>
      </trkpt>
      <trkpt lat="49.46955" lon="1.05728">
        <ele>123</ele>
        <time>2021-05-23T09:38:50Z</time>
      </trkpt>
      <trkpt lat="49.46956" lon="1.05728">
        <ele>123</ele>
        <time>2021-05-23T09:38:51Z</time>
      </trkpt>
      <trkpt lat="49.46957" lon="1.05728">
        <ele>123</ele>
        <time>2021-05-23T09:38:52Z</time>
      </trkpt>
      <trkpt lat="49.46957" lon="1.05729">
        <ele>123</ele>
        <time>2021-05-23T09:38:54Z</time>
      </trkpt>
      <trkpt lat="49.46958" lon="1.05729">
        <ele>123</ele>
        <time>2021-05-23T09:38:55Z</time>
      </trkpt>
      <trkpt lat="49.46959" lon="1.05729">
        <ele>123</ele>
        <time>2021-05-23T09:38:56Z</time>
      </trkpt>
      <trkpt lat="49.4696" lon="1.05729">
        <ele>123</ele>
        <time>2021-05-23T09:38:58Z</time>
      </trkpt>
      <trkpt lat="49.46961" lon="1.0573">
        <ele>123</ele>
        <time>2021-05-23T09:38:59Z</time>
      </trkpt>
      <trkpt lat="49.46961" lon="1.05731">
        <ele>123</ele>
        <time>2021-05-23T09:39:00Z</time>
      </trkpt>
      <trkpt lat="49.4696" lon="1.0573">
        <ele>123</ele>
        <time>2021-05-23T09:39:01Z</time>
      </trkpt>
      <trkpt lat="49.4696" lon="1.0573">
        <ele>123</ele>
        <time>2021-05-23T09:39:02Z</time>
      </trkpt>
      <trkpt lat="49.4696" lon="1.0573">
        <ele>123</ele>
        <time>2021-05-23T09:39:04Z</time>
      </trkpt>
      <trkpt lat="49.4696" lon="1.05729">
        <ele>123</ele>
        <time>2021-05-23T09:39:05Z</time>
      </trkpt>
      <trkpt lat="49.4696" lon="1.05729">
        <ele>122.9</ele>
        <time>2021-05-23T09:39:08Z</time>
      </trkpt>
      <trkpt lat="49.46961" lon="1.05727">
        <ele>122.8</ele>
        <time>2021-05-23T09:39:09Z</time>
      </trkpt>
      <trkpt lat="49.46962" lon="1.05724">
        <ele>122.7</ele>
        <time>2021-05-23T09:39:11Z</time>
      </trkpt>
      <trkpt lat="49.46965" lon="1.05721">
        <ele>122.5</ele>
        <time>2021-05-23T09:39:12Z</time>
      </trkpt>
      <trkpt lat="49.46967" lon="1.05719">
        <ele>122.4</ele>
        <time>2021-05-23T09:39:13Z</time>
      </trkpt>
      <trkpt lat="49.46969" lon="1.05715">
        <ele>122.2</ele>
        <time>2021-05-23T09:39:14Z</time>
      </trkpt>
      <trkpt lat="49.46974" lon="1.05711">
        <ele>121.9</ele>
        <time>2021-05-23T09:39:15Z</time>
      </trkpt>
      <trkpt lat="49.46981" lon="1.05704">
        <ele>121.6</ele>
        <time>2021-05-23T09:39:17Z</time>
      </trkpt>
      <trkpt lat="49.46988" lon="1.05697">
        <ele>121.4</ele>
        <time>2021-05-23T09:39:19Z</time>
      </trkpt>
      <trkpt lat="49.46992" lon="1.05694">
        <ele>121.1</ele>
        <time>2021-05-23T09:39:20Z</time>
      </trkpt>
      <trkpt lat="49.46998" lon="1.05689">
        <ele>120.9</ele>
        <time>2021-05-23T09:39:22Z</time>
      </trkpt>
      <trkpt lat="49.47001" lon="1.05687">
        <ele>120.8</ele>
        <time>2021-05-23T09:39:23Z</time>
      </trkpt>
      <trkpt lat="49.47004" lon="1.05685">
        <ele>120.8</ele>
        <time>2021-05-23T09:39:24Z</time>
      </trkpt>
      <trkpt lat="49.47009" lon="1.05683">
        <ele>120.9</ele>
        <time>2021-05-23T09:39:25Z</time>
      </trkpt>
      <trkpt lat="49.47014" lon="1.05681">
        <ele>121.1</ele>
        <time>2021-05-23T09:39:26Z</time>
      </trkpt>
      <trkpt lat="49.47019" lon="1.05678">
        <ele>121.3</ele>
        <time>2021-05-23T09:39:28Z</time>
      </trkpt>
      <trkpt lat="49.47024" lon="1.05676">
        <ele>121.5</ele>
        <time>2021-05-23T09:39:29Z</time>
      </trkpt>
      <trkpt lat="49.47031" lon="1.05674">
        <ele>121.8</ele>
        <time>2021-05-23T09:39:31Z</time>
      </trkpt>
      <trkpt lat="49.47039" lon="1.05666">
        <ele>122.2</ele>
        <time>2021-05-23T09:39:33Z</time>
      </trkpt>
      <trkpt lat="49.47044" lon="1.0566">
        <ele>122.5</ele>
        <time>2021-05-23T09:39:34Z</time>
      </trkpt>
      <trkpt lat="49.47049" lon="1.05654">
        <ele>122.7</ele>
        <time>2021-05-23T09:39:36Z</time>
      </trkpt>
      <trkpt lat="49.47054" lon="1.05647">
        <ele>122.9</ele>
        <time>2021-05-23T09:39:37Z</time>
      </trkpt>
      <trkpt lat="49.47062" lon="1.05639">
        <ele>123.1</ele>
        <time>2021-05-23T09:39:39Z</time>
      </trkpt>
      <trkpt lat="49.47068" lon="1.05632">
        <ele>123.1</ele>
        <time>2021-05-23T09:39:40Z</time>
      </trkpt>
      <trkpt lat="49.47073" lon="1.05626">
        <ele>122.9</ele>
        <time>2021-05-23T09:39:41Z</time>
      </trkpt>
      <trkpt lat="49.47077" lon="1.0562">
        <ele>122.6</ele>
        <time>2021-05-23T09:39:43Z</time>
      </trkpt>
      <trkpt lat="49.47081" lon="1.05615">
        <ele>122.3</ele>
        <time>2021-05-23T09:39:44Z</time>
      </trkpt>
      <trkpt lat="49.47087" lon="1.05609">
        <ele>121.8</ele>
        <time>2021-05-23T09:39:46Z</time>
      </trkpt>
      <trkpt lat="49.47092" lon="1.05604">
        <ele>121.3</ele>
        <time>2021-05-23T09:39:47Z</time>
      </trkpt>
      <trkpt lat="49.47106" lon="1.0559">
        <ele>120.7</ele>
        <time>2021-05-23T09:39:48Z</time>
      </trkpt>
      <trkpt lat="49.47119" lon="1.05581">
        <ele>120.3</ele>
        <time>2021-05-23T09:39:50Z</time>
      </trkpt>
      <trkpt lat="49.47132" lon="1.0557">
        <ele>119.8</ele>
        <time>2021-05-23T09:39:52Z</time>
      </trkpt>
      <trkpt lat="49.47147" lon="1.05558">
        <ele>119.4</ele>
        <time>2021-05-23T09:39:54Z</time>
      </trkpt>
      <trkpt lat="49.47162" lon="1.05546">
        <ele>118.9</ele>
        <time>2021-05-23T09:39:57Z</time>
      </trkpt>
      <trkpt lat="49.47169" lon="1.0554">
        <ele>118.5</ele>
        <time>2021-05-23T09:39:58Z</time>
      </trkpt>
      <trkpt lat="49.47176" lon="1.05535">
        <ele>118</ele>
        <time>2021-05-23T09:39:59Z</time>
      </trkpt>
      <trkpt lat="49.47183" lon="1.0553">
        <ele>117.5</ele>
        <time>2021-05-23T09:40:00Z</time>
      </trkpt>
      <trkpt lat="49.47198" lon="1.05519">
        <ele>116.6</ele>
        <time>2021-05-23T09:40:02Z</time>
      </trkpt>
      <trkpt lat="49.47215" lon="1.05507">
        <ele>115.7</ele>
        <time>2021-05-23T09:40:04Z</time>
      </trkpt>
      <trkpt lat="49.47224" lon="1.055">
        <ele>114.5</ele>
        <time>2021-05-23T09:40:05Z</time>
      </trkpt>
      <trkpt lat="49.47239" lon="1.05486">
        <ele>113</ele>
        <time>2021-05-23T09:40:07Z</time>
      </trkpt>
      <trkpt lat="49.47249" lon="1.0548">
        <ele>111.2</ele>
        <time>2021-05-23T09:40:08Z</time>
      </trkpt>
      <trkpt lat="49.47266" lon="1.05465">
        <ele>109.1</ele>
        <time>2021-05-23T09:40:10Z</time>
      </trkpt>
      <trkpt lat="49.47275" lon="1.05459">
        <ele>106.5</ele>
        <time>2021-05-23T09:40:11Z</time>
      </trkpt>
      <trkpt lat="49.47293" lon="1.05446">
        <ele>103.7</ele>
        <time>2021-05-23T09:40:13Z</time>
      </trkpt>
      <trkpt lat="49.47313" lon="1.05426">
        <ele>100.6</ele>
        <time>2021-05-23T09:40:15Z</time>
      </trkpt>
      <trkpt lat="49.47323" lon="1.05415">
        <ele>97.7</ele>
        <time>2021-05-23T09:40:16Z</time>
      </trkpt>
      <trkpt lat="49.47332" lon="1.05401">
        <ele>94.9</ele>
        <time>2021-05-23T09:40:17Z</time>
      </trkpt>
      <trkpt lat="49.4735" lon="1.0538">
        <ele>92.5</ele>
        <time>2021-05-23T09:40:19Z</time>
      </trkpt>
      <trkpt lat="49.47359" lon="1.05371">
        <ele>90.2</ele>
        <time>2021-05-23T09:40:20Z</time>
      </trkpt>
      <trkpt lat="49.47372" lon="1.05359">
        <ele>88.2</ele>
        <time>2021-05-23T09:40:22Z</time>
      </trkpt>
      <trkpt lat="49.47373" lon="1.05357">
        <ele>86.5</ele>
        <time>2021-05-23T09:40:23Z</time>
      </trkpt>
      <trkpt lat="49.47374" lon="1.05355">
        <ele>85.2</ele>
        <time>2021-05-23T09:40:25Z</time>
      </trkpt>
      <trkpt lat="49.47374" lon="1.05355">
        <ele>84</ele>
        <time>2021-05-23T09:40:26Z</time>
      </trkpt>
      <trkpt lat="49.47373" lon="1.05355">
        <ele>83.2</ele>
        <time>2021-05-23T09:40:27Z</time>
      </trkpt>
      <trkpt lat="49.47374" lon="1.05355">
        <ele>82.5</ele>
        <time>2021-05-23T09:40:29Z</time>
      </trkpt>
      <trkpt lat="49.47374" lon="1.05355">
        <ele>82</ele>
        <time>2021-05-23T09:40:31Z</time>
      </trkpt>
      <trkpt lat="49.47374" lon="1.05355">
        <ele>81.5</ele>
        <time>2021-05-23T09:40:32Z</time>
      </trkpt>
      <trkpt lat="49.47378" lon="1.05354">
        <ele>80.7</ele>
        <time>2021-05-23T09:40:34Z</time>
      </trkpt>
      <trkpt lat="49.47386" lon="1.05349">
        <ele>79.8</ele>
        <time>2021-05-23T09:40:35Z</time>
      </trkpt>
      <trkpt lat="49.47394" lon="1.05348">
        <ele>78.8</ele>
        <time>2021-05-23T09:40:37Z</time>
      </trkpt>
      <trkpt lat="49.47401" lon="1.0534">
        <ele>77.7</ele>
        <time>2021-05-23T09:40:38Z</time>
      </trkpt>
      <trkpt lat="49.47407" lon="1.05335">
        <ele>76.6</ele>
        <time>2021-05-23T09:40:39Z</time>
      </trkpt>
      <trkpt lat="49.47412" lon="1.05329">
        <ele>75.5</ele>
        <time>2021-05-23T09:40:40Z</time>
      </trkpt>
      <trkpt lat="49.47422" lon="1.05317">
        <ele>74.3</ele>
        <time>2021-05-23T09:40:42Z</time>
      </trkpt>
      <trkpt lat="49.47427" lon="1.05311">
        <ele>73.1</ele>
        <time>2021-05-23T09:40:43Z</time>
      </trkpt>
      <trkpt lat="49.47435" lon="1.05301">
        <ele>72</ele>
        <time>2021-05-23T09:40:46Z</time>
      </trkpt>
      <trkpt lat="49.47443" lon="1.05292">
        <ele>70.8</ele>
        <time>2021-05-23T09:40:48Z</time>
      </trkpt>
      <trkpt lat="49.47452" lon="1.05281">
        <ele>69.6</ele>
        <time>2021-05-23T09:40:50Z</time>
      </trkpt>
      <trkpt lat="49.47457" lon="1.05274">
        <ele>68.4</ele>
        <time>2021-05-23T09:40:51Z</time>
      </trkpt>
      <trkpt lat="49.47463" lon="1.05265">
        <ele>67.2</ele>
        <time>2021-05-23T09:40:52Z</time>
      </trkpt>
      <trkpt lat="49.47469" lon="1.05257">
        <ele>66.1</ele>
        <time>2021-05-23T09:40:53Z</time>
      </trkpt>
      <trkpt lat="49.47484" lon="1.0524">
        <ele>64.9</ele>
        <time>2021-05-23T09:40:55Z</time>
      </trkpt>
      <trkpt lat="49.47492" lon="1.05229">
        <ele>63.7</ele>
        <time>2021-05-23T09:40:56Z</time>
      </trkpt>
      <trkpt lat="49.47508" lon="1.05208">
        <ele>62.5</ele>
        <time>2021-05-23T09:40:58Z</time>
      </trkpt>
      <trkpt lat="49.47517" lon="1.052">
        <ele>61.4</ele>
        <time>2021-05-23T09:40:59Z</time>
      </trkpt>
      <trkpt lat="49.47527" lon="1.05192">
        <ele>60.3</ele>
        <time>2021-05-23T09:41:00Z</time>
      </trkpt>
      <trkpt lat="49.47547" lon="1.05182">
        <ele>59.2</ele>
        <time>2021-05-23T09:41:02Z</time>
      </trkpt>
      <trkpt lat="49.47556" lon="1.05177">
        <ele>58.4</ele>
        <time>2021-05-23T09:41:03Z</time>
      </trkpt>
      <trkpt lat="49.47567" lon="1.05174">
        <ele>57.6</ele>
        <time>2021-05-23T09:41:04Z</time>
      </trkpt>
      <trkpt lat="49.47576" lon="1.0517">
        <ele>57.1</ele>
        <time>2021-05-23T09:41:05Z</time>
      </trkpt>
      <trkpt lat="49.47597" lon="1.05166">
        <ele>56.6</ele>
        <time>2021-05-23T09:41:07Z</time>
      </trkpt>
      <trkpt lat="49.47618" lon="1.05164">
        <ele>56.1</ele>
        <time>2021-05-23T09:41:09Z</time>
      </trkpt>
      <trkpt lat="49.47635" lon="1.0517">
        <ele>55.5</ele>
        <time>2021-05-23T09:41:11Z</time>
      </trkpt>
      <trkpt lat="49.47641" lon="1.05172">
        <ele>54.9</ele>
        <time>2021-05-23T09:41:12Z</time>
      </trkpt>
      <trkpt lat="49.47652" lon="1.05165">
        <ele>54.3</ele>
        <time>2021-05-23T09:41:14Z</time>
      </trkpt>
      <trkpt lat="49.47655" lon="1.05157">
        <ele>53.6</ele>
        <time>2021-05-23T09:41:15Z</time>
      </trkpt>
      <trkpt lat="49.47655" lon="1.05148">
        <ele>52.9</ele>
        <time>2021-05-23T09:41:16Z</time>
      </trkpt>
      <trkpt lat="49.47656" lon="1.05131">
        <ele>52.2</ele>
        <time>2021-05-23T09:41:18Z</time>
      </trkpt>
      <trkpt lat="49.47655" lon="1.05122">
        <ele>51.5</ele>
        <time>2021-05-23T09:41:19Z</time>
      </trkpt>
      <trkpt lat="49.47654" lon="1.05103">
        <ele>50.5</ele>
        <time>2021-05-23T09:41:21Z</time>
      </trkpt>
      <trkpt lat="49.47651" lon="1.05092">
        <ele>49.6</ele>
        <time>2021-05-23T09:41:22Z</time>
      </trkpt>
      <trkpt lat="49.47648" lon="1.0507">
        <ele>48.5</ele>
        <time>2021-05-23T09:41:24Z</time>
      </trkpt>
      <trkpt lat="49.47646" lon="1.05057">
        <ele>47.3</ele>
        <time>2021-05-23T09:41:25Z</time>
      </trkpt>
      <trkpt lat="49.47641" lon="1.0503">
        <ele>46.1</ele>
        <time>2021-05-23T09:41:27Z</time>
      </trkpt>
      <trkpt lat="49.47637" lon="1.05">
        <ele>44.7</ele>
        <time>2021-05-23T09:41:29Z</time>
      </trkpt>
      <trkpt lat="49.47635" lon="1.04984">
        <ele>43.3</ele>
        <time>2021-05-23T09:41:30Z</time>
      </trkpt>
      <trkpt lat="49.4763" lon="1.04951">
        <ele>41.9</ele>
        <time>2021-05-23T09:41:32Z</time>
      </trkpt>
      <trkpt lat="49.47625" lon="1.04917">
        <ele>40.5</ele>
        <time>2021-05-23T09:41:35Z</time>
      </trkpt>
      <trkpt lat="49.47622" lon="1.049">
        <ele>39.2</ele>
        <time>2021-05-23T09:41:36Z</time>
      </trkpt>
      <trkpt lat="49.47619" lon="1.04867">
        <ele>37.8</ele>
        <time>2021-05-23T09:41:38Z</time>
      </trkpt>
      <trkpt lat="49.47615" lon="1.04838">
        <ele>36.5</ele>
        <time>2021-05-23T09:41:40Z</time>
      </trkpt>
      <trkpt lat="49.47613" lon="1.04829">
        <ele>35.4</ele>
        <time>2021-05-23T09:41:41Z</time>
      </trkpt>
      <trkpt lat="49.47612" lon="1.04822">
        <ele>34.4</ele>
        <time>2021-05-23T09:41:42Z</time>
      </trkpt>
      <trkpt lat="49.47612" lon="1.04818">
        <ele>33.7</ele>
        <time>2021-05-23T09:41:43Z</time>
      </trkpt>
      <trkpt lat="49.47611" lon="1.04813">
        <ele>33.2</ele>
        <time>2021-05-23T09:41:45Z</time>
      </trkpt>
      <trkpt lat="49.47608" lon="1.04808">
        <ele>32.9</ele>
        <time>2021-05-23T09:41:47Z</time>
      </trkpt>
      <trkpt lat="49.47604" lon="1.04804">
        <ele>32.7</ele>
        <time>2021-05-23T09:41:48Z</time>
      </trkpt>
      <trkpt lat="49.47597" lon="1.04805">
        <ele>32.5</ele>
        <time>2021-05-23T09:41:50Z</time>
      </trkpt>
      <trkpt lat="49.47585" lon="1.04808">
        <ele>32.5</ele>
        <time>2021-05-23T09:41:52Z</time>
      </trkpt>
      <trkpt lat="49.4758" lon="1.04811">
        <ele>32.4</ele>
        <time>2021-05-23T09:41:54Z</time>
      </trkpt>
      <trkpt lat="49.47576" lon="1.04814">
        <ele>32.3</ele>
        <time>2021-05-23T09:41:55Z</time>
      </trkpt>
      <trkpt lat="49.4757" lon="1.04813">
        <ele>32.2</ele>
        <time>2021-05-23T09:41:56Z</time>
      </trkpt>
      <trkpt lat="49.47562" lon="1.04812">
        <ele>32.1</ele>
        <time>2021-05-23T09:41:58Z</time>
      </trkpt>
      <trkpt lat="49.47558" lon="1.04814">
        <ele>31.9</ele>
        <time>2021-05-23T09:41:59Z</time>
      </trkpt>
      <trkpt lat="49.47555" lon="1.04814">
        <ele>31.5</ele>
        <time>2021-05-23T09:42:00Z</time>
      </trkpt>
      <trkpt lat="49.47554" lon="1.04814">
        <ele>31.1</ele>
        <time>2021-05-23T09:42:01Z</time>
      </trkpt>
      <trkpt lat="49.47553" lon="1.0481">
        <ele>30.6</ele>
        <time>2021-05-23T09:42:03Z</time>
      </trkpt>
      <trkpt lat="49.47552" lon="1.04807">
        <ele>30.3</ele>
        <time>2021-05-23T09:42:04Z</time>
      </trkpt>
      <trkpt lat="49.47551" lon="1.04798">
        <ele>29.9</ele>
        <time>2021-05-23T09:42:05Z</time>
      </trkpt>
      <trkpt lat="49.47551" lon="1.04789">
        <ele>29.5</ele>
        <time>2021-05-23T09:42:06Z</time>
      </trkpt>
      <trkpt lat="49.47552" lon="1.0478">
        <ele>29.2</ele>
        <time>2021-05-23T09:42:07Z</time>
      </trkpt>
      <trkpt lat="49.4756" lon="1.0477">
        <ele>28.8</ele>
        <time>2021-05-23T09:42:09Z</time>
      </trkpt>
      <trkpt lat="49.47566" lon="1.04767">
        <ele>28.5</ele>
        <time>2021-05-23T09:42:10Z</time>
      </trkpt>
      <trkpt lat="49.47573" lon="1.04764">
        <ele>28</ele>
        <time>2021-05-23T09:42:11Z</time>
      </trkpt>
      <trkpt lat="49.47581" lon="1.04763">
        <ele>27.6</ele>
        <time>2021-05-23T09:42:13Z</time>
      </trkpt>
      <trkpt lat="49.47585" lon="1.04764">
        <ele>27.3</ele>
        <time>2021-05-23T09:42:14Z</time>
      </trkpt>
      <trkpt lat="49.47589" lon="1.04763">
        <ele>26.9</ele>
        <time>2021-05-23T09:42:15Z</time>
      </trkpt>
      <trkpt lat="49.47603" lon="1.04753">
        <ele>26.4</ele>
        <time>2021-05-23T09:42:17Z</time>
      </trkpt>
      <trkpt lat="49.47611" lon="1.04744">
        <ele>25.7</ele>
        <time>2021-05-23T09:42:19Z</time>
      </trkpt>
      <trkpt lat="49.47614" lon="1.04738">
        <ele>25.1</ele>
        <time>2021-05-23T09:42:20Z</time>
      </trkpt>
      <trkpt lat="49.47619" lon="1.04725">
        <ele>24.4</ele>
        <time>2021-05-23T09:42:23Z</time>
      </trkpt>
      <trkpt lat="49.47619" lon="1.04718">
        <ele>23.6</ele>
        <time>2021-05-23T09:42:24Z</time>
      </trkpt>
      <trkpt lat="49.47613" lon="1.04705">
        <ele>22.8</ele>
        <time>2021-05-23T09:42:26Z</time>
      </trkpt>
      <trkpt lat="49.47607" lon="1.04695">
        <ele>22.1</ele>
        <time>2021-05-23T09:42:28Z</time>
      </trkpt>
      <trkpt lat="49.47603" lon="1.04691">
        <ele>21.4</ele>
        <time>2021-05-23T09:42:29Z</time>
      </trkpt>
      <trkpt lat="49.47597" lon="1.0468">
        <ele>20.5</ele>
        <time>2021-05-23T09:42:31Z</time>
      </trkpt>
      <trkpt lat="49.47595" lon="1.04673">
        <ele>19.8</ele>
        <time>2021-05-23T09:42:32Z</time>
      </trkpt>
      <trkpt lat="49.47593" lon="1.04661">
        <ele>19.1</ele>
        <time>2021-05-23T09:42:34Z</time>
      </trkpt>
      <trkpt lat="49.47594" lon="1.04655">
        <ele>18.5</ele>
        <time>2021-05-23T09:42:35Z</time>
      </trkpt>
      <trkpt lat="49.47595" lon="1.04643">
        <ele>18</ele>
        <time>2021-05-23T09:42:37Z</time>
      </trkpt>
      <trkpt lat="49.47595" lon="1.04637">
        <ele>17.5</ele>
        <time>2021-05-23T09:42:38Z</time>
      </trkpt>
      <trkpt lat="49.47596" lon="1.04624">
        <ele>16.9</ele>
        <time>2021-05-23T09:42:40Z</time>
      </trkpt>
      <trkpt lat="49.47597" lon="1.04608">
        <ele>16.4</ele>
        <time>2021-05-23T09:42:42Z</time>
      </trkpt>
      <trkpt lat="49.47597" lon="1.046">
        <ele>15.9</ele>
        <time>2021-05-23T09:42:43Z</time>
      </trkpt>
      <trkpt lat="49.47599" lon="1.04584">
        <ele>15.5</ele>
        <time>2021-05-23T09:42:45Z</time>
      </trkpt>
      <trkpt lat="49.47599" lon="1.04575">
        <ele>15.1</ele>
        <time>2021-05-23T09:42:46Z</time>
      </trkpt>
      <trkpt lat="49.476" lon="1.04566">
        <ele>14.9</ele>
        <time>2021-05-23T09:42:47Z</time>
      </trkpt>
      <trkpt lat="49.476" lon="1.04558">
        <ele>14.8</ele>
        <time>2021-05-23T09:42:48Z</time>
      </trkpt>
      <trkpt lat="49.47597" lon="1.04542">
        <ele>14.8</ele>
        <time>2021-05-23T09:42:50Z</time>
      </trkpt>
      <trkpt lat="49.47595" lon="1.04534">
        <ele>14.8</ele>
        <time>2021-05-23T09:42:51Z</time>
      </trkpt>
      <trkpt lat="49.47593" lon="1.04526">
        <ele>15</ele>
        <time>2021-05-23T09:42:52Z</time>
      </trkpt>
      <trkpt lat="49.4759" lon="1.04519">
        <ele>15.2</ele>
        <time>2021-05-23T09:42:53Z</time>
      </trkpt>
      <trkpt lat="49.47585" lon="1.04506">
        <ele>15.6</ele>
        <time>2021-05-23T09:42:55Z</time>
      </trkpt>
      <trkpt lat="49.47582" lon="1.04499">
        <ele>16.1</ele>
        <time>2021-05-23T09:42:56Z</time>
      </trkpt>
      <trkpt lat="49.47581" lon="1.0449">
        <ele>16.5</ele>
        <time>2021-05-23T09:42:57Z</time>
      </trkpt>
      <trkpt lat="49.4758" lon="1.04481">
        <ele>17</ele>
        <time>2021-05-23T09:42:58Z</time>
      </trkpt>
      <trkpt lat="49.4758" lon="1.04472">
        <ele>17.4</ele>
        <time>2021-05-23T09:42:59Z</time>
      </trkpt>
      <trkpt lat="49.47581" lon="1.04454">
        <ele>17.6</ele>
        <time>2021-05-23T09:43:01Z</time>
      </trkpt>
      <trkpt lat="49.47582" lon="1.04438">
        <ele>17.8</ele>
        <time>2021-05-23T09:43:03Z</time>
      </trkpt>
      <trkpt lat="49.47582" lon="1.0443">
        <ele>17.9</ele>
        <time>2021-05-23T09:43:04Z</time>
      </trkpt>
      <trkpt lat="49.47583" lon="1.04415">
        <ele>18</ele>
        <time>2021-05-23T09:43:06Z</time>
      </trkpt>
      <trkpt lat="49.47584" lon="1.044">
        <ele>18</ele>
        <time>2021-05-23T09:43:08Z</time>
      </trkpt>
      <trkpt lat="49.47585" lon="1.04386">
        <ele>17.9</ele>
        <time>2021-05-23T09:43:11Z</time>
      </trkpt>
      <trkpt lat="49.47586" lon="1.0438">
        <ele>17.6</ele>
        <time>2021-05-23T09:43:12Z</time>
      </trkpt>
      <trkpt lat="49.47586" lon="1.04373">
        <ele>17.4</ele>
        <time>2021-05-23T09:43:13Z</time>
      </trkpt>
      <trkpt lat="49.47587" lon="1.04358">
        <ele>17.1</ele>
        <time>2021-05-23T09:43:15Z</time>
      </trkpt>
      <trkpt lat="49.47588" lon="1.04351">
        <ele>16.8</ele>
        <time>2021-05-23T09:43:16Z</time>
      </trkpt>
      <trkpt lat="49.47588" lon="1.04346">
        <ele>16.6</ele>
        <time>2021-05-23T09:43:17Z</time>
      </trkpt>
      <trkpt lat="49.47589" lon="1.04333">
        <ele>16.5</ele>
        <time>2021-05-23T09:43:19Z</time>
      </trkpt>
      <trkpt lat="49.4759" lon="1.04321">
        <ele>16.4</ele>
        <time>2021-05-23T09:43:21Z</time>
      </trkpt>
      <trkpt lat="49.47596" lon="1.04313">
        <ele>16.4</ele>
        <time>2021-05-23T09:43:23Z</time>
      </trkpt>
      <trkpt lat="49.47595" lon="1.04305">
        <ele>16.4</ele>
        <time>2021-05-23T09:43:24Z</time>
      </trkpt>
      <trkpt lat="49.47595" lon="1.04295">
        <ele>16.4</ele>
        <time>2021-05-23T09:43:25Z</time>
      </trkpt>
      <trkpt lat="49.47596" lon="1.0429">
        <ele>16.5</ele>
        <time>2021-05-23T09:43:27Z</time>
      </trkpt>
      <trkpt lat="49.47598" lon="1.04289">
        <ele>16.5</ele>
        <time>2021-05-23T09:43:28Z</time>
      </trkpt>
      <trkpt lat="49.47603" lon="1.04289">
        <ele>16.6</ele>
        <time>2021-05-23T09:43:30Z</time>
      </trkpt>
      <trkpt lat="49.47607" lon="1.04291">
        <ele>16.7</ele>
        <time>2021-05-23T09:43:31Z</time>
      </trkpt>
      <trkpt lat="49.4761" lon="1.04293">
        <ele>16.8</ele>
        <time>2021-05-23T09:43:32Z</time>
      </trkpt>
      <trkpt lat="49.47615" lon="1.04296">
        <ele>16.9</ele>
        <time>2021-05-23T09:43:33Z</time>
      </trkpt>
      <trkpt lat="49.47625" lon="1.04302">
        <ele>17</ele>
        <time>2021-05-23T09:43:35Z</time>
      </trkpt>
      <trkpt lat="49.47634" lon="1.04307">
        <ele>17</ele>
        <time>2021-05-23T09:43:37Z</time>
      </trkpt>
      <trkpt lat="49.4764" lon="1.04312">
        <ele>17</ele>
        <time>2021-05-23T09:43:38Z</time>
      </trkpt>
      <trkpt lat="49.47643" lon="1.04316">
        <ele>17</ele>
        <time>2021-05-23T09:43:39Z</time>
      </trkpt>
      <trkpt lat="49.47647" lon="1.0432">
        <ele>17</ele>
        <time>2021-05-23T09:43:41Z</time>
      </trkpt>
      <trkpt lat="49.47646" lon="1.04325">
        <ele>17</ele>
        <time>2021-05-23T09:43:42Z</time>
      </trkpt>
      <trkpt lat="49.47646" lon="1.04326">
        <ele>17</ele>
        <time>2021-05-23T09:43:43Z</time>
      </trkpt>
      <trkpt lat="49.47645" lon="1.04331">
        <ele>17</ele>
        <time>2021-05-23T09:43:45Z</time>
      </trkpt>
      <trkpt lat="49.47645" lon="1.04336">
        <ele>17</ele>
        <time>2021-05-23T09:43:46Z</time>
      </trkpt>
      <trkpt lat="49.47646" lon="1.04335">
        <ele>17</ele>
        <time>2021-05-23T09:43:48Z</time>
      </trkpt>
      <trkpt lat="49.47645" lon="1.04336">
        <ele>17</ele>
        <time>2021-05-23T09:43:49Z</time>
      </trkpt>
      <trkpt lat="49.47644" lon="1.04336">
        <ele>17</ele>
        <time>2021-05-23T09:43:51Z</time>
      </trkpt>
      <trkpt lat="49.47644" lon="1.04336">
        <ele>16.9</ele>
        <time>2021-05-23T09:43:53Z</time>
      </trkpt>
      <trkpt lat="49.47644" lon="1.04336">
        <ele>16.8</ele>
        <time>2021-05-23T09:43:54Z</time>
      </trkpt>
      <trkpt lat="49.47644" lon="1.04336">
        <ele>16.7</ele>
        <time>2021-05-23T09:43:55Z</time>
      </trkpt>
      <trkpt lat="49.47644" lon="1.04336">
        <ele>16.6</ele>
        <time>2021-05-23T09:43:57Z</time>
      </trkpt>
      <trkpt lat="49.47615" lon="1.04298">
        <ele>16.5</ele>
        <time>2021-05-23T09:44:08Z</time>
      </trkpt>
      <trkpt lat="49.4759" lon="1.04305">
        <ele>16.5</ele>
        <time>2021-05-23T09:44:10Z</time>
      </trkpt>
      <trkpt lat="49.47587" lon="1.04309">
        <ele>16.5</ele>
        <time>2021-05-23T09:44:11Z</time>
      </trkpt>
      <trkpt lat="49.47587" lon="1.04323">
        <ele>16.5</ele>
        <time>2021-05-23T09:44:13Z</time>
      </trkpt>
      <trkpt lat="49.47587" lon="1.04328">
        <ele>16.6</ele>
        <time>2021-05-23T09:44:14Z</time>
      </trkpt>
      <trkpt lat="49.47586" lon="1.04335">
        <ele>16.8</ele>
        <time>2021-05-23T09:44:15Z</time>
      </trkpt>
      <trkpt lat="49.47586" lon="1.04343">
        <ele>17.1</ele>
        <time>2021-05-23T09:44:16Z</time>
      </trkpt>
      <trkpt lat="49.47584" lon="1.04358">
        <ele>17.5</ele>
        <time>2021-05-23T09:44:18Z</time>
      </trkpt>
      <trkpt lat="49.47583" lon="1.04376">
        <ele>17.7</ele>
        <time>2021-05-23T09:44:20Z</time>
      </trkpt>
      <trkpt lat="49.47582" lon="1.04385">
        <ele>17.9</ele>
        <time>2021-05-23T09:44:21Z</time>
      </trkpt>
      <trkpt lat="49.4758" lon="1.04404">
        <ele>18</ele>
        <time>2021-05-23T09:44:23Z</time>
      </trkpt>
      <trkpt lat="49.47577" lon="1.04424">
        <ele>18</ele>
        <time>2021-05-23T09:44:25Z</time>
      </trkpt>
      <trkpt lat="49.47576" lon="1.04433">
        <ele>17.9</ele>
        <time>2021-05-23T09:44:26Z</time>
      </trkpt>
      <trkpt lat="49.47575" lon="1.04454">
        <ele>17.6</ele>
        <time>2021-05-23T09:44:28Z</time>
      </trkpt>
      <trkpt lat="49.47574" lon="1.04464">
        <ele>17.3</ele>
        <time>2021-05-23T09:44:29Z</time>
      </trkpt>
      <trkpt lat="49.47574" lon="1.04484">
        <ele>16.9</ele>
        <time>2021-05-23T09:44:31Z</time>
      </trkpt>
      <trkpt lat="49.47575" lon="1.04503">
        <ele>16.5</ele>
        <time>2021-05-23T09:44:33Z</time>
      </trkpt>
      <trkpt lat="49.47578" lon="1.04518">
        <ele>16.1</ele>
        <time>2021-05-23T09:44:35Z</time>
      </trkpt>
      <trkpt lat="49.47581" lon="1.04525">
        <ele>15.7</ele>
        <time>2021-05-23T09:44:36Z</time>
      </trkpt>
      <trkpt lat="49.47586" lon="1.04541">
        <ele>15.5</ele>
        <time>2021-05-23T09:44:38Z</time>
      </trkpt>
      <trkpt lat="49.47591" lon="1.04556">
        <ele>15.3</ele>
        <time>2021-05-23T09:44:40Z</time>
      </trkpt>
      <trkpt lat="49.47595" lon="1.04571">
        <ele>15.2</ele>
        <time>2021-05-23T09:44:42Z</time>
      </trkpt>
      <trkpt lat="49.47595" lon="1.04586">
        <ele>15.2</ele>
        <time>2021-05-23T09:44:44Z</time>
      </trkpt>
      <trkpt lat="49.47594" lon="1.04598">
        <ele>15.2</ele>
        <time>2021-05-23T09:44:46Z</time>
      </trkpt>
      <trkpt lat="49.47593" lon="1.04603">
        <ele>15.3</ele>
        <time>2021-05-23T09:44:48Z</time>
      </trkpt>
      <trkpt lat="49.47593" lon="1.04608">
        <ele>15.3</ele>
        <time>2021-05-23T09:44:50Z</time>
      </trkpt>
      <trkpt lat="49.47593" lon="1.04608">
        <ele>15.3</ele>
        <time>2021-05-23T09:44:52Z</time>
      </trkpt>
      <trkpt lat="49.47593" lon="1.04604">
        <ele>15.2</ele>
        <time>2021-05-23T09:44:53Z</time>
      </trkpt>
      <trkpt lat="49.47595" lon="1.04592">
        <ele>15.2</ele>
        <time>2021-05-23T09:44:55Z</time>
      </trkpt>
      <trkpt lat="49.47596" lon="1.04583">
        <ele>15.1</ele>
        <time>2021-05-23T09:44:56Z</time>
      </trkpt>
      <trkpt lat="49.47597" lon="1.04563">
        <ele>15.1</ele>
        <time>2021-05-23T09:44:58Z</time>
      </trkpt>
      <trkpt lat="49.47596" lon="1.04547">
        <ele>15.1</ele>
        <time>2021-05-23T09:45:00Z</time>
      </trkpt>
      <trkpt lat="49.47592" lon="1.04531">
        <ele>15.1</ele>
        <time>2021-05-23T09:45:02Z</time>
      </trkpt>
      <trkpt lat="49.47591" lon="1.04523">
        <ele>15.1</ele>
        <time>2021-05-23T09:45:03Z</time>
      </trkpt>
      <trkpt lat="49.47586" lon="1.04511">
        <ele>15.2</ele>
        <time>2021-05-23T09:45:05Z</time>
      </trkpt>
      <trkpt lat="49.47581" lon="1.04508">
        <ele>15.3</ele>
        <time>2021-05-23T09:45:06Z</time>
      </trkpt>
      <trkpt lat="49.4757" lon="1.04514">
        <ele>15.5</ele>
        <time>2021-05-23T09:45:08Z</time>
      </trkpt>
      <trkpt lat="49.47565" lon="1.04523">
        <ele>15.7</ele>
        <time>2021-05-23T09:45:10Z</time>
      </trkpt>
      <trkpt lat="49.47559" lon="1.04533">
        <ele>16</ele>
        <time>2021-05-23T09:45:12Z</time>
      </trkpt>
      <trkpt lat="49.47551" lon="1.04544">
        <ele>16.2</ele>
        <time>2021-05-23T09:45:14Z</time>
      </trkpt>
      <trkpt lat="49.47547" lon="1.04552">
        <ele>16.3</ele>
        <time>2021-05-23T09:45:16Z</time>
      </trkpt>
      <trkpt lat="49.47543" lon="1.04557">
        <ele>16.3</ele>
        <time>2021-05-23T09:45:17Z</time>
      </trkpt>
      <trkpt lat="49.47533" lon="1.0457">
        <ele>16.3</ele>
        <time>2021-05-23T09:45:19Z</time>
      </trkpt>
      <trkpt lat="49.47528" lon="1.04578">
        <ele>16.3</ele>
        <time>2021-05-23T09:45:20Z</time>
      </trkpt>
      <trkpt lat="49.47518" lon="1.0459">
        <ele>16.3</ele>
        <time>2021-05-23T09:45:22Z</time>
      </trkpt>
      <trkpt lat="49.47512" lon="1.04598">
        <ele>16.3</ele>
        <time>2021-05-23T09:45:23Z</time>
      </trkpt>
      <trkpt lat="49.47507" lon="1.04604">
        <ele>16.3</ele>
        <time>2021-05-23T09:45:24Z</time>
      </trkpt>
      <trkpt lat="49.47497" lon="1.04612">
        <ele>16.3</ele>
        <time>2021-05-23T09:45:26Z</time>
      </trkpt>
      <trkpt lat="49.47487" lon="1.04612">
        <ele>16.1</ele>
        <time>2021-05-23T09:45:28Z</time>
      </trkpt>
      <trkpt lat="49.47482" lon="1.04608">
        <ele>15.9</ele>
        <time>2021-05-23T09:45:29Z</time>
      </trkpt>
      <trkpt lat="49.47478" lon="1.04604">
        <ele>15.8</ele>
        <time>2021-05-23T09:45:30Z</time>
      </trkpt>
      <trkpt lat="49.47475" lon="1.046">
        <ele>15.8</ele>
        <time>2021-05-23T09:45:31Z</time>
      </trkpt>
      <trkpt lat="49.47469" lon="1.04587">
        <ele>15.9</ele>
        <time>2021-05-23T09:45:33Z</time>
      </trkpt>
      <trkpt lat="49.47456" lon="1.04557">
        <ele>16.1</ele>
        <time>2021-05-23T09:45:35Z</time>
      </trkpt>
      <trkpt lat="49.47452" lon="1.04549">
        <ele>16.4</ele>
        <time>2021-05-23T09:45:37Z</time>
      </trkpt>
      <trkpt lat="49.47446" lon="1.04538">
        <ele>16.6</ele>
        <time>2021-05-23T09:45:39Z</time>
      </trkpt>
      <trkpt lat="49.47439" lon="1.04528">
        <ele>16.9</ele>
        <time>2021-05-23T09:45:41Z</time>
      </trkpt>
      <trkpt lat="49.4743" lon="1.04518">
        <ele>17.2</ele>
        <time>2021-05-23T09:45:43Z</time>
      </trkpt>
      <trkpt lat="49.47427" lon="1.04513">
        <ele>17.5</ele>
        <time>2021-05-23T09:45:44Z</time>
      </trkpt>
      <trkpt lat="49.47429" lon="1.04501">
        <ele>17.8</ele>
        <time>2021-05-23T09:45:46Z</time>
      </trkpt>
      <trkpt lat="49.47432" lon="1.04482">
        <ele>18.2</ele>
        <time>2021-05-23T09:45:48Z</time>
      </trkpt>
      <trkpt lat="49.47437" lon="1.04466">
        <ele>18.5</ele>
        <time>2021-05-23T09:45:50Z</time>
      </trkpt>
      <trkpt lat="49.47436" lon="1.04457">
        <ele>18.6</ele>
        <time>2021-05-23T09:45:51Z</time>
      </trkpt>
      <trkpt lat="49.47436" lon="1.04444">
        <ele>18.7</ele>
        <time>2021-05-23T09:45:52Z</time>
      </trkpt>
      <trkpt lat="49.47436" lon="1.0442">
        <ele>18.7</ele>
        <time>2021-05-23T09:45:54Z</time>
      </trkpt>
      <trkpt lat="49.47438" lon="1.044">
        <ele>18.5</ele>
        <time>2021-05-23T09:45:56Z</time>
      </trkpt>
      <trkpt lat="49.47439" lon="1.04379">
        <ele>18.4</ele>
        <time>2021-05-23T09:45:58Z</time>
      </trkpt>
      <trkpt lat="49.47439" lon="1.04364">
        <ele>18.1</ele>
        <time>2021-05-23T09:46:00Z</time>
      </trkpt>
      <trkpt lat="49.47436" lon="1.04349">
        <ele>17.7</ele>
        <time>2021-05-23T09:46:02Z</time>
      </trkpt>
      <trkpt lat="49.47436" lon="1.04342">
        <ele>17.3</ele>
        <time>2021-05-23T09:46:03Z</time>
      </trkpt>
      <trkpt lat="49.47435" lon="1.04337">
        <ele>16.8</ele>
        <time>2021-05-23T09:46:04Z</time>
      </trkpt>
      <trkpt lat="49.47431" lon="1.04319">
        <ele>16.4</ele>
        <time>2021-05-23T09:46:06Z</time>
      </trkpt>
      <trkpt lat="49.47429" lon="1.0431">
        <ele>15.8</ele>
        <time>2021-05-23T09:46:07Z</time>
      </trkpt>
      <trkpt lat="49.47425" lon="1.04294">
        <ele>15.4</ele>
        <time>2021-05-23T09:46:09Z</time>
      </trkpt>
      <trkpt lat="49.47421" lon="1.04277">
        <ele>14.9</ele>
        <time>2021-05-23T09:46:11Z</time>
      </trkpt>
      <trkpt lat="49.47413" lon="1.04268">
        <ele>14.5</ele>
        <time>2021-05-23T09:46:13Z</time>
      </trkpt>
      <trkpt lat="49.47408" lon="1.04271">
        <ele>14.1</ele>
        <time>2021-05-23T09:46:14Z</time>
      </trkpt>
      <trkpt lat="49.474" lon="1.04284">
        <ele>13.7</ele>
        <time>2021-05-23T09:46:16Z</time>
      </trkpt>
      <trkpt lat="49.47396" lon="1.04292">
        <ele>13.5</ele>
        <time>2021-05-23T09:46:17Z</time>
      </trkpt>
      <trkpt lat="49.47388" lon="1.04307">
        <ele>13.3</ele>
        <time>2021-05-23T09:46:19Z</time>
      </trkpt>
      <trkpt lat="49.4738" lon="1.04323">
        <ele>13.3</ele>
        <time>2021-05-23T09:46:21Z</time>
      </trkpt>
      <trkpt lat="49.47376" lon="1.0433">
        <ele>13.3</ele>
        <time>2021-05-23T09:46:22Z</time>
      </trkpt>
      <trkpt lat="49.47372" lon="1.04338">
        <ele>13.3</ele>
        <time>2021-05-23T09:46:23Z</time>
      </trkpt>
      <trkpt lat="49.47368" lon="1.04346">
        <ele>13.4</ele>
        <time>2021-05-23T09:46:24Z</time>
      </trkpt>
      <trkpt lat="49.47361" lon="1.04363">
        <ele>13.5</ele>
        <time>2021-05-23T09:46:27Z</time>
      </trkpt>
      <trkpt lat="49.47357" lon="1.0438">
        <ele>13.5</ele>
        <time>2021-05-23T09:46:29Z</time>
      </trkpt>
      <trkpt lat="49.47355" lon="1.04388">
        <ele>13.6</ele>
        <time>2021-05-23T09:46:30Z</time>
      </trkpt>
      <trkpt lat="49.47347" lon="1.04404">
        <ele>13.7</ele>
        <time>2021-05-23T09:46:32Z</time>
      </trkpt>
      <trkpt lat="49.47343" lon="1.0441">
        <ele>13.8</ele>
        <time>2021-05-23T09:46:33Z</time>
      </trkpt>
      <trkpt lat="49.47338" lon="1.04415">
        <ele>13.9</ele>
        <time>2021-05-23T09:46:34Z</time>
      </trkpt>
      <trkpt lat="49.47334" lon="1.04419">
        <ele>14</ele>
        <time>2021-05-23T09:46:35Z</time>
      </trkpt>
      <trkpt lat="49.47325" lon="1.04424">
        <ele>14</ele>
        <time>2021-05-23T09:46:37Z</time>
      </trkpt>
      <trkpt lat="49.4732" lon="1.04427">
        <ele>14</ele>
        <time>2021-05-23T09:46:38Z</time>
      </trkpt>
      <trkpt lat="49.4731" lon="1.04435">
        <ele>14</ele>
        <time>2021-05-23T09:46:40Z</time>
      </trkpt>
      <trkpt lat="49.47299" lon="1.04445">
        <ele>14</ele>
        <time>2021-05-23T09:46:42Z</time>
      </trkpt>
      <trkpt lat="49.47294" lon="1.04449">
        <ele>14</ele>
        <time>2021-05-23T09:46:43Z</time>
      </trkpt>
      <trkpt lat="49.47285" lon="1.04458">
        <ele>14</ele>
        <time>2021-05-23T09:46:45Z</time>
      </trkpt>
      <trkpt lat="49.47282" lon="1.04461">
        <ele>14</ele>
        <time>2021-05-23T09:46:46Z</time>
      </trkpt>
      <trkpt lat="49.47279" lon="1.04467">
        <ele>14</ele>
        <time>2021-05-23T09:46:48Z</time>
      </trkpt>
      <trkpt lat="49.47277" lon="1.04468">
        <ele>14</ele>
        <time>2021-05-23T09:46:49Z</time>
      </trkpt>
      <trkpt lat="49.47271" lon="1.04471">
        <ele>13.9</ele>
        <time>2021-05-23T09:46:51Z</time>
      </trkpt>
      <trkpt lat="49.47263" lon="1.04472">
        <ele>13.8</ele>
        <time>2021-05-23T09:46:53Z</time>
      </trkpt>
      <trkpt lat="49.47259" lon="1.04473">
        <ele>13.7</ele>
        <time>2021-05-23T09:46:54Z</time>
      </trkpt>
      <trkpt lat="49.47253" lon="1.04474">
        <ele>13.5</ele>
        <time>2021-05-23T09:46:55Z</time>
      </trkpt>
      <trkpt lat="49.47242" lon="1.04478">
        <ele>13.4</ele>
        <time>2021-05-23T09:46:57Z</time>
      </trkpt>
      <trkpt lat="49.47232" lon="1.0448">
        <ele>13.2</ele>
        <time>2021-05-23T09:46:59Z</time>
      </trkpt>
      <trkpt lat="49.47228" lon="1.04481">
        <ele>13</ele>
        <time>2021-05-23T09:47:00Z</time>
      </trkpt>
      <trkpt lat="49.4722" lon="1.04482">
        <ele>12.7</ele>
        <time>2021-05-23T09:47:02Z</time>
      </trkpt>
      <trkpt lat="49.47211" lon="1.04483">
        <ele>12.5</ele>
        <time>2021-05-23T09:47:04Z</time>
      </trkpt>
      <trkpt lat="49.47201" lon="1.04488">
        <ele>12.2</ele>
        <time>2021-05-23T09:47:06Z</time>
      </trkpt>
      <trkpt lat="49.47192" lon="1.04494">
        <ele>11.9</ele>
        <time>2021-05-23T09:47:08Z</time>
      </trkpt>
      <trkpt lat="49.47184" lon="1.04499">
        <ele>11.7</ele>
        <time>2021-05-23T09:47:10Z</time>
      </trkpt>
      <trkpt lat="49.47176" lon="1.04503">
        <ele>11.5</ele>
        <time>2021-05-23T09:47:12Z</time>
      </trkpt>
      <trkpt lat="49.47169" lon="1.04505">
        <ele>11.3</ele>
        <time>2021-05-23T09:47:15Z</time>
      </trkpt>
      <trkpt lat="49.47168" lon="1.0451">
        <ele>11.1</ele>
        <time>2021-05-23T09:47:17Z</time>
      </trkpt>
      <trkpt lat="49.47169" lon="1.04516">
        <ele>10.9</ele>
        <time>2021-05-23T09:47:19Z</time>
      </trkpt>
      <trkpt lat="49.4717" lon="1.04524">
        <ele>10.7</ele>
        <time>2021-05-23T09:47:21Z</time>
      </trkpt>
      <trkpt lat="49.47172" lon="1.04536">
        <ele>10.6</ele>
        <time>2021-05-23T09:47:23Z</time>
      </trkpt>
      <trkpt lat="49.47174" lon="1.04549">
        <ele>10.6</ele>
        <time>2021-05-23T09:47:25Z</time>
      </trkpt>
      <trkpt lat="49.47175" lon="1.04555">
        <ele>10.7</ele>
        <time>2021-05-23T09:47:26Z</time>
      </trkpt>
      <trkpt lat="49.47176" lon="1.04573">
        <ele>10.9</ele>
        <time>2021-05-23T09:47:28Z</time>
      </trkpt>
      <trkpt lat="49.47177" lon="1.04582">
        <ele>11.2</ele>
        <time>2021-05-23T09:47:29Z</time>
      </trkpt>
      <trkpt lat="49.47177" lon="1.04598">
        <ele>11.5</ele>
        <time>2021-05-23T09:47:31Z</time>
      </trkpt>
      <trkpt lat="49.47174" lon="1.04605">
        <ele>11.7</ele>
        <time>2021-05-23T09:47:32Z</time>
      </trkpt>
      <trkpt lat="49.47173" lon="1.04614">
        <ele>12.1</ele>
        <time>2021-05-23T09:47:33Z</time>
      </trkpt>
      <trkpt lat="49.47168" lon="1.04632">
        <ele>12.5</ele>
        <time>2021-05-23T09:47:35Z</time>
      </trkpt>
      <trkpt lat="49.47163" lon="1.0465">
        <ele>12.8</ele>
        <time>2021-05-23T09:47:37Z</time>
      </trkpt>
      <trkpt lat="49.47161" lon="1.04658">
        <ele>13.2</ele>
        <time>2021-05-23T09:47:38Z</time>
      </trkpt>
      <trkpt lat="49.47159" lon="1.04674">
        <ele>13.4</ele>
        <time>2021-05-23T09:47:40Z</time>
      </trkpt>
      <trkpt lat="49.47157" lon="1.0468">
        <ele>13.5</ele>
        <time>2021-05-23T09:47:41Z</time>
      </trkpt>
      <trkpt lat="49.47153" lon="1.04681">
        <ele>13.5</ele>
        <time>2021-05-23T09:47:42Z</time>
      </trkpt>
      <trkpt lat="49.4715" lon="1.04673">
        <ele>13.4</ele>
        <time>2021-05-23T09:47:44Z</time>
      </trkpt>
      <trkpt lat="49.47149" lon="1.04667">
        <ele>13.1</ele>
        <time>2021-05-23T09:47:45Z</time>
      </trkpt>
      <trkpt lat="49.47147" lon="1.04658">
        <ele>12.8</ele>
        <time>2021-05-23T09:47:46Z</time>
      </trkpt>
      <trkpt lat="49.47145" lon="1.04649">
        <ele>12.5</ele>
        <time>2021-05-23T09:47:47Z</time>
      </trkpt>
      <trkpt lat="49.4714" lon="1.04631">
        <ele>12.3</ele>
        <time>2021-05-23T09:47:49Z</time>
      </trkpt>
      <trkpt lat="49.47138" lon="1.04623">
        <ele>12</ele>
        <time>2021-05-23T09:47:50Z</time>
      </trkpt>
      <trkpt lat="49.47132" lon="1.04604">
        <ele>11.7</ele>
        <time>2021-05-23T09:47:52Z</time>
      </trkpt>
      <trkpt lat="49.47129" lon="1.04595">
        <ele>11.5</ele>
        <time>2021-05-23T09:47:53Z</time>
      </trkpt>
      <trkpt lat="49.47128" lon="1.04589">
        <ele>11.3</ele>
        <time>2021-05-23T09:47:54Z</time>
      </trkpt>
      <trkpt lat="49.47126" lon="1.04584">
        <ele>11.2</ele>
        <time>2021-05-23T09:47:55Z</time>
      </trkpt>
      <trkpt lat="49.47125" lon="1.04581">
        <ele>11.2</ele>
        <time>2021-05-23T09:47:56Z</time>
      </trkpt>
      <trkpt lat="49.4712" lon="1.04585">
        <ele>11.3</ele>
        <time>2021-05-23T09:47:58Z</time>
      </trkpt>
      <trkpt lat="49.47118" lon="1.04591">
        <ele>11.4</ele>
        <time>2021-05-23T09:47:59Z</time>
      </trkpt>
      <trkpt lat="49.47116" lon="1.04598">
        <ele>11.5</ele>
        <time>2021-05-23T09:48:00Z</time>
      </trkpt>
      <trkpt lat="49.47109" lon="1.04613">
        <ele>11.5</ele>
        <time>2021-05-23T09:48:03Z</time>
      </trkpt>
      <trkpt lat="49.47102" lon="1.04628">
        <ele>11.6</ele>
        <time>2021-05-23T09:48:05Z</time>
      </trkpt>
      <trkpt lat="49.47095" lon="1.04644">
        <ele>11.7</ele>
        <time>2021-05-23T09:48:07Z</time>
      </trkpt>
      <trkpt lat="49.4709" lon="1.04657">
        <ele>11.8</ele>
        <time>2021-05-23T09:48:09Z</time>
      </trkpt>
      <trkpt lat="49.47084" lon="1.04669">
        <ele>11.9</ele>
        <time>2021-05-23T09:48:11Z</time>
      </trkpt>
      <trkpt lat="49.4708" lon="1.04675">
        <ele>12</ele>
        <time>2021-05-23T09:48:12Z</time>
      </trkpt>
      <trkpt lat="49.47074" lon="1.04688">
        <ele>12</ele>
        <time>2021-05-23T09:48:14Z</time>
      </trkpt>
      <trkpt lat="49.4707" lon="1.04694">
        <ele>12</ele>
        <time>2021-05-23T09:48:15Z</time>
      </trkpt>
      <trkpt lat="49.47062" lon="1.04704">
        <ele>12</ele>
        <time>2021-05-23T09:48:17Z</time>
      </trkpt>
      <trkpt lat="49.47055" lon="1.04714">
        <ele>12</ele>
        <time>2021-05-23T09:48:19Z</time>
      </trkpt>
      <trkpt lat="49.47047" lon="1.04723">
        <ele>12</ele>
        <time>2021-05-23T09:48:21Z</time>
      </trkpt>
      <trkpt lat="49.47043" lon="1.04728">
        <ele>12</ele>
        <time>2021-05-23T09:48:22Z</time>
      </trkpt>
      <trkpt lat="49.47036" lon="1.04736">
        <ele>12</ele>
        <time>2021-05-23T09:48:24Z</time>
      </trkpt>
      <trkpt lat="49.47032" lon="1.0474">
        <ele>12.1</ele>
        <time>2021-05-23T09:48:25Z</time>
      </trkpt>
      <trkpt lat="49.47025" lon="1.04747">
        <ele>12.2</ele>
        <time>2021-05-23T09:48:27Z</time>
      </trkpt>
      <trkpt lat="49.47017" lon="1.04756">
        <ele>12.3</ele>
        <time>2021-05-23T09:48:29Z</time>
      </trkpt>
      <trkpt lat="49.47013" lon="1.0476">
        <ele>12.4</ele>
        <time>2021-05-23T09:48:30Z</time>
      </trkpt>
      <trkpt lat="49.47009" lon="1.04764">
        <ele>12.4</ele>
        <time>2021-05-23T09:48:31Z</time>
      </trkpt>
      <trkpt lat="49.47004" lon="1.04767">
        <ele>12.4</ele>
        <time>2021-05-23T09:48:33Z</time>
      </trkpt>
      <trkpt lat="49.47001" lon="1.04769">
        <ele>12.4</ele>
        <time>2021-05-23T09:48:34Z</time>
      </trkpt>
      <trkpt lat="49.46995" lon="1.04771">
        <ele>12.4</ele>
        <time>2021-05-23T09:48:36Z</time>
      </trkpt>
      <trkpt lat="49.46994" lon="1.04769">
        <ele>12.4</ele>
        <time>2021-05-23T09:48:37Z</time>
      </trkpt>
      <trkpt lat="49.46993" lon="1.04756">
        <ele>12.4</ele>
        <time>2021-05-23T09:48:39Z</time>
      </trkpt>
      <trkpt lat="49.46992" lon="1.04747">
        <ele>12.4</ele>
        <time>2021-05-23T09:48:40Z</time>
      </trkpt>
      <trkpt lat="49.46989" lon="1.04725">
        <ele>12.3</ele>
        <time>2021-05-23T09:48:42Z</time>
      </trkpt>
      <trkpt lat="49.46986" lon="1.04713">
        <ele>12.1</ele>
        <time>2021-05-23T09:48:43Z</time>
      </trkpt>
      <trkpt lat="49.46985" lon="1.04704">
        <ele>11.9</ele>
        <time>2021-05-23T09:48:44Z</time>
      </trkpt>
      <trkpt lat="49.46982" lon="1.04684">
        <ele>11.7</ele>
        <time>2021-05-23T09:48:46Z</time>
      </trkpt>
      <trkpt lat="49.46979" lon="1.04665">
        <ele>11.6</ele>
        <time>2021-05-23T09:48:48Z</time>
      </trkpt>
      <trkpt lat="49.46977" lon="1.04655">
        <ele>11.5</ele>
        <time>2021-05-23T09:48:49Z</time>
      </trkpt>
      <trkpt lat="49.46975" lon="1.04645">
        <ele>11.5</ele>
        <time>2021-05-23T09:48:50Z</time>
      </trkpt>
      <trkpt lat="49.46973" lon="1.04636">
        <ele>11.4</ele>
        <time>2021-05-23T09:48:52Z</time>
      </trkpt>
      <trkpt lat="49.46971" lon="1.04626">
        <ele>11.2</ele>
        <time>2021-05-23T09:48:53Z</time>
      </trkpt>
      <trkpt lat="49.46967" lon="1.0461">
        <ele>11</ele>
        <time>2021-05-23T09:48:55Z</time>
      </trkpt>
      <trkpt lat="49.46966" lon="1.04601">
        <ele>10.8</ele>
        <time>2021-05-23T09:48:56Z</time>
      </trkpt>
      <trkpt lat="49.46964" lon="1.04593">
        <ele>10.6</ele>
        <time>2021-05-23T09:48:57Z</time>
      </trkpt>
      <trkpt lat="49.46962" lon="1.04584">
        <ele>10.5</ele>
        <time>2021-05-23T09:48:58Z</time>
      </trkpt>
      <trkpt lat="49.46957" lon="1.04569">
        <ele>10.4</ele>
        <time>2021-05-23T09:49:00Z</time>
      </trkpt>
      <trkpt lat="49.46952" lon="1.04553">
        <ele>10.3</ele>
        <time>2021-05-23T09:49:02Z</time>
      </trkpt>
      <trkpt lat="49.46949" lon="1.04545">
        <ele>10.2</ele>
        <time>2021-05-23T09:49:03Z</time>
      </trkpt>
      <trkpt lat="49.46944" lon="1.0453">
        <ele>10.1</ele>
        <time>2021-05-23T09:49:05Z</time>
      </trkpt>
      <trkpt lat="49.46939" lon="1.04515">
        <ele>10</ele>
        <time>2021-05-23T09:49:07Z</time>
      </trkpt>
      <trkpt lat="49.46933" lon="1.04501">
        <ele>9.9</ele>
        <time>2021-05-23T09:49:09Z</time>
      </trkpt>
      <trkpt lat="49.4693" lon="1.04494">
        <ele>9.9</ele>
        <time>2021-05-23T09:49:10Z</time>
      </trkpt>
      <trkpt lat="49.46927" lon="1.04486">
        <ele>9.9</ele>
        <time>2021-05-23T09:49:11Z</time>
      </trkpt>
      <trkpt lat="49.46921" lon="1.0447">
        <ele>9.9</ele>
        <time>2021-05-23T09:49:13Z</time>
      </trkpt>
      <trkpt lat="49.46915" lon="1.04454">
        <ele>9.9</ele>
        <time>2021-05-23T09:49:15Z</time>
      </trkpt>
      <trkpt lat="49.4691" lon="1.04441">
        <ele>9.9</ele>
        <time>2021-05-23T09:49:17Z</time>
      </trkpt>
      <trkpt lat="49.46906" lon="1.0443">
        <ele>10</ele>
        <time>2021-05-23T09:49:19Z</time>
      </trkpt>
      <trkpt lat="49.46905" lon="1.04427">
        <ele>10</ele>
        <time>2021-05-23T09:49:20Z</time>
      </trkpt>
      <trkpt lat="49.46905" lon="1.04427">
        <ele>10.1</ele>
        <time>2021-05-23T09:49:22Z</time>
      </trkpt>
      <trkpt lat="49.46905" lon="1.04427">
        <ele>10.2</ele>
        <time>2021-05-23T09:49:23Z</time>
      </trkpt>
      <trkpt lat="49.46905" lon="1.04427">
        <ele>10.3</ele>
        <time>2021-05-23T09:49:24Z</time>
      </trkpt>
      <trkpt lat="49.46903" lon="1.04425">
        <ele>10.4</ele>
        <time>2021-05-23T09:49:26Z</time>
      </trkpt>
      <trkpt lat="49.469" lon="1.04422">
        <ele>10.5</ele>
        <time>2021-05-23T09:49:27Z</time>
      </trkpt>
      <trkpt lat="49.46893" lon="1.04422">
        <ele>10.5</ele>
        <time>2021-05-23T09:49:29Z</time>
      </trkpt>
      <trkpt lat="49.46888" lon="1.04428">
        <ele>10.7</ele>
        <time>2021-05-23T09:49:31Z</time>
      </trkpt>
      <trkpt lat="49.4688" lon="1.04434">
        <ele>10.9</ele>
        <time>2021-05-23T09:49:33Z</time>
      </trkpt>
      <trkpt lat="49.46874" lon="1.04438">
        <ele>11</ele>
        <time>2021-05-23T09:49:34Z</time>
      </trkpt>
      <trkpt lat="49.4686" lon="1.04448">
        <ele>11.1</ele>
        <time>2021-05-23T09:49:36Z</time>
      </trkpt>
      <trkpt lat="49.46848" lon="1.04459">
        <ele>11.2</ele>
        <time>2021-05-23T09:49:38Z</time>
      </trkpt>
      <trkpt lat="49.46839" lon="1.04467">
        <ele>11.1</ele>
        <time>2021-05-23T09:49:41Z</time>
      </trkpt>
      <trkpt lat="49.46829" lon="1.04476">
        <ele>11</ele>
        <time>2021-05-23T09:49:43Z</time>
      </trkpt>
      <trkpt lat="49.46825" lon="1.0448">
        <ele>10.8</ele>
        <time>2021-05-23T09:49:44Z</time>
      </trkpt>
      <trkpt lat="49.46816" lon="1.04488">
        <ele>10.5</ele>
        <time>2021-05-23T09:49:46Z</time>
      </trkpt>
      <trkpt lat="49.46812" lon="1.04492">
        <ele>10.3</ele>
        <time>2021-05-23T09:49:47Z</time>
      </trkpt>
      <trkpt lat="49.46807" lon="1.04497">
        <ele>10</ele>
        <time>2021-05-23T09:49:48Z</time>
      </trkpt>
      <trkpt lat="49.46798" lon="1.04504">
        <ele>9.6</ele>
        <time>2021-05-23T09:49:50Z</time>
      </trkpt>
      <trkpt lat="49.46789" lon="1.04513">
        <ele>9.3</ele>
        <time>2021-05-23T09:49:52Z</time>
      </trkpt>
      <trkpt lat="49.4678" lon="1.0452">
        <ele>9</ele>
        <time>2021-05-23T09:49:54Z</time>
      </trkpt>
      <trkpt lat="49.46771" lon="1.04527">
        <ele>8.8</ele>
        <time>2021-05-23T09:49:56Z</time>
      </trkpt>
      <trkpt lat="49.46762" lon="1.04535">
        <ele>8.6</ele>
        <time>2021-05-23T09:49:58Z</time>
      </trkpt>
      <trkpt lat="49.46758" lon="1.04539">
        <ele>8.5</ele>
        <time>2021-05-23T09:49:59Z</time>
      </trkpt>
      <trkpt lat="49.46748" lon="1.04545">
        <ele>8.3</ele>
        <time>2021-05-23T09:50:01Z</time>
      </trkpt>
      <trkpt lat="49.46739" lon="1.04552">
        <ele>8.2</ele>
        <time>2021-05-23T09:50:03Z</time>
      </trkpt>
      <trkpt lat="49.4673" lon="1.04559">
        <ele>8.2</ele>
        <time>2021-05-23T09:50:05Z</time>
      </trkpt>
      <trkpt lat="49.46725" lon="1.04563">
        <ele>8.2</ele>
        <time>2021-05-23T09:50:06Z</time>
      </trkpt>
      <trkpt lat="49.46716" lon="1.0457">
        <ele>8.2</ele>
        <time>2021-05-23T09:50:08Z</time>
      </trkpt>
      <trkpt lat="49.46706" lon="1.04577">
        <ele>8.2</ele>
        <time>2021-05-23T09:50:10Z</time>
      </trkpt>
      <trkpt lat="49.46701" lon="1.04582">
        <ele>8.2</ele>
        <time>2021-05-23T09:50:11Z</time>
      </trkpt>
      <trkpt lat="49.46695" lon="1.04585">
        <ele>8.1</ele>
        <time>2021-05-23T09:50:12Z</time>
      </trkpt>
      <trkpt lat="49.46685" lon="1.04593">
        <ele>7.9</ele>
        <time>2021-05-23T09:50:14Z</time>
      </trkpt>
      <trkpt lat="49.46673" lon="1.04604">
        <ele>7.7</ele>
        <time>2021-05-23T09:50:16Z</time>
      </trkpt>
      <trkpt lat="49.46662" lon="1.04613">
        <ele>7.6</ele>
        <time>2021-05-23T09:50:18Z</time>
      </trkpt>
      <trkpt lat="49.46657" lon="1.04618">
        <ele>7.5</ele>
        <time>2021-05-23T09:50:19Z</time>
      </trkpt>
      <trkpt lat="49.46647" lon="1.04625">
        <ele>7.5</ele>
        <time>2021-05-23T09:50:21Z</time>
      </trkpt>
      <trkpt lat="49.46642" lon="1.04628">
        <ele>7.4</ele>
        <time>2021-05-23T09:50:22Z</time>
      </trkpt>
      <trkpt lat="49.4663" lon="1.04638">
        <ele>7.3</ele>
        <time>2021-05-23T09:50:24Z</time>
      </trkpt>
      <trkpt lat="49.46619" lon="1.04648">
        <ele>7.2</ele>
        <time>2021-05-23T09:50:26Z</time>
      </trkpt>
      <trkpt lat="49.4661" lon="1.04656">
        <ele>7.1</ele>
        <time>2021-05-23T09:50:29Z</time>
      </trkpt>
      <trkpt lat="49.46605" lon="1.0466">
        <ele>7.1</ele>
        <time>2021-05-23T09:50:30Z</time>
      </trkpt>
      <trkpt lat="49.46595" lon="1.04668">
        <ele>7.2</ele>
        <time>2021-05-23T09:50:32Z</time>
      </trkpt>
      <trkpt lat="49.46585" lon="1.04677">
        <ele>7.3</ele>
        <time>2021-05-23T09:50:34Z</time>
      </trkpt>
      <trkpt lat="49.4658" lon="1.04681">
        <ele>7.4</ele>
        <time>2021-05-23T09:50:35Z</time>
      </trkpt>
      <trkpt lat="49.4657" lon="1.04688">
        <ele>7.5</ele>
        <time>2021-05-23T09:50:37Z</time>
      </trkpt>
      <trkpt lat="49.46559" lon="1.04696">
        <ele>7.5</ele>
        <time>2021-05-23T09:50:39Z</time>
      </trkpt>
      <trkpt lat="49.46548" lon="1.04706">
        <ele>7.6</ele>
        <time>2021-05-23T09:50:41Z</time>
      </trkpt>
      <trkpt lat="49.46538" lon="1.04714">
        <ele>7.7</ele>
        <time>2021-05-23T09:50:43Z</time>
      </trkpt>
      <trkpt lat="49.46528" lon="1.04723">
        <ele>7.8</ele>
        <time>2021-05-23T09:50:45Z</time>
      </trkpt>
      <trkpt lat="49.46517" lon="1.0473">
        <ele>8</ele>
        <time>2021-05-23T09:50:47Z</time>
      </trkpt>
      <trkpt lat="49.46511" lon="1.04732">
        <ele>8.2</ele>
        <time>2021-05-23T09:50:48Z</time>
      </trkpt>
      <trkpt lat="49.46499" lon="1.04737">
        <ele>8.4</ele>
        <time>2021-05-23T09:50:50Z</time>
      </trkpt>
      <trkpt lat="49.46487" lon="1.04738">
        <ele>8.5</ele>
        <time>2021-05-23T09:50:52Z</time>
      </trkpt>
      <trkpt lat="49.46481" lon="1.04737">
        <ele>8.6</ele>
        <time>2021-05-23T09:50:53Z</time>
      </trkpt>
      <trkpt lat="49.46469" lon="1.04733">
        <ele>8.7</ele>
        <time>2021-05-23T09:50:55Z</time>
      </trkpt>
      <trkpt lat="49.4646" lon="1.04724">
        <ele>8.8</ele>
        <time>2021-05-23T09:50:57Z</time>
      </trkpt>
      <trkpt lat="49.46452" lon="1.04718">
        <ele>8.9</ele>
        <time>2021-05-23T09:50:59Z</time>
      </trkpt>
      <trkpt lat="49.46448" lon="1.04715">
        <ele>9</ele>
        <time>2021-05-23T09:51:00Z</time>
      </trkpt>
      <trkpt lat="49.46437" lon="1.04708">
        <ele>9</ele>
        <time>2021-05-23T09:51:02Z</time>
      </trkpt>
      <trkpt lat="49.46427" lon="1.04703">
        <ele>9</ele>
        <time>2021-05-23T09:51:04Z</time>
      </trkpt>
      <trkpt lat="49.46422" lon="1.04701">
        <ele>8.8</ele>
        <time>2021-05-23T09:51:05Z</time>
      </trkpt>
      <trkpt lat="49.46415" lon="1.04698">
        <ele>8.6</ele>
        <time>2021-05-23T09:51:07Z</time>
      </trkpt>
      <trkpt lat="49.46406" lon="1.04691">
        <ele>8.4</ele>
        <time>2021-05-23T09:51:09Z</time>
      </trkpt>
      <trkpt lat="49.46397" lon="1.04687">
        <ele>8.1</ele>
        <time>2021-05-23T09:51:11Z</time>
      </trkpt>
      <trkpt lat="49.46391" lon="1.04684">
        <ele>7.9</ele>
        <time>2021-05-23T09:51:12Z</time>
      </trkpt>
      <trkpt lat="49.46382" lon="1.0468">
        <ele>7.7</ele>
        <time>2021-05-23T09:51:14Z</time>
      </trkpt>
      <trkpt lat="49.46372" lon="1.04677">
        <ele>7.5</ele>
        <time>2021-05-23T09:51:17Z</time>
      </trkpt>
      <trkpt lat="49.46367" lon="1.04676">
        <ele>7.4</ele>
        <time>2021-05-23T09:51:18Z</time>
      </trkpt>
      <trkpt lat="49.46359" lon="1.04674">
        <ele>7.2</ele>
        <time>2021-05-23T09:51:20Z</time>
      </trkpt>
      <trkpt lat="49.46355" lon="1.04676">
        <ele>7.1</ele>
        <time>2021-05-23T09:51:21Z</time>
      </trkpt>
      <trkpt lat="49.46351" lon="1.04676">
        <ele>6.9</ele>
        <time>2021-05-23T09:51:22Z</time>
      </trkpt>
      <trkpt lat="49.46349" lon="1.04666">
        <ele>6.9</ele>
        <time>2021-05-23T09:51:24Z</time>
      </trkpt>
      <trkpt lat="49.46348" lon="1.04658">
        <ele>6.9</ele>
        <time>2021-05-23T09:51:25Z</time>
      </trkpt>
      <trkpt lat="49.46345" lon="1.04648">
        <ele>6.9</ele>
        <time>2021-05-23T09:51:26Z</time>
      </trkpt>
      <trkpt lat="49.46339" lon="1.0463">
        <ele>6.9</ele>
        <time>2021-05-23T09:51:28Z</time>
      </trkpt>
      <trkpt lat="49.46332" lon="1.04614">
        <ele>6.9</ele>
        <time>2021-05-23T09:51:30Z</time>
      </trkpt>
      <trkpt lat="49.46325" lon="1.04597">
        <ele>6.9</ele>
        <time>2021-05-23T09:51:32Z</time>
      </trkpt>
      <trkpt lat="49.4632" lon="1.04588">
        <ele>7</ele>
        <time>2021-05-23T09:51:34Z</time>
      </trkpt>
      <trkpt lat="49.46316" lon="1.04578">
        <ele>7.1</ele>
        <time>2021-05-23T09:51:35Z</time>
      </trkpt>
      <trkpt lat="49.46311" lon="1.04563">
        <ele>7.1</ele>
        <time>2021-05-23T09:51:37Z</time>
      </trkpt>
      <trkpt lat="49.46308" lon="1.04556">
        <ele>7.1</ele>
        <time>2021-05-23T09:51:38Z</time>
      </trkpt>
      <trkpt lat="49.46303" lon="1.04542">
        <ele>7.2</ele>
        <time>2021-05-23T09:51:40Z</time>
      </trkpt>
      <trkpt lat="49.46296" lon="1.04527">
        <ele>7.2</ele>
        <time>2021-05-23T09:51:42Z</time>
      </trkpt>
      <trkpt lat="49.46292" lon="1.04519">
        <ele>7.3</ele>
        <time>2021-05-23T09:51:43Z</time>
      </trkpt>
      <trkpt lat="49.46286" lon="1.04504">
        <ele>7.4</ele>
        <time>2021-05-23T09:51:45Z</time>
      </trkpt>
      <trkpt lat="49.4628" lon="1.0449">
        <ele>7.5</ele>
        <time>2021-05-23T09:51:47Z</time>
      </trkpt>
      <trkpt lat="49.46276" lon="1.04483">
        <ele>7.5</ele>
        <time>2021-05-23T09:51:48Z</time>
      </trkpt>
      <trkpt lat="49.46266" lon="1.04475">
        <ele>7.6</ele>
        <time>2021-05-23T09:51:50Z</time>
      </trkpt>
      <trkpt lat="49.46261" lon="1.0447">
        <ele>7.6</ele>
        <time>2021-05-23T09:51:51Z</time>
      </trkpt>
      <trkpt lat="49.46256" lon="1.04465">
        <ele>7.6</ele>
        <time>2021-05-23T09:51:52Z</time>
      </trkpt>
      <trkpt lat="49.46245" lon="1.04456">
        <ele>7.6</ele>
        <time>2021-05-23T09:51:54Z</time>
      </trkpt>
      <trkpt lat="49.46235" lon="1.04446">
        <ele>7.6</ele>
        <time>2021-05-23T09:51:56Z</time>
      </trkpt>
      <trkpt lat="49.4623" lon="1.04442">
        <ele>7.5</ele>
        <time>2021-05-23T09:51:57Z</time>
      </trkpt>
      <trkpt lat="49.46225" lon="1.04438">
        <ele>7.5</ele>
        <time>2021-05-23T09:51:58Z</time>
      </trkpt>
      <trkpt lat="49.46216" lon="1.04428">
        <ele>7.3</ele>
        <time>2021-05-23T09:52:00Z</time>
      </trkpt>
      <trkpt lat="49.46212" lon="1.04422">
        <ele>7.1</ele>
        <time>2021-05-23T09:52:01Z</time>
      </trkpt>
      <trkpt lat="49.46202" lon="1.04413">
        <ele>6.9</ele>
        <time>2021-05-23T09:52:03Z</time>
      </trkpt>
      <trkpt lat="49.46198" lon="1.04408">
        <ele>6.8</ele>
        <time>2021-05-23T09:52:04Z</time>
      </trkpt>
      <trkpt lat="49.46193" lon="1.04403">
        <ele>6.7</ele>
        <time>2021-05-23T09:52:06Z</time>
      </trkpt>
      <trkpt lat="49.46188" lon="1.04399">
        <ele>6.7</ele>
        <time>2021-05-23T09:52:07Z</time>
      </trkpt>
      <trkpt lat="49.46184" lon="1.04395">
        <ele>6.7</ele>
        <time>2021-05-23T09:52:08Z</time>
      </trkpt>
      <trkpt lat="49.46174" lon="1.04386">
        <ele>6.8</ele>
        <time>2021-05-23T09:52:10Z</time>
      </trkpt>
      <trkpt lat="49.46166" lon="1.04376">
        <ele>7</ele>
        <time>2021-05-23T09:52:12Z</time>
      </trkpt>
      <trkpt lat="49.46162" lon="1.04371">
        <ele>7.3</ele>
        <time>2021-05-23T09:52:13Z</time>
      </trkpt>
      <trkpt lat="49.46159" lon="1.04365">
        <ele>7.6</ele>
        <time>2021-05-23T09:52:14Z</time>
      </trkpt>
      <trkpt lat="49.46156" lon="1.0436">
        <ele>8</ele>
        <time>2021-05-23T09:52:15Z</time>
      </trkpt>
      <trkpt lat="49.46153" lon="1.04349">
        <ele>8.5</ele>
        <time>2021-05-23T09:52:17Z</time>
      </trkpt>
      <trkpt lat="49.4615" lon="1.04337">
        <ele>9</ele>
        <time>2021-05-23T09:52:19Z</time>
      </trkpt>
      <trkpt lat="49.46149" lon="1.0433">
        <ele>9.5</ele>
        <time>2021-05-23T09:52:20Z</time>
      </trkpt>
      <trkpt lat="49.46148" lon="1.04316">
        <ele>10.1</ele>
        <time>2021-05-23T09:52:22Z</time>
      </trkpt>
      <trkpt lat="49.46148" lon="1.04308">
        <ele>10.6</ele>
        <time>2021-05-23T09:52:23Z</time>
      </trkpt>
      <trkpt lat="49.46148" lon="1.04298">
        <ele>11.3</ele>
        <time>2021-05-23T09:52:25Z</time>
      </trkpt>
      <trkpt lat="49.46149" lon="1.04289">
        <ele>11.9</ele>
        <time>2021-05-23T09:52:26Z</time>
      </trkpt>
      <trkpt lat="49.4615" lon="1.04279">
        <ele>12.5</ele>
        <time>2021-05-23T09:52:27Z</time>
      </trkpt>
      <trkpt lat="49.46151" lon="1.04272">
        <ele>13.3</ele>
        <time>2021-05-23T09:52:29Z</time>
      </trkpt>
      <trkpt lat="49.46152" lon="1.04265">
        <ele>14</ele>
        <time>2021-05-23T09:52:30Z</time>
      </trkpt>
      <trkpt lat="49.46152" lon="1.04259">
        <ele>14.7</ele>
        <time>2021-05-23T09:52:31Z</time>
      </trkpt>
      <trkpt lat="49.46152" lon="1.04251">
        <ele>15.5</ele>
        <time>2021-05-23T09:52:33Z</time>
      </trkpt>
      <trkpt lat="49.46151" lon="1.04246">
        <ele>16.1</ele>
        <time>2021-05-23T09:52:34Z</time>
      </trkpt>
      <trkpt lat="49.46152" lon="1.04242">
        <ele>16.6</ele>
        <time>2021-05-23T09:52:35Z</time>
      </trkpt>
      <trkpt lat="49.46151" lon="1.04238">
        <ele>17.2</ele>
        <time>2021-05-23T09:52:36Z</time>
      </trkpt>
      <trkpt lat="49.46151" lon="1.04234">
        <ele>17.6</ele>
        <time>2021-05-23T09:52:38Z</time>
      </trkpt>
      <trkpt lat="49.4615" lon="1.04231">
        <ele>18</ele>
        <time>2021-05-23T09:52:39Z</time>
      </trkpt>
      <trkpt lat="49.46149" lon="1.04229">
        <ele>18.4</ele>
        <time>2021-05-23T09:52:41Z</time>
      </trkpt>
      <trkpt lat="49.46149" lon="1.04227">
        <ele>18.5</ele>
        <time>2021-05-23T09:52:42Z</time>
      </trkpt>
      <trkpt lat="49.4615" lon="1.04227">
        <ele>18.6</ele>
        <time>2021-05-23T09:52:43Z</time>
      </trkpt>
      <trkpt lat="49.46152" lon="1.04227">
        <ele>18.6</ele>
        <time>2021-05-23T09:52:44Z</time>
      </trkpt>
      <trkpt lat="49.46154" lon="1.04227">
        <ele>18.6</ele>
        <time>2021-05-23T09:52:46Z</time>
      </trkpt>
      <trkpt lat="49.46155" lon="1.04226">
        <ele>18.5</ele>
        <time>2021-05-23T09:52:48Z</time>
      </trkpt>
      <trkpt lat="49.46158" lon="1.04225">
        <ele>18.5</ele>
        <time>2021-05-23T09:52:49Z</time>
      </trkpt>
      <trkpt lat="49.4616" lon="1.04224">
        <ele>18.4</ele>
        <time>2021-05-23T09:52:50Z</time>
      </trkpt>
      <trkpt lat="49.46163" lon="1.04219">
        <ele>18.3</ele>
        <time>2021-05-23T09:52:52Z</time>
      </trkpt>
      <trkpt lat="49.46165" lon="1.04217">
        <ele>18.2</ele>
        <time>2021-05-23T09:52:53Z</time>
      </trkpt>
      <trkpt lat="49.46166" lon="1.04216">
        <ele>18.1</ele>
        <time>2021-05-23T09:52:55Z</time>
      </trkpt>
      <trkpt lat="49.46168" lon="1.04212">
        <ele>18</ele>
        <time>2021-05-23T09:52:57Z</time>
      </trkpt>
      <trkpt lat="49.46169" lon="1.04211">
        <ele>18</ele>
        <time>2021-05-23T09:52:58Z</time>
      </trkpt>
      <trkpt lat="49.4617" lon="1.0421">
        <ele>18</ele>
        <time>2021-05-23T09:52:59Z</time>
      </trkpt>
      <trkpt lat="49.46171" lon="1.04208">
        <ele>18</ele>
        <time>2021-05-23T09:53:01Z</time>
      </trkpt>
      <trkpt lat="49.46171" lon="1.04209">
        <ele>17.8</ele>
        <time>2021-05-23T09:53:03Z</time>
      </trkpt>
      <trkpt lat="49.46171" lon="1.04209">
        <ele>17.6</ele>
        <time>2021-05-23T09:53:05Z</time>
      </trkpt>
      <trkpt lat="49.46171" lon="1.04209">
        <ele>17.4</ele>
        <time>2021-05-23T09:53:06Z</time>
      </trkpt>
      <trkpt lat="49.46171" lon="1.04209">
        <ele>17.2</ele>
        <time>2021-05-23T09:53:07Z</time>
      </trkpt>
      <trkpt lat="49.46171" lon="1.04209">
        <ele>17</ele>
        <time>2021-05-23T09:53:09Z</time>
      </trkpt>
      <trkpt lat="49.46177" lon="1.04212">
        <ele>16.8</ele>
        <time>2021-05-23T09:53:57Z</time>
      </trkpt>
      <trkpt lat="49.4618" lon="1.04211">
        <ele>16.6</ele>
        <time>2021-05-23T09:53:58Z</time>
      </trkpt>
      <trkpt lat="49.46181" lon="1.0421">
        <ele>16.5</ele>
        <time>2021-05-23T09:54:00Z</time>
      </trkpt>
      <trkpt lat="49.46181" lon="1.04209">
        <ele>16.4</ele>
        <time>2021-05-23T09:54:02Z</time>
      </trkpt>
      <trkpt lat="49.4618" lon="1.04209">
        <ele>16.3</ele>
        <time>2021-05-23T09:54:03Z</time>
      </trkpt>
      <trkpt lat="49.4618" lon="1.04209">
        <ele>16.2</ele>
        <time>2021-05-23T09:54:05Z</time>
      </trkpt>
      <trkpt lat="49.4618" lon="1.04209">
        <ele>16.3</ele>
        <time>2021-05-23T09:54:07Z</time>
      </trkpt>
      <trkpt lat="49.4618" lon="1.04209">
        <ele>16.4</ele>
        <time>2021-05-23T09:54:09Z</time>
      </trkpt>
      <trkpt lat="49.46176" lon="1.04203">
        <ele>16.5</ele>
        <time>2021-05-23T09:54:36Z</time>
      </trkpt>
      <trkpt lat="49.46176" lon="1.04205">
        <ele>16.5</ele>
        <time>2021-05-23T09:54:37Z</time>
      </trkpt>
      <trkpt lat="49.46175" lon="1.04207">
        <ele>16.5</ele>
        <time>2021-05-23T09:54:39Z</time>
      </trkpt>
      <trkpt lat="49.46175" lon="1.04208">
        <ele>16.5</ele>
        <time>2021-05-23T09:54:41Z</time>
      </trkpt>
      <trkpt lat="49.46175" lon="1.04209">
        <ele>16.5</ele>
        <time>2021-05-23T09:54:42Z</time>
      </trkpt>
      <trkpt lat="49.46176" lon="1.04212">
        <ele>16.5</ele>
        <time>2021-05-23T09:54:44Z</time>
      </trkpt>
      <trkpt lat="49.46176" lon="1.04213">
        <ele>16.4</ele>
        <time>2021-05-23T09:54:45Z</time>
      </trkpt>
      <trkpt lat="49.46177" lon="1.04213">
        <ele>16.3</ele>
        <time>2021-05-23T09:54:47Z</time>
      </trkpt>
      <trkpt lat="49.46177" lon="1.04214">
        <ele>16.2</ele>
        <time>2021-05-23T09:54:49Z</time>
      </trkpt>
      <trkpt lat="49.46177" lon="1.04214">
        <ele>16.1</ele>
        <time>2021-05-23T09:54:51Z</time>
      </trkpt>
      <trkpt lat="49.46177" lon="1.04214">
        <ele>16</ele>
        <time>2021-05-23T09:54:52Z</time>
      </trkpt>
      <trkpt lat="49.46177" lon="1.04214">
        <ele>16</ele>
        <time>2021-05-23T09:54:53Z</time>
      </trkpt>
      <trkpt lat="49.46177" lon="1.04214">
        <ele>16</ele>
        <time>2021-05-23T09:54:55Z</time>
      </trkpt>
      <trkpt lat="49.46177" lon="1.04214">
        <ele>16</ele>
        <time>2021-05-23T09:54:56Z</time>
      </trkpt>
      <trkpt lat="49.46177" lon="1.04214">
        <ele>16</ele>
        <time>2021-05-23T09:54:57Z</time>
      </trkpt>
      <trkpt lat="49.46177" lon="1.04214">
        <ele>16</ele>
        <time>2021-05-23T09:54:59Z</time>
      </trkpt>
      <trkpt lat="49.46177" lon="1.04214">
        <ele>16</ele>
        <time>2021-05-23T09:55:01Z</time>
      </trkpt>
      <trkpt lat="49.46177" lon="1.04214">
        <ele>16</ele>
        <time>2021-05-23T09:55:02Z</time>
      </trkpt>
      <trkpt lat="49.46177" lon="1.04214">
        <ele>16</ele>
        <time>2021-05-23T09:55:03Z</time>
      </trkpt>
      <trkpt lat="49.46177" lon="1.04214">
        <ele>16.1</ele>
        <time>2021-05-23T09:55:04Z</time>
      </trkpt>
      <trkpt lat="49.46177" lon="1.04214">
        <ele>16.3</ele>
        <time>2021-05-23T09:55:06Z</time>
      </trkpt>
      <trkpt lat="49.46176" lon="1.04214">
        <ele>16.5</ele>
        <time>2021-05-23T09:55:08Z</time>
      </trkpt>
      <trkpt lat="49.46176" lon="1.04214">
        <ele>16.6</ele>
        <time>2021-05-23T09:55:10Z</time>
      </trkpt>
      <trkpt lat="49.46176" lon="1.04215">
        <ele>16.8</ele>
        <time>2021-05-23T09:55:12Z</time>
      </trkpt>
      <trkpt lat="49.46173" lon="1.04212">
        <ele>17</ele>
        <time>2021-05-23T09:55:14Z</time>
      </trkpt>
      <trkpt lat="49.4617" lon="1.0421">
        <ele>17.2</ele>
        <time>2021-05-23T09:55:15Z</time>
      </trkpt>
      <trkpt lat="49.46169" lon="1.04209">
        <ele>17.4</ele>
        <time>2021-05-23T09:55:16Z</time>
      </trkpt>
      <trkpt lat="49.46169" lon="1.0421">
        <ele>17.5</ele>
        <time>2021-05-23T09:55:18Z</time>
      </trkpt>
      <trkpt lat="49.46168" lon="1.04212">
        <ele>17.7</ele>
        <time>2021-05-23T09:55:20Z</time>
      </trkpt>
      <trkpt lat="49.46168" lon="1.04212">
        <ele>17.9</ele>
        <time>2021-05-23T09:55:22Z</time>
      </trkpt>
      <trkpt lat="49.46168" lon="1.04212">
        <ele>17.9</ele>
        <time>2021-05-23T09:55:23Z</time>
      </trkpt>
      <trkpt lat="49.46169" lon="1.04212">
        <ele>17.9</ele>
        <time>2021-05-23T09:55:24Z</time>
      </trkpt>
      <trkpt lat="49.46169" lon="1.04212">
        <ele>17.9</ele>
        <time>2021-05-23T09:55:25Z</time>
      </trkpt>
      <trkpt lat="49.4617" lon="1.0421">
        <ele>17.9</ele>
        <time>2021-05-23T09:55:27Z</time>
      </trkpt>
      <trkpt lat="49.4617" lon="1.0421">
        <ele>17.9</ele>
        <time>2021-05-23T09:55:28Z</time>
      </trkpt>
      <trkpt lat="49.46172" lon="1.04209">
        <ele>17.9</ele>
        <time>2021-05-23T09:55:30Z</time>
      </trkpt>
      <trkpt lat="49.46171" lon="1.04208">
        <ele>17.9</ele>
        <time>2021-05-23T09:55:32Z</time>
      </trkpt>
      <trkpt lat="49.46171" lon="1.04208">
        <ele>17.9</ele>
        <time>2021-05-23T09:55:33Z</time>
      </trkpt>
      <trkpt lat="49.46172" lon="1.04206">
        <ele>17.9</ele>
        <time>2021-05-23T09:55:35Z</time>
      </trkpt>
      <trkpt lat="49.46172" lon="1.04204">
        <ele>17.9</ele>
        <time>2021-05-23T09:55:37Z</time>
      </trkpt>
      <trkpt lat="49.46172" lon="1.04203">
        <ele>17.9</ele>
        <time>2021-05-23T09:55:38Z</time>
      </trkpt>
      <trkpt lat="49.46172" lon="1.04203">
        <ele>18</ele>
        <time>2021-05-23T09:55:39Z</time>
      </trkpt>
      <trkpt lat="49.46172" lon="1.04202">
        <ele>18</ele>
        <time>2021-05-23T09:55:40Z</time>
      </trkpt>
      <trkpt lat="49.46173" lon="1.04202">
        <ele>18</ele>
        <time>2021-05-23T09:55:42Z</time>
      </trkpt>
      <trkpt lat="49.46173" lon="1.04202">
        <ele>18</ele>
        <time>2021-05-23T09:55:43Z</time>
      </trkpt>
      <trkpt lat="49.46174" lon="1.04202">
        <ele>18</ele>
        <time>2021-05-23T09:55:45Z</time>
      </trkpt>
      <trkpt lat="49.46174" lon="1.04202">
        <ele>17.9</ele>
        <time>2021-05-23T09:55:46Z</time>
      </trkpt>
      <trkpt lat="49.46174" lon="1.042">
        <ele>17.8</ele>
        <time>2021-05-23T09:55:47Z</time>
      </trkpt>
      <trkpt lat="49.46176" lon="1.04197">
        <ele>17.7</ele>
        <time>2021-05-23T09:55:48Z</time>
      </trkpt>
      <trkpt lat="49.46178" lon="1.04196">
        <ele>17.6</ele>
        <time>2021-05-23T09:55:50Z</time>
      </trkpt>
      <trkpt lat="49.4618" lon="1.04194">
        <ele>17.5</ele>
        <time>2021-05-23T09:55:51Z</time>
      </trkpt>
      <trkpt lat="49.46182" lon="1.04193">
        <ele>17.5</ele>
        <time>2021-05-23T09:55:52Z</time>
      </trkpt>
      <trkpt lat="49.46183" lon="1.04192">
        <ele>17.4</ele>
        <time>2021-05-23T09:55:54Z</time>
      </trkpt>
      <trkpt lat="49.46185" lon="1.04191">
        <ele>17.3</ele>
        <time>2021-05-23T09:55:55Z</time>
      </trkpt>
      <trkpt lat="49.46186" lon="1.0419">
        <ele>17.2</ele>
        <time>2021-05-23T09:55:56Z</time>
      </trkpt>
      <trkpt lat="49.4619" lon="1.04187">
        <ele>17.2</ele>
        <time>2021-05-23T09:55:57Z</time>
      </trkpt>
      <trkpt lat="49.46193" lon="1.04184">
        <ele>17.2</ele>
        <time>2021-05-23T09:55:59Z</time>
      </trkpt>
      <trkpt lat="49.46195" lon="1.04183">
        <ele>17.4</ele>
        <time>2021-05-23T09:56:00Z</time>
      </trkpt>
      <trkpt lat="49.46197" lon="1.04181">
        <ele>17.5</ele>
        <time>2021-05-23T09:56:02Z</time>
      </trkpt>
      <trkpt lat="49.46199" lon="1.04178">
        <ele>17.8</ele>
        <time>2021-05-23T09:56:03Z</time>
      </trkpt>
      <trkpt lat="49.46201" lon="1.04175">
        <ele>18.1</ele>
        <time>2021-05-23T09:56:06Z</time>
      </trkpt>
      <trkpt lat="49.46204" lon="1.0417">
        <ele>18.4</ele>
        <time>2021-05-23T09:56:08Z</time>
      </trkpt>
      <trkpt lat="49.46207" lon="1.04166">
        <ele>18.7</ele>
        <time>2021-05-23T09:56:09Z</time>
      </trkpt>
      <trkpt lat="49.46207" lon="1.04164">
        <ele>19.1</ele>
        <time>2021-05-23T09:56:10Z</time>
      </trkpt>
      <trkpt lat="49.4621" lon="1.04158">
        <ele>19.5</ele>
        <time>2021-05-23T09:56:12Z</time>
      </trkpt>
      <trkpt lat="49.4621" lon="1.04157">
        <ele>20</ele>
        <time>2021-05-23T09:56:13Z</time>
      </trkpt>
      <trkpt lat="49.4621" lon="1.04156">
        <ele>20.5</ele>
        <time>2021-05-23T09:56:14Z</time>
      </trkpt>
      <trkpt lat="49.46211" lon="1.04154">
        <ele>20.9</ele>
        <time>2021-05-23T09:56:16Z</time>
      </trkpt>
      <trkpt lat="49.46211" lon="1.04151">
        <ele>21.4</ele>
        <time>2021-05-23T09:56:17Z</time>
      </trkpt>
      <trkpt lat="49.46211" lon="1.04148">
        <ele>21.8</ele>
        <time>2021-05-23T09:56:18Z</time>
      </trkpt>
      <trkpt lat="49.4621" lon="1.04146">
        <ele>22.2</ele>
        <time>2021-05-23T09:56:20Z</time>
      </trkpt>
      <trkpt lat="49.4621" lon="1.04145">
        <ele>22.6</ele>
        <time>2021-05-23T09:56:21Z</time>
      </trkpt>
      <trkpt lat="49.46211" lon="1.04143">
        <ele>23.1</ele>
        <time>2021-05-23T09:56:22Z</time>
      </trkpt>
      <trkpt lat="49.4621" lon="1.0414">
        <ele>23.5</ele>
        <time>2021-05-23T09:56:24Z</time>
      </trkpt>
      <trkpt lat="49.46209" lon="1.04139">
        <ele>23.9</ele>
        <time>2021-05-23T09:56:25Z</time>
      </trkpt>
      <trkpt lat="49.46209" lon="1.04137">
        <ele>24.3</ele>
        <time>2021-05-23T09:56:27Z</time>
      </trkpt>
      <trkpt lat="49.46208" lon="1.04136">
        <ele>24.6</ele>
        <time>2021-05-23T09:56:28Z</time>
      </trkpt>
      <trkpt lat="49.46208" lon="1.04135">
        <ele>25</ele>
        <time>2021-05-23T09:56:29Z</time>
      </trkpt>
      <trkpt lat="49.46207" lon="1.04134">
        <ele>25.4</ele>
        <time>2021-05-23T09:56:31Z</time>
      </trkpt>
      <trkpt lat="49.46207" lon="1.04133">
        <ele>25.6</ele>
        <time>2021-05-23T09:56:32Z</time>
      </trkpt>
      <trkpt lat="49.46206" lon="1.04131">
        <ele>25.9</ele>
        <time>2021-05-23T09:56:33Z</time>
      </trkpt>
      <trkpt lat="49.46205" lon="1.0413">
        <ele>26.2</ele>
        <time>2021-05-23T09:56:34Z</time>
      </trkpt>
      <trkpt lat="49.46205" lon="1.04129">
        <ele>26.5</ele>
        <time>2021-05-23T09:56:36Z</time>
      </trkpt>
      <trkpt lat="49.46204" lon="1.04128">
        <ele>26.7</ele>
        <time>2021-05-23T09:56:37Z</time>
      </trkpt>
      <trkpt lat="49.46204" lon="1.04127">
        <ele>27</ele>
        <time>2021-05-23T09:56:39Z</time>
      </trkpt>
      <trkpt lat="49.46203" lon="1.04127">
        <ele>27.3</ele>
        <time>2021-05-23T09:56:40Z</time>
      </trkpt>
      <trkpt lat="49.46203" lon="1.04126">
        <ele>27.5</ele>
        <time>2021-05-23T09:56:41Z</time>
      </trkpt>
      <trkpt lat="49.46203" lon="1.04125">
        <ele>27.8</ele>
        <time>2021-05-23T09:56:43Z</time>
      </trkpt>
      <trkpt lat="49.46202" lon="1.04124">
        <ele>28</ele>
        <time>2021-05-23T09:56:44Z</time>
      </trkpt>
      <trkpt lat="49.46202" lon="1.04123">
        <ele>28.3</ele>
        <time>2021-05-23T09:56:45Z</time>
      </trkpt>
      <trkpt lat="49.46201" lon="1.04121">
        <ele>28.5</ele>
        <time>2021-05-23T09:56:46Z</time>
      </trkpt>
      <trkpt lat="49.46201" lon="1.0412">
        <ele>28.8</ele>
        <time>2021-05-23T09:56:48Z</time>
      </trkpt>
      <trkpt lat="49.462" lon="1.04119">
        <ele>29.1</ele>
        <time>2021-05-23T09:56:50Z</time>
      </trkpt>
      <trkpt lat="49.462" lon="1.04118">
        <ele>29.4</ele>
        <time>2021-05-23T09:56:51Z</time>
      </trkpt>
      <trkpt lat="49.462" lon="1.04117">
        <ele>29.7</ele>
        <time>2021-05-23T09:56:53Z</time>
      </trkpt>
      <trkpt lat="49.46199" lon="1.04116">
        <ele>30.2</ele>
        <time>2021-05-23T09:56:55Z</time>
      </trkpt>
      <trkpt lat="49.46199" lon="1.04115">
        <ele>30.7</ele>
        <time>2021-05-23T09:56:57Z</time>
      </trkpt>
      <trkpt lat="49.46198" lon="1.04114">
        <ele>31.4</ele>
        <time>2021-05-23T09:56:58Z</time>
      </trkpt>
      <trkpt lat="49.46196" lon="1.0411">
        <ele>32.1</ele>
        <time>2021-05-23T09:56:59Z</time>
      </trkpt>
      <trkpt lat="49.46195" lon="1.04108">
        <ele>32.9</ele>
        <time>2021-05-23T09:57:00Z</time>
      </trkpt>
      <trkpt lat="49.46193" lon="1.04103">
        <ele>33.6</ele>
        <time>2021-05-23T09:57:01Z</time>
      </trkpt>
      <trkpt lat="49.46189" lon="1.04093">
        <ele>34.5</ele>
        <time>2021-05-23T09:57:03Z</time>
      </trkpt>
      <trkpt lat="49.46187" lon="1.04088">
        <ele>35.3</ele>
        <time>2021-05-23T09:57:04Z</time>
      </trkpt>
      <trkpt lat="49.46185" lon="1.04081">
        <ele>36.1</ele>
        <time>2021-05-23T09:57:06Z</time>
      </trkpt>
      <trkpt lat="49.46185" lon="1.04078">
        <ele>36.8</ele>
        <time>2021-05-23T09:57:07Z</time>
      </trkpt>
      <trkpt lat="49.46184" lon="1.04076">
        <ele>37.5</ele>
        <time>2021-05-23T09:57:08Z</time>
      </trkpt>
      <trkpt lat="49.46184" lon="1.04074">
        <ele>38</ele>
        <time>2021-05-23T09:57:10Z</time>
      </trkpt>
      <trkpt lat="49.46185" lon="1.04073">
        <ele>38.5</ele>
        <time>2021-05-23T09:57:12Z</time>
      </trkpt>
      <trkpt lat="49.46185" lon="1.04072">
        <ele>38.9</ele>
        <time>2021-05-23T09:57:13Z</time>
      </trkpt>
      <trkpt lat="49.46184" lon="1.04072">
        <ele>39.3</ele>
        <time>2021-05-23T09:57:15Z</time>
      </trkpt>
      <trkpt lat="49.4618" lon="1.04072">
        <ele>39.6</ele>
        <time>2021-05-23T09:57:53Z</time>
      </trkpt>
      <trkpt lat="49.46179" lon="1.04072">
        <ele>40.1</ele>
        <time>2021-05-23T09:57:55Z</time>
      </trkpt>
      <trkpt lat="49.46179" lon="1.04069">
        <ele>40.5</ele>
        <time>2021-05-23T09:57:56Z</time>
      </trkpt>
      <trkpt lat="49.46178" lon="1.04064">
        <ele>40.9</ele>
        <time>2021-05-23T09:57:58Z</time>
      </trkpt>
      <trkpt lat="49.46178" lon="1.04063">
        <ele>41.5</ele>
        <time>2021-05-23T09:57:59Z</time>
      </trkpt>
      <trkpt lat="49.46177" lon="1.0406">
        <ele>42</ele>
        <time>2021-05-23T09:58:00Z</time>
      </trkpt>
      <trkpt lat="49.46177" lon="1.04056">
        <ele>42.5</ele>
        <time>2021-05-23T09:58:02Z</time>
      </trkpt>
      <trkpt lat="49.46178" lon="1.04051">
        <ele>43.2</ele>
        <time>2021-05-23T09:58:04Z</time>
      </trkpt>
      <trkpt lat="49.46177" lon="1.04048">
        <ele>43.7</ele>
        <time>2021-05-23T09:58:05Z</time>
      </trkpt>
      <trkpt lat="49.46177" lon="1.04045">
        <ele>44.2</ele>
        <time>2021-05-23T09:58:07Z</time>
      </trkpt>
      <trkpt lat="49.46176" lon="1.04043">
        <ele>44.7</ele>
        <time>2021-05-23T09:58:08Z</time>
      </trkpt>
      <trkpt lat="49.46175" lon="1.04041">
        <ele>45.3</ele>
        <time>2021-05-23T09:58:09Z</time>
      </trkpt>
      <trkpt lat="49.46174" lon="1.0404">
        <ele>45.7</ele>
        <time>2021-05-23T09:58:11Z</time>
      </trkpt>
      <trkpt lat="49.46173" lon="1.04039">
        <ele>46.2</ele>
        <time>2021-05-23T09:58:12Z</time>
      </trkpt>
      <trkpt lat="49.4617" lon="1.04036">
        <ele>46.6</ele>
        <time>2021-05-23T09:58:14Z</time>
      </trkpt>
      <trkpt lat="49.4617" lon="1.04035">
        <ele>47</ele>
        <time>2021-05-23T09:58:15Z</time>
      </trkpt>
      <trkpt lat="49.46167" lon="1.0403">
        <ele>47.5</ele>
        <time>2021-05-23T09:58:17Z</time>
      </trkpt>
      <trkpt lat="49.46166" lon="1.04028">
        <ele>47.9</ele>
        <time>2021-05-23T09:58:18Z</time>
      </trkpt>
      <trkpt lat="49.46166" lon="1.04026">
        <ele>48.4</ele>
        <time>2021-05-23T09:58:19Z</time>
      </trkpt>
      <trkpt lat="49.46164" lon="1.04022">
        <ele>48.8</ele>
        <time>2021-05-23T09:58:21Z</time>
      </trkpt>
      <trkpt lat="49.46163" lon="1.04017">
        <ele>49.3</ele>
        <time>2021-05-23T09:58:22Z</time>
      </trkpt>
      <trkpt lat="49.4616" lon="1.04013">
        <ele>49.6</ele>
        <time>2021-05-23T09:58:24Z</time>
      </trkpt>
      <trkpt lat="49.46159" lon="1.0401">
        <ele>50</ele>
        <time>2021-05-23T09:58:25Z</time>
      </trkpt>
      <trkpt lat="49.46158" lon="1.04008">
        <ele>50.4</ele>
        <time>2021-05-23T09:58:26Z</time>
      </trkpt>
      <trkpt lat="49.46157" lon="1.04006">
        <ele>50.7</ele>
        <time>2021-05-23T09:58:28Z</time>
      </trkpt>
      <trkpt lat="49.46156" lon="1.04004">
        <ele>51.1</ele>
        <time>2021-05-23T09:58:29Z</time>
      </trkpt>
      <trkpt lat="49.46156" lon="1.04003">
        <ele>51.5</ele>
        <time>2021-05-23T09:58:31Z</time>
      </trkpt>
      <trkpt lat="49.46155" lon="1.04">
        <ele>51.7</ele>
        <time>2021-05-23T09:58:32Z</time>
      </trkpt>
      <trkpt lat="49.46155" lon="1.03997">
        <ele>52</ele>
        <time>2021-05-23T09:58:33Z</time>
      </trkpt>
      <trkpt lat="49.46153" lon="1.03993">
        <ele>52.2</ele>
        <time>2021-05-23T09:58:35Z</time>
      </trkpt>
      <trkpt lat="49.46153" lon="1.03991">
        <ele>52.5</ele>
        <time>2021-05-23T09:58:36Z</time>
      </trkpt>
      <trkpt lat="49.46152" lon="1.03989">
        <ele>52.7</ele>
        <time>2021-05-23T09:58:37Z</time>
      </trkpt>
      <trkpt lat="49.46151" lon="1.03987">
        <ele>53</ele>
        <time>2021-05-23T09:58:39Z</time>
      </trkpt>
      <trkpt lat="49.46151" lon="1.03985">
        <ele>53.2</ele>
        <time>2021-05-23T09:58:40Z</time>
      </trkpt>
      <trkpt lat="49.4615" lon="1.03983">
        <ele>53.4</ele>
        <time>2021-05-23T09:58:41Z</time>
      </trkpt>
      <trkpt lat="49.46149" lon="1.03981">
        <ele>53.6</ele>
        <time>2021-05-23T09:58:43Z</time>
      </trkpt>
      <trkpt lat="49.46149" lon="1.0398">
        <ele>53.8</ele>
        <time>2021-05-23T09:58:44Z</time>
      </trkpt>
      <trkpt lat="49.46149" lon="1.03979">
        <ele>54</ele>
        <time>2021-05-23T09:58:45Z</time>
      </trkpt>
      <trkpt lat="49.46148" lon="1.03975">
        <ele>54.2</ele>
        <time>2021-05-23T09:58:47Z</time>
      </trkpt>
      <trkpt lat="49.46148" lon="1.03972">
        <ele>54.4</ele>
        <time>2021-05-23T09:58:49Z</time>
      </trkpt>
      <trkpt lat="49.46147" lon="1.03971">
        <ele>54.6</ele>
        <time>2021-05-23T09:58:50Z</time>
      </trkpt>
      <trkpt lat="49.46145" lon="1.03972">
        <ele>54.8</ele>
        <time>2021-05-23T09:58:51Z</time>
      </trkpt>
      <trkpt lat="49.46145" lon="1.03971">
        <ele>55</ele>
        <time>2021-05-23T09:58:52Z</time>
      </trkpt>
      <trkpt lat="49.46143" lon="1.03968">
        <ele>55.2</ele>
        <time>2021-05-23T09:58:54Z</time>
      </trkpt>
      <trkpt lat="49.46142" lon="1.03967">
        <ele>55.4</ele>
        <time>2021-05-23T09:58:55Z</time>
      </trkpt>
      <trkpt lat="49.46142" lon="1.03965">
        <ele>55.6</ele>
        <time>2021-05-23T09:58:56Z</time>
      </trkpt>
      <trkpt lat="49.46141" lon="1.03964">
        <ele>55.8</ele>
        <time>2021-05-23T09:58:57Z</time>
      </trkpt>
      <trkpt lat="49.46141" lon="1.03962">
        <ele>56</ele>
        <time>2021-05-23T09:58:59Z</time>
      </trkpt>
      <trkpt lat="49.4614" lon="1.03961">
        <ele>56.3</ele>
        <time>2021-05-23T09:59:00Z</time>
      </trkpt>
      <trkpt lat="49.46139" lon="1.0396">
        <ele>56.5</ele>
        <time>2021-05-23T09:59:01Z</time>
      </trkpt>
      <trkpt lat="49.46138" lon="1.03959">
        <ele>56.8</ele>
        <time>2021-05-23T09:59:02Z</time>
      </trkpt>
      <trkpt lat="49.46137" lon="1.03958">
        <ele>57.1</ele>
        <time>2021-05-23T09:59:04Z</time>
      </trkpt>
      <trkpt lat="49.46135" lon="1.03957">
        <ele>57.4</ele>
        <time>2021-05-23T09:59:05Z</time>
      </trkpt>
      <trkpt lat="49.46134" lon="1.03956">
        <ele>57.6</ele>
        <time>2021-05-23T09:59:06Z</time>
      </trkpt>
      <trkpt lat="49.46133" lon="1.03956">
        <ele>57.9</ele>
        <time>2021-05-23T09:59:07Z</time>
      </trkpt>
      <trkpt lat="49.46132" lon="1.03955">
        <ele>58.2</ele>
        <time>2021-05-23T09:59:08Z</time>
      </trkpt>
      <trkpt lat="49.4613" lon="1.03953">
        <ele>58.4</ele>
        <time>2021-05-23T09:59:10Z</time>
      </trkpt>
      <trkpt lat="49.4613" lon="1.03951">
        <ele>58.6</ele>
        <time>2021-05-23T09:59:11Z</time>
      </trkpt>
      <trkpt lat="49.4613" lon="1.0395">
        <ele>58.9</ele>
        <time>2021-05-23T09:59:12Z</time>
      </trkpt>
      <trkpt lat="49.46129" lon="1.03949">
        <ele>59.1</ele>
        <time>2021-05-23T09:59:13Z</time>
      </trkpt>
      <trkpt lat="49.46129" lon="1.03947">
        <ele>59.3</ele>
        <time>2021-05-23T09:59:14Z</time>
      </trkpt>
      <trkpt lat="49.46129" lon="1.03945">
        <ele>59.5</ele>
        <time>2021-05-23T09:59:16Z</time>
      </trkpt>
      <trkpt lat="49.46129" lon="1.03944">
        <ele>59.6</ele>
        <time>2021-05-23T09:59:17Z</time>
      </trkpt>
      <trkpt lat="49.46128" lon="1.03942">
        <ele>59.8</ele>
        <time>2021-05-23T09:59:18Z</time>
      </trkpt>
      <trkpt lat="49.46127" lon="1.03941">
        <ele>60</ele>
        <time>2021-05-23T09:59:20Z</time>
      </trkpt>
      <trkpt lat="49.46126" lon="1.03937">
        <ele>60.2</ele>
        <time>2021-05-23T09:59:22Z</time>
      </trkpt>
      <trkpt lat="49.46126" lon="1.03936">
        <ele>60.5</ele>
        <time>2021-05-23T09:59:23Z</time>
      </trkpt>
      <trkpt lat="49.46124" lon="1.03932">
        <ele>60.7</ele>
        <time>2021-05-23T09:59:25Z</time>
      </trkpt>
      <trkpt lat="49.46124" lon="1.0393">
        <ele>60.9</ele>
        <time>2021-05-23T09:59:26Z</time>
      </trkpt>
      <trkpt lat="49.46123" lon="1.03929">
        <ele>61.1</ele>
        <time>2021-05-23T09:59:27Z</time>
      </trkpt>
      <trkpt lat="49.46123" lon="1.03928">
        <ele>61.3</ele>
        <time>2021-05-23T09:59:28Z</time>
      </trkpt>
      <trkpt lat="49.46121" lon="1.03924">
        <ele>61.5</ele>
        <time>2021-05-23T09:59:29Z</time>
      </trkpt>
      <trkpt lat="49.46121" lon="1.03923">
        <ele>61.6</ele>
        <time>2021-05-23T09:59:31Z</time>
      </trkpt>
      <trkpt lat="49.46121" lon="1.03921">
        <ele>61.7</ele>
        <time>2021-05-23T09:59:32Z</time>
      </trkpt>
      <trkpt lat="49.4612" lon="1.0392">
        <ele>61.9</ele>
        <time>2021-05-23T09:59:33Z</time>
      </trkpt>
      <trkpt lat="49.4612" lon="1.03919">
        <ele>62.1</ele>
        <time>2021-05-23T09:59:34Z</time>
      </trkpt>
      <trkpt lat="49.4612" lon="1.03917">
        <ele>62.3</ele>
        <time>2021-05-23T09:59:35Z</time>
      </trkpt>
      <trkpt lat="49.46119" lon="1.03914">
        <ele>62.5</ele>
        <time>2021-05-23T09:59:37Z</time>
      </trkpt>
      <trkpt lat="49.46119" lon="1.03913">
        <ele>62.6</ele>
        <time>2021-05-23T09:59:38Z</time>
      </trkpt>
      <trkpt lat="49.46119" lon="1.03912">
        <ele>62.8</ele>
        <time>2021-05-23T09:59:39Z</time>
      </trkpt>
      <trkpt lat="49.46118" lon="1.03906">
        <ele>63.1</ele>
        <time>2021-05-23T09:59:41Z</time>
      </trkpt>
      <trkpt lat="49.46118" lon="1.03905">
        <ele>63.4</ele>
        <time>2021-05-23T09:59:42Z</time>
      </trkpt>
      <trkpt lat="49.46117" lon="1.039">
        <ele>63.6</ele>
        <time>2021-05-23T09:59:44Z</time>
      </trkpt>
      <trkpt lat="49.46117" lon="1.03897">
        <ele>63.9</ele>
        <time>2021-05-23T09:59:45Z</time>
      </trkpt>
      <trkpt lat="49.46117" lon="1.03895">
        <ele>64.3</ele>
        <time>2021-05-23T09:59:46Z</time>
      </trkpt>
      <trkpt lat="49.46116" lon="1.03892">
        <ele>64.6</ele>
        <time>2021-05-23T09:59:47Z</time>
      </trkpt>
      <trkpt lat="49.46116" lon="1.03889">
        <ele>65</ele>
        <time>2021-05-23T09:59:49Z</time>
      </trkpt>
      <trkpt lat="49.46116" lon="1.03886">
        <ele>65.5</ele>
        <time>2021-05-23T09:59:50Z</time>
      </trkpt>
      <trkpt lat="49.46116" lon="1.03883">
        <ele>65.8</ele>
        <time>2021-05-23T09:59:51Z</time>
      </trkpt>
      <trkpt lat="49.46115" lon="1.0388">
        <ele>66.2</ele>
        <time>2021-05-23T09:59:52Z</time>
      </trkpt>
      <trkpt lat="49.46115" lon="1.03874">
        <ele>66.5</ele>
        <time>2021-05-23T09:59:54Z</time>
      </trkpt>
      <trkpt lat="49.46114" lon="1.03868">
        <ele>66.9</ele>
        <time>2021-05-23T09:59:56Z</time>
      </trkpt>
      <trkpt lat="49.46113" lon="1.03866">
        <ele>67.3</ele>
        <time>2021-05-23T09:59:57Z</time>
      </trkpt>
      <trkpt lat="49.46113" lon="1.03863">
        <ele>67.6</ele>
        <time>2021-05-23T09:59:58Z</time>
      </trkpt>
      <trkpt lat="49.46111" lon="1.0386">
        <ele>68</ele>
        <time>2021-05-23T10:00:00Z</time>
      </trkpt>
      <trkpt lat="49.4611" lon="1.0386">
        <ele>68.3</ele>
        <time>2021-05-23T10:00:01Z</time>
      </trkpt>
      <trkpt lat="49.46109" lon="1.03856">
        <ele>68.5</ele>
        <time>2021-05-23T10:00:03Z</time>
      </trkpt>
      <trkpt lat="49.46109" lon="1.03854">
        <ele>68.8</ele>
        <time>2021-05-23T10:00:04Z</time>
      </trkpt>
      <trkpt lat="49.46108" lon="1.03852">
        <ele>69</ele>
        <time>2021-05-23T10:00:05Z</time>
      </trkpt>
      <trkpt lat="49.46107" lon="1.0385">
        <ele>69.2</ele>
        <time>2021-05-23T10:00:08Z</time>
      </trkpt>
      <trkpt lat="49.46107" lon="1.03847">
        <ele>69.4</ele>
        <time>2021-05-23T10:00:09Z</time>
      </trkpt>
      <trkpt lat="49.46107" lon="1.03845">
        <ele>69.5</ele>
        <time>2021-05-23T10:00:11Z</time>
      </trkpt>
      <trkpt lat="49.46107" lon="1.03843">
        <ele>69.6</ele>
        <time>2021-05-23T10:00:12Z</time>
      </trkpt>
      <trkpt lat="49.46106" lon="1.03842">
        <ele>69.7</ele>
        <time>2021-05-23T10:00:13Z</time>
      </trkpt>
      <trkpt lat="49.46106" lon="1.0384">
        <ele>69.9</ele>
        <time>2021-05-23T10:00:15Z</time>
      </trkpt>
      <trkpt lat="49.46106" lon="1.03839">
        <ele>70.1</ele>
        <time>2021-05-23T10:00:16Z</time>
      </trkpt>
      <trkpt lat="49.46105" lon="1.03838">
        <ele>70.3</ele>
        <time>2021-05-23T10:00:17Z</time>
      </trkpt>
      <trkpt lat="49.46105" lon="1.03837">
        <ele>70.4</ele>
        <time>2021-05-23T10:00:18Z</time>
      </trkpt>
      <trkpt lat="49.46104" lon="1.03835">
        <ele>70.5</ele>
        <time>2021-05-23T10:00:20Z</time>
      </trkpt>
      <trkpt lat="49.46103" lon="1.03832">
        <ele>70.7</ele>
        <time>2021-05-23T10:00:21Z</time>
      </trkpt>
      <trkpt lat="49.46102" lon="1.03831">
        <ele>70.9</ele>
        <time>2021-05-23T10:00:22Z</time>
      </trkpt>
      <trkpt lat="49.46102" lon="1.03829">
        <ele>71.1</ele>
        <time>2021-05-23T10:00:23Z</time>
      </trkpt>
      <trkpt lat="49.46101" lon="1.03828">
        <ele>71.3</ele>
        <time>2021-05-23T10:00:25Z</time>
      </trkpt>
      <trkpt lat="49.461" lon="1.03826">
        <ele>71.5</ele>
        <time>2021-05-23T10:00:26Z</time>
      </trkpt>
      <trkpt lat="49.461" lon="1.03824">
        <ele>71.8</ele>
        <time>2021-05-23T10:00:27Z</time>
      </trkpt>
      <trkpt lat="49.46099" lon="1.03822">
        <ele>72</ele>
        <time>2021-05-23T10:00:28Z</time>
      </trkpt>
      <trkpt lat="49.46099" lon="1.0382">
        <ele>72.2</ele>
        <time>2021-05-23T10:00:29Z</time>
      </trkpt>
      <trkpt lat="49.46098" lon="1.03818">
        <ele>72.5</ele>
        <time>2021-05-23T10:00:31Z</time>
      </trkpt>
      <trkpt lat="49.46097" lon="1.03816">
        <ele>72.7</ele>
        <time>2021-05-23T10:00:32Z</time>
      </trkpt>
      <trkpt lat="49.46096" lon="1.03814">
        <ele>73</ele>
        <time>2021-05-23T10:00:33Z</time>
      </trkpt>
      <trkpt lat="49.46096" lon="1.03811">
        <ele>73.3</ele>
        <time>2021-05-23T10:00:34Z</time>
      </trkpt>
      <trkpt lat="49.46095" lon="1.03808">
        <ele>73.5</ele>
        <time>2021-05-23T10:00:35Z</time>
      </trkpt>
      <trkpt lat="49.46094" lon="1.03805">
        <ele>73.9</ele>
        <time>2021-05-23T10:00:36Z</time>
      </trkpt>
      <trkpt lat="49.46094" lon="1.03803">
        <ele>74.3</ele>
        <time>2021-05-23T10:00:37Z</time>
      </trkpt>
      <trkpt lat="49.46092" lon="1.03798">
        <ele>74.6</ele>
        <time>2021-05-23T10:00:39Z</time>
      </trkpt>
      <trkpt lat="49.46092" lon="1.03797">
        <ele>75</ele>
        <time>2021-05-23T10:00:40Z</time>
      </trkpt>
      <trkpt lat="49.46091" lon="1.03793">
        <ele>75.4</ele>
        <time>2021-05-23T10:00:41Z</time>
      </trkpt>
      <trkpt lat="49.4609" lon="1.03789">
        <ele>75.8</ele>
        <time>2021-05-23T10:00:43Z</time>
      </trkpt>
      <trkpt lat="49.4609" lon="1.03787">
        <ele>76.2</ele>
        <time>2021-05-23T10:00:44Z</time>
      </trkpt>
      <trkpt lat="49.4609" lon="1.03785">
        <ele>76.5</ele>
        <time>2021-05-23T10:00:46Z</time>
      </trkpt>
      <trkpt lat="49.46089" lon="1.03783">
        <ele>76.8</ele>
        <time>2021-05-23T10:00:47Z</time>
      </trkpt>
      <trkpt lat="49.46089" lon="1.03781">
        <ele>77.2</ele>
        <time>2021-05-23T10:00:48Z</time>
      </trkpt>
      <trkpt lat="49.46088" lon="1.03781">
        <ele>77.5</ele>
        <time>2021-05-23T10:00:50Z</time>
      </trkpt>
      <trkpt lat="49.46087" lon="1.03778">
        <ele>77.8</ele>
        <time>2021-05-23T10:00:51Z</time>
      </trkpt>
      <trkpt lat="49.46086" lon="1.03775">
        <ele>78.1</ele>
        <time>2021-05-23T10:00:53Z</time>
      </trkpt>
      <trkpt lat="49.46086" lon="1.03773">
        <ele>78.3</ele>
        <time>2021-05-23T10:00:54Z</time>
      </trkpt>
      <trkpt lat="49.46085" lon="1.0377">
        <ele>78.5</ele>
        <time>2021-05-23T10:00:57Z</time>
      </trkpt>
      <trkpt lat="49.46085" lon="1.03771">
        <ele>78.6</ele>
        <time>2021-05-23T10:00:58Z</time>
      </trkpt>
      <trkpt lat="49.46085" lon="1.03769">
        <ele>78.8</ele>
        <time>2021-05-23T10:01:00Z</time>
      </trkpt>
      <trkpt lat="49.46084" lon="1.03768">
        <ele>79</ele>
        <time>2021-05-23T10:01:01Z</time>
      </trkpt>
      <trkpt lat="49.46084" lon="1.03766">
        <ele>79.3</ele>
        <time>2021-05-23T10:01:02Z</time>
      </trkpt>
      <trkpt lat="49.46083" lon="1.03763">
        <ele>79.5</ele>
        <time>2021-05-23T10:01:03Z</time>
      </trkpt>
      <trkpt lat="49.46082" lon="1.03761">
        <ele>79.7</ele>
        <time>2021-05-23T10:01:05Z</time>
      </trkpt>
      <trkpt lat="49.46081" lon="1.03759">
        <ele>79.9</ele>
        <time>2021-05-23T10:01:06Z</time>
      </trkpt>
      <trkpt lat="49.4608" lon="1.03756">
        <ele>80.1</ele>
        <time>2021-05-23T10:01:07Z</time>
      </trkpt>
      <trkpt lat="49.46079" lon="1.03753">
        <ele>80.3</ele>
        <time>2021-05-23T10:01:09Z</time>
      </trkpt>
      <trkpt lat="49.46078" lon="1.03749">
        <ele>80.5</ele>
        <time>2021-05-23T10:01:11Z</time>
      </trkpt>
      <trkpt lat="49.46078" lon="1.03748">
        <ele>80.7</ele>
        <time>2021-05-23T10:01:12Z</time>
      </trkpt>
      <trkpt lat="49.46078" lon="1.03748">
        <ele>81</ele>
        <time>2021-05-23T10:01:13Z</time>
      </trkpt>
      <trkpt lat="49.46078" lon="1.03746">
        <ele>81.2</ele>
        <time>2021-05-23T10:01:15Z</time>
      </trkpt>
      <trkpt lat="49.46078" lon="1.03745">
        <ele>81.4</ele>
        <time>2021-05-23T10:01:16Z</time>
      </trkpt>
      <trkpt lat="49.46077" lon="1.03743">
        <ele>81.5</ele>
        <time>2021-05-23T10:01:17Z</time>
      </trkpt>
      <trkpt lat="49.46076" lon="1.03741">
        <ele>81.7</ele>
        <time>2021-05-23T10:01:19Z</time>
      </trkpt>
      <trkpt lat="49.46076" lon="1.03739">
        <ele>81.9</ele>
        <time>2021-05-23T10:01:20Z</time>
      </trkpt>
      <trkpt lat="49.46076" lon="1.03736">
        <ele>82.1</ele>
        <time>2021-05-23T10:01:22Z</time>
      </trkpt>
      <trkpt lat="49.46075" lon="1.03734">
        <ele>82.3</ele>
        <time>2021-05-23T10:01:23Z</time>
      </trkpt>
      <trkpt lat="49.46075" lon="1.03732">
        <ele>82.5</ele>
        <time>2021-05-23T10:01:24Z</time>
      </trkpt>
      <trkpt lat="49.46074" lon="1.0373">
        <ele>82.6</ele>
        <time>2021-05-23T10:01:26Z</time>
      </trkpt>
      <trkpt lat="49.46074" lon="1.03728">
        <ele>82.7</ele>
        <time>2021-05-23T10:01:27Z</time>
      </trkpt>
      <trkpt lat="49.46073" lon="1.03727">
        <ele>82.8</ele>
        <time>2021-05-23T10:01:28Z</time>
      </trkpt>
      <trkpt lat="49.46071" lon="1.03726">
        <ele>82.9</ele>
        <time>2021-05-23T10:01:30Z</time>
      </trkpt>
      <trkpt lat="49.46069" lon="1.03727">
        <ele>83.1</ele>
        <time>2021-05-23T10:01:31Z</time>
      </trkpt>
      <trkpt lat="49.46067" lon="1.03728">
        <ele>83.2</ele>
        <time>2021-05-23T10:01:32Z</time>
      </trkpt>
      <trkpt lat="49.46065" lon="1.03731">
        <ele>83.3</ele>
        <time>2021-05-23T10:01:34Z</time>
      </trkpt>
      <trkpt lat="49.46064" lon="1.03732">
        <ele>83.4</ele>
        <time>2021-05-23T10:01:35Z</time>
      </trkpt>
      <trkpt lat="49.46063" lon="1.03733">
        <ele>83.5</ele>
        <time>2021-05-23T10:01:36Z</time>
      </trkpt>
      <trkpt lat="49.46062" lon="1.03735">
        <ele>83.5</ele>
        <time>2021-05-23T10:01:37Z</time>
      </trkpt>
      <trkpt lat="49.46059" lon="1.0374">
        <ele>83.5</ele>
        <time>2021-05-23T10:01:38Z</time>
      </trkpt>
      <trkpt lat="49.46059" lon="1.03742">
        <ele>83.5</ele>
        <time>2021-05-23T10:01:39Z</time>
      </trkpt>
      <trkpt lat="49.46057" lon="1.03746">
        <ele>83.5</ele>
        <time>2021-05-23T10:01:41Z</time>
      </trkpt>
      <trkpt lat="49.46055" lon="1.03754">
        <ele>83.5</ele>
        <time>2021-05-23T10:01:43Z</time>
      </trkpt>
      <trkpt lat="49.46055" lon="1.03758">
        <ele>83.5</ele>
        <time>2021-05-23T10:01:45Z</time>
      </trkpt>
      <trkpt lat="49.46054" lon="1.03764">
        <ele>83.3</ele>
        <time>2021-05-23T10:01:47Z</time>
      </trkpt>
      <trkpt lat="49.46053" lon="1.03769">
        <ele>83.1</ele>
        <time>2021-05-23T10:01:48Z</time>
      </trkpt>
      <trkpt lat="49.46053" lon="1.03773">
        <ele>82.9</ele>
        <time>2021-05-23T10:01:50Z</time>
      </trkpt>
      <trkpt lat="49.46053" lon="1.03777">
        <ele>82.7</ele>
        <time>2021-05-23T10:01:52Z</time>
      </trkpt>
      <trkpt lat="49.46054" lon="1.03781">
        <ele>82.6</ele>
        <time>2021-05-23T10:01:53Z</time>
      </trkpt>
      <trkpt lat="49.46053" lon="1.03782">
        <ele>82.5</ele>
        <time>2021-05-23T10:01:54Z</time>
      </trkpt>
      <trkpt lat="49.46053" lon="1.03784">
        <ele>82.5</ele>
        <time>2021-05-23T10:01:55Z</time>
      </trkpt>
      <trkpt lat="49.46052" lon="1.03787">
        <ele>82.5</ele>
        <time>2021-05-23T10:01:56Z</time>
      </trkpt>
      <trkpt lat="49.46051" lon="1.03788">
        <ele>82.5</ele>
        <time>2021-05-23T10:01:58Z</time>
      </trkpt>
      <trkpt lat="49.4605" lon="1.0379">
        <ele>82.5</ele>
        <time>2021-05-23T10:01:59Z</time>
      </trkpt>
      <trkpt lat="49.46049" lon="1.03792">
        <ele>82.6</ele>
        <time>2021-05-23T10:02:00Z</time>
      </trkpt>
      <trkpt lat="49.46048" lon="1.03794">
        <ele>82.7</ele>
        <time>2021-05-23T10:02:01Z</time>
      </trkpt>
      <trkpt lat="49.46048" lon="1.03796">
        <ele>82.8</ele>
        <time>2021-05-23T10:02:02Z</time>
      </trkpt>
      <trkpt lat="49.46047" lon="1.03798">
        <ele>83</ele>
        <time>2021-05-23T10:02:03Z</time>
      </trkpt>
      <trkpt lat="49.46046" lon="1.03799">
        <ele>83.2</ele>
        <time>2021-05-23T10:02:05Z</time>
      </trkpt>
      <trkpt lat="49.46045" lon="1.03801">
        <ele>83.3</ele>
        <time>2021-05-23T10:02:06Z</time>
      </trkpt>
      <trkpt lat="49.46044" lon="1.03803">
        <ele>83.4</ele>
        <time>2021-05-23T10:02:07Z</time>
      </trkpt>
      <trkpt lat="49.46043" lon="1.03803">
        <ele>83.5</ele>
        <time>2021-05-23T10:02:08Z</time>
      </trkpt>
      <trkpt lat="49.46042" lon="1.03804">
        <ele>83.5</ele>
        <time>2021-05-23T10:02:09Z</time>
      </trkpt>
      <trkpt lat="49.46041" lon="1.03805">
        <ele>83.6</ele>
        <time>2021-05-23T10:02:10Z</time>
      </trkpt>
      <trkpt lat="49.46041" lon="1.03806">
        <ele>83.7</ele>
        <time>2021-05-23T10:02:12Z</time>
      </trkpt>
      <trkpt lat="49.4604" lon="1.03807">
        <ele>83.8</ele>
        <time>2021-05-23T10:02:13Z</time>
      </trkpt>
      <trkpt lat="49.46039" lon="1.03806">
        <ele>83.9</ele>
        <time>2021-05-23T10:02:15Z</time>
      </trkpt>
      <trkpt lat="49.46038" lon="1.03806">
        <ele>84</ele>
        <time>2021-05-23T10:02:17Z</time>
      </trkpt>
      <trkpt lat="49.46038" lon="1.03805">
        <ele>84</ele>
        <time>2021-05-23T10:02:18Z</time>
      </trkpt>
      <trkpt lat="49.46039" lon="1.03804">
        <ele>84</ele>
        <time>2021-05-23T10:02:20Z</time>
      </trkpt>
      <trkpt lat="49.46039" lon="1.03803">
        <ele>84</ele>
        <time>2021-05-23T10:02:22Z</time>
      </trkpt>
      <trkpt lat="49.46039" lon="1.03803">
        <ele>84.1</ele>
        <time>2021-05-23T10:02:23Z</time>
      </trkpt>
      <trkpt lat="49.46039" lon="1.03803">
        <ele>84.2</ele>
        <time>2021-05-23T10:02:24Z</time>
      </trkpt>
      <trkpt lat="49.46039" lon="1.03803">
        <ele>84.3</ele>
        <time>2021-05-23T10:02:26Z</time>
      </trkpt>
      <trkpt lat="49.46039" lon="1.03803">
        <ele>84.5</ele>
        <time>2021-05-23T10:02:27Z</time>
      </trkpt>
      <trkpt lat="49.46039" lon="1.03803">
        <ele>84.6</ele>
        <time>2021-05-23T10:02:29Z</time>
      </trkpt>
      <trkpt lat="49.46037" lon="1.03801">
        <ele>84.8</ele>
        <time>2021-05-23T10:02:40Z</time>
      </trkpt>
      <trkpt lat="49.46037" lon="1.038">
        <ele>85</ele>
        <time>2021-05-23T10:02:42Z</time>
      </trkpt>
      <trkpt lat="49.46036" lon="1.03798">
        <ele>85.2</ele>
        <time>2021-05-23T10:02:44Z</time>
      </trkpt>
      <trkpt lat="49.46035" lon="1.03798">
        <ele>85.4</ele>
        <time>2021-05-23T10:02:45Z</time>
      </trkpt>
      <trkpt lat="49.46034" lon="1.03799">
        <ele>85.5</ele>
        <time>2021-05-23T10:02:46Z</time>
      </trkpt>
      <trkpt lat="49.46033" lon="1.038">
        <ele>85.6</ele>
        <time>2021-05-23T10:02:47Z</time>
      </trkpt>
      <trkpt lat="49.46032" lon="1.03801">
        <ele>85.6</ele>
        <time>2021-05-23T10:02:48Z</time>
      </trkpt>
      <trkpt lat="49.4603" lon="1.03808">
        <ele>85.5</ele>
        <time>2021-05-23T10:02:51Z</time>
      </trkpt>
      <trkpt lat="49.46031" lon="1.0381">
        <ele>85.4</ele>
        <time>2021-05-23T10:02:52Z</time>
      </trkpt>
      <trkpt lat="49.46031" lon="1.03812">
        <ele>85.1</ele>
        <time>2021-05-23T10:02:53Z</time>
      </trkpt>
      <trkpt lat="49.46033" lon="1.03818">
        <ele>84.8</ele>
        <time>2021-05-23T10:02:55Z</time>
      </trkpt>
      <trkpt lat="49.46034" lon="1.0382">
        <ele>84.5</ele>
        <time>2021-05-23T10:02:56Z</time>
      </trkpt>
      <trkpt lat="49.46034" lon="1.03821">
        <ele>84.1</ele>
        <time>2021-05-23T10:02:57Z</time>
      </trkpt>
      <trkpt lat="49.46036" lon="1.03828">
        <ele>83.7</ele>
        <time>2021-05-23T10:02:59Z</time>
      </trkpt>
      <trkpt lat="49.46036" lon="1.0383">
        <ele>83.4</ele>
        <time>2021-05-23T10:03:00Z</time>
      </trkpt>
      <trkpt lat="49.46037" lon="1.03832">
        <ele>83</ele>
        <time>2021-05-23T10:03:01Z</time>
      </trkpt>
      <trkpt lat="49.46038" lon="1.03838">
        <ele>82.7</ele>
        <time>2021-05-23T10:03:03Z</time>
      </trkpt>
      <trkpt lat="49.46038" lon="1.03844">
        <ele>82.5</ele>
        <time>2021-05-23T10:03:04Z</time>
      </trkpt>
      <trkpt lat="49.46038" lon="1.03846">
        <ele>82.3</ele>
        <time>2021-05-23T10:03:05Z</time>
      </trkpt>
      <trkpt lat="49.46037" lon="1.03851">
        <ele>82.2</ele>
        <time>2021-05-23T10:03:06Z</time>
      </trkpt>
      <trkpt lat="49.46036" lon="1.03859">
        <ele>82.2</ele>
        <time>2021-05-23T10:03:08Z</time>
      </trkpt>
      <trkpt lat="49.46034" lon="1.03866">
        <ele>82.2</ele>
        <time>2021-05-23T10:03:09Z</time>
      </trkpt>
      <trkpt lat="49.46034" lon="1.03868">
        <ele>82.3</ele>
        <time>2021-05-23T10:03:10Z</time>
      </trkpt>
      <trkpt lat="49.46032" lon="1.03871">
        <ele>82.5</ele>
        <time>2021-05-23T10:03:11Z</time>
      </trkpt>
      <trkpt lat="49.4603" lon="1.03876">
        <ele>82.6</ele>
        <time>2021-05-23T10:03:13Z</time>
      </trkpt>
      <trkpt lat="49.46027" lon="1.03882">
        <ele>82.9</ele>
        <time>2021-05-23T10:03:14Z</time>
      </trkpt>
      <trkpt lat="49.46024" lon="1.03887">
        <ele>83.2</ele>
        <time>2021-05-23T10:03:16Z</time>
      </trkpt>
      <trkpt lat="49.46021" lon="1.03893">
        <ele>83.5</ele>
        <time>2021-05-23T10:03:17Z</time>
      </trkpt>
      <trkpt lat="49.46019" lon="1.03898">
        <ele>83.9</ele>
        <time>2021-05-23T10:03:19Z</time>
      </trkpt>
      <trkpt lat="49.46016" lon="1.03903">
        <ele>84.4</ele>
        <time>2021-05-23T10:03:22Z</time>
      </trkpt>
      <trkpt lat="49.46014" lon="1.03909">
        <ele>84.8</ele>
        <time>2021-05-23T10:03:23Z</time>
      </trkpt>
      <trkpt lat="49.46012" lon="1.03914">
        <ele>85.2</ele>
        <time>2021-05-23T10:03:24Z</time>
      </trkpt>
      <trkpt lat="49.46009" lon="1.03917">
        <ele>85.5</ele>
        <time>2021-05-23T10:03:25Z</time>
      </trkpt>
      <trkpt lat="49.46006" lon="1.0392">
        <ele>85.9</ele>
        <time>2021-05-23T10:03:27Z</time>
      </trkpt>
      <trkpt lat="49.46002" lon="1.03925">
        <ele>86.2</ele>
        <time>2021-05-23T10:03:29Z</time>
      </trkpt>
      <trkpt lat="49.46001" lon="1.03926">
        <ele>86.5</ele>
        <time>2021-05-23T10:03:30Z</time>
      </trkpt>
      <trkpt lat="49.45999" lon="1.03927">
        <ele>86.7</ele>
        <time>2021-05-23T10:03:31Z</time>
      </trkpt>
      <trkpt lat="49.45998" lon="1.03929">
        <ele>87</ele>
        <time>2021-05-23T10:03:33Z</time>
      </trkpt>
      <trkpt lat="49.45997" lon="1.03931">
        <ele>87.2</ele>
        <time>2021-05-23T10:03:34Z</time>
      </trkpt>
      <trkpt lat="49.45996" lon="1.03932">
        <ele>87.4</ele>
        <time>2021-05-23T10:03:35Z</time>
      </trkpt>
      <trkpt lat="49.45994" lon="1.03934">
        <ele>87.5</ele>
        <time>2021-05-23T10:03:37Z</time>
      </trkpt>
      <trkpt lat="49.45992" lon="1.03936">
        <ele>87.6</ele>
        <time>2021-05-23T10:03:38Z</time>
      </trkpt>
      <trkpt lat="49.4599" lon="1.03937">
        <ele>87.8</ele>
        <time>2021-05-23T10:03:39Z</time>
      </trkpt>
      <trkpt lat="49.45988" lon="1.0394">
        <ele>88.1</ele>
        <time>2021-05-23T10:03:41Z</time>
      </trkpt>
      <trkpt lat="49.45985" lon="1.03942">
        <ele>88.4</ele>
        <time>2021-05-23T10:03:42Z</time>
      </trkpt>
      <trkpt lat="49.45982" lon="1.03945">
        <ele>88.7</ele>
        <time>2021-05-23T10:03:43Z</time>
      </trkpt>
      <trkpt lat="49.45981" lon="1.03945">
        <ele>89.1</ele>
        <time>2021-05-23T10:03:44Z</time>
      </trkpt>
      <trkpt lat="49.45979" lon="1.03947">
        <ele>89.4</ele>
        <time>2021-05-23T10:03:45Z</time>
      </trkpt>
      <trkpt lat="49.45976" lon="1.03948">
        <ele>89.6</ele>
        <time>2021-05-23T10:03:47Z</time>
      </trkpt>
      <trkpt lat="49.45974" lon="1.03949">
        <ele>89.9</ele>
        <time>2021-05-23T10:03:48Z</time>
      </trkpt>
      <trkpt lat="49.45971" lon="1.0395">
        <ele>90.2</ele>
        <time>2021-05-23T10:03:50Z</time>
      </trkpt>
      <trkpt lat="49.45969" lon="1.03952">
        <ele>90.5</ele>
        <time>2021-05-23T10:03:51Z</time>
      </trkpt>
      <trkpt lat="49.45968" lon="1.03953">
        <ele>90.8</ele>
        <time>2021-05-23T10:03:52Z</time>
      </trkpt>
      <trkpt lat="49.45965" lon="1.03955">
        <ele>91.1</ele>
        <time>2021-05-23T10:03:53Z</time>
      </trkpt>
      <trkpt lat="49.45963" lon="1.03956">
        <ele>91.3</ele>
        <time>2021-05-23T10:03:54Z</time>
      </trkpt>
      <trkpt lat="49.45959" lon="1.03957">
        <ele>91.5</ele>
        <time>2021-05-23T10:03:55Z</time>
      </trkpt>
      <trkpt lat="49.45958" lon="1.03957">
        <ele>91.6</ele>
        <time>2021-05-23T10:03:56Z</time>
      </trkpt>
      <trkpt lat="49.45955" lon="1.03958">
        <ele>91.8</ele>
        <time>2021-05-23T10:03:58Z</time>
      </trkpt>
      <trkpt lat="49.45951" lon="1.03961">
        <ele>92.1</ele>
        <time>2021-05-23T10:03:59Z</time>
      </trkpt>
      <trkpt lat="49.45947" lon="1.03963">
        <ele>92.4</ele>
        <time>2021-05-23T10:04:00Z</time>
      </trkpt>
      <trkpt lat="49.45943" lon="1.03964">
        <ele>92.6</ele>
        <time>2021-05-23T10:04:02Z</time>
      </trkpt>
      <trkpt lat="49.45939" lon="1.03964">
        <ele>93</ele>
        <time>2021-05-23T10:04:03Z</time>
      </trkpt>
      <trkpt lat="49.45933" lon="1.03966">
        <ele>93.3</ele>
        <time>2021-05-23T10:04:05Z</time>
      </trkpt>
      <trkpt lat="49.45929" lon="1.03967">
        <ele>93.5</ele>
        <time>2021-05-23T10:04:06Z</time>
      </trkpt>
      <trkpt lat="49.45924" lon="1.03967">
        <ele>93.8</ele>
        <time>2021-05-23T10:04:07Z</time>
      </trkpt>
      <trkpt lat="49.45919" lon="1.03968">
        <ele>94</ele>
        <time>2021-05-23T10:04:09Z</time>
      </trkpt>
      <trkpt lat="49.45917" lon="1.03968">
        <ele>94.2</ele>
        <time>2021-05-23T10:04:11Z</time>
      </trkpt>
      <trkpt lat="49.45915" lon="1.03968">
        <ele>94.3</ele>
        <time>2021-05-23T10:04:12Z</time>
      </trkpt>
      <trkpt lat="49.45912" lon="1.03969">
        <ele>94.4</ele>
        <time>2021-05-23T10:04:14Z</time>
      </trkpt>
      <trkpt lat="49.4591" lon="1.03969">
        <ele>94.4</ele>
        <time>2021-05-23T10:04:15Z</time>
      </trkpt>
      <trkpt lat="49.45907" lon="1.0397">
        <ele>94.4</ele>
        <time>2021-05-23T10:04:17Z</time>
      </trkpt>
      <trkpt lat="49.45904" lon="1.0397">
        <ele>94.4</ele>
        <time>2021-05-23T10:04:18Z</time>
      </trkpt>
      <trkpt lat="49.459" lon="1.03971">
        <ele>94.3</ele>
        <time>2021-05-23T10:04:19Z</time>
      </trkpt>
      <trkpt lat="49.45898" lon="1.0397">
        <ele>94.3</ele>
        <time>2021-05-23T10:04:20Z</time>
      </trkpt>
      <trkpt lat="49.45894" lon="1.03971">
        <ele>94.3</ele>
        <time>2021-05-23T10:04:21Z</time>
      </trkpt>
      <trkpt lat="49.45892" lon="1.03971">
        <ele>94.3</ele>
        <time>2021-05-23T10:04:22Z</time>
      </trkpt>
      <trkpt lat="49.4589" lon="1.03971">
        <ele>94.4</ele>
        <time>2021-05-23T10:04:23Z</time>
      </trkpt>
      <trkpt lat="49.45887" lon="1.03971">
        <ele>94.5</ele>
        <time>2021-05-23T10:04:24Z</time>
      </trkpt>
      <trkpt lat="49.45884" lon="1.03971">
        <ele>94.5</ele>
        <time>2021-05-23T10:04:26Z</time>
      </trkpt>
      <trkpt lat="49.4588" lon="1.03971">
        <ele>94.6</ele>
        <time>2021-05-23T10:04:27Z</time>
      </trkpt>
      <trkpt lat="49.45876" lon="1.0397">
        <ele>94.7</ele>
        <time>2021-05-23T10:04:29Z</time>
      </trkpt>
      <trkpt lat="49.45874" lon="1.0397">
        <ele>94.8</ele>
        <time>2021-05-23T10:04:30Z</time>
      </trkpt>
      <trkpt lat="49.45873" lon="1.0397">
        <ele>95</ele>
        <time>2021-05-23T10:04:31Z</time>
      </trkpt>
      <trkpt lat="49.45871" lon="1.03969">
        <ele>95.1</ele>
        <time>2021-05-23T10:04:33Z</time>
      </trkpt>
      <trkpt lat="49.45869" lon="1.0397">
        <ele>95.1</ele>
        <time>2021-05-23T10:04:34Z</time>
      </trkpt>
      <trkpt lat="49.45868" lon="1.0397">
        <ele>95.2</ele>
        <time>2021-05-23T10:04:35Z</time>
      </trkpt>
      <trkpt lat="49.45867" lon="1.0397">
        <ele>95.3</ele>
        <time>2021-05-23T10:04:36Z</time>
      </trkpt>
      <trkpt lat="49.45862" lon="1.03969">
        <ele>95.4</ele>
        <time>2021-05-23T10:04:38Z</time>
      </trkpt>
      <trkpt lat="49.4586" lon="1.0397">
        <ele>95.5</ele>
        <time>2021-05-23T10:04:39Z</time>
      </trkpt>
      <trkpt lat="49.45858" lon="1.0397">
        <ele>95.5</ele>
        <time>2021-05-23T10:04:40Z</time>
      </trkpt>
      <trkpt lat="49.45855" lon="1.03969">
        <ele>95.6</ele>
        <time>2021-05-23T10:04:42Z</time>
      </trkpt>
      <trkpt lat="49.45853" lon="1.03969">
        <ele>95.7</ele>
        <time>2021-05-23T10:04:43Z</time>
      </trkpt>
      <trkpt lat="49.4585" lon="1.03969">
        <ele>95.9</ele>
        <time>2021-05-23T10:04:45Z</time>
      </trkpt>
      <trkpt lat="49.45846" lon="1.03967">
        <ele>96</ele>
        <time>2021-05-23T10:04:46Z</time>
      </trkpt>
      <trkpt lat="49.45845" lon="1.03966">
        <ele>96.2</ele>
        <time>2021-05-23T10:04:47Z</time>
      </trkpt>
      <trkpt lat="49.45842" lon="1.03964">
        <ele>96.4</ele>
        <time>2021-05-23T10:04:49Z</time>
      </trkpt>
      <trkpt lat="49.45839" lon="1.03963">
        <ele>96.5</ele>
        <time>2021-05-23T10:04:50Z</time>
      </trkpt>
      <trkpt lat="49.45836" lon="1.03961">
        <ele>96.5</ele>
        <time>2021-05-23T10:04:52Z</time>
      </trkpt>
      <trkpt lat="49.45833" lon="1.03959">
        <ele>96.6</ele>
        <time>2021-05-23T10:04:53Z</time>
      </trkpt>
      <trkpt lat="49.45829" lon="1.03957">
        <ele>96.7</ele>
        <time>2021-05-23T10:04:54Z</time>
      </trkpt>
      <trkpt lat="49.45828" lon="1.03956">
        <ele>96.8</ele>
        <time>2021-05-23T10:04:55Z</time>
      </trkpt>
      <trkpt lat="49.45825" lon="1.03954">
        <ele>97</ele>
        <time>2021-05-23T10:04:56Z</time>
      </trkpt>
      <trkpt lat="49.45822" lon="1.03952">
        <ele>97.2</ele>
        <time>2021-05-23T10:04:58Z</time>
      </trkpt>
      <trkpt lat="49.45821" lon="1.0395">
        <ele>97.3</ele>
        <time>2021-05-23T10:05:00Z</time>
      </trkpt>
      <trkpt lat="49.45818" lon="1.03948">
        <ele>97.5</ele>
        <time>2021-05-23T10:05:01Z</time>
      </trkpt>
      <trkpt lat="49.45816" lon="1.03946">
        <ele>97.6</ele>
        <time>2021-05-23T10:05:02Z</time>
      </trkpt>
      <trkpt lat="49.45815" lon="1.03945">
        <ele>97.9</ele>
        <time>2021-05-23T10:05:03Z</time>
      </trkpt>
      <trkpt lat="49.45812" lon="1.03941">
        <ele>98.2</ele>
        <time>2021-05-23T10:05:04Z</time>
      </trkpt>
      <trkpt lat="49.45811" lon="1.0394">
        <ele>98.5</ele>
        <time>2021-05-23T10:05:05Z</time>
      </trkpt>
      <trkpt lat="49.45808" lon="1.03934">
        <ele>98.9</ele>
        <time>2021-05-23T10:05:07Z</time>
      </trkpt>
      <trkpt lat="49.45808" lon="1.03932">
        <ele>99.3</ele>
        <time>2021-05-23T10:05:08Z</time>
      </trkpt>
      <trkpt lat="49.45807" lon="1.03929">
        <ele>99.7</ele>
        <time>2021-05-23T10:05:09Z</time>
      </trkpt>
      <trkpt lat="49.45805" lon="1.03925">
        <ele>100.1</ele>
        <time>2021-05-23T10:05:10Z</time>
      </trkpt>
      <trkpt lat="49.45803" lon="1.0392">
        <ele>100.5</ele>
        <time>2021-05-23T10:05:12Z</time>
      </trkpt>
      <trkpt lat="49.45802" lon="1.03918">
        <ele>100.9</ele>
        <time>2021-05-23T10:05:13Z</time>
      </trkpt>
      <trkpt lat="49.45801" lon="1.03916">
        <ele>101.3</ele>
        <time>2021-05-23T10:05:14Z</time>
      </trkpt>
      <trkpt lat="49.458" lon="1.03913">
        <ele>101.6</ele>
        <time>2021-05-23T10:05:16Z</time>
      </trkpt>
      <trkpt lat="49.45799" lon="1.03911">
        <ele>102</ele>
        <time>2021-05-23T10:05:17Z</time>
      </trkpt>
      <trkpt lat="49.45798" lon="1.0391">
        <ele>102.4</ele>
        <time>2021-05-23T10:05:18Z</time>
      </trkpt>
      <trkpt lat="49.45795" lon="1.03904">
        <ele>102.6</ele>
        <time>2021-05-23T10:05:20Z</time>
      </trkpt>
      <trkpt lat="49.45794" lon="1.03902">
        <ele>103</ele>
        <time>2021-05-23T10:05:21Z</time>
      </trkpt>
      <trkpt lat="49.45793" lon="1.039">
        <ele>103.4</ele>
        <time>2021-05-23T10:05:22Z</time>
      </trkpt>
      <trkpt lat="49.45791" lon="1.03897">
        <ele>103.7</ele>
        <time>2021-05-23T10:05:23Z</time>
      </trkpt>
      <trkpt lat="49.4579" lon="1.03895">
        <ele>104.1</ele>
        <time>2021-05-23T10:05:24Z</time>
      </trkpt>
      <trkpt lat="49.45788" lon="1.03891">
        <ele>104.5</ele>
        <time>2021-05-23T10:05:25Z</time>
      </trkpt>
      <trkpt lat="49.45787" lon="1.03887">
        <ele>104.8</ele>
        <time>2021-05-23T10:05:27Z</time>
      </trkpt>
      <trkpt lat="49.45784" lon="1.03883">
        <ele>105.2</ele>
        <time>2021-05-23T10:05:28Z</time>
      </trkpt>
      <trkpt lat="49.45782" lon="1.03879">
        <ele>105.5</ele>
        <time>2021-05-23T10:05:29Z</time>
      </trkpt>
      <trkpt lat="49.4578" lon="1.03874">
        <ele>105.8</ele>
        <time>2021-05-23T10:05:31Z</time>
      </trkpt>
      <trkpt lat="49.45779" lon="1.03871">
        <ele>106.1</ele>
        <time>2021-05-23T10:05:32Z</time>
      </trkpt>
      <trkpt lat="49.45777" lon="1.03867">
        <ele>106.4</ele>
        <time>2021-05-23T10:05:34Z</time>
      </trkpt>
      <trkpt lat="49.45776" lon="1.03865">
        <ele>106.6</ele>
        <time>2021-05-23T10:05:35Z</time>
      </trkpt>
      <trkpt lat="49.45775" lon="1.03863">
        <ele>106.9</ele>
        <time>2021-05-23T10:05:36Z</time>
      </trkpt>
      <trkpt lat="49.45774" lon="1.0386">
        <ele>107.1</ele>
        <time>2021-05-23T10:05:37Z</time>
      </trkpt>
      <trkpt lat="49.45772" lon="1.03857">
        <ele>107.3</ele>
        <time>2021-05-23T10:05:39Z</time>
      </trkpt>
      <trkpt lat="49.45771" lon="1.03855">
        <ele>107.4</ele>
        <time>2021-05-23T10:05:40Z</time>
      </trkpt>
      <trkpt lat="49.45769" lon="1.03852">
        <ele>107.4</ele>
        <time>2021-05-23T10:05:42Z</time>
      </trkpt>
      <trkpt lat="49.45767" lon="1.03848">
        <ele>107.4</ele>
        <time>2021-05-23T10:05:43Z</time>
      </trkpt>
      <trkpt lat="49.45766" lon="1.03847">
        <ele>107.4</ele>
        <time>2021-05-23T10:05:44Z</time>
      </trkpt>
      <trkpt lat="49.45764" lon="1.03845">
        <ele>107.4</ele>
        <time>2021-05-23T10:05:45Z</time>
      </trkpt>
      <trkpt lat="49.45762" lon="1.03844">
        <ele>107.4</ele>
        <time>2021-05-23T10:05:48Z</time>
      </trkpt>
      <trkpt lat="49.45759" lon="1.03841">
        <ele>107.4</ele>
        <time>2021-05-23T10:05:49Z</time>
      </trkpt>
      <trkpt lat="49.45758" lon="1.0384">
        <ele>107.3</ele>
        <time>2021-05-23T10:05:50Z</time>
      </trkpt>
      <trkpt lat="49.45756" lon="1.03838">
        <ele>107.3</ele>
        <time>2021-05-23T10:05:52Z</time>
      </trkpt>
      <trkpt lat="49.45754" lon="1.03837">
        <ele>107.3</ele>
        <time>2021-05-23T10:05:53Z</time>
      </trkpt>
      <trkpt lat="49.45753" lon="1.03835">
        <ele>107.3</ele>
        <time>2021-05-23T10:05:54Z</time>
      </trkpt>
      <trkpt lat="49.45751" lon="1.03833">
        <ele>107.4</ele>
        <time>2021-05-23T10:05:55Z</time>
      </trkpt>
      <trkpt lat="49.45748" lon="1.0383">
        <ele>107.5</ele>
        <time>2021-05-23T10:05:56Z</time>
      </trkpt>
      <trkpt lat="49.45747" lon="1.03829">
        <ele>107.6</ele>
        <time>2021-05-23T10:05:57Z</time>
      </trkpt>
      <trkpt lat="49.45745" lon="1.03826">
        <ele>107.8</ele>
        <time>2021-05-23T10:05:59Z</time>
      </trkpt>
      <trkpt lat="49.45744" lon="1.03825">
        <ele>108</ele>
        <time>2021-05-23T10:06:00Z</time>
      </trkpt>
      <trkpt lat="49.45741" lon="1.03822">
        <ele>108.2</ele>
        <time>2021-05-23T10:06:01Z</time>
      </trkpt>
      <trkpt lat="49.4574" lon="1.0382">
        <ele>108.4</ele>
        <time>2021-05-23T10:06:02Z</time>
      </trkpt>
      <trkpt lat="49.45736" lon="1.03817">
        <ele>108.5</ele>
        <time>2021-05-23T10:06:04Z</time>
      </trkpt>
      <trkpt lat="49.45733" lon="1.03814">
        <ele>108.6</ele>
        <time>2021-05-23T10:06:05Z</time>
      </trkpt>
      <trkpt lat="49.45728" lon="1.0381">
        <ele>108.8</ele>
        <time>2021-05-23T10:06:07Z</time>
      </trkpt>
      <trkpt lat="49.45727" lon="1.03809">
        <ele>109</ele>
        <time>2021-05-23T10:06:08Z</time>
      </trkpt>
      <trkpt lat="49.45726" lon="1.03808">
        <ele>109.2</ele>
        <time>2021-05-23T10:06:09Z</time>
      </trkpt>
      <trkpt lat="49.45723" lon="1.03806">
        <ele>109.5</ele>
        <time>2021-05-23T10:06:10Z</time>
      </trkpt>
      <trkpt lat="49.45721" lon="1.03803">
        <ele>109.6</ele>
        <time>2021-05-23T10:06:12Z</time>
      </trkpt>
      <trkpt lat="49.45717" lon="1.03799">
        <ele>109.8</ele>
        <time>2021-05-23T10:06:13Z</time>
      </trkpt>
      <trkpt lat="49.45715" lon="1.03798">
        <ele>110</ele>
        <time>2021-05-23T10:06:14Z</time>
      </trkpt>
      <trkpt lat="49.45711" lon="1.03794">
        <ele>110.2</ele>
        <time>2021-05-23T10:06:16Z</time>
      </trkpt>
      <trkpt lat="49.4571" lon="1.03792">
        <ele>110.5</ele>
        <time>2021-05-23T10:06:17Z</time>
      </trkpt>
      <trkpt lat="49.45708" lon="1.03791">
        <ele>110.7</ele>
        <time>2021-05-23T10:06:18Z</time>
      </trkpt>
      <trkpt lat="49.45705" lon="1.03788">
        <ele>111</ele>
        <time>2021-05-23T10:06:20Z</time>
      </trkpt>
      <trkpt lat="49.45704" lon="1.03787">
        <ele>111.2</ele>
        <time>2021-05-23T10:06:21Z</time>
      </trkpt>
      <trkpt lat="49.45701" lon="1.03784">
        <ele>111.4</ele>
        <time>2021-05-23T10:06:22Z</time>
      </trkpt>
      <trkpt lat="49.457" lon="1.03782">
        <ele>111.5</ele>
        <time>2021-05-23T10:06:23Z</time>
      </trkpt>
      <trkpt lat="49.45696" lon="1.03779">
        <ele>111.7</ele>
        <time>2021-05-23T10:06:25Z</time>
      </trkpt>
      <trkpt lat="49.45695" lon="1.03778">
        <ele>111.9</ele>
        <time>2021-05-23T10:06:26Z</time>
      </trkpt>
      <trkpt lat="49.45694" lon="1.03777">
        <ele>112.1</ele>
        <time>2021-05-23T10:06:27Z</time>
      </trkpt>
      <trkpt lat="49.45693" lon="1.03776">
        <ele>112.3</ele>
        <time>2021-05-23T10:06:28Z</time>
      </trkpt>
      <trkpt lat="49.45691" lon="1.03775">
        <ele>112.5</ele>
        <time>2021-05-23T10:06:30Z</time>
      </trkpt>
      <trkpt lat="49.4569" lon="1.03773">
        <ele>112.8</ele>
        <time>2021-05-23T10:06:31Z</time>
      </trkpt>
      <trkpt lat="49.45688" lon="1.03773">
        <ele>113.2</ele>
        <time>2021-05-23T10:06:32Z</time>
      </trkpt>
      <trkpt lat="49.45687" lon="1.03771">
        <ele>113.5</ele>
        <time>2021-05-23T10:06:33Z</time>
      </trkpt>
      <trkpt lat="49.45686" lon="1.03769">
        <ele>113.9</ele>
        <time>2021-05-23T10:06:34Z</time>
      </trkpt>
      <trkpt lat="49.45684" lon="1.03765">
        <ele>114.4</ele>
        <time>2021-05-23T10:06:37Z</time>
      </trkpt>
      <trkpt lat="49.45683" lon="1.03761">
        <ele>114.8</ele>
        <time>2021-05-23T10:06:38Z</time>
      </trkpt>
      <trkpt lat="49.45681" lon="1.03758">
        <ele>115.2</ele>
        <time>2021-05-23T10:06:39Z</time>
      </trkpt>
      <trkpt lat="49.45679" lon="1.03756">
        <ele>115.5</ele>
        <time>2021-05-23T10:06:40Z</time>
      </trkpt>
      <trkpt lat="49.45677" lon="1.03753">
        <ele>115.9</ele>
        <time>2021-05-23T10:06:42Z</time>
      </trkpt>
      <trkpt lat="49.45674" lon="1.03751">
        <ele>116.3</ele>
        <time>2021-05-23T10:06:43Z</time>
      </trkpt>
      <trkpt lat="49.45672" lon="1.03749">
        <ele>116.5</ele>
        <time>2021-05-23T10:06:45Z</time>
      </trkpt>
      <trkpt lat="49.4567" lon="1.03747">
        <ele>116.7</ele>
        <time>2021-05-23T10:06:47Z</time>
      </trkpt>
      <trkpt lat="49.45667" lon="1.03746">
        <ele>116.8</ele>
        <time>2021-05-23T10:06:49Z</time>
      </trkpt>
      <trkpt lat="49.45666" lon="1.03746">
        <ele>116.9</ele>
        <time>2021-05-23T10:06:50Z</time>
      </trkpt>
      <trkpt lat="49.45663" lon="1.03744">
        <ele>117.1</ele>
        <time>2021-05-23T10:06:51Z</time>
      </trkpt>
      <trkpt lat="49.45659" lon="1.03742">
        <ele>117.2</ele>
        <time>2021-05-23T10:06:53Z</time>
      </trkpt>
      <trkpt lat="49.45657" lon="1.0374">
        <ele>117.3</ele>
        <time>2021-05-23T10:06:54Z</time>
      </trkpt>
      <trkpt lat="49.45656" lon="1.0374">
        <ele>117.4</ele>
        <time>2021-05-23T10:06:55Z</time>
      </trkpt>
      <trkpt lat="49.45653" lon="1.03737">
        <ele>117.4</ele>
        <time>2021-05-23T10:06:56Z</time>
      </trkpt>
      <trkpt lat="49.45652" lon="1.03737">
        <ele>117.4</ele>
        <time>2021-05-23T10:06:57Z</time>
      </trkpt>
      <trkpt lat="49.45651" lon="1.03736">
        <ele>117.4</ele>
        <time>2021-05-23T10:06:59Z</time>
      </trkpt>
      <trkpt lat="49.4565" lon="1.03736">
        <ele>117.3</ele>
        <time>2021-05-23T10:07:00Z</time>
      </trkpt>
      <trkpt lat="49.45649" lon="1.03736">
        <ele>117.2</ele>
        <time>2021-05-23T10:07:01Z</time>
      </trkpt>
      <trkpt lat="49.45647" lon="1.03736">
        <ele>117.1</ele>
        <time>2021-05-23T10:07:03Z</time>
      </trkpt>
      <trkpt lat="49.45645" lon="1.03736">
        <ele>116.9</ele>
        <time>2021-05-23T10:07:04Z</time>
      </trkpt>
      <trkpt lat="49.45641" lon="1.03738">
        <ele>116.6</ele>
        <time>2021-05-23T10:07:06Z</time>
      </trkpt>
      <trkpt lat="49.45637" lon="1.03739">
        <ele>116.4</ele>
        <time>2021-05-23T10:07:07Z</time>
      </trkpt>
      <trkpt lat="49.45634" lon="1.0374">
        <ele>116.1</ele>
        <time>2021-05-23T10:07:08Z</time>
      </trkpt>
      <trkpt lat="49.45631" lon="1.0374">
        <ele>115.8</ele>
        <time>2021-05-23T10:07:09Z</time>
      </trkpt>
      <trkpt lat="49.45627" lon="1.03741">
        <ele>115.7</ele>
        <time>2021-05-23T10:07:11Z</time>
      </trkpt>
      <trkpt lat="49.45624" lon="1.03741">
        <ele>115.6</ele>
        <time>2021-05-23T10:07:12Z</time>
      </trkpt>
      <trkpt lat="49.45622" lon="1.03741">
        <ele>115.5</ele>
        <time>2021-05-23T10:07:13Z</time>
      </trkpt>
      <trkpt lat="49.45618" lon="1.03739">
        <ele>115.5</ele>
        <time>2021-05-23T10:07:15Z</time>
      </trkpt>
      <trkpt lat="49.45617" lon="1.03738">
        <ele>115.6</ele>
        <time>2021-05-23T10:07:16Z</time>
      </trkpt>
      <trkpt lat="49.45616" lon="1.03737">
        <ele>115.7</ele>
        <time>2021-05-23T10:07:17Z</time>
      </trkpt>
      <trkpt lat="49.45613" lon="1.03735">
        <ele>116</ele>
        <time>2021-05-23T10:07:18Z</time>
      </trkpt>
      <trkpt lat="49.45612" lon="1.03734">
        <ele>116.3</ele>
        <time>2021-05-23T10:07:19Z</time>
      </trkpt>
      <trkpt lat="49.45609" lon="1.03731">
        <ele>116.5</ele>
        <time>2021-05-23T10:07:20Z</time>
      </trkpt>
      <trkpt lat="49.45606" lon="1.03728">
        <ele>116.8</ele>
        <time>2021-05-23T10:07:22Z</time>
      </trkpt>
      <trkpt lat="49.45605" lon="1.03728">
        <ele>117.1</ele>
        <time>2021-05-23T10:07:23Z</time>
      </trkpt>
      <trkpt lat="49.45603" lon="1.03726">
        <ele>117.3</ele>
        <time>2021-05-23T10:07:24Z</time>
      </trkpt>
      <trkpt lat="49.45601" lon="1.03724">
        <ele>117.5</ele>
        <time>2021-05-23T10:07:27Z</time>
      </trkpt>
      <trkpt lat="49.456" lon="1.03723">
        <ele>117.6</ele>
        <time>2021-05-23T10:07:28Z</time>
      </trkpt>
      <trkpt lat="49.45601" lon="1.03724">
        <ele>117.8</ele>
        <time>2021-05-23T10:07:29Z</time>
      </trkpt>
      <trkpt lat="49.45601" lon="1.03725">
        <ele>117.9</ele>
        <time>2021-05-23T10:07:31Z</time>
      </trkpt>
      <trkpt lat="49.45601" lon="1.03726">
        <ele>118</ele>
        <time>2021-05-23T10:07:33Z</time>
      </trkpt>
      <trkpt lat="49.45601" lon="1.03726">
        <ele>118.1</ele>
        <time>2021-05-23T10:07:34Z</time>
      </trkpt>
      <trkpt lat="49.456" lon="1.03724">
        <ele>118.2</ele>
        <time>2021-05-23T10:07:36Z</time>
      </trkpt>
      <trkpt lat="49.45599" lon="1.03723">
        <ele>118.3</ele>
        <time>2021-05-23T10:07:37Z</time>
      </trkpt>
      <trkpt lat="49.45599" lon="1.03723">
        <ele>118.4</ele>
        <time>2021-05-23T10:07:38Z</time>
      </trkpt>
      <trkpt lat="49.45599" lon="1.03722">
        <ele>118.5</ele>
        <time>2021-05-23T10:07:39Z</time>
      </trkpt>
      <trkpt lat="49.45598" lon="1.03722">
        <ele>118.7</ele>
        <time>2021-05-23T10:07:40Z</time>
      </trkpt>
      <trkpt lat="49.45598" lon="1.0372">
        <ele>118.9</ele>
        <time>2021-05-23T10:07:42Z</time>
      </trkpt>
      <trkpt lat="49.45597" lon="1.03719">
        <ele>119.1</ele>
        <time>2021-05-23T10:07:43Z</time>
      </trkpt>
      <trkpt lat="49.45595" lon="1.03716">
        <ele>119.4</ele>
        <time>2021-05-23T10:07:45Z</time>
      </trkpt>
      <trkpt lat="49.45594" lon="1.03715">
        <ele>119.6</ele>
        <time>2021-05-23T10:07:46Z</time>
      </trkpt>
      <trkpt lat="49.45591" lon="1.03712">
        <ele>119.9</ele>
        <time>2021-05-23T10:07:48Z</time>
      </trkpt>
      <trkpt lat="49.45589" lon="1.0371">
        <ele>120.2</ele>
        <time>2021-05-23T10:07:49Z</time>
      </trkpt>
      <trkpt lat="49.45588" lon="1.03709">
        <ele>120.5</ele>
        <time>2021-05-23T10:07:50Z</time>
      </trkpt>
      <trkpt lat="49.45585" lon="1.03706">
        <ele>120.9</ele>
        <time>2021-05-23T10:07:52Z</time>
      </trkpt>
      <trkpt lat="49.45585" lon="1.03705">
        <ele>121.3</ele>
        <time>2021-05-23T10:07:53Z</time>
      </trkpt>
      <trkpt lat="49.45581" lon="1.03702">
        <ele>121.6</ele>
        <time>2021-05-23T10:07:55Z</time>
      </trkpt>
      <trkpt lat="49.45578" lon="1.03698">
        <ele>122</ele>
        <time>2021-05-23T10:07:57Z</time>
      </trkpt>
      <trkpt lat="49.45577" lon="1.03697">
        <ele>122.5</ele>
        <time>2021-05-23T10:07:58Z</time>
      </trkpt>
      <trkpt lat="49.45576" lon="1.03696">
        <ele>122.9</ele>
        <time>2021-05-23T10:07:59Z</time>
      </trkpt>
      <trkpt lat="49.45575" lon="1.03694">
        <ele>123.3</ele>
        <time>2021-05-23T10:08:00Z</time>
      </trkpt>
      <trkpt lat="49.45573" lon="1.0369">
        <ele>123.6</ele>
        <time>2021-05-23T10:08:02Z</time>
      </trkpt>
      <trkpt lat="49.45571" lon="1.03686">
        <ele>124</ele>
        <time>2021-05-23T10:08:03Z</time>
      </trkpt>
      <trkpt lat="49.45568" lon="1.03682">
        <ele>124.4</ele>
        <time>2021-05-23T10:08:04Z</time>
      </trkpt>
      <trkpt lat="49.45566" lon="1.03677">
        <ele>124.6</ele>
        <time>2021-05-23T10:08:06Z</time>
      </trkpt>
      <trkpt lat="49.45565" lon="1.03676">
        <ele>124.9</ele>
        <time>2021-05-23T10:08:07Z</time>
      </trkpt>
      <trkpt lat="49.45563" lon="1.03674">
        <ele>125.2</ele>
        <time>2021-05-23T10:08:08Z</time>
      </trkpt>
      <trkpt lat="49.45562" lon="1.03672">
        <ele>125.4</ele>
        <time>2021-05-23T10:08:09Z</time>
      </trkpt>
      <trkpt lat="49.45561" lon="1.0367">
        <ele>125.6</ele>
        <time>2021-05-23T10:08:10Z</time>
      </trkpt>
      <trkpt lat="49.4556" lon="1.03668">
        <ele>125.8</ele>
        <time>2021-05-23T10:08:11Z</time>
      </trkpt>
      <trkpt lat="49.45558" lon="1.03666">
        <ele>126</ele>
        <time>2021-05-23T10:08:12Z</time>
      </trkpt>
      <trkpt lat="49.45556" lon="1.03664">
        <ele>126.3</ele>
        <time>2021-05-23T10:08:15Z</time>
      </trkpt>
      <trkpt lat="49.45554" lon="1.03662">
        <ele>126.5</ele>
        <time>2021-05-23T10:08:16Z</time>
      </trkpt>
      <trkpt lat="49.4555" lon="1.0366">
        <ele>126.8</ele>
        <time>2021-05-23T10:08:18Z</time>
      </trkpt>
      <trkpt lat="49.45547" lon="1.03657">
        <ele>127.1</ele>
        <time>2021-05-23T10:08:19Z</time>
      </trkpt>
      <trkpt lat="49.45544" lon="1.03656">
        <ele>127.4</ele>
        <time>2021-05-23T10:08:20Z</time>
      </trkpt>
      <trkpt lat="49.45541" lon="1.03654">
        <ele>127.6</ele>
        <time>2021-05-23T10:08:21Z</time>
      </trkpt>
      <trkpt lat="49.45538" lon="1.03653">
        <ele>127.9</ele>
        <time>2021-05-23T10:08:22Z</time>
      </trkpt>
      <trkpt lat="49.45531" lon="1.03652">
        <ele>128.2</ele>
        <time>2021-05-23T10:08:24Z</time>
      </trkpt>
      <trkpt lat="49.45527" lon="1.03651">
        <ele>128.4</ele>
        <time>2021-05-23T10:08:25Z</time>
      </trkpt>
      <trkpt lat="49.45524" lon="1.03651">
        <ele>128.5</ele>
        <time>2021-05-23T10:08:26Z</time>
      </trkpt>
      <trkpt lat="49.45523" lon="1.03652">
        <ele>128.7</ele>
        <time>2021-05-23T10:08:28Z</time>
      </trkpt>
      <trkpt lat="49.45522" lon="1.03653">
        <ele>128.8</ele>
        <time>2021-05-23T10:08:30Z</time>
      </trkpt>
      <trkpt lat="49.45522" lon="1.03654">
        <ele>128.9</ele>
        <time>2021-05-23T10:08:32Z</time>
      </trkpt>
      <trkpt lat="49.45522" lon="1.03654">
        <ele>129</ele>
        <time>2021-05-23T10:08:33Z</time>
      </trkpt>
      <trkpt lat="49.45522" lon="1.03654">
        <ele>128.9</ele>
        <time>2021-05-23T10:08:35Z</time>
      </trkpt>
      <trkpt lat="49.45522" lon="1.03655">
        <ele>128.8</ele>
        <time>2021-05-23T10:08:36Z</time>
      </trkpt>
      <trkpt lat="49.45522" lon="1.03655">
        <ele>128.7</ele>
        <time>2021-05-23T10:08:38Z</time>
      </trkpt>
      <trkpt lat="49.45522" lon="1.03656">
        <ele>128.7</ele>
        <time>2021-05-23T10:08:39Z</time>
      </trkpt>
      <trkpt lat="49.45522" lon="1.03658">
        <ele>128.7</ele>
        <time>2021-05-23T10:08:40Z</time>
      </trkpt>
      <trkpt lat="49.45522" lon="1.03661">
        <ele>128.7</ele>
        <time>2021-05-23T10:08:41Z</time>
      </trkpt>
      <trkpt lat="49.45519" lon="1.03663">
        <ele>128.7</ele>
        <time>2021-05-23T10:08:44Z</time>
      </trkpt>
      <trkpt lat="49.45519" lon="1.03664">
        <ele>128.7</ele>
        <time>2021-05-23T10:08:45Z</time>
      </trkpt>
      <trkpt lat="49.45515" lon="1.03665">
        <ele>128.7</ele>
        <time>2021-05-23T10:08:47Z</time>
      </trkpt>
      <trkpt lat="49.45514" lon="1.03665">
        <ele>128.7</ele>
        <time>2021-05-23T10:08:48Z</time>
      </trkpt>
      <trkpt lat="49.45511" lon="1.03662">
        <ele>128.7</ele>
        <time>2021-05-23T10:08:49Z</time>
      </trkpt>
      <trkpt lat="49.4551" lon="1.03663">
        <ele>128.8</ele>
        <time>2021-05-23T10:08:50Z</time>
      </trkpt>
      <trkpt lat="49.45508" lon="1.03664">
        <ele>128.9</ele>
        <time>2021-05-23T10:08:52Z</time>
      </trkpt>
      <trkpt lat="49.45505" lon="1.03666">
        <ele>129</ele>
        <time>2021-05-23T10:08:53Z</time>
      </trkpt>
      <trkpt lat="49.45503" lon="1.03668">
        <ele>129</ele>
        <time>2021-05-23T10:08:54Z</time>
      </trkpt>
      <trkpt lat="49.45502" lon="1.03669">
        <ele>129</ele>
        <time>2021-05-23T10:08:55Z</time>
      </trkpt>
      <trkpt lat="49.455" lon="1.0367">
        <ele>129</ele>
        <time>2021-05-23T10:08:56Z</time>
      </trkpt>
      <trkpt lat="49.45499" lon="1.03671">
        <ele>129</ele>
        <time>2021-05-23T10:08:57Z</time>
      </trkpt>
      <trkpt lat="49.45498" lon="1.03671">
        <ele>129</ele>
        <time>2021-05-23T10:08:59Z</time>
      </trkpt>
      <trkpt lat="49.45495" lon="1.03674">
        <ele>129</ele>
        <time>2021-05-23T10:09:01Z</time>
      </trkpt>
      <trkpt lat="49.45494" lon="1.03674">
        <ele>129</ele>
        <time>2021-05-23T10:09:03Z</time>
      </trkpt>
      <trkpt lat="49.4549" lon="1.03676">
        <ele>129</ele>
        <time>2021-05-23T10:09:05Z</time>
      </trkpt>
      <trkpt lat="49.45489" lon="1.03676">
        <ele>129</ele>
        <time>2021-05-23T10:09:06Z</time>
      </trkpt>
      <trkpt lat="49.45488" lon="1.03676">
        <ele>129</ele>
        <time>2021-05-23T10:09:07Z</time>
      </trkpt>
      <trkpt lat="49.45484" lon="1.03677">
        <ele>129</ele>
        <time>2021-05-23T10:09:09Z</time>
      </trkpt>
      <trkpt lat="49.45483" lon="1.03678">
        <ele>129.1</ele>
        <time>2021-05-23T10:09:10Z</time>
      </trkpt>
      <trkpt lat="49.45482" lon="1.03678">
        <ele>129.2</ele>
        <time>2021-05-23T10:09:11Z</time>
      </trkpt>
      <trkpt lat="49.4548" lon="1.03679">
        <ele>129.3</ele>
        <time>2021-05-23T10:09:12Z</time>
      </trkpt>
      <trkpt lat="49.45477" lon="1.03679">
        <ele>129.4</ele>
        <time>2021-05-23T10:09:14Z</time>
      </trkpt>
      <trkpt lat="49.45475" lon="1.03679">
        <ele>129.5</ele>
        <time>2021-05-23T10:09:15Z</time>
      </trkpt>
      <trkpt lat="49.45474" lon="1.03678">
        <ele>129.5</ele>
        <time>2021-05-23T10:09:16Z</time>
      </trkpt>
      <trkpt lat="49.45473" lon="1.03679">
        <ele>129.6</ele>
        <time>2021-05-23T10:09:18Z</time>
      </trkpt>
      <trkpt lat="49.45473" lon="1.0368">
        <ele>129.7</ele>
        <time>2021-05-23T10:09:19Z</time>
      </trkpt>
      <trkpt lat="49.4547" lon="1.03681">
        <ele>129.8</ele>
        <time>2021-05-23T10:09:21Z</time>
      </trkpt>
      <trkpt lat="49.45466" lon="1.0368">
        <ele>129.9</ele>
        <time>2021-05-23T10:09:22Z</time>
      </trkpt>
      <trkpt lat="49.45463" lon="1.0368">
        <ele>130</ele>
        <time>2021-05-23T10:09:24Z</time>
      </trkpt>
      <trkpt lat="49.4546" lon="1.03679">
        <ele>130</ele>
        <time>2021-05-23T10:09:26Z</time>
      </trkpt>
      <trkpt lat="49.45456" lon="1.03679">
        <ele>130</ele>
        <time>2021-05-23T10:09:28Z</time>
      </trkpt>
      <trkpt lat="49.45453" lon="1.03679">
        <ele>130</ele>
        <time>2021-05-23T10:09:52Z</time>
      </trkpt>
      <trkpt lat="49.4545" lon="1.03679">
        <ele>130</ele>
        <time>2021-05-23T10:09:54Z</time>
      </trkpt>
      <trkpt lat="49.45446" lon="1.0368">
        <ele>129.9</ele>
        <time>2021-05-23T10:09:55Z</time>
      </trkpt>
      <trkpt lat="49.45443" lon="1.03682">
        <ele>129.8</ele>
        <time>2021-05-23T10:09:56Z</time>
      </trkpt>
      <trkpt lat="49.45439" lon="1.03686">
        <ele>129.7</ele>
        <time>2021-05-23T10:09:58Z</time>
      </trkpt>
      <trkpt lat="49.45434" lon="1.0369">
        <ele>129.6</ele>
        <time>2021-05-23T10:10:00Z</time>
      </trkpt>
      <trkpt lat="49.45431" lon="1.03692">
        <ele>129.5</ele>
        <time>2021-05-23T10:10:01Z</time>
      </trkpt>
      <trkpt lat="49.45423" lon="1.037">
        <ele>129.4</ele>
        <time>2021-05-23T10:10:03Z</time>
      </trkpt>
      <trkpt lat="49.45419" lon="1.03703">
        <ele>129.2</ele>
        <time>2021-05-23T10:10:04Z</time>
      </trkpt>
      <trkpt lat="49.45411" lon="1.03708">
        <ele>129</ele>
        <time>2021-05-23T10:10:06Z</time>
      </trkpt>
      <trkpt lat="49.45405" lon="1.0371">
        <ele>128.8</ele>
        <time>2021-05-23T10:10:08Z</time>
      </trkpt>
      <trkpt lat="49.45403" lon="1.03711">
        <ele>128.5</ele>
        <time>2021-05-23T10:10:09Z</time>
      </trkpt>
      <trkpt lat="49.45399" lon="1.03714">
        <ele>128.3</ele>
        <time>2021-05-23T10:10:11Z</time>
      </trkpt>
      <trkpt lat="49.4539" lon="1.03719">
        <ele>128.1</ele>
        <time>2021-05-23T10:10:13Z</time>
      </trkpt>
      <trkpt lat="49.45381" lon="1.03723">
        <ele>127.8</ele>
        <time>2021-05-23T10:10:14Z</time>
      </trkpt>
      <trkpt lat="49.45369" lon="1.03727">
        <ele>127.5</ele>
        <time>2021-05-23T10:10:16Z</time>
      </trkpt>
      <trkpt lat="49.45366" lon="1.03729">
        <ele>127.2</ele>
        <time>2021-05-23T10:10:17Z</time>
      </trkpt>
      <trkpt lat="49.45363" lon="1.03735">
        <ele>126.8</ele>
        <time>2021-05-23T10:10:18Z</time>
      </trkpt>
      <trkpt lat="49.45361" lon="1.03743">
        <ele>126.5</ele>
        <time>2021-05-23T10:10:20Z</time>
      </trkpt>
      <trkpt lat="49.4536" lon="1.03749">
        <ele>126.1</ele>
        <time>2021-05-23T10:10:21Z</time>
      </trkpt>
      <trkpt lat="49.4536" lon="1.03763">
        <ele>125.6</ele>
        <time>2021-05-23T10:10:23Z</time>
      </trkpt>
      <trkpt lat="49.45359" lon="1.03775">
        <ele>125.1</ele>
        <time>2021-05-23T10:10:24Z</time>
      </trkpt>
      <trkpt lat="49.45357" lon="1.03789">
        <ele>124.6</ele>
        <time>2021-05-23T10:10:26Z</time>
      </trkpt>
      <trkpt lat="49.45356" lon="1.03807">
        <ele>124</ele>
        <time>2021-05-23T10:10:28Z</time>
      </trkpt>
      <trkpt lat="49.45354" lon="1.03829">
        <ele>123.2</ele>
        <time>2021-05-23T10:10:30Z</time>
      </trkpt>
      <trkpt lat="49.45352" lon="1.0384">
        <ele>122.4</ele>
        <time>2021-05-23T10:10:31Z</time>
      </trkpt>
      <trkpt lat="49.4535" lon="1.03853">
        <ele>121.5</ele>
        <time>2021-05-23T10:10:32Z</time>
      </trkpt>
      <trkpt lat="49.45347" lon="1.03865">
        <ele>120.8</ele>
        <time>2021-05-23T10:10:33Z</time>
      </trkpt>
      <trkpt lat="49.45342" lon="1.03891">
        <ele>120.2</ele>
        <time>2021-05-23T10:10:35Z</time>
      </trkpt>
      <trkpt lat="49.45333" lon="1.03917">
        <ele>119.6</ele>
        <time>2021-05-23T10:10:37Z</time>
      </trkpt>
      <trkpt lat="49.45321" lon="1.03943">
        <ele>119.1</ele>
        <time>2021-05-23T10:10:40Z</time>
      </trkpt>
      <trkpt lat="49.45314" lon="1.03956">
        <ele>118.6</ele>
        <time>2021-05-23T10:10:41Z</time>
      </trkpt>
      <trkpt lat="49.45298" lon="1.03979">
        <ele>118.3</ele>
        <time>2021-05-23T10:10:43Z</time>
      </trkpt>
      <trkpt lat="49.4528" lon="1.03999">
        <ele>117.9</ele>
        <time>2021-05-23T10:10:45Z</time>
      </trkpt>
      <trkpt lat="49.45263" lon="1.04015">
        <ele>117.7</ele>
        <time>2021-05-23T10:10:47Z</time>
      </trkpt>
      <trkpt lat="49.45256" lon="1.04023">
        <ele>117.7</ele>
        <time>2021-05-23T10:10:48Z</time>
      </trkpt>
      <trkpt lat="49.45244" lon="1.04038">
        <ele>117.8</ele>
        <time>2021-05-23T10:10:50Z</time>
      </trkpt>
      <trkpt lat="49.45238" lon="1.04044">
        <ele>117.9</ele>
        <time>2021-05-23T10:10:51Z</time>
      </trkpt>
      <trkpt lat="49.45224" lon="1.04046">
        <ele>117.9</ele>
        <time>2021-05-23T10:10:53Z</time>
      </trkpt>
      <trkpt lat="49.45217" lon="1.04048">
        <ele>117.8</ele>
        <time>2021-05-23T10:10:54Z</time>
      </trkpt>
      <trkpt lat="49.45204" lon="1.04052">
        <ele>117.6</ele>
        <time>2021-05-23T10:10:56Z</time>
      </trkpt>
      <trkpt lat="49.45198" lon="1.04055">
        <ele>117.5</ele>
        <time>2021-05-23T10:10:57Z</time>
      </trkpt>
      <trkpt lat="49.45186" lon="1.04058">
        <ele>117.2</ele>
        <time>2021-05-23T10:10:59Z</time>
      </trkpt>
      <trkpt lat="49.45174" lon="1.04058">
        <ele>116.8</ele>
        <time>2021-05-23T10:11:01Z</time>
      </trkpt>
      <trkpt lat="49.45168" lon="1.04058">
        <ele>116.5</ele>
        <time>2021-05-23T10:11:02Z</time>
      </trkpt>
      <trkpt lat="49.45157" lon="1.04057">
        <ele>116</ele>
        <time>2021-05-23T10:11:04Z</time>
      </trkpt>
      <trkpt lat="49.45146" lon="1.04055">
        <ele>115.5</ele>
        <time>2021-05-23T10:11:06Z</time>
      </trkpt>
      <trkpt lat="49.45134" lon="1.04051">
        <ele>115.1</ele>
        <time>2021-05-23T10:11:08Z</time>
      </trkpt>
      <trkpt lat="49.45128" lon="1.04049">
        <ele>114.6</ele>
        <time>2021-05-23T10:11:09Z</time>
      </trkpt>
      <trkpt lat="49.45117" lon="1.04044">
        <ele>114.3</ele>
        <time>2021-05-23T10:11:11Z</time>
      </trkpt>
      <trkpt lat="49.45105" lon="1.04038">
        <ele>113.9</ele>
        <time>2021-05-23T10:11:13Z</time>
      </trkpt>
      <trkpt lat="49.451" lon="1.04035">
        <ele>113.6</ele>
        <time>2021-05-23T10:11:14Z</time>
      </trkpt>
      <trkpt lat="49.45094" lon="1.04031">
        <ele>113.4</ele>
        <time>2021-05-23T10:11:15Z</time>
      </trkpt>
      <trkpt lat="49.45084" lon="1.04021">
        <ele>113.2</ele>
        <time>2021-05-23T10:11:17Z</time>
      </trkpt>
      <trkpt lat="49.4508" lon="1.04013">
        <ele>113</ele>
        <time>2021-05-23T10:11:18Z</time>
      </trkpt>
      <trkpt lat="49.45075" lon="1.04007">
        <ele>112.7</ele>
        <time>2021-05-23T10:11:19Z</time>
      </trkpt>
      <trkpt lat="49.45067" lon="1.03994">
        <ele>112.5</ele>
        <time>2021-05-23T10:11:21Z</time>
      </trkpt>
      <trkpt lat="49.45059" lon="1.03983">
        <ele>112.5</ele>
        <time>2021-05-23T10:11:23Z</time>
      </trkpt>
      <trkpt lat="49.45055" lon="1.03971">
        <ele>112.4</ele>
        <time>2021-05-23T10:11:25Z</time>
      </trkpt>
      <trkpt lat="49.4505" lon="1.03958">
        <ele>112.5</ele>
        <time>2021-05-23T10:11:28Z</time>
      </trkpt>
      <trkpt lat="49.45045" lon="1.03945">
        <ele>112.6</ele>
        <time>2021-05-23T10:11:30Z</time>
      </trkpt>
      <trkpt lat="49.4504" lon="1.03932">
        <ele>112.9</ele>
        <time>2021-05-23T10:11:32Z</time>
      </trkpt>
      <trkpt lat="49.45038" lon="1.03925">
        <ele>113.4</ele>
        <time>2021-05-23T10:11:33Z</time>
      </trkpt>
      <trkpt lat="49.45035" lon="1.03914">
        <ele>113.8</ele>
        <time>2021-05-23T10:11:35Z</time>
      </trkpt>
      <trkpt lat="49.45029" lon="1.03898">
        <ele>114.4</ele>
        <time>2021-05-23T10:11:37Z</time>
      </trkpt>
      <trkpt lat="49.45027" lon="1.03889">
        <ele>115.1</ele>
        <time>2021-05-23T10:11:38Z</time>
      </trkpt>
      <trkpt lat="49.45023" lon="1.03874">
        <ele>115.9</ele>
        <time>2021-05-23T10:11:40Z</time>
      </trkpt>
      <trkpt lat="49.45025" lon="1.03863">
        <ele>116.8</ele>
        <time>2021-05-23T10:11:42Z</time>
      </trkpt>
      <trkpt lat="49.45028" lon="1.03859">
        <ele>117.6</ele>
        <time>2021-05-23T10:11:43Z</time>
      </trkpt>
      <trkpt lat="49.45032" lon="1.03854">
        <ele>118.5</ele>
        <time>2021-05-23T10:11:45Z</time>
      </trkpt>
      <trkpt lat="49.45035" lon="1.03848">
        <ele>119.4</ele>
        <time>2021-05-23T10:11:47Z</time>
      </trkpt>
      <trkpt lat="49.45037" lon="1.03843">
        <ele>120.1</ele>
        <time>2021-05-23T10:11:48Z</time>
      </trkpt>
      <trkpt lat="49.45038" lon="1.03841">
        <ele>120.8</ele>
        <time>2021-05-23T10:11:49Z</time>
      </trkpt>
      <trkpt lat="49.45039" lon="1.03837">
        <ele>121.4</ele>
        <time>2021-05-23T10:11:50Z</time>
      </trkpt>
      <trkpt lat="49.45041" lon="1.03832">
        <ele>122</ele>
        <time>2021-05-23T10:11:52Z</time>
      </trkpt>
      <trkpt lat="49.45042" lon="1.03827">
        <ele>122.5</ele>
        <time>2021-05-23T10:11:53Z</time>
      </trkpt>
      <trkpt lat="49.45043" lon="1.03821">
        <ele>123.1</ele>
        <time>2021-05-23T10:11:54Z</time>
      </trkpt>
      <trkpt lat="49.45045" lon="1.03814">
        <ele>123.6</ele>
        <time>2021-05-23T10:11:56Z</time>
      </trkpt>
      <trkpt lat="49.45046" lon="1.03807">
        <ele>124.1</ele>
        <time>2021-05-23T10:11:57Z</time>
      </trkpt>
      <trkpt lat="49.45047" lon="1.03797">
        <ele>124.5</ele>
        <time>2021-05-23T10:11:59Z</time>
      </trkpt>
      <trkpt lat="49.45048" lon="1.03792">
        <ele>125</ele>
        <time>2021-05-23T10:12:00Z</time>
      </trkpt>
      <trkpt lat="49.4505" lon="1.03785">
        <ele>125.4</ele>
        <time>2021-05-23T10:12:02Z</time>
      </trkpt>
      <trkpt lat="49.4505" lon="1.0378">
        <ele>125.7</ele>
        <time>2021-05-23T10:12:03Z</time>
      </trkpt>
      <trkpt lat="49.45051" lon="1.03775">
        <ele>126</ele>
        <time>2021-05-23T10:12:04Z</time>
      </trkpt>
      <trkpt lat="49.45051" lon="1.03769">
        <ele>126.3</ele>
        <time>2021-05-23T10:12:05Z</time>
      </trkpt>
      <trkpt lat="49.45051" lon="1.03762">
        <ele>126.5</ele>
        <time>2021-05-23T10:12:07Z</time>
      </trkpt>
      <trkpt lat="49.45052" lon="1.03757">
        <ele>126.6</ele>
        <time>2021-05-23T10:12:08Z</time>
      </trkpt>
      <trkpt lat="49.45052" lon="1.03752">
        <ele>126.7</ele>
        <time>2021-05-23T10:12:09Z</time>
      </trkpt>
      <trkpt lat="49.45052" lon="1.03748">
        <ele>126.8</ele>
        <time>2021-05-23T10:12:11Z</time>
      </trkpt>
      <trkpt lat="49.45052" lon="1.03743">
        <ele>127</ele>
        <time>2021-05-23T10:12:12Z</time>
      </trkpt>
      <trkpt lat="49.45051" lon="1.03739">
        <ele>127.2</ele>
        <time>2021-05-23T10:12:13Z</time>
      </trkpt>
      <trkpt lat="49.45051" lon="1.03733">
        <ele>127.3</ele>
        <time>2021-05-23T10:12:14Z</time>
      </trkpt>
      <trkpt lat="49.45051" lon="1.0373">
        <ele>127.4</ele>
        <time>2021-05-23T10:12:16Z</time>
      </trkpt>
      <trkpt lat="49.45051" lon="1.03727">
        <ele>127.5</ele>
        <time>2021-05-23T10:12:18Z</time>
      </trkpt>
      <trkpt lat="49.45051" lon="1.03725">
        <ele>127.5</ele>
        <time>2021-05-23T10:12:19Z</time>
      </trkpt>
      <trkpt lat="49.45051" lon="1.03724">
        <ele>127.6</ele>
        <time>2021-05-23T10:12:20Z</time>
      </trkpt>
      <trkpt lat="49.45051" lon="1.03722">
        <ele>127.8</ele>
        <time>2021-05-23T10:12:22Z</time>
      </trkpt>
      <trkpt lat="49.45051" lon="1.03721">
        <ele>128</ele>
        <time>2021-05-23T10:12:23Z</time>
      </trkpt>
      <trkpt lat="49.4505" lon="1.03714">
        <ele>128.2</ele>
        <time>2021-05-23T10:12:24Z</time>
      </trkpt>
      <trkpt lat="49.45049" lon="1.03707">
        <ele>128.4</ele>
        <time>2021-05-23T10:12:26Z</time>
      </trkpt>
      <trkpt lat="49.45049" lon="1.03702">
        <ele>128.5</ele>
        <time>2021-05-23T10:12:27Z</time>
      </trkpt>
      <trkpt lat="49.45048" lon="1.03698">
        <ele>128.6</ele>
        <time>2021-05-23T10:12:28Z</time>
      </trkpt>
      <trkpt lat="49.45047" lon="1.03694">
        <ele>128.8</ele>
        <time>2021-05-23T10:12:29Z</time>
      </trkpt>
      <trkpt lat="49.45047" lon="1.03689">
        <ele>129</ele>
        <time>2021-05-23T10:12:31Z</time>
      </trkpt>
      <trkpt lat="49.45046" lon="1.03684">
        <ele>129.2</ele>
        <time>2021-05-23T10:12:32Z</time>
      </trkpt>
      <trkpt lat="49.45045" lon="1.0368">
        <ele>129.5</ele>
        <time>2021-05-23T10:12:33Z</time>
      </trkpt>
      <trkpt lat="49.45043" lon="1.03672">
        <ele>129.7</ele>
        <time>2021-05-23T10:12:35Z</time>
      </trkpt>
      <trkpt lat="49.45043" lon="1.03667">
        <ele>129.9</ele>
        <time>2021-05-23T10:12:36Z</time>
      </trkpt>
      <trkpt lat="49.45042" lon="1.03663">
        <ele>130.1</ele>
        <time>2021-05-23T10:12:37Z</time>
      </trkpt>
      <trkpt lat="49.45041" lon="1.03658">
        <ele>130.3</ele>
        <time>2021-05-23T10:12:39Z</time>
      </trkpt>
      <trkpt lat="49.4504" lon="1.03654">
        <ele>130.5</ele>
        <time>2021-05-23T10:12:40Z</time>
      </trkpt>
      <trkpt lat="49.45039" lon="1.03648">
        <ele>130.6</ele>
        <time>2021-05-23T10:12:41Z</time>
      </trkpt>
      <trkpt lat="49.45038" lon="1.03644">
        <ele>130.8</ele>
        <time>2021-05-23T10:12:43Z</time>
      </trkpt>
      <trkpt lat="49.45037" lon="1.0364">
        <ele>131</ele>
        <time>2021-05-23T10:12:44Z</time>
      </trkpt>
      <trkpt lat="49.45036" lon="1.03634">
        <ele>131.2</ele>
        <time>2021-05-23T10:12:45Z</time>
      </trkpt>
      <trkpt lat="49.45036" lon="1.03631">
        <ele>131.4</ele>
        <time>2021-05-23T10:12:46Z</time>
      </trkpt>
      <trkpt lat="49.45034" lon="1.03626">
        <ele>131.5</ele>
        <time>2021-05-23T10:12:48Z</time>
      </trkpt>
      <trkpt lat="49.45034" lon="1.03621">
        <ele>131.5</ele>
        <time>2021-05-23T10:12:49Z</time>
      </trkpt>
      <trkpt lat="49.45033" lon="1.03617">
        <ele>131.5</ele>
        <time>2021-05-23T10:12:50Z</time>
      </trkpt>
      <trkpt lat="49.45032" lon="1.0361">
        <ele>131.4</ele>
        <time>2021-05-23T10:12:52Z</time>
      </trkpt>
      <trkpt lat="49.4503" lon="1.03602">
        <ele>131.3</ele>
        <time>2021-05-23T10:12:53Z</time>
      </trkpt>
      <trkpt lat="49.45029" lon="1.03598">
        <ele>131.2</ele>
        <time>2021-05-23T10:12:54Z</time>
      </trkpt>
      <trkpt lat="49.45027" lon="1.03593">
        <ele>131.1</ele>
        <time>2021-05-23T10:12:56Z</time>
      </trkpt>
      <trkpt lat="49.45026" lon="1.03586">
        <ele>130.9</ele>
        <time>2021-05-23T10:12:57Z</time>
      </trkpt>
      <trkpt lat="49.45023" lon="1.03578">
        <ele>130.7</ele>
        <time>2021-05-23T10:12:59Z</time>
      </trkpt>
      <trkpt lat="49.4502" lon="1.03567">
        <ele>130.5</ele>
        <time>2021-05-23T10:13:01Z</time>
      </trkpt>
      <trkpt lat="49.45017" lon="1.03557">
        <ele>130.4</ele>
        <time>2021-05-23T10:13:02Z</time>
      </trkpt>
      <trkpt lat="49.45014" lon="1.03552">
        <ele>130.3</ele>
        <time>2021-05-23T10:13:03Z</time>
      </trkpt>
      <trkpt lat="49.45013" lon="1.03546">
        <ele>130.3</ele>
        <time>2021-05-23T10:13:05Z</time>
      </trkpt>
      <trkpt lat="49.4501" lon="1.03535">
        <ele>130.3</ele>
        <time>2021-05-23T10:13:07Z</time>
      </trkpt>
      <trkpt lat="49.45008" lon="1.03529">
        <ele>130.5</ele>
        <time>2021-05-23T10:13:08Z</time>
      </trkpt>
      <trkpt lat="49.45004" lon="1.03517">
        <ele>130.6</ele>
        <time>2021-05-23T10:13:10Z</time>
      </trkpt>
      <trkpt lat="49.45001" lon="1.03511">
        <ele>130.8</ele>
        <time>2021-05-23T10:13:11Z</time>
      </trkpt>
      <trkpt lat="49.44997" lon="1.03505">
        <ele>131</ele>
        <time>2021-05-23T10:13:13Z</time>
      </trkpt>
      <trkpt lat="49.44993" lon="1.03505">
        <ele>131.2</ele>
        <time>2021-05-23T10:13:14Z</time>
      </trkpt>
      <trkpt lat="49.44989" lon="1.03505">
        <ele>131.4</ele>
        <time>2021-05-23T10:13:15Z</time>
      </trkpt>
      <trkpt lat="49.44985" lon="1.03506">
        <ele>131.5</ele>
        <time>2021-05-23T10:13:16Z</time>
      </trkpt>
      <trkpt lat="49.44978" lon="1.03508">
        <ele>131.7</ele>
        <time>2021-05-23T10:13:18Z</time>
      </trkpt>
      <trkpt lat="49.44973" lon="1.03509">
        <ele>131.8</ele>
        <time>2021-05-23T10:13:19Z</time>
      </trkpt>
      <trkpt lat="49.44966" lon="1.0351">
        <ele>131.9</ele>
        <time>2021-05-23T10:13:21Z</time>
      </trkpt>
      <trkpt lat="49.4496" lon="1.03513">
        <ele>132</ele>
        <time>2021-05-23T10:13:22Z</time>
      </trkpt>
      <trkpt lat="49.44952" lon="1.03522">
        <ele>131.9</ele>
        <time>2021-05-23T10:13:23Z</time>
      </trkpt>
      <trkpt lat="49.44943" lon="1.03528">
        <ele>131.8</ele>
        <time>2021-05-23T10:13:25Z</time>
      </trkpt>
      <trkpt lat="49.44937" lon="1.03532">
        <ele>131.6</ele>
        <time>2021-05-23T10:13:27Z</time>
      </trkpt>
      <trkpt lat="49.44929" lon="1.03537">
        <ele>131.5</ele>
        <time>2021-05-23T10:13:28Z</time>
      </trkpt>
      <trkpt lat="49.44924" lon="1.03539">
        <ele>131.3</ele>
        <time>2021-05-23T10:13:29Z</time>
      </trkpt>
      <trkpt lat="49.44913" lon="1.03542">
        <ele>131</ele>
        <time>2021-05-23T10:13:31Z</time>
      </trkpt>
      <trkpt lat="49.44901" lon="1.03548">
        <ele>130.7</ele>
        <time>2021-05-23T10:13:33Z</time>
      </trkpt>
      <trkpt lat="49.44895" lon="1.03551">
        <ele>130.5</ele>
        <time>2021-05-23T10:13:34Z</time>
      </trkpt>
      <trkpt lat="49.44891" lon="1.03554">
        <ele>130.2</ele>
        <time>2021-05-23T10:13:35Z</time>
      </trkpt>
      <trkpt lat="49.44881" lon="1.03559">
        <ele>129.9</ele>
        <time>2021-05-23T10:13:37Z</time>
      </trkpt>
      <trkpt lat="49.44876" lon="1.03561">
        <ele>129.5</ele>
        <time>2021-05-23T10:13:38Z</time>
      </trkpt>
      <trkpt lat="49.44866" lon="1.03562">
        <ele>129.2</ele>
        <time>2021-05-23T10:13:40Z</time>
      </trkpt>
      <trkpt lat="49.44859" lon="1.03569">
        <ele>128.8</ele>
        <time>2021-05-23T10:13:42Z</time>
      </trkpt>
      <trkpt lat="49.44854" lon="1.03574">
        <ele>128.5</ele>
        <time>2021-05-23T10:13:43Z</time>
      </trkpt>
      <trkpt lat="49.4485" lon="1.0358">
        <ele>128.3</ele>
        <time>2021-05-23T10:13:44Z</time>
      </trkpt>
      <trkpt lat="49.44842" lon="1.0359">
        <ele>128.1</ele>
        <time>2021-05-23T10:13:46Z</time>
      </trkpt>
      <trkpt lat="49.44833" lon="1.03601">
        <ele>128</ele>
        <time>2021-05-23T10:13:48Z</time>
      </trkpt>
      <trkpt lat="49.44824" lon="1.03612">
        <ele>128</ele>
        <time>2021-05-23T10:13:50Z</time>
      </trkpt>
      <trkpt lat="49.44813" lon="1.03621">
        <ele>127.9</ele>
        <time>2021-05-23T10:13:52Z</time>
      </trkpt>
      <trkpt lat="49.44804" lon="1.03631">
        <ele>127.8</ele>
        <time>2021-05-23T10:13:55Z</time>
      </trkpt>
      <trkpt lat="49.44798" lon="1.03636">
        <ele>127.7</ele>
        <time>2021-05-23T10:13:56Z</time>
      </trkpt>
      <trkpt lat="49.44788" lon="1.03647">
        <ele>127.7</ele>
        <time>2021-05-23T10:13:58Z</time>
      </trkpt>
      <trkpt lat="49.44782" lon="1.03653">
        <ele>127.9</ele>
        <time>2021-05-23T10:13:59Z</time>
      </trkpt>
      <trkpt lat="49.44771" lon="1.03664">
        <ele>128.1</ele>
        <time>2021-05-23T10:14:01Z</time>
      </trkpt>
      <trkpt lat="49.44765" lon="1.0367">
        <ele>128.3</ele>
        <time>2021-05-23T10:14:02Z</time>
      </trkpt>
      <trkpt lat="49.4476" lon="1.03676">
        <ele>128.5</ele>
        <time>2021-05-23T10:14:03Z</time>
      </trkpt>
      <trkpt lat="49.44749" lon="1.03688">
        <ele>128.6</ele>
        <time>2021-05-23T10:14:05Z</time>
      </trkpt>
      <trkpt lat="49.44739" lon="1.03699">
        <ele>128.9</ele>
        <time>2021-05-23T10:14:07Z</time>
      </trkpt>
      <trkpt lat="49.44733" lon="1.03704">
        <ele>129.1</ele>
        <time>2021-05-23T10:14:08Z</time>
      </trkpt>
      <trkpt lat="49.44728" lon="1.0371">
        <ele>129.5</ele>
        <time>2021-05-23T10:14:09Z</time>
      </trkpt>
      <trkpt lat="49.44723" lon="1.03715">
        <ele>129.8</ele>
        <time>2021-05-23T10:14:10Z</time>
      </trkpt>
      <trkpt lat="49.44713" lon="1.03722">
        <ele>130.3</ele>
        <time>2021-05-23T10:14:12Z</time>
      </trkpt>
      <trkpt lat="49.44701" lon="1.03728">
        <ele>130.7</ele>
        <time>2021-05-23T10:14:14Z</time>
      </trkpt>
      <trkpt lat="49.44696" lon="1.03729">
        <ele>131</ele>
        <time>2021-05-23T10:14:15Z</time>
      </trkpt>
      <trkpt lat="49.44685" lon="1.03731">
        <ele>131.3</ele>
        <time>2021-05-23T10:14:17Z</time>
      </trkpt>
      <trkpt lat="49.44679" lon="1.0373">
        <ele>131.5</ele>
        <time>2021-05-23T10:14:18Z</time>
      </trkpt>
      <trkpt lat="49.44669" lon="1.03727">
        <ele>131.8</ele>
        <time>2021-05-23T10:14:20Z</time>
      </trkpt>
      <trkpt lat="49.44664" lon="1.03725">
        <ele>131.9</ele>
        <time>2021-05-23T10:14:21Z</time>
      </trkpt>
      <trkpt lat="49.44659" lon="1.03722">
        <ele>131.9</ele>
        <time>2021-05-23T10:14:22Z</time>
      </trkpt>
      <trkpt lat="49.4465" lon="1.03714">
        <ele>131.9</ele>
        <time>2021-05-23T10:14:24Z</time>
      </trkpt>
      <trkpt lat="49.44646" lon="1.0371">
        <ele>131.8</ele>
        <time>2021-05-23T10:14:25Z</time>
      </trkpt>
      <trkpt lat="49.44638" lon="1.03702">
        <ele>131.7</ele>
        <time>2021-05-23T10:14:27Z</time>
      </trkpt>
      <trkpt lat="49.44633" lon="1.03697">
        <ele>131.5</ele>
        <time>2021-05-23T10:14:28Z</time>
      </trkpt>
      <trkpt lat="49.44628" lon="1.0369">
        <ele>131.4</ele>
        <time>2021-05-23T10:14:30Z</time>
      </trkpt>
      <trkpt lat="49.44623" lon="1.03677">
        <ele>131.3</ele>
        <time>2021-05-23T10:14:32Z</time>
      </trkpt>
      <trkpt lat="49.4462" lon="1.0367">
        <ele>131.2</ele>
        <time>2021-05-23T10:14:33Z</time>
      </trkpt>
      <trkpt lat="49.44618" lon="1.03663">
        <ele>131.1</ele>
        <time>2021-05-23T10:14:34Z</time>
      </trkpt>
      <trkpt lat="49.44615" lon="1.03649">
        <ele>130.9</ele>
        <time>2021-05-23T10:14:36Z</time>
      </trkpt>
      <trkpt lat="49.44613" lon="1.03642">
        <ele>130.8</ele>
        <time>2021-05-23T10:14:37Z</time>
      </trkpt>
      <trkpt lat="49.44612" lon="1.03635">
        <ele>130.7</ele>
        <time>2021-05-23T10:14:38Z</time>
      </trkpt>
      <trkpt lat="49.4461" lon="1.03622">
        <ele>130.6</ele>
        <time>2021-05-23T10:14:40Z</time>
      </trkpt>
      <trkpt lat="49.44609" lon="1.03606">
        <ele>130.5</ele>
        <time>2021-05-23T10:14:43Z</time>
      </trkpt>
      <trkpt lat="49.44607" lon="1.03591">
        <ele>130.5</ele>
        <time>2021-05-23T10:14:45Z</time>
      </trkpt>
      <trkpt lat="49.44607" lon="1.03583">
        <ele>130.5</ele>
        <time>2021-05-23T10:14:46Z</time>
      </trkpt>
      <trkpt lat="49.44605" lon="1.03566">
        <ele>130.5</ele>
        <time>2021-05-23T10:14:48Z</time>
      </trkpt>
      <trkpt lat="49.44604" lon="1.03559">
        <ele>130.5</ele>
        <time>2021-05-23T10:14:49Z</time>
      </trkpt>
      <trkpt lat="49.44603" lon="1.03552">
        <ele>130.5</ele>
        <time>2021-05-23T10:14:50Z</time>
      </trkpt>
      <trkpt lat="49.44601" lon="1.03537">
        <ele>130.6</ele>
        <time>2021-05-23T10:14:52Z</time>
      </trkpt>
      <trkpt lat="49.446" lon="1.03522">
        <ele>130.8</ele>
        <time>2021-05-23T10:14:54Z</time>
      </trkpt>
      <trkpt lat="49.44599" lon="1.03507">
        <ele>131.1</ele>
        <time>2021-05-23T10:14:56Z</time>
      </trkpt>
      <trkpt lat="49.44597" lon="1.03491">
        <ele>131.4</ele>
        <time>2021-05-23T10:14:58Z</time>
      </trkpt>
      <trkpt lat="49.44596" lon="1.03475">
        <ele>131.6</ele>
        <time>2021-05-23T10:15:00Z</time>
      </trkpt>
      <trkpt lat="49.44594" lon="1.0346">
        <ele>132</ele>
        <time>2021-05-23T10:15:02Z</time>
      </trkpt>
      <trkpt lat="49.44594" lon="1.03452">
        <ele>132.5</ele>
        <time>2021-05-23T10:15:03Z</time>
      </trkpt>
      <trkpt lat="49.44593" lon="1.03437">
        <ele>132.8</ele>
        <time>2021-05-23T10:15:05Z</time>
      </trkpt>
      <trkpt lat="49.44593" lon="1.03429">
        <ele>133.2</ele>
        <time>2021-05-23T10:15:06Z</time>
      </trkpt>
      <trkpt lat="49.44592" lon="1.03414">
        <ele>133.5</ele>
        <time>2021-05-23T10:15:08Z</time>
      </trkpt>
      <trkpt lat="49.44592" lon="1.03406">
        <ele>133.9</ele>
        <time>2021-05-23T10:15:09Z</time>
      </trkpt>
      <trkpt lat="49.44592" lon="1.03387">
        <ele>134.3</ele>
        <time>2021-05-23T10:15:11Z</time>
      </trkpt>
      <trkpt lat="49.44591" lon="1.03378">
        <ele>134.7</ele>
        <time>2021-05-23T10:15:12Z</time>
      </trkpt>
      <trkpt lat="49.4459" lon="1.0336">
        <ele>135.1</ele>
        <time>2021-05-23T10:15:14Z</time>
      </trkpt>
      <trkpt lat="49.4459" lon="1.03353">
        <ele>135.5</ele>
        <time>2021-05-23T10:15:15Z</time>
      </trkpt>
      <trkpt lat="49.44589" lon="1.03346">
        <ele>135.7</ele>
        <time>2021-05-23T10:15:16Z</time>
      </trkpt>
      <trkpt lat="49.44587" lon="1.0333">
        <ele>135.8</ele>
        <time>2021-05-23T10:15:18Z</time>
      </trkpt>
      <trkpt lat="49.44587" lon="1.03313">
        <ele>135.7</ele>
        <time>2021-05-23T10:15:20Z</time>
      </trkpt>
      <trkpt lat="49.44586" lon="1.03296">
        <ele>135.6</ele>
        <time>2021-05-23T10:15:22Z</time>
      </trkpt>
      <trkpt lat="49.44586" lon="1.03279">
        <ele>135.4</ele>
        <time>2021-05-23T10:15:24Z</time>
      </trkpt>
      <trkpt lat="49.44586" lon="1.0327">
        <ele>135.1</ele>
        <time>2021-05-23T10:15:25Z</time>
      </trkpt>
      <trkpt lat="49.44586" lon="1.03257">
        <ele>134.6</ele>
        <time>2021-05-23T10:15:27Z</time>
      </trkpt>
      <trkpt lat="49.44586" lon="1.03241">
        <ele>134.2</ele>
        <time>2021-05-23T10:15:29Z</time>
      </trkpt>
      <trkpt lat="49.44586" lon="1.03233">
        <ele>133.6</ele>
        <time>2021-05-23T10:15:31Z</time>
      </trkpt>
      <trkpt lat="49.4458" lon="1.03216">
        <ele>133.1</ele>
        <time>2021-05-23T10:15:33Z</time>
      </trkpt>
      <trkpt lat="49.44577" lon="1.03207">
        <ele>132.5</ele>
        <time>2021-05-23T10:15:34Z</time>
      </trkpt>
      <trkpt lat="49.44569" lon="1.03193">
        <ele>132.1</ele>
        <time>2021-05-23T10:15:36Z</time>
      </trkpt>
      <trkpt lat="49.44559" lon="1.03183">
        <ele>131.7</ele>
        <time>2021-05-23T10:15:38Z</time>
      </trkpt>
      <trkpt lat="49.44554" lon="1.03179">
        <ele>131.5</ele>
        <time>2021-05-23T10:15:39Z</time>
      </trkpt>
      <trkpt lat="49.44548" lon="1.03176">
        <ele>131.1</ele>
        <time>2021-05-23T10:15:40Z</time>
      </trkpt>
      <trkpt lat="49.44537" lon="1.03171">
        <ele>130.9</ele>
        <time>2021-05-23T10:15:42Z</time>
      </trkpt>
      <trkpt lat="49.44532" lon="1.03169">
        <ele>130.7</ele>
        <time>2021-05-23T10:15:43Z</time>
      </trkpt>
      <trkpt lat="49.44526" lon="1.03165">
        <ele>130.5</ele>
        <time>2021-05-23T10:15:44Z</time>
      </trkpt>
      <trkpt lat="49.44516" lon="1.03157">
        <ele>130.4</ele>
        <time>2021-05-23T10:15:46Z</time>
      </trkpt>
      <trkpt lat="49.4451" lon="1.03154">
        <ele>130.2</ele>
        <time>2021-05-23T10:15:47Z</time>
      </trkpt>
      <trkpt lat="49.445" lon="1.03147">
        <ele>130</ele>
        <time>2021-05-23T10:15:49Z</time>
      </trkpt>
      <trkpt lat="49.4449" lon="1.03141">
        <ele>129.8</ele>
        <time>2021-05-23T10:15:51Z</time>
      </trkpt>
      <trkpt lat="49.44484" lon="1.03137">
        <ele>129.6</ele>
        <time>2021-05-23T10:15:52Z</time>
      </trkpt>
      <trkpt lat="49.44478" lon="1.03134">
        <ele>129.5</ele>
        <time>2021-05-23T10:15:53Z</time>
      </trkpt>
      <trkpt lat="49.44472" lon="1.03131">
        <ele>129.3</ele>
        <time>2021-05-23T10:15:54Z</time>
      </trkpt>
      <trkpt lat="49.4446" lon="1.03126">
        <ele>129.1</ele>
        <time>2021-05-23T10:15:56Z</time>
      </trkpt>
      <trkpt lat="49.44447" lon="1.03124">
        <ele>128.8</ele>
        <time>2021-05-23T10:15:58Z</time>
      </trkpt>
      <trkpt lat="49.44441" lon="1.03123">
        <ele>128.5</ele>
        <time>2021-05-23T10:15:59Z</time>
      </trkpt>
      <trkpt lat="49.44428" lon="1.03121">
        <ele>128.3</ele>
        <time>2021-05-23T10:16:01Z</time>
      </trkpt>
      <trkpt lat="49.44422" lon="1.03121">
        <ele>127.9</ele>
        <time>2021-05-23T10:16:02Z</time>
      </trkpt>
      <trkpt lat="49.44408" lon="1.03119">
        <ele>127.5</ele>
        <time>2021-05-23T10:16:04Z</time>
      </trkpt>
      <trkpt lat="49.44395" lon="1.03115">
        <ele>127.1</ele>
        <time>2021-05-23T10:16:06Z</time>
      </trkpt>
      <trkpt lat="49.44389" lon="1.03115">
        <ele>126.5</ele>
        <time>2021-05-23T10:16:07Z</time>
      </trkpt>
      <trkpt lat="49.44381" lon="1.03114">
        <ele>126</ele>
        <time>2021-05-23T10:16:08Z</time>
      </trkpt>
      <trkpt lat="49.44368" lon="1.03112">
        <ele>125.4</ele>
        <time>2021-05-23T10:16:10Z</time>
      </trkpt>
      <trkpt lat="49.44361" lon="1.03111">
        <ele>124.7</ele>
        <time>2021-05-23T10:16:11Z</time>
      </trkpt>
      <trkpt lat="49.44347" lon="1.03107">
        <ele>124.2</ele>
        <time>2021-05-23T10:16:13Z</time>
      </trkpt>
      <trkpt lat="49.44335" lon="1.03103">
        <ele>123.6</ele>
        <time>2021-05-23T10:16:15Z</time>
      </trkpt>
      <trkpt lat="49.4433" lon="1.03099">
        <ele>123.1</ele>
        <time>2021-05-23T10:16:16Z</time>
      </trkpt>
      <trkpt lat="49.44319" lon="1.0309">
        <ele>122.6</ele>
        <time>2021-05-23T10:16:18Z</time>
      </trkpt>
      <trkpt lat="49.44314" lon="1.03085">
        <ele>122.3</ele>
        <time>2021-05-23T10:16:20Z</time>
      </trkpt>
      <trkpt lat="49.44308" lon="1.03078">
        <ele>121.9</ele>
        <time>2021-05-23T10:16:21Z</time>
      </trkpt>
      <trkpt lat="49.44298" lon="1.03065">
        <ele>121.5</ele>
        <time>2021-05-23T10:16:23Z</time>
      </trkpt>
      <trkpt lat="49.44295" lon="1.03057">
        <ele>121.3</ele>
        <time>2021-05-23T10:16:24Z</time>
      </trkpt>
      <trkpt lat="49.4429" lon="1.03049">
        <ele>121</ele>
        <time>2021-05-23T10:16:25Z</time>
      </trkpt>
      <trkpt lat="49.44283" lon="1.03032">
        <ele>120.9</ele>
        <time>2021-05-23T10:16:27Z</time>
      </trkpt>
      <trkpt lat="49.44281" lon="1.03022">
        <ele>120.8</ele>
        <time>2021-05-23T10:16:28Z</time>
      </trkpt>
      <trkpt lat="49.44278" lon="1.03001">
        <ele>120.8</ele>
        <time>2021-05-23T10:16:30Z</time>
      </trkpt>
      <trkpt lat="49.44278" lon="1.0299">
        <ele>120.9</ele>
        <time>2021-05-23T10:16:31Z</time>
      </trkpt>
      <trkpt lat="49.44283" lon="1.02972">
        <ele>121</ele>
        <time>2021-05-23T10:16:33Z</time>
      </trkpt>
      <trkpt lat="49.44289" lon="1.02958">
        <ele>121.2</ele>
        <time>2021-05-23T10:16:35Z</time>
      </trkpt>
      <trkpt lat="49.44292" lon="1.0295">
        <ele>121.4</ele>
        <time>2021-05-23T10:16:36Z</time>
      </trkpt>
      <trkpt lat="49.44296" lon="1.02934">
        <ele>121.5</ele>
        <time>2021-05-23T10:16:38Z</time>
      </trkpt>
      <trkpt lat="49.44297" lon="1.02926">
        <ele>121.8</ele>
        <time>2021-05-23T10:16:39Z</time>
      </trkpt>
      <trkpt lat="49.44298" lon="1.02918">
        <ele>122.1</ele>
        <time>2021-05-23T10:16:40Z</time>
      </trkpt>
      <trkpt lat="49.44299" lon="1.02902">
        <ele>122.4</ele>
        <time>2021-05-23T10:16:42Z</time>
      </trkpt>
      <trkpt lat="49.443" lon="1.02897">
        <ele>122.5</ele>
        <time>2021-05-23T10:16:43Z</time>
      </trkpt>
      <trkpt lat="49.44301" lon="1.02885">
        <ele>122.7</ele>
        <time>2021-05-23T10:16:45Z</time>
      </trkpt>
      <trkpt lat="49.44302" lon="1.0288">
        <ele>122.8</ele>
        <time>2021-05-23T10:16:46Z</time>
      </trkpt>
      <trkpt lat="49.44301" lon="1.02877">
        <ele>122.9</ele>
        <time>2021-05-23T10:16:48Z</time>
      </trkpt>
      <trkpt lat="49.44301" lon="1.02877">
        <ele>123</ele>
        <time>2021-05-23T10:16:49Z</time>
      </trkpt>
      <trkpt lat="49.443" lon="1.02876">
        <ele>123</ele>
        <time>2021-05-23T10:16:50Z</time>
      </trkpt>
      <trkpt lat="49.443" lon="1.02876">
        <ele>123</ele>
        <time>2021-05-23T10:16:52Z</time>
      </trkpt>
      <trkpt lat="49.443" lon="1.02875">
        <ele>123</ele>
        <time>2021-05-23T10:16:54Z</time>
      </trkpt>
      <trkpt lat="49.44299" lon="1.02875">
        <ele>123</ele>
        <time>2021-05-23T10:16:55Z</time>
      </trkpt>
      <trkpt lat="49.44299" lon="1.02874">
        <ele>122.9</ele>
        <time>2021-05-23T10:16:56Z</time>
      </trkpt>
      <trkpt lat="49.44295" lon="1.02869">
        <ele>122.7</ele>
        <time>2021-05-23T10:16:58Z</time>
      </trkpt>
      <trkpt lat="49.44289" lon="1.02854">
        <ele>122.5</ele>
        <time>2021-05-23T10:16:59Z</time>
      </trkpt>
      <trkpt lat="49.44284" lon="1.02849">
        <ele>122.2</ele>
        <time>2021-05-23T10:17:00Z</time>
      </trkpt>
      <trkpt lat="49.44277" lon="1.02844">
        <ele>121.9</ele>
        <time>2021-05-23T10:17:01Z</time>
      </trkpt>
      <trkpt lat="49.44266" lon="1.02833">
        <ele>121.6</ele>
        <time>2021-05-23T10:17:03Z</time>
      </trkpt>
      <trkpt lat="49.44253" lon="1.02827">
        <ele>121.4</ele>
        <time>2021-05-23T10:17:05Z</time>
      </trkpt>
      <trkpt lat="49.44248" lon="1.02824">
        <ele>121.1</ele>
        <time>2021-05-23T10:17:06Z</time>
      </trkpt>
      <trkpt lat="49.44242" lon="1.02821">
        <ele>120.8</ele>
        <time>2021-05-23T10:17:08Z</time>
      </trkpt>
      <trkpt lat="49.44229" lon="1.02813">
        <ele>120.5</ele>
        <time>2021-05-23T10:17:10Z</time>
      </trkpt>
      <trkpt lat="49.44217" lon="1.02802">
        <ele>120.2</ele>
        <time>2021-05-23T10:17:12Z</time>
      </trkpt>
      <trkpt lat="49.44211" lon="1.02796">
        <ele>119.9</ele>
        <time>2021-05-23T10:17:13Z</time>
      </trkpt>
      <trkpt lat="49.44201" lon="1.02784">
        <ele>119.7</ele>
        <time>2021-05-23T10:17:15Z</time>
      </trkpt>
      <trkpt lat="49.44195" lon="1.02778">
        <ele>119.6</ele>
        <time>2021-05-23T10:17:16Z</time>
      </trkpt>
      <trkpt lat="49.44189" lon="1.02771">
        <ele>119.5</ele>
        <time>2021-05-23T10:17:17Z</time>
      </trkpt>
      <trkpt lat="49.44183" lon="1.02766">
        <ele>119.5</ele>
        <time>2021-05-23T10:17:18Z</time>
      </trkpt>
      <trkpt lat="49.44171" lon="1.02754">
        <ele>119.3</ele>
        <time>2021-05-23T10:17:20Z</time>
      </trkpt>
      <trkpt lat="49.44164" lon="1.0275">
        <ele>119</ele>
        <time>2021-05-23T10:17:21Z</time>
      </trkpt>
      <trkpt lat="49.44157" lon="1.02748">
        <ele>118.7</ele>
        <time>2021-05-23T10:17:22Z</time>
      </trkpt>
      <trkpt lat="49.44144" lon="1.02746">
        <ele>118.4</ele>
        <time>2021-05-23T10:17:24Z</time>
      </trkpt>
      <trkpt lat="49.4413" lon="1.02747">
        <ele>117.9</ele>
        <time>2021-05-23T10:17:26Z</time>
      </trkpt>
      <trkpt lat="49.44117" lon="1.02753">
        <ele>117.6</ele>
        <time>2021-05-23T10:17:28Z</time>
      </trkpt>
      <trkpt lat="49.4411" lon="1.02757">
        <ele>117.4</ele>
        <time>2021-05-23T10:17:29Z</time>
      </trkpt>
      <trkpt lat="49.44104" lon="1.02762">
        <ele>117.1</ele>
        <time>2021-05-23T10:17:30Z</time>
      </trkpt>
      <trkpt lat="49.44098" lon="1.02766">
        <ele>116.8</ele>
        <time>2021-05-23T10:17:31Z</time>
      </trkpt>
      <trkpt lat="49.44085" lon="1.02776">
        <ele>116.6</ele>
        <time>2021-05-23T10:17:33Z</time>
      </trkpt>
      <trkpt lat="49.44072" lon="1.02784">
        <ele>116.5</ele>
        <time>2021-05-23T10:17:35Z</time>
      </trkpt>
      <trkpt lat="49.44065" lon="1.02788">
        <ele>116.4</ele>
        <time>2021-05-23T10:17:36Z</time>
      </trkpt>
      <trkpt lat="49.44058" lon="1.02793">
        <ele>116.3</ele>
        <time>2021-05-23T10:17:37Z</time>
      </trkpt>
      <trkpt lat="49.44052" lon="1.02796">
        <ele>116.2</ele>
        <time>2021-05-23T10:17:38Z</time>
      </trkpt>
      <trkpt lat="49.44037" lon="1.02792">
        <ele>116.2</ele>
        <time>2021-05-23T10:17:40Z</time>
      </trkpt>
      <trkpt lat="49.4403" lon="1.02787">
        <ele>116.1</ele>
        <time>2021-05-23T10:17:41Z</time>
      </trkpt>
      <trkpt lat="49.44016" lon="1.02777">
        <ele>115</ele>
        <time>2021-05-23T10:17:43Z</time>
      </trkpt>
      <trkpt lat="49.44003" lon="1.02776">
        <ele>112.9</ele>
        <time>2021-05-23T10:17:45Z</time>
      </trkpt>
      <trkpt lat="49.43999" lon="1.02784">
        <ele>110.7</ele>
        <time>2021-05-23T10:17:46Z</time>
      </trkpt>
      <trkpt lat="49.43993" lon="1.02803">
        <ele>108.5</ele>
        <time>2021-05-23T10:17:48Z</time>
      </trkpt>
      <trkpt lat="49.43989" lon="1.0282">
        <ele>105.9</ele>
        <time>2021-05-23T10:17:50Z</time>
      </trkpt>
      <trkpt lat="49.44125" lon="1.02998">
        <ele>103.5</ele>
        <time>2021-05-23T10:18:53Z</time>
      </trkpt>
      <trkpt lat="49.44115" lon="1.03027">
        <ele>101.4</ele>
        <time>2021-05-23T10:19:00Z</time>
      </trkpt>
      <trkpt lat="49.44115" lon="1.03029">
        <ele>99.5</ele>
        <time>2021-05-23T10:19:01Z</time>
      </trkpt>
      <trkpt lat="49.44109" lon="1.03028">
        <ele>97.7</ele>
        <time>2021-05-23T10:19:03Z</time>
      </trkpt>
      <trkpt lat="49.4408" lon="1.03011">
        <ele>96</ele>
        <time>2021-05-23T10:19:13Z</time>
      </trkpt>
      <trkpt lat="49.44058" lon="1.02991">
        <ele>94.4</ele>
        <time>2021-05-23T10:19:23Z</time>
      </trkpt>
      <trkpt lat="49.44043" lon="1.02978">
        <ele>93.3</ele>
        <time>2021-05-23T10:19:29Z</time>
      </trkpt>
      <trkpt lat="49.44028" lon="1.02965">
        <ele>93</ele>
        <time>2021-05-23T10:19:35Z</time>
      </trkpt>
      <trkpt lat="49.44019" lon="1.0296">
        <ele>92.5</ele>
        <time>2021-05-23T10:19:38Z</time>
      </trkpt>
      <trkpt lat="49.4401" lon="1.02962">
        <ele>92</ele>
        <time>2021-05-23T10:19:41Z</time>
      </trkpt>
      <trkpt lat="49.44005" lon="1.02973">
        <ele>91.3</ele>
        <time>2021-05-23T10:19:44Z</time>
      </trkpt>
      <trkpt lat="49.44005" lon="1.02986">
        <ele>90.2</ele>
        <time>2021-05-23T10:19:47Z</time>
      </trkpt>
      <trkpt lat="49.44011" lon="1.02995">
        <ele>88.9</ele>
        <time>2021-05-23T10:19:50Z</time>
      </trkpt>
      <trkpt lat="49.44033" lon="1.03005">
        <ele>87.5</ele>
        <time>2021-05-23T10:19:58Z</time>
      </trkpt>
      <trkpt lat="49.44056" lon="1.03028">
        <ele>86.1</ele>
        <time>2021-05-23T10:20:07Z</time>
      </trkpt>
      <trkpt lat="49.44071" lon="1.03055">
        <ele>84.7</ele>
        <time>2021-05-23T10:20:15Z</time>
      </trkpt>
      <trkpt lat="49.44065" lon="1.03066">
        <ele>83.5</ele>
        <time>2021-05-23T10:20:19Z</time>
      </trkpt>
      <trkpt lat="49.44061" lon="1.03066">
        <ele>82.5</ele>
        <time>2021-05-23T10:20:20Z</time>
      </trkpt>
      <trkpt lat="49.44057" lon="1.03057">
        <ele>81.4</ele>
        <time>2021-05-23T10:20:23Z</time>
      </trkpt>
      <trkpt lat="49.44054" lon="1.03048">
        <ele>80.2</ele>
        <time>2021-05-23T10:20:25Z</time>
      </trkpt>
      <trkpt lat="49.44053" lon="1.03043">
        <ele>78.5</ele>
        <time>2021-05-23T10:20:26Z</time>
      </trkpt>
      <trkpt lat="49.4405" lon="1.03042">
        <ele>76.6</ele>
        <time>2021-05-23T10:20:27Z</time>
      </trkpt>
      <trkpt lat="49.44048" lon="1.03045">
        <ele>74.8</ele>
        <time>2021-05-23T10:20:28Z</time>
      </trkpt>
      <trkpt lat="49.44049" lon="1.03072">
        <ele>72.9</ele>
        <time>2021-05-23T10:20:34Z</time>
      </trkpt>
      <trkpt lat="49.44051" lon="1.03095">
        <ele>70.6</ele>
        <time>2021-05-23T10:20:40Z</time>
      </trkpt>
      <trkpt lat="49.44054" lon="1.03129">
        <ele>68.4</ele>
        <time>2021-05-23T10:20:47Z</time>
      </trkpt>
      <trkpt lat="49.44057" lon="1.03157">
        <ele>66</ele>
        <time>2021-05-23T10:20:54Z</time>
      </trkpt>
      <trkpt lat="49.44044" lon="1.03171">
        <ele>63.6</ele>
        <time>2021-05-23T10:20:59Z</time>
      </trkpt>
      <trkpt lat="49.44033" lon="1.0318">
        <ele>61</ele>
        <time>2021-05-23T10:21:04Z</time>
      </trkpt>
      <trkpt lat="49.44011" lon="1.03234">
        <ele>58.7</ele>
        <time>2021-05-23T10:21:18Z</time>
      </trkpt>
      <trkpt lat="49.4401" lon="1.03236">
        <ele>56.6</ele>
        <time>2021-05-23T10:21:19Z</time>
      </trkpt>
      <trkpt lat="49.4399" lon="1.0327">
        <ele>54.7</ele>
        <time>2021-05-23T10:21:29Z</time>
      </trkpt>
      <trkpt lat="49.43967" lon="1.03313">
        <ele>53.2</ele>
        <time>2021-05-23T10:21:42Z</time>
      </trkpt>
      <trkpt lat="49.43942" lon="1.03351">
        <ele>51.8</ele>
        <time>2021-05-23T10:21:54Z</time>
      </trkpt>
      <trkpt lat="49.43899" lon="1.03339">
        <ele>50.5</ele>
        <time>2021-05-23T10:22:09Z</time>
      </trkpt>
      <trkpt lat="49.43872" lon="1.03324">
        <ele>47.7</ele>
        <time>2021-05-23T10:22:19Z</time>
      </trkpt>
      <trkpt lat="49.43791" lon="1.03203">
        <ele>44.2</ele>
        <time>2021-05-23T10:22:59Z</time>
      </trkpt>
      <trkpt lat="49.4379" lon="1.03205">
        <ele>40.5</ele>
        <time>2021-05-23T10:22:59Z</time>
      </trkpt>
      <trkpt lat="49.43791" lon="1.03206">
        <ele>36.8</ele>
        <time>2021-05-23T10:23:00Z</time>
      </trkpt>
      <trkpt lat="49.4379" lon="1.03205">
        <ele>33.3</ele>
        <time>2021-05-23T10:23:00Z</time>
      </trkpt>
      <trkpt lat="49.43752" lon="1.03296">
        <ele>29.5</ele>
        <time>2021-05-23T10:23:25Z</time>
      </trkpt>
      <trkpt lat="49.43738" lon="1.03337">
        <ele>25.7</ele>
        <time>2021-05-23T10:23:35Z</time>
      </trkpt>
      <trkpt lat="49.4373" lon="1.03349">
        <ele>22.3</ele>
        <time>2021-05-23T10:23:39Z</time>
      </trkpt>
      <trkpt lat="49.43723" lon="1.03359">
        <ele>18.9</ele>
        <time>2021-05-23T10:23:42Z</time>
      </trkpt>
      <trkpt lat="49.43712" lon="1.03381">
        <ele>15.4</ele>
        <time>2021-05-23T10:23:49Z</time>
      </trkpt>
      <trkpt lat="49.4369" lon="1.0342">
        <ele>11.8</ele>
        <time>2021-05-23T10:24:00Z</time>
      </trkpt>
      <trkpt lat="49.43686" lon="1.03426">
        <ele>10.3</ele>
        <time>2021-05-23T10:24:02Z</time>
      </trkpt>
      <trkpt lat="49.4372" lon="1.03474">
        <ele>9.3</ele>
        <time>2021-05-23T10:24:18Z</time>
      </trkpt>
      <trkpt lat="49.43728" lon="1.03485">
        <ele>8.2</ele>
        <time>2021-05-23T10:24:22Z</time>
      </trkpt>
      <trkpt lat="49.43761" lon="1.03547">
        <ele>7.3</ele>
        <time>2021-05-23T10:24:40Z</time>
      </trkpt>
      <trkpt lat="49.43769" lon="1.03562">
        <ele>6.5</ele>
        <time>2021-05-23T10:24:45Z</time>
      </trkpt>
      <trkpt lat="49.43795" lon="1.03615">
        <ele>6</ele>
        <time>2021-05-23T10:25:00Z</time>
      </trkpt>
      <trkpt lat="49.43807" lon="1.03649">
        <ele>5.5</ele>
        <time>2021-05-23T10:25:09Z</time>
      </trkpt>
      <trkpt lat="49.43838" lon="1.03745">
        <ele>5.4</ele>
        <time>2021-05-23T10:25:33Z</time>
      </trkpt>
      <trkpt lat="49.43878" lon="1.03858">
        <ele>5.2</ele>
        <time>2021-05-23T10:26:02Z</time>
      </trkpt>
      <trkpt lat="49.43913" lon="1.03957">
        <ele>5.2</ele>
        <time>2021-05-23T10:26:28Z</time>
      </trkpt>
      <trkpt lat="49.43914" lon="1.03957">
        <ele>5.2</ele>
        <time>2021-05-23T10:26:28Z</time>
      </trkpt>
      <trkpt lat="49.43918" lon="1.03973">
        <ele>5</ele>
        <time>2021-05-23T10:26:29Z</time>
      </trkpt>
      <trkpt lat="49.43922" lon="1.0399">
        <ele>4.8</ele>
        <time>2021-05-23T10:26:30Z</time>
      </trkpt>
      <trkpt lat="49.43926" lon="1.04006">
        <ele>4.8</ele>
        <time>2021-05-23T10:26:32Z</time>
      </trkpt>
      <trkpt lat="49.43936" lon="1.04026">
        <ele>4.6</ele>
        <time>2021-05-23T10:26:34Z</time>
      </trkpt>
      <trkpt lat="49.43943" lon="1.04047">
        <ele>4.5</ele>
        <time>2021-05-23T10:26:37Z</time>
      </trkpt>
      <trkpt lat="49.43951" lon="1.04067">
        <ele>4.5</ele>
        <time>2021-05-23T10:26:38Z</time>
      </trkpt>
      <trkpt lat="49.43954" lon="1.04077">
        <ele>4.3</ele>
        <time>2021-05-23T10:26:39Z</time>
      </trkpt>
      <trkpt lat="49.43962" lon="1.04098">
        <ele>4.1</ele>
        <time>2021-05-23T10:26:41Z</time>
      </trkpt>
      <trkpt lat="49.43966" lon="1.04108">
        <ele>4</ele>
        <time>2021-05-23T10:26:42Z</time>
      </trkpt>
      <trkpt lat="49.43974" lon="1.04128">
        <ele>4</ele>
        <time>2021-05-23T10:26:44Z</time>
      </trkpt>
      <trkpt lat="49.43983" lon="1.04147">
        <ele>4</ele>
        <time>2021-05-23T10:26:46Z</time>
      </trkpt>
      <trkpt lat="49.43987" lon="1.04156">
        <ele>4.2</ele>
        <time>2021-05-23T10:26:47Z</time>
      </trkpt>
      <trkpt lat="49.43991" lon="1.04165">
        <ele>4.5</ele>
        <time>2021-05-23T10:26:48Z</time>
      </trkpt>
      <trkpt lat="49.44001" lon="1.04183">
        <ele>4.8</ele>
        <time>2021-05-23T10:26:50Z</time>
      </trkpt>
      <trkpt lat="49.44011" lon="1.04201">
        <ele>5.4</ele>
        <time>2021-05-23T10:26:53Z</time>
      </trkpt>
      <trkpt lat="49.44016" lon="1.0421">
        <ele>5.9</ele>
        <time>2021-05-23T10:26:54Z</time>
      </trkpt>
      <trkpt lat="49.44025" lon="1.04227">
        <ele>6.5</ele>
        <time>2021-05-23T10:26:56Z</time>
      </trkpt>
      <trkpt lat="49.44034" lon="1.04243">
        <ele>7.1</ele>
        <time>2021-05-23T10:26:58Z</time>
      </trkpt>
      <trkpt lat="49.44044" lon="1.04261">
        <ele>7.7</ele>
        <time>2021-05-23T10:27:00Z</time>
      </trkpt>
      <trkpt lat="49.44049" lon="1.04269">
        <ele>8.2</ele>
        <time>2021-05-23T10:27:01Z</time>
      </trkpt>
      <trkpt lat="49.44054" lon="1.04277">
        <ele>8.6</ele>
        <time>2021-05-23T10:27:02Z</time>
      </trkpt>
      <trkpt lat="49.4406" lon="1.04284">
        <ele>9.1</ele>
        <time>2021-05-23T10:27:03Z</time>
      </trkpt>
      <trkpt lat="49.44072" lon="1.04299">
        <ele>9.4</ele>
        <time>2021-05-23T10:27:05Z</time>
      </trkpt>
      <trkpt lat="49.44084" lon="1.04313">
        <ele>9.6</ele>
        <time>2021-05-23T10:27:07Z</time>
      </trkpt>
      <trkpt lat="49.4409" lon="1.0432">
        <ele>9.9</ele>
        <time>2021-05-23T10:27:08Z</time>
      </trkpt>
      <trkpt lat="49.44103" lon="1.04335">
        <ele>10.1</ele>
        <time>2021-05-23T10:27:10Z</time>
      </trkpt>
      <trkpt lat="49.44109" lon="1.04341">
        <ele>10.2</ele>
        <time>2021-05-23T10:27:11Z</time>
      </trkpt>
      <trkpt lat="49.44121" lon="1.04353">
        <ele>10.3</ele>
        <time>2021-05-23T10:27:13Z</time>
      </trkpt>
      <trkpt lat="49.44134" lon="1.04364">
        <ele>10.4</ele>
        <time>2021-05-23T10:27:15Z</time>
      </trkpt>
      <trkpt lat="49.44147" lon="1.04374">
        <ele>10.5</ele>
        <time>2021-05-23T10:27:17Z</time>
      </trkpt>
      <trkpt lat="49.44159" lon="1.04386">
        <ele>10.6</ele>
        <time>2021-05-23T10:27:19Z</time>
      </trkpt>
      <trkpt lat="49.4417" lon="1.04396">
        <ele>10.7</ele>
        <time>2021-05-23T10:27:21Z</time>
      </trkpt>
      <trkpt lat="49.44176" lon="1.04401">
        <ele>10.8</ele>
        <time>2021-05-23T10:27:22Z</time>
      </trkpt>
      <trkpt lat="49.44188" lon="1.04412">
        <ele>10.9</ele>
        <time>2021-05-23T10:27:24Z</time>
      </trkpt>
      <trkpt lat="49.44199" lon="1.04423">
        <ele>11.1</ele>
        <time>2021-05-23T10:27:26Z</time>
      </trkpt>
      <trkpt lat="49.44205" lon="1.04428">
        <ele>11.2</ele>
        <time>2021-05-23T10:27:27Z</time>
      </trkpt>
      <trkpt lat="49.44211" lon="1.04435">
        <ele>11.2</ele>
        <time>2021-05-23T10:27:28Z</time>
      </trkpt>
      <trkpt lat="49.44217" lon="1.0444">
        <ele>11.1</ele>
        <time>2021-05-23T10:27:29Z</time>
      </trkpt>
      <trkpt lat="49.44229" lon="1.04451">
        <ele>11</ele>
        <time>2021-05-23T10:27:31Z</time>
      </trkpt>
      <trkpt lat="49.44242" lon="1.04461">
        <ele>10.8</ele>
        <time>2021-05-23T10:27:33Z</time>
      </trkpt>
      <trkpt lat="49.44248" lon="1.04467">
        <ele>10.6</ele>
        <time>2021-05-23T10:27:34Z</time>
      </trkpt>
      <trkpt lat="49.44259" lon="1.04477">
        <ele>10.5</ele>
        <time>2021-05-23T10:27:36Z</time>
      </trkpt>
      <trkpt lat="49.44272" lon="1.04487">
        <ele>10.2</ele>
        <time>2021-05-23T10:27:38Z</time>
      </trkpt>
      <trkpt lat="49.44283" lon="1.045">
        <ele>9.9</ele>
        <time>2021-05-23T10:27:41Z</time>
      </trkpt>
      <trkpt lat="49.44289" lon="1.04506">
        <ele>9.6</ele>
        <time>2021-05-23T10:27:42Z</time>
      </trkpt>
      <trkpt lat="49.443" lon="1.04516">
        <ele>9.3</ele>
        <time>2021-05-23T10:27:44Z</time>
      </trkpt>
      <trkpt lat="49.44313" lon="1.04528">
        <ele>8.9</ele>
        <time>2021-05-23T10:27:46Z</time>
      </trkpt>
      <trkpt lat="49.44319" lon="1.04533">
        <ele>8.6</ele>
        <time>2021-05-23T10:27:47Z</time>
      </trkpt>
      <trkpt lat="49.44325" lon="1.04538">
        <ele>8.5</ele>
        <time>2021-05-23T10:27:48Z</time>
      </trkpt>
      <trkpt lat="49.44337" lon="1.04548">
        <ele>8.3</ele>
        <time>2021-05-23T10:27:50Z</time>
      </trkpt>
      <trkpt lat="49.44341" lon="1.04553">
        <ele>8.2</ele>
        <time>2021-05-23T10:27:51Z</time>
      </trkpt>
      <trkpt lat="49.44354" lon="1.04564">
        <ele>8.1</ele>
        <time>2021-05-23T10:27:53Z</time>
      </trkpt>
      <trkpt lat="49.44361" lon="1.0457">
        <ele>8</ele>
        <time>2021-05-23T10:27:54Z</time>
      </trkpt>
      <trkpt lat="49.44372" lon="1.0458">
        <ele>8</ele>
        <time>2021-05-23T10:27:56Z</time>
      </trkpt>
      <trkpt lat="49.44378" lon="1.04585">
        <ele>8</ele>
        <time>2021-05-23T10:27:57Z</time>
      </trkpt>
      <trkpt lat="49.44388" lon="1.04594">
        <ele>8</ele>
        <time>2021-05-23T10:27:59Z</time>
      </trkpt>
      <trkpt lat="49.44399" lon="1.04604">
        <ele>8</ele>
        <time>2021-05-23T10:28:01Z</time>
      </trkpt>
      <trkpt lat="49.44405" lon="1.04609">
        <ele>8</ele>
        <time>2021-05-23T10:28:02Z</time>
      </trkpt>
      <trkpt lat="49.44417" lon="1.04618">
        <ele>8</ele>
        <time>2021-05-23T10:28:04Z</time>
      </trkpt>
      <trkpt lat="49.44428" lon="1.04627">
        <ele>8</ele>
        <time>2021-05-23T10:28:06Z</time>
      </trkpt>
      <trkpt lat="49.44434" lon="1.04632">
        <ele>7.9</ele>
        <time>2021-05-23T10:28:07Z</time>
      </trkpt>
      <trkpt lat="49.44447" lon="1.04641">
        <ele>7.8</ele>
        <time>2021-05-23T10:28:09Z</time>
      </trkpt>
      <trkpt lat="49.44453" lon="1.04645">
        <ele>7.5</ele>
        <time>2021-05-23T10:28:10Z</time>
      </trkpt>
      <trkpt lat="49.44459" lon="1.04652">
        <ele>7.3</ele>
        <time>2021-05-23T10:28:11Z</time>
      </trkpt>
      <trkpt lat="49.44473" lon="1.04663">
        <ele>7.1</ele>
        <time>2021-05-23T10:28:13Z</time>
      </trkpt>
      <trkpt lat="49.4448" lon="1.04669">
        <ele>7</ele>
        <time>2021-05-23T10:28:14Z</time>
      </trkpt>
      <trkpt lat="49.44486" lon="1.04677">
        <ele>7</ele>
        <time>2021-05-23T10:28:15Z</time>
      </trkpt>
      <trkpt lat="49.445" lon="1.04691">
        <ele>7.2</ele>
        <time>2021-05-23T10:28:17Z</time>
      </trkpt>
      <trkpt lat="49.44513" lon="1.04703">
        <ele>7.4</ele>
        <time>2021-05-23T10:28:19Z</time>
      </trkpt>
      <trkpt lat="49.44526" lon="1.04715">
        <ele>7.5</ele>
        <time>2021-05-23T10:28:21Z</time>
      </trkpt>
      <trkpt lat="49.4454" lon="1.04727">
        <ele>7.5</ele>
        <time>2021-05-23T10:28:23Z</time>
      </trkpt>
      <trkpt lat="49.44546" lon="1.04733">
        <ele>7.5</ele>
        <time>2021-05-23T10:28:24Z</time>
      </trkpt>
      <trkpt lat="49.44559" lon="1.04746">
        <ele>7.4</ele>
        <time>2021-05-23T10:28:26Z</time>
      </trkpt>
      <trkpt lat="49.44565" lon="1.04752">
        <ele>7.5</ele>
        <time>2021-05-23T10:28:27Z</time>
      </trkpt>
      <trkpt lat="49.44578" lon="1.04762">
        <ele>7.5</ele>
        <time>2021-05-23T10:28:30Z</time>
      </trkpt>
      <trkpt lat="49.44592" lon="1.04772">
        <ele>7.3</ele>
        <time>2021-05-23T10:28:32Z</time>
      </trkpt>
      <trkpt lat="49.44598" lon="1.04776">
        <ele>7</ele>
        <time>2021-05-23T10:28:33Z</time>
      </trkpt>
      <trkpt lat="49.44613" lon="1.04784">
        <ele>6.6</ele>
        <time>2021-05-23T10:28:35Z</time>
      </trkpt>
      <trkpt lat="49.44621" lon="1.04788">
        <ele>6.1</ele>
        <time>2021-05-23T10:28:36Z</time>
      </trkpt>
      <trkpt lat="49.44636" lon="1.04796">
        <ele>5.5</ele>
        <time>2021-05-23T10:28:38Z</time>
      </trkpt>
      <trkpt lat="49.44645" lon="1.04799">
        <ele>5.1</ele>
        <time>2021-05-23T10:28:39Z</time>
      </trkpt>
      <trkpt lat="49.4466" lon="1.04806">
        <ele>4.8</ele>
        <time>2021-05-23T10:28:41Z</time>
      </trkpt>
      <trkpt lat="49.44668" lon="1.04809">
        <ele>4.6</ele>
        <time>2021-05-23T10:28:42Z</time>
      </trkpt>
      <trkpt lat="49.44683" lon="1.04819">
        <ele>4.5</ele>
        <time>2021-05-23T10:28:44Z</time>
      </trkpt>
      <trkpt lat="49.4469" lon="1.04825">
        <ele>4.5</ele>
        <time>2021-05-23T10:28:45Z</time>
      </trkpt>
      <trkpt lat="49.44703" lon="1.04837">
        <ele>4.5</ele>
        <time>2021-05-23T10:28:47Z</time>
      </trkpt>
      <trkpt lat="49.4471" lon="1.04842">
        <ele>4.5</ele>
        <time>2021-05-23T10:28:48Z</time>
      </trkpt>
      <trkpt lat="49.44721" lon="1.04853">
        <ele>4.6</ele>
        <time>2021-05-23T10:28:50Z</time>
      </trkpt>
      <trkpt lat="49.44732" lon="1.04863">
        <ele>4.7</ele>
        <time>2021-05-23T10:28:52Z</time>
      </trkpt>
      <trkpt lat="49.44745" lon="1.04873">
        <ele>4.8</ele>
        <time>2021-05-23T10:28:54Z</time>
      </trkpt>
      <trkpt lat="49.44757" lon="1.04883">
        <ele>4.9</ele>
        <time>2021-05-23T10:28:56Z</time>
      </trkpt>
      <trkpt lat="49.44763" lon="1.04888">
        <ele>5</ele>
        <time>2021-05-23T10:28:57Z</time>
      </trkpt>
      <trkpt lat="49.44774" lon="1.04898">
        <ele>5</ele>
        <time>2021-05-23T10:28:59Z</time>
      </trkpt>
      <trkpt lat="49.4478" lon="1.04903">
        <ele>4.9</ele>
        <time>2021-05-23T10:29:00Z</time>
      </trkpt>
      <trkpt lat="49.44791" lon="1.04914">
        <ele>4.8</ele>
        <time>2021-05-23T10:29:02Z</time>
      </trkpt>
      <trkpt lat="49.44802" lon="1.04925">
        <ele>4.7</ele>
        <time>2021-05-23T10:29:04Z</time>
      </trkpt>
      <trkpt lat="49.44814" lon="1.04934">
        <ele>4.6</ele>
        <time>2021-05-23T10:29:06Z</time>
      </trkpt>
      <trkpt lat="49.44819" lon="1.04938">
        <ele>4.5</ele>
        <time>2021-05-23T10:29:07Z</time>
      </trkpt>
      <trkpt lat="49.44825" lon="1.04942">
        <ele>4.5</ele>
        <time>2021-05-23T10:29:08Z</time>
      </trkpt>
      <trkpt lat="49.44831" lon="1.04947">
        <ele>4.4</ele>
        <time>2021-05-23T10:29:09Z</time>
      </trkpt>
      <trkpt lat="49.44843" lon="1.04959">
        <ele>4.3</ele>
        <time>2021-05-23T10:29:11Z</time>
      </trkpt>
      <trkpt lat="49.44849" lon="1.04965">
        <ele>4.2</ele>
        <time>2021-05-23T10:29:12Z</time>
      </trkpt>
      <trkpt lat="49.44855" lon="1.0497">
        <ele>4</ele>
        <time>2021-05-23T10:29:13Z</time>
      </trkpt>
      <trkpt lat="49.4486" lon="1.04975">
        <ele>3.8</ele>
        <time>2021-05-23T10:29:14Z</time>
      </trkpt>
      <trkpt lat="49.44865" lon="1.0498">
        <ele>3.7</ele>
        <time>2021-05-23T10:29:15Z</time>
      </trkpt>
      <trkpt lat="49.44875" lon="1.04993">
        <ele>3.6</ele>
        <time>2021-05-23T10:29:18Z</time>
      </trkpt>
      <trkpt lat="49.44877" lon="1.05003">
        <ele>3.5</ele>
        <time>2021-05-23T10:29:19Z</time>
      </trkpt>
      <trkpt lat="49.44878" lon="1.05024">
        <ele>3.4</ele>
        <time>2021-05-23T10:29:21Z</time>
      </trkpt>
      <trkpt lat="49.4488" lon="1.05035">
        <ele>3.3</ele>
        <time>2021-05-23T10:29:22Z</time>
      </trkpt>
      <trkpt lat="49.44888" lon="1.05053">
        <ele>3.2</ele>
        <time>2021-05-23T10:29:24Z</time>
      </trkpt>
      <trkpt lat="49.44893" lon="1.05062">
        <ele>3.2</ele>
        <time>2021-05-23T10:29:25Z</time>
      </trkpt>
      <trkpt lat="49.449" lon="1.05081">
        <ele>3.2</ele>
        <time>2021-05-23T10:29:27Z</time>
      </trkpt>
      <trkpt lat="49.4491" lon="1.05097">
        <ele>3.2</ele>
        <time>2021-05-23T10:29:29Z</time>
      </trkpt>
      <trkpt lat="49.44915" lon="1.05106">
        <ele>3.3</ele>
        <time>2021-05-23T10:29:30Z</time>
      </trkpt>
      <trkpt lat="49.44921" lon="1.05124">
        <ele>3.5</ele>
        <time>2021-05-23T10:29:32Z</time>
      </trkpt>
      <trkpt lat="49.44931" lon="1.05141">
        <ele>3.6</ele>
        <time>2021-05-23T10:29:34Z</time>
      </trkpt>
      <trkpt lat="49.44935" lon="1.05151">
        <ele>3.8</ele>
        <time>2021-05-23T10:29:35Z</time>
      </trkpt>
      <trkpt lat="49.44941" lon="1.05168">
        <ele>4.1</ele>
        <time>2021-05-23T10:29:37Z</time>
      </trkpt>
      <trkpt lat="49.44944" lon="1.05177">
        <ele>4.3</ele>
        <time>2021-05-23T10:29:38Z</time>
      </trkpt>
      <trkpt lat="49.44947" lon="1.05186">
        <ele>4.5</ele>
        <time>2021-05-23T10:29:39Z</time>
      </trkpt>
      <trkpt lat="49.44951" lon="1.05205">
        <ele>4.7</ele>
        <time>2021-05-23T10:29:41Z</time>
      </trkpt>
      <trkpt lat="49.44954" lon="1.05222">
        <ele>4.9</ele>
        <time>2021-05-23T10:29:43Z</time>
      </trkpt>
      <trkpt lat="49.44955" lon="1.05231">
        <ele>5.1</ele>
        <time>2021-05-23T10:29:44Z</time>
      </trkpt>
      <trkpt lat="49.44956" lon="1.05239">
        <ele>5.3</ele>
        <time>2021-05-23T10:29:45Z</time>
      </trkpt>
      <trkpt lat="49.44958" lon="1.05256">
        <ele>5.5</ele>
        <time>2021-05-23T10:29:47Z</time>
      </trkpt>
      <trkpt lat="49.44958" lon="1.05273">
        <ele>5.5</ele>
        <time>2021-05-23T10:29:49Z</time>
      </trkpt>
      <trkpt lat="49.44958" lon="1.05283">
        <ele>5.5</ele>
        <time>2021-05-23T10:29:50Z</time>
      </trkpt>
      <trkpt lat="49.4496" lon="1.05292">
        <ele>5.5</ele>
        <time>2021-05-23T10:29:51Z</time>
      </trkpt>
      <trkpt lat="49.44963" lon="1.05312">
        <ele>5.4</ele>
        <time>2021-05-23T10:29:53Z</time>
      </trkpt>
      <trkpt lat="49.44966" lon="1.0533">
        <ele>5.3</ele>
        <time>2021-05-23T10:29:55Z</time>
      </trkpt>
      <trkpt lat="49.4497" lon="1.05349">
        <ele>5.2</ele>
        <time>2021-05-23T10:29:57Z</time>
      </trkpt>
      <trkpt lat="49.44972" lon="1.05359">
        <ele>5</ele>
        <time>2021-05-23T10:29:58Z</time>
      </trkpt>
      <trkpt lat="49.44974" lon="1.05369">
        <ele>4.7</ele>
        <time>2021-05-23T10:29:59Z</time>
      </trkpt>
      <trkpt lat="49.44976" lon="1.05379">
        <ele>4.5</ele>
        <time>2021-05-23T10:30:00Z</time>
      </trkpt>
      <trkpt lat="49.4498" lon="1.05398">
        <ele>4.2</ele>
        <time>2021-05-23T10:30:02Z</time>
      </trkpt>
      <trkpt lat="49.44984" lon="1.05418">
        <ele>3.9</ele>
        <time>2021-05-23T10:30:04Z</time>
      </trkpt>
      <trkpt lat="49.44988" lon="1.05437">
        <ele>3.8</ele>
        <time>2021-05-23T10:30:07Z</time>
      </trkpt>
      <trkpt lat="49.44992" lon="1.05456">
        <ele>3.8</ele>
        <time>2021-05-23T10:30:09Z</time>
      </trkpt>
      <trkpt lat="49.44996" lon="1.05475">
        <ele>3.8</ele>
        <time>2021-05-23T10:30:11Z</time>
      </trkpt>
      <trkpt lat="49.44998" lon="1.05485">
        <ele>4</ele>
        <time>2021-05-23T10:30:12Z</time>
      </trkpt>
      <trkpt lat="49.45003" lon="1.05503">
        <ele>4.2</ele>
        <time>2021-05-23T10:30:14Z</time>
      </trkpt>
      <trkpt lat="49.45006" lon="1.05511">
        <ele>4.3</ele>
        <time>2021-05-23T10:30:15Z</time>
      </trkpt>
      <trkpt lat="49.45013" lon="1.05524">
        <ele>4.4</ele>
        <time>2021-05-23T10:30:17Z</time>
      </trkpt>
      <trkpt lat="49.45019" lon="1.05538">
        <ele>4.5</ele>
        <time>2021-05-23T10:30:19Z</time>
      </trkpt>
      <trkpt lat="49.45021" lon="1.05546">
        <ele>4.7</ele>
        <time>2021-05-23T10:30:20Z</time>
      </trkpt>
      <trkpt lat="49.45025" lon="1.05561">
        <ele>4.9</ele>
        <time>2021-05-23T10:30:22Z</time>
      </trkpt>
      <trkpt lat="49.45026" lon="1.05578">
        <ele>5.1</ele>
        <time>2021-05-23T10:30:24Z</time>
      </trkpt>
      <trkpt lat="49.45026" lon="1.05595">
        <ele>5.2</ele>
        <time>2021-05-23T10:30:26Z</time>
      </trkpt>
      <trkpt lat="49.45023" lon="1.05609">
        <ele>5.1</ele>
        <time>2021-05-23T10:30:28Z</time>
      </trkpt>
      <trkpt lat="49.4502" lon="1.05615">
        <ele>5</ele>
        <time>2021-05-23T10:30:29Z</time>
      </trkpt>
      <trkpt lat="49.45017" lon="1.05621">
        <ele>4.9</ele>
        <time>2021-05-23T10:30:30Z</time>
      </trkpt>
      <trkpt lat="49.45013" lon="1.05626">
        <ele>4.8</ele>
        <time>2021-05-23T10:30:31Z</time>
      </trkpt>
      <trkpt lat="49.45009" lon="1.05632">
        <ele>4.7</ele>
        <time>2021-05-23T10:30:32Z</time>
      </trkpt>
      <trkpt lat="49.45007" lon="1.05638">
        <ele>4.6</ele>
        <time>2021-05-23T10:30:33Z</time>
      </trkpt>
      <trkpt lat="49.44997" lon="1.05651">
        <ele>4.6</ele>
        <time>2021-05-23T10:30:35Z</time>
      </trkpt>
      <trkpt lat="49.44992" lon="1.05658">
        <ele>4.6</ele>
        <time>2021-05-23T10:30:36Z</time>
      </trkpt>
      <trkpt lat="49.44982" lon="1.05669">
        <ele>4.6</ele>
        <time>2021-05-23T10:30:38Z</time>
      </trkpt>
      <trkpt lat="49.44973" lon="1.05682">
        <ele>4.6</ele>
        <time>2021-05-23T10:30:40Z</time>
      </trkpt>
      <trkpt lat="49.44964" lon="1.05694">
        <ele>4.5</ele>
        <time>2021-05-23T10:30:42Z</time>
      </trkpt>
      <trkpt lat="49.4496" lon="1.05699">
        <ele>4.5</ele>
        <time>2021-05-23T10:30:43Z</time>
      </trkpt>
      <trkpt lat="49.4495" lon="1.05709">
        <ele>4.5</ele>
        <time>2021-05-23T10:30:45Z</time>
      </trkpt>
      <trkpt lat="49.44941" lon="1.0572">
        <ele>4.5</ele>
        <time>2021-05-23T10:30:47Z</time>
      </trkpt>
      <trkpt lat="49.44933" lon="1.0573">
        <ele>4.3</ele>
        <time>2021-05-23T10:30:49Z</time>
      </trkpt>
      <trkpt lat="49.44923" lon="1.05737">
        <ele>4.2</ele>
        <time>2021-05-23T10:30:51Z</time>
      </trkpt>
      <trkpt lat="49.44919" lon="1.05741">
        <ele>4.1</ele>
        <time>2021-05-23T10:30:52Z</time>
      </trkpt>
      <trkpt lat="49.44909" lon="1.05749">
        <ele>3.9</ele>
        <time>2021-05-23T10:30:55Z</time>
      </trkpt>
      <trkpt lat="49.44905" lon="1.05754">
        <ele>3.7</ele>
        <time>2021-05-23T10:30:56Z</time>
      </trkpt>
      <trkpt lat="49.449" lon="1.0576">
        <ele>3.5</ele>
        <time>2021-05-23T10:30:57Z</time>
      </trkpt>
      <trkpt lat="49.44891" lon="1.05768">
        <ele>3.4</ele>
        <time>2021-05-23T10:30:59Z</time>
      </trkpt>
      <trkpt lat="49.44886" lon="1.05774">
        <ele>3.3</ele>
        <time>2021-05-23T10:31:00Z</time>
      </trkpt>
      <trkpt lat="49.44878" lon="1.05785">
        <ele>3.3</ele>
        <time>2021-05-23T10:31:02Z</time>
      </trkpt>
      <trkpt lat="49.4487" lon="1.05797">
        <ele>3.3</ele>
        <time>2021-05-23T10:31:04Z</time>
      </trkpt>
      <trkpt lat="49.44866" lon="1.05804">
        <ele>3.3</ele>
        <time>2021-05-23T10:31:05Z</time>
      </trkpt>
      <trkpt lat="49.44858" lon="1.05818">
        <ele>3.4</ele>
        <time>2021-05-23T10:31:07Z</time>
      </trkpt>
      <trkpt lat="49.4485" lon="1.05831">
        <ele>3.5</ele>
        <time>2021-05-23T10:31:09Z</time>
      </trkpt>
      <trkpt lat="49.44846" lon="1.05838">
        <ele>3.6</ele>
        <time>2021-05-23T10:31:10Z</time>
      </trkpt>
      <trkpt lat="49.44838" lon="1.0585">
        <ele>3.8</ele>
        <time>2021-05-23T10:31:12Z</time>
      </trkpt>
      <trkpt lat="49.44835" lon="1.05854">
        <ele>4</ele>
        <time>2021-05-23T10:31:13Z</time>
      </trkpt>
      <trkpt lat="49.44831" lon="1.05858">
        <ele>4.2</ele>
        <time>2021-05-23T10:31:14Z</time>
      </trkpt>
      <trkpt lat="49.44824" lon="1.05867">
        <ele>4.4</ele>
        <time>2021-05-23T10:31:16Z</time>
      </trkpt>
      <trkpt lat="49.44818" lon="1.05872">
        <ele>4.5</ele>
        <time>2021-05-23T10:31:17Z</time>
      </trkpt>
      <trkpt lat="49.44808" lon="1.05881">
        <ele>4.5</ele>
        <time>2021-05-23T10:31:19Z</time>
      </trkpt>
      <trkpt lat="49.44802" lon="1.05886">
        <ele>4.4</ele>
        <time>2021-05-23T10:31:20Z</time>
      </trkpt>
      <trkpt lat="49.44797" lon="1.0589">
        <ele>4.3</ele>
        <time>2021-05-23T10:31:21Z</time>
      </trkpt>
      <trkpt lat="49.44791" lon="1.05894">
        <ele>4.1</ele>
        <time>2021-05-23T10:31:22Z</time>
      </trkpt>
      <trkpt lat="49.44781" lon="1.05903">
        <ele>3.9</ele>
        <time>2021-05-23T10:31:24Z</time>
      </trkpt>
      <trkpt lat="49.44776" lon="1.05908">
        <ele>3.6</ele>
        <time>2021-05-23T10:31:25Z</time>
      </trkpt>
      <trkpt lat="49.44766" lon="1.05917">
        <ele>3.4</ele>
        <time>2021-05-23T10:31:27Z</time>
      </trkpt>
      <trkpt lat="49.44757" lon="1.05927">
        <ele>3.1</ele>
        <time>2021-05-23T10:31:29Z</time>
      </trkpt>
      <trkpt lat="49.44753" lon="1.05933">
        <ele>2.9</ele>
        <time>2021-05-23T10:31:30Z</time>
      </trkpt>
      <trkpt lat="49.44744" lon="1.05943">
        <ele>2.7</ele>
        <time>2021-05-23T10:31:32Z</time>
      </trkpt>
      <trkpt lat="49.44739" lon="1.05947">
        <ele>2.5</ele>
        <time>2021-05-23T10:31:33Z</time>
      </trkpt>
      <trkpt lat="49.4473" lon="1.05956">
        <ele>2.4</ele>
        <time>2021-05-23T10:31:35Z</time>
      </trkpt>
      <trkpt lat="49.44722" lon="1.05965">
        <ele>2.2</ele>
        <time>2021-05-23T10:31:37Z</time>
      </trkpt>
      <trkpt lat="49.44713" lon="1.05974">
        <ele>2</ele>
        <time>2021-05-23T10:31:39Z</time>
      </trkpt>
      <trkpt lat="49.44704" lon="1.05984">
        <ele>1.9</ele>
        <time>2021-05-23T10:31:41Z</time>
      </trkpt>
      <trkpt lat="49.44696" lon="1.05995">
        <ele>1.8</ele>
        <time>2021-05-23T10:31:44Z</time>
      </trkpt>
      <trkpt lat="49.44687" lon="1.06004">
        <ele>1.7</ele>
        <time>2021-05-23T10:31:46Z</time>
      </trkpt>
      <trkpt lat="49.44679" lon="1.06013">
        <ele>1.6</ele>
        <time>2021-05-23T10:31:48Z</time>
      </trkpt>
      <trkpt lat="49.44674" lon="1.06019">
        <ele>1.6</ele>
        <time>2021-05-23T10:31:49Z</time>
      </trkpt>
      <trkpt lat="49.44665" lon="1.0603">
        <ele>1.5</ele>
        <time>2021-05-23T10:31:51Z</time>
      </trkpt>
      <trkpt lat="49.44657" lon="1.06039">
        <ele>1.5</ele>
        <time>2021-05-23T10:31:53Z</time>
      </trkpt>
      <trkpt lat="49.44653" lon="1.06044">
        <ele>1.7</ele>
        <time>2021-05-23T10:31:54Z</time>
      </trkpt>
      <trkpt lat="49.44649" lon="1.06048">
        <ele>2</ele>
        <time>2021-05-23T10:31:55Z</time>
      </trkpt>
      <trkpt lat="49.44641" lon="1.06056">
        <ele>2.5</ele>
        <time>2021-05-23T10:31:57Z</time>
      </trkpt>
      <trkpt lat="49.44633" lon="1.06067">
        <ele>3</ele>
        <time>2021-05-23T10:31:59Z</time>
      </trkpt>
      <trkpt lat="49.44624" lon="1.06076">
        <ele>3.5</ele>
        <time>2021-05-23T10:32:01Z</time>
      </trkpt>
      <trkpt lat="49.44615" lon="1.06083">
        <ele>4</ele>
        <time>2021-05-23T10:32:03Z</time>
      </trkpt>
      <trkpt lat="49.44605" lon="1.06092">
        <ele>4.5</ele>
        <time>2021-05-23T10:32:05Z</time>
      </trkpt>
      <trkpt lat="49.446" lon="1.06096">
        <ele>4.8</ele>
        <time>2021-05-23T10:32:06Z</time>
      </trkpt>
      <trkpt lat="49.4459" lon="1.06106">
        <ele>5.1</ele>
        <time>2021-05-23T10:32:08Z</time>
      </trkpt>
      <trkpt lat="49.4458" lon="1.06115">
        <ele>5.3</ele>
        <time>2021-05-23T10:32:10Z</time>
      </trkpt>
      <trkpt lat="49.44574" lon="1.06121">
        <ele>5.4</ele>
        <time>2021-05-23T10:32:11Z</time>
      </trkpt>
      <trkpt lat="49.44564" lon="1.06126">
        <ele>5.4</ele>
        <time>2021-05-23T10:32:13Z</time>
      </trkpt>
      <trkpt lat="49.44554" lon="1.06135">
        <ele>5.3</ele>
        <time>2021-05-23T10:32:15Z</time>
      </trkpt>
      <trkpt lat="49.44545" lon="1.06142">
        <ele>5.1</ele>
        <time>2021-05-23T10:32:17Z</time>
      </trkpt>
      <trkpt lat="49.4454" lon="1.06144">
        <ele>4.8</ele>
        <time>2021-05-23T10:32:18Z</time>
      </trkpt>
      <trkpt lat="49.44535" lon="1.06146">
        <ele>4.5</ele>
        <time>2021-05-23T10:32:19Z</time>
      </trkpt>
      <trkpt lat="49.4453" lon="1.06148">
        <ele>4.3</ele>
        <time>2021-05-23T10:32:20Z</time>
      </trkpt>
      <trkpt lat="49.44522" lon="1.06153">
        <ele>4</ele>
        <time>2021-05-23T10:32:22Z</time>
      </trkpt>
      <trkpt lat="49.44517" lon="1.06157">
        <ele>3.9</ele>
        <time>2021-05-23T10:32:23Z</time>
      </trkpt>
      <trkpt lat="49.44513" lon="1.06163">
        <ele>3.8</ele>
        <time>2021-05-23T10:32:24Z</time>
      </trkpt>
      <trkpt lat="49.4451" lon="1.0617">
        <ele>3.9</ele>
        <time>2021-05-23T10:32:25Z</time>
      </trkpt>
      <trkpt lat="49.44504" lon="1.06184">
        <ele>4</ele>
        <time>2021-05-23T10:32:27Z</time>
      </trkpt>
      <trkpt lat="49.44498" lon="1.06198">
        <ele>4.2</ele>
        <time>2021-05-23T10:32:29Z</time>
      </trkpt>
      <trkpt lat="49.44495" lon="1.06212">
        <ele>4.4</ele>
        <time>2021-05-23T10:32:32Z</time>
      </trkpt>
      <trkpt lat="49.4449" lon="1.06227">
        <ele>4.6</ele>
        <time>2021-05-23T10:32:34Z</time>
      </trkpt>
      <trkpt lat="49.44487" lon="1.06234">
        <ele>4.9</ele>
        <time>2021-05-23T10:32:35Z</time>
      </trkpt>
      <trkpt lat="49.44485" lon="1.06241">
        <ele>5.2</ele>
        <time>2021-05-23T10:32:36Z</time>
      </trkpt>
      <trkpt lat="49.44482" lon="1.06247">
        <ele>5.5</ele>
        <time>2021-05-23T10:32:37Z</time>
      </trkpt>
      <trkpt lat="49.4448" lon="1.06252">
        <ele>5.9</ele>
        <time>2021-05-23T10:32:38Z</time>
      </trkpt>
      <trkpt lat="49.44476" lon="1.06265">
        <ele>6.2</ele>
        <time>2021-05-23T10:32:40Z</time>
      </trkpt>
      <trkpt lat="49.44475" lon="1.06273">
        <ele>6.5</ele>
        <time>2021-05-23T10:32:41Z</time>
      </trkpt>
      <trkpt lat="49.44474" lon="1.0628">
        <ele>6.6</ele>
        <time>2021-05-23T10:32:42Z</time>
      </trkpt>
      <trkpt lat="49.44473" lon="1.06283">
        <ele>6.8</ele>
        <time>2021-05-23T10:32:44Z</time>
      </trkpt>
      <trkpt lat="49.44473" lon="1.06283">
        <ele>6.9</ele>
        <time>2021-05-23T10:32:45Z</time>
      </trkpt>
      <trkpt lat="49.44473" lon="1.06284">
        <ele>7</ele>
        <time>2021-05-23T10:32:46Z</time>
      </trkpt>
      <trkpt lat="49.44472" lon="1.06285">
        <ele>7</ele>
        <time>2021-05-23T10:32:48Z</time>
      </trkpt>
      <trkpt lat="49.44472" lon="1.06287">
        <ele>7</ele>
        <time>2021-05-23T10:32:49Z</time>
      </trkpt>
      <trkpt lat="49.44472" lon="1.06287">
        <ele>7</ele>
        <time>2021-05-23T10:32:50Z</time>
      </trkpt>
      <trkpt lat="49.44472" lon="1.06288">
        <ele>7</ele>
        <time>2021-05-23T10:32:51Z</time>
      </trkpt>
      <trkpt lat="49.44472" lon="1.0629">
        <ele>7</ele>
        <time>2021-05-23T10:32:53Z</time>
      </trkpt>
      <trkpt lat="49.44472" lon="1.06291">
        <ele>7</ele>
        <time>2021-05-23T10:32:54Z</time>
      </trkpt>
      <trkpt lat="49.44472" lon="1.06291">
        <ele>7</ele>
        <time>2021-05-23T10:32:55Z</time>
      </trkpt>
      <trkpt lat="49.44472" lon="1.06291">
        <ele>7</ele>
        <time>2021-05-23T10:32:56Z</time>
      </trkpt>
      <trkpt lat="49.44472" lon="1.06292">
        <ele>7</ele>
        <time>2021-05-23T10:32:57Z</time>
      </trkpt>
      <trkpt lat="49.44472" lon="1.06293">
        <ele>7</ele>
        <time>2021-05-23T10:32:58Z</time>
      </trkpt>
      <trkpt lat="49.4447" lon="1.06299">
        <ele>7</ele>
        <time>2021-05-23T10:33:10Z</time>
      </trkpt>
      <trkpt lat="49.4447" lon="1.06299">
        <ele>7</ele>
        <time>2021-05-23T10:33:11Z</time>
      </trkpt>
      <trkpt lat="49.44469" lon="1.06299">
        <ele>7</ele>
        <time>2021-05-23T10:33:12Z</time>
      </trkpt>
      <trkpt lat="49.44469" lon="1.06299">
        <ele>7</ele>
        <time>2021-05-23T10:33:13Z</time>
      </trkpt>
      <trkpt lat="49.44469" lon="1.06299">
        <ele>7</ele>
        <time>2021-05-23T10:33:15Z</time>
      </trkpt>
      <trkpt lat="49.44469" lon="1.06299">
        <ele>7</ele>
        <time>2021-05-23T10:33:16Z</time>
      </trkpt>
      <trkpt lat="49.44468" lon="1.06299">
        <ele>6.9</ele>
        <time>2021-05-23T10:33:17Z</time>
      </trkpt>
      <trkpt lat="49.44468" lon="1.063">
        <ele>6.8</ele>
        <time>2021-05-23T10:33:18Z</time>
      </trkpt>
      <trkpt lat="49.44468" lon="1.06301">
        <ele>6.7</ele>
        <time>2021-05-23T10:33:20Z</time>
      </trkpt>
      <trkpt lat="49.44468" lon="1.06301">
        <ele>6.6</ele>
        <time>2021-05-23T10:33:21Z</time>
      </trkpt>
      <trkpt lat="49.44468" lon="1.06301">
        <ele>6.5</ele>
        <time>2021-05-23T10:33:23Z</time>
      </trkpt>
      <trkpt lat="49.44468" lon="1.06302">
        <ele>6.5</ele>
        <time>2021-05-23T10:33:24Z</time>
      </trkpt>
      <trkpt lat="49.44468" lon="1.06302">
        <ele>6.4</ele>
        <time>2021-05-23T10:33:25Z</time>
      </trkpt>
      <trkpt lat="49.44468" lon="1.06303">
        <ele>6.3</ele>
        <time>2021-05-23T10:33:27Z</time>
      </trkpt>
      <trkpt lat="49.44467" lon="1.06305">
        <ele>6.2</ele>
        <time>2021-05-23T10:33:28Z</time>
      </trkpt>
      <trkpt lat="49.44466" lon="1.06307">
        <ele>6.1</ele>
        <time>2021-05-23T10:33:29Z</time>
      </trkpt>
      <trkpt lat="49.44466" lon="1.06309">
        <ele>6</ele>
        <time>2021-05-23T10:33:30Z</time>
      </trkpt>
      <trkpt lat="49.44465" lon="1.06311">
        <ele>6</ele>
        <time>2021-05-23T10:33:32Z</time>
      </trkpt>
      <trkpt lat="49.44465" lon="1.06313">
        <ele>6</ele>
        <time>2021-05-23T10:33:34Z</time>
      </trkpt>
      <trkpt lat="49.44465" lon="1.06315">
        <ele>5.9</ele>
        <time>2021-05-23T10:33:35Z</time>
      </trkpt>
      <trkpt lat="49.44465" lon="1.06316">
        <ele>5.8</ele>
        <time>2021-05-23T10:33:36Z</time>
      </trkpt>
      <trkpt lat="49.44465" lon="1.06318">
        <ele>5.7</ele>
        <time>2021-05-23T10:33:38Z</time>
      </trkpt>
      <trkpt lat="49.44464" lon="1.0632">
        <ele>5.6</ele>
        <time>2021-05-23T10:33:40Z</time>
      </trkpt>
      <trkpt lat="49.44462" lon="1.06322">
        <ele>5.5</ele>
        <time>2021-05-23T10:33:42Z</time>
      </trkpt>
      <trkpt lat="49.44461" lon="1.06322">
        <ele>5.4</ele>
        <time>2021-05-23T10:33:44Z</time>
      </trkpt>
      <trkpt lat="49.4446" lon="1.06322">
        <ele>5.2</ele>
        <time>2021-05-23T10:33:45Z</time>
      </trkpt>
      <trkpt lat="49.44458" lon="1.06324">
        <ele>5</ele>
        <time>2021-05-23T10:33:47Z</time>
      </trkpt>
      <trkpt lat="49.44456" lon="1.06326">
        <ele>4.8</ele>
        <time>2021-05-23T10:33:48Z</time>
      </trkpt>
      <trkpt lat="49.44451" lon="1.06329">
        <ele>4.6</ele>
        <time>2021-05-23T10:33:50Z</time>
      </trkpt>
      <trkpt lat="49.44447" lon="1.06332">
        <ele>4.5</ele>
        <time>2021-05-23T10:33:51Z</time>
      </trkpt>
      <trkpt lat="49.44442" lon="1.06335">
        <ele>4.4</ele>
        <time>2021-05-23T10:33:53Z</time>
      </trkpt>
      <trkpt lat="49.44438" lon="1.06338">
        <ele>4.3</ele>
        <time>2021-05-23T10:33:54Z</time>
      </trkpt>
      <trkpt lat="49.44433" lon="1.06341">
        <ele>4.2</ele>
        <time>2021-05-23T10:33:56Z</time>
      </trkpt>
      <trkpt lat="49.44427" lon="1.06344">
        <ele>4.1</ele>
        <time>2021-05-23T10:33:58Z</time>
      </trkpt>
      <trkpt lat="49.44423" lon="1.06346">
        <ele>4</ele>
        <time>2021-05-23T10:33:59Z</time>
      </trkpt>
      <trkpt lat="49.44417" lon="1.0635">
        <ele>4</ele>
        <time>2021-05-23T10:34:01Z</time>
      </trkpt>
      <trkpt lat="49.44413" lon="1.06352">
        <ele>4</ele>
        <time>2021-05-23T10:34:02Z</time>
      </trkpt>
      <trkpt lat="49.44409" lon="1.06354">
        <ele>4</ele>
        <time>2021-05-23T10:34:03Z</time>
      </trkpt>
      <trkpt lat="49.44405" lon="1.06356">
        <ele>4</ele>
        <time>2021-05-23T10:34:04Z</time>
      </trkpt>
      <trkpt lat="49.44401" lon="1.06358">
        <ele>4</ele>
        <time>2021-05-23T10:34:05Z</time>
      </trkpt>
      <trkpt lat="49.44395" lon="1.06361">
        <ele>3.9</ele>
        <time>2021-05-23T10:34:07Z</time>
      </trkpt>
      <trkpt lat="49.4439" lon="1.06365">
        <ele>3.8</ele>
        <time>2021-05-23T10:34:09Z</time>
      </trkpt>
      <trkpt lat="49.4438" lon="1.0637">
        <ele>3.7</ele>
        <time>2021-05-23T10:34:11Z</time>
      </trkpt>
      <trkpt lat="49.44356" lon="1.06383">
        <ele>3.6</ele>
        <time>2021-05-23T10:34:12Z</time>
      </trkpt>
      <trkpt lat="49.44351" lon="1.06385">
        <ele>3.5</ele>
        <time>2021-05-23T10:34:14Z</time>
      </trkpt>
      <trkpt lat="49.44346" lon="1.06386">
        <ele>3.5</ele>
        <time>2021-05-23T10:34:15Z</time>
      </trkpt>
      <trkpt lat="49.44337" lon="1.06392">
        <ele>3.4</ele>
        <time>2021-05-23T10:34:17Z</time>
      </trkpt>
      <trkpt lat="49.44331" lon="1.06396">
        <ele>3.3</ele>
        <time>2021-05-23T10:34:18Z</time>
      </trkpt>
      <trkpt lat="49.44326" lon="1.06402">
        <ele>3.2</ele>
        <time>2021-05-23T10:34:19Z</time>
      </trkpt>
      <trkpt lat="49.44317" lon="1.06407">
        <ele>3.1</ele>
        <time>2021-05-23T10:34:21Z</time>
      </trkpt>
      <trkpt lat="49.44309" lon="1.06411">
        <ele>3</ele>
        <time>2021-05-23T10:34:23Z</time>
      </trkpt>
      <trkpt lat="49.44303" lon="1.06415">
        <ele>3</ele>
        <time>2021-05-23T10:34:24Z</time>
      </trkpt>
      <trkpt lat="49.44298" lon="1.06416">
        <ele>3</ele>
        <time>2021-05-23T10:34:25Z</time>
      </trkpt>
      <trkpt lat="49.44293" lon="1.06419">
        <ele>3</ele>
        <time>2021-05-23T10:34:27Z</time>
      </trkpt>
      <trkpt lat="49.44288" lon="1.06422">
        <ele>3</ele>
        <time>2021-05-23T10:34:28Z</time>
      </trkpt>
      <trkpt lat="49.44283" lon="1.06424">
        <ele>3</ele>
        <time>2021-05-23T10:34:29Z</time>
      </trkpt>
      <trkpt lat="49.44276" lon="1.06429">
        <ele>3</ele>
        <time>2021-05-23T10:34:31Z</time>
      </trkpt>
      <trkpt lat="49.44272" lon="1.0643">
        <ele>3</ele>
        <time>2021-05-23T10:34:32Z</time>
      </trkpt>
      <trkpt lat="49.44271" lon="1.0643">
        <ele>3</ele>
        <time>2021-05-23T10:34:33Z</time>
      </trkpt>
      <trkpt lat="49.4427" lon="1.06427">
        <ele>3</ele>
        <time>2021-05-23T10:34:34Z</time>
      </trkpt>
      <trkpt lat="49.44271" lon="1.06424">
        <ele>3</ele>
        <time>2021-05-23T10:34:36Z</time>
      </trkpt>
      <trkpt lat="49.44272" lon="1.06423">
        <ele>3</ele>
        <time>2021-05-23T10:34:38Z</time>
      </trkpt>
      <trkpt lat="49.44272" lon="1.06422">
        <ele>3</ele>
        <time>2021-05-23T10:34:39Z</time>
      </trkpt>
      <trkpt lat="49.44272" lon="1.06417">
        <ele>3</ele>
        <time>2021-05-23T10:34:40Z</time>
      </trkpt>
      <trkpt lat="49.44272" lon="1.06415">
        <ele>3</ele>
        <time>2021-05-23T10:34:42Z</time>
      </trkpt>
      <trkpt lat="49.44272" lon="1.06413">
        <ele>3</ele>
        <time>2021-05-23T10:34:43Z</time>
      </trkpt>
      <trkpt lat="49.44272" lon="1.06411">
        <ele>3</ele>
        <time>2021-05-23T10:34:44Z</time>
      </trkpt>
      <trkpt lat="49.44272" lon="1.06406">
        <ele>3</ele>
        <time>2021-05-23T10:34:46Z</time>
      </trkpt>
      <trkpt lat="49.44272" lon="1.06405">
        <ele>3</ele>
        <time>2021-05-23T10:34:47Z</time>
      </trkpt>
      <trkpt lat="49.44272" lon="1.06401">
        <ele>3</ele>
        <time>2021-05-23T10:34:49Z</time>
      </trkpt>
      <trkpt lat="49.44271" lon="1.06399">
        <ele>3</ele>
        <time>2021-05-23T10:34:51Z</time>
      </trkpt>
      <trkpt lat="49.44271" lon="1.06398">
        <ele>3</ele>
        <time>2021-05-23T10:34:52Z</time>
      </trkpt>
      <trkpt lat="49.44271" lon="1.06396">
        <ele>3</ele>
        <time>2021-05-23T10:34:53Z</time>
      </trkpt>
      <trkpt lat="49.44271" lon="1.06394">
        <ele>3</ele>
        <time>2021-05-23T10:34:54Z</time>
      </trkpt>
      <trkpt lat="49.4427" lon="1.06392">
        <ele>3</ele>
        <time>2021-05-23T10:34:56Z</time>
      </trkpt>
      <trkpt lat="49.4427" lon="1.06392">
        <ele>3</ele>
        <time>2021-05-23T10:34:58Z</time>
      </trkpt>
      <trkpt lat="49.4427" lon="1.0639">
        <ele>3</ele>
        <time>2021-05-23T10:34:59Z</time>
      </trkpt>
      <trkpt lat="49.44269" lon="1.06385">
        <ele>3</ele>
        <time>2021-05-23T10:35:00Z</time>
      </trkpt>
      <trkpt lat="49.44268" lon="1.06383">
        <ele>3</ele>
        <time>2021-05-23T10:35:01Z</time>
      </trkpt>
      <trkpt lat="49.44267" lon="1.06378">
        <ele>3</ele>
        <time>2021-05-23T10:35:03Z</time>
      </trkpt>
      <trkpt lat="49.44267" lon="1.06374">
        <ele>3</ele>
        <time>2021-05-23T10:35:04Z</time>
      </trkpt>
      <trkpt lat="49.44267" lon="1.06374">
        <ele>3</ele>
        <time>2021-05-23T10:35:06Z</time>
      </trkpt>
      <trkpt lat="49.44267" lon="1.06373">
        <ele>3</ele>
        <time>2021-05-23T10:35:07Z</time>
      </trkpt>
      <trkpt lat="49.44271" lon="1.06373">
        <ele>2.9</ele>
        <time>2021-05-23T10:35:09Z</time>
      </trkpt>
      <trkpt lat="49.44272" lon="1.06372">
        <ele>2.9</ele>
        <time>2021-05-23T10:35:10Z</time>
      </trkpt>
      <trkpt lat="49.44275" lon="1.06371">
        <ele>2.9</ele>
        <time>2021-05-23T10:35:11Z</time>
      </trkpt>
      <trkpt lat="49.44277" lon="1.06367">
        <ele>2.9</ele>
        <time>2021-05-23T10:35:13Z</time>
      </trkpt>
      <trkpt lat="49.44278" lon="1.06361">
        <ele>2.9</ele>
        <time>2021-05-23T10:35:14Z</time>
      </trkpt>
      <trkpt lat="49.44277" lon="1.06327">
        <ele>2.9</ele>
        <time>2021-05-23T10:35:16Z</time>
      </trkpt>
      <trkpt lat="49.44279" lon="1.06308">
        <ele>2.9</ele>
        <time>2021-05-23T10:35:18Z</time>
      </trkpt>
      <trkpt lat="49.44281" lon="1.06292">
        <ele>2.9</ele>
        <time>2021-05-23T10:35:20Z</time>
      </trkpt>
      <trkpt lat="49.44282" lon="1.06276">
        <ele>2.9</ele>
        <time>2021-05-23T10:35:22Z</time>
      </trkpt>
      <trkpt lat="49.44281" lon="1.06258">
        <ele>2.9</ele>
        <time>2021-05-23T10:35:24Z</time>
      </trkpt>
      <trkpt lat="49.4428" lon="1.0624">
        <ele>2.9</ele>
        <time>2021-05-23T10:35:26Z</time>
      </trkpt>
      <trkpt lat="49.4428" lon="1.06231">
        <ele>3</ele>
        <time>2021-05-23T10:35:27Z</time>
      </trkpt>
      <trkpt lat="49.44279" lon="1.06222">
        <ele>3</ele>
        <time>2021-05-23T10:35:28Z</time>
      </trkpt>
      <trkpt lat="49.44278" lon="1.06204">
        <ele>3</ele>
        <time>2021-05-23T10:35:30Z</time>
      </trkpt>
      <trkpt lat="49.44278" lon="1.06187">
        <ele>3</ele>
        <time>2021-05-23T10:35:32Z</time>
      </trkpt>
      <trkpt lat="49.44277" lon="1.06177">
        <ele>3</ele>
        <time>2021-05-23T10:35:33Z</time>
      </trkpt>
      <trkpt lat="49.44276" lon="1.06159">
        <ele>3</ele>
        <time>2021-05-23T10:35:35Z</time>
      </trkpt>
      <trkpt lat="49.44276" lon="1.06143">
        <ele>3.1</ele>
        <time>2021-05-23T10:35:37Z</time>
      </trkpt>
      <trkpt lat="49.44275" lon="1.06134">
        <ele>3.2</ele>
        <time>2021-05-23T10:35:38Z</time>
      </trkpt>
      <trkpt lat="49.44274" lon="1.06116">
        <ele>3.3</ele>
        <time>2021-05-23T10:35:40Z</time>
      </trkpt>
      <trkpt lat="49.44273" lon="1.06099">
        <ele>3.4</ele>
        <time>2021-05-23T10:35:42Z</time>
      </trkpt>
      <trkpt lat="49.44272" lon="1.0609">
        <ele>3.5</ele>
        <time>2021-05-23T10:35:43Z</time>
      </trkpt>
      <trkpt lat="49.44271" lon="1.06072">
        <ele>3.7</ele>
        <time>2021-05-23T10:35:46Z</time>
      </trkpt>
      <trkpt lat="49.4427" lon="1.06055">
        <ele>3.8</ele>
        <time>2021-05-23T10:35:48Z</time>
      </trkpt>
      <trkpt lat="49.44269" lon="1.06037">
        <ele>3.9</ele>
        <time>2021-05-23T10:35:50Z</time>
      </trkpt>
      <trkpt lat="49.44268" lon="1.06029">
        <ele>4</ele>
        <time>2021-05-23T10:35:51Z</time>
      </trkpt>
      <trkpt lat="49.44266" lon="1.06012">
        <ele>4.1</ele>
        <time>2021-05-23T10:35:53Z</time>
      </trkpt>
      <trkpt lat="49.44264" lon="1.05995">
        <ele>4.2</ele>
        <time>2021-05-23T10:35:55Z</time>
      </trkpt>
      <trkpt lat="49.44261" lon="1.05978">
        <ele>4.2</ele>
        <time>2021-05-23T10:35:57Z</time>
      </trkpt>
      <trkpt lat="49.44259" lon="1.05959">
        <ele>4.2</ele>
        <time>2021-05-23T10:35:59Z</time>
      </trkpt>
      <trkpt lat="49.44257" lon="1.05941">
        <ele>4.2</ele>
        <time>2021-05-23T10:36:01Z</time>
      </trkpt>
      <trkpt lat="49.44256" lon="1.05932">
        <ele>4.2</ele>
        <time>2021-05-23T10:36:02Z</time>
      </trkpt>
      <trkpt lat="49.44254" lon="1.05913">
        <ele>4.1</ele>
        <time>2021-05-23T10:36:04Z</time>
      </trkpt>
      <trkpt lat="49.44253" lon="1.05904">
        <ele>4</ele>
        <time>2021-05-23T10:36:05Z</time>
      </trkpt>
      <trkpt lat="49.44251" lon="1.05887">
        <ele>4</ele>
        <time>2021-05-23T10:36:07Z</time>
      </trkpt>
      <trkpt lat="49.44248" lon="1.0587">
        <ele>4</ele>
        <time>2021-05-23T10:36:09Z</time>
      </trkpt>
      <trkpt lat="49.44245" lon="1.05854">
        <ele>4</ele>
        <time>2021-05-23T10:36:11Z</time>
      </trkpt>
      <trkpt lat="49.44241" lon="1.05837">
        <ele>4</ele>
        <time>2021-05-23T10:36:13Z</time>
      </trkpt>
      <trkpt lat="49.44237" lon="1.05819">
        <ele>4</ele>
        <time>2021-05-23T10:36:15Z</time>
      </trkpt>
      <trkpt lat="49.44235" lon="1.05811">
        <ele>4</ele>
        <time>2021-05-23T10:36:16Z</time>
      </trkpt>
      <trkpt lat="49.44232" lon="1.05802">
        <ele>4</ele>
        <time>2021-05-23T10:36:17Z</time>
      </trkpt>
      <trkpt lat="49.4423" lon="1.05786">
        <ele>4</ele>
        <time>2021-05-23T10:36:19Z</time>
      </trkpt>
      <trkpt lat="49.44228" lon="1.05778">
        <ele>4</ele>
        <time>2021-05-23T10:36:20Z</time>
      </trkpt>
      <trkpt lat="49.44227" lon="1.05769">
        <ele>4</ele>
        <time>2021-05-23T10:36:21Z</time>
      </trkpt>
      <trkpt lat="49.44224" lon="1.05753">
        <ele>4</ele>
        <time>2021-05-23T10:36:23Z</time>
      </trkpt>
      <trkpt lat="49.44222" lon="1.05744">
        <ele>4</ele>
        <time>2021-05-23T10:36:24Z</time>
      </trkpt>
      <trkpt lat="49.4422" lon="1.05736">
        <ele>4</ele>
        <time>2021-05-23T10:36:25Z</time>
      </trkpt>
      <trkpt lat="49.44215" lon="1.05718">
        <ele>4</ele>
        <time>2021-05-23T10:36:27Z</time>
      </trkpt>
      <trkpt lat="49.44213" lon="1.05709">
        <ele>4</ele>
        <time>2021-05-23T10:36:28Z</time>
      </trkpt>
      <trkpt lat="49.44209" lon="1.0569">
        <ele>4</ele>
        <time>2021-05-23T10:36:30Z</time>
      </trkpt>
      <trkpt lat="49.44203" lon="1.05669">
        <ele>4</ele>
        <time>2021-05-23T10:36:32Z</time>
      </trkpt>
      <trkpt lat="49.44198" lon="1.05651">
        <ele>4</ele>
        <time>2021-05-23T10:36:35Z</time>
      </trkpt>
      <trkpt lat="49.44195" lon="1.05642">
        <ele>4</ele>
        <time>2021-05-23T10:36:36Z</time>
      </trkpt>
      <trkpt lat="49.44191" lon="1.05625">
        <ele>4</ele>
        <time>2021-05-23T10:36:38Z</time>
      </trkpt>
      <trkpt lat="49.44186" lon="1.05609">
        <ele>4</ele>
        <time>2021-05-23T10:36:40Z</time>
      </trkpt>
      <trkpt lat="49.44182" lon="1.05601">
        <ele>4</ele>
        <time>2021-05-23T10:36:41Z</time>
      </trkpt>
      <trkpt lat="49.44172" lon="1.05599">
        <ele>4</ele>
        <time>2021-05-23T10:36:43Z</time>
      </trkpt>
      <trkpt lat="49.44162" lon="1.05608">
        <ele>4</ele>
        <time>2021-05-23T10:36:45Z</time>
      </trkpt>
      <trkpt lat="49.44159" lon="1.05615">
        <ele>4</ele>
        <time>2021-05-23T10:36:46Z</time>
      </trkpt>
      <trkpt lat="49.44159" lon="1.05634">
        <ele>4</ele>
        <time>2021-05-23T10:36:48Z</time>
      </trkpt>
      <trkpt lat="49.4416" lon="1.05644">
        <ele>4</ele>
        <time>2021-05-23T10:36:49Z</time>
      </trkpt>
      <trkpt lat="49.4416" lon="1.05662">
        <ele>4</ele>
        <time>2021-05-23T10:36:51Z</time>
      </trkpt>
      <trkpt lat="49.44161" lon="1.05671">
        <ele>3.9</ele>
        <time>2021-05-23T10:36:52Z</time>
      </trkpt>
      <trkpt lat="49.44162" lon="1.05687">
        <ele>3.8</ele>
        <time>2021-05-23T10:36:54Z</time>
      </trkpt>
      <trkpt lat="49.44164" lon="1.05702">
        <ele>3.8</ele>
        <time>2021-05-23T10:36:56Z</time>
      </trkpt>
      <trkpt lat="49.44169" lon="1.05716">
        <ele>4</ele>
        <time>2021-05-23T10:36:58Z</time>
      </trkpt>
      <trkpt lat="49.44172" lon="1.05722">
        <ele>4.4</ele>
        <time>2021-05-23T10:36:59Z</time>
      </trkpt>
      <trkpt lat="49.44177" lon="1.05735">
        <ele>4.8</ele>
        <time>2021-05-23T10:37:01Z</time>
      </trkpt>
      <trkpt lat="49.4418" lon="1.05741">
        <ele>5.4</ele>
        <time>2021-05-23T10:37:02Z</time>
      </trkpt>
      <trkpt lat="49.44184" lon="1.05755">
        <ele>5.7</ele>
        <time>2021-05-23T10:37:04Z</time>
      </trkpt>
      <trkpt lat="49.44187" lon="1.0577">
        <ele>6.1</ele>
        <time>2021-05-23T10:37:06Z</time>
      </trkpt>
      <trkpt lat="49.4419" lon="1.05785">
        <ele>6.4</ele>
        <time>2021-05-23T10:37:08Z</time>
      </trkpt>
      <trkpt lat="49.44193" lon="1.058">
        <ele>6.6</ele>
        <time>2021-05-23T10:37:10Z</time>
      </trkpt>
      <trkpt lat="49.44195" lon="1.05807">
        <ele>6.9</ele>
        <time>2021-05-23T10:37:11Z</time>
      </trkpt>
      <trkpt lat="49.44199" lon="1.05822">
        <ele>7.3</ele>
        <time>2021-05-23T10:37:13Z</time>
      </trkpt>
      <trkpt lat="49.44201" lon="1.0583">
        <ele>7.6</ele>
        <time>2021-05-23T10:37:14Z</time>
      </trkpt>
      <trkpt lat="49.44203" lon="1.05838">
        <ele>8</ele>
        <time>2021-05-23T10:37:15Z</time>
      </trkpt>
      <trkpt lat="49.44206" lon="1.05853">
        <ele>8.1</ele>
        <time>2021-05-23T10:37:17Z</time>
      </trkpt>
      <trkpt lat="49.44207" lon="1.05862">
        <ele>8.1</ele>
        <time>2021-05-23T10:37:18Z</time>
      </trkpt>
      <trkpt lat="49.44207" lon="1.0587">
        <ele>7.9</ele>
        <time>2021-05-23T10:37:19Z</time>
      </trkpt>
      <trkpt lat="49.44208" lon="1.05879">
        <ele>7.8</ele>
        <time>2021-05-23T10:37:20Z</time>
      </trkpt>
      <trkpt lat="49.44212" lon="1.05896">
        <ele>7.7</ele>
        <time>2021-05-23T10:37:23Z</time>
      </trkpt>
      <trkpt lat="49.44216" lon="1.05915">
        <ele>7.6</ele>
        <time>2021-05-23T10:37:25Z</time>
      </trkpt>
      <trkpt lat="49.44217" lon="1.05925">
        <ele>7.5</ele>
        <time>2021-05-23T10:37:26Z</time>
      </trkpt>
      <trkpt lat="49.44221" lon="1.05944">
        <ele>7.5</ele>
        <time>2021-05-23T10:37:28Z</time>
      </trkpt>
      <trkpt lat="49.44224" lon="1.05964">
        <ele>7.4</ele>
        <time>2021-05-23T10:37:30Z</time>
      </trkpt>
      <trkpt lat="49.44225" lon="1.05973">
        <ele>7.1</ele>
        <time>2021-05-23T10:37:31Z</time>
      </trkpt>
      <trkpt lat="49.44225" lon="1.05983">
        <ele>6.6</ele>
        <time>2021-05-23T10:37:32Z</time>
      </trkpt>
      <trkpt lat="49.44226" lon="1.06003">
        <ele>6.3</ele>
        <time>2021-05-23T10:37:34Z</time>
      </trkpt>
      <trkpt lat="49.44228" lon="1.06013">
        <ele>5.9</ele>
        <time>2021-05-23T10:37:35Z</time>
      </trkpt>
      <trkpt lat="49.4423" lon="1.06032">
        <ele>5.5</ele>
        <time>2021-05-23T10:37:37Z</time>
      </trkpt>
      <trkpt lat="49.44232" lon="1.0605">
        <ele>5.3</ele>
        <time>2021-05-23T10:37:39Z</time>
      </trkpt>
      <trkpt lat="49.44233" lon="1.06058">
        <ele>5</ele>
        <time>2021-05-23T10:37:40Z</time>
      </trkpt>
      <trkpt lat="49.44234" lon="1.06063">
        <ele>4.8</ele>
        <time>2021-05-23T10:37:41Z</time>
      </trkpt>
      <trkpt lat="49.44235" lon="1.06064">
        <ele>4.7</ele>
        <time>2021-05-23T10:37:42Z</time>
      </trkpt>
      <trkpt lat="49.44237" lon="1.06062">
        <ele>4.6</ele>
        <time>2021-05-23T10:37:44Z</time>
      </trkpt>
      <trkpt lat="49.44237" lon="1.06059">
        <ele>4.6</ele>
        <time>2021-05-23T10:37:46Z</time>
      </trkpt>
      <trkpt lat="49.44237" lon="1.06056">
        <ele>4.6</ele>
        <time>2021-05-23T10:37:47Z</time>
      </trkpt>
      <trkpt lat="49.44236" lon="1.06056">
        <ele>4.6</ele>
        <time>2021-05-23T10:37:49Z</time>
      </trkpt>
      <trkpt lat="49.44236" lon="1.06056">
        <ele>4.6</ele>
        <time>2021-05-23T10:37:51Z</time>
      </trkpt>
      <trkpt lat="49.44235" lon="1.06056">
        <ele>4.6</ele>
        <time>2021-05-23T10:37:52Z</time>
      </trkpt>
      <trkpt lat="49.44234" lon="1.06055">
        <ele>4.7</ele>
        <time>2021-05-23T10:37:54Z</time>
      </trkpt>
      <trkpt lat="49.44233" lon="1.06055">
        <ele>4.8</ele>
        <time>2021-05-23T10:37:57Z</time>
      </trkpt>
      <trkpt lat="49.44232" lon="1.06055">
        <ele>4.9</ele>
        <time>2021-05-23T10:37:58Z</time>
      </trkpt>
      <trkpt lat="49.44231" lon="1.06054">
        <ele>5</ele>
        <time>2021-05-23T10:37:59Z</time>
      </trkpt>
      <trkpt lat="49.4423" lon="1.06054">
        <ele>5</ele>
        <time>2021-05-23T10:38:01Z</time>
      </trkpt>
      <trkpt lat="49.44229" lon="1.06054">
        <ele>5</ele>
        <time>2021-05-23T10:39:03Z</time>
      </trkpt>
      <trkpt lat="49.44228" lon="1.06053">
        <ele>5</ele>
        <time>2021-05-23T10:39:04Z</time>
      </trkpt>
      <trkpt lat="49.44228" lon="1.06055">
        <ele>5</ele>
        <time>2021-05-23T10:39:05Z</time>
      </trkpt>
      <trkpt lat="49.44229" lon="1.06058">
        <ele>5</ele>
        <time>2021-05-23T10:39:06Z</time>
      </trkpt>
      <trkpt lat="49.4423" lon="1.06062">
        <ele>5</ele>
        <time>2021-05-23T10:39:08Z</time>
      </trkpt>
      <trkpt lat="49.44232" lon="1.06064">
        <ele>5</ele>
        <time>2021-05-23T10:39:10Z</time>
      </trkpt>
      <trkpt lat="49.44232" lon="1.06062">
        <ele>5</ele>
        <time>2021-05-23T10:39:12Z</time>
      </trkpt>
      <trkpt lat="49.44233" lon="1.06058">
        <ele>5</ele>
        <time>2021-05-23T10:39:14Z</time>
      </trkpt>
      <trkpt lat="49.44233" lon="1.06057">
        <ele>5</ele>
        <time>2021-05-23T10:39:16Z</time>
      </trkpt>
      <trkpt lat="49.44232" lon="1.06056">
        <ele>5</ele>
        <time>2021-05-23T10:39:17Z</time>
      </trkpt>
      <trkpt lat="49.44231" lon="1.06057">
        <ele>5</ele>
        <time>2021-05-23T10:39:19Z</time>
      </trkpt>
      <trkpt lat="49.44231" lon="1.06058">
        <ele>5</ele>
        <time>2021-05-23T10:39:20Z</time>
      </trkpt>
      <trkpt lat="49.44231" lon="1.06061">
        <ele>5</ele>
        <time>2021-05-23T10:39:22Z</time>
      </trkpt>
      <trkpt lat="49.44232" lon="1.06066">
        <ele>5</ele>
        <time>2021-05-23T10:39:24Z</time>
      </trkpt>
      <trkpt lat="49.44232" lon="1.0607">
        <ele>5</ele>
        <time>2021-05-23T10:39:25Z</time>
      </trkpt>
      <trkpt lat="49.44233" lon="1.06074">
        <ele>4.9</ele>
        <time>2021-05-23T10:39:27Z</time>
      </trkpt>
      <trkpt lat="49.44235" lon="1.06078">
        <ele>4.7</ele>
        <time>2021-05-23T10:39:28Z</time>
      </trkpt>
      <trkpt lat="49.44235" lon="1.06087">
        <ele>4.6</ele>
        <time>2021-05-23T10:39:30Z</time>
      </trkpt>
      <trkpt lat="49.44235" lon="1.06101">
        <ele>4.5</ele>
        <time>2021-05-23T10:39:31Z</time>
      </trkpt>
      <trkpt lat="49.44236" lon="1.06121">
        <ele>4.5</ele>
        <time>2021-05-23T10:39:33Z</time>
      </trkpt>
      <trkpt lat="49.44238" lon="1.06144">
        <ele>4.4</ele>
        <time>2021-05-23T10:39:35Z</time>
      </trkpt>
      <trkpt lat="49.44239" lon="1.06166">
        <ele>4.3</ele>
        <time>2021-05-23T10:39:37Z</time>
      </trkpt>
      <trkpt lat="49.44239" lon="1.06185">
        <ele>4.2</ele>
        <time>2021-05-23T10:39:39Z</time>
      </trkpt>
      <trkpt lat="49.4424" lon="1.06205">
        <ele>4</ele>
        <time>2021-05-23T10:39:41Z</time>
      </trkpt>
      <trkpt lat="49.4424" lon="1.06216">
        <ele>3.8</ele>
        <time>2021-05-23T10:39:42Z</time>
      </trkpt>
      <trkpt lat="49.4424" lon="1.06226">
        <ele>3.6</ele>
        <time>2021-05-23T10:39:43Z</time>
      </trkpt>
      <trkpt lat="49.44241" lon="1.06245">
        <ele>3.5</ele>
        <time>2021-05-23T10:39:45Z</time>
      </trkpt>
      <trkpt lat="49.44241" lon="1.06255">
        <ele>3.4</ele>
        <time>2021-05-23T10:39:47Z</time>
      </trkpt>
      <trkpt lat="49.44242" lon="1.06274">
        <ele>3.3</ele>
        <time>2021-05-23T10:39:49Z</time>
      </trkpt>
      <trkpt lat="49.44242" lon="1.06285">
        <ele>3.2</ele>
        <time>2021-05-23T10:39:50Z</time>
      </trkpt>
      <trkpt lat="49.44243" lon="1.06295">
        <ele>3.1</ele>
        <time>2021-05-23T10:39:51Z</time>
      </trkpt>
      <trkpt lat="49.44245" lon="1.06316">
        <ele>2.9</ele>
        <time>2021-05-23T10:39:53Z</time>
      </trkpt>
      <trkpt lat="49.44246" lon="1.06336">
        <ele>2.7</ele>
        <time>2021-05-23T10:39:55Z</time>
      </trkpt>
      <trkpt lat="49.44246" lon="1.06347">
        <ele>2.6</ele>
        <time>2021-05-23T10:39:56Z</time>
      </trkpt>
      <trkpt lat="49.44246" lon="1.06368">
        <ele>2.6</ele>
        <time>2021-05-23T10:39:58Z</time>
      </trkpt>
      <trkpt lat="49.44246" lon="1.06378">
        <ele>2.6</ele>
        <time>2021-05-23T10:39:59Z</time>
      </trkpt>
      <trkpt lat="49.44246" lon="1.06399">
        <ele>2.5</ele>
        <time>2021-05-23T10:40:01Z</time>
      </trkpt>
      <trkpt lat="49.44245" lon="1.0641">
        <ele>2.5</ele>
        <time>2021-05-23T10:40:02Z</time>
      </trkpt>
      <trkpt lat="49.44244" lon="1.06431">
        <ele>2.5</ele>
        <time>2021-05-23T10:40:04Z</time>
      </trkpt>
      <trkpt lat="49.44243" lon="1.06442">
        <ele>2.5</ele>
        <time>2021-05-23T10:40:05Z</time>
      </trkpt>
      <trkpt lat="49.44243" lon="1.06451">
        <ele>2.4</ele>
        <time>2021-05-23T10:40:06Z</time>
      </trkpt>
      <trkpt lat="49.44243" lon="1.06461">
        <ele>2.3</ele>
        <time>2021-05-23T10:40:07Z</time>
      </trkpt>
      <trkpt lat="49.44241" lon="1.06481">
        <ele>2.3</ele>
        <time>2021-05-23T10:40:09Z</time>
      </trkpt>
      <trkpt lat="49.44239" lon="1.06501">
        <ele>2.4</ele>
        <time>2021-05-23T10:40:11Z</time>
      </trkpt>
      <trkpt lat="49.44239" lon="1.06512">
        <ele>2.4</ele>
        <time>2021-05-23T10:40:12Z</time>
      </trkpt>
      <trkpt lat="49.44239" lon="1.06523">
        <ele>2.5</ele>
        <time>2021-05-23T10:40:13Z</time>
      </trkpt>
      <trkpt lat="49.44239" lon="1.06543">
        <ele>2.5</ele>
        <time>2021-05-23T10:40:15Z</time>
      </trkpt>
      <trkpt lat="49.44237" lon="1.06563">
        <ele>2.6</ele>
        <time>2021-05-23T10:40:17Z</time>
      </trkpt>
      <trkpt lat="49.44234" lon="1.06582">
        <ele>2.6</ele>
        <time>2021-05-23T10:40:19Z</time>
      </trkpt>
      <trkpt lat="49.44233" lon="1.06592">
        <ele>2.6</ele>
        <time>2021-05-23T10:40:20Z</time>
      </trkpt>
      <trkpt lat="49.44231" lon="1.06608">
        <ele>2.6</ele>
        <time>2021-05-23T10:40:22Z</time>
      </trkpt>
      <trkpt lat="49.44231" lon="1.06615">
        <ele>2.6</ele>
        <time>2021-05-23T10:40:23Z</time>
      </trkpt>
      <trkpt lat="49.44236" lon="1.06627">
        <ele>2.6</ele>
        <time>2021-05-23T10:40:25Z</time>
      </trkpt>
      <trkpt lat="49.44243" lon="1.0664">
        <ele>2.6</ele>
        <time>2021-05-23T10:40:27Z</time>
      </trkpt>
      <trkpt lat="49.44252" lon="1.06653">
        <ele>2.5</ele>
        <time>2021-05-23T10:40:29Z</time>
      </trkpt>
      <trkpt lat="49.44256" lon="1.06661">
        <ele>2.5</ele>
        <time>2021-05-23T10:40:30Z</time>
      </trkpt>
      <trkpt lat="49.44257" lon="1.0667">
        <ele>2.3</ele>
        <time>2021-05-23T10:40:31Z</time>
      </trkpt>
      <trkpt lat="49.44257" lon="1.06679">
        <ele>2.1</ele>
        <time>2021-05-23T10:40:32Z</time>
      </trkpt>
      <trkpt lat="49.44257" lon="1.06698">
        <ele>2</ele>
        <time>2021-05-23T10:40:34Z</time>
      </trkpt>
      <trkpt lat="49.44255" lon="1.06708">
        <ele>2</ele>
        <time>2021-05-23T10:40:36Z</time>
      </trkpt>
      <trkpt lat="49.44254" lon="1.06719">
        <ele>2</ele>
        <time>2021-05-23T10:40:37Z</time>
      </trkpt>
      <trkpt lat="49.4425" lon="1.06738">
        <ele>2</ele>
        <time>2021-05-23T10:40:39Z</time>
      </trkpt>
      <trkpt lat="49.44248" lon="1.06748">
        <ele>2</ele>
        <time>2021-05-23T10:40:40Z</time>
      </trkpt>
      <trkpt lat="49.44244" lon="1.06767">
        <ele>2</ele>
        <time>2021-05-23T10:40:42Z</time>
      </trkpt>
      <trkpt lat="49.44241" lon="1.06778">
        <ele>2</ele>
        <time>2021-05-23T10:40:43Z</time>
      </trkpt>
      <trkpt lat="49.44237" lon="1.06799">
        <ele>2</ele>
        <time>2021-05-23T10:40:45Z</time>
      </trkpt>
      <trkpt lat="49.44236" lon="1.06809">
        <ele>2</ele>
        <time>2021-05-23T10:40:46Z</time>
      </trkpt>
      <trkpt lat="49.44232" lon="1.06831">
        <ele>2</ele>
        <time>2021-05-23T10:40:48Z</time>
      </trkpt>
      <trkpt lat="49.44229" lon="1.06852">
        <ele>2</ele>
        <time>2021-05-23T10:40:50Z</time>
      </trkpt>
      <trkpt lat="49.44227" lon="1.06863">
        <ele>2</ele>
        <time>2021-05-23T10:40:51Z</time>
      </trkpt>
      <trkpt lat="49.44224" lon="1.06884">
        <ele>2</ele>
        <time>2021-05-23T10:40:53Z</time>
      </trkpt>
      <trkpt lat="49.4422" lon="1.06905">
        <ele>2.1</ele>
        <time>2021-05-23T10:40:55Z</time>
      </trkpt>
      <trkpt lat="49.44214" lon="1.06926">
        <ele>2.2</ele>
        <time>2021-05-23T10:40:57Z</time>
      </trkpt>
      <trkpt lat="49.44211" lon="1.06937">
        <ele>2.3</ele>
        <time>2021-05-23T10:40:58Z</time>
      </trkpt>
      <trkpt lat="49.44209" lon="1.06947">
        <ele>2.4</ele>
        <time>2021-05-23T10:40:59Z</time>
      </trkpt>
      <trkpt lat="49.44206" lon="1.06957">
        <ele>2.5</ele>
        <time>2021-05-23T10:41:00Z</time>
      </trkpt>
      <trkpt lat="49.44201" lon="1.06977">
        <ele>2.5</ele>
        <time>2021-05-23T10:41:02Z</time>
      </trkpt>
      <trkpt lat="49.44196" lon="1.06996">
        <ele>2.7</ele>
        <time>2021-05-23T10:41:04Z</time>
      </trkpt>
      <trkpt lat="49.44193" lon="1.07006">
        <ele>3</ele>
        <time>2021-05-23T10:41:05Z</time>
      </trkpt>
      <trkpt lat="49.44189" lon="1.07025">
        <ele>3.3</ele>
        <time>2021-05-23T10:41:07Z</time>
      </trkpt>
      <trkpt lat="49.44187" lon="1.07035">
        <ele>3.5</ele>
        <time>2021-05-23T10:41:08Z</time>
      </trkpt>
      <trkpt lat="49.44182" lon="1.07054">
        <ele>3.7</ele>
        <time>2021-05-23T10:41:10Z</time>
      </trkpt>
      <trkpt lat="49.44179" lon="1.07064">
        <ele>3.9</ele>
        <time>2021-05-23T10:41:11Z</time>
      </trkpt>
      <trkpt lat="49.44174" lon="1.07083">
        <ele>4.1</ele>
        <time>2021-05-23T10:41:13Z</time>
      </trkpt>
      <trkpt lat="49.44168" lon="1.07102">
        <ele>4.3</ele>
        <time>2021-05-23T10:41:15Z</time>
      </trkpt>
      <trkpt lat="49.44166" lon="1.07111">
        <ele>4.5</ele>
        <time>2021-05-23T10:41:16Z</time>
      </trkpt>
      <trkpt lat="49.44164" lon="1.07121">
        <ele>4.6</ele>
        <time>2021-05-23T10:41:17Z</time>
      </trkpt>
      <trkpt lat="49.4416" lon="1.0714">
        <ele>4.9</ele>
        <time>2021-05-23T10:41:19Z</time>
      </trkpt>
      <trkpt lat="49.44157" lon="1.0715">
        <ele>5.2</ele>
        <time>2021-05-23T10:41:20Z</time>
      </trkpt>
      <trkpt lat="49.44152" lon="1.07169">
        <ele>5.3</ele>
        <time>2021-05-23T10:41:22Z</time>
      </trkpt>
      <trkpt lat="49.44149" lon="1.07179">
        <ele>5.4</ele>
        <time>2021-05-23T10:41:24Z</time>
      </trkpt>
      <trkpt lat="49.44147" lon="1.07189">
        <ele>5.5</ele>
        <time>2021-05-23T10:41:25Z</time>
      </trkpt>
      <trkpt lat="49.44143" lon="1.07209">
        <ele>5.5</ele>
        <time>2021-05-23T10:41:27Z</time>
      </trkpt>
      <trkpt lat="49.4414" lon="1.07219">
        <ele>5.6</ele>
        <time>2021-05-23T10:41:28Z</time>
      </trkpt>
      <trkpt lat="49.44136" lon="1.07239">
        <ele>5.8</ele>
        <time>2021-05-23T10:41:30Z</time>
      </trkpt>
      <trkpt lat="49.44134" lon="1.07248">
        <ele>6.1</ele>
        <time>2021-05-23T10:41:31Z</time>
      </trkpt>
      <trkpt lat="49.44129" lon="1.07267">
        <ele>6.5</ele>
        <time>2021-05-23T10:41:33Z</time>
      </trkpt>
      <trkpt lat="49.44124" lon="1.07286">
        <ele>6.8</ele>
        <time>2021-05-23T10:41:35Z</time>
      </trkpt>
      <trkpt lat="49.44122" lon="1.07295">
        <ele>7.1</ele>
        <time>2021-05-23T10:41:36Z</time>
      </trkpt>
      <trkpt lat="49.44118" lon="1.07313">
        <ele>7.3</ele>
        <time>2021-05-23T10:41:38Z</time>
      </trkpt>
      <trkpt lat="49.44115" lon="1.07323">
        <ele>7.4</ele>
        <time>2021-05-23T10:41:39Z</time>
      </trkpt>
      <trkpt lat="49.44111" lon="1.07342">
        <ele>7.4</ele>
        <time>2021-05-23T10:41:41Z</time>
      </trkpt>
      <trkpt lat="49.44108" lon="1.07351">
        <ele>7.4</ele>
        <time>2021-05-23T10:41:42Z</time>
      </trkpt>
      <trkpt lat="49.44103" lon="1.0737">
        <ele>7.3</ele>
        <time>2021-05-23T10:41:44Z</time>
      </trkpt>
      <trkpt lat="49.441" lon="1.0738">
        <ele>7.2</ele>
        <time>2021-05-23T10:41:45Z</time>
      </trkpt>
      <trkpt lat="49.44095" lon="1.07398">
        <ele>6.9</ele>
        <time>2021-05-23T10:41:47Z</time>
      </trkpt>
      <trkpt lat="49.44093" lon="1.07408">
        <ele>6.5</ele>
        <time>2021-05-23T10:41:48Z</time>
      </trkpt>
      <trkpt lat="49.44088" lon="1.07427">
        <ele>6.1</ele>
        <time>2021-05-23T10:41:50Z</time>
      </trkpt>
      <trkpt lat="49.44086" lon="1.07437">
        <ele>5.6</ele>
        <time>2021-05-23T10:41:51Z</time>
      </trkpt>
      <trkpt lat="49.44082" lon="1.07457">
        <ele>5.3</ele>
        <time>2021-05-23T10:41:53Z</time>
      </trkpt>
      <trkpt lat="49.4408" lon="1.07467">
        <ele>4.9</ele>
        <time>2021-05-23T10:41:54Z</time>
      </trkpt>
      <trkpt lat="49.44078" lon="1.07477">
        <ele>4.7</ele>
        <time>2021-05-23T10:41:55Z</time>
      </trkpt>
      <trkpt lat="49.44076" lon="1.07487">
        <ele>4.7</ele>
        <time>2021-05-23T10:41:56Z</time>
      </trkpt>
      <trkpt lat="49.44072" lon="1.07506">
        <ele>4.8</ele>
        <time>2021-05-23T10:41:58Z</time>
      </trkpt>
      <trkpt lat="49.44067" lon="1.07524">
        <ele>4.9</ele>
        <time>2021-05-23T10:42:00Z</time>
      </trkpt>
      <trkpt lat="49.44064" lon="1.07534">
        <ele>5</ele>
        <time>2021-05-23T10:42:01Z</time>
      </trkpt>
      <trkpt lat="49.4406" lon="1.07551">
        <ele>5.2</ele>
        <time>2021-05-23T10:42:03Z</time>
      </trkpt>
      <trkpt lat="49.44055" lon="1.0757">
        <ele>5.3</ele>
        <time>2021-05-23T10:42:05Z</time>
      </trkpt>
      <trkpt lat="49.44052" lon="1.07579">
        <ele>5.3</ele>
        <time>2021-05-23T10:42:06Z</time>
      </trkpt>
      <trkpt lat="49.44047" lon="1.07599">
        <ele>5.3</ele>
        <time>2021-05-23T10:42:08Z</time>
      </trkpt>
      <trkpt lat="49.44043" lon="1.07619">
        <ele>5.2</ele>
        <time>2021-05-23T10:42:10Z</time>
      </trkpt>
      <trkpt lat="49.44041" lon="1.07629">
        <ele>5</ele>
        <time>2021-05-23T10:42:11Z</time>
      </trkpt>
      <trkpt lat="49.44037" lon="1.07648">
        <ele>4.7</ele>
        <time>2021-05-23T10:42:14Z</time>
      </trkpt>
      <trkpt lat="49.44033" lon="1.07668">
        <ele>4.4</ele>
        <time>2021-05-23T10:42:16Z</time>
      </trkpt>
      <trkpt lat="49.4403" lon="1.07678">
        <ele>4.1</ele>
        <time>2021-05-23T10:42:17Z</time>
      </trkpt>
      <trkpt lat="49.44025" lon="1.07697">
        <ele>3.8</ele>
        <time>2021-05-23T10:42:19Z</time>
      </trkpt>
      <trkpt lat="49.44023" lon="1.07707">
        <ele>3.5</ele>
        <time>2021-05-23T10:42:20Z</time>
      </trkpt>
      <trkpt lat="49.44022" lon="1.07717">
        <ele>3.1</ele>
        <time>2021-05-23T10:42:21Z</time>
      </trkpt>
      <trkpt lat="49.44019" lon="1.07737">
        <ele>2.8</ele>
        <time>2021-05-23T10:42:23Z</time>
      </trkpt>
      <trkpt lat="49.44017" lon="1.07747">
        <ele>2.6</ele>
        <time>2021-05-23T10:42:24Z</time>
      </trkpt>
      <trkpt lat="49.44015" lon="1.07757">
        <ele>2.5</ele>
        <time>2021-05-23T10:42:25Z</time>
      </trkpt>
      <trkpt lat="49.4401" lon="1.07776">
        <ele>2.5</ele>
        <time>2021-05-23T10:42:27Z</time>
      </trkpt>
      <trkpt lat="49.44008" lon="1.07786">
        <ele>2.5</ele>
        <time>2021-05-23T10:42:28Z</time>
      </trkpt>
      <trkpt lat="49.44004" lon="1.07806">
        <ele>2.6</ele>
        <time>2021-05-23T10:42:30Z</time>
      </trkpt>
      <trkpt lat="49.44001" lon="1.07815">
        <ele>2.9</ele>
        <time>2021-05-23T10:42:31Z</time>
      </trkpt>
      <trkpt lat="49.43996" lon="1.07834">
        <ele>3</ele>
        <time>2021-05-23T10:42:33Z</time>
      </trkpt>
      <trkpt lat="49.43994" lon="1.07844">
        <ele>3.1</ele>
        <time>2021-05-23T10:42:34Z</time>
      </trkpt>
      <trkpt lat="49.43989" lon="1.07863">
        <ele>3.3</ele>
        <time>2021-05-23T10:42:36Z</time>
      </trkpt>
      <trkpt lat="49.43987" lon="1.07872">
        <ele>3.5</ele>
        <time>2021-05-23T10:42:37Z</time>
      </trkpt>
      <trkpt lat="49.43982" lon="1.07891">
        <ele>3.6</ele>
        <time>2021-05-23T10:42:39Z</time>
      </trkpt>
      <trkpt lat="49.43977" lon="1.07909">
        <ele>3.8</ele>
        <time>2021-05-23T10:42:41Z</time>
      </trkpt>
      <trkpt lat="49.43974" lon="1.07919">
        <ele>4</ele>
        <time>2021-05-23T10:42:42Z</time>
      </trkpt>
      <trkpt lat="49.4397" lon="1.07938">
        <ele>4.2</ele>
        <time>2021-05-23T10:42:44Z</time>
      </trkpt>
      <trkpt lat="49.43965" lon="1.07957">
        <ele>4.5</ele>
        <time>2021-05-23T10:42:46Z</time>
      </trkpt>
      <trkpt lat="49.43963" lon="1.07967">
        <ele>4.6</ele>
        <time>2021-05-23T10:42:47Z</time>
      </trkpt>
      <trkpt lat="49.43958" lon="1.07986">
        <ele>4.7</ele>
        <time>2021-05-23T10:42:49Z</time>
      </trkpt>
      <trkpt lat="49.43952" lon="1.08004">
        <ele>4.9</ele>
        <time>2021-05-23T10:42:51Z</time>
      </trkpt>
      <trkpt lat="49.4395" lon="1.08014">
        <ele>5.1</ele>
        <time>2021-05-23T10:42:52Z</time>
      </trkpt>
      <trkpt lat="49.43944" lon="1.08033">
        <ele>5.3</ele>
        <time>2021-05-23T10:42:54Z</time>
      </trkpt>
      <trkpt lat="49.43939" lon="1.08051">
        <ele>5.5</ele>
        <time>2021-05-23T10:42:56Z</time>
      </trkpt>
      <trkpt lat="49.43934" lon="1.08068">
        <ele>5.6</ele>
        <time>2021-05-23T10:42:58Z</time>
      </trkpt>
      <trkpt lat="49.43931" lon="1.08077">
        <ele>5.8</ele>
        <time>2021-05-23T10:42:59Z</time>
      </trkpt>
      <trkpt lat="49.43928" lon="1.08085">
        <ele>5.9</ele>
        <time>2021-05-23T10:43:00Z</time>
      </trkpt>
      <trkpt lat="49.43925" lon="1.08094">
        <ele>6</ele>
        <time>2021-05-23T10:43:02Z</time>
      </trkpt>
      <trkpt lat="49.4392" lon="1.08112">
        <ele>6</ele>
        <time>2021-05-23T10:43:04Z</time>
      </trkpt>
      <trkpt lat="49.43918" lon="1.08121">
        <ele>6</ele>
        <time>2021-05-23T10:43:05Z</time>
      </trkpt>
      <trkpt lat="49.43912" lon="1.08139">
        <ele>6</ele>
        <time>2021-05-23T10:43:07Z</time>
      </trkpt>
      <trkpt lat="49.43909" lon="1.08148">
        <ele>6</ele>
        <time>2021-05-23T10:43:08Z</time>
      </trkpt>
      <trkpt lat="49.43903" lon="1.08167">
        <ele>6</ele>
        <time>2021-05-23T10:43:10Z</time>
      </trkpt>
      <trkpt lat="49.43899" lon="1.08188">
        <ele>5.9</ele>
        <time>2021-05-23T10:43:12Z</time>
      </trkpt>
      <trkpt lat="49.43893" lon="1.08208">
        <ele>5.8</ele>
        <time>2021-05-23T10:43:14Z</time>
      </trkpt>
      <trkpt lat="49.4389" lon="1.08219">
        <ele>5.7</ele>
        <time>2021-05-23T10:43:15Z</time>
      </trkpt>
      <trkpt lat="49.43887" lon="1.08229">
        <ele>5.6</ele>
        <time>2021-05-23T10:43:16Z</time>
      </trkpt>
      <trkpt lat="49.43881" lon="1.0825">
        <ele>5.5</ele>
        <time>2021-05-23T10:43:18Z</time>
      </trkpt>
      <trkpt lat="49.43875" lon="1.08271">
        <ele>5.4</ele>
        <time>2021-05-23T10:43:20Z</time>
      </trkpt>
      <trkpt lat="49.43872" lon="1.08281">
        <ele>5.2</ele>
        <time>2021-05-23T10:43:21Z</time>
      </trkpt>
      <trkpt lat="49.43866" lon="1.083">
        <ele>5</ele>
        <time>2021-05-23T10:43:23Z</time>
      </trkpt>
      <trkpt lat="49.4386" lon="1.0832">
        <ele>4.7</ele>
        <time>2021-05-23T10:43:25Z</time>
      </trkpt>
      <trkpt lat="49.43858" lon="1.0833">
        <ele>4.5</ele>
        <time>2021-05-23T10:43:26Z</time>
      </trkpt>
      <trkpt lat="49.43853" lon="1.0835">
        <ele>4.2</ele>
        <time>2021-05-23T10:43:28Z</time>
      </trkpt>
      <trkpt lat="49.43848" lon="1.0837">
        <ele>4</ele>
        <time>2021-05-23T10:43:30Z</time>
      </trkpt>
      <trkpt lat="49.43842" lon="1.0839">
        <ele>3.8</ele>
        <time>2021-05-23T10:43:32Z</time>
      </trkpt>
      <trkpt lat="49.43835" lon="1.08409">
        <ele>3.7</ele>
        <time>2021-05-23T10:43:34Z</time>
      </trkpt>
      <trkpt lat="49.43831" lon="1.08429">
        <ele>3.6</ele>
        <time>2021-05-23T10:43:36Z</time>
      </trkpt>
      <trkpt lat="49.43829" lon="1.08439">
        <ele>3.6</ele>
        <time>2021-05-23T10:43:37Z</time>
      </trkpt>
      <trkpt lat="49.43826" lon="1.08449">
        <ele>3.7</ele>
        <time>2021-05-23T10:43:38Z</time>
      </trkpt>
      <trkpt lat="49.43821" lon="1.0847">
        <ele>3.8</ele>
        <time>2021-05-23T10:43:40Z</time>
      </trkpt>
      <trkpt lat="49.43816" lon="1.0849">
        <ele>3.9</ele>
        <time>2021-05-23T10:43:42Z</time>
      </trkpt>
      <trkpt lat="49.4381" lon="1.08509">
        <ele>4.1</ele>
        <time>2021-05-23T10:43:44Z</time>
      </trkpt>
      <trkpt lat="49.43805" lon="1.08528">
        <ele>4.3</ele>
        <time>2021-05-23T10:43:46Z</time>
      </trkpt>
      <trkpt lat="49.43799" lon="1.08546">
        <ele>4.5</ele>
        <time>2021-05-23T10:43:48Z</time>
      </trkpt>
      <trkpt lat="49.43796" lon="1.08555">
        <ele>4.7</ele>
        <time>2021-05-23T10:43:50Z</time>
      </trkpt>
      <trkpt lat="49.43789" lon="1.08573">
        <ele>5</ele>
        <time>2021-05-23T10:43:52Z</time>
      </trkpt>
      <trkpt lat="49.43783" lon="1.08591">
        <ele>5.2</ele>
        <time>2021-05-23T10:43:54Z</time>
      </trkpt>
      <trkpt lat="49.43778" lon="1.08611">
        <ele>5.5</ele>
        <time>2021-05-23T10:43:56Z</time>
      </trkpt>
      <trkpt lat="49.43775" lon="1.08621">
        <ele>5.6</ele>
        <time>2021-05-23T10:43:57Z</time>
      </trkpt>
      <trkpt lat="49.43771" lon="1.0864">
        <ele>5.8</ele>
        <time>2021-05-23T10:43:59Z</time>
      </trkpt>
      <trkpt lat="49.43769" lon="1.0865">
        <ele>6</ele>
        <time>2021-05-23T10:44:00Z</time>
      </trkpt>
      <trkpt lat="49.43766" lon="1.0866">
        <ele>6.2</ele>
        <time>2021-05-23T10:44:01Z</time>
      </trkpt>
      <trkpt lat="49.43764" lon="1.0867">
        <ele>6.5</ele>
        <time>2021-05-23T10:44:02Z</time>
      </trkpt>
      <trkpt lat="49.43758" lon="1.0869">
        <ele>6.7</ele>
        <time>2021-05-23T10:44:04Z</time>
      </trkpt>
      <trkpt lat="49.43755" lon="1.087">
        <ele>7</ele>
        <time>2021-05-23T10:44:05Z</time>
      </trkpt>
      <trkpt lat="49.43752" lon="1.08709">
        <ele>7.2</ele>
        <time>2021-05-23T10:44:06Z</time>
      </trkpt>
      <trkpt lat="49.43747" lon="1.08728">
        <ele>7.5</ele>
        <time>2021-05-23T10:44:08Z</time>
      </trkpt>
      <trkpt lat="49.43744" lon="1.08738">
        <ele>7.7</ele>
        <time>2021-05-23T10:44:09Z</time>
      </trkpt>
      <trkpt lat="49.4374" lon="1.08757">
        <ele>7.9</ele>
        <time>2021-05-23T10:44:11Z</time>
      </trkpt>
      <trkpt lat="49.43735" lon="1.08776">
        <ele>8.1</ele>
        <time>2021-05-23T10:44:13Z</time>
      </trkpt>
      <trkpt lat="49.43733" lon="1.08785">
        <ele>8.3</ele>
        <time>2021-05-23T10:44:14Z</time>
      </trkpt>
      <trkpt lat="49.43728" lon="1.08803">
        <ele>8.5</ele>
        <time>2021-05-23T10:44:16Z</time>
      </trkpt>
      <trkpt lat="49.43723" lon="1.08821">
        <ele>8.6</ele>
        <time>2021-05-23T10:44:18Z</time>
      </trkpt>
      <trkpt lat="49.4372" lon="1.0883">
        <ele>8.7</ele>
        <time>2021-05-23T10:44:19Z</time>
      </trkpt>
      <trkpt lat="49.43714" lon="1.08846">
        <ele>8.8</ele>
        <time>2021-05-23T10:44:21Z</time>
      </trkpt>
      <trkpt lat="49.43711" lon="1.08855">
        <ele>8.9</ele>
        <time>2021-05-23T10:44:22Z</time>
      </trkpt>
      <trkpt lat="49.43706" lon="1.08873">
        <ele>8.9</ele>
        <time>2021-05-23T10:44:24Z</time>
      </trkpt>
      <trkpt lat="49.437" lon="1.08892">
        <ele>8.8</ele>
        <time>2021-05-23T10:44:26Z</time>
      </trkpt>
      <trkpt lat="49.43697" lon="1.08901">
        <ele>8.7</ele>
        <time>2021-05-23T10:44:27Z</time>
      </trkpt>
      <trkpt lat="49.43694" lon="1.08909">
        <ele>8.7</ele>
        <time>2021-05-23T10:44:28Z</time>
      </trkpt>
      <trkpt lat="49.43686" lon="1.08923">
        <ele>8.7</ele>
        <time>2021-05-23T10:44:30Z</time>
      </trkpt>
      <trkpt lat="49.43679" lon="1.08938">
        <ele>8.7</ele>
        <time>2021-05-23T10:44:32Z</time>
      </trkpt>
      <trkpt lat="49.43671" lon="1.08954">
        <ele>8.7</ele>
        <time>2021-05-23T10:44:34Z</time>
      </trkpt>
      <trkpt lat="49.43663" lon="1.08971">
        <ele>8.7</ele>
        <time>2021-05-23T10:44:36Z</time>
      </trkpt>
      <trkpt lat="49.4366" lon="1.08979">
        <ele>8.6</ele>
        <time>2021-05-23T10:44:37Z</time>
      </trkpt>
      <trkpt lat="49.43656" lon="1.08986">
        <ele>8.5</ele>
        <time>2021-05-23T10:44:39Z</time>
      </trkpt>
      <trkpt lat="49.43652" lon="1.09">
        <ele>8.4</ele>
        <time>2021-05-23T10:44:41Z</time>
      </trkpt>
      <trkpt lat="49.43649" lon="1.09007">
        <ele>8.4</ele>
        <time>2021-05-23T10:44:42Z</time>
      </trkpt>
      <trkpt lat="49.43646" lon="1.09014">
        <ele>8.4</ele>
        <time>2021-05-23T10:44:43Z</time>
      </trkpt>
      <trkpt lat="49.43643" lon="1.0902">
        <ele>8.4</ele>
        <time>2021-05-23T10:44:44Z</time>
      </trkpt>
      <trkpt lat="49.43636" lon="1.09031">
        <ele>8.3</ele>
        <time>2021-05-23T10:44:46Z</time>
      </trkpt>
      <trkpt lat="49.43633" lon="1.09036">
        <ele>8.3</ele>
        <time>2021-05-23T10:44:47Z</time>
      </trkpt>
      <trkpt lat="49.43629" lon="1.09041">
        <ele>8.3</ele>
        <time>2021-05-23T10:44:49Z</time>
      </trkpt>
      <trkpt lat="49.4363" lon="1.09041">
        <ele>8.4</ele>
        <time>2021-05-23T10:44:50Z</time>
      </trkpt>
      <trkpt lat="49.43631" lon="1.09037">
        <ele>8.5</ele>
        <time>2021-05-23T10:44:52Z</time>
      </trkpt>
      <trkpt lat="49.43633" lon="1.09031">
        <ele>8.8</ele>
        <time>2021-05-23T10:44:53Z</time>
      </trkpt>
      <trkpt lat="49.43632" lon="1.09025">
        <ele>9.2</ele>
        <time>2021-05-23T10:44:55Z</time>
      </trkpt>
      <trkpt lat="49.43632" lon="1.09019">
        <ele>9.5</ele>
        <time>2021-05-23T10:44:56Z</time>
      </trkpt>
      <trkpt lat="49.43635" lon="1.0901">
        <ele>9.6</ele>
        <time>2021-05-23T10:44:57Z</time>
      </trkpt>
      <trkpt lat="49.43637" lon="1.09003">
        <ele>9.8</ele>
        <time>2021-05-23T10:44:58Z</time>
      </trkpt>
      <trkpt lat="49.43638" lon="1.08996">
        <ele>10</ele>
        <time>2021-05-23T10:44:59Z</time>
      </trkpt>
      <trkpt lat="49.4364" lon="1.0899">
        <ele>10.1</ele>
        <time>2021-05-23T10:45:00Z</time>
      </trkpt>
      <trkpt lat="49.43643" lon="1.08982">
        <ele>10.1</ele>
        <time>2021-05-23T10:45:01Z</time>
      </trkpt>
      <trkpt lat="49.43644" lon="1.08975">
        <ele>10.1</ele>
        <time>2021-05-23T10:45:03Z</time>
      </trkpt>
      <trkpt lat="49.43649" lon="1.08967">
        <ele>10</ele>
        <time>2021-05-23T10:45:04Z</time>
      </trkpt>
      <trkpt lat="49.43652" lon="1.08954">
        <ele>9.8</ele>
        <time>2021-05-23T10:45:06Z</time>
      </trkpt>
      <trkpt lat="49.43655" lon="1.08942">
        <ele>9.7</ele>
        <time>2021-05-23T10:45:08Z</time>
      </trkpt>
      <trkpt lat="49.43658" lon="1.08932">
        <ele>9.6</ele>
        <time>2021-05-23T10:45:10Z</time>
      </trkpt>
      <trkpt lat="49.4366" lon="1.08921">
        <ele>9.5</ele>
        <time>2021-05-23T10:45:12Z</time>
      </trkpt>
      <trkpt lat="49.43661" lon="1.08915">
        <ele>9.5</ele>
        <time>2021-05-23T10:45:13Z</time>
      </trkpt>
      <trkpt lat="49.43664" lon="1.08906">
        <ele>9.5</ele>
        <time>2021-05-23T10:45:15Z</time>
      </trkpt>
      <trkpt lat="49.43666" lon="1.08896">
        <ele>9.5</ele>
        <time>2021-05-23T10:45:17Z</time>
      </trkpt>
      <trkpt lat="49.43667" lon="1.0889">
        <ele>9.6</ele>
        <time>2021-05-23T10:45:18Z</time>
      </trkpt>
      <trkpt lat="49.43668" lon="1.08884">
        <ele>9.7</ele>
        <time>2021-05-23T10:45:20Z</time>
      </trkpt>
      <trkpt lat="49.4367" lon="1.08876">
        <ele>9.8</ele>
        <time>2021-05-23T10:45:21Z</time>
      </trkpt>
      <trkpt lat="49.43672" lon="1.08872">
        <ele>9.9</ele>
        <time>2021-05-23T10:45:22Z</time>
      </trkpt>
      <trkpt lat="49.43673" lon="1.08867">
        <ele>10</ele>
        <time>2021-05-23T10:45:23Z</time>
      </trkpt>
      <trkpt lat="49.43675" lon="1.08864">
        <ele>10</ele>
        <time>2021-05-23T10:45:24Z</time>
      </trkpt>
      <trkpt lat="49.43677" lon="1.08857">
        <ele>10</ele>
        <time>2021-05-23T10:45:27Z</time>
      </trkpt>
      <trkpt lat="49.43679" lon="1.0885">
        <ele>10</ele>
        <time>2021-05-23T10:45:29Z</time>
      </trkpt>
      <trkpt lat="49.4368" lon="1.08847">
        <ele>10</ele>
        <time>2021-05-23T10:45:30Z</time>
      </trkpt>
      <trkpt lat="49.43682" lon="1.0884">
        <ele>10</ele>
        <time>2021-05-23T10:45:32Z</time>
      </trkpt>
      <trkpt lat="49.43684" lon="1.08835">
        <ele>9.9</ele>
        <time>2021-05-23T10:45:33Z</time>
      </trkpt>
      <trkpt lat="49.43685" lon="1.08833">
        <ele>9.8</ele>
        <time>2021-05-23T10:45:34Z</time>
      </trkpt>
      <trkpt lat="49.43688" lon="1.08827">
        <ele>9.7</ele>
        <time>2021-05-23T10:45:36Z</time>
      </trkpt>
      <trkpt lat="49.43689" lon="1.08823">
        <ele>9.6</ele>
        <time>2021-05-23T10:45:37Z</time>
      </trkpt>
      <trkpt lat="49.43691" lon="1.08817">
        <ele>9.5</ele>
        <time>2021-05-23T10:45:39Z</time>
      </trkpt>
      <trkpt lat="49.43693" lon="1.08813">
        <ele>9.5</ele>
        <time>2021-05-23T10:45:41Z</time>
      </trkpt>
      <trkpt lat="49.43695" lon="1.08811">
        <ele>9.5</ele>
        <time>2021-05-23T10:45:42Z</time>
      </trkpt>
      <trkpt lat="49.43696" lon="1.08807">
        <ele>9.5</ele>
        <time>2021-05-23T10:45:44Z</time>
      </trkpt>
      <trkpt lat="49.43694" lon="1.08807">
        <ele>9.5</ele>
        <time>2021-05-23T10:45:46Z</time>
      </trkpt>
      <trkpt lat="49.43693" lon="1.08812">
        <ele>9.5</ele>
        <time>2021-05-23T10:45:48Z</time>
      </trkpt>
      <trkpt lat="49.43692" lon="1.08814">
        <ele>9.5</ele>
        <time>2021-05-23T10:45:49Z</time>
      </trkpt>
      <trkpt lat="49.4369" lon="1.0882">
        <ele>9.5</ele>
        <time>2021-05-23T10:45:51Z</time>
      </trkpt>
      <trkpt lat="49.43688" lon="1.08823">
        <ele>9.6</ele>
        <time>2021-05-23T10:45:52Z</time>
      </trkpt>
      <trkpt lat="49.43684" lon="1.08832">
        <ele>9.7</ele>
        <time>2021-05-23T10:45:54Z</time>
      </trkpt>
      <trkpt lat="49.43682" lon="1.08842">
        <ele>9.8</ele>
        <time>2021-05-23T10:45:56Z</time>
      </trkpt>
      <trkpt lat="49.43681" lon="1.08848">
        <ele>9.9</ele>
        <time>2021-05-23T10:45:57Z</time>
      </trkpt>
      <trkpt lat="49.43679" lon="1.08854">
        <ele>10</ele>
        <time>2021-05-23T10:45:58Z</time>
      </trkpt>
      <trkpt lat="49.43674" lon="1.08865">
        <ele>9.9</ele>
        <time>2021-05-23T10:46:00Z</time>
      </trkpt>
      <trkpt lat="49.43673" lon="1.08871">
        <ele>9.8</ele>
        <time>2021-05-23T10:46:01Z</time>
      </trkpt>
      <trkpt lat="49.43671" lon="1.08878">
        <ele>9.7</ele>
        <time>2021-05-23T10:46:02Z</time>
      </trkpt>
      <trkpt lat="49.43668" lon="1.08888">
        <ele>9.6</ele>
        <time>2021-05-23T10:46:04Z</time>
      </trkpt>
      <trkpt lat="49.43665" lon="1.08895">
        <ele>9.5</ele>
        <time>2021-05-23T10:46:05Z</time>
      </trkpt>
      <trkpt lat="49.43663" lon="1.08906">
        <ele>9.5</ele>
        <time>2021-05-23T10:46:07Z</time>
      </trkpt>
      <trkpt lat="49.4366" lon="1.08913">
        <ele>9.5</ele>
        <time>2021-05-23T10:46:08Z</time>
      </trkpt>
      <trkpt lat="49.43658" lon="1.08918">
        <ele>9.5</ele>
        <time>2021-05-23T10:46:09Z</time>
      </trkpt>
      <trkpt lat="49.43657" lon="1.08923">
        <ele>9.5</ele>
        <time>2021-05-23T10:46:10Z</time>
      </trkpt>
      <trkpt lat="49.43655" lon="1.08931">
        <ele>9.5</ele>
        <time>2021-05-23T10:46:12Z</time>
      </trkpt>
      <trkpt lat="49.43653" lon="1.08935">
        <ele>9.5</ele>
        <time>2021-05-23T10:46:13Z</time>
      </trkpt>
      <trkpt lat="49.43651" lon="1.08942">
        <ele>9.5</ele>
        <time>2021-05-23T10:46:16Z</time>
      </trkpt>
      <trkpt lat="49.43649" lon="1.08949">
        <ele>9.6</ele>
        <time>2021-05-23T10:46:18Z</time>
      </trkpt>
      <trkpt lat="49.43649" lon="1.08957">
        <ele>9.6</ele>
        <time>2021-05-23T10:46:20Z</time>
      </trkpt>
      <trkpt lat="49.43649" lon="1.0896">
        <ele>9.4</ele>
        <time>2021-05-23T10:46:21Z</time>
      </trkpt>
      <trkpt lat="49.43649" lon="1.08966">
        <ele>9.1</ele>
        <time>2021-05-23T10:46:23Z</time>
      </trkpt>
      <trkpt lat="49.43649" lon="1.08971">
        <ele>8.9</ele>
        <time>2021-05-23T10:46:25Z</time>
      </trkpt>
      <trkpt lat="49.43648" lon="1.08974">
        <ele>8.6</ele>
        <time>2021-05-23T10:46:26Z</time>
      </trkpt>
      <trkpt lat="49.43497" lon="1.09295">
        <ele>8.4</ele>
        <time>2021-05-23T11:06:45Z</time>
      </trkpt>
      <trkpt lat="49.43524" lon="1.09329">
        <ele>8.1</ele>
        <time>2021-05-23T11:06:46Z</time>
      </trkpt>
      <trkpt lat="49.43526" lon="1.09332">
        <ele>7.8</ele>
        <time>2021-05-23T11:06:47Z</time>
      </trkpt>
      <trkpt lat="49.43522" lon="1.09333">
        <ele>7.5</ele>
        <time>2021-05-23T11:06:49Z</time>
      </trkpt>
      <trkpt lat="49.43521" lon="1.09333">
        <ele>7.3</ele>
        <time>2021-05-23T11:06:51Z</time>
      </trkpt>
      <trkpt lat="49.43521" lon="1.09333">
        <ele>6.9</ele>
        <time>2021-05-23T11:06:52Z</time>
      </trkpt>
      <trkpt lat="49.4352" lon="1.09333">
        <ele>6.6</ele>
        <time>2021-05-23T11:06:53Z</time>
      </trkpt>
      <trkpt lat="49.4352" lon="1.09332">
        <ele>6.6</ele>
        <time>2021-05-23T11:06:54Z</time>
      </trkpt>
      <trkpt lat="49.43517" lon="1.09339">
        <ele>6.6</ele>
        <time>2021-05-23T11:06:56Z</time>
      </trkpt>
      <trkpt lat="49.43512" lon="1.09349">
        <ele>6.5</ele>
        <time>2021-05-23T11:06:57Z</time>
      </trkpt>
      <trkpt lat="49.43506" lon="1.09365">
        <ele>6.5</ele>
        <time>2021-05-23T11:06:58Z</time>
      </trkpt>
      <trkpt lat="49.43506" lon="1.09376">
        <ele>6.4</ele>
        <time>2021-05-23T11:07:00Z</time>
      </trkpt>
      <trkpt lat="49.43509" lon="1.09386">
        <ele>6.3</ele>
        <time>2021-05-23T11:07:01Z</time>
      </trkpt>
      <trkpt lat="49.43512" lon="1.09392">
        <ele>6.2</ele>
        <time>2021-05-23T11:07:02Z</time>
      </trkpt>
      <trkpt lat="49.43512" lon="1.09406">
        <ele>6</ele>
        <time>2021-05-23T11:07:03Z</time>
      </trkpt>
      <trkpt lat="49.43516" lon="1.09416">
        <ele>5.7</ele>
        <time>2021-05-23T11:07:05Z</time>
      </trkpt>
      <trkpt lat="49.4352" lon="1.09427">
        <ele>5.5</ele>
        <time>2021-05-23T11:07:06Z</time>
      </trkpt>
      <trkpt lat="49.43526" lon="1.09439">
        <ele>5.1</ele>
        <time>2021-05-23T11:07:08Z</time>
      </trkpt>
      <trkpt lat="49.43532" lon="1.09451">
        <ele>4.6</ele>
        <time>2021-05-23T11:07:10Z</time>
      </trkpt>
      <trkpt lat="49.43536" lon="1.09457">
        <ele>4</ele>
        <time>2021-05-23T11:07:11Z</time>
      </trkpt>
      <trkpt lat="49.43543" lon="1.0947">
        <ele>3.2</ele>
        <time>2021-05-23T11:07:13Z</time>
      </trkpt>
      <trkpt lat="49.43546" lon="1.09476">
        <ele>2.4</ele>
        <time>2021-05-23T11:07:14Z</time>
      </trkpt>
      <trkpt lat="49.43554" lon="1.09489">
        <ele>1.5</ele>
        <time>2021-05-23T11:07:16Z</time>
      </trkpt>
      <trkpt lat="49.43558" lon="1.09497">
        <ele>0.7</ele>
        <time>2021-05-23T11:07:17Z</time>
      </trkpt>
      <trkpt lat="49.43566" lon="1.09512">
        <ele>-0.1</ele>
        <time>2021-05-23T11:07:19Z</time>
      </trkpt>
      <trkpt lat="49.43575" lon="1.09529">
        <ele>-0.9</ele>
        <time>2021-05-23T11:07:21Z</time>
      </trkpt>
      <trkpt lat="49.43579" lon="1.09538">
        <ele>-1.6</ele>
        <time>2021-05-23T11:07:22Z</time>
      </trkpt>
      <trkpt lat="49.43584" lon="1.09544">
        <ele>-2.4</ele>
        <time>2021-05-23T11:07:24Z</time>
      </trkpt>
      <trkpt lat="49.43597" lon="1.0955">
        <ele>-3</ele>
        <time>2021-05-23T11:07:26Z</time>
      </trkpt>
      <trkpt lat="49.43604" lon="1.09553">
        <ele>-3.5</ele>
        <time>2021-05-23T11:07:27Z</time>
      </trkpt>
      <trkpt lat="49.4361" lon="1.09556">
        <ele>-3.7</ele>
        <time>2021-05-23T11:07:28Z</time>
      </trkpt>
      <trkpt lat="49.43622" lon="1.09561">
        <ele>-3.8</ele>
        <time>2021-05-23T11:07:30Z</time>
      </trkpt>
      <trkpt lat="49.43628" lon="1.09564">
        <ele>-3.9</ele>
        <time>2021-05-23T11:07:31Z</time>
      </trkpt>
      <trkpt lat="49.43639" lon="1.0957">
        <ele>-3.9</ele>
        <time>2021-05-23T11:07:33Z</time>
      </trkpt>
      <trkpt lat="49.43646" lon="1.09572">
        <ele>-3.7</ele>
        <time>2021-05-23T11:07:34Z</time>
      </trkpt>
      <trkpt lat="49.43652" lon="1.09575">
        <ele>-3.4</ele>
        <time>2021-05-23T11:07:35Z</time>
      </trkpt>
      <trkpt lat="49.43657" lon="1.09578">
        <ele>-2.6</ele>
        <time>2021-05-23T11:07:36Z</time>
      </trkpt>
      <trkpt lat="49.43663" lon="1.0958">
        <ele>-1.7</ele>
        <time>2021-05-23T11:07:37Z</time>
      </trkpt>
      <trkpt lat="49.43674" lon="1.09585">
        <ele>-0.4</ele>
        <time>2021-05-23T11:07:39Z</time>
      </trkpt>
      <trkpt lat="49.43686" lon="1.09589">
        <ele>1.2</ele>
        <time>2021-05-23T11:07:41Z</time>
      </trkpt>
      <trkpt lat="49.43699" lon="1.09593">
        <ele>3.1</ele>
        <time>2021-05-23T11:07:43Z</time>
      </trkpt>
      <trkpt lat="49.43711" lon="1.09601">
        <ele>5.1</ele>
        <time>2021-05-23T11:07:45Z</time>
      </trkpt>
      <trkpt lat="49.43716" lon="1.09605">
        <ele>7.1</ele>
        <time>2021-05-23T11:07:46Z</time>
      </trkpt>
      <trkpt lat="49.4373" lon="1.0961">
        <ele>9</ele>
        <time>2021-05-23T11:07:48Z</time>
      </trkpt>
      <trkpt lat="49.43737" lon="1.09614">
        <ele>10.8</ele>
        <time>2021-05-23T11:07:49Z</time>
      </trkpt>
      <trkpt lat="49.43752" lon="1.09622">
        <ele>12.4</ele>
        <time>2021-05-23T11:07:51Z</time>
      </trkpt>
      <trkpt lat="49.43767" lon="1.09628">
        <ele>13.6</ele>
        <time>2021-05-23T11:07:53Z</time>
      </trkpt>
      <trkpt lat="49.43783" lon="1.09633">
        <ele>14.6</ele>
        <time>2021-05-23T11:07:55Z</time>
      </trkpt>
      <trkpt lat="49.43793" lon="1.09636">
        <ele>15.4</ele>
        <time>2021-05-23T11:07:56Z</time>
      </trkpt>
      <trkpt lat="49.438" lon="1.09639">
        <ele>15.7</ele>
        <time>2021-05-23T11:07:57Z</time>
      </trkpt>
      <trkpt lat="49.43816" lon="1.09646">
        <ele>15.8</ele>
        <time>2021-05-23T11:07:59Z</time>
      </trkpt>
      <trkpt lat="49.43832" lon="1.09653">
        <ele>15.5</ele>
        <time>2021-05-23T11:08:01Z</time>
      </trkpt>
      <trkpt lat="49.4384" lon="1.09657">
        <ele>15.3</ele>
        <time>2021-05-23T11:08:02Z</time>
      </trkpt>
      <trkpt lat="49.43849" lon="1.09659">
        <ele>15.1</ele>
        <time>2021-05-23T11:08:03Z</time>
      </trkpt>
      <trkpt lat="49.43867" lon="1.09668">
        <ele>15.1</ele>
        <time>2021-05-23T11:08:05Z</time>
      </trkpt>
      <trkpt lat="49.43883" lon="1.09675">
        <ele>15.1</ele>
        <time>2021-05-23T11:08:07Z</time>
      </trkpt>
      <trkpt lat="49.43896" lon="1.09684">
        <ele>15.3</ele>
        <time>2021-05-23T11:08:09Z</time>
      </trkpt>
      <trkpt lat="49.43904" lon="1.09687">
        <ele>15.6</ele>
        <time>2021-05-23T11:08:10Z</time>
      </trkpt>
      <trkpt lat="49.43912" lon="1.09691">
        <ele>16</ele>
        <time>2021-05-23T11:08:11Z</time>
      </trkpt>
      <trkpt lat="49.43923" lon="1.097">
        <ele>16.5</ele>
        <time>2021-05-23T11:08:14Z</time>
      </trkpt>
      <trkpt lat="49.43928" lon="1.09704">
        <ele>16.9</ele>
        <time>2021-05-23T11:08:15Z</time>
      </trkpt>
      <trkpt lat="49.43941" lon="1.09714">
        <ele>17.5</ele>
        <time>2021-05-23T11:08:17Z</time>
      </trkpt>
      <trkpt lat="49.43946" lon="1.09716">
        <ele>17.9</ele>
        <time>2021-05-23T11:08:18Z</time>
      </trkpt>
      <trkpt lat="49.4396" lon="1.0972">
        <ele>18.3</ele>
        <time>2021-05-23T11:08:20Z</time>
      </trkpt>
      <trkpt lat="49.43968" lon="1.09722">
        <ele>18.5</ele>
        <time>2021-05-23T11:08:21Z</time>
      </trkpt>
      <trkpt lat="49.43981" lon="1.09726">
        <ele>18.7</ele>
        <time>2021-05-23T11:08:23Z</time>
      </trkpt>
      <trkpt lat="49.43988" lon="1.09727">
        <ele>18.9</ele>
        <time>2021-05-23T11:08:24Z</time>
      </trkpt>
      <trkpt lat="49.43993" lon="1.09728">
        <ele>18.9</ele>
        <time>2021-05-23T11:08:25Z</time>
      </trkpt>
      <trkpt lat="49.44002" lon="1.09731">
        <ele>18.8</ele>
        <time>2021-05-23T11:08:26Z</time>
      </trkpt>
      <trkpt lat="49.44008" lon="1.09734">
        <ele>18.7</ele>
        <time>2021-05-23T11:08:28Z</time>
      </trkpt>
      <trkpt lat="49.44021" lon="1.09739">
        <ele>18.6</ele>
        <time>2021-05-23T11:08:30Z</time>
      </trkpt>
      <trkpt lat="49.44033" lon="1.09747">
        <ele>18.6</ele>
        <time>2021-05-23T11:08:32Z</time>
      </trkpt>
      <trkpt lat="49.44047" lon="1.09752">
        <ele>18.6</ele>
        <time>2021-05-23T11:08:34Z</time>
      </trkpt>
      <trkpt lat="49.4406" lon="1.09759">
        <ele>18.7</ele>
        <time>2021-05-23T11:08:36Z</time>
      </trkpt>
      <trkpt lat="49.44072" lon="1.09766">
        <ele>18.8</ele>
        <time>2021-05-23T11:08:38Z</time>
      </trkpt>
      <trkpt lat="49.44079" lon="1.09769">
        <ele>19</ele>
        <time>2021-05-23T11:08:39Z</time>
      </trkpt>
      <trkpt lat="49.4409" lon="1.09773">
        <ele>19.2</ele>
        <time>2021-05-23T11:08:41Z</time>
      </trkpt>
      <trkpt lat="49.441" lon="1.09777">
        <ele>19.4</ele>
        <time>2021-05-23T11:08:43Z</time>
      </trkpt>
      <trkpt lat="49.44112" lon="1.09782">
        <ele>19.6</ele>
        <time>2021-05-23T11:08:45Z</time>
      </trkpt>
      <trkpt lat="49.44117" lon="1.09785">
        <ele>19.9</ele>
        <time>2021-05-23T11:08:46Z</time>
      </trkpt>
      <trkpt lat="49.44127" lon="1.0979">
        <ele>20.2</ele>
        <time>2021-05-23T11:08:48Z</time>
      </trkpt>
      <trkpt lat="49.44133" lon="1.09793">
        <ele>20.5</ele>
        <time>2021-05-23T11:08:49Z</time>
      </trkpt>
      <trkpt lat="49.44137" lon="1.09796">
        <ele>20.6</ele>
        <time>2021-05-23T11:08:50Z</time>
      </trkpt>
      <trkpt lat="49.44141" lon="1.09797">
        <ele>20.7</ele>
        <time>2021-05-23T11:08:51Z</time>
      </trkpt>
      <trkpt lat="49.44147" lon="1.09798">
        <ele>20.7</ele>
        <time>2021-05-23T11:08:53Z</time>
      </trkpt>
      <trkpt lat="49.44155" lon="1.09796">
        <ele>20.7</ele>
        <time>2021-05-23T11:08:54Z</time>
      </trkpt>
      <trkpt lat="49.44166" lon="1.09799">
        <ele>20.6</ele>
        <time>2021-05-23T11:08:56Z</time>
      </trkpt>
      <trkpt lat="49.4418" lon="1.09802">
        <ele>20.5</ele>
        <time>2021-05-23T11:08:58Z</time>
      </trkpt>
      <trkpt lat="49.44185" lon="1.09802">
        <ele>20.4</ele>
        <time>2021-05-23T11:08:59Z</time>
      </trkpt>
      <trkpt lat="49.44195" lon="1.09807">
        <ele>20.2</ele>
        <time>2021-05-23T11:09:02Z</time>
      </trkpt>
      <trkpt lat="49.44201" lon="1.0981">
        <ele>20</ele>
        <time>2021-05-23T11:09:03Z</time>
      </trkpt>
      <trkpt lat="49.44215" lon="1.09813">
        <ele>19.8</ele>
        <time>2021-05-23T11:09:05Z</time>
      </trkpt>
      <trkpt lat="49.44221" lon="1.09818">
        <ele>19.6</ele>
        <time>2021-05-23T11:09:06Z</time>
      </trkpt>
      <trkpt lat="49.44228" lon="1.09822">
        <ele>19.5</ele>
        <time>2021-05-23T11:09:07Z</time>
      </trkpt>
      <trkpt lat="49.44242" lon="1.09823">
        <ele>19.4</ele>
        <time>2021-05-23T11:09:09Z</time>
      </trkpt>
      <trkpt lat="49.44254" lon="1.0982">
        <ele>19.2</ele>
        <time>2021-05-23T11:09:11Z</time>
      </trkpt>
      <trkpt lat="49.44262" lon="1.09817">
        <ele>19.1</ele>
        <time>2021-05-23T11:09:13Z</time>
      </trkpt>
      <trkpt lat="49.44265" lon="1.0982">
        <ele>19</ele>
        <time>2021-05-23T11:09:15Z</time>
      </trkpt>
      <trkpt lat="49.44266" lon="1.0982">
        <ele>19</ele>
        <time>2021-05-23T11:09:16Z</time>
      </trkpt>
      <trkpt lat="49.44272" lon="1.09822">
        <ele>19.2</ele>
        <time>2021-05-23T11:09:17Z</time>
      </trkpt>
      <trkpt lat="49.4428" lon="1.09825">
        <ele>19.4</ele>
        <time>2021-05-23T11:09:18Z</time>
      </trkpt>
      <trkpt lat="49.4429" lon="1.09827">
        <ele>19.6</ele>
        <time>2021-05-23T11:09:19Z</time>
      </trkpt>
      <trkpt lat="49.44304" lon="1.09831">
        <ele>20</ele>
        <time>2021-05-23T11:09:21Z</time>
      </trkpt>
      <trkpt lat="49.44312" lon="1.09833">
        <ele>20.5</ele>
        <time>2021-05-23T11:09:22Z</time>
      </trkpt>
      <trkpt lat="49.44327" lon="1.09838">
        <ele>20.9</ele>
        <time>2021-05-23T11:09:24Z</time>
      </trkpt>
      <trkpt lat="49.44331" lon="1.09841">
        <ele>21.5</ele>
        <time>2021-05-23T11:09:25Z</time>
      </trkpt>
      <trkpt lat="49.44335" lon="1.09843">
        <ele>22.1</ele>
        <time>2021-05-23T11:09:27Z</time>
      </trkpt>
      <trkpt lat="49.44343" lon="1.09828">
        <ele>22.6</ele>
        <time>2021-05-23T11:09:28Z</time>
      </trkpt>
      <trkpt lat="49.44349" lon="1.09813">
        <ele>23.2</ele>
        <time>2021-05-23T11:09:30Z</time>
      </trkpt>
      <trkpt lat="49.44356" lon="1.09796">
        <ele>23.6</ele>
        <time>2021-05-23T11:09:32Z</time>
      </trkpt>
      <trkpt lat="49.44358" lon="1.09786">
        <ele>24.1</ele>
        <time>2021-05-23T11:09:33Z</time>
      </trkpt>
      <trkpt lat="49.44359" lon="1.09778">
        <ele>24.6</ele>
        <time>2021-05-23T11:09:34Z</time>
      </trkpt>
      <trkpt lat="49.44365" lon="1.09764">
        <ele>25.1</ele>
        <time>2021-05-23T11:09:36Z</time>
      </trkpt>
      <trkpt lat="49.44371" lon="1.09752">
        <ele>25.5</ele>
        <time>2021-05-23T11:09:38Z</time>
      </trkpt>
      <trkpt lat="49.44374" lon="1.09745">
        <ele>25.9</ele>
        <time>2021-05-23T11:09:40Z</time>
      </trkpt>
      <trkpt lat="49.44378" lon="1.09736">
        <ele>26.3</ele>
        <time>2021-05-23T11:09:41Z</time>
      </trkpt>
      <trkpt lat="49.44383" lon="1.09721">
        <ele>26.5</ele>
        <time>2021-05-23T11:09:43Z</time>
      </trkpt>
      <trkpt lat="49.44385" lon="1.09711">
        <ele>26.8</ele>
        <time>2021-05-23T11:09:45Z</time>
      </trkpt>
      <trkpt lat="49.4439" lon="1.09699">
        <ele>27.1</ele>
        <time>2021-05-23T11:09:46Z</time>
      </trkpt>
      <trkpt lat="49.44392" lon="1.09686">
        <ele>27.4</ele>
        <time>2021-05-23T11:09:48Z</time>
      </trkpt>
      <trkpt lat="49.44394" lon="1.09676">
        <ele>27.6</ele>
        <time>2021-05-23T11:09:51Z</time>
      </trkpt>
      <trkpt lat="49.44396" lon="1.09669">
        <ele>27.7</ele>
        <time>2021-05-23T11:09:52Z</time>
      </trkpt>
      <trkpt lat="49.44398" lon="1.09662">
        <ele>27.7</ele>
        <time>2021-05-23T11:09:53Z</time>
      </trkpt>
      <trkpt lat="49.44401" lon="1.09646">
        <ele>27.7</ele>
        <time>2021-05-23T11:09:55Z</time>
      </trkpt>
      <trkpt lat="49.44401" lon="1.09633">
        <ele>27.6</ele>
        <time>2021-05-23T11:09:56Z</time>
      </trkpt>
      <trkpt lat="49.44403" lon="1.09626">
        <ele>27.5</ele>
        <time>2021-05-23T11:09:58Z</time>
      </trkpt>
      <trkpt lat="49.44404" lon="1.0962">
        <ele>27.5</ele>
        <time>2021-05-23T11:09:59Z</time>
      </trkpt>
      <trkpt lat="49.44404" lon="1.09611">
        <ele>27.4</ele>
        <time>2021-05-23T11:10:00Z</time>
      </trkpt>
      <trkpt lat="49.44404" lon="1.09604">
        <ele>27.3</ele>
        <time>2021-05-23T11:10:01Z</time>
      </trkpt>
      <trkpt lat="49.44405" lon="1.0959">
        <ele>27.2</ele>
        <time>2021-05-23T11:10:02Z</time>
      </trkpt>
      <trkpt lat="49.44406" lon="1.0958">
        <ele>27.1</ele>
        <time>2021-05-23T11:10:03Z</time>
      </trkpt>
      <trkpt lat="49.44409" lon="1.09559">
        <ele>27</ele>
        <time>2021-05-23T11:10:05Z</time>
      </trkpt>
      <trkpt lat="49.44411" lon="1.09549">
        <ele>27</ele>
        <time>2021-05-23T11:10:06Z</time>
      </trkpt>
      <trkpt lat="49.44414" lon="1.09529">
        <ele>27</ele>
        <time>2021-05-23T11:10:08Z</time>
      </trkpt>
      <trkpt lat="49.44416" lon="1.09511">
        <ele>27</ele>
        <time>2021-05-23T11:10:10Z</time>
      </trkpt>
      <trkpt lat="49.44419" lon="1.09493">
        <ele>27</ele>
        <time>2021-05-23T11:10:12Z</time>
      </trkpt>
      <trkpt lat="49.44423" lon="1.09479">
        <ele>27</ele>
        <time>2021-05-23T11:10:14Z</time>
      </trkpt>
      <trkpt lat="49.44424" lon="1.0947">
        <ele>27</ele>
        <time>2021-05-23T11:10:15Z</time>
      </trkpt>
      <trkpt lat="49.44426" lon="1.09452">
        <ele>26.9</ele>
        <time>2021-05-23T11:10:17Z</time>
      </trkpt>
      <trkpt lat="49.44428" lon="1.09443">
        <ele>26.8</ele>
        <time>2021-05-23T11:10:18Z</time>
      </trkpt>
      <trkpt lat="49.4443" lon="1.09435">
        <ele>26.7</ele>
        <time>2021-05-23T11:10:19Z</time>
      </trkpt>
      <trkpt lat="49.44431" lon="1.09427">
        <ele>26.6</ele>
        <time>2021-05-23T11:10:20Z</time>
      </trkpt>
      <trkpt lat="49.44434" lon="1.0941">
        <ele>26.5</ele>
        <time>2021-05-23T11:10:22Z</time>
      </trkpt>
      <trkpt lat="49.44434" lon="1.09401">
        <ele>26.5</ele>
        <time>2021-05-23T11:10:23Z</time>
      </trkpt>
      <trkpt lat="49.44435" lon="1.09387">
        <ele>26.4</ele>
        <time>2021-05-23T11:10:25Z</time>
      </trkpt>
      <trkpt lat="49.44436" lon="1.09381">
        <ele>26.3</ele>
        <time>2021-05-23T11:10:26Z</time>
      </trkpt>
      <trkpt lat="49.44438" lon="1.09367">
        <ele>26.2</ele>
        <time>2021-05-23T11:10:28Z</time>
      </trkpt>
      <trkpt lat="49.4444" lon="1.09366">
        <ele>26.2</ele>
        <time>2021-05-23T11:10:29Z</time>
      </trkpt>
      <trkpt lat="49.4444" lon="1.09366">
        <ele>26.2</ele>
        <time>2021-05-23T11:10:31Z</time>
      </trkpt>
      <trkpt lat="49.44441" lon="1.09365">
        <ele>26.4</ele>
        <time>2021-05-23T11:10:32Z</time>
      </trkpt>
      <trkpt lat="49.44442" lon="1.09365">
        <ele>26.5</ele>
        <time>2021-05-23T11:10:33Z</time>
      </trkpt>
      <trkpt lat="49.44447" lon="1.09365">
        <ele>26.7</ele>
        <time>2021-05-23T11:10:35Z</time>
      </trkpt>
      <trkpt lat="49.44452" lon="1.09364">
        <ele>26.9</ele>
        <time>2021-05-23T11:10:36Z</time>
      </trkpt>
      <trkpt lat="49.44456" lon="1.09364">
        <ele>27.1</ele>
        <time>2021-05-23T11:10:38Z</time>
      </trkpt>
      <trkpt lat="49.44463" lon="1.09365">
        <ele>27.3</ele>
        <time>2021-05-23T11:10:40Z</time>
      </trkpt>
      <trkpt lat="49.44469" lon="1.09359">
        <ele>27.5</ele>
        <time>2021-05-23T11:10:42Z</time>
      </trkpt>
      <trkpt lat="49.44473" lon="1.09358">
        <ele>27.6</ele>
        <time>2021-05-23T11:10:43Z</time>
      </trkpt>
      <trkpt lat="49.44474" lon="1.09358">
        <ele>27.8</ele>
        <time>2021-05-23T11:10:44Z</time>
      </trkpt>
      <trkpt lat="49.4448" lon="1.09354">
        <ele>27.9</ele>
        <time>2021-05-23T11:10:46Z</time>
      </trkpt>
      <trkpt lat="49.44484" lon="1.09349">
        <ele>28</ele>
        <time>2021-05-23T11:10:48Z</time>
      </trkpt>
      <trkpt lat="49.44485" lon="1.09344">
        <ele>27.9</ele>
        <time>2021-05-23T11:10:50Z</time>
      </trkpt>
      <trkpt lat="49.44485" lon="1.09343">
        <ele>27.8</ele>
        <time>2021-05-23T11:10:52Z</time>
      </trkpt>
      <trkpt lat="49.44485" lon="1.09341">
        <ele>27.6</ele>
        <time>2021-05-23T11:10:53Z</time>
      </trkpt>
      <trkpt lat="49.44484" lon="1.0934">
        <ele>27.5</ele>
        <time>2021-05-23T11:10:54Z</time>
      </trkpt>
      <trkpt lat="49.44483" lon="1.09335">
        <ele>27.3</ele>
        <time>2021-05-23T11:10:55Z</time>
      </trkpt>
      <trkpt lat="49.4448" lon="1.09327">
        <ele>27.1</ele>
        <time>2021-05-23T11:10:57Z</time>
      </trkpt>
      <trkpt lat="49.44476" lon="1.09317">
        <ele>26.9</ele>
        <time>2021-05-23T11:10:58Z</time>
      </trkpt>
      <trkpt lat="49.44474" lon="1.0931">
        <ele>26.8</ele>
        <time>2021-05-23T11:10:59Z</time>
      </trkpt>
      <trkpt lat="49.44474" lon="1.09305">
        <ele>26.7</ele>
        <time>2021-05-23T11:11:00Z</time>
      </trkpt>
      <trkpt lat="49.44474" lon="1.09303">
        <ele>26.6</ele>
        <time>2021-05-23T11:11:01Z</time>
      </trkpt>
      <trkpt lat="49.44475" lon="1.09297">
        <ele>26.5</ele>
        <time>2021-05-23T11:11:03Z</time>
      </trkpt>
      <trkpt lat="49.44478" lon="1.0929">
        <ele>26.5</ele>
        <time>2021-05-23T11:11:04Z</time>
      </trkpt>
      <trkpt lat="49.4448" lon="1.09286">
        <ele>26.5</ele>
        <time>2021-05-23T11:11:05Z</time>
      </trkpt>
      <trkpt lat="49.44481" lon="1.09282">
        <ele>26.6</ele>
        <time>2021-05-23T11:11:06Z</time>
      </trkpt>
      <trkpt lat="49.44482" lon="1.09268">
        <ele>26.8</ele>
        <time>2021-05-23T11:11:08Z</time>
      </trkpt>
      <trkpt lat="49.44486" lon="1.09255">
        <ele>27</ele>
        <time>2021-05-23T11:11:09Z</time>
      </trkpt>
      <trkpt lat="49.4449" lon="1.09254">
        <ele>27.2</ele>
        <time>2021-05-23T11:11:10Z</time>
      </trkpt>
      <trkpt lat="49.44497" lon="1.09254">
        <ele>27.4</ele>
        <time>2021-05-23T11:11:12Z</time>
      </trkpt>
      <trkpt lat="49.44503" lon="1.09255">
        <ele>27.5</ele>
        <time>2021-05-23T11:11:14Z</time>
      </trkpt>
      <trkpt lat="49.44506" lon="1.09253">
        <ele>27.7</ele>
        <time>2021-05-23T11:11:15Z</time>
      </trkpt>
      <trkpt lat="49.44506" lon="1.09256">
        <ele>27.9</ele>
        <time>2021-05-23T11:11:16Z</time>
      </trkpt>
      <trkpt lat="49.44508" lon="1.09259">
        <ele>28.2</ele>
        <time>2021-05-23T11:11:18Z</time>
      </trkpt>
      <trkpt lat="49.44509" lon="1.09263">
        <ele>28.5</ele>
        <time>2021-05-23T11:11:19Z</time>
      </trkpt>
      <trkpt lat="49.44512" lon="1.09272">
        <ele>28.7</ele>
        <time>2021-05-23T11:11:21Z</time>
      </trkpt>
      <trkpt lat="49.44513" lon="1.09276">
        <ele>29</ele>
        <time>2021-05-23T11:11:22Z</time>
      </trkpt>
      <trkpt lat="49.44514" lon="1.0928">
        <ele>29.2</ele>
        <time>2021-05-23T11:11:23Z</time>
      </trkpt>
      <trkpt lat="49.44516" lon="1.09289">
        <ele>29.4</ele>
        <time>2021-05-23T11:11:25Z</time>
      </trkpt>
      <trkpt lat="49.44518" lon="1.09296">
        <ele>29.5</ele>
        <time>2021-05-23T11:11:27Z</time>
      </trkpt>
      <trkpt lat="49.44518" lon="1.09305">
        <ele>29.7</ele>
        <time>2021-05-23T11:11:29Z</time>
      </trkpt>
      <trkpt lat="49.44519" lon="1.09312">
        <ele>29.8</ele>
        <time>2021-05-23T11:11:30Z</time>
      </trkpt>
      <trkpt lat="49.44521" lon="1.09318">
        <ele>29.8</ele>
        <time>2021-05-23T11:11:32Z</time>
      </trkpt>
      <trkpt lat="49.4452" lon="1.09326">
        <ele>29.8</ele>
        <time>2021-05-23T11:11:33Z</time>
      </trkpt>
      <trkpt lat="49.4452" lon="1.09333">
        <ele>29.7</ele>
        <time>2021-05-23T11:11:34Z</time>
      </trkpt>
      <trkpt lat="49.44519" lon="1.09357">
        <ele>29.6</ele>
        <time>2021-05-23T11:11:36Z</time>
      </trkpt>
      <trkpt lat="49.44517" lon="1.09365">
        <ele>29.5</ele>
        <time>2021-05-23T11:11:37Z</time>
      </trkpt>
      <trkpt lat="49.44513" lon="1.09376">
        <ele>29.5</ele>
        <time>2021-05-23T11:11:39Z</time>
      </trkpt>
      <trkpt lat="49.44514" lon="1.09382">
        <ele>29.5</ele>
        <time>2021-05-23T11:11:40Z</time>
      </trkpt>
      <trkpt lat="49.44517" lon="1.09393">
        <ele>29.5</ele>
        <time>2021-05-23T11:11:41Z</time>
      </trkpt>
      <trkpt lat="49.44521" lon="1.0941">
        <ele>29.5</ele>
        <time>2021-05-23T11:11:43Z</time>
      </trkpt>
      <trkpt lat="49.44524" lon="1.09418">
        <ele>29.5</ele>
        <time>2021-05-23T11:11:44Z</time>
      </trkpt>
      <trkpt lat="49.4453" lon="1.0942">
        <ele>29.6</ele>
        <time>2021-05-23T11:11:45Z</time>
      </trkpt>
      <trkpt lat="49.44536" lon="1.09427">
        <ele>29.8</ele>
        <time>2021-05-23T11:11:46Z</time>
      </trkpt>
      <trkpt lat="49.44548" lon="1.09441">
        <ele>30.1</ele>
        <time>2021-05-23T11:11:48Z</time>
      </trkpt>
      <trkpt lat="49.44553" lon="1.09449">
        <ele>30.3</ele>
        <time>2021-05-23T11:11:49Z</time>
      </trkpt>
      <trkpt lat="49.44563" lon="1.09461">
        <ele>30.5</ele>
        <time>2021-05-23T11:11:51Z</time>
      </trkpt>
      <trkpt lat="49.44567" lon="1.09466">
        <ele>30.6</ele>
        <time>2021-05-23T11:11:52Z</time>
      </trkpt>
      <trkpt lat="49.44569" lon="1.09471">
        <ele>30.8</ele>
        <time>2021-05-23T11:11:54Z</time>
      </trkpt>
      <trkpt lat="49.4457" lon="1.09472">
        <ele>30.9</ele>
        <time>2021-05-23T11:11:55Z</time>
      </trkpt>
      <trkpt lat="49.44569" lon="1.09472">
        <ele>31</ele>
        <time>2021-05-23T11:11:56Z</time>
      </trkpt>
      <trkpt lat="49.44568" lon="1.09472">
        <ele>31.1</ele>
        <time>2021-05-23T11:11:58Z</time>
      </trkpt>
      <trkpt lat="49.44567" lon="1.09472">
        <ele>31.1</ele>
        <time>2021-05-23T11:12:00Z</time>
      </trkpt>
      <trkpt lat="49.44565" lon="1.09472">
        <ele>31.2</ele>
        <time>2021-05-23T11:12:08Z</time>
      </trkpt>
    </trkseg>
  </trk>
</gpx>